<?xml version="1.0" encoding="UTF-8" standalone="no" ?>
<gpx xmlns="http://www.topografix.com/GPX/1/1" xmlns:xsi="http://www.w3.org/2001/XMLSchema-instance" xsi:schemaLocation="http://www.topografix.com/GPX/1/1 http://www.topografix.com/GPX/1/1/gpx.xsd" version="1.1" creator="VisuGPX - https://www.visugpx.com">
  <metadata>
    <name>Tour d'Europe: étape 041</name>
    <desc><![CDATA[Étape 041]]></desc>
  </metadata>
  <trk>
    <name><![CDATA[Tour d'Europe: étape 041]]></name>
    <trkseg>
      <trkpt lat="63.43454" lon="10.39925">
        <ele>54.417949</ele>
        <time>2020-08-08T06:55:56.967Z</time>
      </trkpt>
      <trkpt lat="63.43448" lon="10.39956">
        <ele>54.417949</ele>
        <time>2020-08-08T06:55:59.173Z</time>
      </trkpt>
      <trkpt lat="63.43426" lon="10.40006">
        <ele>54.417949</ele>
        <time>2020-08-08T06:58:51.225Z</time>
      </trkpt>
      <trkpt lat="63.43419" lon="10.40021">
        <ele>54.417949</ele>
        <time>2020-08-08T06:58:54.263Z</time>
      </trkpt>
      <trkpt lat="63.4341" lon="10.40022">
        <ele>54.417949</ele>
        <time>2020-08-08T06:58:59.201Z</time>
      </trkpt>
      <trkpt lat="63.43397" lon="10.4002">
        <ele>54.417949</ele>
        <time>2020-08-08T06:59:03.209Z</time>
      </trkpt>
      <trkpt lat="63.43386" lon="10.40013">
        <ele>54.417949</ele>
        <time>2020-08-08T06:59:07.209Z</time>
      </trkpt>
      <trkpt lat="63.43374" lon="10.40013">
        <ele>55.826625</ele>
        <time>2020-08-08T06:59:11.226Z</time>
      </trkpt>
      <trkpt lat="63.43365" lon="10.40012">
        <ele>56.97887</ele>
        <time>2020-08-08T06:59:14.228Z</time>
      </trkpt>
      <trkpt lat="63.43355" lon="10.40013">
        <ele>58.269126</ele>
        <time>2020-08-08T06:59:17.280Z</time>
      </trkpt>
      <trkpt lat="63.43345" lon="10.40014">
        <ele>59.523622</ele>
        <time>2020-08-08T06:59:20.257Z</time>
      </trkpt>
      <trkpt lat="63.43335" lon="10.40009">
        <ele>60.786346</ele>
        <time>2020-08-08T06:59:23.223Z</time>
      </trkpt>
      <trkpt lat="63.4333" lon="10.39989">
        <ele>62.048934</ele>
        <time>2020-08-08T06:59:26.218Z</time>
      </trkpt>
      <trkpt lat="63.4333" lon="10.39969">
        <ele>63.193281</ele>
        <time>2020-08-08T06:59:28.277Z</time>
      </trkpt>
      <trkpt lat="63.43329" lon="10.39946">
        <ele>64.470894</ele>
        <time>2020-08-08T06:59:30.243Z</time>
      </trkpt>
      <trkpt lat="63.43329" lon="10.39923">
        <ele>65.736751</ele>
        <time>2020-08-08T06:59:32.251Z</time>
      </trkpt>
      <trkpt lat="63.43328" lon="10.39894">
        <ele>67.365903</ele>
        <time>2020-08-08T06:59:35.215Z</time>
      </trkpt>
      <trkpt lat="63.43328" lon="10.39874">
        <ele>68.497958</ele>
        <time>2020-08-08T06:59:37.211Z</time>
      </trkpt>
      <trkpt lat="63.43327" lon="10.39845">
        <ele>70.137294</ele>
        <time>2020-08-08T06:59:40.275Z</time>
      </trkpt>
      <trkpt lat="63.43326" lon="10.39825">
        <ele>71.266532</ele>
        <time>2020-08-08T06:59:42.224Z</time>
      </trkpt>
      <trkpt lat="63.43326" lon="10.39796">
        <ele>72.913269</ele>
        <time>2020-08-08T06:59:45.226Z</time>
      </trkpt>
      <trkpt lat="63.43326" lon="10.39766">
        <ele>74.594033</ele>
        <time>2020-08-08T06:59:48.258Z</time>
      </trkpt>
      <trkpt lat="63.43328" lon="10.39736">
        <ele>76.248799</ele>
        <time>2020-08-08T06:59:51.231Z</time>
      </trkpt>
      <trkpt lat="63.43327" lon="10.39707">
        <ele>77.336194</ele>
        <time>2020-08-08T06:59:54.244Z</time>
      </trkpt>
      <trkpt lat="63.43325" lon="10.39678">
        <ele>78.054265</ele>
        <time>2020-08-08T06:59:57.249Z</time>
      </trkpt>
      <trkpt lat="63.43324" lon="10.3965">
        <ele>78.727549</ele>
        <time>2020-08-08T07:00:00.226Z</time>
      </trkpt>
      <trkpt lat="63.43323" lon="10.39623">
        <ele>79.391256</ele>
        <time>2020-08-08T07:00:03.226Z</time>
      </trkpt>
      <trkpt lat="63.43322" lon="10.39602">
        <ele>79.882708</ele>
        <time>2020-08-08T07:00:05.236Z</time>
      </trkpt>
      <trkpt lat="63.43321" lon="10.39573">
        <ele>80.578448</ele>
        <time>2020-08-08T07:00:08.251Z</time>
      </trkpt>
      <trkpt lat="63.4332" lon="10.39552">
        <ele>81.081337</ele>
        <time>2020-08-08T07:00:10.208Z</time>
      </trkpt>
      <trkpt lat="63.43319" lon="10.39523">
        <ele>81.802839</ele>
        <time>2020-08-08T07:00:13.255Z</time>
      </trkpt>
      <trkpt lat="63.43318" lon="10.39495">
        <ele>82.472178</ele>
        <time>2020-08-08T07:00:16.258Z</time>
      </trkpt>
      <trkpt lat="63.43318" lon="10.3947">
        <ele>83.073246</ele>
        <time>2020-08-08T07:00:19.223Z</time>
      </trkpt>
      <trkpt lat="63.43316" lon="10.39446">
        <ele>83.656781</ele>
        <time>2020-08-08T07:00:22.236Z</time>
      </trkpt>
      <trkpt lat="63.43315" lon="10.39421">
        <ele>84.249699</ele>
        <time>2020-08-08T07:00:25.207Z</time>
      </trkpt>
      <trkpt lat="63.43317" lon="10.39393">
        <ele>84.947306</ele>
        <time>2020-08-08T07:00:28.223Z</time>
      </trkpt>
      <trkpt lat="63.4332" lon="10.39372">
        <ele>85.461848</ele>
        <time>2020-08-08T07:00:31.225Z</time>
      </trkpt>
      <trkpt lat="63.4332" lon="10.39345">
        <ele>86.123004</ele>
        <time>2020-08-08T07:00:34.265Z</time>
      </trkpt>
      <trkpt lat="63.43319" lon="10.39318">
        <ele>86.469554</ele>
        <time>2020-08-08T07:00:37.204Z</time>
      </trkpt>
      <trkpt lat="63.43316" lon="10.39288">
        <ele>85.85444</ele>
        <time>2020-08-08T07:00:40.257Z</time>
      </trkpt>
      <trkpt lat="63.43315" lon="10.39268">
        <ele>85.425247</ele>
        <time>2020-08-08T07:00:42.224Z</time>
      </trkpt>
      <trkpt lat="63.43313" lon="10.39242">
        <ele>84.886304</ele>
        <time>2020-08-08T07:00:45.209Z</time>
      </trkpt>
      <trkpt lat="63.4331" lon="10.39216">
        <ele>84.330683</ele>
        <time>2020-08-08T07:00:48.241Z</time>
      </trkpt>
      <trkpt lat="63.43306" lon="10.39191">
        <ele>83.770839</ele>
        <time>2020-08-08T07:00:51.266Z</time>
      </trkpt>
      <trkpt lat="63.43303" lon="10.39171">
        <ele>83.336462</ele>
        <time>2020-08-08T07:00:53.224Z</time>
      </trkpt>
      <trkpt lat="63.43299" lon="10.3915">
        <ele>82.883569</ele>
        <time>2020-08-08T07:00:55.247Z</time>
      </trkpt>
      <trkpt lat="63.43294" lon="10.39133">
        <ele>82.455487</ele>
        <time>2020-08-08T07:00:57.211Z</time>
      </trkpt>
      <trkpt lat="63.43286" lon="10.3911">
        <ele>81.850245</ele>
        <time>2020-08-08T07:01:00.219Z</time>
      </trkpt>
      <trkpt lat="63.43281" lon="10.39093">
        <ele>81.424733</ele>
        <time>2020-08-08T07:01:02.224Z</time>
      </trkpt>
      <trkpt lat="63.43275" lon="10.3907">
        <ele>80.874053</ele>
        <time>2020-08-08T07:01:05.210Z</time>
      </trkpt>
      <trkpt lat="63.43268" lon="10.39046">
        <ele>80.277811</ele>
        <time>2020-08-08T07:01:08.203Z</time>
      </trkpt>
      <trkpt lat="63.43262" lon="10.39029">
        <ele>79.819414</ele>
        <time>2020-08-08T07:01:10.214Z</time>
      </trkpt>
      <trkpt lat="63.43257" lon="10.39009">
        <ele>79.354107</ele>
        <time>2020-08-08T07:01:12.229Z</time>
      </trkpt>
      <trkpt lat="63.43252" lon="10.38988">
        <ele>78.870791</ele>
        <time>2020-08-08T07:01:14.232Z</time>
      </trkpt>
      <trkpt lat="63.43247" lon="10.38965">
        <ele>78.355605</ele>
        <time>2020-08-08T07:01:16.247Z</time>
      </trkpt>
      <trkpt lat="63.43242" lon="10.38943">
        <ele>77.918018</ele>
        <time>2020-08-08T07:01:18.215Z</time>
      </trkpt>
      <trkpt lat="63.43237" lon="10.3892">
        <ele>77.496083</ele>
        <time>2020-08-08T07:01:20.254Z</time>
      </trkpt>
      <trkpt lat="63.43231" lon="10.389">
        <ele>77.088509</ele>
        <time>2020-08-08T07:01:22.247Z</time>
      </trkpt>
      <trkpt lat="63.43226" lon="10.38879">
        <ele>76.685366</ele>
        <time>2020-08-08T07:01:24.289Z</time>
      </trkpt>
      <trkpt lat="63.4322" lon="10.38859">
        <ele>76.295634</ele>
        <time>2020-08-08T07:01:26.218Z</time>
      </trkpt>
      <trkpt lat="63.43215" lon="10.3884">
        <ele>75.913034</ele>
        <time>2020-08-08T07:01:28.242Z</time>
      </trkpt>
      <trkpt lat="63.4321" lon="10.38821">
        <ele>75.562596</ele>
        <time>2020-08-08T07:01:30.253Z</time>
      </trkpt>
      <trkpt lat="63.43206" lon="10.38804">
        <ele>75.222064</ele>
        <time>2020-08-08T07:01:32.213Z</time>
      </trkpt>
      <trkpt lat="63.43201" lon="10.38782">
        <ele>74.830736</ele>
        <time>2020-08-08T07:01:34.228Z</time>
      </trkpt>
      <trkpt lat="63.43197" lon="10.3876">
        <ele>74.416314</ele>
        <time>2020-08-08T07:01:36.229Z</time>
      </trkpt>
      <trkpt lat="63.43193" lon="10.38738">
        <ele>74.014323</ele>
        <time>2020-08-08T07:01:38.223Z</time>
      </trkpt>
      <trkpt lat="63.43188" lon="10.38718">
        <ele>73.640735</ele>
        <time>2020-08-08T07:01:40.240Z</time>
      </trkpt>
      <trkpt lat="63.43184" lon="10.387">
        <ele>73.298945</ele>
        <time>2020-08-08T07:01:42.267Z</time>
      </trkpt>
      <trkpt lat="63.43179" lon="10.38682">
        <ele>72.947073</ele>
        <time>2020-08-08T07:01:44.221Z</time>
      </trkpt>
      <trkpt lat="63.43176" lon="10.38662">
        <ele>72.590745</ele>
        <time>2020-08-08T07:01:46.268Z</time>
      </trkpt>
      <trkpt lat="63.43172" lon="10.38642">
        <ele>72.237371</ele>
        <time>2020-08-08T07:01:48.212Z</time>
      </trkpt>
      <trkpt lat="63.43169" lon="10.38623">
        <ele>71.879609</ele>
        <time>2020-08-08T07:01:50.224Z</time>
      </trkpt>
      <trkpt lat="63.43165" lon="10.38603">
        <ele>71.530507</ele>
        <time>2020-08-08T07:01:52.249Z</time>
      </trkpt>
      <trkpt lat="63.43163" lon="10.38581">
        <ele>71.17865</ele>
        <time>2020-08-08T07:01:54.239Z</time>
      </trkpt>
      <trkpt lat="63.4316" lon="10.3856">
        <ele>70.822538</ele>
        <time>2020-08-08T07:01:56.219Z</time>
      </trkpt>
      <trkpt lat="63.43157" lon="10.3854">
        <ele>70.476291</ele>
        <time>2020-08-08T07:01:58.238Z</time>
      </trkpt>
      <trkpt lat="63.43155" lon="10.38518">
        <ele>70.121423</ele>
        <time>2020-08-08T07:02:00.234Z</time>
      </trkpt>
      <trkpt lat="63.43152" lon="10.38496">
        <ele>69.752413</ele>
        <time>2020-08-08T07:02:02.224Z</time>
      </trkpt>
      <trkpt lat="63.43149" lon="10.38473">
        <ele>69.369382</ele>
        <time>2020-08-08T07:02:04.243Z</time>
      </trkpt>
      <trkpt lat="63.43146" lon="10.38448">
        <ele>68.961487</ele>
        <time>2020-08-08T07:02:06.257Z</time>
      </trkpt>
      <trkpt lat="63.43145" lon="10.38421">
        <ele>68.51949</ele>
        <time>2020-08-08T07:02:08.244Z</time>
      </trkpt>
      <trkpt lat="63.43144" lon="10.38395">
        <ele>68.109659</ele>
        <time>2020-08-08T07:02:10.221Z</time>
      </trkpt>
      <trkpt lat="63.43143" lon="10.38367">
        <ele>67.656421</ele>
        <time>2020-08-08T07:02:12.200Z</time>
      </trkpt>
      <trkpt lat="63.43141" lon="10.38341">
        <ele>67.232739</ele>
        <time>2020-08-08T07:02:14.228Z</time>
      </trkpt>
      <trkpt lat="63.4314" lon="10.38315">
        <ele>66.823684</ele>
        <time>2020-08-08T07:02:16.230Z</time>
      </trkpt>
      <trkpt lat="63.43138" lon="10.38291">
        <ele>66.423092</ele>
        <time>2020-08-08T07:02:18.220Z</time>
      </trkpt>
      <trkpt lat="63.43136" lon="10.38266">
        <ele>66.028388</ele>
        <time>2020-08-08T07:02:20.224Z</time>
      </trkpt>
      <trkpt lat="63.43135" lon="10.38242">
        <ele>65.635264</ele>
        <time>2020-08-08T07:02:22.244Z</time>
      </trkpt>
      <trkpt lat="63.43133" lon="10.38217">
        <ele>65.235261</ele>
        <time>2020-08-08T07:02:24.216Z</time>
      </trkpt>
      <trkpt lat="63.43131" lon="10.38191">
        <ele>64.902957</ele>
        <time>2020-08-08T07:02:26.237Z</time>
      </trkpt>
      <trkpt lat="63.43129" lon="10.38167">
        <ele>64.621889</ele>
        <time>2020-08-08T07:02:28.253Z</time>
      </trkpt>
      <trkpt lat="63.43127" lon="10.38144">
        <ele>64.350455</ele>
        <time>2020-08-08T07:02:30.238Z</time>
      </trkpt>
      <trkpt lat="63.43126" lon="10.38122">
        <ele>64.088166</ele>
        <time>2020-08-08T07:02:32.224Z</time>
      </trkpt>
      <trkpt lat="63.43125" lon="10.38099">
        <ele>63.826495</ele>
        <time>2020-08-08T07:02:34.240Z</time>
      </trkpt>
      <trkpt lat="63.43124" lon="10.38077">
        <ele>63.559316</ele>
        <time>2020-08-08T07:02:36.214Z</time>
      </trkpt>
      <trkpt lat="63.43123" lon="10.38054">
        <ele>63.299655</ele>
        <time>2020-08-08T07:02:38.210Z</time>
      </trkpt>
      <trkpt lat="63.43122" lon="10.38032">
        <ele>63.044505</ele>
        <time>2020-08-08T07:02:40.202Z</time>
      </trkpt>
      <trkpt lat="63.43121" lon="10.38011">
        <ele>62.790912</ele>
        <time>2020-08-08T07:02:42.213Z</time>
      </trkpt>
      <trkpt lat="63.4312" lon="10.37989">
        <ele>62.537292</ele>
        <time>2020-08-08T07:02:44.224Z</time>
      </trkpt>
      <trkpt lat="63.4312" lon="10.37968">
        <ele>62.295539</ele>
        <time>2020-08-08T07:02:46.277Z</time>
      </trkpt>
      <trkpt lat="63.43119" lon="10.37947">
        <ele>62.052793</ele>
        <time>2020-08-08T07:02:48.246Z</time>
      </trkpt>
      <trkpt lat="63.43122" lon="10.37921">
        <ele>61.740587</ele>
        <time>2020-08-08T07:02:51.201Z</time>
      </trkpt>
      <trkpt lat="63.43125" lon="10.37894">
        <ele>61.414449</ele>
        <time>2020-08-08T07:02:54.237Z</time>
      </trkpt>
      <trkpt lat="63.43125" lon="10.37874">
        <ele>61.176656</ele>
        <time>2020-08-08T07:02:56.238Z</time>
      </trkpt>
      <trkpt lat="63.43123" lon="10.37853">
        <ele>60.937977</ele>
        <time>2020-08-08T07:02:58.264Z</time>
      </trkpt>
      <trkpt lat="63.43121" lon="10.37834">
        <ele>60.701556</ele>
        <time>2020-08-08T07:03:00.236Z</time>
      </trkpt>
      <trkpt lat="63.43118" lon="10.37815">
        <ele>60.475444</ele>
        <time>2020-08-08T07:03:02.208Z</time>
      </trkpt>
      <trkpt lat="63.43112" lon="10.3779">
        <ele>60.662324</ele>
        <time>2020-08-08T07:03:05.213Z</time>
      </trkpt>
      <trkpt lat="63.43106" lon="10.37767">
        <ele>60.829802</ele>
        <time>2020-08-08T07:03:08.260Z</time>
      </trkpt>
      <trkpt lat="63.43102" lon="10.37742">
        <ele>61.009213</ele>
        <time>2020-08-08T07:03:11.232Z</time>
      </trkpt>
      <trkpt lat="63.43097" lon="10.37716">
        <ele>61.199934</ele>
        <time>2020-08-08T07:03:14.206Z</time>
      </trkpt>
      <trkpt lat="63.4309" lon="10.37691">
        <ele>61.387715</ele>
        <time>2020-08-08T07:03:17.240Z</time>
      </trkpt>
      <trkpt lat="63.43084" lon="10.37669">
        <ele>61.56373</ele>
        <time>2020-08-08T07:03:20.219Z</time>
      </trkpt>
      <trkpt lat="63.43078" lon="10.37647">
        <ele>61.73336</ele>
        <time>2020-08-08T07:03:23.238Z</time>
      </trkpt>
      <trkpt lat="63.43071" lon="10.37627">
        <ele>61.899613</ele>
        <time>2020-08-08T07:03:27.223Z</time>
      </trkpt>
      <trkpt lat="63.43065" lon="10.37607">
        <ele>62.06348</ele>
        <time>2020-08-08T07:03:32.231Z</time>
      </trkpt>
      <trkpt lat="63.43059" lon="10.3759">
        <ele>62.207402</ele>
        <time>2020-08-08T07:03:37.216Z</time>
      </trkpt>
      <trkpt lat="63.43052" lon="10.37571">
        <ele>62.367101</ele>
        <time>2020-08-08T07:03:43.219Z</time>
      </trkpt>
      <trkpt lat="63.43046" lon="10.37554">
        <ele>62.51447</ele>
        <time>2020-08-08T07:03:49.206Z</time>
      </trkpt>
      <trkpt lat="63.43042" lon="10.37535">
        <ele>62.653843</ele>
        <time>2020-08-08T07:03:54.222Z</time>
      </trkpt>
      <trkpt lat="63.43039" lon="10.37516">
        <ele>62.790159</ele>
        <time>2020-08-08T07:03:58.242Z</time>
      </trkpt>
      <trkpt lat="63.43036" lon="10.3749">
        <ele>62.963498</ele>
        <time>2020-08-08T07:04:02.226Z</time>
      </trkpt>
      <trkpt lat="63.43035" lon="10.37467">
        <ele>63.116996</ele>
        <time>2020-08-08T07:04:06.267Z</time>
      </trkpt>
      <trkpt lat="63.43026" lon="10.37459">
        <ele>63.462674</ele>
        <time>2020-08-08T07:04:13.267Z</time>
      </trkpt>
      <trkpt lat="63.43016" lon="10.37457">
        <ele>63.876589</ele>
        <time>2020-08-08T07:04:18.220Z</time>
      </trkpt>
      <trkpt lat="63.43007" lon="10.37451">
        <ele>64.270276</ele>
        <time>2020-08-08T07:04:22.202Z</time>
      </trkpt>
      <trkpt lat="63.43001" lon="10.37433">
        <ele>64.693415</ele>
        <time>2020-08-08T07:04:26.212Z</time>
      </trkpt>
      <trkpt lat="63.42994" lon="10.37412">
        <ele>65.16784</ele>
        <time>2020-08-08T07:04:30.221Z</time>
      </trkpt>
      <trkpt lat="63.42988" lon="10.3739">
        <ele>65.654282</ele>
        <time>2020-08-08T07:04:34.222Z</time>
      </trkpt>
      <trkpt lat="63.42983" lon="10.37369">
        <ele>66.104619</ele>
        <time>2020-08-08T07:04:38.221Z</time>
      </trkpt>
      <trkpt lat="63.42978" lon="10.37345">
        <ele>66.587184</ele>
        <time>2020-08-08T07:04:42.241Z</time>
      </trkpt>
      <trkpt lat="63.42976" lon="10.37324">
        <ele>66.986196</ele>
        <time>2020-08-08T07:04:45.238Z</time>
      </trkpt>
      <trkpt lat="63.42972" lon="10.37301">
        <ele>67.44052</ele>
        <time>2020-08-08T07:04:48.210Z</time>
      </trkpt>
      <trkpt lat="63.42967" lon="10.3728">
        <ele>67.900442</ele>
        <time>2020-08-08T07:04:51.264Z</time>
      </trkpt>
      <trkpt lat="63.42959" lon="10.37261">
        <ele>68.381743</ele>
        <time>2020-08-08T07:04:54.227Z</time>
      </trkpt>
      <trkpt lat="63.4295" lon="10.37245">
        <ele>68.838923</ele>
        <time>2020-08-08T07:04:57.239Z</time>
      </trkpt>
      <trkpt lat="63.42943" lon="10.37231">
        <ele>69.252764</ele>
        <time>2020-08-08T07:05:00.276Z</time>
      </trkpt>
      <trkpt lat="63.42936" lon="10.37217">
        <ele>69.637944</ele>
        <time>2020-08-08T07:05:03.236Z</time>
      </trkpt>
      <trkpt lat="63.42928" lon="10.37204">
        <ele>70.032101</ele>
        <time>2020-08-08T07:05:06.216Z</time>
      </trkpt>
      <trkpt lat="63.42922" lon="10.37188">
        <ele>70.445537</ele>
        <time>2020-08-08T07:05:09.240Z</time>
      </trkpt>
      <trkpt lat="63.42915" lon="10.37168">
        <ele>70.542426</ele>
        <time>2020-08-08T07:05:12.216Z</time>
      </trkpt>
      <trkpt lat="63.4291" lon="10.37143">
        <ele>70.39725</ele>
        <time>2020-08-08T07:05:15.215Z</time>
      </trkpt>
      <trkpt lat="63.42907" lon="10.37124">
        <ele>70.288572</ele>
        <time>2020-08-08T07:05:17.230Z</time>
      </trkpt>
      <trkpt lat="63.42904" lon="10.37105">
        <ele>70.178591</ele>
        <time>2020-08-08T07:05:19.225Z</time>
      </trkpt>
      <trkpt lat="63.42901" lon="10.37085">
        <ele>70.071539</ele>
        <time>2020-08-08T07:05:21.222Z</time>
      </trkpt>
      <trkpt lat="63.42897" lon="10.37059">
        <ele>69.9225</ele>
        <time>2020-08-08T07:05:24.223Z</time>
      </trkpt>
      <trkpt lat="63.42893" lon="10.37035">
        <ele>69.785423</ele>
        <time>2020-08-08T07:05:27.275Z</time>
      </trkpt>
      <trkpt lat="63.42889" lon="10.37012">
        <ele>69.655251</ele>
        <time>2020-08-08T07:05:30.242Z</time>
      </trkpt>
      <trkpt lat="63.42883" lon="10.36993">
        <ele>69.535561</ele>
        <time>2020-08-08T07:05:33.199Z</time>
      </trkpt>
      <trkpt lat="63.42878" lon="10.36975">
        <ele>69.420047</ele>
        <time>2020-08-08T07:05:36.222Z</time>
      </trkpt>
      <trkpt lat="63.42873" lon="10.36956">
        <ele>69.302642</ele>
        <time>2020-08-08T07:05:39.208Z</time>
      </trkpt>
      <trkpt lat="63.42868" lon="10.36937">
        <ele>69.187962</ele>
        <time>2020-08-08T07:05:42.204Z</time>
      </trkpt>
      <trkpt lat="63.42863" lon="10.36916">
        <ele>69.056808</ele>
        <time>2020-08-08T07:05:45.204Z</time>
      </trkpt>
      <trkpt lat="63.42857" lon="10.36896">
        <ele>68.931806</ele>
        <time>2020-08-08T07:05:48.214Z</time>
      </trkpt>
      <trkpt lat="63.42852" lon="10.36875">
        <ele>68.805172</ele>
        <time>2020-08-08T07:05:51.217Z</time>
      </trkpt>
      <trkpt lat="63.42847" lon="10.36854">
        <ele>68.679875</ele>
        <time>2020-08-08T07:05:54.222Z</time>
      </trkpt>
      <trkpt lat="63.42842" lon="10.36834">
        <ele>68.559858</ele>
        <time>2020-08-08T07:05:57.221Z</time>
      </trkpt>
      <trkpt lat="63.42837" lon="10.36815">
        <ele>68.563206</ele>
        <time>2020-08-08T07:06:00.206Z</time>
      </trkpt>
      <trkpt lat="63.42835" lon="10.36794">
        <ele>68.758381</ele>
        <time>2020-08-08T07:06:04.221Z</time>
      </trkpt>
      <trkpt lat="63.42845" lon="10.36784">
        <ele>68.977308</ele>
        <time>2020-08-08T07:06:10.286Z</time>
      </trkpt>
      <trkpt lat="63.42852" lon="10.36763">
        <ele>69.223604</ele>
        <time>2020-08-08T07:06:14.227Z</time>
      </trkpt>
      <trkpt lat="63.42852" lon="10.36737">
        <ele>69.464375</ele>
        <time>2020-08-08T07:06:18.206Z</time>
      </trkpt>
      <trkpt lat="63.42851" lon="10.36714">
        <ele>69.678093</ele>
        <time>2020-08-08T07:06:22.228Z</time>
      </trkpt>
      <trkpt lat="63.42845" lon="10.36698">
        <ele>69.875888</ele>
        <time>2020-08-08T07:06:27.216Z</time>
      </trkpt>
      <trkpt lat="63.42836" lon="10.3669">
        <ele>70.076805</ele>
        <time>2020-08-08T07:06:33.236Z</time>
      </trkpt>
      <trkpt lat="63.42835" lon="10.3667">
        <ele>70.262625</ele>
        <time>2020-08-08T07:06:37.238Z</time>
      </trkpt>
      <trkpt lat="63.42838" lon="10.36648">
        <ele>70.470189</ele>
        <time>2020-08-08T07:06:42.220Z</time>
      </trkpt>
      <trkpt lat="63.42841" lon="10.36628">
        <ele>70.673231</ele>
        <time>2020-08-08T07:06:47.243Z</time>
      </trkpt>
      <trkpt lat="63.42845" lon="10.36606">
        <ele>70.887858</ele>
        <time>2020-08-08T07:06:53.208Z</time>
      </trkpt>
      <trkpt lat="63.42838" lon="10.36623">
        <ele>71.090675</ele>
        <time>2020-08-08T07:07:01.210Z</time>
      </trkpt>
      <trkpt lat="63.42832" lon="10.36648">
        <ele>71.3635</ele>
        <time>2020-08-08T07:07:04.199Z</time>
      </trkpt>
      <trkpt lat="63.42824" lon="10.36664">
        <ele>71.582474</ele>
        <time>2020-08-08T07:07:06.208Z</time>
      </trkpt>
      <trkpt lat="63.42814" lon="10.36676">
        <ele>71.817916</ele>
        <time>2020-08-08T07:07:08.226Z</time>
      </trkpt>
      <trkpt lat="63.42808" lon="10.36692">
        <ele>72.011047</ele>
        <time>2020-08-08T07:07:10.197Z</time>
      </trkpt>
      <trkpt lat="63.42809" lon="10.36713">
        <ele>72.203818</ele>
        <time>2020-08-08T07:07:12.210Z</time>
      </trkpt>
      <trkpt lat="63.42822" lon="10.36729">
        <ele>71.387402</ele>
        <time>2020-08-08T07:07:15.217Z</time>
      </trkpt>
      <trkpt lat="63.42834" lon="10.36722">
        <ele>70.614514</ele>
        <time>2020-08-08T07:07:17.240Z</time>
      </trkpt>
      <trkpt lat="63.42846" lon="10.36715">
        <ele>69.863591</ele>
        <time>2020-08-08T07:07:19.196Z</time>
      </trkpt>
      <trkpt lat="63.42859" lon="10.36714">
        <ele>69.139682</ele>
        <time>2020-08-08T07:07:21.199Z</time>
      </trkpt>
      <trkpt lat="63.42871" lon="10.36713">
        <ele>68.398945</ele>
        <time>2020-08-08T07:07:23.204Z</time>
      </trkpt>
      <trkpt lat="63.42884" lon="10.36711">
        <ele>67.614568</ele>
        <time>2020-08-08T07:07:25.205Z</time>
      </trkpt>
      <trkpt lat="63.42897" lon="10.36709">
        <ele>66.82979</ele>
        <time>2020-08-08T07:07:27.226Z</time>
      </trkpt>
      <trkpt lat="63.42908" lon="10.36704">
        <ele>66.147689</ele>
        <time>2020-08-08T07:07:29.200Z</time>
      </trkpt>
      <trkpt lat="63.42914" lon="10.36686">
        <ele>65.550714</ele>
        <time>2020-08-08T07:07:32.215Z</time>
      </trkpt>
      <trkpt lat="63.42916" lon="10.36657">
        <ele>64.765932</ele>
        <time>2020-08-08T07:07:35.215Z</time>
      </trkpt>
      <trkpt lat="63.42919" lon="10.36635">
        <ele>64.156738</ele>
        <time>2020-08-08T07:07:37.203Z</time>
      </trkpt>
      <trkpt lat="63.42923" lon="10.36614">
        <ele>63.543833</ele>
        <time>2020-08-08T07:07:39.216Z</time>
      </trkpt>
      <trkpt lat="63.42927" lon="10.36588">
        <ele>62.834591</ele>
        <time>2020-08-08T07:07:41.199Z</time>
      </trkpt>
      <trkpt lat="63.4293" lon="10.36563">
        <ele>62.11516</ele>
        <time>2020-08-08T07:07:43.204Z</time>
      </trkpt>
      <trkpt lat="63.42934" lon="10.36535">
        <ele>61.625858</ele>
        <time>2020-08-08T07:07:45.201Z</time>
      </trkpt>
      <trkpt lat="63.42938" lon="10.36508">
        <ele>62.481776</ele>
        <time>2020-08-08T07:07:47.233Z</time>
      </trkpt>
      <trkpt lat="63.42943" lon="10.36481">
        <ele>63.322126</ele>
        <time>2020-08-08T07:07:49.203Z</time>
      </trkpt>
      <trkpt lat="63.42947" lon="10.36454">
        <ele>64.173785</ele>
        <time>2020-08-08T07:07:51.211Z</time>
      </trkpt>
      <trkpt lat="63.42951" lon="10.36427">
        <ele>65.021905</ele>
        <time>2020-08-08T07:07:53.220Z</time>
      </trkpt>
      <trkpt lat="63.42954" lon="10.36402">
        <ele>65.800182</ele>
        <time>2020-08-08T07:07:55.211Z</time>
      </trkpt>
      <trkpt lat="63.42957" lon="10.36381">
        <ele>66.447477</ele>
        <time>2020-08-08T07:07:57.202Z</time>
      </trkpt>
      <trkpt lat="63.42961" lon="10.36359">
        <ele>67.123502</ele>
        <time>2020-08-08T07:08:00.209Z</time>
      </trkpt>
      <trkpt lat="63.42965" lon="10.36335">
        <ele>67.896405</ele>
        <time>2020-08-08T07:08:04.243Z</time>
      </trkpt>
      <trkpt lat="63.42969" lon="10.36316">
        <ele>68.513896</ele>
        <time>2020-08-08T07:08:07.218Z</time>
      </trkpt>
      <trkpt lat="63.42973" lon="10.36297">
        <ele>69.147635</ele>
        <time>2020-08-08T07:08:10.251Z</time>
      </trkpt>
      <trkpt lat="63.42977" lon="10.36272">
        <ele>69.922951</ele>
        <time>2020-08-08T07:08:14.216Z</time>
      </trkpt>
      <trkpt lat="63.42982" lon="10.36249">
        <ele>70.67857</ele>
        <time>2020-08-08T07:08:18.202Z</time>
      </trkpt>
      <trkpt lat="63.42985" lon="10.36229">
        <ele>71.309937</ele>
        <time>2020-08-08T07:08:23.218Z</time>
      </trkpt>
      <trkpt lat="63.42988" lon="10.36207">
        <ele>72.011412</ele>
        <time>2020-08-08T07:08:29.216Z</time>
      </trkpt>
      <trkpt lat="63.42989" lon="10.36183">
        <ele>72.722769</ele>
        <time>2020-08-08T07:08:34.201Z</time>
      </trkpt>
      <trkpt lat="63.4299" lon="10.36159">
        <ele>73.419549</ele>
        <time>2020-08-08T07:08:38.198Z</time>
      </trkpt>
      <trkpt lat="63.42989" lon="10.36134">
        <ele>74.117139</ele>
        <time>2020-08-08T07:08:43.202Z</time>
      </trkpt>
      <trkpt lat="63.42988" lon="10.36115">
        <ele>74.687859</ele>
        <time>2020-08-08T07:08:47.234Z</time>
      </trkpt>
      <trkpt lat="63.42986" lon="10.36091">
        <ele>75.341574</ele>
        <time>2020-08-08T07:08:51.213Z</time>
      </trkpt>
      <trkpt lat="63.42985" lon="10.36067">
        <ele>76.037581</ele>
        <time>2020-08-08T07:08:55.213Z</time>
      </trkpt>
      <trkpt lat="63.42984" lon="10.36046">
        <ele>76.614392</ele>
        <time>2020-08-08T07:08:58.200Z</time>
      </trkpt>
      <trkpt lat="63.42985" lon="10.36025">
        <ele>77.204845</ele>
        <time>2020-08-08T07:09:01.206Z</time>
      </trkpt>
      <trkpt lat="63.42985" lon="10.36005">
        <ele>77.776731</ele>
        <time>2020-08-08T07:09:04.224Z</time>
      </trkpt>
      <trkpt lat="63.42987" lon="10.35983">
        <ele>78.397127</ele>
        <time>2020-08-08T07:09:07.205Z</time>
      </trkpt>
      <trkpt lat="63.42988" lon="10.35959">
        <ele>79.089293</ele>
        <time>2020-08-08T07:09:10.223Z</time>
      </trkpt>
      <trkpt lat="63.42989" lon="10.35936">
        <ele>79.734124</ele>
        <time>2020-08-08T07:09:13.195Z</time>
      </trkpt>
      <trkpt lat="63.42989" lon="10.35914">
        <ele>80.361489</ele>
        <time>2020-08-08T07:09:16.192Z</time>
      </trkpt>
      <trkpt lat="63.4299" lon="10.35889">
        <ele>81.062694</ele>
        <time>2020-08-08T07:09:19.197Z</time>
      </trkpt>
      <trkpt lat="63.42991" lon="10.35862">
        <ele>81.82856</ele>
        <time>2020-08-08T07:09:22.208Z</time>
      </trkpt>
      <trkpt lat="63.42992" lon="10.35834">
        <ele>82.61768</ele>
        <time>2020-08-08T07:09:25.219Z</time>
      </trkpt>
      <trkpt lat="63.42993" lon="10.35807">
        <ele>83.366412</ele>
        <time>2020-08-08T07:09:28.239Z</time>
      </trkpt>
      <trkpt lat="63.42995" lon="10.35781">
        <ele>84.126822</ele>
        <time>2020-08-08T07:09:31.202Z</time>
      </trkpt>
      <trkpt lat="63.42998" lon="10.35752">
        <ele>84.353994</ele>
        <time>2020-08-08T07:09:34.219Z</time>
      </trkpt>
      <trkpt lat="63.43003" lon="10.35726">
        <ele>83.23035</ele>
        <time>2020-08-08T07:09:37.205Z</time>
      </trkpt>
      <trkpt lat="63.43009" lon="10.35704">
        <ele>82.263301</ele>
        <time>2020-08-08T07:09:40.208Z</time>
      </trkpt>
      <trkpt lat="63.43019" lon="10.35687">
        <ele>81.175312</ele>
        <time>2020-08-08T07:09:43.283Z</time>
      </trkpt>
      <trkpt lat="63.43026" lon="10.35675">
        <ele>80.331826</ele>
        <time>2020-08-08T07:09:45.237Z</time>
      </trkpt>
      <trkpt lat="63.43036" lon="10.3566">
        <ele>79.317766</ele>
        <time>2020-08-08T07:09:48.204Z</time>
      </trkpt>
      <trkpt lat="63.43045" lon="10.35648">
        <ele>78.392541</ele>
        <time>2020-08-08T07:09:51.237Z</time>
      </trkpt>
      <trkpt lat="63.43055" lon="10.35645">
        <ele>77.512057</ele>
        <time>2020-08-08T07:09:54.245Z</time>
      </trkpt>
      <trkpt lat="63.43068" lon="10.35635">
        <ele>76.345634</ele>
        <time>2020-08-08T07:09:57.211Z</time>
      </trkpt>
      <trkpt lat="63.43079" lon="10.35624">
        <ele>75.202861</ele>
        <time>2020-08-08T07:09:59.219Z</time>
      </trkpt>
      <trkpt lat="63.43093" lon="10.35612">
        <ele>73.933931</ele>
        <time>2020-08-08T07:10:01.248Z</time>
      </trkpt>
      <trkpt lat="63.43106" lon="10.35599">
        <ele>72.676816</ele>
        <time>2020-08-08T07:10:03.223Z</time>
      </trkpt>
      <trkpt lat="63.43115" lon="10.35588">
        <ele>71.774774</ele>
        <time>2020-08-08T07:10:05.229Z</time>
      </trkpt>
      <trkpt lat="63.43124" lon="10.35569">
        <ele>70.708416</ele>
        <time>2020-08-08T07:10:08.197Z</time>
      </trkpt>
      <trkpt lat="63.43132" lon="10.35558">
        <ele>69.873265</ele>
        <time>2020-08-08T07:10:11.227Z</time>
      </trkpt>
      <trkpt lat="63.43136" lon="10.35529">
        <ele>68.726169</ele>
        <time>2020-08-08T07:10:14.240Z</time>
      </trkpt>
      <trkpt lat="63.43143" lon="10.35505">
        <ele>67.779923</ele>
        <time>2020-08-08T07:10:16.261Z</time>
      </trkpt>
      <trkpt lat="63.43148" lon="10.35485">
        <ele>67.050145</ele>
        <time>2020-08-08T07:10:18.252Z</time>
      </trkpt>
      <trkpt lat="63.43153" lon="10.35458">
        <ele>66.083739</ele>
        <time>2020-08-08T07:10:21.230Z</time>
      </trkpt>
      <trkpt lat="63.43156" lon="10.35437">
        <ele>65.332587</ele>
        <time>2020-08-08T07:10:24.203Z</time>
      </trkpt>
      <trkpt lat="63.43159" lon="10.35417">
        <ele>64.663988</ele>
        <time>2020-08-08T07:10:28.222Z</time>
      </trkpt>
      <trkpt lat="63.43164" lon="10.35398">
        <ele>63.911669</ele>
        <time>2020-08-08T07:10:32.240Z</time>
      </trkpt>
      <trkpt lat="63.4317" lon="10.3538">
        <ele>63.190934</ele>
        <time>2020-08-08T07:10:35.235Z</time>
      </trkpt>
      <trkpt lat="63.43173" lon="10.35359">
        <ele>62.463432</ele>
        <time>2020-08-08T07:10:38.226Z</time>
      </trkpt>
      <trkpt lat="63.43177" lon="10.35338">
        <ele>61.725022</ele>
        <time>2020-08-08T07:10:41.247Z</time>
      </trkpt>
      <trkpt lat="63.43179" lon="10.35315">
        <ele>60.9486</ele>
        <time>2020-08-08T07:10:44.224Z</time>
      </trkpt>
      <trkpt lat="63.43184" lon="10.35294">
        <ele>60.177162</ele>
        <time>2020-08-08T07:10:47.212Z</time>
      </trkpt>
      <trkpt lat="63.43189" lon="10.35272">
        <ele>59.349894</ele>
        <time>2020-08-08T07:10:50.223Z</time>
      </trkpt>
      <trkpt lat="63.43195" lon="10.3525">
        <ele>58.497845</ele>
        <time>2020-08-08T07:10:53.226Z</time>
      </trkpt>
      <trkpt lat="63.43204" lon="10.3523">
        <ele>57.595917</ele>
        <time>2020-08-08T07:10:56.268Z</time>
      </trkpt>
      <trkpt lat="63.43212" lon="10.3521">
        <ele>56.693697</ele>
        <time>2020-08-08T07:10:59.213Z</time>
      </trkpt>
      <trkpt lat="63.43222" lon="10.35193">
        <ele>55.784025</ele>
        <time>2020-08-08T07:11:02.226Z</time>
      </trkpt>
      <trkpt lat="63.43232" lon="10.35179">
        <ele>55.822717</ele>
        <time>2020-08-08T07:11:05.214Z</time>
      </trkpt>
      <trkpt lat="63.43242" lon="10.35163">
        <ele>56.009742</ele>
        <time>2020-08-08T07:11:08.226Z</time>
      </trkpt>
      <trkpt lat="63.43252" lon="10.35148">
        <ele>56.192443</ele>
        <time>2020-08-08T07:11:11.225Z</time>
      </trkpt>
      <trkpt lat="63.43262" lon="10.3513">
        <ele>56.38812</ele>
        <time>2020-08-08T07:11:14.212Z</time>
      </trkpt>
      <trkpt lat="63.43272" lon="10.35116">
        <ele>56.573111</ele>
        <time>2020-08-08T07:11:17.269Z</time>
      </trkpt>
      <trkpt lat="63.4328" lon="10.35106">
        <ele>56.713241</ele>
        <time>2020-08-08T07:11:20.220Z</time>
      </trkpt>
      <trkpt lat="63.43291" lon="10.35095">
        <ele>56.895058</ele>
        <time>2020-08-08T07:11:23.207Z</time>
      </trkpt>
      <trkpt lat="63.43302" lon="10.35086">
        <ele>57.073458</ele>
        <time>2020-08-08T07:11:25.216Z</time>
      </trkpt>
      <trkpt lat="63.43313" lon="10.35081">
        <ele>57.23153</ele>
        <time>2020-08-08T07:11:27.236Z</time>
      </trkpt>
      <trkpt lat="63.43323" lon="10.35078">
        <ele>57.3833</ele>
        <time>2020-08-08T07:11:29.241Z</time>
      </trkpt>
      <trkpt lat="63.43332" lon="10.35073">
        <ele>57.53665</ele>
        <time>2020-08-08T07:11:31.226Z</time>
      </trkpt>
      <trkpt lat="63.43342" lon="10.3507">
        <ele>57.681343</ele>
        <time>2020-08-08T07:11:33.248Z</time>
      </trkpt>
      <trkpt lat="63.43354" lon="10.35069">
        <ele>57.862836</ele>
        <time>2020-08-08T07:11:36.262Z</time>
      </trkpt>
      <trkpt lat="63.43363" lon="10.35066">
        <ele>58.000527</ele>
        <time>2020-08-08T07:11:38.245Z</time>
      </trkpt>
      <trkpt lat="63.43376" lon="10.35061">
        <ele>58.202075</ele>
        <time>2020-08-08T07:11:41.217Z</time>
      </trkpt>
      <trkpt lat="63.43386" lon="10.35058">
        <ele>58.348828</ele>
        <time>2020-08-08T07:11:43.206Z</time>
      </trkpt>
      <trkpt lat="63.43395" lon="10.35056">
        <ele>58.325144</ele>
        <time>2020-08-08T07:11:45.220Z</time>
      </trkpt>
      <trkpt lat="63.43404" lon="10.35053">
        <ele>58.223102</ele>
        <time>2020-08-08T07:11:47.232Z</time>
      </trkpt>
      <trkpt lat="63.43414" lon="10.35047">
        <ele>58.111588</ele>
        <time>2020-08-08T07:11:49.219Z</time>
      </trkpt>
      <trkpt lat="63.43423" lon="10.35042">
        <ele>58.003496</ele>
        <time>2020-08-08T07:11:51.246Z</time>
      </trkpt>
      <trkpt lat="63.43433" lon="10.35038">
        <ele>57.894208</ele>
        <time>2020-08-08T07:11:53.260Z</time>
      </trkpt>
      <trkpt lat="63.43443" lon="10.35034">
        <ele>57.787346</ele>
        <time>2020-08-08T07:11:55.251Z</time>
      </trkpt>
      <trkpt lat="63.43453" lon="10.3503">
        <ele>57.679318</ele>
        <time>2020-08-08T07:11:57.214Z</time>
      </trkpt>
      <trkpt lat="63.43462" lon="10.35027">
        <ele>57.576871</ele>
        <time>2020-08-08T07:11:59.230Z</time>
      </trkpt>
      <trkpt lat="63.43475" lon="10.35023">
        <ele>57.431102</ele>
        <time>2020-08-08T07:12:02.214Z</time>
      </trkpt>
      <trkpt lat="63.43488" lon="10.35019">
        <ele>57.289232</ele>
        <time>2020-08-08T07:12:05.261Z</time>
      </trkpt>
      <trkpt lat="63.435" lon="10.35015">
        <ele>57.150228</ele>
        <time>2020-08-08T07:12:08.251Z</time>
      </trkpt>
      <trkpt lat="63.43512" lon="10.35012">
        <ele>57.018342</ele>
        <time>2020-08-08T07:12:11.265Z</time>
      </trkpt>
      <trkpt lat="63.43525" lon="10.3501">
        <ele>56.877553</ele>
        <time>2020-08-08T07:12:14.216Z</time>
      </trkpt>
      <trkpt lat="63.43534" lon="10.35007">
        <ele>56.778531</ele>
        <time>2020-08-08T07:12:16.251Z</time>
      </trkpt>
      <trkpt lat="63.43547" lon="10.35003">
        <ele>56.634862</ele>
        <time>2020-08-08T07:12:19.238Z</time>
      </trkpt>
      <trkpt lat="63.43559" lon="10.35001">
        <ele>56.506148</ele>
        <time>2020-08-08T07:12:22.216Z</time>
      </trkpt>
      <trkpt lat="63.43571" lon="10.34999">
        <ele>56.516859</ele>
        <time>2020-08-08T07:12:25.298Z</time>
      </trkpt>
      <trkpt lat="63.43583" lon="10.34996">
        <ele>56.764465</ele>
        <time>2020-08-08T07:12:28.229Z</time>
      </trkpt>
      <trkpt lat="63.43595" lon="10.34993">
        <ele>57.016015</ele>
        <time>2020-08-08T07:12:31.280Z</time>
      </trkpt>
      <trkpt lat="63.43607" lon="10.34989">
        <ele>57.275026</ele>
        <time>2020-08-08T07:12:34.220Z</time>
      </trkpt>
      <trkpt lat="63.43619" lon="10.34985">
        <ele>57.538167</ele>
        <time>2020-08-08T07:12:37.219Z</time>
      </trkpt>
      <trkpt lat="63.4363" lon="10.34982">
        <ele>57.76267</ele>
        <time>2020-08-08T07:12:40.266Z</time>
      </trkpt>
      <trkpt lat="63.4364" lon="10.34978">
        <ele>57.981477</ele>
        <time>2020-08-08T07:12:43.201Z</time>
      </trkpt>
      <trkpt lat="63.4365" lon="10.34974">
        <ele>58.180637</ele>
        <time>2020-08-08T07:12:46.233Z</time>
      </trkpt>
      <trkpt lat="63.43659" lon="10.34971">
        <ele>58.382486</ele>
        <time>2020-08-08T07:12:49.241Z</time>
      </trkpt>
      <trkpt lat="63.43669" lon="10.34969">
        <ele>58.584334</ele>
        <time>2020-08-08T07:12:52.244Z</time>
      </trkpt>
      <trkpt lat="63.43679" lon="10.34967">
        <ele>58.789345</ele>
        <time>2020-08-08T07:12:55.225Z</time>
      </trkpt>
      <trkpt lat="63.43688" lon="10.34964">
        <ele>58.986601</ele>
        <time>2020-08-08T07:12:58.263Z</time>
      </trkpt>
      <trkpt lat="63.43698" lon="10.34963">
        <ele>59.183302</ele>
        <time>2020-08-08T07:13:01.235Z</time>
      </trkpt>
      <trkpt lat="63.43708" lon="10.34961">
        <ele>59.398294</ele>
        <time>2020-08-08T07:13:04.232Z</time>
      </trkpt>
      <trkpt lat="63.43718" lon="10.34958">
        <ele>59.616923</ele>
        <time>2020-08-08T07:13:07.251Z</time>
      </trkpt>
      <trkpt lat="63.43727" lon="10.34955">
        <ele>59.807881</ele>
        <time>2020-08-08T07:13:10.219Z</time>
      </trkpt>
      <trkpt lat="63.43738" lon="10.34949">
        <ele>60.026422</ele>
        <time>2020-08-08T07:13:13.208Z</time>
      </trkpt>
      <trkpt lat="63.43747" lon="10.34943">
        <ele>60.230739</ele>
        <time>2020-08-08T07:13:16.223Z</time>
      </trkpt>
      <trkpt lat="63.43756" lon="10.34937">
        <ele>60.462169</ele>
        <time>2020-08-08T07:13:19.210Z</time>
      </trkpt>
      <trkpt lat="63.43766" lon="10.34934">
        <ele>60.716952</ele>
        <time>2020-08-08T07:13:22.225Z</time>
      </trkpt>
      <trkpt lat="63.43776" lon="10.34926">
        <ele>60.962924</ele>
        <time>2020-08-08T07:13:25.240Z</time>
      </trkpt>
      <trkpt lat="63.43785" lon="10.34919">
        <ele>61.183024</ele>
        <time>2020-08-08T07:13:28.226Z</time>
      </trkpt>
      <trkpt lat="63.43795" lon="10.34907">
        <ele>61.468407</ele>
        <time>2020-08-08T07:13:32.218Z</time>
      </trkpt>
      <trkpt lat="63.43804" lon="10.34898">
        <ele>61.70772</ele>
        <time>2020-08-08T07:13:35.222Z</time>
      </trkpt>
      <trkpt lat="63.43814" lon="10.34889">
        <ele>61.950921</ele>
        <time>2020-08-08T07:13:38.232Z</time>
      </trkpt>
      <trkpt lat="63.43823" lon="10.34879">
        <ele>62.189964</ele>
        <time>2020-08-08T07:13:41.216Z</time>
      </trkpt>
      <trkpt lat="63.4383" lon="10.34865">
        <ele>62.428336</ele>
        <time>2020-08-08T07:13:45.230Z</time>
      </trkpt>
      <trkpt lat="63.43838" lon="10.3485">
        <ele>62.676973</ele>
        <time>2020-08-08T07:13:50.254Z</time>
      </trkpt>
      <trkpt lat="63.43845" lon="10.34838">
        <ele>62.89252</ele>
        <time>2020-08-08T07:13:53.233Z</time>
      </trkpt>
      <trkpt lat="63.43853" lon="10.34825">
        <ele>63.124078</ele>
        <time>2020-08-08T07:13:56.219Z</time>
      </trkpt>
      <trkpt lat="63.43862" lon="10.34814">
        <ele>63.368692</ele>
        <time>2020-08-08T07:13:59.205Z</time>
      </trkpt>
      <trkpt lat="63.43872" lon="10.34802">
        <ele>63.640215</ele>
        <time>2020-08-08T07:14:02.236Z</time>
      </trkpt>
      <trkpt lat="63.43883" lon="10.34792">
        <ele>63.935702</ele>
        <time>2020-08-08T07:14:05.222Z</time>
      </trkpt>
      <trkpt lat="63.43895" lon="10.34785">
        <ele>64.213137</ele>
        <time>2020-08-08T07:14:08.253Z</time>
      </trkpt>
      <trkpt lat="63.43905" lon="10.34782">
        <ele>64.473153</ele>
        <time>2020-08-08T07:14:11.219Z</time>
      </trkpt>
      <trkpt lat="63.43915" lon="10.34783">
        <ele>64.622322</ele>
        <time>2020-08-08T07:14:14.256Z</time>
      </trkpt>
      <trkpt lat="63.43925" lon="10.34785">
        <ele>64.767049</ele>
        <time>2020-08-08T07:14:17.220Z</time>
      </trkpt>
      <trkpt lat="63.43936" lon="10.3479">
        <ele>64.920561</ele>
        <time>2020-08-08T07:14:21.204Z</time>
      </trkpt>
      <trkpt lat="63.43945" lon="10.34794">
        <ele>65.048966</ele>
        <time>2020-08-08T07:14:24.259Z</time>
      </trkpt>
      <trkpt lat="63.43956" lon="10.34798">
        <ele>65.203959</ele>
        <time>2020-08-08T07:14:28.276Z</time>
      </trkpt>
      <trkpt lat="63.43965" lon="10.348">
        <ele>65.337841</ele>
        <time>2020-08-08T07:14:32.220Z</time>
      </trkpt>
      <trkpt lat="63.43976" lon="10.34798">
        <ele>65.496779</ele>
        <time>2020-08-08T07:14:36.203Z</time>
      </trkpt>
      <trkpt lat="63.43988" lon="10.34796">
        <ele>65.65614</ele>
        <time>2020-08-08T07:14:40.251Z</time>
      </trkpt>
      <trkpt lat="63.43998" lon="10.34789">
        <ele>65.808693</ele>
        <time>2020-08-08T07:14:44.213Z</time>
      </trkpt>
      <trkpt lat="63.44007" lon="10.3478">
        <ele>65.949869</ele>
        <time>2020-08-08T07:14:48.244Z</time>
      </trkpt>
      <trkpt lat="63.44017" lon="10.34767">
        <ele>66.115155</ele>
        <time>2020-08-08T07:14:52.212Z</time>
      </trkpt>
      <trkpt lat="63.44025" lon="10.34756">
        <ele>66.249252</ele>
        <time>2020-08-08T07:14:55.221Z</time>
      </trkpt>
      <trkpt lat="63.44034" lon="10.34743">
        <ele>66.401786</ele>
        <time>2020-08-08T07:14:58.207Z</time>
      </trkpt>
      <trkpt lat="63.44043" lon="10.34731">
        <ele>66.547712</ele>
        <time>2020-08-08T07:15:01.239Z</time>
      </trkpt>
      <trkpt lat="63.44051" lon="10.34721">
        <ele>66.674691</ele>
        <time>2020-08-08T07:15:04.212Z</time>
      </trkpt>
      <trkpt lat="63.44061" lon="10.3471">
        <ele>66.835295</ele>
        <time>2020-08-08T07:15:08.237Z</time>
      </trkpt>
      <trkpt lat="63.44069" lon="10.34702">
        <ele>66.962038</ele>
        <time>2020-08-08T07:15:11.208Z</time>
      </trkpt>
      <trkpt lat="63.4408" lon="10.34697">
        <ele>67.22282</ele>
        <time>2020-08-08T07:15:15.214Z</time>
      </trkpt>
      <trkpt lat="63.44092" lon="10.34693">
        <ele>67.649002</ele>
        <time>2020-08-08T07:15:19.296Z</time>
      </trkpt>
      <trkpt lat="63.44101" lon="10.34692">
        <ele>67.987928</ele>
        <time>2020-08-08T07:15:22.252Z</time>
      </trkpt>
      <trkpt lat="63.44111" lon="10.34692">
        <ele>68.329854</ele>
        <time>2020-08-08T07:15:25.220Z</time>
      </trkpt>
      <trkpt lat="63.44122" lon="10.34696">
        <ele>68.722443</ele>
        <time>2020-08-08T07:15:29.228Z</time>
      </trkpt>
      <trkpt lat="63.44131" lon="10.34705">
        <ele>69.090597</ele>
        <time>2020-08-08T07:15:33.220Z</time>
      </trkpt>
      <trkpt lat="63.44141" lon="10.34714">
        <ele>69.44842</ele>
        <time>2020-08-08T07:15:37.218Z</time>
      </trkpt>
      <trkpt lat="63.4415" lon="10.34723">
        <ele>69.795935</ele>
        <time>2020-08-08T07:15:41.228Z</time>
      </trkpt>
      <trkpt lat="63.44159" lon="10.3473">
        <ele>70.154734</ele>
        <time>2020-08-08T07:15:45.224Z</time>
      </trkpt>
      <trkpt lat="63.44169" lon="10.34738">
        <ele>70.497695</ele>
        <time>2020-08-08T07:15:49.235Z</time>
      </trkpt>
      <trkpt lat="63.44179" lon="10.34742">
        <ele>70.85872</ele>
        <time>2020-08-08T07:15:53.257Z</time>
      </trkpt>
      <trkpt lat="63.4419" lon="10.34741">
        <ele>71.257154</ele>
        <time>2020-08-08T07:15:57.205Z</time>
      </trkpt>
      <trkpt lat="63.442" lon="10.34737">
        <ele>71.629403</ele>
        <time>2020-08-08T07:16:01.221Z</time>
      </trkpt>
      <trkpt lat="63.4421" lon="10.3473">
        <ele>71.99785</ele>
        <time>2020-08-08T07:16:05.212Z</time>
      </trkpt>
      <trkpt lat="63.44221" lon="10.34717">
        <ele>72.42049</ele>
        <time>2020-08-08T07:16:09.240Z</time>
      </trkpt>
      <trkpt lat="63.44231" lon="10.34705">
        <ele>72.814319</ele>
        <time>2020-08-08T07:16:13.214Z</time>
      </trkpt>
      <trkpt lat="63.44239" lon="10.34692">
        <ele>73.173241</ele>
        <time>2020-08-08T07:16:17.217Z</time>
      </trkpt>
      <trkpt lat="63.44246" lon="10.34677">
        <ele>73.521663</ele>
        <time>2020-08-08T07:16:21.213Z</time>
      </trkpt>
      <trkpt lat="63.44252" lon="10.3466">
        <ele>73.881478</ele>
        <time>2020-08-08T07:16:25.222Z</time>
      </trkpt>
      <trkpt lat="63.44258" lon="10.34645">
        <ele>74.230825</ele>
        <time>2020-08-08T07:16:29.201Z</time>
      </trkpt>
      <trkpt lat="63.44264" lon="10.34628">
        <ele>74.613402</ele>
        <time>2020-08-08T07:16:33.224Z</time>
      </trkpt>
      <trkpt lat="63.4427" lon="10.34607">
        <ele>75.020802</ele>
        <time>2020-08-08T07:16:37.209Z</time>
      </trkpt>
      <trkpt lat="63.44275" lon="10.34586">
        <ele>75.431382</ele>
        <time>2020-08-08T07:16:41.223Z</time>
      </trkpt>
      <trkpt lat="63.44278" lon="10.34562">
        <ele>75.858407</ele>
        <time>2020-08-08T07:16:45.204Z</time>
      </trkpt>
      <trkpt lat="63.44282" lon="10.34539">
        <ele>76.26467</ele>
        <time>2020-08-08T07:16:49.244Z</time>
      </trkpt>
      <trkpt lat="63.44285" lon="10.34516">
        <ele>76.68083</ele>
        <time>2020-08-08T07:16:53.216Z</time>
      </trkpt>
      <trkpt lat="63.44289" lon="10.34491">
        <ele>77.12319</ele>
        <time>2020-08-08T07:16:57.240Z</time>
      </trkpt>
      <trkpt lat="63.44294" lon="10.3447">
        <ele>77.544529</ele>
        <time>2020-08-08T07:17:01.214Z</time>
      </trkpt>
      <trkpt lat="63.443" lon="10.34452">
        <ele>77.923036</ele>
        <time>2020-08-08T07:17:05.241Z</time>
      </trkpt>
      <trkpt lat="63.44307" lon="10.34435">
        <ele>78.306647</ele>
        <time>2020-08-08T07:17:09.247Z</time>
      </trkpt>
      <trkpt lat="63.44316" lon="10.34419">
        <ele>78.727871</ele>
        <time>2020-08-08T07:17:13.248Z</time>
      </trkpt>
      <trkpt lat="63.44323" lon="10.34404">
        <ele>79.094481</ele>
        <time>2020-08-08T07:17:17.241Z</time>
      </trkpt>
      <trkpt lat="63.4433" lon="10.34388">
        <ele>79.477247</ele>
        <time>2020-08-08T07:17:21.221Z</time>
      </trkpt>
      <trkpt lat="63.44336" lon="10.34371">
        <ele>79.860817</ele>
        <time>2020-08-08T07:17:25.278Z</time>
      </trkpt>
      <trkpt lat="63.44343" lon="10.34355">
        <ele>80.230053</ele>
        <time>2020-08-08T07:17:29.269Z</time>
      </trkpt>
      <trkpt lat="63.44349" lon="10.34337">
        <ele>80.647591</ele>
        <time>2020-08-08T07:17:33.235Z</time>
      </trkpt>
      <trkpt lat="63.44355" lon="10.34317">
        <ele>81.112094</ele>
        <time>2020-08-08T07:17:37.202Z</time>
      </trkpt>
      <trkpt lat="63.44362" lon="10.34297">
        <ele>81.589229</ele>
        <time>2020-08-08T07:17:41.217Z</time>
      </trkpt>
      <trkpt lat="63.44368" lon="10.34275">
        <ele>82.068922</ele>
        <time>2020-08-08T07:17:45.225Z</time>
      </trkpt>
      <trkpt lat="63.44372" lon="10.34257">
        <ele>82.45744</ele>
        <time>2020-08-08T07:17:48.213Z</time>
      </trkpt>
      <trkpt lat="63.44377" lon="10.34234">
        <ele>82.941775</ele>
        <time>2020-08-08T07:17:52.227Z</time>
      </trkpt>
      <trkpt lat="63.44381" lon="10.34212">
        <ele>83.387799</ele>
        <time>2020-08-08T07:17:56.265Z</time>
      </trkpt>
      <trkpt lat="63.44384" lon="10.34192">
        <ele>83.788446</ele>
        <time>2020-08-08T07:18:00.230Z</time>
      </trkpt>
      <trkpt lat="63.44386" lon="10.34169">
        <ele>84.240489</ele>
        <time>2020-08-08T07:18:04.211Z</time>
      </trkpt>
      <trkpt lat="63.44389" lon="10.34146">
        <ele>84.672761</ele>
        <time>2020-08-08T07:18:08.238Z</time>
      </trkpt>
      <trkpt lat="63.4439" lon="10.34121">
        <ele>85.158</ele>
        <time>2020-08-08T07:18:12.228Z</time>
      </trkpt>
      <trkpt lat="63.44392" lon="10.34098">
        <ele>85.588617</ele>
        <time>2020-08-08T07:18:16.233Z</time>
      </trkpt>
      <trkpt lat="63.44394" lon="10.34076">
        <ele>86.015341</ele>
        <time>2020-08-08T07:18:20.229Z</time>
      </trkpt>
      <trkpt lat="63.44397" lon="10.34054">
        <ele>86.456413</ele>
        <time>2020-08-08T07:18:24.212Z</time>
      </trkpt>
      <trkpt lat="63.44402" lon="10.34032">
        <ele>86.904724</ele>
        <time>2020-08-08T07:18:28.227Z</time>
      </trkpt>
      <trkpt lat="63.44406" lon="10.34011">
        <ele>87.347966</ele>
        <time>2020-08-08T07:18:32.246Z</time>
      </trkpt>
      <trkpt lat="63.44411" lon="10.33993">
        <ele>87.740411</ele>
        <time>2020-08-08T07:18:36.275Z</time>
      </trkpt>
      <trkpt lat="63.44418" lon="10.33973">
        <ele>88.961109</ele>
        <time>2020-08-08T07:18:41.216Z</time>
      </trkpt>
      <trkpt lat="63.44425" lon="10.33957">
        <ele>90.217002</ele>
        <time>2020-08-08T07:18:45.219Z</time>
      </trkpt>
      <trkpt lat="63.44432" lon="10.33941">
        <ele>91.395392</ele>
        <time>2020-08-08T07:18:49.230Z</time>
      </trkpt>
      <trkpt lat="63.4444" lon="10.33923">
        <ele>92.742924</ele>
        <time>2020-08-08T07:18:54.256Z</time>
      </trkpt>
      <trkpt lat="63.44446" lon="10.33907">
        <ele>93.845204</ele>
        <time>2020-08-08T07:18:58.269Z</time>
      </trkpt>
      <trkpt lat="63.44453" lon="10.33891">
        <ele>95.120937</ele>
        <time>2020-08-08T07:19:02.214Z</time>
      </trkpt>
      <trkpt lat="63.44461" lon="10.33875">
        <ele>96.342638</ele>
        <time>2020-08-08T07:19:06.256Z</time>
      </trkpt>
      <trkpt lat="63.44469" lon="10.3386">
        <ele>97.625699</ele>
        <time>2020-08-08T07:19:10.245Z</time>
      </trkpt>
      <trkpt lat="63.44477" lon="10.33845">
        <ele>98.887011</ele>
        <time>2020-08-08T07:19:14.209Z</time>
      </trkpt>
      <trkpt lat="63.44485" lon="10.33832">
        <ele>100.017492</ele>
        <time>2020-08-08T07:19:18.217Z</time>
      </trkpt>
      <trkpt lat="63.44493" lon="10.33818">
        <ele>101.240775</ele>
        <time>2020-08-08T07:19:22.208Z</time>
      </trkpt>
      <trkpt lat="63.44501" lon="10.33805">
        <ele>102.444872</ele>
        <time>2020-08-08T07:19:26.215Z</time>
      </trkpt>
      <trkpt lat="63.4451" lon="10.33791">
        <ele>103.767771</ele>
        <time>2020-08-08T07:19:31.212Z</time>
      </trkpt>
      <trkpt lat="63.44518" lon="10.33778">
        <ele>104.939868</ele>
        <time>2020-08-08T07:19:35.232Z</time>
      </trkpt>
      <trkpt lat="63.44525" lon="10.33763">
        <ele>106.147379</ele>
        <time>2020-08-08T07:19:39.246Z</time>
      </trkpt>
      <trkpt lat="63.44533" lon="10.33749">
        <ele>107.323067</ele>
        <time>2020-08-08T07:19:43.292Z</time>
      </trkpt>
      <trkpt lat="63.4454" lon="10.33736">
        <ele>108.400692</ele>
        <time>2020-08-08T07:19:47.222Z</time>
      </trkpt>
      <trkpt lat="63.44548" lon="10.33722">
        <ele>109.309777</ele>
        <time>2020-08-08T07:19:51.243Z</time>
      </trkpt>
      <trkpt lat="63.44555" lon="10.33705">
        <ele>109.067729</ele>
        <time>2020-08-08T07:19:55.232Z</time>
      </trkpt>
      <trkpt lat="63.44564" lon="10.33693">
        <ele>108.821349</ele>
        <time>2020-08-08T07:19:59.199Z</time>
      </trkpt>
      <trkpt lat="63.44574" lon="10.33681">
        <ele>108.549122</ele>
        <time>2020-08-08T07:20:03.250Z</time>
      </trkpt>
      <trkpt lat="63.44584" lon="10.33667">
        <ele>108.267327</ele>
        <time>2020-08-08T07:20:07.242Z</time>
      </trkpt>
      <trkpt lat="63.44591" lon="10.33652">
        <ele>108.036498</ele>
        <time>2020-08-08T07:20:11.229Z</time>
      </trkpt>
      <trkpt lat="63.44597" lon="10.33633">
        <ele>107.786855</ele>
        <time>2020-08-08T07:20:16.217Z</time>
      </trkpt>
      <trkpt lat="63.44603" lon="10.33611">
        <ele>107.522434</ele>
        <time>2020-08-08T07:20:21.235Z</time>
      </trkpt>
      <trkpt lat="63.44609" lon="10.33594">
        <ele>107.285174</ele>
        <time>2020-08-08T07:20:25.223Z</time>
      </trkpt>
      <trkpt lat="63.44616" lon="10.33574">
        <ele>107.022678</ele>
        <time>2020-08-08T07:20:29.227Z</time>
      </trkpt>
      <trkpt lat="63.4462" lon="10.33553">
        <ele>106.781668</ele>
        <time>2020-08-08T07:20:33.238Z</time>
      </trkpt>
      <trkpt lat="63.44622" lon="10.33532">
        <ele>106.550643</ele>
        <time>2020-08-08T07:20:37.248Z</time>
      </trkpt>
      <trkpt lat="63.44624" lon="10.33512">
        <ele>106.32715</ele>
        <time>2020-08-08T07:20:41.228Z</time>
      </trkpt>
      <trkpt lat="63.44625" lon="10.33489">
        <ele>106.085736</ele>
        <time>2020-08-08T07:20:45.211Z</time>
      </trkpt>
      <trkpt lat="63.44625" lon="10.33469">
        <ele>105.871457</ele>
        <time>2020-08-08T07:20:48.245Z</time>
      </trkpt>
      <trkpt lat="63.44625" lon="10.33443">
        <ele>105.594702</ele>
        <time>2020-08-08T07:20:52.208Z</time>
      </trkpt>
      <trkpt lat="63.44623" lon="10.33421">
        <ele>105.357722</ele>
        <time>2020-08-08T07:20:55.207Z</time>
      </trkpt>
      <trkpt lat="63.4462" lon="10.33397">
        <ele>105.098233</ele>
        <time>2020-08-08T07:20:58.255Z</time>
      </trkpt>
      <trkpt lat="63.44617" lon="10.33368">
        <ele>104.088164</ele>
        <time>2020-08-08T07:21:01.234Z</time>
      </trkpt>
      <trkpt lat="63.44615" lon="10.33346">
        <ele>103.30959</ele>
        <time>2020-08-08T07:21:03.209Z</time>
      </trkpt>
      <trkpt lat="63.44612" lon="10.33319">
        <ele>102.385739</ele>
        <time>2020-08-08T07:21:05.241Z</time>
      </trkpt>
      <trkpt lat="63.4461" lon="10.33288">
        <ele>101.320254</ele>
        <time>2020-08-08T07:21:07.257Z</time>
      </trkpt>
      <trkpt lat="63.44607" lon="10.33252">
        <ele>100.086426</ele>
        <time>2020-08-08T07:21:09.219Z</time>
      </trkpt>
      <trkpt lat="63.44605" lon="10.33215">
        <ele>98.821438</ele>
        <time>2020-08-08T07:21:11.244Z</time>
      </trkpt>
      <trkpt lat="63.44604" lon="10.33174">
        <ele>97.438315</ele>
        <time>2020-08-08T07:21:13.224Z</time>
      </trkpt>
      <trkpt lat="63.44603" lon="10.33151">
        <ele>96.664661</ele>
        <time>2020-08-08T07:21:14.226Z</time>
      </trkpt>
      <trkpt lat="63.44602" lon="10.33127">
        <ele>95.865676</ele>
        <time>2020-08-08T07:21:15.213Z</time>
      </trkpt>
      <trkpt lat="63.44602" lon="10.33103">
        <ele>95.047665</ele>
        <time>2020-08-08T07:21:16.209Z</time>
      </trkpt>
      <trkpt lat="63.44603" lon="10.33079">
        <ele>94.216104</ele>
        <time>2020-08-08T07:21:17.231Z</time>
      </trkpt>
      <trkpt lat="63.44605" lon="10.33054">
        <ele>93.384751</ele>
        <time>2020-08-08T07:21:18.234Z</time>
      </trkpt>
      <trkpt lat="63.44607" lon="10.3303">
        <ele>92.551804</ele>
        <time>2020-08-08T07:21:19.220Z</time>
      </trkpt>
      <trkpt lat="63.4461" lon="10.33007">
        <ele>91.721263</ele>
        <time>2020-08-08T07:21:20.233Z</time>
      </trkpt>
      <trkpt lat="63.44614" lon="10.32983">
        <ele>90.869511</ele>
        <time>2020-08-08T07:21:21.205Z</time>
      </trkpt>
      <trkpt lat="63.44617" lon="10.32958">
        <ele>89.994362</ele>
        <time>2020-08-08T07:21:22.247Z</time>
      </trkpt>
      <trkpt lat="63.44621" lon="10.32933">
        <ele>89.110044</ele>
        <time>2020-08-08T07:21:23.213Z</time>
      </trkpt>
      <trkpt lat="63.44624" lon="10.32908">
        <ele>88.237775</ele>
        <time>2020-08-08T07:21:24.213Z</time>
      </trkpt>
      <trkpt lat="63.44626" lon="10.32883">
        <ele>87.362422</ele>
        <time>2020-08-08T07:21:25.205Z</time>
      </trkpt>
      <trkpt lat="63.44628" lon="10.32857">
        <ele>86.478202</ele>
        <time>2020-08-08T07:21:26.236Z</time>
      </trkpt>
      <trkpt lat="63.4463" lon="10.3283">
        <ele>85.576034</ele>
        <time>2020-08-08T07:21:27.207Z</time>
      </trkpt>
      <trkpt lat="63.44633" lon="10.32805">
        <ele>84.679315</ele>
        <time>2020-08-08T07:21:28.219Z</time>
      </trkpt>
      <trkpt lat="63.44637" lon="10.32781">
        <ele>83.837731</ele>
        <time>2020-08-08T07:21:29.220Z</time>
      </trkpt>
      <trkpt lat="63.44641" lon="10.32759">
        <ele>83.040332</ele>
        <time>2020-08-08T07:21:30.224Z</time>
      </trkpt>
      <trkpt lat="63.44647" lon="10.32739">
        <ele>82.220593</ele>
        <time>2020-08-08T07:21:31.260Z</time>
      </trkpt>
      <trkpt lat="63.44653" lon="10.3272">
        <ele>81.425163</ele>
        <time>2020-08-08T07:21:32.216Z</time>
      </trkpt>
      <trkpt lat="63.44661" lon="10.32705">
        <ele>80.67065</ele>
        <time>2020-08-08T07:21:33.265Z</time>
      </trkpt>
      <trkpt lat="63.44669" lon="10.32693">
        <ele>79.915255</ele>
        <time>2020-08-08T07:21:34.267Z</time>
      </trkpt>
      <trkpt lat="63.44678" lon="10.32683">
        <ele>79.140795</ele>
        <time>2020-08-08T07:21:35.229Z</time>
      </trkpt>
      <trkpt lat="63.44688" lon="10.32673">
        <ele>78.32695</ele>
        <time>2020-08-08T07:21:36.264Z</time>
      </trkpt>
      <trkpt lat="63.44698" lon="10.32663">
        <ele>77.713323</ele>
        <time>2020-08-08T07:21:37.256Z</time>
      </trkpt>
      <trkpt lat="63.44708" lon="10.32654">
        <ele>77.307388</ele>
        <time>2020-08-08T07:21:38.246Z</time>
      </trkpt>
      <trkpt lat="63.44718" lon="10.32644">
        <ele>76.896455</ele>
        <time>2020-08-08T07:21:39.223Z</time>
      </trkpt>
      <trkpt lat="63.44728" lon="10.32635">
        <ele>76.481012</ele>
        <time>2020-08-08T07:21:40.230Z</time>
      </trkpt>
      <trkpt lat="63.44738" lon="10.32626">
        <ele>76.057508</ele>
        <time>2020-08-08T07:21:41.216Z</time>
      </trkpt>
      <trkpt lat="63.44748" lon="10.32616">
        <ele>75.643121</ele>
        <time>2020-08-08T07:21:42.228Z</time>
      </trkpt>
      <trkpt lat="63.44757" lon="10.32604">
        <ele>75.23144</ele>
        <time>2020-08-08T07:21:43.224Z</time>
      </trkpt>
      <trkpt lat="63.44766" lon="10.3259">
        <ele>74.826225</ele>
        <time>2020-08-08T07:21:44.225Z</time>
      </trkpt>
      <trkpt lat="63.44774" lon="10.32576">
        <ele>74.424072</ele>
        <time>2020-08-08T07:21:45.209Z</time>
      </trkpt>
      <trkpt lat="63.44782" lon="10.3256">
        <ele>74.021874</ele>
        <time>2020-08-08T07:21:46.253Z</time>
      </trkpt>
      <trkpt lat="63.44789" lon="10.3254">
        <ele>73.580352</ele>
        <time>2020-08-08T07:21:47.218Z</time>
      </trkpt>
      <trkpt lat="63.44796" lon="10.32519">
        <ele>73.148156</ele>
        <time>2020-08-08T07:21:48.229Z</time>
      </trkpt>
      <trkpt lat="63.44802" lon="10.32499">
        <ele>72.726516</ele>
        <time>2020-08-08T07:21:49.228Z</time>
      </trkpt>
      <trkpt lat="63.44809" lon="10.32481">
        <ele>72.32262</ele>
        <time>2020-08-08T07:21:50.232Z</time>
      </trkpt>
      <trkpt lat="63.44816" lon="10.32463">
        <ele>71.909371</ele>
        <time>2020-08-08T07:21:51.215Z</time>
      </trkpt>
      <trkpt lat="63.44823" lon="10.32444">
        <ele>71.485947</ele>
        <time>2020-08-08T07:21:52.208Z</time>
      </trkpt>
      <trkpt lat="63.44831" lon="10.32426">
        <ele>71.062524</ele>
        <time>2020-08-08T07:21:53.221Z</time>
      </trkpt>
      <trkpt lat="63.44838" lon="10.32407">
        <ele>70.357474</ele>
        <time>2020-08-08T07:21:54.211Z</time>
      </trkpt>
      <trkpt lat="63.44846" lon="10.32389">
        <ele>69.642984</ele>
        <time>2020-08-08T07:21:55.209Z</time>
      </trkpt>
      <trkpt lat="63.44853" lon="10.32372">
        <ele>68.956661</ele>
        <time>2020-08-08T07:21:56.221Z</time>
      </trkpt>
      <trkpt lat="63.44859" lon="10.32355">
        <ele>68.306994</ele>
        <time>2020-08-08T07:21:57.224Z</time>
      </trkpt>
      <trkpt lat="63.44866" lon="10.32339">
        <ele>67.678944</ele>
        <time>2020-08-08T07:21:58.240Z</time>
      </trkpt>
      <trkpt lat="63.44872" lon="10.32323">
        <ele>67.052909</ele>
        <time>2020-08-08T07:21:59.246Z</time>
      </trkpt>
      <trkpt lat="63.44884" lon="10.32295">
        <ele>65.962894</ele>
        <time>2020-08-08T07:22:01.221Z</time>
      </trkpt>
      <trkpt lat="63.44892" lon="10.32267">
        <ele>65.000412</ele>
        <time>2020-08-08T07:22:03.217Z</time>
      </trkpt>
      <trkpt lat="63.44892" lon="10.32234">
        <ele>64.057762</ele>
        <time>2020-08-08T07:22:05.241Z</time>
      </trkpt>
      <trkpt lat="63.44889" lon="10.32208">
        <ele>63.264269</ele>
        <time>2020-08-08T07:22:07.240Z</time>
      </trkpt>
      <trkpt lat="63.44885" lon="10.32187">
        <ele>62.603529</ele>
        <time>2020-08-08T07:22:09.216Z</time>
      </trkpt>
      <trkpt lat="63.44882" lon="10.32168">
        <ele>62.015746</ele>
        <time>2020-08-08T07:22:11.203Z</time>
      </trkpt>
      <trkpt lat="63.44875" lon="10.32147">
        <ele>61.258009</ele>
        <time>2020-08-08T07:22:14.221Z</time>
      </trkpt>
      <trkpt lat="63.44865" lon="10.32131">
        <ele>60.489628</ele>
        <time>2020-08-08T07:22:17.236Z</time>
      </trkpt>
      <trkpt lat="63.44862" lon="10.32111">
        <ele>59.864299</ele>
        <time>2020-08-08T07:22:19.264Z</time>
      </trkpt>
      <trkpt lat="63.44861" lon="10.3209">
        <ele>59.500716</ele>
        <time>2020-08-08T07:22:22.264Z</time>
      </trkpt>
      <trkpt lat="63.44866" lon="10.32073">
        <ele>59.946136</ele>
        <time>2020-08-08T07:22:29.268Z</time>
      </trkpt>
      <trkpt lat="63.44873" lon="10.32055">
        <ele>60.431887</ele>
        <time>2020-08-08T07:22:35.256Z</time>
      </trkpt>
      <trkpt lat="63.4488" lon="10.32038">
        <ele>60.915373</ele>
        <time>2020-08-08T07:22:40.219Z</time>
      </trkpt>
      <trkpt lat="63.44887" lon="10.32022">
        <ele>61.393146</ele>
        <time>2020-08-08T07:22:44.212Z</time>
      </trkpt>
      <trkpt lat="63.44894" lon="10.32007">
        <ele>61.87292</ele>
        <time>2020-08-08T07:22:48.210Z</time>
      </trkpt>
      <trkpt lat="63.44901" lon="10.31986">
        <ele>62.42636</ele>
        <time>2020-08-08T07:22:51.207Z</time>
      </trkpt>
      <trkpt lat="63.44907" lon="10.31961">
        <ele>63.016668</ele>
        <time>2020-08-08T07:22:54.215Z</time>
      </trkpt>
      <trkpt lat="63.44911" lon="10.31934">
        <ele>63.606508</ele>
        <time>2020-08-08T07:22:57.207Z</time>
      </trkpt>
      <trkpt lat="63.44915" lon="10.31907">
        <ele>64.225105</ele>
        <time>2020-08-08T07:23:00.220Z</time>
      </trkpt>
      <trkpt lat="63.44919" lon="10.31881">
        <ele>64.81136</ele>
        <time>2020-08-08T07:23:03.218Z</time>
      </trkpt>
      <trkpt lat="63.44925" lon="10.31858">
        <ele>65.361905</ele>
        <time>2020-08-08T07:23:06.214Z</time>
      </trkpt>
      <trkpt lat="63.4493" lon="10.31835">
        <ele>65.918085</ele>
        <time>2020-08-08T07:23:09.266Z</time>
      </trkpt>
      <trkpt lat="63.44936" lon="10.31812">
        <ele>66.477698</ele>
        <time>2020-08-08T07:23:12.224Z</time>
      </trkpt>
      <trkpt lat="63.44943" lon="10.31788">
        <ele>67.075293</ele>
        <time>2020-08-08T07:23:15.260Z</time>
      </trkpt>
      <trkpt lat="63.4495" lon="10.31765">
        <ele>67.668962</ele>
        <time>2020-08-08T07:23:18.304Z</time>
      </trkpt>
      <trkpt lat="63.44956" lon="10.3175">
        <ele>68.053934</ele>
        <time>2020-08-08T07:23:20.230Z</time>
      </trkpt>
      <trkpt lat="63.44962" lon="10.31735">
        <ele>68.368586</ele>
        <time>2020-08-08T07:23:22.206Z</time>
      </trkpt>
      <trkpt lat="63.44969" lon="10.3172">
        <ele>68.697726</ele>
        <time>2020-08-08T07:23:24.204Z</time>
      </trkpt>
      <trkpt lat="63.44976" lon="10.31706">
        <ele>69.025518</ele>
        <time>2020-08-08T07:23:26.224Z</time>
      </trkpt>
      <trkpt lat="63.44984" lon="10.31693">
        <ele>69.349125</ele>
        <time>2020-08-08T07:23:28.237Z</time>
      </trkpt>
      <trkpt lat="63.44992" lon="10.3168">
        <ele>69.690516</ele>
        <time>2020-08-08T07:23:30.248Z</time>
      </trkpt>
      <trkpt lat="63.45" lon="10.31667">
        <ele>70.043492</ele>
        <time>2020-08-08T07:23:32.234Z</time>
      </trkpt>
      <trkpt lat="63.45008" lon="10.31652">
        <ele>70.412184</ele>
        <time>2020-08-08T07:23:34.226Z</time>
      </trkpt>
      <trkpt lat="63.45017" lon="10.31637">
        <ele>70.796627</ele>
        <time>2020-08-08T07:23:36.209Z</time>
      </trkpt>
      <trkpt lat="63.45025" lon="10.31622">
        <ele>71.161575</ele>
        <time>2020-08-08T07:23:38.252Z</time>
      </trkpt>
      <trkpt lat="63.45033" lon="10.31605">
        <ele>71.524831</ele>
        <time>2020-08-08T07:23:40.236Z</time>
      </trkpt>
      <trkpt lat="63.45039" lon="10.31585">
        <ele>71.907838</ele>
        <time>2020-08-08T07:23:42.260Z</time>
      </trkpt>
      <trkpt lat="63.45045" lon="10.31563">
        <ele>72.29713</ele>
        <time>2020-08-08T07:23:44.220Z</time>
      </trkpt>
      <trkpt lat="63.45049" lon="10.31539">
        <ele>72.692808</ele>
        <time>2020-08-08T07:23:46.223Z</time>
      </trkpt>
      <trkpt lat="63.45052" lon="10.31514">
        <ele>73.095883</ele>
        <time>2020-08-08T07:23:48.253Z</time>
      </trkpt>
      <trkpt lat="63.45056" lon="10.31491">
        <ele>73.471583</ele>
        <time>2020-08-08T07:23:50.237Z</time>
      </trkpt>
      <trkpt lat="63.45061" lon="10.31469">
        <ele>73.868635</ele>
        <time>2020-08-08T07:23:52.235Z</time>
      </trkpt>
      <trkpt lat="63.45067" lon="10.31446">
        <ele>74.00621</ele>
        <time>2020-08-08T07:23:54.211Z</time>
      </trkpt>
      <trkpt lat="63.45072" lon="10.31421">
        <ele>73.565368</ele>
        <time>2020-08-08T07:23:56.219Z</time>
      </trkpt>
      <trkpt lat="63.45079" lon="10.31397">
        <ele>73.095676</ele>
        <time>2020-08-08T07:23:58.263Z</time>
      </trkpt>
      <trkpt lat="63.45087" lon="10.31375">
        <ele>72.635875</ele>
        <time>2020-08-08T07:24:00.208Z</time>
      </trkpt>
      <trkpt lat="63.45096" lon="10.31356">
        <ele>72.163658</ele>
        <time>2020-08-08T07:24:02.217Z</time>
      </trkpt>
      <trkpt lat="63.45107" lon="10.31335">
        <ele>71.651887</ele>
        <time>2020-08-08T07:24:04.202Z</time>
      </trkpt>
      <trkpt lat="63.45117" lon="10.3131">
        <ele>71.09921</ele>
        <time>2020-08-08T07:24:06.240Z</time>
      </trkpt>
      <trkpt lat="63.45126" lon="10.31281">
        <ele>70.501278</ele>
        <time>2020-08-08T07:24:08.244Z</time>
      </trkpt>
      <trkpt lat="63.45135" lon="10.31248">
        <ele>69.889371</ele>
        <time>2020-08-08T07:24:10.223Z</time>
      </trkpt>
      <trkpt lat="63.4514" lon="10.31214">
        <ele>69.29871</ele>
        <time>2020-08-08T07:24:12.266Z</time>
      </trkpt>
      <trkpt lat="63.45142" lon="10.31177">
        <ele>68.687961</ele>
        <time>2020-08-08T07:24:14.232Z</time>
      </trkpt>
      <trkpt lat="63.45142" lon="10.3114">
        <ele>68.090626</ele>
        <time>2020-08-08T07:24:16.233Z</time>
      </trkpt>
      <trkpt lat="63.45142" lon="10.31104">
        <ele>67.474938</ele>
        <time>2020-08-08T07:24:18.219Z</time>
      </trkpt>
      <trkpt lat="63.45142" lon="10.31072">
        <ele>66.800648</ele>
        <time>2020-08-08T07:24:20.278Z</time>
      </trkpt>
      <trkpt lat="63.45146" lon="10.31044">
        <ele>66.166715</ele>
        <time>2020-08-08T07:24:22.267Z</time>
      </trkpt>
      <trkpt lat="63.45155" lon="10.31019">
        <ele>65.465924</ele>
        <time>2020-08-08T07:24:24.257Z</time>
      </trkpt>
      <trkpt lat="63.45164" lon="10.30995">
        <ele>64.806378</ele>
        <time>2020-08-08T07:24:26.236Z</time>
      </trkpt>
      <trkpt lat="63.45172" lon="10.30971">
        <ele>64.168754</ele>
        <time>2020-08-08T07:24:28.267Z</time>
      </trkpt>
      <trkpt lat="63.45178" lon="10.30945">
        <ele>63.532271</ele>
        <time>2020-08-08T07:24:30.208Z</time>
      </trkpt>
      <trkpt lat="63.45182" lon="10.30916">
        <ele>62.88886</ele>
        <time>2020-08-08T07:24:32.235Z</time>
      </trkpt>
      <trkpt lat="63.45184" lon="10.30888">
        <ele>62.276091</ele>
        <time>2020-08-08T07:24:34.244Z</time>
      </trkpt>
      <trkpt lat="63.45185" lon="10.30863">
        <ele>61.724943</ele>
        <time>2020-08-08T07:24:36.244Z</time>
      </trkpt>
      <trkpt lat="63.45186" lon="10.30838">
        <ele>61.203001</ele>
        <time>2020-08-08T07:24:38.267Z</time>
      </trkpt>
      <trkpt lat="63.45187" lon="10.30815">
        <ele>60.707573</ele>
        <time>2020-08-08T07:24:40.232Z</time>
      </trkpt>
      <trkpt lat="63.45191" lon="10.30795">
        <ele>60.230117</ele>
        <time>2020-08-08T07:24:42.232Z</time>
      </trkpt>
      <trkpt lat="63.45195" lon="10.30774">
        <ele>59.749106</ele>
        <time>2020-08-08T07:24:44.238Z</time>
      </trkpt>
      <trkpt lat="63.45201" lon="10.30756">
        <ele>59.27693</ele>
        <time>2020-08-08T07:24:46.225Z</time>
      </trkpt>
      <trkpt lat="63.45206" lon="10.30739">
        <ele>58.944511</ele>
        <time>2020-08-08T07:24:48.206Z</time>
      </trkpt>
      <trkpt lat="63.45217" lon="10.30721">
        <ele>58.940532</ele>
        <time>2020-08-08T07:24:51.223Z</time>
      </trkpt>
      <trkpt lat="63.45226" lon="10.30717">
        <ele>58.937813</ele>
        <time>2020-08-08T07:24:53.204Z</time>
      </trkpt>
      <trkpt lat="63.4524" lon="10.3071">
        <ele>58.933778</ele>
        <time>2020-08-08T07:24:56.233Z</time>
      </trkpt>
      <trkpt lat="63.45249" lon="10.30703">
        <ele>58.930811</ele>
        <time>2020-08-08T07:24:58.220Z</time>
      </trkpt>
      <trkpt lat="63.45259" lon="10.30698">
        <ele>58.928001</ele>
        <time>2020-08-08T07:25:00.220Z</time>
      </trkpt>
      <trkpt lat="63.45272" lon="10.30689">
        <ele>58.924079</ele>
        <time>2020-08-08T07:25:03.224Z</time>
      </trkpt>
      <trkpt lat="63.45283" lon="10.30676">
        <ele>58.920266</ele>
        <time>2020-08-08T07:25:06.227Z</time>
      </trkpt>
      <trkpt lat="63.45294" lon="10.30657">
        <ele>58.916241</ele>
        <time>2020-08-08T07:25:09.238Z</time>
      </trkpt>
      <trkpt lat="63.45302" lon="10.30641">
        <ele>58.913242</ele>
        <time>2020-08-08T07:25:11.215Z</time>
      </trkpt>
      <trkpt lat="63.45309" lon="10.30624">
        <ele>58.910067</ele>
        <time>2020-08-08T07:25:13.227Z</time>
      </trkpt>
      <trkpt lat="63.45317" lon="10.30604">
        <ele>58.906755</ele>
        <time>2020-08-08T07:25:15.215Z</time>
      </trkpt>
      <trkpt lat="63.45324" lon="10.30585">
        <ele>58.903453</ele>
        <time>2020-08-08T07:25:17.224Z</time>
      </trkpt>
      <trkpt lat="63.45332" lon="10.30566">
        <ele>58.900074</ele>
        <time>2020-08-08T07:25:19.236Z</time>
      </trkpt>
      <trkpt lat="63.4534" lon="10.30546">
        <ele>58.896695</ele>
        <time>2020-08-08T07:25:21.210Z</time>
      </trkpt>
      <trkpt lat="63.45348" lon="10.30527">
        <ele>58.893258</ele>
        <time>2020-08-08T07:25:23.234Z</time>
      </trkpt>
      <trkpt lat="63.45355" lon="10.30507">
        <ele>58.954679</ele>
        <time>2020-08-08T07:25:25.213Z</time>
      </trkpt>
      <trkpt lat="63.45363" lon="10.30488">
        <ele>59.02116</ele>
        <time>2020-08-08T07:25:27.245Z</time>
      </trkpt>
      <trkpt lat="63.45371" lon="10.3047">
        <ele>59.087427</ele>
        <time>2020-08-08T07:25:29.235Z</time>
      </trkpt>
      <trkpt lat="63.45378" lon="10.30451">
        <ele>59.152567</ele>
        <time>2020-08-08T07:25:31.226Z</time>
      </trkpt>
      <trkpt lat="63.45384" lon="10.3043">
        <ele>59.218513</ele>
        <time>2020-08-08T07:25:33.261Z</time>
      </trkpt>
      <trkpt lat="63.4539" lon="10.30409">
        <ele>59.28235</ele>
        <time>2020-08-08T07:25:35.210Z</time>
      </trkpt>
      <trkpt lat="63.45395" lon="10.30388">
        <ele>59.34389</ele>
        <time>2020-08-08T07:25:37.253Z</time>
      </trkpt>
      <trkpt lat="63.45399" lon="10.30366">
        <ele>59.408221</ele>
        <time>2020-08-08T07:25:39.236Z</time>
      </trkpt>
      <trkpt lat="63.45403" lon="10.30342">
        <ele>59.473875</ele>
        <time>2020-08-08T07:25:41.246Z</time>
      </trkpt>
      <trkpt lat="63.45406" lon="10.30318">
        <ele>59.541925</ele>
        <time>2020-08-08T07:25:43.255Z</time>
      </trkpt>
      <trkpt lat="63.4541" lon="10.30293">
        <ele>59.609042</ele>
        <time>2020-08-08T07:25:45.212Z</time>
      </trkpt>
      <trkpt lat="63.45413" lon="10.3027">
        <ele>59.672796</ele>
        <time>2020-08-08T07:25:47.204Z</time>
      </trkpt>
      <trkpt lat="63.45416" lon="10.30246">
        <ele>59.738877</ele>
        <time>2020-08-08T07:25:49.255Z</time>
      </trkpt>
      <trkpt lat="63.45418" lon="10.30221">
        <ele>59.804433</ele>
        <time>2020-08-08T07:25:51.219Z</time>
      </trkpt>
      <trkpt lat="63.4542" lon="10.30197">
        <ele>59.871047</ele>
        <time>2020-08-08T07:25:53.219Z</time>
      </trkpt>
      <trkpt lat="63.45421" lon="10.30171">
        <ele>59.937348</ele>
        <time>2020-08-08T07:25:55.243Z</time>
      </trkpt>
      <trkpt lat="63.45422" lon="10.30146">
        <ele>60.092926</ele>
        <time>2020-08-08T07:25:57.557Z</time>
      </trkpt>
      <trkpt lat="63.45422" lon="10.30122">
        <ele>60.264205</ele>
        <time>2020-08-08T07:25:59.234Z</time>
      </trkpt>
      <trkpt lat="63.45421" lon="10.30097">
        <ele>60.445614</ele>
        <time>2020-08-08T07:26:01.225Z</time>
      </trkpt>
      <trkpt lat="63.4542" lon="10.30073">
        <ele>60.618007</ele>
        <time>2020-08-08T07:26:03.222Z</time>
      </trkpt>
      <trkpt lat="63.45419" lon="10.30049">
        <ele>60.78573</ele>
        <time>2020-08-08T07:26:05.211Z</time>
      </trkpt>
      <trkpt lat="63.45417" lon="10.30027">
        <ele>60.949357</ele>
        <time>2020-08-08T07:26:07.225Z</time>
      </trkpt>
      <trkpt lat="63.45414" lon="10.30004">
        <ele>61.113916</ele>
        <time>2020-08-08T07:26:09.239Z</time>
      </trkpt>
      <trkpt lat="63.45411" lon="10.29982">
        <ele>61.28096</ele>
        <time>2020-08-08T07:26:11.208Z</time>
      </trkpt>
      <trkpt lat="63.45407" lon="10.29961">
        <ele>61.441413</ele>
        <time>2020-08-08T07:26:13.236Z</time>
      </trkpt>
      <trkpt lat="63.45404" lon="10.29939">
        <ele>61.599826</ele>
        <time>2020-08-08T07:26:15.233Z</time>
      </trkpt>
      <trkpt lat="63.45401" lon="10.29918">
        <ele>61.764741</ele>
        <time>2020-08-08T07:26:17.238Z</time>
      </trkpt>
      <trkpt lat="63.45397" lon="10.29896">
        <ele>61.927674</ele>
        <time>2020-08-08T07:26:19.285Z</time>
      </trkpt>
      <trkpt lat="63.45393" lon="10.29876">
        <ele>62.089843</ele>
        <time>2020-08-08T07:26:21.208Z</time>
      </trkpt>
      <trkpt lat="63.45388" lon="10.29855">
        <ele>62.255353</ele>
        <time>2020-08-08T07:26:23.265Z</time>
      </trkpt>
      <trkpt lat="63.45384" lon="10.29833">
        <ele>62.425289</ele>
        <time>2020-08-08T07:26:25.241Z</time>
      </trkpt>
      <trkpt lat="63.45378" lon="10.29812">
        <ele>62.594608</ele>
        <time>2020-08-08T07:26:27.215Z</time>
      </trkpt>
      <trkpt lat="63.45373" lon="10.29792">
        <ele>62.757415</ele>
        <time>2020-08-08T07:26:29.247Z</time>
      </trkpt>
      <trkpt lat="63.45369" lon="10.29772">
        <ele>62.895278</ele>
        <time>2020-08-08T07:26:31.243Z</time>
      </trkpt>
      <trkpt lat="63.45365" lon="10.29753">
        <ele>63.022175</ele>
        <time>2020-08-08T07:26:33.220Z</time>
      </trkpt>
      <trkpt lat="63.45359" lon="10.29733">
        <ele>63.155828</ele>
        <time>2020-08-08T07:26:35.211Z</time>
      </trkpt>
      <trkpt lat="63.45354" lon="10.29713">
        <ele>63.284608</ele>
        <time>2020-08-08T07:26:37.220Z</time>
      </trkpt>
      <trkpt lat="63.4535" lon="10.29693">
        <ele>63.41353</ele>
        <time>2020-08-08T07:26:39.230Z</time>
      </trkpt>
      <trkpt lat="63.45346" lon="10.29673">
        <ele>63.542425</ele>
        <time>2020-08-08T07:26:41.209Z</time>
      </trkpt>
      <trkpt lat="63.45342" lon="10.29652">
        <ele>63.67137</ele>
        <time>2020-08-08T07:26:43.204Z</time>
      </trkpt>
      <trkpt lat="63.45338" lon="10.2963">
        <ele>63.806814</ele>
        <time>2020-08-08T07:26:45.249Z</time>
      </trkpt>
      <trkpt lat="63.45335" lon="10.29608">
        <ele>63.938083</ele>
        <time>2020-08-08T07:26:47.237Z</time>
      </trkpt>
      <trkpt lat="63.45332" lon="10.29586">
        <ele>64.07494</ele>
        <time>2020-08-08T07:26:49.211Z</time>
      </trkpt>
      <trkpt lat="63.45329" lon="10.29564">
        <ele>64.206472</ele>
        <time>2020-08-08T07:26:51.239Z</time>
      </trkpt>
      <trkpt lat="63.45325" lon="10.29543">
        <ele>64.335418</ele>
        <time>2020-08-08T07:26:53.250Z</time>
      </trkpt>
      <trkpt lat="63.45321" lon="10.29523">
        <ele>64.464837</ele>
        <time>2020-08-08T07:26:55.223Z</time>
      </trkpt>
      <trkpt lat="63.45316" lon="10.29503">
        <ele>64.59291</ele>
        <time>2020-08-08T07:26:57.243Z</time>
      </trkpt>
      <trkpt lat="63.45311" lon="10.29484">
        <ele>64.721691</ele>
        <time>2020-08-08T07:26:59.210Z</time>
      </trkpt>
      <trkpt lat="63.45307" lon="10.29463">
        <ele>64.854288</ele>
        <time>2020-08-08T07:27:01.208Z</time>
      </trkpt>
      <trkpt lat="63.45304" lon="10.29438">
        <ele>64.998101</ele>
        <time>2020-08-08T07:27:03.218Z</time>
      </trkpt>
      <trkpt lat="63.45302" lon="10.29413">
        <ele>65.162368</ele>
        <time>2020-08-08T07:27:05.242Z</time>
      </trkpt>
      <trkpt lat="63.45301" lon="10.29388">
        <ele>65.414106</ele>
        <time>2020-08-08T07:27:07.203Z</time>
      </trkpt>
      <trkpt lat="63.45301" lon="10.29365">
        <ele>65.655439</ele>
        <time>2020-08-08T07:27:09.218Z</time>
      </trkpt>
      <trkpt lat="63.45301" lon="10.29341">
        <ele>65.897781</ele>
        <time>2020-08-08T07:27:11.218Z</time>
      </trkpt>
      <trkpt lat="63.45303" lon="10.29319">
        <ele>66.126121</ele>
        <time>2020-08-08T07:27:13.301Z</time>
      </trkpt>
      <trkpt lat="63.45304" lon="10.29297">
        <ele>66.350056</ele>
        <time>2020-08-08T07:27:15.268Z</time>
      </trkpt>
      <trkpt lat="63.45304" lon="10.29274">
        <ele>66.584262</ele>
        <time>2020-08-08T07:27:17.221Z</time>
      </trkpt>
      <trkpt lat="63.45303" lon="10.29251">
        <ele>66.814486</ele>
        <time>2020-08-08T07:27:19.225Z</time>
      </trkpt>
      <trkpt lat="63.45301" lon="10.2923">
        <ele>67.033117</ele>
        <time>2020-08-08T07:27:21.221Z</time>
      </trkpt>
      <trkpt lat="63.45298" lon="10.2921">
        <ele>67.25373</ele>
        <time>2020-08-08T07:27:23.229Z</time>
      </trkpt>
      <trkpt lat="63.45295" lon="10.29189">
        <ele>67.473518</ele>
        <time>2020-08-08T07:27:25.208Z</time>
      </trkpt>
      <trkpt lat="63.45291" lon="10.29168">
        <ele>67.71429</ele>
        <time>2020-08-08T07:27:27.222Z</time>
      </trkpt>
      <trkpt lat="63.45286" lon="10.29147">
        <ele>67.951375</ele>
        <time>2020-08-08T07:27:29.228Z</time>
      </trkpt>
      <trkpt lat="63.45282" lon="10.29127">
        <ele>68.181315</ele>
        <time>2020-08-08T07:27:31.282Z</time>
      </trkpt>
      <trkpt lat="63.45278" lon="10.29107">
        <ele>68.399841</ele>
        <time>2020-08-08T07:27:33.215Z</time>
      </trkpt>
      <trkpt lat="63.45274" lon="10.29086">
        <ele>68.622344</ele>
        <time>2020-08-08T07:27:35.233Z</time>
      </trkpt>
      <trkpt lat="63.4527" lon="10.29065">
        <ele>68.85385</ele>
        <time>2020-08-08T07:27:37.238Z</time>
      </trkpt>
      <trkpt lat="63.45266" lon="10.29044">
        <ele>69.090933</ele>
        <time>2020-08-08T07:27:39.222Z</time>
      </trkpt>
      <trkpt lat="63.45263" lon="10.29022">
        <ele>69.196914</ele>
        <time>2020-08-08T07:27:41.214Z</time>
      </trkpt>
      <trkpt lat="63.4526" lon="10.28998">
        <ele>69.12636</ele>
        <time>2020-08-08T07:27:43.278Z</time>
      </trkpt>
      <trkpt lat="63.45256" lon="10.28975">
        <ele>69.057092</ele>
        <time>2020-08-08T07:27:45.200Z</time>
      </trkpt>
      <trkpt lat="63.45253" lon="10.28952">
        <ele>68.986224</ele>
        <time>2020-08-08T07:27:47.233Z</time>
      </trkpt>
      <trkpt lat="63.45249" lon="10.28927">
        <ele>68.910658</ele>
        <time>2020-08-08T07:27:49.235Z</time>
      </trkpt>
      <trkpt lat="63.45245" lon="10.28903">
        <ele>68.836954</ele>
        <time>2020-08-08T07:27:51.258Z</time>
      </trkpt>
      <trkpt lat="63.45241" lon="10.28879">
        <ele>68.764099</ele>
        <time>2020-08-08T07:27:53.215Z</time>
      </trkpt>
      <trkpt lat="63.45237" lon="10.28856">
        <ele>68.692482</ele>
        <time>2020-08-08T07:27:55.228Z</time>
      </trkpt>
      <trkpt lat="63.45234" lon="10.28832">
        <ele>68.621463</ele>
        <time>2020-08-08T07:27:57.205Z</time>
      </trkpt>
      <trkpt lat="63.4523" lon="10.28807">
        <ele>68.54677</ele>
        <time>2020-08-08T07:27:59.240Z</time>
      </trkpt>
      <trkpt lat="63.45226" lon="10.28783">
        <ele>68.473644</ele>
        <time>2020-08-08T07:28:01.213Z</time>
      </trkpt>
      <trkpt lat="63.45222" lon="10.2876">
        <ele>68.40047</ele>
        <time>2020-08-08T07:28:03.232Z</time>
      </trkpt>
      <trkpt lat="63.45217" lon="10.28735">
        <ele>68.321999</ele>
        <time>2020-08-08T07:28:05.254Z</time>
      </trkpt>
      <trkpt lat="63.45213" lon="10.2871">
        <ele>68.245517</ele>
        <time>2020-08-08T07:28:07.217Z</time>
      </trkpt>
      <trkpt lat="63.45209" lon="10.28685">
        <ele>68.170336</ele>
        <time>2020-08-08T07:28:09.248Z</time>
      </trkpt>
      <trkpt lat="63.45206" lon="10.2866">
        <ele>68.095993</ele>
        <time>2020-08-08T07:28:11.216Z</time>
      </trkpt>
      <trkpt lat="63.45202" lon="10.28636">
        <ele>67.950294</ele>
        <time>2020-08-08T07:28:13.251Z</time>
      </trkpt>
      <trkpt lat="63.45198" lon="10.28612">
        <ele>67.770732</ele>
        <time>2020-08-08T07:28:15.229Z</time>
      </trkpt>
      <trkpt lat="63.45194" lon="10.28589">
        <ele>67.599199</ele>
        <time>2020-08-08T07:28:17.210Z</time>
      </trkpt>
      <trkpt lat="63.4519" lon="10.28566">
        <ele>67.427652</ele>
        <time>2020-08-08T07:28:19.239Z</time>
      </trkpt>
      <trkpt lat="63.45184" lon="10.28544">
        <ele>67.25455</ele>
        <time>2020-08-08T07:28:21.278Z</time>
      </trkpt>
      <trkpt lat="63.45179" lon="10.28523">
        <ele>67.088357</ele>
        <time>2020-08-08T07:28:23.216Z</time>
      </trkpt>
      <trkpt lat="63.45175" lon="10.28504">
        <ele>66.932865</ele>
        <time>2020-08-08T07:28:25.227Z</time>
      </trkpt>
      <trkpt lat="63.45169" lon="10.28484">
        <ele>66.773662</ele>
        <time>2020-08-08T07:28:27.220Z</time>
      </trkpt>
      <trkpt lat="63.45164" lon="10.28465">
        <ele>66.61485</ele>
        <time>2020-08-08T07:28:29.279Z</time>
      </trkpt>
      <trkpt lat="63.45159" lon="10.28444">
        <ele>66.447036</ele>
        <time>2020-08-08T07:28:31.205Z</time>
      </trkpt>
      <trkpt lat="63.45152" lon="10.28425">
        <ele>66.278746</ele>
        <time>2020-08-08T07:28:33.256Z</time>
      </trkpt>
      <trkpt lat="63.45146" lon="10.28405">
        <ele>66.115424</ele>
        <time>2020-08-08T07:28:35.224Z</time>
      </trkpt>
      <trkpt lat="63.45141" lon="10.28384">
        <ele>65.947377</ele>
        <time>2020-08-08T07:28:37.240Z</time>
      </trkpt>
      <trkpt lat="63.45137" lon="10.28358">
        <ele>65.755149</ele>
        <time>2020-08-08T07:28:39.218Z</time>
      </trkpt>
      <trkpt lat="63.45134" lon="10.2833">
        <ele>65.551659</ele>
        <time>2020-08-08T07:28:41.207Z</time>
      </trkpt>
      <trkpt lat="63.45133" lon="10.28299">
        <ele>65.338494</ele>
        <time>2020-08-08T07:28:43.233Z</time>
      </trkpt>
      <trkpt lat="63.45132" lon="10.28268">
        <ele>64.924852</ele>
        <time>2020-08-08T07:28:45.221Z</time>
      </trkpt>
      <trkpt lat="63.45132" lon="10.28238">
        <ele>64.414933</ele>
        <time>2020-08-08T07:28:47.265Z</time>
      </trkpt>
      <trkpt lat="63.45132" lon="10.28206">
        <ele>63.883497</ele>
        <time>2020-08-08T07:28:49.235Z</time>
      </trkpt>
      <trkpt lat="63.45133" lon="10.28173">
        <ele>63.346809</ele>
        <time>2020-08-08T07:28:51.243Z</time>
      </trkpt>
      <trkpt lat="63.45134" lon="10.28142">
        <ele>62.814747</ele>
        <time>2020-08-08T07:28:53.219Z</time>
      </trkpt>
      <trkpt lat="63.45135" lon="10.2811">
        <ele>62.293423</ele>
        <time>2020-08-08T07:28:55.232Z</time>
      </trkpt>
      <trkpt lat="63.45138" lon="10.28078">
        <ele>61.750811</ele>
        <time>2020-08-08T07:28:57.209Z</time>
      </trkpt>
      <trkpt lat="63.4514" lon="10.28045">
        <ele>61.192428</ele>
        <time>2020-08-08T07:28:59.224Z</time>
      </trkpt>
      <trkpt lat="63.45142" lon="10.28012">
        <ele>60.638807</ele>
        <time>2020-08-08T07:29:01.221Z</time>
      </trkpt>
      <trkpt lat="63.45144" lon="10.27979">
        <ele>60.085914</ele>
        <time>2020-08-08T07:29:03.264Z</time>
      </trkpt>
      <trkpt lat="63.45147" lon="10.27945">
        <ele>59.506912</ele>
        <time>2020-08-08T07:29:05.203Z</time>
      </trkpt>
      <trkpt lat="63.4515" lon="10.2791">
        <ele>58.919718</ele>
        <time>2020-08-08T07:29:07.257Z</time>
      </trkpt>
      <trkpt lat="63.45153" lon="10.27874">
        <ele>58.124418</ele>
        <time>2020-08-08T07:29:09.233Z</time>
      </trkpt>
      <trkpt lat="63.45156" lon="10.27838">
        <ele>57.092233</ele>
        <time>2020-08-08T07:29:11.228Z</time>
      </trkpt>
      <trkpt lat="63.45159" lon="10.27803">
        <ele>56.071792</ele>
        <time>2020-08-08T07:29:13.217Z</time>
      </trkpt>
      <trkpt lat="63.4516" lon="10.27767">
        <ele>55.061541</ele>
        <time>2020-08-08T07:29:15.258Z</time>
      </trkpt>
      <trkpt lat="63.45161" lon="10.27731">
        <ele>54.043099</ele>
        <time>2020-08-08T07:29:17.213Z</time>
      </trkpt>
      <trkpt lat="63.4516" lon="10.27695">
        <ele>53.026716</ele>
        <time>2020-08-08T07:29:19.204Z</time>
      </trkpt>
      <trkpt lat="63.45157" lon="10.2766">
        <ele>52.022959</ele>
        <time>2020-08-08T07:29:21.224Z</time>
      </trkpt>
      <trkpt lat="63.45154" lon="10.27626">
        <ele>51.022481</ele>
        <time>2020-08-08T07:29:23.209Z</time>
      </trkpt>
      <trkpt lat="63.4515" lon="10.27591">
        <ele>50.003998</ele>
        <time>2020-08-08T07:29:25.235Z</time>
      </trkpt>
      <trkpt lat="63.45148" lon="10.27554">
        <ele>48.955201</ele>
        <time>2020-08-08T07:29:27.212Z</time>
      </trkpt>
      <trkpt lat="63.45148" lon="10.27517">
        <ele>47.906123</ele>
        <time>2020-08-08T07:29:29.249Z</time>
      </trkpt>
      <trkpt lat="63.45149" lon="10.2748">
        <ele>47.017993</ele>
        <time>2020-08-08T07:29:31.237Z</time>
      </trkpt>
      <trkpt lat="63.45152" lon="10.27444">
        <ele>46.50761</ele>
        <time>2020-08-08T07:29:33.205Z</time>
      </trkpt>
      <trkpt lat="63.45156" lon="10.2741">
        <ele>46.026168</ele>
        <time>2020-08-08T07:29:35.260Z</time>
      </trkpt>
      <trkpt lat="63.4516" lon="10.27379">
        <ele>45.56258</ele>
        <time>2020-08-08T07:29:37.214Z</time>
      </trkpt>
      <trkpt lat="63.45166" lon="10.27349">
        <ele>45.109777</ele>
        <time>2020-08-08T07:29:39.208Z</time>
      </trkpt>
      <trkpt lat="63.45172" lon="10.27321">
        <ele>44.675878</ele>
        <time>2020-08-08T07:29:41.208Z</time>
      </trkpt>
      <trkpt lat="63.45178" lon="10.27294">
        <ele>44.256942</ele>
        <time>2020-08-08T07:29:43.213Z</time>
      </trkpt>
      <trkpt lat="63.45183" lon="10.27268">
        <ele>43.867794</ele>
        <time>2020-08-08T07:29:45.226Z</time>
      </trkpt>
      <trkpt lat="63.45188" lon="10.27243">
        <ele>43.483571</ele>
        <time>2020-08-08T07:29:47.264Z</time>
      </trkpt>
      <trkpt lat="63.45193" lon="10.27217">
        <ele>43.098913</ele>
        <time>2020-08-08T07:29:49.215Z</time>
      </trkpt>
      <trkpt lat="63.45196" lon="10.27193">
        <ele>42.739261</ele>
        <time>2020-08-08T07:29:51.241Z</time>
      </trkpt>
      <trkpt lat="63.452" lon="10.27167">
        <ele>42.364834</ele>
        <time>2020-08-08T07:29:53.246Z</time>
      </trkpt>
      <trkpt lat="63.45203" lon="10.27142">
        <ele>41.996725</ele>
        <time>2020-08-08T07:29:55.223Z</time>
      </trkpt>
      <trkpt lat="63.45206" lon="10.27117">
        <ele>41.636457</ele>
        <time>2020-08-08T07:29:57.226Z</time>
      </trkpt>
      <trkpt lat="63.45208" lon="10.27093">
        <ele>41.651347</ele>
        <time>2020-08-08T07:29:59.212Z</time>
      </trkpt>
      <trkpt lat="63.4521" lon="10.27067">
        <ele>41.750199</ele>
        <time>2020-08-08T07:30:01.216Z</time>
      </trkpt>
      <trkpt lat="63.45213" lon="10.27042">
        <ele>41.850558</ele>
        <time>2020-08-08T07:30:03.249Z</time>
      </trkpt>
      <trkpt lat="63.45217" lon="10.27018">
        <ele>41.952563</ele>
        <time>2020-08-08T07:30:05.230Z</time>
      </trkpt>
      <trkpt lat="63.45222" lon="10.26993">
        <ele>42.056905</ele>
        <time>2020-08-08T07:30:07.282Z</time>
      </trkpt>
      <trkpt lat="63.45228" lon="10.2697">
        <ele>42.157852</ele>
        <time>2020-08-08T07:30:09.231Z</time>
      </trkpt>
      <trkpt lat="63.45234" lon="10.2695">
        <ele>42.253447</ele>
        <time>2020-08-08T07:30:11.253Z</time>
      </trkpt>
      <trkpt lat="63.45241" lon="10.26931">
        <ele>42.348642</ele>
        <time>2020-08-08T07:30:13.240Z</time>
      </trkpt>
      <trkpt lat="63.45248" lon="10.26913">
        <ele>42.442237</ele>
        <time>2020-08-08T07:30:15.206Z</time>
      </trkpt>
      <trkpt lat="63.45255" lon="10.26895">
        <ele>42.53523</ele>
        <time>2020-08-08T07:30:17.221Z</time>
      </trkpt>
      <trkpt lat="63.45262" lon="10.26877">
        <ele>42.626791</ele>
        <time>2020-08-08T07:30:19.218Z</time>
      </trkpt>
      <trkpt lat="63.45268" lon="10.26858">
        <ele>42.716779</ele>
        <time>2020-08-08T07:30:21.240Z</time>
      </trkpt>
      <trkpt lat="63.45274" lon="10.26839">
        <ele>42.806707</ele>
        <time>2020-08-08T07:30:23.204Z</time>
      </trkpt>
      <trkpt lat="63.45278" lon="10.26818">
        <ele>42.896756</ele>
        <time>2020-08-08T07:30:25.200Z</time>
      </trkpt>
      <trkpt lat="63.45283" lon="10.26796">
        <ele>42.990583</ele>
        <time>2020-08-08T07:30:27.222Z</time>
      </trkpt>
      <trkpt lat="63.45288" lon="10.26773">
        <ele>43.089659</ele>
        <time>2020-08-08T07:30:29.222Z</time>
      </trkpt>
      <trkpt lat="63.45291" lon="10.26749">
        <ele>43.361162</ele>
        <time>2020-08-08T07:30:31.260Z</time>
      </trkpt>
      <trkpt lat="63.45295" lon="10.26726">
        <ele>43.75944</ele>
        <time>2020-08-08T07:30:33.204Z</time>
      </trkpt>
      <trkpt lat="63.45298" lon="10.26703">
        <ele>44.164072</ele>
        <time>2020-08-08T07:30:35.237Z</time>
      </trkpt>
      <trkpt lat="63.453" lon="10.26678">
        <ele>44.570333</ele>
        <time>2020-08-08T07:30:37.235Z</time>
      </trkpt>
      <trkpt lat="63.45302" lon="10.26654">
        <ele>44.972723</ele>
        <time>2020-08-08T07:30:39.222Z</time>
      </trkpt>
      <trkpt lat="63.45304" lon="10.2663">
        <ele>45.375762</ele>
        <time>2020-08-08T07:30:41.217Z</time>
      </trkpt>
      <trkpt lat="63.45306" lon="10.26606">
        <ele>45.765926</ele>
        <time>2020-08-08T07:30:43.224Z</time>
      </trkpt>
      <trkpt lat="63.45308" lon="10.26583">
        <ele>46.148203</ele>
        <time>2020-08-08T07:30:45.219Z</time>
      </trkpt>
      <trkpt lat="63.45309" lon="10.2656">
        <ele>46.536793</ele>
        <time>2020-08-08T07:30:47.208Z</time>
      </trkpt>
      <trkpt lat="63.45309" lon="10.26536">
        <ele>46.921928</ele>
        <time>2020-08-08T07:30:49.202Z</time>
      </trkpt>
      <trkpt lat="63.4531" lon="10.26513">
        <ele>47.308855</ele>
        <time>2020-08-08T07:30:51.264Z</time>
      </trkpt>
      <trkpt lat="63.45309" lon="10.26489">
        <ele>47.692091</ele>
        <time>2020-08-08T07:30:53.213Z</time>
      </trkpt>
      <trkpt lat="63.45309" lon="10.26466">
        <ele>48.065932</ele>
        <time>2020-08-08T07:30:55.237Z</time>
      </trkpt>
      <trkpt lat="63.45308" lon="10.26443">
        <ele>48.446008</ele>
        <time>2020-08-08T07:30:57.218Z</time>
      </trkpt>
      <trkpt lat="63.45306" lon="10.26421">
        <ele>48.817505</ele>
        <time>2020-08-08T07:30:59.237Z</time>
      </trkpt>
      <trkpt lat="63.45305" lon="10.26399">
        <ele>49.184179</ele>
        <time>2020-08-08T07:31:01.225Z</time>
      </trkpt>
      <trkpt lat="63.45303" lon="10.26375">
        <ele>49.573475</ele>
        <time>2020-08-08T07:31:03.225Z</time>
      </trkpt>
      <trkpt lat="63.45301" lon="10.26352">
        <ele>49.647834</ele>
        <time>2020-08-08T07:31:05.239Z</time>
      </trkpt>
      <trkpt lat="63.45298" lon="10.26328">
        <ele>49.522586</ele>
        <time>2020-08-08T07:31:07.243Z</time>
      </trkpt>
      <trkpt lat="63.45295" lon="10.26304">
        <ele>49.391244</ele>
        <time>2020-08-08T07:31:09.208Z</time>
      </trkpt>
      <trkpt lat="63.45294" lon="10.26278">
        <ele>49.2547</ele>
        <time>2020-08-08T07:31:11.218Z</time>
      </trkpt>
      <trkpt lat="63.45292" lon="10.26252">
        <ele>49.118527</ele>
        <time>2020-08-08T07:31:13.245Z</time>
      </trkpt>
      <trkpt lat="63.45292" lon="10.26225">
        <ele>48.979941</ele>
        <time>2020-08-08T07:31:15.257Z</time>
      </trkpt>
      <trkpt lat="63.45293" lon="10.26199">
        <ele>48.845784</ele>
        <time>2020-08-08T07:31:17.225Z</time>
      </trkpt>
      <trkpt lat="63.45294" lon="10.26175">
        <ele>48.72135</ele>
        <time>2020-08-08T07:31:19.205Z</time>
      </trkpt>
      <trkpt lat="63.45295" lon="10.26151">
        <ele>48.59734</ele>
        <time>2020-08-08T07:31:21.243Z</time>
      </trkpt>
      <trkpt lat="63.45295" lon="10.26127">
        <ele>48.470844</ele>
        <time>2020-08-08T07:31:23.244Z</time>
      </trkpt>
      <trkpt lat="63.45296" lon="10.26103">
        <ele>48.347007</ele>
        <time>2020-08-08T07:31:25.220Z</time>
      </trkpt>
      <trkpt lat="63.45297" lon="10.26079">
        <ele>48.221543</ele>
        <time>2020-08-08T07:31:27.241Z</time>
      </trkpt>
      <trkpt lat="63.45297" lon="10.26054">
        <ele>48.094737</ele>
        <time>2020-08-08T07:31:29.238Z</time>
      </trkpt>
      <trkpt lat="63.45298" lon="10.26029">
        <ele>47.965974</ele>
        <time>2020-08-08T07:31:31.220Z</time>
      </trkpt>
      <trkpt lat="63.45298" lon="10.26004">
        <ele>47.836668</ele>
        <time>2020-08-08T07:31:33.218Z</time>
      </trkpt>
      <trkpt lat="63.45298" lon="10.25981">
        <ele>47.715115</ele>
        <time>2020-08-08T07:31:35.236Z</time>
      </trkpt>
      <trkpt lat="63.45299" lon="10.25957">
        <ele>47.497847</ele>
        <time>2020-08-08T07:31:37.234Z</time>
      </trkpt>
      <trkpt lat="63.453" lon="10.25932">
        <ele>47.134053</ele>
        <time>2020-08-08T07:31:39.202Z</time>
      </trkpt>
      <trkpt lat="63.45301" lon="10.25908">
        <ele>46.784154</ele>
        <time>2020-08-08T07:31:41.242Z</time>
      </trkpt>
      <trkpt lat="63.45302" lon="10.25885">
        <ele>46.44011</ele>
        <time>2020-08-08T07:31:43.229Z</time>
      </trkpt>
      <trkpt lat="63.45302" lon="10.25862">
        <ele>46.099705</ele>
        <time>2020-08-08T07:31:45.218Z</time>
      </trkpt>
      <trkpt lat="63.45302" lon="10.25838">
        <ele>45.748848</ele>
        <time>2020-08-08T07:31:47.219Z</time>
      </trkpt>
      <trkpt lat="63.45301" lon="10.25814">
        <ele>45.397255</ele>
        <time>2020-08-08T07:31:49.219Z</time>
      </trkpt>
      <trkpt lat="63.453" lon="10.25789">
        <ele>45.033425</ele>
        <time>2020-08-08T07:31:51.232Z</time>
      </trkpt>
      <trkpt lat="63.45298" lon="10.25764">
        <ele>44.665265</ele>
        <time>2020-08-08T07:31:53.216Z</time>
      </trkpt>
      <trkpt lat="63.45297" lon="10.25739">
        <ele>44.292737</ele>
        <time>2020-08-08T07:31:55.239Z</time>
      </trkpt>
      <trkpt lat="63.45296" lon="10.25715">
        <ele>43.935893</ele>
        <time>2020-08-08T07:31:57.244Z</time>
      </trkpt>
      <trkpt lat="63.45294" lon="10.2569">
        <ele>43.562499</ele>
        <time>2020-08-08T07:31:59.243Z</time>
      </trkpt>
      <trkpt lat="63.45293" lon="10.25665">
        <ele>43.200933</ele>
        <time>2020-08-08T07:32:01.237Z</time>
      </trkpt>
      <trkpt lat="63.45292" lon="10.25641">
        <ele>42.838251</ele>
        <time>2020-08-08T07:32:03.260Z</time>
      </trkpt>
      <trkpt lat="63.45291" lon="10.25615">
        <ele>42.46064</ele>
        <time>2020-08-08T07:32:05.235Z</time>
      </trkpt>
      <trkpt lat="63.4529" lon="10.2559">
        <ele>42.094698</ele>
        <time>2020-08-08T07:32:07.208Z</time>
      </trkpt>
      <trkpt lat="63.45288" lon="10.25566">
        <ele>41.741623</ele>
        <time>2020-08-08T07:32:09.216Z</time>
      </trkpt>
      <trkpt lat="63.45287" lon="10.25541">
        <ele>41.868897</ele>
        <time>2020-08-08T07:32:11.209Z</time>
      </trkpt>
      <trkpt lat="63.45285" lon="10.25515">
        <ele>41.995218</ele>
        <time>2020-08-08T07:32:13.232Z</time>
      </trkpt>
      <trkpt lat="63.45284" lon="10.25491">
        <ele>42.120847</ele>
        <time>2020-08-08T07:32:15.223Z</time>
      </trkpt>
      <trkpt lat="63.45282" lon="10.25466">
        <ele>42.243932</ele>
        <time>2020-08-08T07:32:17.260Z</time>
      </trkpt>
      <trkpt lat="63.45281" lon="10.25442">
        <ele>42.362824</ele>
        <time>2020-08-08T07:32:19.243Z</time>
      </trkpt>
      <trkpt lat="63.45279" lon="10.25419">
        <ele>42.483189</ele>
        <time>2020-08-08T07:32:21.215Z</time>
      </trkpt>
      <trkpt lat="63.45278" lon="10.25395">
        <ele>42.602233</ele>
        <time>2020-08-08T07:32:23.225Z</time>
      </trkpt>
      <trkpt lat="63.45277" lon="10.25371">
        <ele>42.721724</ele>
        <time>2020-08-08T07:32:25.228Z</time>
      </trkpt>
      <trkpt lat="63.45276" lon="10.25348">
        <ele>42.83687</ele>
        <time>2020-08-08T07:32:27.203Z</time>
      </trkpt>
      <trkpt lat="63.45274" lon="10.25325">
        <ele>42.956116</ele>
        <time>2020-08-08T07:32:29.222Z</time>
      </trkpt>
      <trkpt lat="63.45273" lon="10.25301">
        <ele>43.07511</ele>
        <time>2020-08-08T07:32:31.216Z</time>
      </trkpt>
      <trkpt lat="63.45272" lon="10.25278">
        <ele>43.189212</ele>
        <time>2020-08-08T07:32:33.206Z</time>
      </trkpt>
      <trkpt lat="63.4527" lon="10.25256">
        <ele>43.304056</ele>
        <time>2020-08-08T07:32:35.273Z</time>
      </trkpt>
      <trkpt lat="63.45267" lon="10.25234">
        <ele>43.416062</ele>
        <time>2020-08-08T07:32:37.261Z</time>
      </trkpt>
      <trkpt lat="63.45263" lon="10.25213">
        <ele>43.531015</ele>
        <time>2020-08-08T07:32:39.246Z</time>
      </trkpt>
      <trkpt lat="63.45258" lon="10.25192">
        <ele>43.650055</ele>
        <time>2020-08-08T07:32:41.229Z</time>
      </trkpt>
      <trkpt lat="63.45254" lon="10.2517">
        <ele>43.768633</ele>
        <time>2020-08-08T07:32:43.214Z</time>
      </trkpt>
      <trkpt lat="63.45248" lon="10.25149">
        <ele>43.893679</ele>
        <time>2020-08-08T07:32:45.228Z</time>
      </trkpt>
      <trkpt lat="63.45243" lon="10.25127">
        <ele>44.02457</ele>
        <time>2020-08-08T07:32:47.243Z</time>
      </trkpt>
      <trkpt lat="63.45239" lon="10.25103">
        <ele>44.161564</ele>
        <time>2020-08-08T07:32:49.216Z</time>
      </trkpt>
      <trkpt lat="63.45236" lon="10.25079">
        <ele>44.29099</ele>
        <time>2020-08-08T07:32:51.244Z</time>
      </trkpt>
      <trkpt lat="63.45233" lon="10.25056">
        <ele>44.415988</ele>
        <time>2020-08-08T07:32:53.207Z</time>
      </trkpt>
      <trkpt lat="63.45232" lon="10.25033">
        <ele>44.539049</ele>
        <time>2020-08-08T07:32:55.204Z</time>
      </trkpt>
      <trkpt lat="63.4523" lon="10.25008">
        <ele>44.66936</ele>
        <time>2020-08-08T07:32:57.218Z</time>
      </trkpt>
      <trkpt lat="63.4523" lon="10.24983">
        <ele>44.801749</ele>
        <time>2020-08-08T07:32:59.225Z</time>
      </trkpt>
      <trkpt lat="63.45231" lon="10.24959">
        <ele>44.928175</ele>
        <time>2020-08-08T07:33:01.214Z</time>
      </trkpt>
      <trkpt lat="63.45233" lon="10.24935">
        <ele>45.052432</ele>
        <time>2020-08-08T07:33:03.237Z</time>
      </trkpt>
      <trkpt lat="63.45236" lon="10.24913">
        <ele>45.174175</ele>
        <time>2020-08-08T07:33:05.203Z</time>
      </trkpt>
      <trkpt lat="63.45239" lon="10.24893">
        <ele>45.286525</ele>
        <time>2020-08-08T07:33:07.222Z</time>
      </trkpt>
      <trkpt lat="63.45244" lon="10.24874">
        <ele>45.396173</ele>
        <time>2020-08-08T07:33:09.210Z</time>
      </trkpt>
      <trkpt lat="63.45249" lon="10.24856">
        <ele>45.513198</ele>
        <time>2020-08-08T07:33:11.254Z</time>
      </trkpt>
      <trkpt lat="63.45255" lon="10.24838">
        <ele>45.627791</ele>
        <time>2020-08-08T07:33:13.248Z</time>
      </trkpt>
      <trkpt lat="63.45261" lon="10.24821">
        <ele>45.741686</ele>
        <time>2020-08-08T07:33:15.206Z</time>
      </trkpt>
      <trkpt lat="63.45268" lon="10.24805">
        <ele>45.864535</ele>
        <time>2020-08-08T07:33:17.224Z</time>
      </trkpt>
      <trkpt lat="63.45276" lon="10.24782">
        <ele>46.268313</ele>
        <time>2020-08-08T07:33:20.252Z</time>
      </trkpt>
      <trkpt lat="63.45283" lon="10.24756">
        <ele>46.680116</ele>
        <time>2020-08-08T07:33:23.226Z</time>
      </trkpt>
      <trkpt lat="63.45288" lon="10.24731">
        <ele>47.071051</ele>
        <time>2020-08-08T07:33:26.259Z</time>
      </trkpt>
      <trkpt lat="63.45292" lon="10.24703">
        <ele>47.471368</ele>
        <time>2020-08-08T07:33:29.244Z</time>
      </trkpt>
      <trkpt lat="63.45295" lon="10.24675">
        <ele>47.883275</ele>
        <time>2020-08-08T07:33:32.221Z</time>
      </trkpt>
      <trkpt lat="63.45296" lon="10.24654">
        <ele>48.169326</ele>
        <time>2020-08-08T07:33:34.251Z</time>
      </trkpt>
      <trkpt lat="63.45297" lon="10.24633">
        <ele>48.46132</ele>
        <time>2020-08-08T07:33:36.216Z</time>
      </trkpt>
      <trkpt lat="63.45297" lon="10.24612">
        <ele>48.755046</ele>
        <time>2020-08-08T07:33:38.207Z</time>
      </trkpt>
      <trkpt lat="63.45296" lon="10.2459">
        <ele>49.057847</ele>
        <time>2020-08-08T07:33:40.220Z</time>
      </trkpt>
      <trkpt lat="63.45296" lon="10.24569">
        <ele>49.347362</ele>
        <time>2020-08-08T07:33:42.206Z</time>
      </trkpt>
      <trkpt lat="63.45294" lon="10.24549">
        <ele>49.628053</ele>
        <time>2020-08-08T07:33:44.258Z</time>
      </trkpt>
      <trkpt lat="63.4529" lon="10.24521">
        <ele>50.036924</ele>
        <time>2020-08-08T07:33:47.231Z</time>
      </trkpt>
      <trkpt lat="63.45283" lon="10.24496">
        <ele>50.447573</ele>
        <time>2020-08-08T07:33:50.284Z</time>
      </trkpt>
      <trkpt lat="63.45278" lon="10.24479">
        <ele>50.732468</ele>
        <time>2020-08-08T07:33:52.239Z</time>
      </trkpt>
      <trkpt lat="63.45272" lon="10.24463">
        <ele>51.026097</ele>
        <time>2020-08-08T07:33:54.245Z</time>
      </trkpt>
      <trkpt lat="63.45266" lon="10.24447">
        <ele>51.310187</ele>
        <time>2020-08-08T07:33:56.233Z</time>
      </trkpt>
      <trkpt lat="63.45256" lon="10.24428">
        <ele>51.552015</ele>
        <time>2020-08-08T07:33:59.234Z</time>
      </trkpt>
      <trkpt lat="63.45248" lon="10.24416">
        <ele>51.67747</ele>
        <time>2020-08-08T07:34:01.226Z</time>
      </trkpt>
      <trkpt lat="63.45237" lon="10.24401">
        <ele>51.847776</ele>
        <time>2020-08-08T07:34:04.207Z</time>
      </trkpt>
      <trkpt lat="63.45229" lon="10.24392">
        <ele>51.966771</ele>
        <time>2020-08-08T07:34:06.209Z</time>
      </trkpt>
      <trkpt lat="63.45221" lon="10.24381">
        <ele>52.087459</ele>
        <time>2020-08-08T07:34:08.239Z</time>
      </trkpt>
      <trkpt lat="63.45213" lon="10.2437">
        <ele>52.209335</ele>
        <time>2020-08-08T07:34:10.225Z</time>
      </trkpt>
      <trkpt lat="63.45206" lon="10.24357">
        <ele>52.328355</ele>
        <time>2020-08-08T07:34:12.212Z</time>
      </trkpt>
      <trkpt lat="63.45198" lon="10.24345">
        <ele>52.450533</ele>
        <time>2020-08-08T07:34:14.218Z</time>
      </trkpt>
      <trkpt lat="63.45191" lon="10.2433">
        <ele>52.576668</ele>
        <time>2020-08-08T07:34:16.227Z</time>
      </trkpt>
      <trkpt lat="63.45186" lon="10.24313">
        <ele>52.699937</ele>
        <time>2020-08-08T07:34:18.220Z</time>
      </trkpt>
      <trkpt lat="63.45181" lon="10.24295">
        <ele>52.823229</ele>
        <time>2020-08-08T07:34:20.244Z</time>
      </trkpt>
      <trkpt lat="63.45177" lon="10.24275">
        <ele>52.95308</ele>
        <time>2020-08-08T07:34:22.222Z</time>
      </trkpt>
      <trkpt lat="63.45173" lon="10.24254">
        <ele>53.085706</ele>
        <time>2020-08-08T07:34:24.227Z</time>
      </trkpt>
      <trkpt lat="63.4517" lon="10.24233">
        <ele>53.21629</ele>
        <time>2020-08-08T07:34:26.231Z</time>
      </trkpt>
      <trkpt lat="63.45168" lon="10.24212">
        <ele>53.344952</ele>
        <time>2020-08-08T07:34:28.226Z</time>
      </trkpt>
      <trkpt lat="63.45166" lon="10.2419">
        <ele>53.471575</ele>
        <time>2020-08-08T07:34:30.271Z</time>
      </trkpt>
      <trkpt lat="63.45166" lon="10.2417">
        <ele>53.590849</ele>
        <time>2020-08-08T07:34:32.237Z</time>
      </trkpt>
      <trkpt lat="63.45167" lon="10.2415">
        <ele>53.708889</ele>
        <time>2020-08-08T07:34:34.239Z</time>
      </trkpt>
      <trkpt lat="63.45168" lon="10.2413">
        <ele>53.787344</ele>
        <time>2020-08-08T07:34:36.235Z</time>
      </trkpt>
      <trkpt lat="63.4517" lon="10.2411">
        <ele>53.774452</ele>
        <time>2020-08-08T07:34:38.210Z</time>
      </trkpt>
      <trkpt lat="63.45172" lon="10.2409">
        <ele>53.761208</ele>
        <time>2020-08-08T07:34:40.224Z</time>
      </trkpt>
      <trkpt lat="63.45173" lon="10.24069">
        <ele>53.747677</ele>
        <time>2020-08-08T07:34:42.225Z</time>
      </trkpt>
      <trkpt lat="63.45175" lon="10.24049">
        <ele>53.734469</ele>
        <time>2020-08-08T07:34:44.256Z</time>
      </trkpt>
      <trkpt lat="63.45177" lon="10.24028">
        <ele>53.720969</ele>
        <time>2020-08-08T07:34:46.252Z</time>
      </trkpt>
      <trkpt lat="63.4518" lon="10.24">
        <ele>53.702092</ele>
        <time>2020-08-08T07:34:49.262Z</time>
      </trkpt>
      <trkpt lat="63.45183" lon="10.2398">
        <ele>53.689124</ele>
        <time>2020-08-08T07:34:51.270Z</time>
      </trkpt>
      <trkpt lat="63.45187" lon="10.23952">
        <ele>53.670345</ele>
        <time>2020-08-08T07:34:54.233Z</time>
      </trkpt>
      <trkpt lat="63.45193" lon="10.23925">
        <ele>53.651181</ele>
        <time>2020-08-08T07:34:57.234Z</time>
      </trkpt>
      <trkpt lat="63.45198" lon="10.23899">
        <ele>53.632769</ele>
        <time>2020-08-08T07:35:00.205Z</time>
      </trkpt>
      <trkpt lat="63.45203" lon="10.23881">
        <ele>53.619389</ele>
        <time>2020-08-08T07:35:02.250Z</time>
      </trkpt>
      <trkpt lat="63.4521" lon="10.23856">
        <ele>53.600606</ele>
        <time>2020-08-08T07:35:05.257Z</time>
      </trkpt>
      <trkpt lat="63.45215" lon="10.23839">
        <ele>53.587397</ele>
        <time>2020-08-08T07:35:07.245Z</time>
      </trkpt>
      <trkpt lat="63.4522" lon="10.23822">
        <ele>53.574401</ele>
        <time>2020-08-08T07:35:09.234Z</time>
      </trkpt>
      <trkpt lat="63.45225" lon="10.23804">
        <ele>53.560708</ele>
        <time>2020-08-08T07:35:11.212Z</time>
      </trkpt>
      <trkpt lat="63.45231" lon="10.23784">
        <ele>53.54548</ele>
        <time>2020-08-08T07:35:13.220Z</time>
      </trkpt>
      <trkpt lat="63.45236" lon="10.23764">
        <ele>53.508616</ele>
        <time>2020-08-08T07:35:15.215Z</time>
      </trkpt>
      <trkpt lat="63.45242" lon="10.23746">
        <ele>53.399625</ele>
        <time>2020-08-08T07:35:17.250Z</time>
      </trkpt>
      <trkpt lat="63.45247" lon="10.23719">
        <ele>53.249622</ele>
        <time>2020-08-08T07:35:20.231Z</time>
      </trkpt>
      <trkpt lat="63.45249" lon="10.23699">
        <ele>53.145389</ele>
        <time>2020-08-08T07:35:22.244Z</time>
      </trkpt>
      <trkpt lat="63.4525" lon="10.23678">
        <ele>53.040752</ele>
        <time>2020-08-08T07:35:24.208Z</time>
      </trkpt>
      <trkpt lat="63.45251" lon="10.23657">
        <ele>52.932618</ele>
        <time>2020-08-08T07:35:26.219Z</time>
      </trkpt>
      <trkpt lat="63.45252" lon="10.23627">
        <ele>52.785</ele>
        <time>2020-08-08T07:35:29.240Z</time>
      </trkpt>
      <trkpt lat="63.45249" lon="10.23598">
        <ele>52.634358</ele>
        <time>2020-08-08T07:35:32.219Z</time>
      </trkpt>
      <trkpt lat="63.45247" lon="10.23578">
        <ele>52.532113</ele>
        <time>2020-08-08T07:35:34.240Z</time>
      </trkpt>
      <trkpt lat="63.45245" lon="10.23548">
        <ele>52.377003</ele>
        <time>2020-08-08T07:35:37.218Z</time>
      </trkpt>
      <trkpt lat="63.45245" lon="10.23526">
        <ele>52.267997</ele>
        <time>2020-08-08T07:35:39.234Z</time>
      </trkpt>
      <trkpt lat="63.45244" lon="10.23505">
        <ele>52.162007</ele>
        <time>2020-08-08T07:35:41.242Z</time>
      </trkpt>
      <trkpt lat="63.45244" lon="10.23484">
        <ele>52.057738</ele>
        <time>2020-08-08T07:35:43.259Z</time>
      </trkpt>
      <trkpt lat="63.45244" lon="10.23455">
        <ele>51.911651</ele>
        <time>2020-08-08T07:35:46.255Z</time>
      </trkpt>
      <trkpt lat="63.45244" lon="10.23426">
        <ele>51.763529</ele>
        <time>2020-08-08T07:35:49.239Z</time>
      </trkpt>
      <trkpt lat="63.45245" lon="10.23397">
        <ele>51.61661</ele>
        <time>2020-08-08T07:35:52.236Z</time>
      </trkpt>
      <trkpt lat="63.45249" lon="10.23368">
        <ele>51.569602</ele>
        <time>2020-08-08T07:35:55.227Z</time>
      </trkpt>
      <trkpt lat="63.45253" lon="10.23341">
        <ele>51.80974</ele>
        <time>2020-08-08T07:35:58.217Z</time>
      </trkpt>
      <trkpt lat="63.45259" lon="10.23315">
        <ele>52.048822</ele>
        <time>2020-08-08T07:36:01.253Z</time>
      </trkpt>
      <trkpt lat="63.45264" lon="10.23291">
        <ele>52.269102</ele>
        <time>2020-08-08T07:36:04.242Z</time>
      </trkpt>
      <trkpt lat="63.45269" lon="10.23268">
        <ele>52.481534</ele>
        <time>2020-08-08T07:36:07.233Z</time>
      </trkpt>
      <trkpt lat="63.45276" lon="10.23248">
        <ele>52.6885</ele>
        <time>2020-08-08T07:36:10.246Z</time>
      </trkpt>
      <trkpt lat="63.45282" lon="10.23229">
        <ele>52.882898</ele>
        <time>2020-08-08T07:36:13.220Z</time>
      </trkpt>
      <trkpt lat="63.45289" lon="10.23213">
        <ele>53.067059</ele>
        <time>2020-08-08T07:36:16.215Z</time>
      </trkpt>
      <trkpt lat="63.45295" lon="10.23198">
        <ele>53.235204</ele>
        <time>2020-08-08T07:36:19.218Z</time>
      </trkpt>
      <trkpt lat="63.45301" lon="10.23181">
        <ele>53.413818</ele>
        <time>2020-08-08T07:36:22.216Z</time>
      </trkpt>
      <trkpt lat="63.45307" lon="10.23166">
        <ele>53.579635</ele>
        <time>2020-08-08T07:36:25.241Z</time>
      </trkpt>
      <trkpt lat="63.45314" lon="10.23146">
        <ele>53.792158</ele>
        <time>2020-08-08T07:36:29.234Z</time>
      </trkpt>
      <trkpt lat="63.45321" lon="10.23132">
        <ele>53.966353</ele>
        <time>2020-08-08T07:36:32.219Z</time>
      </trkpt>
      <trkpt lat="63.45328" lon="10.23115">
        <ele>54.155435</ele>
        <time>2020-08-08T07:36:35.242Z</time>
      </trkpt>
      <trkpt lat="63.45335" lon="10.23095">
        <ele>54.361473</ele>
        <time>2020-08-08T07:36:38.248Z</time>
      </trkpt>
      <trkpt lat="63.4534" lon="10.23074">
        <ele>54.557837</ele>
        <time>2020-08-08T07:36:41.237Z</time>
      </trkpt>
      <trkpt lat="63.45345" lon="10.23051">
        <ele>54.773587</ele>
        <time>2020-08-08T07:36:44.248Z</time>
      </trkpt>
      <trkpt lat="63.45349" lon="10.23025">
        <ele>55.193445</ele>
        <time>2020-08-08T07:36:47.241Z</time>
      </trkpt>
      <trkpt lat="63.4535" lon="10.22998">
        <ele>55.666929</ele>
        <time>2020-08-08T07:36:50.221Z</time>
      </trkpt>
      <trkpt lat="63.4535" lon="10.22972">
        <ele>56.145555</ele>
        <time>2020-08-08T07:36:53.235Z</time>
      </trkpt>
      <trkpt lat="63.45349" lon="10.22946">
        <ele>56.613699</ele>
        <time>2020-08-08T07:36:56.212Z</time>
      </trkpt>
      <trkpt lat="63.45347" lon="10.22921">
        <ele>57.058134</ele>
        <time>2020-08-08T07:36:59.237Z</time>
      </trkpt>
      <trkpt lat="63.45343" lon="10.22895">
        <ele>57.553705</ele>
        <time>2020-08-08T07:37:02.222Z</time>
      </trkpt>
      <trkpt lat="63.45337" lon="10.22871">
        <ele>58.045387</ele>
        <time>2020-08-08T07:37:05.220Z</time>
      </trkpt>
      <trkpt lat="63.4533" lon="10.22848">
        <ele>58.549602</ele>
        <time>2020-08-08T07:37:08.225Z</time>
      </trkpt>
      <trkpt lat="63.45322" lon="10.22829">
        <ele>59.031013</ele>
        <time>2020-08-08T07:37:11.243Z</time>
      </trkpt>
      <trkpt lat="63.45311" lon="10.22812">
        <ele>59.559607</ele>
        <time>2020-08-08T07:37:14.225Z</time>
      </trkpt>
      <trkpt lat="63.45303" lon="10.228">
        <ele>59.922001</ele>
        <time>2020-08-08T07:37:16.230Z</time>
      </trkpt>
      <trkpt lat="63.45292" lon="10.22786">
        <ele>60.446247</ele>
        <time>2020-08-08T07:37:19.222Z</time>
      </trkpt>
      <trkpt lat="63.4528" lon="10.22776">
        <ele>60.96799</ele>
        <time>2020-08-08T07:37:22.233Z</time>
      </trkpt>
      <trkpt lat="63.45267" lon="10.22767">
        <ele>61.486479</ele>
        <time>2020-08-08T07:37:25.212Z</time>
      </trkpt>
      <trkpt lat="63.45255" lon="10.22757">
        <ele>62.016991</ele>
        <time>2020-08-08T07:37:28.215Z</time>
      </trkpt>
      <trkpt lat="63.45247" lon="10.22749">
        <ele>62.290938</ele>
        <time>2020-08-08T07:37:30.241Z</time>
      </trkpt>
      <trkpt lat="63.45235" lon="10.22736">
        <ele>62.680077</ele>
        <time>2020-08-08T07:37:33.258Z</time>
      </trkpt>
      <trkpt lat="63.45224" lon="10.2272">
        <ele>63.069966</ele>
        <time>2020-08-08T07:37:36.255Z</time>
      </trkpt>
      <trkpt lat="63.45217" lon="10.22708">
        <ele>63.338234</ele>
        <time>2020-08-08T07:37:38.218Z</time>
      </trkpt>
      <trkpt lat="63.4521" lon="10.22695">
        <ele>63.603415</ele>
        <time>2020-08-08T07:37:40.236Z</time>
      </trkpt>
      <trkpt lat="63.45201" lon="10.22673">
        <ele>63.998236</ele>
        <time>2020-08-08T07:37:43.232Z</time>
      </trkpt>
      <trkpt lat="63.45192" lon="10.2265">
        <ele>64.391115</ele>
        <time>2020-08-08T07:37:46.235Z</time>
      </trkpt>
      <trkpt lat="63.45187" lon="10.22634">
        <ele>64.658534</ele>
        <time>2020-08-08T07:37:48.228Z</time>
      </trkpt>
      <trkpt lat="63.4518" lon="10.22609">
        <ele>65.044687</ele>
        <time>2020-08-08T07:37:51.255Z</time>
      </trkpt>
      <trkpt lat="63.45175" lon="10.22581">
        <ele>65.44341</ele>
        <time>2020-08-08T07:37:54.220Z</time>
      </trkpt>
      <trkpt lat="63.45171" lon="10.22562">
        <ele>65.719021</ele>
        <time>2020-08-08T07:37:56.256Z</time>
      </trkpt>
      <trkpt lat="63.45168" lon="10.22543">
        <ele>65.986162</ele>
        <time>2020-08-08T07:37:58.233Z</time>
      </trkpt>
      <trkpt lat="63.45163" lon="10.22517">
        <ele>66.359469</ele>
        <time>2020-08-08T07:38:01.225Z</time>
      </trkpt>
      <trkpt lat="63.45159" lon="10.22491">
        <ele>66.724468</ele>
        <time>2020-08-08T07:38:04.237Z</time>
      </trkpt>
      <trkpt lat="63.45152" lon="10.22466">
        <ele>67.105707</ele>
        <time>2020-08-08T07:38:07.210Z</time>
      </trkpt>
      <trkpt lat="63.45145" lon="10.22442">
        <ele>67.382413</ele>
        <time>2020-08-08T07:38:10.245Z</time>
      </trkpt>
      <trkpt lat="63.45137" lon="10.22418">
        <ele>67.420485</ele>
        <time>2020-08-08T07:38:13.244Z</time>
      </trkpt>
      <trkpt lat="63.45131" lon="10.22402">
        <ele>67.446606</ele>
        <time>2020-08-08T07:38:15.238Z</time>
      </trkpt>
      <trkpt lat="63.45125" lon="10.22385">
        <ele>67.472927</ele>
        <time>2020-08-08T07:38:17.246Z</time>
      </trkpt>
      <trkpt lat="63.4512" lon="10.22369">
        <ele>67.498773</ele>
        <time>2020-08-08T07:38:19.199Z</time>
      </trkpt>
      <trkpt lat="63.45115" lon="10.22352">
        <ele>67.524924</ele>
        <time>2020-08-08T07:38:21.242Z</time>
      </trkpt>
      <trkpt lat="63.45109" lon="10.22326">
        <ele>67.561727</ele>
        <time>2020-08-08T07:38:24.220Z</time>
      </trkpt>
      <trkpt lat="63.45105" lon="10.22298">
        <ele>67.59828</ele>
        <time>2020-08-08T07:38:27.227Z</time>
      </trkpt>
      <trkpt lat="63.45102" lon="10.22271">
        <ele>67.63416</ele>
        <time>2020-08-08T07:38:30.219Z</time>
      </trkpt>
      <trkpt lat="63.45101" lon="10.22243">
        <ele>67.670086</ele>
        <time>2020-08-08T07:38:33.265Z</time>
      </trkpt>
      <trkpt lat="63.45101" lon="10.22215">
        <ele>67.704566</ele>
        <time>2020-08-08T07:38:36.220Z</time>
      </trkpt>
      <trkpt lat="63.45101" lon="10.22189">
        <ele>67.738531</ele>
        <time>2020-08-08T07:38:39.200Z</time>
      </trkpt>
      <trkpt lat="63.45101" lon="10.22161">
        <ele>67.773793</ele>
        <time>2020-08-08T07:38:42.221Z</time>
      </trkpt>
      <trkpt lat="63.451" lon="10.22135">
        <ele>67.806905</ele>
        <time>2020-08-08T07:38:45.253Z</time>
      </trkpt>
      <trkpt lat="63.45098" lon="10.22108">
        <ele>67.841704</ele>
        <time>2020-08-08T07:38:48.248Z</time>
      </trkpt>
      <trkpt lat="63.45095" lon="10.22081">
        <ele>67.875954</ele>
        <time>2020-08-08T07:38:51.224Z</time>
      </trkpt>
      <trkpt lat="63.45091" lon="10.22057">
        <ele>67.751204</ele>
        <time>2020-08-08T07:38:54.279Z</time>
      </trkpt>
      <trkpt lat="63.45085" lon="10.22033">
        <ele>67.596808</ele>
        <time>2020-08-08T07:38:57.268Z</time>
      </trkpt>
      <trkpt lat="63.45079" lon="10.2201">
        <ele>67.442612</ele>
        <time>2020-08-08T07:39:00.214Z</time>
      </trkpt>
      <trkpt lat="63.45071" lon="10.21988">
        <ele>67.288274</ele>
        <time>2020-08-08T07:39:03.222Z</time>
      </trkpt>
      <trkpt lat="63.45063" lon="10.21969">
        <ele>67.140177</ele>
        <time>2020-08-08T07:39:06.231Z</time>
      </trkpt>
      <trkpt lat="63.45056" lon="10.21949">
        <ele>66.991226</ele>
        <time>2020-08-08T07:39:09.266Z</time>
      </trkpt>
      <trkpt lat="63.45047" lon="10.21928">
        <ele>66.833857</ele>
        <time>2020-08-08T07:39:12.220Z</time>
      </trkpt>
      <trkpt lat="63.45039" lon="10.21908">
        <ele>66.676487</ele>
        <time>2020-08-08T07:39:15.221Z</time>
      </trkpt>
      <trkpt lat="63.45032" lon="10.21887">
        <ele>66.534137</ele>
        <time>2020-08-08T07:39:18.213Z</time>
      </trkpt>
      <trkpt lat="63.45026" lon="10.21868">
        <ele>66.398735</ele>
        <time>2020-08-08T07:39:21.209Z</time>
      </trkpt>
      <trkpt lat="63.4502" lon="10.2185">
        <ele>66.268017</ele>
        <time>2020-08-08T07:39:24.266Z</time>
      </trkpt>
      <trkpt lat="63.45013" lon="10.21831">
        <ele>66.134889</ele>
        <time>2020-08-08T07:39:27.260Z</time>
      </trkpt>
      <trkpt lat="63.45007" lon="10.21811">
        <ele>65.995691</ele>
        <time>2020-08-08T07:39:30.226Z</time>
      </trkpt>
      <trkpt lat="63.45" lon="10.21788">
        <ele>65.841016</ele>
        <time>2020-08-08T07:39:33.237Z</time>
      </trkpt>
      <trkpt lat="63.44995" lon="10.21764">
        <ele>65.685212</ele>
        <time>2020-08-08T07:39:36.221Z</time>
      </trkpt>
      <trkpt lat="63.44991" lon="10.21739">
        <ele>65.646614</ele>
        <time>2020-08-08T07:39:39.226Z</time>
      </trkpt>
      <trkpt lat="63.44989" lon="10.21715">
        <ele>65.73712</ele>
        <time>2020-08-08T07:39:42.212Z</time>
      </trkpt>
      <trkpt lat="63.44987" lon="10.21691">
        <ele>65.826458</ele>
        <time>2020-08-08T07:39:45.210Z</time>
      </trkpt>
      <trkpt lat="63.44986" lon="10.21668">
        <ele>65.911434</ele>
        <time>2020-08-08T07:39:48.230Z</time>
      </trkpt>
      <trkpt lat="63.44987" lon="10.21646">
        <ele>65.993331</ele>
        <time>2020-08-08T07:39:51.277Z</time>
      </trkpt>
      <trkpt lat="63.44987" lon="10.21622">
        <ele>66.079988</ele>
        <time>2020-08-08T07:39:54.265Z</time>
      </trkpt>
      <trkpt lat="63.44987" lon="10.21597">
        <ele>66.171536</ele>
        <time>2020-08-08T07:39:57.273Z</time>
      </trkpt>
      <trkpt lat="63.44986" lon="10.21572">
        <ele>66.264429</ele>
        <time>2020-08-08T07:40:00.260Z</time>
      </trkpt>
      <trkpt lat="63.44986" lon="10.21546">
        <ele>66.361741</ele>
        <time>2020-08-08T07:40:03.206Z</time>
      </trkpt>
      <trkpt lat="63.44986" lon="10.2152">
        <ele>66.456161</ele>
        <time>2020-08-08T07:40:06.216Z</time>
      </trkpt>
      <trkpt lat="63.44986" lon="10.21494">
        <ele>66.551276</ele>
        <time>2020-08-08T07:40:09.203Z</time>
      </trkpt>
      <trkpt lat="63.44983" lon="10.21469">
        <ele>66.647865</ele>
        <time>2020-08-08T07:40:12.239Z</time>
      </trkpt>
      <trkpt lat="63.44981" lon="10.21444">
        <ele>66.741226</ele>
        <time>2020-08-08T07:40:15.237Z</time>
      </trkpt>
      <trkpt lat="63.44978" lon="10.21421">
        <ele>66.829747</ele>
        <time>2020-08-08T07:40:18.268Z</time>
      </trkpt>
      <trkpt lat="63.44974" lon="10.21397">
        <ele>66.921405</ele>
        <time>2020-08-08T07:40:21.218Z</time>
      </trkpt>
      <trkpt lat="63.44969" lon="10.21374">
        <ele>67.017698</ele>
        <time>2020-08-08T07:40:24.244Z</time>
      </trkpt>
      <trkpt lat="63.44963" lon="10.21352">
        <ele>67.209362</ele>
        <time>2020-08-08T07:40:27.240Z</time>
      </trkpt>
      <trkpt lat="63.44955" lon="10.21332">
        <ele>67.634039</ele>
        <time>2020-08-08T07:40:30.213Z</time>
      </trkpt>
      <trkpt lat="63.44947" lon="10.21313">
        <ele>68.078243</ele>
        <time>2020-08-08T07:40:33.222Z</time>
      </trkpt>
      <trkpt lat="63.44939" lon="10.21289">
        <ele>68.552359</ele>
        <time>2020-08-08T07:40:36.216Z</time>
      </trkpt>
      <trkpt lat="63.44933" lon="10.21264">
        <ele>69.023782</ele>
        <time>2020-08-08T07:40:39.208Z</time>
      </trkpt>
      <trkpt lat="63.44928" lon="10.21239">
        <ele>69.454332</ele>
        <time>2020-08-08T07:40:42.227Z</time>
      </trkpt>
      <trkpt lat="63.44926" lon="10.21216">
        <ele>69.854428</ele>
        <time>2020-08-08T07:40:45.222Z</time>
      </trkpt>
      <trkpt lat="63.44925" lon="10.21193">
        <ele>70.227516</ele>
        <time>2020-08-08T07:40:48.246Z</time>
      </trkpt>
      <trkpt lat="63.44925" lon="10.21171">
        <ele>70.584487</ele>
        <time>2020-08-08T07:40:51.216Z</time>
      </trkpt>
      <trkpt lat="63.44925" lon="10.21147">
        <ele>70.974212</ele>
        <time>2020-08-08T07:40:54.256Z</time>
      </trkpt>
      <trkpt lat="63.44925" lon="10.21124">
        <ele>71.347644</ele>
        <time>2020-08-08T07:40:57.254Z</time>
      </trkpt>
      <trkpt lat="63.44924" lon="10.21099">
        <ele>71.754656</ele>
        <time>2020-08-08T07:41:00.265Z</time>
      </trkpt>
      <trkpt lat="63.44921" lon="10.21073">
        <ele>72.194617</ele>
        <time>2020-08-08T07:41:03.216Z</time>
      </trkpt>
      <trkpt lat="63.44917" lon="10.21047">
        <ele>72.634306</ele>
        <time>2020-08-08T07:41:06.224Z</time>
      </trkpt>
      <trkpt lat="63.44912" lon="10.21021">
        <ele>73.094238</ele>
        <time>2020-08-08T07:41:09.219Z</time>
      </trkpt>
      <trkpt lat="63.44907" lon="10.20996">
        <ele>73.552586</ele>
        <time>2020-08-08T07:41:12.226Z</time>
      </trkpt>
      <trkpt lat="63.44901" lon="10.20969">
        <ele>73.957225</ele>
        <time>2020-08-08T07:41:15.235Z</time>
      </trkpt>
      <trkpt lat="63.44897" lon="10.2095">
        <ele>74.217149</ele>
        <time>2020-08-08T07:41:17.219Z</time>
      </trkpt>
      <trkpt lat="63.44893" lon="10.20932">
        <ele>74.47347</ele>
        <time>2020-08-08T07:41:19.263Z</time>
      </trkpt>
      <trkpt lat="63.4489" lon="10.20913">
        <ele>74.729792</ele>
        <time>2020-08-08T07:41:21.249Z</time>
      </trkpt>
      <trkpt lat="63.44886" lon="10.20894">
        <ele>74.992297</ele>
        <time>2020-08-08T07:41:23.215Z</time>
      </trkpt>
      <trkpt lat="63.44883" lon="10.20875">
        <ele>75.249933</ele>
        <time>2020-08-08T07:41:25.240Z</time>
      </trkpt>
      <trkpt lat="63.4488" lon="10.20856">
        <ele>75.508883</ele>
        <time>2020-08-08T07:41:27.240Z</time>
      </trkpt>
      <trkpt lat="63.44875" lon="10.20829">
        <ele>75.882365</ele>
        <time>2020-08-08T07:41:30.227Z</time>
      </trkpt>
      <trkpt lat="63.44869" lon="10.20804">
        <ele>76.242628</ele>
        <time>2020-08-08T07:41:33.218Z</time>
      </trkpt>
      <trkpt lat="63.44864" lon="10.20786">
        <ele>76.504926</ele>
        <time>2020-08-08T07:41:35.274Z</time>
      </trkpt>
      <trkpt lat="63.44858" lon="10.20761">
        <ele>76.874228</ele>
        <time>2020-08-08T07:41:38.245Z</time>
      </trkpt>
      <trkpt lat="63.44851" lon="10.20736">
        <ele>77.244248</ele>
        <time>2020-08-08T07:41:41.207Z</time>
      </trkpt>
      <trkpt lat="63.44844" lon="10.20711">
        <ele>77.616384</ele>
        <time>2020-08-08T07:41:44.229Z</time>
      </trkpt>
      <trkpt lat="63.44837" lon="10.20687">
        <ele>77.980942</ele>
        <time>2020-08-08T07:41:47.259Z</time>
      </trkpt>
      <trkpt lat="63.4483" lon="10.20665">
        <ele>78.326687</ele>
        <time>2020-08-08T07:41:50.216Z</time>
      </trkpt>
      <trkpt lat="63.44821" lon="10.20643">
        <ele>78.69606</ele>
        <time>2020-08-08T07:41:53.238Z</time>
      </trkpt>
      <trkpt lat="63.44813" lon="10.20622">
        <ele>78.811239</ele>
        <time>2020-08-08T07:41:56.229Z</time>
      </trkpt>
      <trkpt lat="63.44804" lon="10.20602">
        <ele>78.878077</ele>
        <time>2020-08-08T07:41:59.211Z</time>
      </trkpt>
      <trkpt lat="63.44795" lon="10.20581">
        <ele>78.947453</ele>
        <time>2020-08-08T07:42:02.244Z</time>
      </trkpt>
      <trkpt lat="63.44785" lon="10.2056">
        <ele>79.017257</ele>
        <time>2020-08-08T07:42:05.261Z</time>
      </trkpt>
      <trkpt lat="63.44775" lon="10.20541">
        <ele>79.085183</ele>
        <time>2020-08-08T07:42:08.238Z</time>
      </trkpt>
      <trkpt lat="63.44765" lon="10.20522">
        <ele>79.154358</ele>
        <time>2020-08-08T07:42:11.200Z</time>
      </trkpt>
      <trkpt lat="63.44754" lon="10.20504">
        <ele>79.224259</ele>
        <time>2020-08-08T07:42:14.251Z</time>
      </trkpt>
      <trkpt lat="63.44745" lon="10.20485">
        <ele>79.290456</ele>
        <time>2020-08-08T07:42:17.265Z</time>
      </trkpt>
      <trkpt lat="63.44735" lon="10.20466">
        <ele>79.357231</ele>
        <time>2020-08-08T07:42:20.228Z</time>
      </trkpt>
      <trkpt lat="63.44725" lon="10.20447">
        <ele>79.425614</ele>
        <time>2020-08-08T07:42:23.235Z</time>
      </trkpt>
      <trkpt lat="63.44715" lon="10.20429">
        <ele>79.49199</ele>
        <time>2020-08-08T07:42:26.274Z</time>
      </trkpt>
      <trkpt lat="63.44706" lon="10.2041">
        <ele>79.556866</ele>
        <time>2020-08-08T07:42:29.234Z</time>
      </trkpt>
      <trkpt lat="63.44697" lon="10.20391">
        <ele>79.621452</ele>
        <time>2020-08-08T07:42:32.227Z</time>
      </trkpt>
      <trkpt lat="63.44688" lon="10.20372">
        <ele>79.687501</ele>
        <time>2020-08-08T07:42:35.223Z</time>
      </trkpt>
      <trkpt lat="63.44679" lon="10.20352">
        <ele>79.351402</ele>
        <time>2020-08-08T07:42:38.219Z</time>
      </trkpt>
      <trkpt lat="63.44671" lon="10.20331">
        <ele>78.942168</ele>
        <time>2020-08-08T07:42:41.218Z</time>
      </trkpt>
      <trkpt lat="63.44662" lon="10.2031">
        <ele>78.531724</ele>
        <time>2020-08-08T07:42:44.214Z</time>
      </trkpt>
      <trkpt lat="63.44654" lon="10.20288">
        <ele>78.140253</ele>
        <time>2020-08-08T07:42:47.227Z</time>
      </trkpt>
      <trkpt lat="63.44647" lon="10.20265">
        <ele>77.739002</ele>
        <time>2020-08-08T07:42:50.223Z</time>
      </trkpt>
      <trkpt lat="63.4464" lon="10.20243">
        <ele>77.360842</ele>
        <time>2020-08-08T07:42:53.228Z</time>
      </trkpt>
      <trkpt lat="63.44634" lon="10.20218">
        <ele>76.960256</ele>
        <time>2020-08-08T07:42:56.266Z</time>
      </trkpt>
      <trkpt lat="63.44629" lon="10.20193">
        <ele>76.571725</ele>
        <time>2020-08-08T07:42:59.233Z</time>
      </trkpt>
      <trkpt lat="63.44625" lon="10.20165">
        <ele>76.158101</ele>
        <time>2020-08-08T07:43:02.261Z</time>
      </trkpt>
      <trkpt lat="63.44621" lon="10.20139">
        <ele>75.758686</ele>
        <time>2020-08-08T07:43:05.220Z</time>
      </trkpt>
      <trkpt lat="63.44617" lon="10.20114">
        <ele>75.386502</ele>
        <time>2020-08-08T07:43:08.237Z</time>
      </trkpt>
      <trkpt lat="63.44614" lon="10.20088">
        <ele>75.011672</ele>
        <time>2020-08-08T07:43:11.233Z</time>
      </trkpt>
      <trkpt lat="63.44611" lon="10.20063">
        <ele>74.640092</ele>
        <time>2020-08-08T07:43:14.230Z</time>
      </trkpt>
      <trkpt lat="63.44608" lon="10.20039">
        <ele>74.286615</ele>
        <time>2020-08-08T07:43:17.260Z</time>
      </trkpt>
      <trkpt lat="63.44605" lon="10.20016">
        <ele>73.985147</ele>
        <time>2020-08-08T07:43:20.220Z</time>
      </trkpt>
      <trkpt lat="63.44602" lon="10.19992">
        <ele>73.958658</ele>
        <time>2020-08-08T07:43:23.204Z</time>
      </trkpt>
      <trkpt lat="63.44599" lon="10.19969">
        <ele>73.932133</ele>
        <time>2020-08-08T07:43:26.248Z</time>
      </trkpt>
      <trkpt lat="63.44596" lon="10.19945">
        <ele>73.905085</ele>
        <time>2020-08-08T07:43:29.217Z</time>
      </trkpt>
      <trkpt lat="63.44592" lon="10.19919">
        <ele>73.876508</ele>
        <time>2020-08-08T07:43:32.250Z</time>
      </trkpt>
      <trkpt lat="63.44589" lon="10.19895">
        <ele>73.848944</ele>
        <time>2020-08-08T07:43:35.227Z</time>
      </trkpt>
      <trkpt lat="63.44585" lon="10.19869">
        <ele>73.819048</ele>
        <time>2020-08-08T07:43:38.217Z</time>
      </trkpt>
      <trkpt lat="63.44582" lon="10.19841">
        <ele>73.787462</ele>
        <time>2020-08-08T07:43:41.240Z</time>
      </trkpt>
      <trkpt lat="63.44579" lon="10.19822">
        <ele>73.76548</ele>
        <time>2020-08-08T07:43:43.220Z</time>
      </trkpt>
      <trkpt lat="63.44577" lon="10.19801">
        <ele>73.742417</ele>
        <time>2020-08-08T07:43:45.204Z</time>
      </trkpt>
      <trkpt lat="63.44574" lon="10.1978">
        <ele>73.719102</ele>
        <time>2020-08-08T07:43:47.227Z</time>
      </trkpt>
      <trkpt lat="63.44571" lon="10.19759">
        <ele>73.694831</ele>
        <time>2020-08-08T07:43:49.253Z</time>
      </trkpt>
      <trkpt lat="63.44568" lon="10.19737">
        <ele>73.67003</ele>
        <time>2020-08-08T07:43:51.236Z</time>
      </trkpt>
      <trkpt lat="63.44565" lon="10.19716">
        <ele>73.645333</ele>
        <time>2020-08-08T07:43:53.242Z</time>
      </trkpt>
      <trkpt lat="63.44562" lon="10.19694">
        <ele>73.620326</ele>
        <time>2020-08-08T07:43:55.232Z</time>
      </trkpt>
      <trkpt lat="63.44559" lon="10.19672">
        <ele>73.595153</ele>
        <time>2020-08-08T07:43:57.219Z</time>
      </trkpt>
      <trkpt lat="63.44555" lon="10.19649">
        <ele>73.569733</ele>
        <time>2020-08-08T07:43:59.221Z</time>
      </trkpt>
      <trkpt lat="63.44552" lon="10.19627">
        <ele>73.484798</ele>
        <time>2020-08-08T07:44:01.232Z</time>
      </trkpt>
      <trkpt lat="63.44549" lon="10.19604">
        <ele>73.27137</ele>
        <time>2020-08-08T07:44:03.244Z</time>
      </trkpt>
      <trkpt lat="63.44547" lon="10.19581">
        <ele>73.06022</ele>
        <time>2020-08-08T07:44:05.204Z</time>
      </trkpt>
      <trkpt lat="63.44545" lon="10.19557">
        <ele>72.843398</ele>
        <time>2020-08-08T07:44:07.226Z</time>
      </trkpt>
      <trkpt lat="63.44543" lon="10.19533">
        <ele>72.624489</ele>
        <time>2020-08-08T07:44:09.233Z</time>
      </trkpt>
      <trkpt lat="63.4454" lon="10.19509">
        <ele>72.400262</ele>
        <time>2020-08-08T07:44:11.227Z</time>
      </trkpt>
      <trkpt lat="63.44537" lon="10.19485">
        <ele>72.17453</ele>
        <time>2020-08-08T07:44:13.222Z</time>
      </trkpt>
      <trkpt lat="63.44534" lon="10.1946">
        <ele>71.943564</ele>
        <time>2020-08-08T07:44:15.227Z</time>
      </trkpt>
      <trkpt lat="63.44531" lon="10.19435">
        <ele>71.711871</ele>
        <time>2020-08-08T07:44:17.233Z</time>
      </trkpt>
      <trkpt lat="63.44528" lon="10.1941">
        <ele>71.476039</ele>
        <time>2020-08-08T07:44:19.210Z</time>
      </trkpt>
      <trkpt lat="63.44525" lon="10.19385">
        <ele>71.238472</ele>
        <time>2020-08-08T07:44:21.266Z</time>
      </trkpt>
      <trkpt lat="63.44524" lon="10.19358">
        <ele>70.996343</ele>
        <time>2020-08-08T07:44:23.241Z</time>
      </trkpt>
      <trkpt lat="63.44529" lon="10.19332">
        <ele>70.750494</ele>
        <time>2020-08-08T07:44:25.242Z</time>
      </trkpt>
      <trkpt lat="63.4454" lon="10.19318">
        <ele>70.49205</ele>
        <time>2020-08-08T07:44:27.240Z</time>
      </trkpt>
      <trkpt lat="63.44554" lon="10.1931">
        <ele>70.20103</ele>
        <time>2020-08-08T07:44:29.223Z</time>
      </trkpt>
      <trkpt lat="63.44567" lon="10.19301">
        <ele>69.920893</ele>
        <time>2020-08-08T07:44:31.237Z</time>
      </trkpt>
      <trkpt lat="63.44579" lon="10.19291">
        <ele>69.532338</ele>
        <time>2020-08-08T07:44:33.212Z</time>
      </trkpt>
      <trkpt lat="63.44591" lon="10.19281">
        <ele>69.144259</ele>
        <time>2020-08-08T07:44:35.218Z</time>
      </trkpt>
      <trkpt lat="63.44603" lon="10.19272">
        <ele>68.756201</ele>
        <time>2020-08-08T07:44:37.256Z</time>
      </trkpt>
      <trkpt lat="63.44615" lon="10.19264">
        <ele>68.369123</ele>
        <time>2020-08-08T07:44:39.214Z</time>
      </trkpt>
      <trkpt lat="63.44628" lon="10.19258">
        <ele>67.983464</ele>
        <time>2020-08-08T07:44:41.221Z</time>
      </trkpt>
      <trkpt lat="63.4464" lon="10.19253">
        <ele>67.608296</ele>
        <time>2020-08-08T07:44:43.263Z</time>
      </trkpt>
      <trkpt lat="63.44653" lon="10.1925">
        <ele>67.223517</ele>
        <time>2020-08-08T07:44:45.202Z</time>
      </trkpt>
      <trkpt lat="63.44665" lon="10.19247">
        <ele>66.848836</ele>
        <time>2020-08-08T07:44:47.227Z</time>
      </trkpt>
      <trkpt lat="63.44678" lon="10.19245">
        <ele>66.463422</ele>
        <time>2020-08-08T07:44:49.224Z</time>
      </trkpt>
      <trkpt lat="63.44691" lon="10.19245">
        <ele>66.069453</ele>
        <time>2020-08-08T07:44:51.216Z</time>
      </trkpt>
      <trkpt lat="63.44704" lon="10.19247">
        <ele>65.650809</ele>
        <time>2020-08-08T07:44:53.217Z</time>
      </trkpt>
      <trkpt lat="63.44719" lon="10.19251">
        <ele>65.208532</ele>
        <time>2020-08-08T07:44:55.225Z</time>
      </trkpt>
      <trkpt lat="63.44733" lon="10.19256">
        <ele>64.775892</ele>
        <time>2020-08-08T07:44:57.268Z</time>
      </trkpt>
      <trkpt lat="63.44747" lon="10.19261">
        <ele>64.249293</ele>
        <time>2020-08-08T07:44:59.209Z</time>
      </trkpt>
      <trkpt lat="63.44763" lon="10.19271">
        <ele>63.348498</ele>
        <time>2020-08-08T07:45:01.207Z</time>
      </trkpt>
      <trkpt lat="63.44779" lon="10.19285">
        <ele>62.38078</ele>
        <time>2020-08-08T07:45:03.243Z</time>
      </trkpt>
      <trkpt lat="63.44788" lon="10.19293">
        <ele>61.890908</ele>
        <time>2020-08-08T07:45:04.204Z</time>
      </trkpt>
      <trkpt lat="63.44796" lon="10.19301">
        <ele>61.399541</ele>
        <time>2020-08-08T07:45:05.224Z</time>
      </trkpt>
      <trkpt lat="63.44804" lon="10.19309">
        <ele>60.906216</ele>
        <time>2020-08-08T07:45:06.242Z</time>
      </trkpt>
      <trkpt lat="63.44813" lon="10.19319">
        <ele>60.398085</ele>
        <time>2020-08-08T07:45:07.236Z</time>
      </trkpt>
      <trkpt lat="63.44821" lon="10.1933">
        <ele>59.87927</ele>
        <time>2020-08-08T07:45:08.232Z</time>
      </trkpt>
      <trkpt lat="63.44829" lon="10.19341">
        <ele>59.363277</ele>
        <time>2020-08-08T07:45:09.221Z</time>
      </trkpt>
      <trkpt lat="63.44837" lon="10.19354">
        <ele>58.848462</ele>
        <time>2020-08-08T07:45:10.218Z</time>
      </trkpt>
      <trkpt lat="63.44844" lon="10.19367">
        <ele>58.339406</ele>
        <time>2020-08-08T07:45:11.209Z</time>
      </trkpt>
      <trkpt lat="63.44851" lon="10.19379">
        <ele>57.844615</ele>
        <time>2020-08-08T07:45:12.220Z</time>
      </trkpt>
      <trkpt lat="63.44865" lon="10.19405">
        <ele>56.893157</ele>
        <time>2020-08-08T07:45:14.238Z</time>
      </trkpt>
      <trkpt lat="63.44877" lon="10.19429">
        <ele>55.988883</ele>
        <time>2020-08-08T07:45:16.225Z</time>
      </trkpt>
      <trkpt lat="63.4489" lon="10.19451">
        <ele>55.137604</ele>
        <time>2020-08-08T07:45:18.221Z</time>
      </trkpt>
      <trkpt lat="63.44901" lon="10.19471">
        <ele>54.280982</ele>
        <time>2020-08-08T07:45:20.235Z</time>
      </trkpt>
      <trkpt lat="63.4491" lon="10.19488">
        <ele>53.452753</ele>
        <time>2020-08-08T07:45:22.227Z</time>
      </trkpt>
      <trkpt lat="63.44918" lon="10.19506">
        <ele>52.667831</ele>
        <time>2020-08-08T07:45:24.217Z</time>
      </trkpt>
      <trkpt lat="63.44928" lon="10.19523">
        <ele>51.867997</ele>
        <time>2020-08-08T07:45:26.263Z</time>
      </trkpt>
      <trkpt lat="63.44938" lon="10.19541">
        <ele>51.004518</ele>
        <time>2020-08-08T07:45:28.228Z</time>
      </trkpt>
      <trkpt lat="63.44947" lon="10.19558">
        <ele>50.178636</ele>
        <time>2020-08-08T07:45:30.244Z</time>
      </trkpt>
      <trkpt lat="63.44957" lon="10.19576">
        <ele>49.325265</ele>
        <time>2020-08-08T07:45:32.240Z</time>
      </trkpt>
      <trkpt lat="63.44967" lon="10.196">
        <ele>48.337689</ele>
        <time>2020-08-08T07:45:34.278Z</time>
      </trkpt>
      <trkpt lat="63.44977" lon="10.19631">
        <ele>47.205638</ele>
        <time>2020-08-08T07:45:36.217Z</time>
      </trkpt>
      <trkpt lat="63.44985" lon="10.19664">
        <ele>46.040865</ele>
        <time>2020-08-08T07:45:38.220Z</time>
      </trkpt>
      <trkpt lat="63.44993" lon="10.19698">
        <ele>44.909067</ele>
        <time>2020-08-08T07:45:40.255Z</time>
      </trkpt>
      <trkpt lat="63.45" lon="10.1973">
        <ele>43.861885</ele>
        <time>2020-08-08T07:45:42.304Z</time>
      </trkpt>
      <trkpt lat="63.45005" lon="10.19759">
        <ele>42.878662</ele>
        <time>2020-08-08T07:45:44.231Z</time>
      </trkpt>
      <trkpt lat="63.45011" lon="10.19788">
        <ele>42.778334</ele>
        <time>2020-08-08T07:45:46.240Z</time>
      </trkpt>
      <trkpt lat="63.45017" lon="10.19816">
        <ele>43.001044</ele>
        <time>2020-08-08T07:45:48.232Z</time>
      </trkpt>
      <trkpt lat="63.45023" lon="10.19843">
        <ele>43.212201</ele>
        <time>2020-08-08T07:45:50.265Z</time>
      </trkpt>
      <trkpt lat="63.45029" lon="10.19868">
        <ele>43.413209</ele>
        <time>2020-08-08T07:45:52.241Z</time>
      </trkpt>
      <trkpt lat="63.45035" lon="10.19891">
        <ele>43.598634</ele>
        <time>2020-08-08T07:45:54.250Z</time>
      </trkpt>
      <trkpt lat="63.45041" lon="10.19912">
        <ele>43.771559</ele>
        <time>2020-08-08T07:45:56.252Z</time>
      </trkpt>
      <trkpt lat="63.45045" lon="10.19932">
        <ele>43.930386</ele>
        <time>2020-08-08T07:45:58.226Z</time>
      </trkpt>
      <trkpt lat="63.45049" lon="10.19951">
        <ele>44.079755</ele>
        <time>2020-08-08T07:46:00.238Z</time>
      </trkpt>
      <trkpt lat="63.45055" lon="10.19974">
        <ele>44.265355</ele>
        <time>2020-08-08T07:46:03.283Z</time>
      </trkpt>
      <trkpt lat="63.4507" lon="10.20026">
        <ele>44.709849</ele>
        <time>2020-08-08T07:54:33.228Z</time>
      </trkpt>
      <trkpt lat="63.45077" lon="10.20052">
        <ele>44.918958</ele>
        <time>2020-08-08T07:54:36.238Z</time>
      </trkpt>
      <trkpt lat="63.45085" lon="10.20072">
        <ele>45.108168</ele>
        <time>2020-08-08T07:54:39.219Z</time>
      </trkpt>
      <trkpt lat="63.45095" lon="10.20084">
        <ele>45.28483</ele>
        <time>2020-08-08T07:54:42.242Z</time>
      </trkpt>
      <trkpt lat="63.45105" lon="10.2009">
        <ele>45.441536</ele>
        <time>2020-08-08T07:54:45.222Z</time>
      </trkpt>
      <trkpt lat="63.45115" lon="10.20099">
        <ele>45.461828</ele>
        <time>2020-08-08T07:54:49.222Z</time>
      </trkpt>
      <trkpt lat="63.45123" lon="10.20109">
        <ele>45.460177</ele>
        <time>2020-08-08T07:54:52.236Z</time>
      </trkpt>
      <trkpt lat="63.45132" lon="10.20121">
        <ele>45.458312</ele>
        <time>2020-08-08T07:54:56.253Z</time>
      </trkpt>
      <trkpt lat="63.50696" lon="10.14259">
        <ele>49.549542</ele>
        <time>2020-08-08T08:19:03.481Z</time>
      </trkpt>
      <trkpt lat="63.50733" lon="10.14214">
        <ele>52.107686</ele>
        <time>2020-08-08T08:19:29.457Z</time>
      </trkpt>
      <trkpt lat="63.50737" lon="10.14195">
        <ele>52.717873</ele>
        <time>2020-08-08T08:19:35.481Z</time>
      </trkpt>
      <trkpt lat="63.50749" lon="10.14193">
        <ele>53.414447</ele>
        <time>2020-08-08T08:19:41.473Z</time>
      </trkpt>
      <trkpt lat="63.50758" lon="10.14185">
        <ele>54.046995</ele>
        <time>2020-08-08T08:19:46.446Z</time>
      </trkpt>
      <trkpt lat="63.50766" lon="10.14172">
        <ele>54.6218</ele>
        <time>2020-08-08T08:19:49.457Z</time>
      </trkpt>
      <trkpt lat="63.50773" lon="10.14154">
        <ele>55.31361</ele>
        <time>2020-08-08T08:19:53.491Z</time>
      </trkpt>
      <trkpt lat="63.5078" lon="10.1414">
        <ele>55.879296</ele>
        <time>2020-08-08T08:19:56.454Z</time>
      </trkpt>
      <trkpt lat="63.50787" lon="10.14127">
        <ele>56.439362</ele>
        <time>2020-08-08T08:19:59.471Z</time>
      </trkpt>
      <trkpt lat="63.50797" lon="10.14112">
        <ele>56.749403</ele>
        <time>2020-08-08T08:20:03.498Z</time>
      </trkpt>
      <trkpt lat="63.50805" lon="10.14102">
        <ele>56.78253</ele>
        <time>2020-08-08T08:20:06.466Z</time>
      </trkpt>
      <trkpt lat="63.50813" lon="10.14088">
        <ele>56.818196</ele>
        <time>2020-08-08T08:20:11.484Z</time>
      </trkpt>
      <trkpt lat="63.5082" lon="10.14072">
        <ele>56.852939</ele>
        <time>2020-08-08T08:20:17.471Z</time>
      </trkpt>
      <trkpt lat="63.50824" lon="10.14053">
        <ele>56.88776</ele>
        <time>2020-08-08T08:20:23.451Z</time>
      </trkpt>
      <trkpt lat="63.50832" lon="10.1404">
        <ele>56.921577</ele>
        <time>2020-08-08T08:20:30.472Z</time>
      </trkpt>
      <trkpt lat="63.50841" lon="10.14031">
        <ele>56.955724</ele>
        <time>2020-08-08T08:20:36.482Z</time>
      </trkpt>
      <trkpt lat="63.50848" lon="10.14015">
        <ele>56.991746</ele>
        <time>2020-08-08T08:20:41.502Z</time>
      </trkpt>
      <trkpt lat="63.50854" lon="10.14">
        <ele>57.024782</ele>
        <time>2020-08-08T08:20:49.456Z</time>
      </trkpt>
      <trkpt lat="63.50879" lon="10.13971">
        <ele>57.125</ele>
        <time>2020-08-08T08:21:48.475Z</time>
      </trkpt>
      <trkpt lat="63.50893" lon="10.13952">
        <ele>57.183541</ele>
        <time>2020-08-08T08:22:56.445Z</time>
      </trkpt>
      <trkpt lat="63.50902" lon="10.13943">
        <ele>57.216055</ele>
        <time>2020-08-08T08:23:02.474Z</time>
      </trkpt>
      <trkpt lat="63.5091" lon="10.13933">
        <ele>57.250545</ele>
        <time>2020-08-08T08:23:07.450Z</time>
      </trkpt>
      <trkpt lat="63.50919" lon="10.13925">
        <ele>57.284502</ele>
        <time>2020-08-08T08:23:14.483Z</time>
      </trkpt>
      <trkpt lat="63.50935" lon="10.13901">
        <ele>57.353647</ele>
        <time>2020-08-08T08:23:59.479Z</time>
      </trkpt>
      <trkpt lat="63.50945" lon="10.13887">
        <ele>57.132917</ele>
        <time>2020-08-08T08:24:03.485Z</time>
      </trkpt>
      <trkpt lat="63.50953" lon="10.13871">
        <ele>56.844644</ele>
        <time>2020-08-08T08:24:07.484Z</time>
      </trkpt>
      <trkpt lat="63.5096" lon="10.13855">
        <ele>56.584494</ele>
        <time>2020-08-08T08:24:12.460Z</time>
      </trkpt>
      <trkpt lat="63.5096" lon="10.13832">
        <ele>56.314171</ele>
        <time>2020-08-08T08:24:16.464Z</time>
      </trkpt>
      <trkpt lat="63.50958" lon="10.13808">
        <ele>56.023934</ele>
        <time>2020-08-08T08:24:20.454Z</time>
      </trkpt>
      <trkpt lat="63.50955" lon="10.13786">
        <ele>55.743615</ele>
        <time>2020-08-08T08:24:24.479Z</time>
      </trkpt>
      <trkpt lat="63.50952" lon="10.13767">
        <ele>55.498511</ele>
        <time>2020-08-08T08:24:28.471Z</time>
      </trkpt>
      <trkpt lat="63.50947" lon="10.13744">
        <ele>55.202292</ele>
        <time>2020-08-08T08:24:33.481Z</time>
      </trkpt>
      <trkpt lat="63.50943" lon="10.1372">
        <ele>54.897757</ele>
        <time>2020-08-08T08:24:38.460Z</time>
      </trkpt>
      <trkpt lat="63.5094" lon="10.13699">
        <ele>54.626307</ele>
        <time>2020-08-08T08:24:42.456Z</time>
      </trkpt>
      <trkpt lat="63.50937" lon="10.13679">
        <ele>54.370007</ele>
        <time>2020-08-08T08:24:46.450Z</time>
      </trkpt>
      <trkpt lat="63.50934" lon="10.13658">
        <ele>54.102368</ele>
        <time>2020-08-08T08:24:50.452Z</time>
      </trkpt>
      <trkpt lat="63.5093" lon="10.13637">
        <ele>53.841569</ele>
        <time>2020-08-08T08:24:54.466Z</time>
      </trkpt>
      <trkpt lat="63.50927" lon="10.13618">
        <ele>53.594474</ele>
        <time>2020-08-08T08:24:58.490Z</time>
      </trkpt>
      <trkpt lat="63.50923" lon="10.13599">
        <ele>53.343116</ele>
        <time>2020-08-08T08:25:02.457Z</time>
      </trkpt>
      <trkpt lat="63.5092" lon="10.13579">
        <ele>53.094803</ele>
        <time>2020-08-08T08:25:06.419Z</time>
      </trkpt>
      <trkpt lat="63.50916" lon="10.1356">
        <ele>52.843422</ele>
        <time>2020-08-08T08:25:10.448Z</time>
      </trkpt>
      <trkpt lat="63.50912" lon="10.13541">
        <ele>52.593139</ele>
        <time>2020-08-08T08:25:14.440Z</time>
      </trkpt>
      <trkpt lat="63.50907" lon="10.13523">
        <ele>52.880451</ele>
        <time>2020-08-08T08:25:18.454Z</time>
      </trkpt>
      <trkpt lat="63.50902" lon="10.13501">
        <ele>53.403453</ele>
        <time>2020-08-08T08:25:23.481Z</time>
      </trkpt>
      <trkpt lat="63.50896" lon="10.1348">
        <ele>53.920424</ele>
        <time>2020-08-08T08:25:28.443Z</time>
      </trkpt>
      <trkpt lat="63.5089" lon="10.13459">
        <ele>54.435696</ele>
        <time>2020-08-08T08:25:33.453Z</time>
      </trkpt>
      <trkpt lat="63.50884" lon="10.13443">
        <ele>54.862045</ele>
        <time>2020-08-08T08:25:37.451Z</time>
      </trkpt>
      <trkpt lat="63.5088" lon="10.13424">
        <ele>55.30044</ele>
        <time>2020-08-08T08:25:41.445Z</time>
      </trkpt>
      <trkpt lat="63.50873" lon="10.13405">
        <ele>55.799347</ele>
        <time>2020-08-08T08:25:46.452Z</time>
      </trkpt>
      <trkpt lat="63.50867" lon="10.13387">
        <ele>56.261694</ele>
        <time>2020-08-08T08:25:51.448Z</time>
      </trkpt>
      <trkpt lat="63.50861" lon="10.13372">
        <ele>56.691084</ele>
        <time>2020-08-08T08:25:55.434Z</time>
      </trkpt>
      <trkpt lat="63.50853" lon="10.13354">
        <ele>57.210821</ele>
        <time>2020-08-08T08:26:00.459Z</time>
      </trkpt>
      <trkpt lat="63.50846" lon="10.13339">
        <ele>57.672568</ele>
        <time>2020-08-08T08:26:04.471Z</time>
      </trkpt>
      <trkpt lat="63.50838" lon="10.13326">
        <ele>58.134728</ele>
        <time>2020-08-08T08:26:08.489Z</time>
      </trkpt>
      <trkpt lat="63.50829" lon="10.13314">
        <ele>58.610544</ele>
        <time>2020-08-08T08:26:12.484Z</time>
      </trkpt>
      <trkpt lat="63.50819" lon="10.13301">
        <ele>59.130974</ele>
        <time>2020-08-08T08:26:16.472Z</time>
      </trkpt>
      <trkpt lat="63.5081" lon="10.13294">
        <ele>59.559892</ele>
        <time>2020-08-08T08:26:19.458Z</time>
      </trkpt>
      <trkpt lat="63.508" lon="10.13281">
        <ele>60.106402</ele>
        <time>2020-08-08T08:26:23.454Z</time>
      </trkpt>
      <trkpt lat="63.50795" lon="10.13263">
        <ele>60.565012</ele>
        <time>2020-08-08T08:26:26.484Z</time>
      </trkpt>
      <trkpt lat="63.50796" lon="10.13241">
        <ele>60.842609</ele>
        <time>2020-08-08T08:26:29.481Z</time>
      </trkpt>
      <trkpt lat="63.50798" lon="10.13216">
        <ele>60.692399</ele>
        <time>2020-08-08T08:26:32.497Z</time>
      </trkpt>
      <trkpt lat="63.50793" lon="10.13195">
        <ele>60.54633</ele>
        <time>2020-08-08T08:26:35.490Z</time>
      </trkpt>
      <trkpt lat="63.50782" lon="10.13181">
        <ele>60.378872</ele>
        <time>2020-08-08T08:26:38.437Z</time>
      </trkpt>
      <trkpt lat="63.50773" lon="10.13172">
        <ele>60.245443</ele>
        <time>2020-08-08T08:26:40.485Z</time>
      </trkpt>
      <trkpt lat="63.50764" lon="10.13164">
        <ele>60.108437</ele>
        <time>2020-08-08T08:26:42.479Z</time>
      </trkpt>
      <trkpt lat="63.50754" lon="10.13156">
        <ele>59.969101</ele>
        <time>2020-08-08T08:26:44.436Z</time>
      </trkpt>
      <trkpt lat="63.50744" lon="10.13149">
        <ele>59.823434</ele>
        <time>2020-08-08T08:26:46.443Z</time>
      </trkpt>
      <trkpt lat="63.50733" lon="10.13142">
        <ele>59.675239</ele>
        <time>2020-08-08T08:26:48.451Z</time>
      </trkpt>
      <trkpt lat="63.50722" lon="10.13137">
        <ele>59.518854</ele>
        <time>2020-08-08T08:26:50.442Z</time>
      </trkpt>
      <trkpt lat="63.5071" lon="10.1313">
        <ele>59.352078</ele>
        <time>2020-08-08T08:26:52.430Z</time>
      </trkpt>
      <trkpt lat="63.50697" lon="10.13123">
        <ele>59.164613</ele>
        <time>2020-08-08T08:26:54.443Z</time>
      </trkpt>
      <trkpt lat="63.50683" lon="10.13117">
        <ele>58.977721</ele>
        <time>2020-08-08T08:26:56.440Z</time>
      </trkpt>
      <trkpt lat="63.50669" lon="10.13111">
        <ele>58.782003</ele>
        <time>2020-08-08T08:26:58.498Z</time>
      </trkpt>
      <trkpt lat="63.50654" lon="10.13105">
        <ele>58.570998</ele>
        <time>2020-08-08T08:27:00.442Z</time>
      </trkpt>
      <trkpt lat="63.50638" lon="10.13097">
        <ele>58.147569</ele>
        <time>2020-08-08T08:27:02.429Z</time>
      </trkpt>
      <trkpt lat="63.50621" lon="10.13091">
        <ele>57.381081</ele>
        <time>2020-08-08T08:27:04.468Z</time>
      </trkpt>
      <trkpt lat="63.50603" lon="10.13084">
        <ele>56.584616</ele>
        <time>2020-08-08T08:27:06.451Z</time>
      </trkpt>
      <trkpt lat="63.50593" lon="10.13081">
        <ele>56.167174</ele>
        <time>2020-08-08T08:27:07.495Z</time>
      </trkpt>
      <trkpt lat="63.50584" lon="10.13077">
        <ele>55.743825</ele>
        <time>2020-08-08T08:27:08.440Z</time>
      </trkpt>
      <trkpt lat="63.50574" lon="10.13073">
        <ele>55.320136</ele>
        <time>2020-08-08T08:27:09.472Z</time>
      </trkpt>
      <trkpt lat="63.50565" lon="10.1307">
        <ele>54.89246</ele>
        <time>2020-08-08T08:27:10.452Z</time>
      </trkpt>
      <trkpt lat="63.50555" lon="10.13066">
        <ele>54.464103</ele>
        <time>2020-08-08T08:27:11.444Z</time>
      </trkpt>
      <trkpt lat="63.50546" lon="10.13061">
        <ele>54.036539</ele>
        <time>2020-08-08T08:27:12.489Z</time>
      </trkpt>
      <trkpt lat="63.50536" lon="10.13056">
        <ele>53.603372</ele>
        <time>2020-08-08T08:27:13.431Z</time>
      </trkpt>
      <trkpt lat="63.50526" lon="10.13049">
        <ele>53.158868</ele>
        <time>2020-08-08T08:27:14.495Z</time>
      </trkpt>
      <trkpt lat="63.50517" lon="10.13043">
        <ele>52.726386</ele>
        <time>2020-08-08T08:27:15.440Z</time>
      </trkpt>
      <trkpt lat="63.50508" lon="10.13036">
        <ele>52.289712</ele>
        <time>2020-08-08T08:27:16.444Z</time>
      </trkpt>
      <trkpt lat="63.50499" lon="10.13027">
        <ele>51.852944</ele>
        <time>2020-08-08T08:27:17.441Z</time>
      </trkpt>
      <trkpt lat="63.5049" lon="10.13016">
        <ele>51.418875</ele>
        <time>2020-08-08T08:27:18.442Z</time>
      </trkpt>
      <trkpt lat="63.50481" lon="10.13009">
        <ele>51.004109</ele>
        <time>2020-08-08T08:27:19.473Z</time>
      </trkpt>
      <trkpt lat="63.50472" lon="10.13002">
        <ele>50.590057</ele>
        <time>2020-08-08T08:27:20.441Z</time>
      </trkpt>
      <trkpt lat="63.50463" lon="10.12994">
        <ele>50.260721</ele>
        <time>2020-08-08T08:27:21.457Z</time>
      </trkpt>
      <trkpt lat="63.50455" lon="10.12985">
        <ele>49.94623</ele>
        <time>2020-08-08T08:27:22.441Z</time>
      </trkpt>
      <trkpt lat="63.50446" lon="10.12976">
        <ele>49.635981</ele>
        <time>2020-08-08T08:27:23.454Z</time>
      </trkpt>
      <trkpt lat="63.5043" lon="10.1296">
        <ele>49.032642</ele>
        <time>2020-08-08T08:27:25.466Z</time>
      </trkpt>
      <trkpt lat="63.50414" lon="10.12942">
        <ele>48.44661</ele>
        <time>2020-08-08T08:27:27.436Z</time>
      </trkpt>
      <trkpt lat="63.50399" lon="10.12924">
        <ele>47.87589</ele>
        <time>2020-08-08T08:27:29.443Z</time>
      </trkpt>
      <trkpt lat="63.50385" lon="10.12904">
        <ele>47.316347</ele>
        <time>2020-08-08T08:27:31.438Z</time>
      </trkpt>
      <trkpt lat="63.50372" lon="10.12882">
        <ele>46.779347</ele>
        <time>2020-08-08T08:27:33.435Z</time>
      </trkpt>
      <trkpt lat="63.50361" lon="10.1286">
        <ele>46.282426</ele>
        <time>2020-08-08T08:27:35.490Z</time>
      </trkpt>
      <trkpt lat="63.5035" lon="10.12842">
        <ele>45.824947</ele>
        <time>2020-08-08T08:27:37.452Z</time>
      </trkpt>
      <trkpt lat="63.5034" lon="10.12825">
        <ele>45.395174</ele>
        <time>2020-08-08T08:27:39.440Z</time>
      </trkpt>
      <trkpt lat="63.5033" lon="10.12806">
        <ele>44.965497</ele>
        <time>2020-08-08T08:27:41.443Z</time>
      </trkpt>
      <trkpt lat="63.50321" lon="10.12788">
        <ele>44.566282</ele>
        <time>2020-08-08T08:27:43.446Z</time>
      </trkpt>
      <trkpt lat="63.50314" lon="10.1277">
        <ele>44.500772</ele>
        <time>2020-08-08T08:27:45.453Z</time>
      </trkpt>
      <trkpt lat="63.50307" lon="10.12753">
        <ele>44.477087</ele>
        <time>2020-08-08T08:27:47.454Z</time>
      </trkpt>
      <trkpt lat="63.50299" lon="10.12736">
        <ele>44.453539</ele>
        <time>2020-08-08T08:27:49.434Z</time>
      </trkpt>
      <trkpt lat="63.50293" lon="10.12719">
        <ele>44.430391</ele>
        <time>2020-08-08T08:27:51.431Z</time>
      </trkpt>
      <trkpt lat="63.50286" lon="10.12702">
        <ele>44.407542</ele>
        <time>2020-08-08T08:27:53.434Z</time>
      </trkpt>
      <trkpt lat="63.5028" lon="10.12685">
        <ele>44.385653</ele>
        <time>2020-08-08T08:27:55.431Z</time>
      </trkpt>
      <trkpt lat="63.50274" lon="10.12669">
        <ele>44.363779</ele>
        <time>2020-08-08T08:27:57.470Z</time>
      </trkpt>
      <trkpt lat="63.50268" lon="10.12653">
        <ele>44.342452</ele>
        <time>2020-08-08T08:27:59.470Z</time>
      </trkpt>
      <trkpt lat="63.50262" lon="10.12637">
        <ele>44.321115</ele>
        <time>2020-08-08T08:28:01.437Z</time>
      </trkpt>
      <trkpt lat="63.50256" lon="10.12622">
        <ele>44.29994</ele>
        <time>2020-08-08T08:28:03.441Z</time>
      </trkpt>
      <trkpt lat="63.50249" lon="10.12606">
        <ele>44.278765</ele>
        <time>2020-08-08T08:28:05.454Z</time>
      </trkpt>
      <trkpt lat="63.50243" lon="10.12589">
        <ele>44.256299</ele>
        <time>2020-08-08T08:28:07.444Z</time>
      </trkpt>
      <trkpt lat="63.50236" lon="10.12573">
        <ele>44.232287</ele>
        <time>2020-08-08T08:28:09.491Z</time>
      </trkpt>
      <trkpt lat="63.50228" lon="10.12555">
        <ele>44.207836</ele>
        <time>2020-08-08T08:28:11.436Z</time>
      </trkpt>
      <trkpt lat="63.50221" lon="10.12538">
        <ele>44.184305</ele>
        <time>2020-08-08T08:28:13.434Z</time>
      </trkpt>
      <trkpt lat="63.50214" lon="10.12522">
        <ele>44.16122</ele>
        <time>2020-08-08T08:28:15.465Z</time>
      </trkpt>
      <trkpt lat="63.50207" lon="10.12505">
        <ele>44.138143</ele>
        <time>2020-08-08T08:28:17.437Z</time>
      </trkpt>
      <trkpt lat="63.50201" lon="10.12488">
        <ele>44.11545</ele>
        <time>2020-08-08T08:28:19.453Z</time>
      </trkpt>
      <trkpt lat="63.50194" lon="10.12472">
        <ele>44.113905</ele>
        <time>2020-08-08T08:28:21.441Z</time>
      </trkpt>
      <trkpt lat="63.50188" lon="10.12455">
        <ele>44.114995</ele>
        <time>2020-08-08T08:28:23.459Z</time>
      </trkpt>
      <trkpt lat="63.50181" lon="10.12438">
        <ele>44.116082</ele>
        <time>2020-08-08T08:28:25.458Z</time>
      </trkpt>
      <trkpt lat="63.50174" lon="10.1242">
        <ele>44.117278</ele>
        <time>2020-08-08T08:28:27.433Z</time>
      </trkpt>
      <trkpt lat="63.50166" lon="10.12398">
        <ele>44.118599</ele>
        <time>2020-08-08T08:28:29.461Z</time>
      </trkpt>
      <trkpt lat="63.50158" lon="10.12376">
        <ele>44.119985</ele>
        <time>2020-08-08T08:28:31.488Z</time>
      </trkpt>
      <trkpt lat="63.5015" lon="10.12354">
        <ele>44.121412</ele>
        <time>2020-08-08T08:28:33.438Z</time>
      </trkpt>
      <trkpt lat="63.50142" lon="10.12331">
        <ele>44.122797</ele>
        <time>2020-08-08T08:28:35.474Z</time>
      </trkpt>
      <trkpt lat="63.50135" lon="10.12309">
        <ele>44.124101</ele>
        <time>2020-08-08T08:28:37.446Z</time>
      </trkpt>
      <trkpt lat="63.50128" lon="10.12289">
        <ele>44.125345</ele>
        <time>2020-08-08T08:28:39.478Z</time>
      </trkpt>
      <trkpt lat="63.50121" lon="10.12268">
        <ele>44.126598</ele>
        <time>2020-08-08T08:28:41.446Z</time>
      </trkpt>
      <trkpt lat="63.50114" lon="10.12249">
        <ele>44.127823</ele>
        <time>2020-08-08T08:28:43.453Z</time>
      </trkpt>
      <trkpt lat="63.50106" lon="10.12231">
        <ele>44.129056</ele>
        <time>2020-08-08T08:28:45.483Z</time>
      </trkpt>
      <trkpt lat="63.50098" lon="10.12213">
        <ele>44.130307</ele>
        <time>2020-08-08T08:28:47.463Z</time>
      </trkpt>
      <trkpt lat="63.50089" lon="10.12196">
        <ele>44.131605</ele>
        <time>2020-08-08T08:28:49.432Z</time>
      </trkpt>
      <trkpt lat="63.50079" lon="10.12179">
        <ele>44.136896</ele>
        <time>2020-08-08T08:28:51.435Z</time>
      </trkpt>
      <trkpt lat="63.5007" lon="10.12162">
        <ele>44.152182</ele>
        <time>2020-08-08T08:28:53.471Z</time>
      </trkpt>
      <trkpt lat="63.50062" lon="10.12143">
        <ele>44.166854</ele>
        <time>2020-08-08T08:28:55.447Z</time>
      </trkpt>
      <trkpt lat="63.50054" lon="10.12124">
        <ele>44.181257</ele>
        <time>2020-08-08T08:28:57.477Z</time>
      </trkpt>
      <trkpt lat="63.50048" lon="10.12104">
        <ele>44.195612</ele>
        <time>2020-08-08T08:28:59.446Z</time>
      </trkpt>
      <trkpt lat="63.50042" lon="10.12083">
        <ele>44.209538</ele>
        <time>2020-08-08T08:29:01.440Z</time>
      </trkpt>
      <trkpt lat="63.50036" lon="10.12062">
        <ele>44.223743</ele>
        <time>2020-08-08T08:29:03.487Z</time>
      </trkpt>
      <trkpt lat="63.50031" lon="10.12039">
        <ele>44.238379</ele>
        <time>2020-08-08T08:29:05.469Z</time>
      </trkpt>
      <trkpt lat="63.50027" lon="10.12016">
        <ele>44.252447</ele>
        <time>2020-08-08T08:29:07.461Z</time>
      </trkpt>
      <trkpt lat="63.50023" lon="10.11992">
        <ele>44.266632</ele>
        <time>2020-08-08T08:29:09.488Z</time>
      </trkpt>
      <trkpt lat="63.50018" lon="10.11968">
        <ele>44.281172</ele>
        <time>2020-08-08T08:29:11.466Z</time>
      </trkpt>
      <trkpt lat="63.50014" lon="10.11944">
        <ele>44.295854</ele>
        <time>2020-08-08T08:29:13.451Z</time>
      </trkpt>
      <trkpt lat="63.50009" lon="10.11922">
        <ele>44.310286</ele>
        <time>2020-08-08T08:29:15.457Z</time>
      </trkpt>
      <trkpt lat="63.50005" lon="10.11898">
        <ele>44.324664</ele>
        <time>2020-08-08T08:29:17.445Z</time>
      </trkpt>
      <trkpt lat="63.5" lon="10.11875">
        <ele>44.338728</ele>
        <time>2020-08-08T08:29:19.469Z</time>
      </trkpt>
      <trkpt lat="63.49996" lon="10.11852">
        <ele>44.352946</ele>
        <time>2020-08-08T08:29:21.431Z</time>
      </trkpt>
      <trkpt lat="63.49991" lon="10.11829">
        <ele>44.355323</ele>
        <time>2020-08-08T08:29:23.438Z</time>
      </trkpt>
      <trkpt lat="63.49987" lon="10.11808">
        <ele>44.343766</ele>
        <time>2020-08-08T08:29:25.458Z</time>
      </trkpt>
      <trkpt lat="63.49983" lon="10.11787">
        <ele>44.332436</ele>
        <time>2020-08-08T08:29:27.445Z</time>
      </trkpt>
      <trkpt lat="63.49979" lon="10.11767">
        <ele>44.32165</ele>
        <time>2020-08-08T08:29:29.475Z</time>
      </trkpt>
      <trkpt lat="63.49976" lon="10.11748">
        <ele>44.311091</ele>
        <time>2020-08-08T08:29:31.496Z</time>
      </trkpt>
      <trkpt lat="63.49972" lon="10.11729">
        <ele>44.300668</ele>
        <time>2020-08-08T08:29:33.451Z</time>
      </trkpt>
      <trkpt lat="63.49967" lon="10.11709">
        <ele>44.289834</ele>
        <time>2020-08-08T08:29:35.476Z</time>
      </trkpt>
      <trkpt lat="63.49963" lon="10.1169">
        <ele>44.279042</ele>
        <time>2020-08-08T08:29:37.433Z</time>
      </trkpt>
      <trkpt lat="63.49958" lon="10.11671">
        <ele>44.268166</ele>
        <time>2020-08-08T08:29:39.440Z</time>
      </trkpt>
      <trkpt lat="63.49953" lon="10.11652">
        <ele>44.257049</ele>
        <time>2020-08-08T08:29:41.482Z</time>
      </trkpt>
      <trkpt lat="63.49947" lon="10.11632">
        <ele>44.245576</ele>
        <time>2020-08-08T08:29:43.438Z</time>
      </trkpt>
      <trkpt lat="63.49942" lon="10.11611">
        <ele>44.233798</ele>
        <time>2020-08-08T08:29:45.458Z</time>
      </trkpt>
      <trkpt lat="63.49937" lon="10.11589">
        <ele>44.221136</ele>
        <time>2020-08-08T08:29:47.479Z</time>
      </trkpt>
      <trkpt lat="63.49932" lon="10.11566">
        <ele>44.208334</ele>
        <time>2020-08-08T08:29:49.453Z</time>
      </trkpt>
      <trkpt lat="63.49926" lon="10.11543">
        <ele>44.195628</ele>
        <time>2020-08-08T08:29:51.434Z</time>
      </trkpt>
      <trkpt lat="63.49921" lon="10.1152">
        <ele>44.182891</ele>
        <time>2020-08-08T08:29:53.462Z</time>
      </trkpt>
      <trkpt lat="63.49916" lon="10.11497">
        <ele>44.170461</ele>
        <time>2020-08-08T08:29:55.440Z</time>
      </trkpt>
      <trkpt lat="63.49912" lon="10.11475">
        <ele>44.158971</ele>
        <time>2020-08-08T08:29:57.458Z</time>
      </trkpt>
      <trkpt lat="63.49906" lon="10.11452">
        <ele>44.151154</ele>
        <time>2020-08-08T08:29:59.486Z</time>
      </trkpt>
      <trkpt lat="63.49901" lon="10.11427">
        <ele>44.143072</ele>
        <time>2020-08-08T08:30:01.433Z</time>
      </trkpt>
      <trkpt lat="63.49896" lon="10.11403">
        <ele>44.134991</ele>
        <time>2020-08-08T08:30:03.444Z</time>
      </trkpt>
      <trkpt lat="63.49891" lon="10.11379">
        <ele>44.126786</ele>
        <time>2020-08-08T08:30:05.449Z</time>
      </trkpt>
      <trkpt lat="63.49885" lon="10.11356">
        <ele>44.118911</ele>
        <time>2020-08-08T08:30:07.461Z</time>
      </trkpt>
      <trkpt lat="63.4988" lon="10.11333">
        <ele>44.111201</ele>
        <time>2020-08-08T08:30:09.490Z</time>
      </trkpt>
      <trkpt lat="63.49874" lon="10.1131">
        <ele>44.103215</ele>
        <time>2020-08-08T08:30:11.459Z</time>
      </trkpt>
      <trkpt lat="63.49869" lon="10.11288">
        <ele>44.095543</ele>
        <time>2020-08-08T08:30:13.456Z</time>
      </trkpt>
      <trkpt lat="63.49864" lon="10.11266">
        <ele>44.087961</ele>
        <time>2020-08-08T08:30:15.432Z</time>
      </trkpt>
      <trkpt lat="63.49858" lon="10.11244">
        <ele>44.080517</ele>
        <time>2020-08-08T08:30:17.449Z</time>
      </trkpt>
      <trkpt lat="63.49853" lon="10.11223">
        <ele>44.073189</ele>
        <time>2020-08-08T08:30:19.461Z</time>
      </trkpt>
      <trkpt lat="63.49847" lon="10.11202">
        <ele>44.06594</ele>
        <time>2020-08-08T08:30:21.444Z</time>
      </trkpt>
      <trkpt lat="63.49841" lon="10.11181">
        <ele>44.058205</ele>
        <time>2020-08-08T08:30:23.446Z</time>
      </trkpt>
      <trkpt lat="63.49835" lon="10.11159">
        <ele>44.050248</ele>
        <time>2020-08-08T08:30:25.513Z</time>
      </trkpt>
      <trkpt lat="63.49828" lon="10.11136">
        <ele>44.041992</ele>
        <time>2020-08-08T08:30:27.468Z</time>
      </trkpt>
      <trkpt lat="63.49821" lon="10.11113">
        <ele>44.113684</ele>
        <time>2020-08-08T08:30:29.503Z</time>
      </trkpt>
      <trkpt lat="63.49815" lon="10.1109">
        <ele>44.229184</ele>
        <time>2020-08-08T08:30:31.489Z</time>
      </trkpt>
      <trkpt lat="63.49809" lon="10.11067">
        <ele>44.346043</ele>
        <time>2020-08-08T08:30:33.459Z</time>
      </trkpt>
      <trkpt lat="63.49803" lon="10.11044">
        <ele>44.46067</ele>
        <time>2020-08-08T08:30:35.470Z</time>
      </trkpt>
      <trkpt lat="63.49797" lon="10.11022">
        <ele>44.572594</ele>
        <time>2020-08-08T08:30:37.444Z</time>
      </trkpt>
      <trkpt lat="63.49792" lon="10.11">
        <ele>44.680927</ele>
        <time>2020-08-08T08:30:39.453Z</time>
      </trkpt>
      <trkpt lat="63.49787" lon="10.10978">
        <ele>44.78908</ele>
        <time>2020-08-08T08:30:41.460Z</time>
      </trkpt>
      <trkpt lat="63.49781" lon="10.10956">
        <ele>44.897924</ele>
        <time>2020-08-08T08:30:43.497Z</time>
      </trkpt>
      <trkpt lat="63.49776" lon="10.10933">
        <ele>45.006708</ele>
        <time>2020-08-08T08:30:45.466Z</time>
      </trkpt>
      <trkpt lat="63.49771" lon="10.10911">
        <ele>45.116264</ele>
        <time>2020-08-08T08:30:47.469Z</time>
      </trkpt>
      <trkpt lat="63.49766" lon="10.10889">
        <ele>45.22263</ele>
        <time>2020-08-08T08:30:49.447Z</time>
      </trkpt>
      <trkpt lat="63.49762" lon="10.10868">
        <ele>45.323829</ele>
        <time>2020-08-08T08:30:51.460Z</time>
      </trkpt>
      <trkpt lat="63.49758" lon="10.10847">
        <ele>45.421808</ele>
        <time>2020-08-08T08:30:53.459Z</time>
      </trkpt>
      <trkpt lat="63.49754" lon="10.10826">
        <ele>45.517068</ele>
        <time>2020-08-08T08:30:55.467Z</time>
      </trkpt>
      <trkpt lat="63.4975" lon="10.10807">
        <ele>45.60991</ele>
        <time>2020-08-08T08:30:57.457Z</time>
      </trkpt>
      <trkpt lat="63.49747" lon="10.10788">
        <ele>45.698031</ele>
        <time>2020-08-08T08:30:59.463Z</time>
      </trkpt>
      <trkpt lat="63.49742" lon="10.1076">
        <ele>46.031158</ele>
        <time>2020-08-08T08:31:02.453Z</time>
      </trkpt>
      <trkpt lat="63.49737" lon="10.10733">
        <ele>46.693144</ele>
        <time>2020-08-08T08:31:05.495Z</time>
      </trkpt>
      <trkpt lat="63.49733" lon="10.10707">
        <ele>47.327181</ele>
        <time>2020-08-08T08:31:08.457Z</time>
      </trkpt>
      <trkpt lat="63.49729" lon="10.10682">
        <ele>47.945985</ele>
        <time>2020-08-08T08:31:11.451Z</time>
      </trkpt>
      <trkpt lat="63.49725" lon="10.10658">
        <ele>48.5319</ele>
        <time>2020-08-08T08:31:14.445Z</time>
      </trkpt>
      <trkpt lat="63.49722" lon="10.10636">
        <ele>49.06098</ele>
        <time>2020-08-08T08:31:17.453Z</time>
      </trkpt>
      <trkpt lat="63.49719" lon="10.10616">
        <ele>49.553451</ele>
        <time>2020-08-08T08:31:20.439Z</time>
      </trkpt>
      <trkpt lat="63.49716" lon="10.10596">
        <ele>50.024862</ele>
        <time>2020-08-08T08:31:23.446Z</time>
      </trkpt>
      <trkpt lat="63.49714" lon="10.10571">
        <ele>50.615919</ele>
        <time>2020-08-08T08:31:27.460Z</time>
      </trkpt>
      <trkpt lat="63.49711" lon="10.10547">
        <ele>51.184099</ele>
        <time>2020-08-08T08:31:31.425Z</time>
      </trkpt>
      <trkpt lat="63.49709" lon="10.10524">
        <ele>51.732117</ele>
        <time>2020-08-08T08:31:35.447Z</time>
      </trkpt>
      <trkpt lat="63.49708" lon="10.10501">
        <ele>52.25739</ele>
        <time>2020-08-08T08:31:39.431Z</time>
      </trkpt>
      <trkpt lat="63.49706" lon="10.10479">
        <ele>52.781788</ele>
        <time>2020-08-08T08:31:43.473Z</time>
      </trkpt>
      <trkpt lat="63.49704" lon="10.10458">
        <ele>53.276106</ele>
        <time>2020-08-08T08:31:47.469Z</time>
      </trkpt>
      <trkpt lat="63.49702" lon="10.10438">
        <ele>53.755386</ele>
        <time>2020-08-08T08:31:51.465Z</time>
      </trkpt>
      <trkpt lat="63.497" lon="10.10418">
        <ele>54.222341</ele>
        <time>2020-08-08T08:31:55.460Z</time>
      </trkpt>
      <trkpt lat="63.49697" lon="10.10396">
        <ele>54.747965</ele>
        <time>2020-08-08T08:32:00.473Z</time>
      </trkpt>
      <trkpt lat="63.49695" lon="10.10374">
        <ele>55.412689</ele>
        <time>2020-08-08T08:32:05.439Z</time>
      </trkpt>
      <trkpt lat="63.49694" lon="10.10353">
        <ele>56.36056</ele>
        <time>2020-08-08T08:32:10.501Z</time>
      </trkpt>
      <trkpt lat="63.49692" lon="10.10333">
        <ele>57.253024</ele>
        <time>2020-08-08T08:32:15.488Z</time>
      </trkpt>
      <trkpt lat="63.4969" lon="10.10313">
        <ele>58.142579</ele>
        <time>2020-08-08T08:32:20.443Z</time>
      </trkpt>
      <trkpt lat="63.49689" lon="10.10292">
        <ele>59.065095</ele>
        <time>2020-08-08T08:32:25.456Z</time>
      </trkpt>
      <trkpt lat="63.49688" lon="10.1027">
        <ele>60.049512</ele>
        <time>2020-08-08T08:32:30.449Z</time>
      </trkpt>
      <trkpt lat="63.49686" lon="10.10246">
        <ele>61.119429</ele>
        <time>2020-08-08T08:32:35.434Z</time>
      </trkpt>
      <trkpt lat="63.49684" lon="10.10226">
        <ele>62.017999</ele>
        <time>2020-08-08T08:32:39.442Z</time>
      </trkpt>
      <trkpt lat="63.49682" lon="10.10203">
        <ele>63.049235</ele>
        <time>2020-08-08T08:32:44.436Z</time>
      </trkpt>
      <trkpt lat="63.49678" lon="10.10182">
        <ele>64.045834</ele>
        <time>2020-08-08T08:32:49.458Z</time>
      </trkpt>
      <trkpt lat="63.49676" lon="10.1016">
        <ele>65.031992</ele>
        <time>2020-08-08T08:32:55.451Z</time>
      </trkpt>
      <trkpt lat="63.49674" lon="10.10136">
        <ele>66.090874</ele>
        <time>2020-08-08T08:33:01.453Z</time>
      </trkpt>
      <trkpt lat="63.49672" lon="10.10116">
        <ele>66.995635</ele>
        <time>2020-08-08T08:33:06.451Z</time>
      </trkpt>
      <trkpt lat="63.4967" lon="10.10096">
        <ele>67.895085</ele>
        <time>2020-08-08T08:33:11.475Z</time>
      </trkpt>
      <trkpt lat="63.49669" lon="10.10073">
        <ele>68.916566</ele>
        <time>2020-08-08T08:33:17.498Z</time>
      </trkpt>
      <trkpt lat="63.49668" lon="10.1005">
        <ele>69.929866</ele>
        <time>2020-08-08T08:33:23.425Z</time>
      </trkpt>
      <trkpt lat="63.49668" lon="10.10028">
        <ele>70.893046</ele>
        <time>2020-08-08T08:33:29.442Z</time>
      </trkpt>
      <trkpt lat="63.49668" lon="10.10008">
        <ele>71.77596</ele>
        <time>2020-08-08T08:33:34.456Z</time>
      </trkpt>
      <trkpt lat="63.49668" lon="10.09987">
        <ele>72.694433</ele>
        <time>2020-08-08T08:33:39.490Z</time>
      </trkpt>
      <trkpt lat="63.49667" lon="10.09964">
        <ele>73.454021</ele>
        <time>2020-08-08T08:33:46.475Z</time>
      </trkpt>
      <trkpt lat="63.49668" lon="10.09943">
        <ele>74.133808</ele>
        <time>2020-08-08T08:33:52.435Z</time>
      </trkpt>
      <trkpt lat="63.49671" lon="10.0992">
        <ele>74.887781</ele>
        <time>2020-08-08T08:33:59.438Z</time>
      </trkpt>
      <trkpt lat="63.49673" lon="10.099">
        <ele>75.545812</ele>
        <time>2020-08-08T08:34:06.494Z</time>
      </trkpt>
      <trkpt lat="63.49676" lon="10.0988">
        <ele>76.19122</ele>
        <time>2020-08-08T08:34:13.440Z</time>
      </trkpt>
      <trkpt lat="63.49679" lon="10.09861">
        <ele>76.832841</ele>
        <time>2020-08-08T08:34:19.447Z</time>
      </trkpt>
      <trkpt lat="63.49681" lon="10.09841">
        <ele>77.506851</ele>
        <time>2020-08-08T08:34:26.456Z</time>
      </trkpt>
      <trkpt lat="63.49683" lon="10.09818">
        <ele>78.23381</ele>
        <time>2020-08-08T08:34:33.445Z</time>
      </trkpt>
      <trkpt lat="63.49687" lon="10.09798">
        <ele>78.927913</ele>
        <time>2020-08-08T08:34:39.442Z</time>
      </trkpt>
      <trkpt lat="63.49692" lon="10.09778">
        <ele>79.677823</ele>
        <time>2020-08-08T08:34:45.479Z</time>
      </trkpt>
      <trkpt lat="63.49696" lon="10.09756">
        <ele>80.415901</ele>
        <time>2020-08-08T08:34:51.464Z</time>
      </trkpt>
      <trkpt lat="63.497" lon="10.09736">
        <ele>81.110594</ele>
        <time>2020-08-08T08:34:57.429Z</time>
      </trkpt>
      <trkpt lat="63.49703" lon="10.09715">
        <ele>81.824025</ele>
        <time>2020-08-08T08:35:03.483Z</time>
      </trkpt>
      <trkpt lat="63.49706" lon="10.09695">
        <ele>82.507108</ele>
        <time>2020-08-08T08:35:09.470Z</time>
      </trkpt>
      <trkpt lat="63.4971" lon="10.09673">
        <ele>83.239294</ele>
        <time>2020-08-08T08:35:16.437Z</time>
      </trkpt>
      <trkpt lat="63.49712" lon="10.09653">
        <ele>83.904073</ele>
        <time>2020-08-08T08:35:22.446Z</time>
      </trkpt>
      <trkpt lat="63.49715" lon="10.09633">
        <ele>84.578099</ele>
        <time>2020-08-08T08:35:29.482Z</time>
      </trkpt>
      <trkpt lat="63.49718" lon="10.09613">
        <ele>85.240577</ele>
        <time>2020-08-08T08:35:36.449Z</time>
      </trkpt>
      <trkpt lat="63.4972" lon="10.09591">
        <ele>85.960633</ele>
        <time>2020-08-08T08:35:43.453Z</time>
      </trkpt>
      <trkpt lat="63.49724" lon="10.09571">
        <ele>86.660765</ele>
        <time>2020-08-08T08:35:50.440Z</time>
      </trkpt>
      <trkpt lat="63.49726" lon="10.09551">
        <ele>87.342562</ele>
        <time>2020-08-08T08:35:57.473Z</time>
      </trkpt>
      <trkpt lat="63.4973" lon="10.09531">
        <ele>88.02057</ele>
        <time>2020-08-08T08:36:05.457Z</time>
      </trkpt>
      <trkpt lat="63.49733" lon="10.09509">
        <ele>88.780328</ele>
        <time>2020-08-08T08:36:12.454Z</time>
      </trkpt>
      <trkpt lat="63.49735" lon="10.09487">
        <ele>89.515919</ele>
        <time>2020-08-08T08:36:20.450Z</time>
      </trkpt>
      <trkpt lat="63.49737" lon="10.09467">
        <ele>90.173848</ele>
        <time>2020-08-08T08:36:27.501Z</time>
      </trkpt>
      <trkpt lat="63.49739" lon="10.09448">
        <ele>90.828778</ele>
        <time>2020-08-08T08:36:34.486Z</time>
      </trkpt>
      <trkpt lat="63.49742" lon="10.09426">
        <ele>91.55684</ele>
        <time>2020-08-08T08:36:42.457Z</time>
      </trkpt>
      <trkpt lat="63.49744" lon="10.09404">
        <ele>92.275229</ele>
        <time>2020-08-08T08:36:50.486Z</time>
      </trkpt>
      <trkpt lat="63.49746" lon="10.09384">
        <ele>92.948032</ele>
        <time>2020-08-08T08:36:57.464Z</time>
      </trkpt>
      <trkpt lat="63.49747" lon="10.09362">
        <ele>93.693704</ele>
        <time>2020-08-08T08:37:05.491Z</time>
      </trkpt>
      <trkpt lat="63.49747" lon="10.09341">
        <ele>94.353331</ele>
        <time>2020-08-08T08:37:11.456Z</time>
      </trkpt>
      <trkpt lat="63.49746" lon="10.09321">
        <ele>95.010345</ele>
        <time>2020-08-08T08:37:18.494Z</time>
      </trkpt>
      <trkpt lat="63.49747" lon="10.09301">
        <ele>95.669178</ele>
        <time>2020-08-08T08:37:25.447Z</time>
      </trkpt>
      <trkpt lat="63.49748" lon="10.09279">
        <ele>96.383632</ele>
        <time>2020-08-08T08:37:32.455Z</time>
      </trkpt>
      <trkpt lat="63.49748" lon="10.09257">
        <ele>97.118716</ele>
        <time>2020-08-08T08:37:40.434Z</time>
      </trkpt>
      <trkpt lat="63.49748" lon="10.09235">
        <ele>97.83109</ele>
        <time>2020-08-08T08:37:48.466Z</time>
      </trkpt>
      <trkpt lat="63.49747" lon="10.09212">
        <ele>98.560086</ele>
        <time>2020-08-08T08:37:56.474Z</time>
      </trkpt>
      <trkpt lat="63.49749" lon="10.0919">
        <ele>98.67704</ele>
        <time>2020-08-08T08:38:04.465Z</time>
      </trkpt>
      <trkpt lat="63.49751" lon="10.09168">
        <ele>98.661285</ele>
        <time>2020-08-08T08:38:11.457Z</time>
      </trkpt>
      <trkpt lat="63.49752" lon="10.09148">
        <ele>98.646354</ele>
        <time>2020-08-08T08:38:19.462Z</time>
      </trkpt>
      <trkpt lat="63.49749" lon="10.09127">
        <ele>98.630129</ele>
        <time>2020-08-08T08:38:27.455Z</time>
      </trkpt>
      <trkpt lat="63.49742" lon="10.09109">
        <ele>98.612581</ele>
        <time>2020-08-08T08:38:34.449Z</time>
      </trkpt>
      <trkpt lat="63.49733" lon="10.09098">
        <ele>98.595175</ele>
        <time>2020-08-08T08:38:37.515Z</time>
      </trkpt>
      <trkpt lat="63.49724" lon="10.0909">
        <ele>98.579408</ele>
        <time>2020-08-08T08:38:39.447Z</time>
      </trkpt>
      <trkpt lat="63.49715" lon="10.09082">
        <ele>98.564119</ele>
        <time>2020-08-08T08:38:41.432Z</time>
      </trkpt>
      <trkpt lat="63.49707" lon="10.09072">
        <ele>98.54854</ele>
        <time>2020-08-08T08:38:43.454Z</time>
      </trkpt>
      <trkpt lat="63.49698" lon="10.09055">
        <ele>98.528992</ele>
        <time>2020-08-08T08:38:46.459Z</time>
      </trkpt>
      <trkpt lat="63.4969" lon="10.09029">
        <ele>98.506978</ele>
        <time>2020-08-08T08:38:49.453Z</time>
      </trkpt>
      <trkpt lat="63.49689" lon="10.09007">
        <ele>98.49063</ele>
        <time>2020-08-08T08:38:51.441Z</time>
      </trkpt>
      <trkpt lat="63.49688" lon="10.08984">
        <ele>98.473325</ele>
        <time>2020-08-08T08:38:53.438Z</time>
      </trkpt>
      <trkpt lat="63.49687" lon="10.08959">
        <ele>98.454863</ele>
        <time>2020-08-08T08:38:55.477Z</time>
      </trkpt>
      <trkpt lat="63.49685" lon="10.08933">
        <ele>98.435904</ele>
        <time>2020-08-08T08:38:57.454Z</time>
      </trkpt>
      <trkpt lat="63.49682" lon="10.08909">
        <ele>98.417641</ele>
        <time>2020-08-08T08:39:00.440Z</time>
      </trkpt>
      <trkpt lat="63.49681" lon="10.08885">
        <ele>98.399945</ele>
        <time>2020-08-08T08:39:03.442Z</time>
      </trkpt>
      <trkpt lat="63.4968" lon="10.08864">
        <ele>97.968426</ele>
        <time>2020-08-08T08:39:05.455Z</time>
      </trkpt>
      <trkpt lat="63.4968" lon="10.08839">
        <ele>97.294223</ele>
        <time>2020-08-08T08:39:07.458Z</time>
      </trkpt>
      <trkpt lat="63.4968" lon="10.08816">
        <ele>96.642158</ele>
        <time>2020-08-08T08:39:09.489Z</time>
      </trkpt>
      <trkpt lat="63.49679" lon="10.08787">
        <ele>95.86459</ele>
        <time>2020-08-08T08:39:12.438Z</time>
      </trkpt>
      <trkpt lat="63.49679" lon="10.08764">
        <ele>95.236878</ele>
        <time>2020-08-08T08:39:16.444Z</time>
      </trkpt>
      <trkpt lat="63.49678" lon="10.08738">
        <ele>94.51422</ele>
        <time>2020-08-08T08:39:21.448Z</time>
      </trkpt>
      <trkpt lat="63.49676" lon="10.08706">
        <ele>93.634109</ele>
        <time>2020-08-08T08:39:24.446Z</time>
      </trkpt>
      <trkpt lat="63.49674" lon="10.08682">
        <ele>92.954902</ele>
        <time>2020-08-08T08:39:26.444Z</time>
      </trkpt>
      <trkpt lat="63.4967" lon="10.08658">
        <ele>92.255612</ele>
        <time>2020-08-08T08:39:28.431Z</time>
      </trkpt>
      <trkpt lat="63.49665" lon="10.08633">
        <ele>91.512837</ele>
        <time>2020-08-08T08:39:30.442Z</time>
      </trkpt>
      <trkpt lat="63.4966" lon="10.08608">
        <ele>90.750274</ele>
        <time>2020-08-08T08:39:32.442Z</time>
      </trkpt>
      <trkpt lat="63.49655" lon="10.08583">
        <ele>90.00738</ele>
        <time>2020-08-08T08:39:34.455Z</time>
      </trkpt>
      <trkpt lat="63.49652" lon="10.08562">
        <ele>89.414771</ele>
        <time>2020-08-08T08:39:36.452Z</time>
      </trkpt>
      <trkpt lat="63.49649" lon="10.08538">
        <ele>88.738601</ele>
        <time>2020-08-08T08:39:38.495Z</time>
      </trkpt>
      <trkpt lat="63.49646" lon="10.08513">
        <ele>88.016593</ele>
        <time>2020-08-08T08:39:40.434Z</time>
      </trkpt>
      <trkpt lat="63.49643" lon="10.08486">
        <ele>87.301843</ele>
        <time>2020-08-08T08:39:42.466Z</time>
      </trkpt>
      <trkpt lat="63.4964" lon="10.08459">
        <ele>86.848156</ele>
        <time>2020-08-08T08:39:44.474Z</time>
      </trkpt>
      <trkpt lat="63.49637" lon="10.08432">
        <ele>86.388184</ele>
        <time>2020-08-08T08:39:46.437Z</time>
      </trkpt>
      <trkpt lat="63.49633" lon="10.08404">
        <ele>85.920146</ele>
        <time>2020-08-08T08:39:48.517Z</time>
      </trkpt>
      <trkpt lat="63.49631" lon="10.08379">
        <ele>85.500607</ele>
        <time>2020-08-08T08:39:50.450Z</time>
      </trkpt>
      <trkpt lat="63.49631" lon="10.08355">
        <ele>85.118137</ele>
        <time>2020-08-08T08:39:52.469Z</time>
      </trkpt>
      <trkpt lat="63.49632" lon="10.08335">
        <ele>84.789513</ele>
        <time>2020-08-08T08:39:54.434Z</time>
      </trkpt>
      <trkpt lat="63.49634" lon="10.08309">
        <ele>84.350852</ele>
        <time>2020-08-08T08:39:57.440Z</time>
      </trkpt>
      <trkpt lat="63.49636" lon="10.08288">
        <ele>84.006582</ele>
        <time>2020-08-08T08:39:59.439Z</time>
      </trkpt>
      <trkpt lat="63.49638" lon="10.08265">
        <ele>83.629021</ele>
        <time>2020-08-08T08:40:01.441Z</time>
      </trkpt>
      <trkpt lat="63.4964" lon="10.08242">
        <ele>83.250742</ele>
        <time>2020-08-08T08:40:03.459Z</time>
      </trkpt>
      <trkpt lat="63.49642" lon="10.08221">
        <ele>82.900242</ele>
        <time>2020-08-08T08:40:05.430Z</time>
      </trkpt>
      <trkpt lat="63.49644" lon="10.08199">
        <ele>82.537861</ele>
        <time>2020-08-08T08:40:07.457Z</time>
      </trkpt>
      <trkpt lat="63.49645" lon="10.08175">
        <ele>82.144899</ele>
        <time>2020-08-08T08:40:09.435Z</time>
      </trkpt>
      <trkpt lat="63.49644" lon="10.08149">
        <ele>81.710832</ele>
        <time>2020-08-08T08:40:11.470Z</time>
      </trkpt>
      <trkpt lat="63.49642" lon="10.08123">
        <ele>81.280838</ele>
        <time>2020-08-08T08:40:13.453Z</time>
      </trkpt>
      <trkpt lat="63.4964" lon="10.08102">
        <ele>80.929488</ele>
        <time>2020-08-08T08:40:15.464Z</time>
      </trkpt>
      <trkpt lat="63.49638" lon="10.08078">
        <ele>80.690073</ele>
        <time>2020-08-08T08:40:18.445Z</time>
      </trkpt>
      <trkpt lat="63.49638" lon="10.08051">
        <ele>80.492126</ele>
        <time>2020-08-08T08:40:21.492Z</time>
      </trkpt>
      <trkpt lat="63.49636" lon="10.08028">
        <ele>80.320292</ele>
        <time>2020-08-08T08:40:23.484Z</time>
      </trkpt>
      <trkpt lat="63.49635" lon="10.08003">
        <ele>80.140298</ele>
        <time>2020-08-08T08:40:25.461Z</time>
      </trkpt>
      <trkpt lat="63.49634" lon="10.07978">
        <ele>79.95791</ele>
        <time>2020-08-08T08:40:27.490Z</time>
      </trkpt>
      <trkpt lat="63.49632" lon="10.07957">
        <ele>79.803043</ele>
        <time>2020-08-08T08:40:29.444Z</time>
      </trkpt>
      <trkpt lat="63.4963" lon="10.07931">
        <ele>79.603945</ele>
        <time>2020-08-08T08:40:32.470Z</time>
      </trkpt>
      <trkpt lat="63.49629" lon="10.0791">
        <ele>79.451324</ele>
        <time>2020-08-08T08:40:34.452Z</time>
      </trkpt>
      <trkpt lat="63.49627" lon="10.07888">
        <ele>79.288564</ele>
        <time>2020-08-08T08:40:36.453Z</time>
      </trkpt>
      <trkpt lat="63.49625" lon="10.07866">
        <ele>79.126932</ele>
        <time>2020-08-08T08:40:38.478Z</time>
      </trkpt>
      <trkpt lat="63.49622" lon="10.07846">
        <ele>78.976658</ele>
        <time>2020-08-08T08:40:40.450Z</time>
      </trkpt>
      <trkpt lat="63.49619" lon="10.0782">
        <ele>78.776798</ele>
        <time>2020-08-08T08:40:43.469Z</time>
      </trkpt>
      <trkpt lat="63.49616" lon="10.07797">
        <ele>78.602169</ele>
        <time>2020-08-08T08:40:46.457Z</time>
      </trkpt>
      <trkpt lat="63.49613" lon="10.07775">
        <ele>78.430651</ele>
        <time>2020-08-08T08:40:49.436Z</time>
      </trkpt>
      <trkpt lat="63.49609" lon="10.07751">
        <ele>78.24648</ele>
        <time>2020-08-08T08:40:52.455Z</time>
      </trkpt>
      <trkpt lat="63.49605" lon="10.07728">
        <ele>78.062882</ele>
        <time>2020-08-08T08:40:55.439Z</time>
      </trkpt>
      <trkpt lat="63.496" lon="10.07701">
        <ele>77.846792</ele>
        <time>2020-08-08T08:40:58.461Z</time>
      </trkpt>
      <trkpt lat="63.49595" lon="10.07679">
        <ele>77.616891</ele>
        <time>2020-08-08T08:41:00.451Z</time>
      </trkpt>
      <trkpt lat="63.4959" lon="10.07656">
        <ele>77.370622</ele>
        <time>2020-08-08T08:41:02.477Z</time>
      </trkpt>
      <trkpt lat="63.49586" lon="10.07636">
        <ele>77.164123</ele>
        <time>2020-08-08T08:41:04.455Z</time>
      </trkpt>
      <trkpt lat="63.49582" lon="10.07611">
        <ele>76.918928</ele>
        <time>2020-08-08T08:41:07.453Z</time>
      </trkpt>
      <trkpt lat="63.49578" lon="10.07589">
        <ele>76.689866</ele>
        <time>2020-08-08T08:41:10.437Z</time>
      </trkpt>
      <trkpt lat="63.49572" lon="10.07567">
        <ele>76.446131</ele>
        <time>2020-08-08T08:41:14.440Z</time>
      </trkpt>
      <trkpt lat="63.49566" lon="10.07546">
        <ele>76.202547</ele>
        <time>2020-08-08T08:41:18.476Z</time>
      </trkpt>
      <trkpt lat="63.4956" lon="10.07523">
        <ele>75.953842</ele>
        <time>2020-08-08T08:41:22.449Z</time>
      </trkpt>
      <trkpt lat="63.49555" lon="10.07499">
        <ele>75.711242</ele>
        <time>2020-08-08T08:41:25.447Z</time>
      </trkpt>
      <trkpt lat="63.49547" lon="10.0748">
        <ele>75.465094</ele>
        <time>2020-08-08T08:41:28.480Z</time>
      </trkpt>
      <trkpt lat="63.4954" lon="10.07467">
        <ele>75.273239</ele>
        <time>2020-08-08T08:41:30.470Z</time>
      </trkpt>
      <trkpt lat="63.49532" lon="10.07453">
        <ele>75.048544</ele>
        <time>2020-08-08T08:41:33.457Z</time>
      </trkpt>
      <trkpt lat="63.49524" lon="10.07437">
        <ele>74.82413</ele>
        <time>2020-08-08T08:41:38.479Z</time>
      </trkpt>
      <trkpt lat="63.49517" lon="10.07423">
        <ele>74.629653</ele>
        <time>2020-08-08T08:41:42.466Z</time>
      </trkpt>
      <trkpt lat="63.49509" lon="10.07404">
        <ele>74.371151</ele>
        <time>2020-08-08T08:41:46.505Z</time>
      </trkpt>
      <trkpt lat="63.49501" lon="10.07386">
        <ele>74.144494</ele>
        <time>2020-08-08T08:41:49.514Z</time>
      </trkpt>
      <trkpt lat="63.49495" lon="10.0737">
        <ele>74.406925</ele>
        <time>2020-08-08T08:41:52.497Z</time>
      </trkpt>
      <trkpt lat="63.49489" lon="10.07349">
        <ele>75.060788</ele>
        <time>2020-08-08T08:41:55.441Z</time>
      </trkpt>
      <trkpt lat="63.49483" lon="10.07331">
        <ele>75.664709</ele>
        <time>2020-08-08T08:41:57.440Z</time>
      </trkpt>
      <trkpt lat="63.49477" lon="10.07309">
        <ele>76.360905</ele>
        <time>2020-08-08T08:41:59.440Z</time>
      </trkpt>
      <trkpt lat="63.49471" lon="10.07291">
        <ele>76.959075</ele>
        <time>2020-08-08T08:42:01.477Z</time>
      </trkpt>
      <trkpt lat="63.49466" lon="10.07265">
        <ele>77.705775</ele>
        <time>2020-08-08T08:42:04.457Z</time>
      </trkpt>
      <trkpt lat="63.49465" lon="10.07243">
        <ele>78.308215</ele>
        <time>2020-08-08T08:42:08.437Z</time>
      </trkpt>
      <trkpt lat="63.49464" lon="10.07222">
        <ele>78.865137</ele>
        <time>2020-08-08T08:42:20.434Z</time>
      </trkpt>
      <trkpt lat="63.49463" lon="10.07202">
        <ele>79.410694</ele>
        <time>2020-08-08T08:42:26.446Z</time>
      </trkpt>
      <trkpt lat="63.4946" lon="10.07181">
        <ele>80.018975</ele>
        <time>2020-08-08T08:42:33.461Z</time>
      </trkpt>
      <trkpt lat="63.49456" lon="10.0716">
        <ele>80.619037</ele>
        <time>2020-08-08T08:42:37.480Z</time>
      </trkpt>
      <trkpt lat="63.49452" lon="10.0714">
        <ele>81.184997</ele>
        <time>2020-08-08T08:42:43.440Z</time>
      </trkpt>
      <trkpt lat="63.49451" lon="10.07119">
        <ele>81.748517</ele>
        <time>2020-08-08T08:42:50.426Z</time>
      </trkpt>
      <trkpt lat="63.4945" lon="10.07098">
        <ele>82.328034</ele>
        <time>2020-08-08T08:42:59.434Z</time>
      </trkpt>
      <trkpt lat="63.4945" lon="10.07076">
        <ele>82.913582</ele>
        <time>2020-08-08T08:43:09.427Z</time>
      </trkpt>
      <trkpt lat="63.49448" lon="10.07054">
        <ele>83.502277</ele>
        <time>2020-08-08T08:43:17.429Z</time>
      </trkpt>
      <trkpt lat="63.49447" lon="10.07032">
        <ele>84.107181</ele>
        <time>2020-08-08T08:43:24.458Z</time>
      </trkpt>
      <trkpt lat="63.49444" lon="10.07011">
        <ele>84.703383</ele>
        <time>2020-08-08T08:43:30.469Z</time>
      </trkpt>
      <trkpt lat="63.49442" lon="10.0699">
        <ele>85.49001</ele>
        <time>2020-08-08T08:43:36.477Z</time>
      </trkpt>
      <trkpt lat="63.4944" lon="10.06968">
        <ele>86.412391</ele>
        <time>2020-08-08T08:43:43.430Z</time>
      </trkpt>
      <trkpt lat="63.4944" lon="10.06946">
        <ele>87.328318</ele>
        <time>2020-08-08T08:43:50.493Z</time>
      </trkpt>
      <trkpt lat="63.49439" lon="10.06923">
        <ele>88.29074</ele>
        <time>2020-08-08T08:43:57.439Z</time>
      </trkpt>
      <trkpt lat="63.4944" lon="10.069">
        <ele>89.246136</ele>
        <time>2020-08-08T08:44:04.470Z</time>
      </trkpt>
      <trkpt lat="63.49441" lon="10.06877">
        <ele>90.171977</ele>
        <time>2020-08-08T08:44:12.446Z</time>
      </trkpt>
      <trkpt lat="63.49441" lon="10.06856">
        <ele>91.051986</ele>
        <time>2020-08-08T08:44:19.473Z</time>
      </trkpt>
      <trkpt lat="63.49442" lon="10.06834">
        <ele>91.984462</ele>
        <time>2020-08-08T08:44:26.455Z</time>
      </trkpt>
      <trkpt lat="63.49441" lon="10.06812">
        <ele>92.88621</ele>
        <time>2020-08-08T08:44:32.449Z</time>
      </trkpt>
      <trkpt lat="63.49441" lon="10.0679">
        <ele>93.769324</ele>
        <time>2020-08-08T08:44:39.473Z</time>
      </trkpt>
      <trkpt lat="63.4944" lon="10.06768">
        <ele>94.706326</ele>
        <time>2020-08-08T08:44:47.448Z</time>
      </trkpt>
      <trkpt lat="63.4944" lon="10.06745">
        <ele>95.626425</ele>
        <time>2020-08-08T08:44:56.451Z</time>
      </trkpt>
      <trkpt lat="63.4944" lon="10.06724">
        <ele>96.530164</ele>
        <time>2020-08-08T08:45:04.462Z</time>
      </trkpt>
      <trkpt lat="63.49439" lon="10.06701">
        <ele>97.459921</ele>
        <time>2020-08-08T08:45:11.430Z</time>
      </trkpt>
      <trkpt lat="63.4944" lon="10.06681">
        <ele>98.312931</ele>
        <time>2020-08-08T08:45:17.488Z</time>
      </trkpt>
      <trkpt lat="63.49441" lon="10.06658">
        <ele>99.241721</ele>
        <time>2020-08-08T08:45:22.468Z</time>
      </trkpt>
      <trkpt lat="63.49441" lon="10.06638">
        <ele>100.068743</ele>
        <time>2020-08-08T08:45:27.437Z</time>
      </trkpt>
      <trkpt lat="63.49442" lon="10.06616">
        <ele>100.993769</ele>
        <time>2020-08-08T08:45:32.462Z</time>
      </trkpt>
      <trkpt lat="63.49442" lon="10.06595">
        <ele>101.799529</ele>
        <time>2020-08-08T08:45:37.430Z</time>
      </trkpt>
      <trkpt lat="63.49443" lon="10.06573">
        <ele>102.504026</ele>
        <time>2020-08-08T08:45:42.489Z</time>
      </trkpt>
      <trkpt lat="63.49443" lon="10.0655">
        <ele>103.238976</ele>
        <time>2020-08-08T08:45:48.445Z</time>
      </trkpt>
      <trkpt lat="63.49442" lon="10.06527">
        <ele>103.970809</ele>
        <time>2020-08-08T08:45:53.442Z</time>
      </trkpt>
      <trkpt lat="63.49443" lon="10.06507">
        <ele>104.631569</ele>
        <time>2020-08-08T08:45:58.446Z</time>
      </trkpt>
      <trkpt lat="63.49443" lon="10.06485">
        <ele>105.322301</ele>
        <time>2020-08-08T08:46:03.515Z</time>
      </trkpt>
      <trkpt lat="63.49443" lon="10.06465">
        <ele>105.98371</ele>
        <time>2020-08-08T08:46:08.449Z</time>
      </trkpt>
      <trkpt lat="63.4944" lon="10.06444">
        <ele>106.688301</ele>
        <time>2020-08-08T08:46:13.443Z</time>
      </trkpt>
      <trkpt lat="63.49438" lon="10.06422">
        <ele>107.405581</ele>
        <time>2020-08-08T08:46:18.465Z</time>
      </trkpt>
      <trkpt lat="63.49434" lon="10.064">
        <ele>108.188952</ele>
        <time>2020-08-08T08:46:23.438Z</time>
      </trkpt>
      <trkpt lat="63.49433" lon="10.06376">
        <ele>108.979444</ele>
        <time>2020-08-08T08:46:28.480Z</time>
      </trkpt>
      <trkpt lat="63.49432" lon="10.06354">
        <ele>109.67146</ele>
        <time>2020-08-08T08:46:33.469Z</time>
      </trkpt>
      <trkpt lat="63.4943" lon="10.06332">
        <ele>110.40053</ele>
        <time>2020-08-08T08:46:39.478Z</time>
      </trkpt>
      <trkpt lat="63.4943" lon="10.06311">
        <ele>111.058722</ele>
        <time>2020-08-08T08:46:44.447Z</time>
      </trkpt>
      <trkpt lat="63.49429" lon="10.0629">
        <ele>111.757135</ele>
        <time>2020-08-08T08:46:49.453Z</time>
      </trkpt>
      <trkpt lat="63.49427" lon="10.0627">
        <ele>112.430372</ele>
        <time>2020-08-08T08:46:54.453Z</time>
      </trkpt>
      <trkpt lat="63.49425" lon="10.06249">
        <ele>113.100983</ele>
        <time>2020-08-08T08:46:59.464Z</time>
      </trkpt>
      <trkpt lat="63.49423" lon="10.06226">
        <ele>113.858111</ele>
        <time>2020-08-08T08:47:04.453Z</time>
      </trkpt>
      <trkpt lat="63.49422" lon="10.06205">
        <ele>114.503963</ele>
        <time>2020-08-08T08:47:08.465Z</time>
      </trkpt>
      <trkpt lat="63.4942" lon="10.06182">
        <ele>114.780312</ele>
        <time>2020-08-08T08:47:13.487Z</time>
      </trkpt>
      <trkpt lat="63.49415" lon="10.06164">
        <ele>115.027785</ele>
        <time>2020-08-08T08:47:17.489Z</time>
      </trkpt>
      <trkpt lat="63.49413" lon="10.06143">
        <ele>115.276906</ele>
        <time>2020-08-08T08:47:22.438Z</time>
      </trkpt>
      <trkpt lat="63.49411" lon="10.06123">
        <ele>115.527217</ele>
        <time>2020-08-08T08:47:27.438Z</time>
      </trkpt>
      <trkpt lat="63.49408" lon="10.06103">
        <ele>115.78169</ele>
        <time>2020-08-08T08:47:32.433Z</time>
      </trkpt>
      <trkpt lat="63.49405" lon="10.06079">
        <ele>116.070461</ele>
        <time>2020-08-08T08:47:37.482Z</time>
      </trkpt>
      <trkpt lat="63.494" lon="10.06056">
        <ele>116.371895</ele>
        <time>2020-08-08T08:47:42.449Z</time>
      </trkpt>
      <trkpt lat="63.49395" lon="10.06035">
        <ele>116.649526</ele>
        <time>2020-08-08T08:47:47.484Z</time>
      </trkpt>
      <trkpt lat="63.49391" lon="10.06013">
        <ele>116.937059</ele>
        <time>2020-08-08T08:47:51.472Z</time>
      </trkpt>
      <trkpt lat="63.49388" lon="10.0599">
        <ele>117.218819</ele>
        <time>2020-08-08T08:47:55.440Z</time>
      </trkpt>
      <trkpt lat="63.49386" lon="10.05965">
        <ele>117.521518</ele>
        <time>2020-08-08T08:48:00.482Z</time>
      </trkpt>
      <trkpt lat="63.49385" lon="10.05944">
        <ele>117.77292</ele>
        <time>2020-08-08T08:48:04.464Z</time>
      </trkpt>
      <trkpt lat="63.49385" lon="10.05921">
        <ele>118.043655</ele>
        <time>2020-08-08T08:48:09.479Z</time>
      </trkpt>
      <trkpt lat="63.49382" lon="10.059">
        <ele>118.312022</ele>
        <time>2020-08-08T08:48:14.437Z</time>
      </trkpt>
      <trkpt lat="63.49377" lon="10.0588">
        <ele>118.581453</ele>
        <time>2020-08-08T08:48:19.462Z</time>
      </trkpt>
      <trkpt lat="63.49372" lon="10.05861">
        <ele>118.842723</ele>
        <time>2020-08-08T08:48:24.481Z</time>
      </trkpt>
      <trkpt lat="63.49367" lon="10.05843">
        <ele>119.099751</ele>
        <time>2020-08-08T08:48:28.477Z</time>
      </trkpt>
      <trkpt lat="63.49362" lon="10.05824">
        <ele>119.179519</ele>
        <time>2020-08-08T08:48:33.454Z</time>
      </trkpt>
      <trkpt lat="63.49357" lon="10.05806">
        <ele>118.932663</ele>
        <time>2020-08-08T08:48:36.460Z</time>
      </trkpt>
      <trkpt lat="63.49351" lon="10.05785">
        <ele>118.652345</ele>
        <time>2020-08-08T08:48:39.474Z</time>
      </trkpt>
      <trkpt lat="63.49345" lon="10.05765">
        <ele>118.363188</ele>
        <time>2020-08-08T08:48:43.473Z</time>
      </trkpt>
      <trkpt lat="63.49338" lon="10.05746">
        <ele>118.07451</ele>
        <time>2020-08-08T08:48:46.457Z</time>
      </trkpt>
      <trkpt lat="63.4933" lon="10.05726">
        <ele>117.752951</ele>
        <time>2020-08-08T08:48:49.453Z</time>
      </trkpt>
      <trkpt lat="63.4932" lon="10.05706">
        <ele>117.419173</ele>
        <time>2020-08-08T08:48:52.498Z</time>
      </trkpt>
      <trkpt lat="63.49314" lon="10.05689">
        <ele>117.166214</ele>
        <time>2020-08-08T08:48:54.495Z</time>
      </trkpt>
      <trkpt lat="63.49308" lon="10.05667">
        <ele>116.859744</ele>
        <time>2020-08-08T08:48:56.518Z</time>
      </trkpt>
      <trkpt lat="63.49301" lon="10.05642">
        <ele>116.526017</ele>
        <time>2020-08-08T08:48:58.464Z</time>
      </trkpt>
      <trkpt lat="63.49295" lon="10.05621">
        <ele>116.228642</ele>
        <time>2020-08-08T08:49:00.441Z</time>
      </trkpt>
      <trkpt lat="63.4929" lon="10.05602">
        <ele>115.974336</ele>
        <time>2020-08-08T08:49:02.446Z</time>
      </trkpt>
      <trkpt lat="63.49283" lon="10.0558">
        <ele>115.659584</ele>
        <time>2020-08-08T08:49:05.476Z</time>
      </trkpt>
      <trkpt lat="63.49276" lon="10.05563">
        <ele>115.389277</ele>
        <time>2020-08-08T08:49:08.440Z</time>
      </trkpt>
      <trkpt lat="63.49268" lon="10.05542">
        <ele>115.074666</ele>
        <time>2020-08-08T08:49:11.450Z</time>
      </trkpt>
      <trkpt lat="63.49262" lon="10.05526">
        <ele>114.817371</ele>
        <time>2020-08-08T08:49:13.433Z</time>
      </trkpt>
      <trkpt lat="63.49255" lon="10.05508">
        <ele>114.482609</ele>
        <time>2020-08-08T08:49:15.444Z</time>
      </trkpt>
      <trkpt lat="63.49249" lon="10.05488">
        <ele>113.692757</ele>
        <time>2020-08-08T08:49:17.471Z</time>
      </trkpt>
      <trkpt lat="63.49244" lon="10.05468">
        <ele>112.932957</ele>
        <time>2020-08-08T08:49:19.439Z</time>
      </trkpt>
      <trkpt lat="63.49239" lon="10.05452">
        <ele>112.248486</ele>
        <time>2020-08-08T08:49:21.449Z</time>
      </trkpt>
      <trkpt lat="63.49232" lon="10.05432">
        <ele>111.409356</ele>
        <time>2020-08-08T08:49:24.450Z</time>
      </trkpt>
      <trkpt lat="63.49225" lon="10.05411">
        <ele>110.559907</ele>
        <time>2020-08-08T08:49:27.492Z</time>
      </trkpt>
      <trkpt lat="63.49219" lon="10.05385">
        <ele>109.585141</ele>
        <time>2020-08-08T08:49:30.466Z</time>
      </trkpt>
      <trkpt lat="63.49215" lon="10.05362">
        <ele>108.737107</ele>
        <time>2020-08-08T08:49:32.469Z</time>
      </trkpt>
      <trkpt lat="63.49209" lon="10.0534">
        <ele>107.90426</ele>
        <time>2020-08-08T08:49:34.470Z</time>
      </trkpt>
      <trkpt lat="63.49203" lon="10.05319">
        <ele>107.05324</ele>
        <time>2020-08-08T08:49:36.471Z</time>
      </trkpt>
      <trkpt lat="63.49199" lon="10.05298">
        <ele>106.286356</ele>
        <time>2020-08-08T08:49:38.526Z</time>
      </trkpt>
      <trkpt lat="63.49194" lon="10.05274">
        <ele>105.380382</ele>
        <time>2020-08-08T08:49:41.457Z</time>
      </trkpt>
      <trkpt lat="63.49188" lon="10.05247">
        <ele>104.413388</ele>
        <time>2020-08-08T08:49:44.454Z</time>
      </trkpt>
      <trkpt lat="63.49184" lon="10.05222">
        <ele>103.504356</ele>
        <time>2020-08-08T08:49:47.460Z</time>
      </trkpt>
      <trkpt lat="63.4918" lon="10.05202">
        <ele>102.775302</ele>
        <time>2020-08-08T08:49:49.476Z</time>
      </trkpt>
      <trkpt lat="63.49175" lon="10.05176">
        <ele>101.832327</ele>
        <time>2020-08-08T08:49:52.431Z</time>
      </trkpt>
      <trkpt lat="63.49173" lon="10.05148">
        <ele>100.698349</ele>
        <time>2020-08-08T08:49:55.442Z</time>
      </trkpt>
      <trkpt lat="63.4917" lon="10.05119">
        <ele>98.998747</ele>
        <time>2020-08-08T08:49:58.478Z</time>
      </trkpt>
      <trkpt lat="63.49166" lon="10.051">
        <ele>97.76979</ele>
        <time>2020-08-08T08:50:00.489Z</time>
      </trkpt>
      <trkpt lat="63.49162" lon="10.05081">
        <ele>96.562063</ele>
        <time>2020-08-08T08:50:02.477Z</time>
      </trkpt>
      <trkpt lat="63.49158" lon="10.05063">
        <ele>95.375777</ele>
        <time>2020-08-08T08:50:04.441Z</time>
      </trkpt>
      <trkpt lat="63.49152" lon="10.05037">
        <ele>93.73525</ele>
        <time>2020-08-08T08:50:07.454Z</time>
      </trkpt>
      <trkpt lat="63.49146" lon="10.05013">
        <ele>92.084204</ele>
        <time>2020-08-08T08:50:10.476Z</time>
      </trkpt>
      <trkpt lat="63.49139" lon="10.04991">
        <ele>90.546012</ele>
        <time>2020-08-08T08:50:13.452Z</time>
      </trkpt>
      <trkpt lat="63.49133" lon="10.04969">
        <ele>89.079589</ele>
        <time>2020-08-08T08:50:16.479Z</time>
      </trkpt>
      <trkpt lat="63.4913" lon="10.04948">
        <ele>87.796647</ele>
        <time>2020-08-08T08:50:19.468Z</time>
      </trkpt>
      <trkpt lat="63.49128" lon="10.04918">
        <ele>86.042989</ele>
        <time>2020-08-08T08:50:22.481Z</time>
      </trkpt>
      <trkpt lat="63.49126" lon="10.04895">
        <ele>84.692074</ele>
        <time>2020-08-08T08:50:24.447Z</time>
      </trkpt>
      <trkpt lat="63.49125" lon="10.04874">
        <ele>83.509342</ele>
        <time>2020-08-08T08:50:26.440Z</time>
      </trkpt>
      <trkpt lat="63.49125" lon="10.0485">
        <ele>82.088049</ele>
        <time>2020-08-08T08:50:29.458Z</time>
      </trkpt>
      <trkpt lat="63.49128" lon="10.04826">
        <ele>80.645064</ele>
        <time>2020-08-08T08:50:32.428Z</time>
      </trkpt>
      <trkpt lat="63.49132" lon="10.04806">
        <ele>79.42584</ele>
        <time>2020-08-08T08:50:34.432Z</time>
      </trkpt>
      <trkpt lat="63.49136" lon="10.04781">
        <ele>77.882726</ele>
        <time>2020-08-08T08:50:36.467Z</time>
      </trkpt>
      <trkpt lat="63.4914" lon="10.04757">
        <ele>76.85301</ele>
        <time>2020-08-08T08:50:38.460Z</time>
      </trkpt>
      <trkpt lat="63.49143" lon="10.04737">
        <ele>75.974805</ele>
        <time>2020-08-08T08:50:40.451Z</time>
      </trkpt>
      <trkpt lat="63.49146" lon="10.04714">
        <ele>75.021101</ele>
        <time>2020-08-08T08:50:42.452Z</time>
      </trkpt>
      <trkpt lat="63.4915" lon="10.04691">
        <ele>74.016537</ele>
        <time>2020-08-08T08:50:45.478Z</time>
      </trkpt>
      <trkpt lat="63.49154" lon="10.04666">
        <ele>72.937713</ele>
        <time>2020-08-08T08:50:48.486Z</time>
      </trkpt>
      <trkpt lat="63.49156" lon="10.04638">
        <ele>71.786602</ele>
        <time>2020-08-08T08:50:51.470Z</time>
      </trkpt>
      <trkpt lat="63.49158" lon="10.04617">
        <ele>70.921135</ele>
        <time>2020-08-08T08:50:53.439Z</time>
      </trkpt>
      <trkpt lat="63.49161" lon="10.04595">
        <ele>70.011277</ele>
        <time>2020-08-08T08:50:55.444Z</time>
      </trkpt>
      <trkpt lat="63.49165" lon="10.04572">
        <ele>69.006161</ele>
        <time>2020-08-08T08:50:57.443Z</time>
      </trkpt>
      <trkpt lat="63.49168" lon="10.0455">
        <ele>68.070478</ele>
        <time>2020-08-08T08:50:59.459Z</time>
      </trkpt>
      <trkpt lat="63.49172" lon="10.04526">
        <ele>67.048711</ele>
        <time>2020-08-08T08:51:01.469Z</time>
      </trkpt>
      <trkpt lat="63.49176" lon="10.04501">
        <ele>65.979015</ele>
        <time>2020-08-08T08:51:03.448Z</time>
      </trkpt>
      <trkpt lat="63.49182" lon="10.04471">
        <ele>64.671586</ele>
        <time>2020-08-08T08:51:05.449Z</time>
      </trkpt>
      <trkpt lat="63.49187" lon="10.04438">
        <ele>63.244343</ele>
        <time>2020-08-08T08:51:07.462Z</time>
      </trkpt>
      <trkpt lat="63.49192" lon="10.04408">
        <ele>61.972311</ele>
        <time>2020-08-08T08:51:09.455Z</time>
      </trkpt>
      <trkpt lat="63.49196" lon="10.0438">
        <ele>61.093847</ele>
        <time>2020-08-08T08:51:11.487Z</time>
      </trkpt>
      <trkpt lat="63.492" lon="10.0435">
        <ele>60.361391</ele>
        <time>2020-08-08T08:51:13.450Z</time>
      </trkpt>
      <trkpt lat="63.49202" lon="10.0432">
        <ele>59.64432</ele>
        <time>2020-08-08T08:51:15.449Z</time>
      </trkpt>
      <trkpt lat="63.49205" lon="10.04289">
        <ele>58.897049</ele>
        <time>2020-08-08T08:51:17.455Z</time>
      </trkpt>
      <trkpt lat="63.49209" lon="10.04259">
        <ele>58.165697</ele>
        <time>2020-08-08T08:51:19.483Z</time>
      </trkpt>
      <trkpt lat="63.49211" lon="10.04229">
        <ele>57.444903</ele>
        <time>2020-08-08T08:51:21.443Z</time>
      </trkpt>
      <trkpt lat="63.49213" lon="10.04204">
        <ele>56.838318</ele>
        <time>2020-08-08T08:51:23.465Z</time>
      </trkpt>
      <trkpt lat="63.49214" lon="10.04183">
        <ele>56.342</ele>
        <time>2020-08-08T08:51:25.472Z</time>
      </trkpt>
      <trkpt lat="63.49216" lon="10.0416">
        <ele>55.789326</ele>
        <time>2020-08-08T08:51:28.491Z</time>
      </trkpt>
      <trkpt lat="63.49217" lon="10.04137">
        <ele>55.246443</ele>
        <time>2020-08-08T08:51:31.456Z</time>
      </trkpt>
      <trkpt lat="63.49219" lon="10.04114">
        <ele>54.701711</ele>
        <time>2020-08-08T08:51:34.453Z</time>
      </trkpt>
      <trkpt lat="63.49221" lon="10.04092">
        <ele>54.167656</ele>
        <time>2020-08-08T08:51:37.470Z</time>
      </trkpt>
      <trkpt lat="63.49225" lon="10.04069">
        <ele>53.593349</ele>
        <time>2020-08-08T08:51:40.444Z</time>
      </trkpt>
      <trkpt lat="63.49228" lon="10.04047">
        <ele>53.04697</ele>
        <time>2020-08-08T08:51:43.499Z</time>
      </trkpt>
      <trkpt lat="63.49229" lon="10.04021">
        <ele>52.429294</ele>
        <time>2020-08-08T08:51:46.456Z</time>
      </trkpt>
      <trkpt lat="63.4923" lon="10.04">
        <ele>52.012684</ele>
        <time>2020-08-08T08:51:48.472Z</time>
      </trkpt>
      <trkpt lat="63.49231" lon="10.03979">
        <ele>51.825425</ele>
        <time>2020-08-08T08:51:50.435Z</time>
      </trkpt>
      <trkpt lat="63.49232" lon="10.03955">
        <ele>51.623478</ele>
        <time>2020-08-08T08:51:52.451Z</time>
      </trkpt>
      <trkpt lat="63.49234" lon="10.03931">
        <ele>51.405918</ele>
        <time>2020-08-08T08:51:54.470Z</time>
      </trkpt>
      <trkpt lat="63.49237" lon="10.03908">
        <ele>51.198452</ele>
        <time>2020-08-08T08:51:56.466Z</time>
      </trkpt>
      <trkpt lat="63.4924" lon="10.03885">
        <ele>50.988658</ele>
        <time>2020-08-08T08:51:58.489Z</time>
      </trkpt>
      <trkpt lat="63.49243" lon="10.03863">
        <ele>50.787513</ele>
        <time>2020-08-08T08:52:00.449Z</time>
      </trkpt>
      <trkpt lat="63.49246" lon="10.03841">
        <ele>50.583646</ele>
        <time>2020-08-08T08:52:02.441Z</time>
      </trkpt>
      <trkpt lat="63.4925" lon="10.03818">
        <ele>50.380241</ele>
        <time>2020-08-08T08:52:04.433Z</time>
      </trkpt>
      <trkpt lat="63.49253" lon="10.03797">
        <ele>50.182116</ele>
        <time>2020-08-08T08:52:06.465Z</time>
      </trkpt>
      <trkpt lat="63.49257" lon="10.03776">
        <ele>49.989892</ele>
        <time>2020-08-08T08:52:08.486Z</time>
      </trkpt>
      <trkpt lat="63.49261" lon="10.03758">
        <ele>49.810463</ele>
        <time>2020-08-08T08:52:10.444Z</time>
      </trkpt>
      <trkpt lat="63.49265" lon="10.03735">
        <ele>49.596085</ele>
        <time>2020-08-08T08:52:13.459Z</time>
      </trkpt>
      <trkpt lat="63.4927" lon="10.03715">
        <ele>49.402392</ele>
        <time>2020-08-08T08:52:16.474Z</time>
      </trkpt>
      <trkpt lat="63.49273" lon="10.03695">
        <ele>49.211595</ele>
        <time>2020-08-08T08:52:19.480Z</time>
      </trkpt>
      <trkpt lat="63.49277" lon="10.03671">
        <ele>48.991336</ele>
        <time>2020-08-08T08:52:22.450Z</time>
      </trkpt>
      <trkpt lat="63.49281" lon="10.03651">
        <ele>48.800813</ele>
        <time>2020-08-08T08:52:24.450Z</time>
      </trkpt>
      <trkpt lat="63.49286" lon="10.03628">
        <ele>48.577346</ele>
        <time>2020-08-08T08:52:26.473Z</time>
      </trkpt>
      <trkpt lat="63.49294" lon="10.03606">
        <ele>48.530335</ele>
        <time>2020-08-08T08:52:28.490Z</time>
      </trkpt>
      <trkpt lat="63.49304" lon="10.03587">
        <ele>48.504477</ele>
        <time>2020-08-08T08:52:30.445Z</time>
      </trkpt>
      <trkpt lat="63.49314" lon="10.03568">
        <ele>48.478184</ele>
        <time>2020-08-08T08:52:32.459Z</time>
      </trkpt>
      <trkpt lat="63.49323" lon="10.03551">
        <ele>48.455187</ele>
        <time>2020-08-08T08:52:34.432Z</time>
      </trkpt>
      <trkpt lat="63.4933" lon="10.03533">
        <ele>48.433252</ele>
        <time>2020-08-08T08:52:36.447Z</time>
      </trkpt>
      <trkpt lat="63.49338" lon="10.03511">
        <ele>48.407377</ele>
        <time>2020-08-08T08:52:38.457Z</time>
      </trkpt>
      <trkpt lat="63.49349" lon="10.03486">
        <ele>48.3769</ele>
        <time>2020-08-08T08:52:40.476Z</time>
      </trkpt>
      <trkpt lat="63.4936" lon="10.03461">
        <ele>48.34633</ele>
        <time>2020-08-08T08:52:42.474Z</time>
      </trkpt>
      <trkpt lat="63.4937" lon="10.03439">
        <ele>48.316824</ele>
        <time>2020-08-08T08:52:44.480Z</time>
      </trkpt>
      <trkpt lat="63.49379" lon="10.03417">
        <ele>48.290011</ele>
        <time>2020-08-08T08:52:46.430Z</time>
      </trkpt>
      <trkpt lat="63.49387" lon="10.03398">
        <ele>48.267</ele>
        <time>2020-08-08T08:52:48.449Z</time>
      </trkpt>
      <trkpt lat="63.49394" lon="10.03383">
        <ele>48.248303</ele>
        <time>2020-08-08T08:52:50.451Z</time>
      </trkpt>
      <trkpt lat="63.49402" lon="10.03366">
        <ele>48.226224</ele>
        <time>2020-08-08T08:52:54.459Z</time>
      </trkpt>
      <trkpt lat="63.49408" lon="10.03347">
        <ele>48.205596</ele>
        <time>2020-08-08T08:53:00.452Z</time>
      </trkpt>
      <trkpt lat="63.49413" lon="10.03331">
        <ele>48.285845</ele>
        <time>2020-08-08T08:53:05.453Z</time>
      </trkpt>
      <trkpt lat="63.4942" lon="10.03314">
        <ele>48.576548</ele>
        <time>2020-08-08T08:53:10.489Z</time>
      </trkpt>
      <trkpt lat="63.49425" lon="10.03298">
        <ele>48.842913</ele>
        <time>2020-08-08T08:53:15.517Z</time>
      </trkpt>
      <trkpt lat="63.49432" lon="10.03279">
        <ele>49.153283</ele>
        <time>2020-08-08T08:53:21.454Z</time>
      </trkpt>
      <trkpt lat="63.49435" lon="10.03257">
        <ele>49.462524</ele>
        <time>2020-08-08T08:53:27.469Z</time>
      </trkpt>
      <trkpt lat="63.49438" lon="10.03238">
        <ele>49.730173</ele>
        <time>2020-08-08T08:53:32.455Z</time>
      </trkpt>
      <trkpt lat="63.49442" lon="10.0322">
        <ele>49.99814</ele>
        <time>2020-08-08T08:53:37.499Z</time>
      </trkpt>
      <trkpt lat="63.49445" lon="10.032">
        <ele>50.271687</ele>
        <time>2020-08-08T08:53:41.434Z</time>
      </trkpt>
      <trkpt lat="63.49448" lon="10.03175">
        <ele>50.623498</ele>
        <time>2020-08-08T08:53:45.450Z</time>
      </trkpt>
      <trkpt lat="63.49451" lon="10.03154">
        <ele>50.909047</ele>
        <time>2020-08-08T08:53:48.494Z</time>
      </trkpt>
      <trkpt lat="63.49454" lon="10.03131">
        <ele>51.231763</ele>
        <time>2020-08-08T08:53:51.486Z</time>
      </trkpt>
      <trkpt lat="63.49458" lon="10.03105">
        <ele>51.581458</ele>
        <time>2020-08-08T08:53:54.460Z</time>
      </trkpt>
      <trkpt lat="63.49461" lon="10.0308">
        <ele>51.927616</ele>
        <time>2020-08-08T08:53:57.456Z</time>
      </trkpt>
      <trkpt lat="63.49465" lon="10.03053">
        <ele>52.304437</ele>
        <time>2020-08-08T08:54:00.465Z</time>
      </trkpt>
      <trkpt lat="63.49468" lon="10.03033">
        <ele>52.582811</ele>
        <time>2020-08-08T08:54:02.448Z</time>
      </trkpt>
      <trkpt lat="63.49471" lon="10.03012">
        <ele>52.869807</ele>
        <time>2020-08-08T08:54:04.459Z</time>
      </trkpt>
      <trkpt lat="63.49473" lon="10.02991">
        <ele>53.156547</ele>
        <time>2020-08-08T08:54:06.454Z</time>
      </trkpt>
      <trkpt lat="63.49476" lon="10.0297">
        <ele>53.449677</ele>
        <time>2020-08-08T08:54:08.440Z</time>
      </trkpt>
      <trkpt lat="63.49477" lon="10.02948">
        <ele>53.514216</ele>
        <time>2020-08-08T08:54:10.474Z</time>
      </trkpt>
      <trkpt lat="63.49479" lon="10.02927">
        <ele>53.514641</ele>
        <time>2020-08-08T08:54:12.439Z</time>
      </trkpt>
      <trkpt lat="63.4948" lon="10.02908">
        <ele>53.515045</ele>
        <time>2020-08-08T08:54:14.443Z</time>
      </trkpt>
      <trkpt lat="63.49482" lon="10.02881">
        <ele>53.51558</ele>
        <time>2020-08-08T08:54:17.442Z</time>
      </trkpt>
      <trkpt lat="63.49483" lon="10.02854">
        <ele>53.516125</ele>
        <time>2020-08-08T08:54:20.472Z</time>
      </trkpt>
      <trkpt lat="63.49484" lon="10.02827">
        <ele>53.516659</ele>
        <time>2020-08-08T08:54:23.452Z</time>
      </trkpt>
      <trkpt lat="63.49486" lon="10.028">
        <ele>53.517214</ele>
        <time>2020-08-08T08:54:26.476Z</time>
      </trkpt>
      <trkpt lat="63.49486" lon="10.0278">
        <ele>53.517619</ele>
        <time>2020-08-08T08:54:28.440Z</time>
      </trkpt>
      <trkpt lat="63.49487" lon="10.02759">
        <ele>53.518031</ele>
        <time>2020-08-08T08:54:30.451Z</time>
      </trkpt>
      <trkpt lat="63.49488" lon="10.02738">
        <ele>53.518452</ele>
        <time>2020-08-08T08:54:32.489Z</time>
      </trkpt>
      <trkpt lat="63.4949" lon="10.02717">
        <ele>53.518883</ele>
        <time>2020-08-08T08:54:34.441Z</time>
      </trkpt>
      <trkpt lat="63.49492" lon="10.02696">
        <ele>53.519323</ele>
        <time>2020-08-08T08:54:36.481Z</time>
      </trkpt>
      <trkpt lat="63.49493" lon="10.02675">
        <ele>53.519744</ele>
        <time>2020-08-08T08:54:38.470Z</time>
      </trkpt>
      <trkpt lat="63.49495" lon="10.02654">
        <ele>53.520171</ele>
        <time>2020-08-08T08:54:40.450Z</time>
      </trkpt>
      <trkpt lat="63.49497" lon="10.02632">
        <ele>53.520614</ele>
        <time>2020-08-08T08:54:42.470Z</time>
      </trkpt>
      <trkpt lat="63.49497" lon="10.02609">
        <ele>53.521068</ele>
        <time>2020-08-08T08:54:44.454Z</time>
      </trkpt>
      <trkpt lat="63.49498" lon="10.02587">
        <ele>53.521519</ele>
        <time>2020-08-08T08:54:46.453Z</time>
      </trkpt>
      <trkpt lat="63.49498" lon="10.02564">
        <ele>53.505524</ele>
        <time>2020-08-08T08:54:48.462Z</time>
      </trkpt>
      <trkpt lat="63.49498" lon="10.02541">
        <ele>53.182884</ele>
        <time>2020-08-08T08:54:50.475Z</time>
      </trkpt>
      <trkpt lat="63.49497" lon="10.02518">
        <ele>52.859343</ele>
        <time>2020-08-08T08:54:52.438Z</time>
      </trkpt>
      <trkpt lat="63.49496" lon="10.02493">
        <ele>52.516436</ele>
        <time>2020-08-08T08:54:54.478Z</time>
      </trkpt>
      <trkpt lat="63.49494" lon="10.02467">
        <ele>52.139469</ele>
        <time>2020-08-08T08:54:56.453Z</time>
      </trkpt>
      <trkpt lat="63.49491" lon="10.0244">
        <ele>51.762205</ele>
        <time>2020-08-08T08:54:58.452Z</time>
      </trkpt>
      <trkpt lat="63.49487" lon="10.02413">
        <ele>51.368562</ele>
        <time>2020-08-08T08:55:00.452Z</time>
      </trkpt>
      <trkpt lat="63.49482" lon="10.02385">
        <ele>50.951811</ele>
        <time>2020-08-08T08:55:02.451Z</time>
      </trkpt>
      <trkpt lat="63.49477" lon="10.02357">
        <ele>50.527691</ele>
        <time>2020-08-08T08:55:04.450Z</time>
      </trkpt>
      <trkpt lat="63.49473" lon="10.02329">
        <ele>50.105744</ele>
        <time>2020-08-08T08:55:06.452Z</time>
      </trkpt>
      <trkpt lat="63.49469" lon="10.02299">
        <ele>49.684346</ele>
        <time>2020-08-08T08:55:08.434Z</time>
      </trkpt>
      <trkpt lat="63.49468" lon="10.0227">
        <ele>49.27013</ele>
        <time>2020-08-08T08:55:10.490Z</time>
      </trkpt>
      <trkpt lat="63.49468" lon="10.02239">
        <ele>48.847389</ele>
        <time>2020-08-08T08:55:12.490Z</time>
      </trkpt>
      <trkpt lat="63.49471" lon="10.02209">
        <ele>48.421679</ele>
        <time>2020-08-08T08:55:14.435Z</time>
      </trkpt>
      <trkpt lat="63.49474" lon="10.0218">
        <ele>48.007458</ele>
        <time>2020-08-08T08:55:16.441Z</time>
      </trkpt>
      <trkpt lat="63.49477" lon="10.02153">
        <ele>47.8246</ele>
        <time>2020-08-08T08:55:18.486Z</time>
      </trkpt>
      <trkpt lat="63.4948" lon="10.02126">
        <ele>47.707623</ele>
        <time>2020-08-08T08:55:20.460Z</time>
      </trkpt>
      <trkpt lat="63.49483" lon="10.02098">
        <ele>47.589804</ele>
        <time>2020-08-08T08:55:22.469Z</time>
      </trkpt>
      <trkpt lat="63.49485" lon="10.02072">
        <ele>47.47344</ele>
        <time>2020-08-08T08:55:24.443Z</time>
      </trkpt>
      <trkpt lat="63.49488" lon="10.02045">
        <ele>47.357488</ele>
        <time>2020-08-08T08:55:26.478Z</time>
      </trkpt>
      <trkpt lat="63.49491" lon="10.02018">
        <ele>47.242359</ele>
        <time>2020-08-08T08:55:28.456Z</time>
      </trkpt>
      <trkpt lat="63.49494" lon="10.01993">
        <ele>47.129707</ele>
        <time>2020-08-08T08:55:30.472Z</time>
      </trkpt>
      <trkpt lat="63.49498" lon="10.01968">
        <ele>47.019159</ele>
        <time>2020-08-08T08:55:32.470Z</time>
      </trkpt>
      <trkpt lat="63.49501" lon="10.01945">
        <ele>46.915925</ele>
        <time>2020-08-08T08:55:34.449Z</time>
      </trkpt>
      <trkpt lat="63.49504" lon="10.01921">
        <ele>46.813505</ele>
        <time>2020-08-08T08:55:36.461Z</time>
      </trkpt>
      <trkpt lat="63.49507" lon="10.01898">
        <ele>46.710142</ele>
        <time>2020-08-08T08:55:38.458Z</time>
      </trkpt>
      <trkpt lat="63.49509" lon="10.01876">
        <ele>46.616054</ele>
        <time>2020-08-08T08:55:40.452Z</time>
      </trkpt>
      <trkpt lat="63.4951" lon="10.01855">
        <ele>46.525651</ele>
        <time>2020-08-08T08:55:42.441Z</time>
      </trkpt>
      <trkpt lat="63.49512" lon="10.01835">
        <ele>46.440207</ele>
        <time>2020-08-08T08:55:44.453Z</time>
      </trkpt>
      <trkpt lat="63.49513" lon="10.01806">
        <ele>46.318102</ele>
        <time>2020-08-08T08:55:47.429Z</time>
      </trkpt>
      <trkpt lat="63.49516" lon="10.01779">
        <ele>46.252395</ele>
        <time>2020-08-08T08:55:50.450Z</time>
      </trkpt>
      <trkpt lat="63.49517" lon="10.01754">
        <ele>46.550449</ele>
        <time>2020-08-08T08:55:53.434Z</time>
      </trkpt>
      <trkpt lat="63.4952" lon="10.01731">
        <ele>46.829011</ele>
        <time>2020-08-08T08:55:56.473Z</time>
      </trkpt>
      <trkpt lat="63.49528" lon="10.01719">
        <ele>47.07467</ele>
        <time>2020-08-08T08:55:59.481Z</time>
      </trkpt>
      <trkpt lat="63.49538" lon="10.01723">
        <ele>47.366452</ele>
        <time>2020-08-08T08:56:02.434Z</time>
      </trkpt>
      <trkpt lat="63.49549" lon="10.01727">
        <ele>47.648802</ele>
        <time>2020-08-08T08:56:05.441Z</time>
      </trkpt>
      <trkpt lat="63.49558" lon="10.01722">
        <ele>47.892986</ele>
        <time>2020-08-08T08:56:08.442Z</time>
      </trkpt>
      <trkpt lat="63.49563" lon="10.01701">
        <ele>48.173471</ele>
        <time>2020-08-08T08:56:12.472Z</time>
      </trkpt>
      <trkpt lat="63.49565" lon="10.01681">
        <ele>48.41265</ele>
        <time>2020-08-08T08:56:15.471Z</time>
      </trkpt>
      <trkpt lat="63.49567" lon="10.0166">
        <ele>48.673908</ele>
        <time>2020-08-08T08:56:18.475Z</time>
      </trkpt>
      <trkpt lat="63.4957" lon="10.0164">
        <ele>48.922906</ele>
        <time>2020-08-08T08:56:21.467Z</time>
      </trkpt>
      <trkpt lat="63.49572" lon="10.01618">
        <ele>49.182393</ele>
        <time>2020-08-08T08:56:24.462Z</time>
      </trkpt>
      <trkpt lat="63.49576" lon="10.01599">
        <ele>49.43371</ele>
        <time>2020-08-08T08:56:27.446Z</time>
      </trkpt>
      <trkpt lat="63.49581" lon="10.0158">
        <ele>49.695359</ele>
        <time>2020-08-08T08:56:30.450Z</time>
      </trkpt>
      <trkpt lat="63.49588" lon="10.01563">
        <ele>49.976927</ele>
        <time>2020-08-08T08:56:34.482Z</time>
      </trkpt>
      <trkpt lat="63.49596" lon="10.01551">
        <ele>50.239202</ele>
        <time>2020-08-08T08:56:39.433Z</time>
      </trkpt>
      <trkpt lat="63.49602" lon="10.01535">
        <ele>50.480356</ele>
        <time>2020-08-08T08:56:43.439Z</time>
      </trkpt>
      <trkpt lat="63.49606" lon="10.01512">
        <ele>50.777195</ele>
        <time>2020-08-08T08:56:47.445Z</time>
      </trkpt>
      <trkpt lat="63.49608" lon="10.01491">
        <ele>51.00364</ele>
        <time>2020-08-08T08:56:51.464Z</time>
      </trkpt>
      <trkpt lat="63.4961" lon="10.01467">
        <ele>51.076114</ele>
        <time>2020-08-08T08:56:55.450Z</time>
      </trkpt>
      <trkpt lat="63.49611" lon="10.01447">
        <ele>51.135675</ele>
        <time>2020-08-08T08:56:58.482Z</time>
      </trkpt>
      <trkpt lat="63.49612" lon="10.01426">
        <ele>51.198961</ele>
        <time>2020-08-08T08:57:01.440Z</time>
      </trkpt>
      <trkpt lat="63.49613" lon="10.01404">
        <ele>51.262344</ele>
        <time>2020-08-08T08:57:04.457Z</time>
      </trkpt>
      <trkpt lat="63.49614" lon="10.01379">
        <ele>51.337653</ele>
        <time>2020-08-08T08:57:08.432Z</time>
      </trkpt>
      <trkpt lat="63.49614" lon="10.01358">
        <ele>51.400101</ele>
        <time>2020-08-08T08:57:11.492Z</time>
      </trkpt>
      <trkpt lat="63.49615" lon="10.01336">
        <ele>51.463387</ele>
        <time>2020-08-08T08:57:14.453Z</time>
      </trkpt>
      <trkpt lat="63.49617" lon="10.01316">
        <ele>51.523316</ele>
        <time>2020-08-08T08:57:17.442Z</time>
      </trkpt>
      <trkpt lat="63.49619" lon="10.0129">
        <ele>51.602968</ele>
        <time>2020-08-08T08:57:21.487Z</time>
      </trkpt>
      <trkpt lat="63.49624" lon="10.01269">
        <ele>51.670358</ele>
        <time>2020-08-08T08:57:24.463Z</time>
      </trkpt>
      <trkpt lat="63.49632" lon="10.01257">
        <ele>51.737771</ele>
        <time>2020-08-08T08:57:27.446Z</time>
      </trkpt>
      <trkpt lat="63.49643" lon="10.01255">
        <ele>51.805573</ele>
        <time>2020-08-08T08:57:30.512Z</time>
      </trkpt>
      <trkpt lat="63.49654" lon="10.01255">
        <ele>51.879669</ele>
        <time>2020-08-08T08:57:33.459Z</time>
      </trkpt>
      <trkpt lat="63.49664" lon="10.01256">
        <ele>51.950594</ele>
        <time>2020-08-08T08:57:36.441Z</time>
      </trkpt>
      <trkpt lat="63.49676" lon="10.01254">
        <ele>52.025519</ele>
        <time>2020-08-08T08:57:39.444Z</time>
      </trkpt>
      <trkpt lat="63.49687" lon="10.0125">
        <ele>52.099421</ele>
        <time>2020-08-08T08:57:42.480Z</time>
      </trkpt>
      <trkpt lat="63.49697" lon="10.01243">
        <ele>52.171791</ele>
        <time>2020-08-08T08:57:45.461Z</time>
      </trkpt>
      <trkpt lat="63.49707" lon="10.01231">
        <ele>52.176462</ele>
        <time>2020-08-08T08:57:48.455Z</time>
      </trkpt>
      <trkpt lat="63.49714" lon="10.01215">
        <ele>52.166263</ele>
        <time>2020-08-08T08:57:51.460Z</time>
      </trkpt>
      <trkpt lat="63.4972" lon="10.01194">
        <ele>52.155732</ele>
        <time>2020-08-08T08:57:54.475Z</time>
      </trkpt>
      <trkpt lat="63.49724" lon="10.01171">
        <ele>52.145412</ele>
        <time>2020-08-08T08:57:57.472Z</time>
      </trkpt>
      <trkpt lat="63.49726" lon="10.01147">
        <ele>52.135232</ele>
        <time>2020-08-08T08:58:00.466Z</time>
      </trkpt>
      <trkpt lat="63.49728" lon="10.01124">
        <ele>52.125408</ele>
        <time>2020-08-08T08:58:03.481Z</time>
      </trkpt>
      <trkpt lat="63.4973" lon="10.011">
        <ele>52.114692</ele>
        <time>2020-08-08T08:58:06.442Z</time>
      </trkpt>
      <trkpt lat="63.49732" lon="10.01076">
        <ele>52.104452</ele>
        <time>2020-08-08T08:58:09.444Z</time>
      </trkpt>
      <trkpt lat="63.49734" lon="10.01053">
        <ele>52.094522</ele>
        <time>2020-08-08T08:58:12.450Z</time>
      </trkpt>
      <trkpt lat="63.49737" lon="10.01031">
        <ele>52.084983</ele>
        <time>2020-08-08T08:58:15.470Z</time>
      </trkpt>
      <trkpt lat="63.49739" lon="10.01009">
        <ele>52.075468</ele>
        <time>2020-08-08T08:58:18.467Z</time>
      </trkpt>
      <trkpt lat="63.49741" lon="10.00988">
        <ele>52.066388</ele>
        <time>2020-08-08T08:58:21.476Z</time>
      </trkpt>
      <trkpt lat="63.49742" lon="10.00968">
        <ele>52.057825</ele>
        <time>2020-08-08T08:58:24.470Z</time>
      </trkpt>
      <trkpt lat="63.49744" lon="10.00943">
        <ele>52.047009</ele>
        <time>2020-08-08T08:58:28.510Z</time>
      </trkpt>
      <trkpt lat="63.49746" lon="10.00923">
        <ele>52.038363</ele>
        <time>2020-08-08T08:58:31.440Z</time>
      </trkpt>
      <trkpt lat="63.49749" lon="10.00902">
        <ele>52.029075</ele>
        <time>2020-08-08T08:58:34.479Z</time>
      </trkpt>
      <trkpt lat="63.49753" lon="10.0088">
        <ele>52.018546</ele>
        <time>2020-08-08T08:58:37.456Z</time>
      </trkpt>
      <trkpt lat="63.49757" lon="10.00855">
        <ele>51.980951</ele>
        <time>2020-08-08T08:58:40.458Z</time>
      </trkpt>
      <trkpt lat="63.49757" lon="10.00826">
        <ele>51.920801</ele>
        <time>2020-08-08T08:58:43.474Z</time>
      </trkpt>
      <trkpt lat="63.49755" lon="10.00803">
        <ele>51.872486</ele>
        <time>2020-08-08T08:58:45.460Z</time>
      </trkpt>
      <trkpt lat="63.49755" lon="10.0078">
        <ele>51.823785</ele>
        <time>2020-08-08T08:58:47.466Z</time>
      </trkpt>
      <trkpt lat="63.49756" lon="10.00757">
        <ele>51.774767</ele>
        <time>2020-08-08T08:58:49.436Z</time>
      </trkpt>
      <trkpt lat="63.49757" lon="10.00734">
        <ele>51.725478</ele>
        <time>2020-08-08T08:58:51.489Z</time>
      </trkpt>
      <trkpt lat="63.49758" lon="10.00709">
        <ele>51.674784</ele>
        <time>2020-08-08T08:58:53.440Z</time>
      </trkpt>
      <trkpt lat="63.49758" lon="10.00685">
        <ele>51.622623</ele>
        <time>2020-08-08T08:58:55.481Z</time>
      </trkpt>
      <trkpt lat="63.49759" lon="10.0066">
        <ele>51.569862</ele>
        <time>2020-08-08T08:58:57.438Z</time>
      </trkpt>
      <trkpt lat="63.4976" lon="10.00634">
        <ele>51.516204</ele>
        <time>2020-08-08T08:58:59.453Z</time>
      </trkpt>
      <trkpt lat="63.49761" lon="10.00608">
        <ele>51.461217</ele>
        <time>2020-08-08T08:59:01.457Z</time>
      </trkpt>
      <trkpt lat="63.49762" lon="10.00582">
        <ele>51.406021</ele>
        <time>2020-08-08T08:59:03.471Z</time>
      </trkpt>
      <trkpt lat="63.49763" lon="10.00555">
        <ele>51.350156</ele>
        <time>2020-08-08T08:59:05.475Z</time>
      </trkpt>
      <trkpt lat="63.49764" lon="10.00529">
        <ele>51.294291</ele>
        <time>2020-08-08T08:59:07.442Z</time>
      </trkpt>
      <trkpt lat="63.49765" lon="10.00503">
        <ele>51.239133</ele>
        <time>2020-08-08T08:59:09.459Z</time>
      </trkpt>
      <trkpt lat="63.49765" lon="10.00476">
        <ele>51.183687</ele>
        <time>2020-08-08T08:59:11.449Z</time>
      </trkpt>
      <trkpt lat="63.49766" lon="10.0045">
        <ele>51.322318</ele>
        <time>2020-08-08T08:59:13.469Z</time>
      </trkpt>
      <trkpt lat="63.49767" lon="10.00425">
        <ele>51.53643</ele>
        <time>2020-08-08T08:59:15.445Z</time>
      </trkpt>
      <trkpt lat="63.49768" lon="10.00401">
        <ele>51.736968</ele>
        <time>2020-08-08T08:59:17.433Z</time>
      </trkpt>
      <trkpt lat="63.49769" lon="10.00378">
        <ele>51.929476</ele>
        <time>2020-08-08T08:59:19.481Z</time>
      </trkpt>
      <trkpt lat="63.49769" lon="10.00356">
        <ele>52.107702</ele>
        <time>2020-08-08T08:59:21.446Z</time>
      </trkpt>
      <trkpt lat="63.4977" lon="10.00335">
        <ele>52.282134</ele>
        <time>2020-08-08T08:59:23.439Z</time>
      </trkpt>
      <trkpt lat="63.49771" lon="10.00315">
        <ele>52.453714</ele>
        <time>2020-08-08T08:59:25.470Z</time>
      </trkpt>
      <trkpt lat="63.49772" lon="10.00286">
        <ele>52.698211</ele>
        <time>2020-08-08T08:59:28.447Z</time>
      </trkpt>
      <trkpt lat="63.49773" lon="10.00259">
        <ele>52.921468</ele>
        <time>2020-08-08T08:59:31.479Z</time>
      </trkpt>
      <trkpt lat="63.49774" lon="10.00234">
        <ele>53.1281</ele>
        <time>2020-08-08T08:59:34.444Z</time>
      </trkpt>
      <trkpt lat="63.49775" lon="10.00212">
        <ele>53.318791</ele>
        <time>2020-08-08T08:59:37.438Z</time>
      </trkpt>
      <trkpt lat="63.49776" lon="10.00189">
        <ele>53.51089</ele>
        <time>2020-08-08T08:59:40.469Z</time>
      </trkpt>
      <trkpt lat="63.49776" lon="10.00167">
        <ele>53.690242</ele>
        <time>2020-08-08T08:59:43.463Z</time>
      </trkpt>
      <trkpt lat="63.49777" lon="10.00145">
        <ele>53.872622</ele>
        <time>2020-08-08T08:59:46.438Z</time>
      </trkpt>
      <trkpt lat="63.49778" lon="10.00123">
        <ele>54.056831</ele>
        <time>2020-08-08T08:59:49.499Z</time>
      </trkpt>
      <trkpt lat="63.49779" lon="10.00102">
        <ele>54.235614</ele>
        <time>2020-08-08T08:59:52.479Z</time>
      </trkpt>
      <trkpt lat="63.4978" lon="10.0008">
        <ele>54.41793</ele>
        <time>2020-08-08T08:59:55.434Z</time>
      </trkpt>
      <trkpt lat="63.49781" lon="10.00059">
        <ele>54.603905</ele>
        <time>2020-08-08T08:59:58.435Z</time>
      </trkpt>
      <trkpt lat="63.49783" lon="10.00039">
        <ele>54.803656</ele>
        <time>2020-08-08T09:00:01.442Z</time>
      </trkpt>
      <trkpt lat="63.49784" lon="10.00018">
        <ele>55.009986</ele>
        <time>2020-08-08T09:00:04.454Z</time>
      </trkpt>
      <trkpt lat="63.49784" lon="9.99997">
        <ele>55.2202</ele>
        <time>2020-08-08T09:00:07.458Z</time>
      </trkpt>
      <trkpt lat="63.49785" lon="9.99976">
        <ele>55.422647</ele>
        <time>2020-08-08T09:00:10.492Z</time>
      </trkpt>
      <trkpt lat="63.49787" lon="9.99954">
        <ele>55.636945</ele>
        <time>2020-08-08T09:00:13.486Z</time>
      </trkpt>
      <trkpt lat="63.49788" lon="9.99932">
        <ele>55.854755</ele>
        <time>2020-08-08T09:00:16.489Z</time>
      </trkpt>
      <trkpt lat="63.4979" lon="9.99911">
        <ele>56.064861</ele>
        <time>2020-08-08T09:00:19.463Z</time>
      </trkpt>
      <trkpt lat="63.49791" lon="9.99889">
        <ele>56.279159</ele>
        <time>2020-08-08T09:00:22.462Z</time>
      </trkpt>
      <trkpt lat="63.49791" lon="9.99868">
        <ele>56.48601</ele>
        <time>2020-08-08T09:00:25.455Z</time>
      </trkpt>
      <trkpt lat="63.49792" lon="9.99847">
        <ele>56.688657</ele>
        <time>2020-08-08T09:00:28.434Z</time>
      </trkpt>
      <trkpt lat="63.49795" lon="9.99821">
        <ele>56.950216</ele>
        <time>2020-08-08T09:00:32.461Z</time>
      </trkpt>
      <trkpt lat="63.49796" lon="9.998">
        <ele>57.152636</ele>
        <time>2020-08-08T09:00:35.443Z</time>
      </trkpt>
      <trkpt lat="63.49797" lon="9.9978">
        <ele>57.34926</ele>
        <time>2020-08-08T09:00:38.503Z</time>
      </trkpt>
      <trkpt lat="63.49799" lon="9.9976">
        <ele>57.550507</ele>
        <time>2020-08-08T09:00:41.445Z</time>
      </trkpt>
      <trkpt lat="63.49801" lon="9.99738">
        <ele>57.765429</ele>
        <time>2020-08-08T09:00:44.435Z</time>
      </trkpt>
      <trkpt lat="63.49803" lon="9.99717">
        <ele>57.982316</ele>
        <time>2020-08-08T09:00:47.433Z</time>
      </trkpt>
      <trkpt lat="63.49805" lon="9.99694">
        <ele>58.204665</ele>
        <time>2020-08-08T09:00:50.475Z</time>
      </trkpt>
      <trkpt lat="63.49807" lon="9.99673">
        <ele>58.421487</ele>
        <time>2020-08-08T09:00:53.454Z</time>
      </trkpt>
      <trkpt lat="63.49809" lon="9.99651">
        <ele>58.409189</ele>
        <time>2020-08-08T09:00:56.469Z</time>
      </trkpt>
      <trkpt lat="63.49812" lon="9.99629">
        <ele>58.349628</ele>
        <time>2020-08-08T09:00:59.441Z</time>
      </trkpt>
      <trkpt lat="63.49813" lon="9.99605">
        <ele>58.288965</ele>
        <time>2020-08-08T09:01:02.445Z</time>
      </trkpt>
      <trkpt lat="63.49815" lon="9.99582">
        <ele>58.228895</ele>
        <time>2020-08-08T09:01:05.459Z</time>
      </trkpt>
      <trkpt lat="63.49817" lon="9.99559">
        <ele>58.167957</ele>
        <time>2020-08-08T09:01:08.474Z</time>
      </trkpt>
      <trkpt lat="63.4982" lon="9.99537">
        <ele>58.109262</ele>
        <time>2020-08-08T09:01:11.455Z</time>
      </trkpt>
      <trkpt lat="63.49823" lon="9.99515">
        <ele>58.05171</ele>
        <time>2020-08-08T09:01:14.437Z</time>
      </trkpt>
      <trkpt lat="63.49825" lon="9.99493">
        <ele>57.992188</ele>
        <time>2020-08-08T09:01:17.480Z</time>
      </trkpt>
      <trkpt lat="63.49828" lon="9.99469">
        <ele>57.930872</ele>
        <time>2020-08-08T09:01:20.438Z</time>
      </trkpt>
      <trkpt lat="63.4983" lon="9.99446">
        <ele>57.869934</ele>
        <time>2020-08-08T09:01:23.450Z</time>
      </trkpt>
      <trkpt lat="63.49833" lon="9.99423">
        <ele>57.810465</ele>
        <time>2020-08-08T09:01:26.445Z</time>
      </trkpt>
      <trkpt lat="63.49835" lon="9.99399">
        <ele>57.745779</ele>
        <time>2020-08-08T09:01:29.448Z</time>
      </trkpt>
      <trkpt lat="63.49839" lon="9.99373">
        <ele>57.677683</ele>
        <time>2020-08-08T09:01:32.448Z</time>
      </trkpt>
      <trkpt lat="63.49842" lon="9.99347">
        <ele>57.607856</ele>
        <time>2020-08-08T09:01:35.456Z</time>
      </trkpt>
      <trkpt lat="63.49846" lon="9.99321">
        <ele>57.538778</ele>
        <time>2020-08-08T09:01:38.473Z</time>
      </trkpt>
      <trkpt lat="63.49849" lon="9.99295">
        <ele>57.467083</ele>
        <time>2020-08-08T09:01:41.437Z</time>
      </trkpt>
      <trkpt lat="63.49853" lon="9.99267">
        <ele>57.294105</ele>
        <time>2020-08-08T09:01:44.459Z</time>
      </trkpt>
      <trkpt lat="63.49857" lon="9.99239">
        <ele>56.981799</ele>
        <time>2020-08-08T09:01:47.466Z</time>
      </trkpt>
      <trkpt lat="63.4986" lon="9.99218">
        <ele>56.761331</ele>
        <time>2020-08-08T09:01:49.460Z</time>
      </trkpt>
      <trkpt lat="63.49863" lon="9.99197">
        <ele>56.52948</ele>
        <time>2020-08-08T09:01:51.480Z</time>
      </trkpt>
      <trkpt lat="63.49866" lon="9.99175">
        <ele>56.291247</ele>
        <time>2020-08-08T09:01:53.454Z</time>
      </trkpt>
      <trkpt lat="63.49868" lon="9.99153">
        <ele>56.045901</ele>
        <time>2020-08-08T09:01:55.473Z</time>
      </trkpt>
      <trkpt lat="63.49872" lon="9.9913">
        <ele>55.790251</ele>
        <time>2020-08-08T09:01:57.439Z</time>
      </trkpt>
      <trkpt lat="63.49875" lon="9.99106">
        <ele>55.535282</ele>
        <time>2020-08-08T09:01:59.445Z</time>
      </trkpt>
      <trkpt lat="63.49879" lon="9.99084">
        <ele>55.283134</ele>
        <time>2020-08-08T09:02:01.449Z</time>
      </trkpt>
      <trkpt lat="63.49883" lon="9.99061">
        <ele>55.021674</ele>
        <time>2020-08-08T09:02:03.433Z</time>
      </trkpt>
      <trkpt lat="63.49888" lon="9.99038">
        <ele>54.755448</ele>
        <time>2020-08-08T09:02:05.430Z</time>
      </trkpt>
      <trkpt lat="63.49892" lon="9.99014">
        <ele>54.485213</ele>
        <time>2020-08-08T09:02:07.513Z</time>
      </trkpt>
      <trkpt lat="63.49896" lon="9.9899">
        <ele>54.21557</ele>
        <time>2020-08-08T09:02:09.478Z</time>
      </trkpt>
      <trkpt lat="63.499" lon="9.98966">
        <ele>53.946307</ele>
        <time>2020-08-08T09:02:11.462Z</time>
      </trkpt>
      <trkpt lat="63.49905" lon="9.98942">
        <ele>53.671459</ele>
        <time>2020-08-08T09:02:13.461Z</time>
      </trkpt>
      <trkpt lat="63.4991" lon="9.98918">
        <ele>53.397547</ele>
        <time>2020-08-08T09:02:15.488Z</time>
      </trkpt>
      <trkpt lat="63.49913" lon="9.98893">
        <ele>53.191333</ele>
        <time>2020-08-08T09:02:17.437Z</time>
      </trkpt>
      <trkpt lat="63.49917" lon="9.98869">
        <ele>53.168418</ele>
        <time>2020-08-08T09:02:19.446Z</time>
      </trkpt>
      <trkpt lat="63.49921" lon="9.98845">
        <ele>53.145336</ele>
        <time>2020-08-08T09:02:21.438Z</time>
      </trkpt>
      <trkpt lat="63.49926" lon="9.98821">
        <ele>53.122611</ele>
        <time>2020-08-08T09:02:23.451Z</time>
      </trkpt>
      <trkpt lat="63.4993" lon="9.98798">
        <ele>53.100223</ele>
        <time>2020-08-08T09:02:25.475Z</time>
      </trkpt>
      <trkpt lat="63.49934" lon="9.98774">
        <ele>53.078043</ele>
        <time>2020-08-08T09:02:27.478Z</time>
      </trkpt>
      <trkpt lat="63.49937" lon="9.98751">
        <ele>53.056298</ele>
        <time>2020-08-08T09:02:29.467Z</time>
      </trkpt>
      <trkpt lat="63.49941" lon="9.98729">
        <ele>53.035256</ele>
        <time>2020-08-08T09:02:31.450Z</time>
      </trkpt>
      <trkpt lat="63.49945" lon="9.98707">
        <ele>53.014935</ele>
        <time>2020-08-08T09:02:33.441Z</time>
      </trkpt>
      <trkpt lat="63.49948" lon="9.98686">
        <ele>52.994794</ele>
        <time>2020-08-08T09:02:35.443Z</time>
      </trkpt>
      <trkpt lat="63.49952" lon="9.98666">
        <ele>52.97579</ele>
        <time>2020-08-08T09:02:37.446Z</time>
      </trkpt>
      <trkpt lat="63.49954" lon="9.98646">
        <ele>52.957347</ele>
        <time>2020-08-08T09:02:39.440Z</time>
      </trkpt>
      <trkpt lat="63.49958" lon="9.98627">
        <ele>52.939088</ele>
        <time>2020-08-08T09:02:41.450Z</time>
      </trkpt>
      <trkpt lat="63.49963" lon="9.986">
        <ele>52.912721</ele>
        <time>2020-08-08T09:02:44.445Z</time>
      </trkpt>
      <trkpt lat="63.49966" lon="9.98581">
        <ele>52.894388</ele>
        <time>2020-08-08T09:02:46.474Z</time>
      </trkpt>
      <trkpt lat="63.4997" lon="9.98561">
        <ele>52.875972</ele>
        <time>2020-08-08T09:02:48.472Z</time>
      </trkpt>
      <trkpt lat="63.49975" lon="9.98534">
        <ele>52.849587</ele>
        <time>2020-08-08T09:02:51.488Z</time>
      </trkpt>
      <trkpt lat="63.49979" lon="9.98506">
        <ele>53.056785</ele>
        <time>2020-08-08T09:02:54.458Z</time>
      </trkpt>
      <trkpt lat="63.49982" lon="9.9848">
        <ele>53.38708</ele>
        <time>2020-08-08T09:02:57.442Z</time>
      </trkpt>
      <trkpt lat="63.49986" lon="9.98454">
        <ele>53.71868</ele>
        <time>2020-08-08T09:03:00.477Z</time>
      </trkpt>
      <trkpt lat="63.4999" lon="9.98427">
        <ele>54.063706</ele>
        <time>2020-08-08T09:03:03.457Z</time>
      </trkpt>
      <trkpt lat="63.49994" lon="9.984">
        <ele>54.405604</ele>
        <time>2020-08-08T09:03:06.462Z</time>
      </trkpt>
      <trkpt lat="63.49998" lon="9.98374">
        <ele>54.728077</ele>
        <time>2020-08-08T09:03:09.473Z</time>
      </trkpt>
      <trkpt lat="63.50001" lon="9.9835">
        <ele>55.038106</ele>
        <time>2020-08-08T09:03:12.468Z</time>
      </trkpt>
      <trkpt lat="63.50004" lon="9.98324">
        <ele>55.353307</ele>
        <time>2020-08-08T09:03:15.472Z</time>
      </trkpt>
      <trkpt lat="63.50006" lon="9.98301">
        <ele>55.639046</ele>
        <time>2020-08-08T09:03:18.446Z</time>
      </trkpt>
      <trkpt lat="63.50009" lon="9.98277">
        <ele>55.934782</ele>
        <time>2020-08-08T09:03:21.442Z</time>
      </trkpt>
      <trkpt lat="63.50011" lon="9.98253">
        <ele>56.229976</ele>
        <time>2020-08-08T09:03:24.444Z</time>
      </trkpt>
      <trkpt lat="63.50013" lon="9.9823">
        <ele>56.514641</ele>
        <time>2020-08-08T09:03:27.466Z</time>
      </trkpt>
      <trkpt lat="63.50015" lon="9.98206">
        <ele>56.804038</ele>
        <time>2020-08-08T09:03:30.455Z</time>
      </trkpt>
      <trkpt lat="63.50017" lon="9.98182">
        <ele>57.099861</ele>
        <time>2020-08-08T09:03:33.461Z</time>
      </trkpt>
      <trkpt lat="63.50019" lon="9.98158">
        <ele>57.394203</ele>
        <time>2020-08-08T09:03:36.441Z</time>
      </trkpt>
      <trkpt lat="63.5002" lon="9.98136">
        <ele>57.663011</ele>
        <time>2020-08-08T09:03:39.490Z</time>
      </trkpt>
      <trkpt lat="63.50021" lon="9.98113">
        <ele>57.798695</ele>
        <time>2020-08-08T09:03:42.455Z</time>
      </trkpt>
      <trkpt lat="63.50022" lon="9.98089">
        <ele>57.921588</ele>
        <time>2020-08-08T09:03:45.472Z</time>
      </trkpt>
      <trkpt lat="63.50023" lon="9.98066">
        <ele>58.040278</ele>
        <time>2020-08-08T09:03:48.509Z</time>
      </trkpt>
      <trkpt lat="63.50024" lon="9.98043">
        <ele>58.160272</ele>
        <time>2020-08-08T09:03:51.451Z</time>
      </trkpt>
      <trkpt lat="63.50026" lon="9.98019">
        <ele>58.283755</ele>
        <time>2020-08-08T09:03:54.456Z</time>
      </trkpt>
      <trkpt lat="63.50027" lon="9.97995">
        <ele>58.406251</ele>
        <time>2020-08-08T09:03:57.474Z</time>
      </trkpt>
      <trkpt lat="63.50027" lon="9.97972">
        <ele>58.524712</ele>
        <time>2020-08-08T09:04:00.463Z</time>
      </trkpt>
      <trkpt lat="63.50027" lon="9.97948">
        <ele>58.647089</ele>
        <time>2020-08-08T09:04:03.465Z</time>
      </trkpt>
      <trkpt lat="63.50028" lon="9.97924">
        <ele>58.770043</ele>
        <time>2020-08-08T09:04:06.454Z</time>
      </trkpt>
      <trkpt lat="63.50028" lon="9.97902">
        <ele>58.886459</ele>
        <time>2020-08-08T09:04:09.450Z</time>
      </trkpt>
      <trkpt lat="63.50029" lon="9.9788">
        <ele>58.996233</ele>
        <time>2020-08-08T09:04:12.457Z</time>
      </trkpt>
      <trkpt lat="63.50029" lon="9.97858">
        <ele>59.112024</ele>
        <time>2020-08-08T09:04:15.492Z</time>
      </trkpt>
      <trkpt lat="63.5003" lon="9.97835">
        <ele>59.228754</ele>
        <time>2020-08-08T09:04:18.451Z</time>
      </trkpt>
      <trkpt lat="63.5003" lon="9.97813">
        <ele>59.341436</ele>
        <time>2020-08-08T09:04:21.455Z</time>
      </trkpt>
      <trkpt lat="63.5003" lon="9.97791">
        <ele>59.453699</ele>
        <time>2020-08-08T09:04:24.483Z</time>
      </trkpt>
      <trkpt lat="63.50031" lon="9.97769">
        <ele>59.56852</ele>
        <time>2020-08-08T09:04:27.445Z</time>
      </trkpt>
      <trkpt lat="63.50031" lon="9.97746">
        <ele>59.68334</ele>
        <time>2020-08-08T09:04:30.451Z</time>
      </trkpt>
      <trkpt lat="63.50032" lon="9.97724">
        <ele>59.776319</ele>
        <time>2020-08-08T09:04:33.490Z</time>
      </trkpt>
      <trkpt lat="63.50032" lon="9.97702">
        <ele>59.826116</ele>
        <time>2020-08-08T09:04:36.450Z</time>
      </trkpt>
      <trkpt lat="63.50032" lon="9.97682">
        <ele>59.872972</ele>
        <time>2020-08-08T09:04:39.453Z</time>
      </trkpt>
      <trkpt lat="63.50032" lon="9.97661">
        <ele>59.918712</ele>
        <time>2020-08-08T09:04:42.461Z</time>
      </trkpt>
      <trkpt lat="63.50033" lon="9.97641">
        <ele>59.965134</ele>
        <time>2020-08-08T09:04:45.462Z</time>
      </trkpt>
      <trkpt lat="63.50033" lon="9.9762">
        <ele>60.011965</ele>
        <time>2020-08-08T09:04:48.441Z</time>
      </trkpt>
      <trkpt lat="63.50033" lon="9.97599">
        <ele>60.059936</ele>
        <time>2020-08-08T09:04:51.464Z</time>
      </trkpt>
      <trkpt lat="63.50034" lon="9.97579">
        <ele>60.107321</ele>
        <time>2020-08-08T09:04:54.435Z</time>
      </trkpt>
      <trkpt lat="63.50034" lon="9.97558">
        <ele>60.155105</ele>
        <time>2020-08-08T09:04:57.438Z</time>
      </trkpt>
      <trkpt lat="63.50035" lon="9.97537">
        <ele>60.202716</ele>
        <time>2020-08-08T09:05:00.441Z</time>
      </trkpt>
      <trkpt lat="63.50035" lon="9.97516">
        <ele>60.249844</ele>
        <time>2020-08-08T09:05:03.449Z</time>
      </trkpt>
      <trkpt lat="63.50035" lon="9.97494">
        <ele>60.300581</ele>
        <time>2020-08-08T09:05:06.441Z</time>
      </trkpt>
      <trkpt lat="63.50036" lon="9.97472">
        <ele>60.350887</ele>
        <time>2020-08-08T09:05:09.456Z</time>
      </trkpt>
      <trkpt lat="63.50037" lon="9.97451">
        <ele>60.397591</ele>
        <time>2020-08-08T09:05:12.438Z</time>
      </trkpt>
      <trkpt lat="63.50037" lon="9.9743">
        <ele>60.445375</ele>
        <time>2020-08-08T09:05:15.434Z</time>
      </trkpt>
      <trkpt lat="63.50037" lon="9.97408">
        <ele>60.494545</ele>
        <time>2020-08-08T09:05:18.450Z</time>
      </trkpt>
      <trkpt lat="63.50038" lon="9.97385">
        <ele>60.548008</ele>
        <time>2020-08-08T09:05:21.438Z</time>
      </trkpt>
      <trkpt lat="63.50038" lon="9.97361">
        <ele>60.602628</ele>
        <time>2020-08-08T09:05:24.454Z</time>
      </trkpt>
      <trkpt lat="63.50039" lon="9.97338">
        <ele>60.655153</ele>
        <time>2020-08-08T09:05:27.443Z</time>
      </trkpt>
      <trkpt lat="63.50039" lon="9.97315">
        <ele>60.752414</ele>
        <time>2020-08-08T09:05:30.479Z</time>
      </trkpt>
      <trkpt lat="63.50039" lon="9.97291">
        <ele>60.883997</ele>
        <time>2020-08-08T09:05:33.436Z</time>
      </trkpt>
      <trkpt lat="63.5004" lon="9.97267">
        <ele>61.016081</ele>
        <time>2020-08-08T09:05:36.455Z</time>
      </trkpt>
      <trkpt lat="63.5004" lon="9.97243">
        <ele>61.149466</ele>
        <time>2020-08-08T09:05:39.487Z</time>
      </trkpt>
      <trkpt lat="63.5004" lon="9.97219">
        <ele>61.284229</ele>
        <time>2020-08-08T09:05:42.460Z</time>
      </trkpt>
      <trkpt lat="63.50041" lon="9.97197">
        <ele>61.408512</ele>
        <time>2020-08-08T09:05:45.467Z</time>
      </trkpt>
      <trkpt lat="63.50041" lon="9.97175">
        <ele>61.527252</ele>
        <time>2020-08-08T09:05:48.441Z</time>
      </trkpt>
      <trkpt lat="63.50041" lon="9.97152">
        <ele>61.656565</ele>
        <time>2020-08-08T09:05:51.435Z</time>
      </trkpt>
      <trkpt lat="63.50042" lon="9.97129">
        <ele>61.784824</ele>
        <time>2020-08-08T09:05:54.473Z</time>
      </trkpt>
      <trkpt lat="63.50042" lon="9.97106">
        <ele>61.909057</ele>
        <time>2020-08-08T09:05:57.452Z</time>
      </trkpt>
      <trkpt lat="63.50042" lon="9.97084">
        <ele>62.031123</ele>
        <time>2020-08-08T09:06:00.442Z</time>
      </trkpt>
      <trkpt lat="63.50043" lon="9.97061">
        <ele>62.159448</ele>
        <time>2020-08-08T09:06:03.481Z</time>
      </trkpt>
      <trkpt lat="63.50043" lon="9.97039">
        <ele>62.285437</ele>
        <time>2020-08-08T09:06:06.457Z</time>
      </trkpt>
      <trkpt lat="63.50044" lon="9.97016">
        <ele>62.41148</ele>
        <time>2020-08-08T09:06:09.435Z</time>
      </trkpt>
      <trkpt lat="63.50044" lon="9.96992">
        <ele>62.542415</ele>
        <time>2020-08-08T09:06:12.531Z</time>
      </trkpt>
      <trkpt lat="63.50045" lon="9.9697">
        <ele>62.668606</ele>
        <time>2020-08-08T09:06:15.437Z</time>
      </trkpt>
      <trkpt lat="63.50045" lon="9.96947">
        <ele>62.792988</ele>
        <time>2020-08-08T09:06:18.456Z</time>
      </trkpt>
      <trkpt lat="63.50045" lon="9.96925">
        <ele>62.919771</ele>
        <time>2020-08-08T09:06:21.442Z</time>
      </trkpt>
      <trkpt lat="63.50046" lon="9.96904">
        <ele>63.165337</ele>
        <time>2020-08-08T09:06:24.497Z</time>
      </trkpt>
      <trkpt lat="63.50046" lon="9.96883">
        <ele>63.415695</ele>
        <time>2020-08-08T09:06:27.445Z</time>
      </trkpt>
      <trkpt lat="63.50047" lon="9.96861">
        <ele>63.666382</ele>
        <time>2020-08-08T09:06:30.464Z</time>
      </trkpt>
      <trkpt lat="63.50047" lon="9.96841">
        <ele>63.909444</ele>
        <time>2020-08-08T09:06:33.458Z</time>
      </trkpt>
      <trkpt lat="63.50048" lon="9.96819">
        <ele>64.166683</ele>
        <time>2020-08-08T09:06:36.473Z</time>
      </trkpt>
      <trkpt lat="63.50047" lon="9.96796">
        <ele>64.429562</ele>
        <time>2020-08-08T09:06:39.440Z</time>
      </trkpt>
      <trkpt lat="63.50048" lon="9.96775">
        <ele>64.675407</ele>
        <time>2020-08-08T09:06:42.502Z</time>
      </trkpt>
      <trkpt lat="63.50048" lon="9.96753">
        <ele>64.934782</ele>
        <time>2020-08-08T09:06:45.463Z</time>
      </trkpt>
      <trkpt lat="63.50048" lon="9.9673">
        <ele>65.196533</ele>
        <time>2020-08-08T09:06:48.446Z</time>
      </trkpt>
      <trkpt lat="63.50049" lon="9.96708">
        <ele>65.453612</ele>
        <time>2020-08-08T09:06:51.486Z</time>
      </trkpt>
      <trkpt lat="63.50049" lon="9.96687">
        <ele>65.708515</ele>
        <time>2020-08-08T09:06:54.458Z</time>
      </trkpt>
      <trkpt lat="63.5005" lon="9.96664">
        <ele>65.976516</ele>
        <time>2020-08-08T09:06:57.446Z</time>
      </trkpt>
      <trkpt lat="63.50051" lon="9.96642">
        <ele>66.231976</ele>
        <time>2020-08-08T09:07:00.474Z</time>
      </trkpt>
      <trkpt lat="63.50051" lon="9.96619">
        <ele>66.497231</ele>
        <time>2020-08-08T09:07:03.448Z</time>
      </trkpt>
      <trkpt lat="63.50051" lon="9.96597">
        <ele>66.757879</ele>
        <time>2020-08-08T09:07:06.481Z</time>
      </trkpt>
      <trkpt lat="63.50051" lon="9.96576">
        <ele>67.005613</ele>
        <time>2020-08-08T09:07:09.495Z</time>
      </trkpt>
      <trkpt lat="63.50051" lon="9.9655">
        <ele>67.311807</ele>
        <time>2020-08-08T09:07:13.438Z</time>
      </trkpt>
      <trkpt lat="63.50052" lon="9.96523">
        <ele>67.632281</ele>
        <time>2020-08-08T09:07:17.494Z</time>
      </trkpt>
      <trkpt lat="63.50052" lon="9.96502">
        <ele>67.974803</ele>
        <time>2020-08-08T09:07:20.478Z</time>
      </trkpt>
      <trkpt lat="63.50053" lon="9.96476">
        <ele>68.402351</ele>
        <time>2020-08-08T09:07:24.491Z</time>
      </trkpt>
      <trkpt lat="63.50053" lon="9.9645">
        <ele>68.820018</ele>
        <time>2020-08-08T09:07:28.467Z</time>
      </trkpt>
      <trkpt lat="63.50053" lon="9.96426">
        <ele>69.224596</ele>
        <time>2020-08-08T09:07:32.499Z</time>
      </trkpt>
      <trkpt lat="63.50052" lon="9.96401">
        <ele>69.624328</ele>
        <time>2020-08-08T09:07:36.478Z</time>
      </trkpt>
      <trkpt lat="63.50053" lon="9.96379">
        <ele>69.994326</ele>
        <time>2020-08-08T09:07:40.474Z</time>
      </trkpt>
      <trkpt lat="63.50053" lon="9.96357">
        <ele>70.348036</ele>
        <time>2020-08-08T09:07:45.481Z</time>
      </trkpt>
      <trkpt lat="63.50052" lon="9.96335">
        <ele>70.711737</ele>
        <time>2020-08-08T09:07:50.482Z</time>
      </trkpt>
      <trkpt lat="63.50053" lon="9.96312">
        <ele>71.098319</ele>
        <time>2020-08-08T09:07:56.505Z</time>
      </trkpt>
      <trkpt lat="63.50052" lon="9.9629">
        <ele>71.459111</ele>
        <time>2020-08-08T09:08:01.487Z</time>
      </trkpt>
      <trkpt lat="63.50052" lon="9.96267">
        <ele>71.840673</ele>
        <time>2020-08-08T09:08:06.469Z</time>
      </trkpt>
      <trkpt lat="63.50052" lon="9.96245">
        <ele>72.195873</ele>
        <time>2020-08-08T09:08:11.482Z</time>
      </trkpt>
      <trkpt lat="63.50052" lon="9.96223">
        <ele>72.556006</ele>
        <time>2020-08-08T09:08:16.431Z</time>
      </trkpt>
      <trkpt lat="63.50052" lon="9.96199">
        <ele>72.959294</ele>
        <time>2020-08-08T09:08:21.455Z</time>
      </trkpt>
      <trkpt lat="63.50052" lon="9.96176">
        <ele>73.329293</ele>
        <time>2020-08-08T09:08:26.471Z</time>
      </trkpt>
      <trkpt lat="63.50051" lon="9.96153">
        <ele>73.710014</ele>
        <time>2020-08-08T09:08:31.486Z</time>
      </trkpt>
      <trkpt lat="63.50051" lon="9.96133">
        <ele>74.047107</ele>
        <time>2020-08-08T09:08:36.439Z</time>
      </trkpt>
      <trkpt lat="63.50051" lon="9.96112">
        <ele>74.494155</ele>
        <time>2020-08-08T09:08:41.442Z</time>
      </trkpt>
      <trkpt lat="63.5005" lon="9.96089">
        <ele>75.191194</ele>
        <time>2020-08-08T09:08:47.460Z</time>
      </trkpt>
      <trkpt lat="63.50049" lon="9.96067">
        <ele>75.871513</ele>
        <time>2020-08-08T09:08:53.458Z</time>
      </trkpt>
      <trkpt lat="63.50049" lon="9.96046">
        <ele>76.48688</ele>
        <time>2020-08-08T09:08:58.462Z</time>
      </trkpt>
      <trkpt lat="63.50049" lon="9.96025">
        <ele>77.144993</ele>
        <time>2020-08-08T09:09:04.456Z</time>
      </trkpt>
      <trkpt lat="63.50048" lon="9.96004">
        <ele>77.755227</ele>
        <time>2020-08-08T09:09:10.431Z</time>
      </trkpt>
      <trkpt lat="63.50047" lon="9.95983">
        <ele>78.413979</ele>
        <time>2020-08-08T09:09:16.446Z</time>
      </trkpt>
      <trkpt lat="63.50047" lon="9.9596">
        <ele>79.095802</ele>
        <time>2020-08-08T09:09:22.441Z</time>
      </trkpt>
      <trkpt lat="63.50047" lon="9.95937">
        <ele>79.777524</ele>
        <time>2020-08-08T09:09:28.498Z</time>
      </trkpt>
      <trkpt lat="63.50046" lon="9.95914">
        <ele>80.49478</ele>
        <time>2020-08-08T09:09:34.441Z</time>
      </trkpt>
      <trkpt lat="63.50045" lon="9.95892">
        <ele>81.149462</ele>
        <time>2020-08-08T09:09:40.446Z</time>
      </trkpt>
      <trkpt lat="63.50045" lon="9.95869">
        <ele>81.849249</ele>
        <time>2020-08-08T09:09:46.460Z</time>
      </trkpt>
      <trkpt lat="63.50046" lon="9.95846">
        <ele>82.540516</ele>
        <time>2020-08-08T09:09:52.446Z</time>
      </trkpt>
      <trkpt lat="63.50045" lon="9.95824">
        <ele>83.219727</ele>
        <time>2020-08-08T09:09:58.453Z</time>
      </trkpt>
      <trkpt lat="63.50045" lon="9.95801">
        <ele>83.910994</ele>
        <time>2020-08-08T09:10:04.440Z</time>
      </trkpt>
      <trkpt lat="63.50044" lon="9.95779">
        <ele>84.560018</ele>
        <time>2020-08-08T09:10:10.470Z</time>
      </trkpt>
      <trkpt lat="63.50045" lon="9.95757">
        <ele>85.224848</ele>
        <time>2020-08-08T09:10:16.439Z</time>
      </trkpt>
      <trkpt lat="63.50045" lon="9.95736">
        <ele>85.873393</ele>
        <time>2020-08-08T09:10:22.473Z</time>
      </trkpt>
      <trkpt lat="63.50043" lon="9.95713">
        <ele>86.609736</ele>
        <time>2020-08-08T09:10:28.483Z</time>
      </trkpt>
      <trkpt lat="63.50042" lon="9.95692">
        <ele>87.390015</ele>
        <time>2020-08-08T09:10:33.487Z</time>
      </trkpt>
      <trkpt lat="63.50042" lon="9.95672">
        <ele>88.179449</ele>
        <time>2020-08-08T09:10:38.457Z</time>
      </trkpt>
      <trkpt lat="63.50043" lon="9.95648">
        <ele>89.08375</ele>
        <time>2020-08-08T09:10:45.456Z</time>
      </trkpt>
      <trkpt lat="63.50043" lon="9.95626">
        <ele>89.909445</ele>
        <time>2020-08-08T09:10:50.434Z</time>
      </trkpt>
      <trkpt lat="63.50043" lon="9.95606">
        <ele>90.695085</ele>
        <time>2020-08-08T09:10:55.461Z</time>
      </trkpt>
      <trkpt lat="63.50043" lon="9.95582">
        <ele>91.579352</ele>
        <time>2020-08-08T09:11:01.461Z</time>
      </trkpt>
      <trkpt lat="63.50043" lon="9.95559">
        <ele>92.464273</ele>
        <time>2020-08-08T09:11:07.441Z</time>
      </trkpt>
      <trkpt lat="63.50045" lon="9.95537">
        <ele>93.323905</ele>
        <time>2020-08-08T09:11:13.459Z</time>
      </trkpt>
      <trkpt lat="63.50046" lon="9.95514">
        <ele>94.176353</ele>
        <time>2020-08-08T09:11:19.452Z</time>
      </trkpt>
      <trkpt lat="63.50046" lon="9.95494">
        <ele>94.95098</ele>
        <time>2020-08-08T09:11:24.473Z</time>
      </trkpt>
      <trkpt lat="63.50048" lon="9.95471">
        <ele>95.808251</ele>
        <time>2020-08-08T09:11:30.472Z</time>
      </trkpt>
      <trkpt lat="63.5005" lon="9.95449">
        <ele>96.664053</ele>
        <time>2020-08-08T09:11:36.468Z</time>
      </trkpt>
      <trkpt lat="63.50051" lon="9.95426">
        <ele>97.547477</ele>
        <time>2020-08-08T09:11:42.460Z</time>
      </trkpt>
      <trkpt lat="63.50053" lon="9.95406">
        <ele>98.346265</ele>
        <time>2020-08-08T09:11:48.465Z</time>
      </trkpt>
      <trkpt lat="63.50056" lon="9.95384">
        <ele>99.216866</ele>
        <time>2020-08-08T09:11:54.492Z</time>
      </trkpt>
      <trkpt lat="63.50058" lon="9.95361">
        <ele>100.081822</ele>
        <time>2020-08-08T09:12:00.471Z</time>
      </trkpt>
      <trkpt lat="63.50062" lon="9.95342">
        <ele>100.903232</ele>
        <time>2020-08-08T09:12:06.471Z</time>
      </trkpt>
      <trkpt lat="63.50065" lon="9.95321">
        <ele>101.729206</ele>
        <time>2020-08-08T09:12:12.499Z</time>
      </trkpt>
      <trkpt lat="63.50069" lon="9.95301">
        <ele>102.415695</ele>
        <time>2020-08-08T09:12:18.435Z</time>
      </trkpt>
      <trkpt lat="63.50072" lon="9.9528">
        <ele>103.109987</ele>
        <time>2020-08-08T09:12:24.469Z</time>
      </trkpt>
      <trkpt lat="63.50076" lon="9.95259">
        <ele>103.808261</ele>
        <time>2020-08-08T09:12:30.440Z</time>
      </trkpt>
      <trkpt lat="63.5008" lon="9.95238">
        <ele>104.52593</ele>
        <time>2020-08-08T09:12:36.453Z</time>
      </trkpt>
      <trkpt lat="63.50084" lon="9.95217">
        <ele>105.215521</ele>
        <time>2020-08-08T09:12:42.462Z</time>
      </trkpt>
      <trkpt lat="63.50089" lon="9.95197">
        <ele>105.945763</ele>
        <time>2020-08-08T09:12:48.497Z</time>
      </trkpt>
      <trkpt lat="63.50093" lon="9.95177">
        <ele>106.645714</ele>
        <time>2020-08-08T09:12:54.453Z</time>
      </trkpt>
      <trkpt lat="63.50098" lon="9.95158">
        <ele>107.319286</ele>
        <time>2020-08-08T09:13:00.461Z</time>
      </trkpt>
      <trkpt lat="63.50102" lon="9.9514">
        <ele>107.943956</ele>
        <time>2020-08-08T09:13:05.445Z</time>
      </trkpt>
      <trkpt lat="63.50107" lon="9.95122">
        <ele>108.609841</ele>
        <time>2020-08-08T09:13:11.443Z</time>
      </trkpt>
      <trkpt lat="63.50113" lon="9.95104">
        <ele>109.303819</ele>
        <time>2020-08-08T09:13:17.480Z</time>
      </trkpt>
      <trkpt lat="63.50118" lon="9.95085">
        <ele>109.975824</ele>
        <time>2020-08-08T09:13:23.462Z</time>
      </trkpt>
      <trkpt lat="63.50123" lon="9.95066">
        <ele>110.696284</ele>
        <time>2020-08-08T09:13:29.453Z</time>
      </trkpt>
      <trkpt lat="63.50128" lon="9.95047">
        <ele>111.384669</ele>
        <time>2020-08-08T09:13:35.447Z</time>
      </trkpt>
      <trkpt lat="63.50132" lon="9.95029">
        <ele>112.0165</ele>
        <time>2020-08-08T09:13:40.441Z</time>
      </trkpt>
      <trkpt lat="63.50139" lon="9.95013">
        <ele>112.681949</ele>
        <time>2020-08-08T09:13:46.469Z</time>
      </trkpt>
      <trkpt lat="63.50145" lon="9.94995">
        <ele>113.413297</ele>
        <time>2020-08-08T09:13:52.481Z</time>
      </trkpt>
      <trkpt lat="63.50151" lon="9.94978">
        <ele>114.044358</ele>
        <time>2020-08-08T09:13:57.449Z</time>
      </trkpt>
      <trkpt lat="63.50155" lon="9.94961">
        <ele>114.432637</ele>
        <time>2020-08-08T09:14:02.474Z</time>
      </trkpt>
      <trkpt lat="63.50161" lon="9.94941">
        <ele>114.710449</ele>
        <time>2020-08-08T09:14:08.440Z</time>
      </trkpt>
      <trkpt lat="63.50167" lon="9.94923">
        <ele>114.978962</ele>
        <time>2020-08-08T09:14:14.452Z</time>
      </trkpt>
      <trkpt lat="63.50172" lon="9.94905">
        <ele>115.221432</ele>
        <time>2020-08-08T09:14:19.444Z</time>
      </trkpt>
      <trkpt lat="63.50177" lon="9.94888">
        <ele>115.465903</ele>
        <time>2020-08-08T09:14:24.459Z</time>
      </trkpt>
      <trkpt lat="63.50182" lon="9.94868">
        <ele>115.73788</ele>
        <time>2020-08-08T09:14:30.447Z</time>
      </trkpt>
      <trkpt lat="63.50186" lon="9.9485">
        <ele>115.980185</ele>
        <time>2020-08-08T09:14:35.447Z</time>
      </trkpt>
      <trkpt lat="63.50192" lon="9.9483">
        <ele>116.268413</ele>
        <time>2020-08-08T09:14:41.449Z</time>
      </trkpt>
      <trkpt lat="63.50197" lon="9.94811">
        <ele>116.528137</ele>
        <time>2020-08-08T09:14:46.475Z</time>
      </trkpt>
      <trkpt lat="63.50202" lon="9.94793">
        <ele>116.777986</ele>
        <time>2020-08-08T09:14:51.469Z</time>
      </trkpt>
      <trkpt lat="63.50206" lon="9.94773">
        <ele>117.033027</ele>
        <time>2020-08-08T09:14:55.449Z</time>
      </trkpt>
      <trkpt lat="63.50211" lon="9.94755">
        <ele>117.286313</ele>
        <time>2020-08-08T09:14:59.453Z</time>
      </trkpt>
      <trkpt lat="63.50217" lon="9.94738">
        <ele>117.541009</ele>
        <time>2020-08-08T09:15:03.452Z</time>
      </trkpt>
      <trkpt lat="63.50222" lon="9.94719">
        <ele>117.809</ele>
        <time>2020-08-08T09:15:07.467Z</time>
      </trkpt>
      <trkpt lat="63.50227" lon="9.94699">
        <ele>118.069418</ele>
        <time>2020-08-08T09:15:11.424Z</time>
      </trkpt>
      <trkpt lat="63.50232" lon="9.94682">
        <ele>118.308467</ele>
        <time>2020-08-08T09:15:15.460Z</time>
      </trkpt>
      <trkpt lat="63.50236" lon="9.94664">
        <ele>118.547771</ele>
        <time>2020-08-08T09:15:19.465Z</time>
      </trkpt>
      <trkpt lat="63.50241" lon="9.94647">
        <ele>118.796084</ele>
        <time>2020-08-08T09:15:23.458Z</time>
      </trkpt>
      <trkpt lat="63.50248" lon="9.9463">
        <ele>119.054349</ele>
        <time>2020-08-08T09:15:27.451Z</time>
      </trkpt>
      <trkpt lat="63.50253" lon="9.94612">
        <ele>119.253698</ele>
        <time>2020-08-08T09:15:31.468Z</time>
      </trkpt>
      <trkpt lat="63.50258" lon="9.94596">
        <ele>119.457032</ele>
        <time>2020-08-08T09:15:35.467Z</time>
      </trkpt>
      <trkpt lat="63.50263" lon="9.94578">
        <ele>119.654747</ele>
        <time>2020-08-08T09:15:39.471Z</time>
      </trkpt>
      <trkpt lat="63.50268" lon="9.9456">
        <ele>119.853912</ele>
        <time>2020-08-08T09:15:43.496Z</time>
      </trkpt>
      <trkpt lat="63.50273" lon="9.94542">
        <ele>120.055712</ele>
        <time>2020-08-08T09:15:47.487Z</time>
      </trkpt>
      <trkpt lat="63.50278" lon="9.94524">
        <ele>120.255619</ele>
        <time>2020-08-08T09:15:51.462Z</time>
      </trkpt>
      <trkpt lat="63.50282" lon="9.94505">
        <ele>120.460286</ele>
        <time>2020-08-08T09:15:55.452Z</time>
      </trkpt>
      <trkpt lat="63.50287" lon="9.94488">
        <ele>120.656897</ele>
        <time>2020-08-08T09:15:59.437Z</time>
      </trkpt>
      <trkpt lat="63.50292" lon="9.9447">
        <ele>120.856245</ele>
        <time>2020-08-08T09:16:03.472Z</time>
      </trkpt>
      <trkpt lat="63.50296" lon="9.94451">
        <ele>121.062419</ele>
        <time>2020-08-08T09:16:07.473Z</time>
      </trkpt>
      <trkpt lat="63.50302" lon="9.94431">
        <ele>121.284201</ele>
        <time>2020-08-08T09:16:11.468Z</time>
      </trkpt>
      <trkpt lat="63.50307" lon="9.94414">
        <ele>121.481844</ele>
        <time>2020-08-08T09:16:15.442Z</time>
      </trkpt>
      <trkpt lat="63.50312" lon="9.94397">
        <ele>121.675139</ele>
        <time>2020-08-08T09:16:19.494Z</time>
      </trkpt>
      <trkpt lat="63.50317" lon="9.94379">
        <ele>121.881094</ele>
        <time>2020-08-08T09:16:23.458Z</time>
      </trkpt>
      <trkpt lat="63.50324" lon="9.94361">
        <ele>122.099468</ele>
        <time>2020-08-08T09:16:27.457Z</time>
      </trkpt>
      <trkpt lat="63.50329" lon="9.94342">
        <ele>122.319675</ele>
        <time>2020-08-08T09:16:31.496Z</time>
      </trkpt>
      <trkpt lat="63.50334" lon="9.94323">
        <ele>122.523691</ele>
        <time>2020-08-08T09:16:35.450Z</time>
      </trkpt>
      <trkpt lat="63.50339" lon="9.94305">
        <ele>122.732342</ele>
        <time>2020-08-08T09:16:39.493Z</time>
      </trkpt>
      <trkpt lat="63.50345" lon="9.94285">
        <ele>122.998153</ele>
        <time>2020-08-08T09:16:43.459Z</time>
      </trkpt>
      <trkpt lat="63.50351" lon="9.94266">
        <ele>123.390378</ele>
        <time>2020-08-08T09:16:47.466Z</time>
      </trkpt>
      <trkpt lat="63.50355" lon="9.94248">
        <ele>123.758993</ele>
        <time>2020-08-08T09:16:51.451Z</time>
      </trkpt>
      <trkpt lat="63.50361" lon="9.9423">
        <ele>124.142002</ele>
        <time>2020-08-08T09:16:55.466Z</time>
      </trkpt>
      <trkpt lat="63.50367" lon="9.94211">
        <ele>124.541382</ele>
        <time>2020-08-08T09:16:59.490Z</time>
      </trkpt>
      <trkpt lat="63.50373" lon="9.94189">
        <ele>124.98257</ele>
        <time>2020-08-08T09:17:03.502Z</time>
      </trkpt>
      <trkpt lat="63.50379" lon="9.94167">
        <ele>125.434924</ele>
        <time>2020-08-08T09:17:07.472Z</time>
      </trkpt>
      <trkpt lat="63.50385" lon="9.94146">
        <ele>125.862994</ele>
        <time>2020-08-08T09:17:11.457Z</time>
      </trkpt>
      <trkpt lat="63.50391" lon="9.94125">
        <ele>126.291903</ele>
        <time>2020-08-08T09:17:15.458Z</time>
      </trkpt>
      <trkpt lat="63.50397" lon="9.94104">
        <ele>126.726664</ele>
        <time>2020-08-08T09:17:19.451Z</time>
      </trkpt>
      <trkpt lat="63.50403" lon="9.94085">
        <ele>127.104568</ele>
        <time>2020-08-08T09:17:23.460Z</time>
      </trkpt>
      <trkpt lat="63.50408" lon="9.94067">
        <ele>127.479717</ele>
        <time>2020-08-08T09:17:27.463Z</time>
      </trkpt>
      <trkpt lat="63.50415" lon="9.94047">
        <ele>127.905637</ele>
        <time>2020-08-08T09:17:32.466Z</time>
      </trkpt>
      <trkpt lat="63.5042" lon="9.94029">
        <ele>128.286435</ele>
        <time>2020-08-08T09:17:36.476Z</time>
      </trkpt>
      <trkpt lat="63.50426" lon="9.94011">
        <ele>128.665615</ele>
        <time>2020-08-08T09:17:40.480Z</time>
      </trkpt>
      <trkpt lat="63.50432" lon="9.93994">
        <ele>129.031502</ele>
        <time>2020-08-08T09:17:44.493Z</time>
      </trkpt>
      <trkpt lat="63.50437" lon="9.93976">
        <ele>129.403838</ele>
        <time>2020-08-08T09:17:48.515Z</time>
      </trkpt>
      <trkpt lat="63.50443" lon="9.93958">
        <ele>129.800059</ele>
        <time>2020-08-08T09:17:52.463Z</time>
      </trkpt>
      <trkpt lat="63.50449" lon="9.93939">
        <ele>130.062835</ele>
        <time>2020-08-08T09:17:56.488Z</time>
      </trkpt>
      <trkpt lat="63.50455" lon="9.93922">
        <ele>130.293917</ele>
        <time>2020-08-08T09:18:00.459Z</time>
      </trkpt>
      <trkpt lat="63.5046" lon="9.93905">
        <ele>130.516256</ele>
        <time>2020-08-08T09:18:04.441Z</time>
      </trkpt>
      <trkpt lat="63.50466" lon="9.93888">
        <ele>130.741407</ele>
        <time>2020-08-08T09:18:08.476Z</time>
      </trkpt>
      <trkpt lat="63.50472" lon="9.93872">
        <ele>130.967708</ele>
        <time>2020-08-08T09:18:12.469Z</time>
      </trkpt>
      <trkpt lat="63.50479" lon="9.93855">
        <ele>131.210044</ele>
        <time>2020-08-08T09:18:16.452Z</time>
      </trkpt>
      <trkpt lat="63.50485" lon="9.93839">
        <ele>131.427019</ele>
        <time>2020-08-08T09:18:20.435Z</time>
      </trkpt>
      <trkpt lat="63.50491" lon="9.93824">
        <ele>131.658389</ele>
        <time>2020-08-08T09:18:24.446Z</time>
      </trkpt>
      <trkpt lat="63.50499" lon="9.93809">
        <ele>131.901471</ele>
        <time>2020-08-08T09:18:28.469Z</time>
      </trkpt>
      <trkpt lat="63.50505" lon="9.93794">
        <ele>132.116629</ele>
        <time>2020-08-08T09:18:32.449Z</time>
      </trkpt>
      <trkpt lat="63.50512" lon="9.93779">
        <ele>132.348419</ele>
        <time>2020-08-08T09:18:36.448Z</time>
      </trkpt>
      <trkpt lat="63.50519" lon="9.93765">
        <ele>132.572622</ele>
        <time>2020-08-08T09:18:40.471Z</time>
      </trkpt>
      <trkpt lat="63.50527" lon="9.93749">
        <ele>132.815349</ele>
        <time>2020-08-08T09:18:44.449Z</time>
      </trkpt>
      <trkpt lat="63.50534" lon="9.93734">
        <ele>133.048619</ele>
        <time>2020-08-08T09:18:48.476Z</time>
      </trkpt>
      <trkpt lat="63.50541" lon="9.9372">
        <ele>133.279964</ele>
        <time>2020-08-08T09:18:52.454Z</time>
      </trkpt>
      <trkpt lat="63.50549" lon="9.93706">
        <ele>133.517806</ele>
        <time>2020-08-08T09:18:56.486Z</time>
      </trkpt>
      <trkpt lat="63.50557" lon="9.93693">
        <ele>133.761325</ele>
        <time>2020-08-08T09:19:00.448Z</time>
      </trkpt>
      <trkpt lat="63.50565" lon="9.93679">
        <ele>134.000395</ele>
        <time>2020-08-08T09:19:04.470Z</time>
      </trkpt>
      <trkpt lat="63.50573" lon="9.93667">
        <ele>134.26304</ele>
        <time>2020-08-08T09:19:08.462Z</time>
      </trkpt>
      <trkpt lat="63.50582" lon="9.93655">
        <ele>134.553559</ele>
        <time>2020-08-08T09:19:12.461Z</time>
      </trkpt>
      <trkpt lat="63.5059" lon="9.93647">
        <ele>134.817213</ele>
        <time>2020-08-08T09:19:16.451Z</time>
      </trkpt>
      <trkpt lat="63.50599" lon="9.93634">
        <ele>135.12003</ele>
        <time>2020-08-08T09:19:21.473Z</time>
      </trkpt>
      <trkpt lat="63.50606" lon="9.93621">
        <ele>135.383156</ele>
        <time>2020-08-08T09:19:25.475Z</time>
      </trkpt>
      <trkpt lat="63.50615" lon="9.93612">
        <ele>135.657008</ele>
        <time>2020-08-08T09:19:29.467Z</time>
      </trkpt>
      <trkpt lat="63.50625" lon="9.936">
        <ele>135.977815</ele>
        <time>2020-08-08T09:19:34.468Z</time>
      </trkpt>
      <trkpt lat="63.50633" lon="9.93591">
        <ele>136.254124</ele>
        <time>2020-08-08T09:19:38.460Z</time>
      </trkpt>
      <trkpt lat="63.50644" lon="9.93582">
        <ele>136.575765</ele>
        <time>2020-08-08T09:19:43.479Z</time>
      </trkpt>
      <trkpt lat="63.50652" lon="9.93573">
        <ele>136.8591</ele>
        <time>2020-08-08T09:19:47.470Z</time>
      </trkpt>
      <trkpt lat="63.50662" lon="9.93563">
        <ele>137.173922</ele>
        <time>2020-08-08T09:19:52.445Z</time>
      </trkpt>
      <trkpt lat="63.50671" lon="9.93555">
        <ele>137.453436</ele>
        <time>2020-08-08T09:19:56.469Z</time>
      </trkpt>
      <trkpt lat="63.50682" lon="9.93547">
        <ele>137.763999</ele>
        <time>2020-08-08T09:20:00.479Z</time>
      </trkpt>
      <trkpt lat="63.50691" lon="9.93542">
        <ele>138.048762</ele>
        <time>2020-08-08T09:20:04.470Z</time>
      </trkpt>
      <trkpt lat="63.50701" lon="9.93537">
        <ele>138.341418</ele>
        <time>2020-08-08T09:20:08.448Z</time>
      </trkpt>
      <trkpt lat="63.5071" lon="9.93533">
        <ele>138.616312</ele>
        <time>2020-08-08T09:20:12.455Z</time>
      </trkpt>
      <trkpt lat="63.50719" lon="9.93529">
        <ele>138.883763</ele>
        <time>2020-08-08T09:20:16.485Z</time>
      </trkpt>
      <trkpt lat="63.5073" lon="9.9353">
        <ele>139.193446</ele>
        <time>2020-08-08T09:20:20.466Z</time>
      </trkpt>
      <trkpt lat="63.5074" lon="9.93531">
        <ele>139.507058</ele>
        <time>2020-08-08T09:20:24.483Z</time>
      </trkpt>
      <trkpt lat="63.5075" lon="9.93528">
        <ele>139.848736</ele>
        <time>2020-08-08T09:20:28.448Z</time>
      </trkpt>
      <trkpt lat="63.5076" lon="9.93526">
        <ele>140.166473</ele>
        <time>2020-08-08T09:20:32.491Z</time>
      </trkpt>
      <trkpt lat="63.50769" lon="9.93523">
        <ele>140.475639</ele>
        <time>2020-08-08T09:20:36.509Z</time>
      </trkpt>
      <trkpt lat="63.50779" lon="9.93522">
        <ele>140.799411</ele>
        <time>2020-08-08T09:20:40.480Z</time>
      </trkpt>
      <trkpt lat="63.5079" lon="9.9352">
        <ele>141.166295</ele>
        <time>2020-08-08T09:20:45.454Z</time>
      </trkpt>
      <trkpt lat="63.50801" lon="9.93518">
        <ele>141.525019</ele>
        <time>2020-08-08T09:20:50.473Z</time>
      </trkpt>
      <trkpt lat="63.5081" lon="9.93516">
        <ele>141.85589</ele>
        <time>2020-08-08T09:20:55.477Z</time>
      </trkpt>
      <trkpt lat="63.50821" lon="9.93514">
        <ele>142.21343</ele>
        <time>2020-08-08T09:21:00.441Z</time>
      </trkpt>
      <trkpt lat="63.50832" lon="9.93512">
        <ele>142.57699</ele>
        <time>2020-08-08T09:21:05.472Z</time>
      </trkpt>
      <trkpt lat="63.50842" lon="9.93508">
        <ele>142.901871</ele>
        <time>2020-08-08T09:21:10.494Z</time>
      </trkpt>
      <trkpt lat="63.50852" lon="9.93508">
        <ele>143.258188</ele>
        <time>2020-08-08T09:21:15.438Z</time>
      </trkpt>
      <trkpt lat="63.50862" lon="9.93506">
        <ele>143.579845</ele>
        <time>2020-08-08T09:21:20.453Z</time>
      </trkpt>
      <trkpt lat="63.50872" lon="9.93504">
        <ele>143.92067</ele>
        <time>2020-08-08T09:21:25.453Z</time>
      </trkpt>
      <trkpt lat="63.50883" lon="9.935">
        <ele>144.301164</ele>
        <time>2020-08-08T09:21:30.453Z</time>
      </trkpt>
      <trkpt lat="63.50894" lon="9.93496">
        <ele>144.653591</ele>
        <time>2020-08-08T09:21:35.438Z</time>
      </trkpt>
      <trkpt lat="63.50905" lon="9.93492">
        <ele>145.023985</ele>
        <time>2020-08-08T09:21:40.488Z</time>
      </trkpt>
      <trkpt lat="63.50915" lon="9.93486">
        <ele>145.401159</ele>
        <time>2020-08-08T09:21:45.455Z</time>
      </trkpt>
      <trkpt lat="63.50925" lon="9.93481">
        <ele>145.940175</ele>
        <time>2020-08-08T09:21:50.477Z</time>
      </trkpt>
      <trkpt lat="63.50934" lon="9.93477">
        <ele>146.447465</ele>
        <time>2020-08-08T09:21:55.456Z</time>
      </trkpt>
      <trkpt lat="63.50942" lon="9.93471">
        <ele>146.962258</ele>
        <time>2020-08-08T09:22:00.450Z</time>
      </trkpt>
      <trkpt lat="63.50952" lon="9.93464">
        <ele>147.514622</ele>
        <time>2020-08-08T09:22:05.466Z</time>
      </trkpt>
      <trkpt lat="63.50962" lon="9.93458">
        <ele>148.083746</ele>
        <time>2020-08-08T09:22:10.456Z</time>
      </trkpt>
      <trkpt lat="63.50973" lon="9.93454">
        <ele>148.68335</ele>
        <time>2020-08-08T09:22:15.498Z</time>
      </trkpt>
      <trkpt lat="63.50983" lon="9.9345">
        <ele>149.276297</ele>
        <time>2020-08-08T09:22:20.471Z</time>
      </trkpt>
      <trkpt lat="63.50992" lon="9.93446">
        <ele>149.798024</ele>
        <time>2020-08-08T09:22:24.466Z</time>
      </trkpt>
      <trkpt lat="63.51003" lon="9.93441">
        <ele>150.376934</ele>
        <time>2020-08-08T09:22:29.470Z</time>
      </trkpt>
      <trkpt lat="63.51012" lon="9.93433">
        <ele>150.927239</ele>
        <time>2020-08-08T09:22:34.455Z</time>
      </trkpt>
      <trkpt lat="63.51021" lon="9.93426">
        <ele>151.436981</ele>
        <time>2020-08-08T09:22:39.462Z</time>
      </trkpt>
      <trkpt lat="63.5103" lon="9.93421">
        <ele>151.956319</ele>
        <time>2020-08-08T09:22:44.485Z</time>
      </trkpt>
      <trkpt lat="63.51039" lon="9.93416">
        <ele>152.480397</ele>
        <time>2020-08-08T09:22:49.442Z</time>
      </trkpt>
      <trkpt lat="63.51049" lon="9.93408">
        <ele>153.039228</ele>
        <time>2020-08-08T09:22:55.466Z</time>
      </trkpt>
      <trkpt lat="63.51058" lon="9.93404">
        <ele>153.567269</ele>
        <time>2020-08-08T09:22:59.440Z</time>
      </trkpt>
      <trkpt lat="63.51068" lon="9.93397">
        <ele>154.163957</ele>
        <time>2020-08-08T09:23:04.482Z</time>
      </trkpt>
      <trkpt lat="63.51079" lon="9.93389">
        <ele>154.786213</ele>
        <time>2020-08-08T09:23:09.463Z</time>
      </trkpt>
      <trkpt lat="63.51089" lon="9.93381">
        <ele>155.338594</ele>
        <time>2020-08-08T09:23:14.514Z</time>
      </trkpt>
      <trkpt lat="63.51098" lon="9.93378">
        <ele>155.694304</ele>
        <time>2020-08-08T09:23:18.484Z</time>
      </trkpt>
      <trkpt lat="63.51109" lon="9.93376">
        <ele>156.105413</ele>
        <time>2020-08-08T09:23:22.454Z</time>
      </trkpt>
      <trkpt lat="63.51118" lon="9.93371">
        <ele>156.491079</ele>
        <time>2020-08-08T09:23:26.465Z</time>
      </trkpt>
      <trkpt lat="63.51128" lon="9.93366">
        <ele>156.858048</ele>
        <time>2020-08-08T09:23:30.464Z</time>
      </trkpt>
      <trkpt lat="63.51138" lon="9.93357">
        <ele>157.278552</ele>
        <time>2020-08-08T09:23:34.457Z</time>
      </trkpt>
      <trkpt lat="63.51147" lon="9.9335">
        <ele>157.662418</ele>
        <time>2020-08-08T09:23:38.444Z</time>
      </trkpt>
      <trkpt lat="63.51157" lon="9.93342">
        <ele>158.066052</ele>
        <time>2020-08-08T09:23:43.459Z</time>
      </trkpt>
      <trkpt lat="63.51167" lon="9.9333">
        <ele>158.497091</ele>
        <time>2020-08-08T09:23:48.449Z</time>
      </trkpt>
      <trkpt lat="63.51177" lon="9.93321">
        <ele>158.925561</ele>
        <time>2020-08-08T09:23:53.447Z</time>
      </trkpt>
      <trkpt lat="63.51186" lon="9.93312">
        <ele>159.29885</ele>
        <time>2020-08-08T09:23:57.450Z</time>
      </trkpt>
      <trkpt lat="63.51194" lon="9.933">
        <ele>159.662676</ele>
        <time>2020-08-08T09:24:01.436Z</time>
      </trkpt>
      <trkpt lat="63.51202" lon="9.93288">
        <ele>160.038255</ele>
        <time>2020-08-08T09:24:05.495Z</time>
      </trkpt>
      <trkpt lat="63.5121" lon="9.93275">
        <ele>160.411234</ele>
        <time>2020-08-08T09:24:09.445Z</time>
      </trkpt>
      <trkpt lat="63.51218" lon="9.93261">
        <ele>160.801943</ele>
        <time>2020-08-08T09:24:13.458Z</time>
      </trkpt>
      <trkpt lat="63.51225" lon="9.93248">
        <ele>161.163824</ele>
        <time>2020-08-08T09:24:17.453Z</time>
      </trkpt>
      <trkpt lat="63.51233" lon="9.93235">
        <ele>161.527649</ele>
        <time>2020-08-08T09:24:21.439Z</time>
      </trkpt>
      <trkpt lat="63.51239" lon="9.93222">
        <ele>161.881022</ele>
        <time>2020-08-08T09:24:25.506Z</time>
      </trkpt>
      <trkpt lat="63.51246" lon="9.93207">
        <ele>162.210617</ele>
        <time>2020-08-08T09:24:29.438Z</time>
      </trkpt>
      <trkpt lat="63.51253" lon="9.93193">
        <ele>162.246719</ele>
        <time>2020-08-08T09:24:33.509Z</time>
      </trkpt>
      <trkpt lat="63.51262" lon="9.93178">
        <ele>162.291199</ele>
        <time>2020-08-08T09:24:38.482Z</time>
      </trkpt>
      <trkpt lat="63.51269" lon="9.9316">
        <ele>162.334525</ele>
        <time>2020-08-08T09:24:42.462Z</time>
      </trkpt>
      <trkpt lat="63.51277" lon="9.93144">
        <ele>162.374632</ele>
        <time>2020-08-08T09:24:46.440Z</time>
      </trkpt>
      <trkpt lat="63.51283" lon="9.93127">
        <ele>162.412482</ele>
        <time>2020-08-08T09:24:50.451Z</time>
      </trkpt>
      <trkpt lat="63.51291" lon="9.93113">
        <ele>162.453081</ele>
        <time>2020-08-08T09:24:54.515Z</time>
      </trkpt>
      <trkpt lat="63.51299" lon="9.93097">
        <ele>162.494146</ele>
        <time>2020-08-08T09:24:58.448Z</time>
      </trkpt>
      <trkpt lat="63.51307" lon="9.93082">
        <ele>162.536031</ele>
        <time>2020-08-08T09:25:02.461Z</time>
      </trkpt>
      <trkpt lat="63.51314" lon="9.93066">
        <ele>162.576016</ele>
        <time>2020-08-08T09:25:06.453Z</time>
      </trkpt>
      <trkpt lat="63.5132" lon="9.93049">
        <ele>162.613346</ele>
        <time>2020-08-08T09:25:10.436Z</time>
      </trkpt>
      <trkpt lat="63.51327" lon="9.93032">
        <ele>162.654156</ele>
        <time>2020-08-08T09:25:14.457Z</time>
      </trkpt>
      <trkpt lat="63.51336" lon="9.93018">
        <ele>162.696127</ele>
        <time>2020-08-08T09:25:18.459Z</time>
      </trkpt>
      <trkpt lat="63.51343" lon="9.93004">
        <ele>162.734054</ele>
        <time>2020-08-08T09:25:22.467Z</time>
      </trkpt>
      <trkpt lat="63.5135" lon="9.92989">
        <ele>162.771734</ele>
        <time>2020-08-08T09:25:26.446Z</time>
      </trkpt>
      <trkpt lat="63.51357" lon="9.92975">
        <ele>162.810344</ele>
        <time>2020-08-08T09:25:30.490Z</time>
      </trkpt>
      <trkpt lat="63.51366" lon="9.92961">
        <ele>162.851045</ele>
        <time>2020-08-08T09:25:34.454Z</time>
      </trkpt>
      <trkpt lat="63.51374" lon="9.92949">
        <ele>162.8889</ele>
        <time>2020-08-08T09:25:38.497Z</time>
      </trkpt>
      <trkpt lat="63.51383" lon="9.92938">
        <ele>162.86052</ele>
        <time>2020-08-08T09:25:42.436Z</time>
      </trkpt>
      <trkpt lat="63.51391" lon="9.92924">
        <ele>162.699389</ele>
        <time>2020-08-08T09:25:46.450Z</time>
      </trkpt>
      <trkpt lat="63.51401" lon="9.9291">
        <ele>162.53208</ele>
        <time>2020-08-08T09:25:50.446Z</time>
      </trkpt>
      <trkpt lat="63.5141" lon="9.92898">
        <ele>162.373609</ele>
        <time>2020-08-08T09:25:53.467Z</time>
      </trkpt>
      <trkpt lat="63.5142" lon="9.92886">
        <ele>162.20283</ele>
        <time>2020-08-08T09:25:56.450Z</time>
      </trkpt>
      <trkpt lat="63.51431" lon="9.92873">
        <ele>162.01777</ele>
        <time>2020-08-08T09:25:59.448Z</time>
      </trkpt>
      <trkpt lat="63.51443" lon="9.92861">
        <ele>161.824587</ele>
        <time>2020-08-08T09:26:02.445Z</time>
      </trkpt>
      <trkpt lat="63.51452" lon="9.92853">
        <ele>161.681928</ele>
        <time>2020-08-08T09:26:04.483Z</time>
      </trkpt>
      <trkpt lat="63.51462" lon="9.92845">
        <ele>161.534714</ele>
        <time>2020-08-08T09:26:06.439Z</time>
      </trkpt>
      <trkpt lat="63.51471" lon="9.92839">
        <ele>161.382619</ele>
        <time>2020-08-08T09:26:08.460Z</time>
      </trkpt>
      <trkpt lat="63.51481" lon="9.92832">
        <ele>161.235164</ele>
        <time>2020-08-08T09:26:10.454Z</time>
      </trkpt>
      <trkpt lat="63.51491" lon="9.92826">
        <ele>161.084373</ele>
        <time>2020-08-08T09:26:12.471Z</time>
      </trkpt>
      <trkpt lat="63.51501" lon="9.9282">
        <ele>160.926758</ele>
        <time>2020-08-08T09:26:14.489Z</time>
      </trkpt>
      <trkpt lat="63.51511" lon="9.92815">
        <ele>160.774997</ele>
        <time>2020-08-08T09:26:16.469Z</time>
      </trkpt>
      <trkpt lat="63.51521" lon="9.92811">
        <ele>160.618083</ele>
        <time>2020-08-08T09:26:18.452Z</time>
      </trkpt>
      <trkpt lat="63.51532" lon="9.92807">
        <ele>160.460392</ele>
        <time>2020-08-08T09:26:20.479Z</time>
      </trkpt>
      <trkpt lat="63.51542" lon="9.92804">
        <ele>160.310895</ele>
        <time>2020-08-08T09:26:22.472Z</time>
      </trkpt>
      <trkpt lat="63.51551" lon="9.92803">
        <ele>160.236264</ele>
        <time>2020-08-08T09:26:24.474Z</time>
      </trkpt>
      <trkpt lat="63.51562" lon="9.92802">
        <ele>160.212581</ele>
        <time>2020-08-08T09:26:26.459Z</time>
      </trkpt>
      <trkpt lat="63.51572" lon="9.92801">
        <ele>160.188663</ele>
        <time>2020-08-08T09:26:28.481Z</time>
      </trkpt>
      <trkpt lat="63.51583" lon="9.92799">
        <ele>160.164466</ele>
        <time>2020-08-08T09:26:30.437Z</time>
      </trkpt>
      <trkpt lat="63.51595" lon="9.92797">
        <ele>160.138966</ele>
        <time>2020-08-08T09:26:32.454Z</time>
      </trkpt>
      <trkpt lat="63.51606" lon="9.92796">
        <ele>160.114587</ele>
        <time>2020-08-08T09:26:34.439Z</time>
      </trkpt>
      <trkpt lat="63.51617" lon="9.92794">
        <ele>160.089038</ele>
        <time>2020-08-08T09:26:36.461Z</time>
      </trkpt>
      <trkpt lat="63.51628" lon="9.92791">
        <ele>160.063683</ele>
        <time>2020-08-08T09:26:38.452Z</time>
      </trkpt>
      <trkpt lat="63.51639" lon="9.92788">
        <ele>160.038915</ele>
        <time>2020-08-08T09:26:40.452Z</time>
      </trkpt>
      <trkpt lat="63.5165" lon="9.92785">
        <ele>160.015045</ele>
        <time>2020-08-08T09:26:42.487Z</time>
      </trkpt>
      <trkpt lat="63.51659" lon="9.92781">
        <ele>159.993185</ele>
        <time>2020-08-08T09:26:44.482Z</time>
      </trkpt>
      <trkpt lat="63.51669" lon="9.92776">
        <ele>159.971201</ele>
        <time>2020-08-08T09:26:46.462Z</time>
      </trkpt>
      <trkpt lat="63.51682" lon="9.9277">
        <ele>159.942021</ele>
        <time>2020-08-08T09:26:49.463Z</time>
      </trkpt>
      <trkpt lat="63.51691" lon="9.92764">
        <ele>159.921434</ele>
        <time>2020-08-08T09:26:51.461Z</time>
      </trkpt>
      <trkpt lat="63.51703" lon="9.92756">
        <ele>159.893666</ele>
        <time>2020-08-08T09:26:54.439Z</time>
      </trkpt>
      <trkpt lat="63.51714" lon="9.92746">
        <ele>159.866719</ele>
        <time>2020-08-08T09:26:57.452Z</time>
      </trkpt>
      <trkpt lat="63.51725" lon="9.92738">
        <ele>159.936662</ele>
        <time>2020-08-08T09:27:00.448Z</time>
      </trkpt>
      <trkpt lat="63.51735" lon="9.92731">
        <ele>160.443713</ele>
        <time>2020-08-08T09:27:03.453Z</time>
      </trkpt>
      <trkpt lat="63.51744" lon="9.92724">
        <ele>160.862649</ele>
        <time>2020-08-08T09:27:06.513Z</time>
      </trkpt>
      <trkpt lat="63.51754" lon="9.92716">
        <ele>161.33011</ele>
        <time>2020-08-08T09:27:09.441Z</time>
      </trkpt>
      <trkpt lat="63.51763" lon="9.9271">
        <ele>161.765882</ele>
        <time>2020-08-08T09:27:12.440Z</time>
      </trkpt>
      <trkpt lat="63.51773" lon="9.92704">
        <ele>162.217702</ele>
        <time>2020-08-08T09:27:15.475Z</time>
      </trkpt>
      <trkpt lat="63.51783" lon="9.92698">
        <ele>162.685835</ele>
        <time>2020-08-08T09:27:18.493Z</time>
      </trkpt>
      <trkpt lat="63.51792" lon="9.92693">
        <ele>163.09349</ele>
        <time>2020-08-08T09:27:21.481Z</time>
      </trkpt>
      <trkpt lat="63.51803" lon="9.92688">
        <ele>163.584788</ele>
        <time>2020-08-08T09:27:25.448Z</time>
      </trkpt>
      <trkpt lat="63.51813" lon="9.92685">
        <ele>164.03153</ele>
        <time>2020-08-08T09:27:29.442Z</time>
      </trkpt>
      <trkpt lat="63.51823" lon="9.92682">
        <ele>164.507347</ele>
        <time>2020-08-08T09:27:33.452Z</time>
      </trkpt>
      <trkpt lat="63.51833" lon="9.92679">
        <ele>164.954334</ele>
        <time>2020-08-08T09:27:37.457Z</time>
      </trkpt>
      <trkpt lat="63.51842" lon="9.92677">
        <ele>165.372313</ele>
        <time>2020-08-08T09:27:41.460Z</time>
      </trkpt>
      <trkpt lat="63.51852" lon="9.92677">
        <ele>165.802354</ele>
        <time>2020-08-08T09:27:45.464Z</time>
      </trkpt>
      <trkpt lat="63.51863" lon="9.92678">
        <ele>166.273049</ele>
        <time>2020-08-08T09:27:49.481Z</time>
      </trkpt>
      <trkpt lat="63.51872" lon="9.9268">
        <ele>166.695833</ele>
        <time>2020-08-08T09:27:53.471Z</time>
      </trkpt>
      <trkpt lat="63.51881" lon="9.92682">
        <ele>167.123862</ele>
        <time>2020-08-08T09:27:57.459Z</time>
      </trkpt>
      <trkpt lat="63.51891" lon="9.92685">
        <ele>167.549763</ele>
        <time>2020-08-08T09:28:01.470Z</time>
      </trkpt>
      <trkpt lat="63.51902" lon="9.92688">
        <ele>168.066587</ele>
        <time>2020-08-08T09:28:06.446Z</time>
      </trkpt>
      <trkpt lat="63.51911" lon="9.92691">
        <ele>168.557304</ele>
        <time>2020-08-08T09:28:10.454Z</time>
      </trkpt>
      <trkpt lat="63.5192" lon="9.92696">
        <ele>169.070858</ele>
        <time>2020-08-08T09:28:14.457Z</time>
      </trkpt>
      <trkpt lat="63.51929" lon="9.92701">
        <ele>169.598353</ele>
        <time>2020-08-08T09:28:18.466Z</time>
      </trkpt>
      <trkpt lat="63.5194" lon="9.92708">
        <ele>170.199041</ele>
        <time>2020-08-08T09:28:22.453Z</time>
      </trkpt>
      <trkpt lat="63.5195" lon="9.92716">
        <ele>170.816699</ele>
        <time>2020-08-08T09:28:26.472Z</time>
      </trkpt>
      <trkpt lat="63.51961" lon="9.92724">
        <ele>171.408235</ele>
        <time>2020-08-08T09:28:30.477Z</time>
      </trkpt>
      <trkpt lat="63.51971" lon="9.92733">
        <ele>171.987552</ele>
        <time>2020-08-08T09:28:34.476Z</time>
      </trkpt>
      <trkpt lat="63.5198" lon="9.92742">
        <ele>172.525624</ele>
        <time>2020-08-08T09:28:38.440Z</time>
      </trkpt>
      <trkpt lat="63.51989" lon="9.92753">
        <ele>173.084309</ele>
        <time>2020-08-08T09:28:42.492Z</time>
      </trkpt>
      <trkpt lat="63.51999" lon="9.92766">
        <ele>173.722437</ele>
        <time>2020-08-08T09:28:46.462Z</time>
      </trkpt>
      <trkpt lat="63.52008" lon="9.92777">
        <ele>174.278567</ele>
        <time>2020-08-08T09:28:50.442Z</time>
      </trkpt>
      <trkpt lat="63.52016" lon="9.92791">
        <ele>174.85359</ele>
        <time>2020-08-08T09:28:54.448Z</time>
      </trkpt>
      <trkpt lat="63.52025" lon="9.92803">
        <ele>175.406895</ele>
        <time>2020-08-08T09:28:58.474Z</time>
      </trkpt>
      <trkpt lat="63.52033" lon="9.92815">
        <ele>175.939725</ele>
        <time>2020-08-08T09:29:02.454Z</time>
      </trkpt>
      <trkpt lat="63.52042" lon="9.92826">
        <ele>176.508816</ele>
        <time>2020-08-08T09:29:06.522Z</time>
      </trkpt>
      <trkpt lat="63.52051" lon="9.9284">
        <ele>177.073494</ele>
        <time>2020-08-08T09:29:10.453Z</time>
      </trkpt>
      <trkpt lat="63.52059" lon="9.9285">
        <ele>177.572584</ele>
        <time>2020-08-08T09:29:14.485Z</time>
      </trkpt>
      <trkpt lat="63.52069" lon="9.92865">
        <ele>177.446874</ele>
        <time>2020-08-08T09:29:19.456Z</time>
      </trkpt>
      <trkpt lat="63.52078" lon="9.92879">
        <ele>177.145821</ele>
        <time>2020-08-08T09:29:23.456Z</time>
      </trkpt>
      <trkpt lat="63.52086" lon="9.92892">
        <ele>176.872652</ele>
        <time>2020-08-08T09:29:27.476Z</time>
      </trkpt>
      <trkpt lat="63.52095" lon="9.92905">
        <ele>176.588469</ele>
        <time>2020-08-08T09:29:31.473Z</time>
      </trkpt>
      <trkpt lat="63.52104" lon="9.92918">
        <ele>176.284079</ele>
        <time>2020-08-08T09:29:35.459Z</time>
      </trkpt>
      <trkpt lat="63.52112" lon="9.92928">
        <ele>176.037092</ele>
        <time>2020-08-08T09:29:38.453Z</time>
      </trkpt>
      <trkpt lat="63.52121" lon="9.92939">
        <ele>175.762985</ele>
        <time>2020-08-08T09:29:41.454Z</time>
      </trkpt>
      <trkpt lat="63.52131" lon="9.9295">
        <ele>175.46621</ele>
        <time>2020-08-08T09:29:44.505Z</time>
      </trkpt>
      <trkpt lat="63.52143" lon="9.92961">
        <ele>175.120318</ele>
        <time>2020-08-08T09:29:47.432Z</time>
      </trkpt>
      <trkpt lat="63.52152" lon="9.92969">
        <ele>174.86522</ele>
        <time>2020-08-08T09:29:49.473Z</time>
      </trkpt>
      <trkpt lat="63.52161" lon="9.92978">
        <ele>174.596712</ele>
        <time>2020-08-08T09:29:51.448Z</time>
      </trkpt>
      <trkpt lat="63.5217" lon="9.92986">
        <ele>174.318162</ele>
        <time>2020-08-08T09:29:53.454Z</time>
      </trkpt>
      <trkpt lat="63.5218" lon="9.92994">
        <ele>174.030346</ele>
        <time>2020-08-08T09:29:55.473Z</time>
      </trkpt>
      <trkpt lat="63.52191" lon="9.93002">
        <ele>173.7298</ele>
        <time>2020-08-08T09:29:57.480Z</time>
      </trkpt>
      <trkpt lat="63.52202" lon="9.93011">
        <ele>173.414556</ele>
        <time>2020-08-08T09:29:59.439Z</time>
      </trkpt>
      <trkpt lat="63.52213" lon="9.9302">
        <ele>173.106898</ele>
        <time>2020-08-08T09:30:01.450Z</time>
      </trkpt>
      <trkpt lat="63.52224" lon="9.93029">
        <ele>172.816858</ele>
        <time>2020-08-08T09:30:03.450Z</time>
      </trkpt>
      <trkpt lat="63.52235" lon="9.93038">
        <ele>172.663946</ele>
        <time>2020-08-08T09:30:05.453Z</time>
      </trkpt>
      <trkpt lat="63.52245" lon="9.93047">
        <ele>172.520894</ele>
        <time>2020-08-08T09:30:07.479Z</time>
      </trkpt>
      <trkpt lat="63.52255" lon="9.93055">
        <ele>172.384883</ele>
        <time>2020-08-08T09:30:09.512Z</time>
      </trkpt>
      <trkpt lat="63.52265" lon="9.93064">
        <ele>172.248265</ele>
        <time>2020-08-08T09:30:11.447Z</time>
      </trkpt>
      <trkpt lat="63.52275" lon="9.93073">
        <ele>172.108413</ele>
        <time>2020-08-08T09:30:13.453Z</time>
      </trkpt>
      <trkpt lat="63.52284" lon="9.93082">
        <ele>171.979059</ele>
        <time>2020-08-08T09:30:15.479Z</time>
      </trkpt>
      <trkpt lat="63.52292" lon="9.93091">
        <ele>171.860495</ele>
        <time>2020-08-08T09:30:17.513Z</time>
      </trkpt>
      <trkpt lat="63.52304" lon="9.93103">
        <ele>171.69862</ele>
        <time>2020-08-08T09:30:20.479Z</time>
      </trkpt>
      <trkpt lat="63.52315" lon="9.93115">
        <ele>171.536239</ele>
        <time>2020-08-08T09:30:23.510Z</time>
      </trkpt>
      <trkpt lat="63.52326" lon="9.93129">
        <ele>171.375211</ele>
        <time>2020-08-08T09:30:26.485Z</time>
      </trkpt>
      <trkpt lat="63.52336" lon="9.93144">
        <ele>171.220664</ele>
        <time>2020-08-08T09:30:29.467Z</time>
      </trkpt>
      <trkpt lat="63.52344" lon="9.93155">
        <ele>171.103253</ele>
        <time>2020-08-08T09:30:31.458Z</time>
      </trkpt>
      <trkpt lat="63.52352" lon="9.93169">
        <ele>170.968692</ele>
        <time>2020-08-08T09:30:33.491Z</time>
      </trkpt>
      <trkpt lat="63.52361" lon="9.93184">
        <ele>170.818682</ele>
        <time>2020-08-08T09:30:35.441Z</time>
      </trkpt>
      <trkpt lat="63.52371" lon="9.93201">
        <ele>170.666256</ele>
        <time>2020-08-08T09:30:37.445Z</time>
      </trkpt>
      <trkpt lat="63.52381" lon="9.93218">
        <ele>170.523067</ele>
        <time>2020-08-08T09:30:39.460Z</time>
      </trkpt>
      <trkpt lat="63.52392" lon="9.93235">
        <ele>170.526809</ele>
        <time>2020-08-08T09:30:41.492Z</time>
      </trkpt>
      <trkpt lat="63.52403" lon="9.93253">
        <ele>170.530841</ele>
        <time>2020-08-08T09:30:43.442Z</time>
      </trkpt>
      <trkpt lat="63.52416" lon="9.93272">
        <ele>170.535376</ele>
        <time>2020-08-08T09:30:45.467Z</time>
      </trkpt>
      <trkpt lat="63.5243" lon="9.9329">
        <ele>170.540093</ele>
        <time>2020-08-08T09:30:47.484Z</time>
      </trkpt>
      <trkpt lat="63.52443" lon="9.93307">
        <ele>170.544541</ele>
        <time>2020-08-08T09:30:49.513Z</time>
      </trkpt>
      <trkpt lat="63.52456" lon="9.93323">
        <ele>170.548747</ele>
        <time>2020-08-08T09:30:51.452Z</time>
      </trkpt>
      <trkpt lat="63.52469" lon="9.93335">
        <ele>170.553028</ele>
        <time>2020-08-08T09:30:53.448Z</time>
      </trkpt>
      <trkpt lat="63.52484" lon="9.93345">
        <ele>170.55746</ele>
        <time>2020-08-08T09:30:55.444Z</time>
      </trkpt>
      <trkpt lat="63.52498" lon="9.93353">
        <ele>170.561576</ele>
        <time>2020-08-08T09:30:57.516Z</time>
      </trkpt>
      <trkpt lat="63.52511" lon="9.9336">
        <ele>170.565582</ele>
        <time>2020-08-08T09:30:59.464Z</time>
      </trkpt>
      <trkpt lat="63.52525" lon="9.93365">
        <ele>170.569717</ele>
        <time>2020-08-08T09:31:01.460Z</time>
      </trkpt>
      <trkpt lat="63.52538" lon="9.93366">
        <ele>170.573657</ele>
        <time>2020-08-08T09:31:03.446Z</time>
      </trkpt>
      <trkpt lat="63.52552" lon="9.93365">
        <ele>170.159267</ele>
        <time>2020-08-08T09:31:05.450Z</time>
      </trkpt>
      <trkpt lat="63.52567" lon="9.9336">
        <ele>169.443219</ele>
        <time>2020-08-08T09:31:07.496Z</time>
      </trkpt>
      <trkpt lat="63.52582" lon="9.93353">
        <ele>168.75477</ele>
        <time>2020-08-08T09:31:09.473Z</time>
      </trkpt>
      <trkpt lat="63.52596" lon="9.93345">
        <ele>168.086812</ele>
        <time>2020-08-08T09:31:11.460Z</time>
      </trkpt>
      <trkpt lat="63.5261" lon="9.93333">
        <ele>167.387976</ele>
        <time>2020-08-08T09:31:13.444Z</time>
      </trkpt>
      <trkpt lat="63.52624" lon="9.93321">
        <ele>166.70989</ele>
        <time>2020-08-08T09:31:15.458Z</time>
      </trkpt>
      <trkpt lat="63.52637" lon="9.93307">
        <ele>166.050807</ele>
        <time>2020-08-08T09:31:17.433Z</time>
      </trkpt>
      <trkpt lat="63.52649" lon="9.93292">
        <ele>165.434109</ele>
        <time>2020-08-08T09:31:19.440Z</time>
      </trkpt>
      <trkpt lat="63.5266" lon="9.93277">
        <ele>164.825184</ele>
        <time>2020-08-08T09:31:21.435Z</time>
      </trkpt>
      <trkpt lat="63.52671" lon="9.93261">
        <ele>164.22912</ele>
        <time>2020-08-08T09:31:23.482Z</time>
      </trkpt>
      <trkpt lat="63.52681" lon="9.93246">
        <ele>163.65193</ele>
        <time>2020-08-08T09:31:25.518Z</time>
      </trkpt>
      <trkpt lat="63.52693" lon="9.9323">
        <ele>163.030435</ele>
        <time>2020-08-08T09:31:27.487Z</time>
      </trkpt>
      <trkpt lat="63.52703" lon="9.93214">
        <ele>162.44929</ele>
        <time>2020-08-08T09:31:29.468Z</time>
      </trkpt>
      <trkpt lat="63.52713" lon="9.93201">
        <ele>162.293297</ele>
        <time>2020-08-08T09:31:31.433Z</time>
      </trkpt>
      <trkpt lat="63.52722" lon="9.93189">
        <ele>162.295852</ele>
        <time>2020-08-08T09:31:33.534Z</time>
      </trkpt>
      <trkpt lat="63.5273" lon="9.93176">
        <ele>162.298217</ele>
        <time>2020-08-08T09:31:35.477Z</time>
      </trkpt>
      <trkpt lat="63.52739" lon="9.93165">
        <ele>162.300596</ele>
        <time>2020-08-08T09:31:37.459Z</time>
      </trkpt>
      <trkpt lat="63.52746" lon="9.93154">
        <ele>162.302746</ele>
        <time>2020-08-08T09:31:39.456Z</time>
      </trkpt>
      <trkpt lat="63.52754" lon="9.93143">
        <ele>162.304882</ele>
        <time>2020-08-08T09:31:41.442Z</time>
      </trkpt>
      <trkpt lat="63.52762" lon="9.93132">
        <ele>162.307009</ele>
        <time>2020-08-08T09:31:43.440Z</time>
      </trkpt>
      <trkpt lat="63.52773" lon="9.93116">
        <ele>162.310166</ele>
        <time>2020-08-08T09:31:46.456Z</time>
      </trkpt>
      <trkpt lat="63.52784" lon="9.931">
        <ele>162.313323</ele>
        <time>2020-08-08T09:31:49.467Z</time>
      </trkpt>
      <trkpt lat="63.52792" lon="9.93089">
        <ele>162.315465</ele>
        <time>2020-08-08T09:31:51.459Z</time>
      </trkpt>
      <trkpt lat="63.52803" lon="9.93073">
        <ele>162.318569</ele>
        <time>2020-08-08T09:31:54.473Z</time>
      </trkpt>
      <trkpt lat="63.5281" lon="9.93061">
        <ele>162.320768</ele>
        <time>2020-08-08T09:31:56.453Z</time>
      </trkpt>
      <trkpt lat="63.52819" lon="9.9305">
        <ele>162.323072</ele>
        <time>2020-08-08T09:31:58.454Z</time>
      </trkpt>
      <trkpt lat="63.52828" lon="9.93037">
        <ele>162.325621</ele>
        <time>2020-08-08T09:32:00.481Z</time>
      </trkpt>
      <trkpt lat="63.52837" lon="9.93025">
        <ele>162.328208</ele>
        <time>2020-08-08T09:32:02.453Z</time>
      </trkpt>
      <trkpt lat="63.52847" lon="9.93011">
        <ele>162.330925</ele>
        <time>2020-08-08T09:32:04.476Z</time>
      </trkpt>
      <trkpt lat="63.52856" lon="9.92998">
        <ele>162.333606</ele>
        <time>2020-08-08T09:32:06.458Z</time>
      </trkpt>
      <trkpt lat="63.52866" lon="9.92984">
        <ele>162.395512</ele>
        <time>2020-08-08T09:32:08.464Z</time>
      </trkpt>
      <trkpt lat="63.52875" lon="9.92969">
        <ele>162.468665</ele>
        <time>2020-08-08T09:32:10.451Z</time>
      </trkpt>
      <trkpt lat="63.52885" lon="9.92955">
        <ele>162.544338</ele>
        <time>2020-08-08T09:32:12.481Z</time>
      </trkpt>
      <trkpt lat="63.52894" lon="9.92941">
        <ele>162.619039</ele>
        <time>2020-08-08T09:32:14.487Z</time>
      </trkpt>
      <trkpt lat="63.52904" lon="9.92927">
        <ele>162.697321</ele>
        <time>2020-08-08T09:32:16.466Z</time>
      </trkpt>
      <trkpt lat="63.52914" lon="9.92914">
        <ele>162.772363</ele>
        <time>2020-08-08T09:32:18.460Z</time>
      </trkpt>
      <trkpt lat="63.52923" lon="9.92901">
        <ele>162.845472</ele>
        <time>2020-08-08T09:32:20.438Z</time>
      </trkpt>
      <trkpt lat="63.52932" lon="9.92888">
        <ele>162.916464</ele>
        <time>2020-08-08T09:32:22.471Z</time>
      </trkpt>
      <trkpt lat="63.52941" lon="9.92876">
        <ele>162.986018</ele>
        <time>2020-08-08T09:32:24.451Z</time>
      </trkpt>
      <trkpt lat="63.5295" lon="9.92864">
        <ele>163.054289</ele>
        <time>2020-08-08T09:32:26.485Z</time>
      </trkpt>
      <trkpt lat="63.52959" lon="9.92853">
        <ele>163.119642</ele>
        <time>2020-08-08T09:32:28.454Z</time>
      </trkpt>
      <trkpt lat="63.52967" lon="9.92842">
        <ele>163.184402</ele>
        <time>2020-08-08T09:32:30.438Z</time>
      </trkpt>
      <trkpt lat="63.52976" lon="9.9283">
        <ele>163.250626</ele>
        <time>2020-08-08T09:32:32.471Z</time>
      </trkpt>
      <trkpt lat="63.52984" lon="9.92819">
        <ele>163.315829</ele>
        <time>2020-08-08T09:32:34.455Z</time>
      </trkpt>
      <trkpt lat="63.52992" lon="9.92808">
        <ele>163.379895</ele>
        <time>2020-08-08T09:32:36.450Z</time>
      </trkpt>
      <trkpt lat="63.53001" lon="9.92797">
        <ele>163.442524</ele>
        <time>2020-08-08T09:32:38.477Z</time>
      </trkpt>
      <trkpt lat="63.53011" lon="9.92781">
        <ele>163.536953</ele>
        <time>2020-08-08T09:32:41.451Z</time>
      </trkpt>
      <trkpt lat="63.53019" lon="9.92769">
        <ele>163.905235</ele>
        <time>2020-08-08T09:32:44.470Z</time>
      </trkpt>
      <trkpt lat="63.53027" lon="9.92759">
        <ele>164.25131</ele>
        <time>2020-08-08T09:32:47.457Z</time>
      </trkpt>
      <trkpt lat="63.53035" lon="9.92748">
        <ele>164.594183</ele>
        <time>2020-08-08T09:32:50.464Z</time>
      </trkpt>
      <trkpt lat="63.53045" lon="9.92734">
        <ele>165.015084</ele>
        <time>2020-08-08T09:32:54.449Z</time>
      </trkpt>
      <trkpt lat="63.53053" lon="9.92722">
        <ele>165.371247</ele>
        <time>2020-08-08T09:32:58.462Z</time>
      </trkpt>
      <trkpt lat="63.53061" lon="9.9271">
        <ele>165.751138</ele>
        <time>2020-08-08T09:33:03.496Z</time>
      </trkpt>
      <trkpt lat="63.5307" lon="9.92699">
        <ele>166.107009</ele>
        <time>2020-08-08T09:33:07.472Z</time>
      </trkpt>
      <trkpt lat="63.5308" lon="9.92687">
        <ele>166.535862</ele>
        <time>2020-08-08T09:33:12.444Z</time>
      </trkpt>
      <trkpt lat="63.53088" lon="9.92678">
        <ele>166.870366</ele>
        <time>2020-08-08T09:33:16.454Z</time>
      </trkpt>
      <trkpt lat="63.53096" lon="9.92668">
        <ele>167.211482</ele>
        <time>2020-08-08T09:33:20.502Z</time>
      </trkpt>
      <trkpt lat="63.53104" lon="9.92658">
        <ele>167.571886</ele>
        <time>2020-08-08T09:33:24.446Z</time>
      </trkpt>
      <trkpt lat="63.53113" lon="9.9265">
        <ele>167.933496</ele>
        <time>2020-08-08T09:33:28.461Z</time>
      </trkpt>
      <trkpt lat="63.53123" lon="9.92642">
        <ele>168.314375</ele>
        <time>2020-08-08T09:33:32.439Z</time>
      </trkpt>
      <trkpt lat="63.53134" lon="9.92635">
        <ele>168.733572</ele>
        <time>2020-08-08T09:33:36.510Z</time>
      </trkpt>
      <trkpt lat="63.53145" lon="9.92629">
        <ele>169.149721</ele>
        <time>2020-08-08T09:33:40.455Z</time>
      </trkpt>
      <trkpt lat="63.53156" lon="9.92625">
        <ele>169.57692</ele>
        <time>2020-08-08T09:33:44.470Z</time>
      </trkpt>
      <trkpt lat="63.53167" lon="9.92622">
        <ele>169.989873</ele>
        <time>2020-08-08T09:33:48.467Z</time>
      </trkpt>
      <trkpt lat="63.53178" lon="9.92619">
        <ele>170.237759</ele>
        <time>2020-08-08T09:33:51.449Z</time>
      </trkpt>
      <trkpt lat="63.53187" lon="9.92619">
        <ele>170.268929</ele>
        <time>2020-08-08T09:33:54.483Z</time>
      </trkpt>
      <trkpt lat="63.53196" lon="9.92618">
        <ele>170.298485</ele>
        <time>2020-08-08T09:33:57.493Z</time>
      </trkpt>
      <trkpt lat="63.53207" lon="9.92619">
        <ele>170.33454</ele>
        <time>2020-08-08T09:34:01.457Z</time>
      </trkpt>
      <trkpt lat="63.53219" lon="9.92624">
        <ele>170.374043</ele>
        <time>2020-08-08T09:34:05.453Z</time>
      </trkpt>
      <trkpt lat="63.53229" lon="9.92627">
        <ele>170.404317</ele>
        <time>2020-08-08T09:34:08.458Z</time>
      </trkpt>
      <trkpt lat="63.5324" lon="9.92631">
        <ele>170.442081</ele>
        <time>2020-08-08T09:34:12.448Z</time>
      </trkpt>
      <trkpt lat="63.5325" lon="9.92634">
        <ele>170.473272</ele>
        <time>2020-08-08T09:34:16.470Z</time>
      </trkpt>
      <trkpt lat="63.53259" lon="9.92636">
        <ele>170.502575</ele>
        <time>2020-08-08T09:34:20.481Z</time>
      </trkpt>
      <trkpt lat="63.53268" lon="9.92635">
        <ele>170.53278</ele>
        <time>2020-08-08T09:34:24.462Z</time>
      </trkpt>
      <trkpt lat="63.53279" lon="9.92634">
        <ele>170.567546</ele>
        <time>2020-08-08T09:34:29.485Z</time>
      </trkpt>
      <trkpt lat="63.53287" lon="9.92636">
        <ele>170.596525</ele>
        <time>2020-08-08T09:34:33.455Z</time>
      </trkpt>
      <trkpt lat="63.53299" lon="9.92635">
        <ele>170.635493</ele>
        <time>2020-08-08T09:34:37.473Z</time>
      </trkpt>
      <trkpt lat="63.5331" lon="9.92637">
        <ele>170.669998</ele>
        <time>2020-08-08T09:34:40.441Z</time>
      </trkpt>
      <trkpt lat="63.53323" lon="9.92638">
        <ele>170.711607</ele>
        <time>2020-08-08T09:34:43.451Z</time>
      </trkpt>
      <trkpt lat="63.53336" lon="9.92639">
        <ele>170.754469</ele>
        <time>2020-08-08T09:34:46.473Z</time>
      </trkpt>
      <trkpt lat="63.53345" lon="9.9264">
        <ele>170.784687</ele>
        <time>2020-08-08T09:34:48.471Z</time>
      </trkpt>
      <trkpt lat="63.53359" lon="9.9264">
        <ele>170.597686</ele>
        <time>2020-08-08T09:34:51.461Z</time>
      </trkpt>
      <trkpt lat="63.53372" lon="9.92638">
        <ele>170.203828</ele>
        <time>2020-08-08T09:34:54.470Z</time>
      </trkpt>
      <trkpt lat="63.53381" lon="9.92637">
        <ele>169.922054</ele>
        <time>2020-08-08T09:34:56.463Z</time>
      </trkpt>
      <trkpt lat="63.53394" lon="9.92635">
        <ele>169.508727</ele>
        <time>2020-08-08T09:34:59.482Z</time>
      </trkpt>
      <trkpt lat="63.53406" lon="9.92634">
        <ele>169.143414</ele>
        <time>2020-08-08T09:35:01.450Z</time>
      </trkpt>
      <trkpt lat="63.53415" lon="9.92634">
        <ele>168.852424</ele>
        <time>2020-08-08T09:35:03.486Z</time>
      </trkpt>
      <trkpt lat="63.53426" lon="9.92633">
        <ele>168.539672</ele>
        <time>2020-08-08T09:35:05.466Z</time>
      </trkpt>
      <trkpt lat="63.53439" lon="9.92632">
        <ele>168.134067</ele>
        <time>2020-08-08T09:35:07.471Z</time>
      </trkpt>
      <trkpt lat="63.53453" lon="9.9263">
        <ele>167.687248</ele>
        <time>2020-08-08T09:35:09.464Z</time>
      </trkpt>
      <trkpt lat="63.53465" lon="9.92629">
        <ele>167.321935</ele>
        <time>2020-08-08T09:35:11.459Z</time>
      </trkpt>
      <trkpt lat="63.53478" lon="9.92629">
        <ele>166.910287</ele>
        <time>2020-08-08T09:35:13.459Z</time>
      </trkpt>
      <trkpt lat="63.53492" lon="9.92629">
        <ele>166.486226</ele>
        <time>2020-08-08T09:35:15.445Z</time>
      </trkpt>
      <trkpt lat="63.53506" lon="9.92629">
        <ele>166.049811</ele>
        <time>2020-08-08T09:35:17.488Z</time>
      </trkpt>
      <trkpt lat="63.53522" lon="9.92628">
        <ele>165.560553</ele>
        <time>2020-08-08T09:35:19.454Z</time>
      </trkpt>
      <trkpt lat="63.53539" lon="9.92627">
        <ele>164.846345</ele>
        <time>2020-08-08T09:35:21.486Z</time>
      </trkpt>
      <trkpt lat="63.53548" lon="9.92628">
        <ele>164.285032</ele>
        <time>2020-08-08T09:35:22.451Z</time>
      </trkpt>
      <trkpt lat="63.53559" lon="9.92628">
        <ele>163.59566</ele>
        <time>2020-08-08T09:35:23.447Z</time>
      </trkpt>
      <trkpt lat="63.53571" lon="9.92629">
        <ele>162.851449</ele>
        <time>2020-08-08T09:35:24.469Z</time>
      </trkpt>
      <trkpt lat="63.53584" lon="9.92629">
        <ele>162.082683</ele>
        <time>2020-08-08T09:35:25.450Z</time>
      </trkpt>
      <trkpt lat="63.53596" lon="9.9263">
        <ele>161.31398</ele>
        <time>2020-08-08T09:35:26.446Z</time>
      </trkpt>
      <trkpt lat="63.53609" lon="9.92631">
        <ele>160.544869</ele>
        <time>2020-08-08T09:35:27.472Z</time>
      </trkpt>
      <trkpt lat="63.53621" lon="9.92632">
        <ele>159.794396</ele>
        <time>2020-08-08T09:35:28.455Z</time>
      </trkpt>
      <trkpt lat="63.53634" lon="9.92632">
        <ele>159.019723</ele>
        <time>2020-08-08T09:35:29.550Z</time>
      </trkpt>
      <trkpt lat="63.53646" lon="9.92633">
        <ele>158.268999</ele>
        <time>2020-08-08T09:35:30.454Z</time>
      </trkpt>
      <trkpt lat="63.53659" lon="9.92634">
        <ele>157.506176</ele>
        <time>2020-08-08T09:35:31.473Z</time>
      </trkpt>
      <trkpt lat="63.53671" lon="9.92634">
        <ele>156.737641</ele>
        <time>2020-08-08T09:35:32.487Z</time>
      </trkpt>
      <trkpt lat="63.53684" lon="9.92633">
        <ele>155.974973</ele>
        <time>2020-08-08T09:35:33.471Z</time>
      </trkpt>
      <trkpt lat="63.53697" lon="9.92631">
        <ele>155.192161</ele>
        <time>2020-08-08T09:35:34.463Z</time>
      </trkpt>
      <trkpt lat="63.53709" lon="9.92627">
        <ele>154.462558</ele>
        <time>2020-08-08T09:35:35.463Z</time>
      </trkpt>
      <trkpt lat="63.53721" lon="9.9262">
        <ele>153.6167</ele>
        <time>2020-08-08T09:35:36.452Z</time>
      </trkpt>
      <trkpt lat="63.53734" lon="9.92612">
        <ele>152.699065</ele>
        <time>2020-08-08T09:35:37.493Z</time>
      </trkpt>
      <trkpt lat="63.53747" lon="9.92604">
        <ele>151.78874</ele>
        <time>2020-08-08T09:35:38.451Z</time>
      </trkpt>
      <trkpt lat="63.53759" lon="9.92597">
        <ele>150.945634</ele>
        <time>2020-08-08T09:35:39.469Z</time>
      </trkpt>
      <trkpt lat="63.53771" lon="9.92591">
        <ele>150.114051</ele>
        <time>2020-08-08T09:35:40.455Z</time>
      </trkpt>
      <trkpt lat="63.53783" lon="9.92586">
        <ele>149.308581</ele>
        <time>2020-08-08T09:35:41.476Z</time>
      </trkpt>
      <trkpt lat="63.53794" lon="9.92583">
        <ele>148.578355</ele>
        <time>2020-08-08T09:35:42.470Z</time>
      </trkpt>
      <trkpt lat="63.53804" lon="9.92581">
        <ele>147.861448</ele>
        <time>2020-08-08T09:35:43.465Z</time>
      </trkpt>
      <trkpt lat="63.53816" lon="9.92581">
        <ele>147.071182</ele>
        <time>2020-08-08T09:35:44.454Z</time>
      </trkpt>
      <trkpt lat="63.53828" lon="9.92581">
        <ele>146.267462</ele>
        <time>2020-08-08T09:35:45.469Z</time>
      </trkpt>
      <trkpt lat="63.53839" lon="9.92582">
        <ele>145.490373</ele>
        <time>2020-08-08T09:35:46.474Z</time>
      </trkpt>
      <trkpt lat="63.53851" lon="9.92583">
        <ele>144.733005</ele>
        <time>2020-08-08T09:35:47.463Z</time>
      </trkpt>
      <trkpt lat="63.53862" lon="9.92585">
        <ele>143.975302</ele>
        <time>2020-08-08T09:35:48.460Z</time>
      </trkpt>
      <trkpt lat="63.53874" lon="9.92587">
        <ele>143.16895</ele>
        <time>2020-08-08T09:35:49.454Z</time>
      </trkpt>
      <trkpt lat="63.53886" lon="9.92589">
        <ele>142.36307</ele>
        <time>2020-08-08T09:35:50.461Z</time>
      </trkpt>
      <trkpt lat="63.53898" lon="9.92591">
        <ele>141.246645</ele>
        <time>2020-08-08T09:35:51.493Z</time>
      </trkpt>
      <trkpt lat="63.53912" lon="9.92593">
        <ele>140.009316</ele>
        <time>2020-08-08T09:35:52.468Z</time>
      </trkpt>
      <trkpt lat="63.53925" lon="9.92594">
        <ele>138.745114</ele>
        <time>2020-08-08T09:35:53.472Z</time>
      </trkpt>
      <trkpt lat="63.53939" lon="9.92594">
        <ele>137.491503</ele>
        <time>2020-08-08T09:35:54.472Z</time>
      </trkpt>
      <trkpt lat="63.53952" lon="9.92591">
        <ele>136.242647</ele>
        <time>2020-08-08T09:35:55.455Z</time>
      </trkpt>
      <trkpt lat="63.53966" lon="9.92587">
        <ele>134.930643</ele>
        <time>2020-08-08T09:35:56.456Z</time>
      </trkpt>
      <trkpt lat="63.5398" lon="9.92583">
        <ele>133.583111</ele>
        <time>2020-08-08T09:35:57.458Z</time>
      </trkpt>
      <trkpt lat="63.53992" lon="9.92581">
        <ele>132.456835</ele>
        <time>2020-08-08T09:35:58.502Z</time>
      </trkpt>
      <trkpt lat="63.54005" lon="9.92581">
        <ele>131.287495</ele>
        <time>2020-08-08T09:35:59.482Z</time>
      </trkpt>
      <trkpt lat="63.54016" lon="9.92585">
        <ele>130.189002</ele>
        <time>2020-08-08T09:36:00.450Z</time>
      </trkpt>
      <trkpt lat="63.54027" lon="9.92592">
        <ele>129.085502</ele>
        <time>2020-08-08T09:36:01.457Z</time>
      </trkpt>
      <trkpt lat="63.54042" lon="9.92599">
        <ele>127.715468</ele>
        <time>2020-08-08T09:36:02.470Z</time>
      </trkpt>
      <trkpt lat="63.54062" lon="9.92607">
        <ele>125.839128</ele>
        <time>2020-08-08T09:36:03.462Z</time>
      </trkpt>
      <trkpt lat="63.54077" lon="9.92612">
        <ele>124.05308</ele>
        <time>2020-08-08T09:36:04.471Z</time>
      </trkpt>
      <trkpt lat="63.54092" lon="9.92616">
        <ele>122.073326</ele>
        <time>2020-08-08T09:36:05.461Z</time>
      </trkpt>
      <trkpt lat="63.54104" lon="9.92615">
        <ele>120.663473</ele>
        <time>2020-08-08T09:36:06.459Z</time>
      </trkpt>
      <trkpt lat="63.54124" lon="9.92618">
        <ele>118.119343</ele>
        <time>2020-08-08T09:36:07.489Z</time>
      </trkpt>
      <trkpt lat="63.54137" lon="9.92617">
        <ele>116.467432</ele>
        <time>2020-08-08T09:36:08.451Z</time>
      </trkpt>
      <trkpt lat="63.54157" lon="9.92621">
        <ele>113.855328</ele>
        <time>2020-08-08T09:36:09.453Z</time>
      </trkpt>
      <trkpt lat="63.54171" lon="9.92622">
        <ele>112.076292</ele>
        <time>2020-08-08T09:36:10.513Z</time>
      </trkpt>
      <trkpt lat="63.54187" lon="9.92623">
        <ele>110.030309</ele>
        <time>2020-08-08T09:36:11.468Z</time>
      </trkpt>
      <trkpt lat="63.54201" lon="9.92625">
        <ele>108.236247</ele>
        <time>2020-08-08T09:36:12.475Z</time>
      </trkpt>
      <trkpt lat="63.54218" lon="9.92625">
        <ele>106.076816</ele>
        <time>2020-08-08T09:36:13.499Z</time>
      </trkpt>
      <trkpt lat="63.54234" lon="9.92626">
        <ele>104.056973</ele>
        <time>2020-08-08T09:36:14.454Z</time>
      </trkpt>
      <trkpt lat="63.54251" lon="9.92627">
        <ele>101.853924</ele>
        <time>2020-08-08T09:36:15.499Z</time>
      </trkpt>
      <trkpt lat="63.54268" lon="9.92628">
        <ele>99.514649</ele>
        <time>2020-08-08T09:36:16.495Z</time>
      </trkpt>
      <trkpt lat="63.54285" lon="9.9263">
        <ele>97.160759</ele>
        <time>2020-08-08T09:36:17.454Z</time>
      </trkpt>
      <trkpt lat="63.54301" lon="9.92631">
        <ele>94.848599</ele>
        <time>2020-08-08T09:36:18.485Z</time>
      </trkpt>
      <trkpt lat="63.54316" lon="9.92633">
        <ele>92.745359</ele>
        <time>2020-08-08T09:36:19.476Z</time>
      </trkpt>
      <trkpt lat="63.5433" lon="9.92634">
        <ele>90.825679</ele>
        <time>2020-08-08T09:36:20.462Z</time>
      </trkpt>
      <trkpt lat="63.54344" lon="9.92635">
        <ele>88.879206</ele>
        <time>2020-08-08T09:36:21.484Z</time>
      </trkpt>
      <trkpt lat="63.54358" lon="9.92634">
        <ele>86.86282</ele>
        <time>2020-08-08T09:36:22.505Z</time>
      </trkpt>
      <trkpt lat="63.54373" lon="9.92634">
        <ele>84.734493</ele>
        <time>2020-08-08T09:36:23.462Z</time>
      </trkpt>
      <trkpt lat="63.54389" lon="9.92633">
        <ele>82.507679</ele>
        <time>2020-08-08T09:36:24.499Z</time>
      </trkpt>
      <trkpt lat="63.54405" lon="9.92632">
        <ele>80.238381</ele>
        <time>2020-08-08T09:36:25.475Z</time>
      </trkpt>
      <trkpt lat="63.54422" lon="9.9263">
        <ele>77.855461</ele>
        <time>2020-08-08T09:36:26.483Z</time>
      </trkpt>
      <trkpt lat="63.5444" lon="9.92629">
        <ele>76.003278</ele>
        <time>2020-08-08T09:36:27.466Z</time>
      </trkpt>
      <trkpt lat="63.54457" lon="9.92628">
        <ele>74.321193</ele>
        <time>2020-08-08T09:36:28.445Z</time>
      </trkpt>
      <trkpt lat="63.54474" lon="9.92627">
        <ele>72.609961</ele>
        <time>2020-08-08T09:36:29.441Z</time>
      </trkpt>
      <trkpt lat="63.54492" lon="9.92625">
        <ele>70.906909</ele>
        <time>2020-08-08T09:36:30.478Z</time>
      </trkpt>
      <trkpt lat="63.5451" lon="9.92623">
        <ele>69.165438</ele>
        <time>2020-08-08T09:36:31.466Z</time>
      </trkpt>
      <trkpt lat="63.54528" lon="9.92621">
        <ele>67.443386</ele>
        <time>2020-08-08T09:36:32.462Z</time>
      </trkpt>
      <trkpt lat="63.54545" lon="9.92619">
        <ele>65.739366</ele>
        <time>2020-08-08T09:36:33.461Z</time>
      </trkpt>
      <trkpt lat="63.54562" lon="9.92617">
        <ele>64.065858</ele>
        <time>2020-08-08T09:36:34.492Z</time>
      </trkpt>
      <trkpt lat="63.54578" lon="9.92615">
        <ele>62.517582</ele>
        <time>2020-08-08T09:36:35.451Z</time>
      </trkpt>
      <trkpt lat="63.54595" lon="9.92612">
        <ele>60.918002</ele>
        <time>2020-08-08T09:36:36.489Z</time>
      </trkpt>
      <trkpt lat="63.54611" lon="9.92608">
        <ele>59.511813</ele>
        <time>2020-08-08T09:36:37.452Z</time>
      </trkpt>
      <trkpt lat="63.54627" lon="9.92605">
        <ele>58.532238</ele>
        <time>2020-08-08T09:36:38.449Z</time>
      </trkpt>
      <trkpt lat="63.54642" lon="9.92601">
        <ele>57.575221</ele>
        <time>2020-08-08T09:36:39.480Z</time>
      </trkpt>
      <trkpt lat="63.54658" lon="9.92597">
        <ele>56.634702</ele>
        <time>2020-08-08T09:36:40.472Z</time>
      </trkpt>
      <trkpt lat="63.54672" lon="9.92592">
        <ele>55.743931</ele>
        <time>2020-08-08T09:36:41.502Z</time>
      </trkpt>
      <trkpt lat="63.54686" lon="9.92588">
        <ele>54.883387</ele>
        <time>2020-08-08T09:36:42.491Z</time>
      </trkpt>
      <trkpt lat="63.547" lon="9.92585">
        <ele>54.03596</ele>
        <time>2020-08-08T09:36:43.471Z</time>
      </trkpt>
      <trkpt lat="63.54713" lon="9.92581">
        <ele>53.22447</ele>
        <time>2020-08-08T09:36:44.476Z</time>
      </trkpt>
      <trkpt lat="63.54726" lon="9.92577">
        <ele>52.430738</ele>
        <time>2020-08-08T09:36:45.526Z</time>
      </trkpt>
      <trkpt lat="63.54738" lon="9.92573">
        <ele>51.660762</ele>
        <time>2020-08-08T09:36:46.459Z</time>
      </trkpt>
      <trkpt lat="63.54751" lon="9.92568">
        <ele>50.902846</ele>
        <time>2020-08-08T09:36:47.441Z</time>
      </trkpt>
      <trkpt lat="63.54763" lon="9.92565">
        <ele>50.176644</ele>
        <time>2020-08-08T09:36:48.452Z</time>
      </trkpt>
      <trkpt lat="63.54774" lon="9.92562">
        <ele>49.464937</ele>
        <time>2020-08-08T09:36:49.478Z</time>
      </trkpt>
      <trkpt lat="63.54786" lon="9.92558">
        <ele>48.80942</ele>
        <time>2020-08-08T09:36:50.445Z</time>
      </trkpt>
      <trkpt lat="63.54797" lon="9.92555">
        <ele>48.659152</ele>
        <time>2020-08-08T09:36:51.441Z</time>
      </trkpt>
      <trkpt lat="63.54808" lon="9.92552">
        <ele>48.513026</ele>
        <time>2020-08-08T09:36:52.438Z</time>
      </trkpt>
      <trkpt lat="63.54819" lon="9.9255">
        <ele>48.367213</ele>
        <time>2020-08-08T09:36:53.477Z</time>
      </trkpt>
      <trkpt lat="63.54829" lon="9.92547">
        <ele>48.229152</ele>
        <time>2020-08-08T09:36:54.482Z</time>
      </trkpt>
      <trkpt lat="63.5484" lon="9.92545">
        <ele>48.093958</ele>
        <time>2020-08-08T09:36:55.452Z</time>
      </trkpt>
      <trkpt lat="63.5485" lon="9.92543">
        <ele>47.957394</ele>
        <time>2020-08-08T09:36:56.478Z</time>
      </trkpt>
      <trkpt lat="63.5486" lon="9.92541">
        <ele>47.82751</ele>
        <time>2020-08-08T09:36:57.500Z</time>
      </trkpt>
      <trkpt lat="63.54869" lon="9.92539">
        <ele>47.699187</ele>
        <time>2020-08-08T09:36:58.502Z</time>
      </trkpt>
      <trkpt lat="63.54879" lon="9.92537">
        <ele>47.572181</ele>
        <time>2020-08-08T09:36:59.446Z</time>
      </trkpt>
      <trkpt lat="63.54889" lon="9.92535">
        <ele>47.446116</ele>
        <time>2020-08-08T09:37:00.492Z</time>
      </trkpt>
      <trkpt lat="63.54906" lon="9.92532">
        <ele>47.214261</ele>
        <time>2020-08-08T09:37:02.457Z</time>
      </trkpt>
      <trkpt lat="63.54923" lon="9.92529">
        <ele>46.989451</ele>
        <time>2020-08-08T09:37:04.448Z</time>
      </trkpt>
      <trkpt lat="63.5494" lon="9.92526">
        <ele>46.76973</ele>
        <time>2020-08-08T09:37:06.435Z</time>
      </trkpt>
      <trkpt lat="63.54955" lon="9.92524">
        <ele>46.562224</ele>
        <time>2020-08-08T09:37:08.474Z</time>
      </trkpt>
      <trkpt lat="63.54971" lon="9.92521">
        <ele>46.560252</ele>
        <time>2020-08-08T09:37:10.445Z</time>
      </trkpt>
      <trkpt lat="63.54985" lon="9.92518">
        <ele>46.783294</ele>
        <time>2020-08-08T09:37:12.441Z</time>
      </trkpt>
      <trkpt lat="63.54999" lon="9.92516">
        <ele>47.000854</ele>
        <time>2020-08-08T09:37:14.437Z</time>
      </trkpt>
      <trkpt lat="63.55012" lon="9.92512">
        <ele>47.203926</ele>
        <time>2020-08-08T09:37:16.438Z</time>
      </trkpt>
      <trkpt lat="63.55025" lon="9.92508">
        <ele>47.408947</ele>
        <time>2020-08-08T09:37:18.433Z</time>
      </trkpt>
      <trkpt lat="63.55037" lon="9.92506">
        <ele>47.594195</ele>
        <time>2020-08-08T09:37:20.461Z</time>
      </trkpt>
      <trkpt lat="63.55049" lon="9.92504">
        <ele>47.773581</ele>
        <time>2020-08-08T09:37:22.450Z</time>
      </trkpt>
      <trkpt lat="63.5506" lon="9.92501">
        <ele>47.950498</ele>
        <time>2020-08-08T09:37:24.435Z</time>
      </trkpt>
      <trkpt lat="63.5507" lon="9.92499">
        <ele>48.104788</ele>
        <time>2020-08-08T09:37:26.440Z</time>
      </trkpt>
      <trkpt lat="63.5508" lon="9.92498">
        <ele>48.259122</ele>
        <time>2020-08-08T09:37:28.447Z</time>
      </trkpt>
      <trkpt lat="63.5509" lon="9.92496">
        <ele>48.410383</ele>
        <time>2020-08-08T09:37:30.469Z</time>
      </trkpt>
      <trkpt lat="63.55099" lon="9.92494">
        <ele>48.549721</ele>
        <time>2020-08-08T09:37:32.485Z</time>
      </trkpt>
      <trkpt lat="63.55109" lon="9.92492">
        <ele>48.698392</ele>
        <time>2020-08-08T09:37:34.485Z</time>
      </trkpt>
      <trkpt lat="63.55118" lon="9.9249">
        <ele>48.837595</ele>
        <time>2020-08-08T09:37:36.474Z</time>
      </trkpt>
      <trkpt lat="63.55127" lon="9.92488">
        <ele>48.975632</ele>
        <time>2020-08-08T09:37:38.455Z</time>
      </trkpt>
      <trkpt lat="63.5514" lon="9.92484">
        <ele>49.175726</ele>
        <time>2020-08-08T09:37:41.454Z</time>
      </trkpt>
      <trkpt lat="63.55152" lon="9.92482">
        <ele>49.313441</ele>
        <time>2020-08-08T09:37:44.456Z</time>
      </trkpt>
      <trkpt lat="63.55164" lon="9.92478">
        <ele>49.442</ele>
        <time>2020-08-08T09:37:47.465Z</time>
      </trkpt>
      <trkpt lat="63.55176" lon="9.92474">
        <ele>49.567951</ele>
        <time>2020-08-08T09:37:50.460Z</time>
      </trkpt>
      <trkpt lat="63.55189" lon="9.92471">
        <ele>49.69732</ele>
        <time>2020-08-08T09:37:53.462Z</time>
      </trkpt>
      <trkpt lat="63.55202" lon="9.92468">
        <ele>49.829689</ele>
        <time>2020-08-08T09:37:56.481Z</time>
      </trkpt>
      <trkpt lat="63.55215" lon="9.92466">
        <ele>49.961889</ele>
        <time>2020-08-08T09:37:59.460Z</time>
      </trkpt>
      <trkpt lat="63.55224" lon="9.92464">
        <ele>50.055085</ele>
        <time>2020-08-08T09:38:01.482Z</time>
      </trkpt>
      <trkpt lat="63.55233" lon="9.92463">
        <ele>50.148157</ele>
        <time>2020-08-08T09:38:03.478Z</time>
      </trkpt>
      <trkpt lat="63.55246" lon="9.92461">
        <ele>50.284319</ele>
        <time>2020-08-08T09:38:06.469Z</time>
      </trkpt>
      <trkpt lat="63.55256" lon="9.92459">
        <ele>50.386679</ele>
        <time>2020-08-08T09:38:08.489Z</time>
      </trkpt>
      <trkpt lat="63.55266" lon="9.92458">
        <ele>50.485784</ele>
        <time>2020-08-08T09:38:10.501Z</time>
      </trkpt>
      <trkpt lat="63.55275" lon="9.92458">
        <ele>50.583827</ele>
        <time>2020-08-08T09:38:12.460Z</time>
      </trkpt>
      <trkpt lat="63.55285" lon="9.92457">
        <ele>50.681912</ele>
        <time>2020-08-08T09:38:14.506Z</time>
      </trkpt>
      <trkpt lat="63.55294" lon="9.92456">
        <ele>50.777974</ele>
        <time>2020-08-08T09:38:16.451Z</time>
      </trkpt>
      <trkpt lat="63.55304" lon="9.92456">
        <ele>50.872955</ele>
        <time>2020-08-08T09:38:18.455Z</time>
      </trkpt>
      <trkpt lat="63.55313" lon="9.92455">
        <ele>50.971024</ele>
        <time>2020-08-08T09:38:20.453Z</time>
      </trkpt>
      <trkpt lat="63.55322" lon="9.92454">
        <ele>51.058054</ele>
        <time>2020-08-08T09:38:22.490Z</time>
      </trkpt>
      <trkpt lat="63.55332" lon="9.92452">
        <ele>51.050009</ele>
        <time>2020-08-08T09:38:24.473Z</time>
      </trkpt>
      <trkpt lat="63.55341" lon="9.9245">
        <ele>51.042142</ele>
        <time>2020-08-08T09:38:26.438Z</time>
      </trkpt>
      <trkpt lat="63.5535" lon="9.92448">
        <ele>51.033922</ele>
        <time>2020-08-08T09:38:28.464Z</time>
      </trkpt>
      <trkpt lat="63.5536" lon="9.92446">
        <ele>51.025883</ele>
        <time>2020-08-08T09:38:30.447Z</time>
      </trkpt>
      <trkpt lat="63.55369" lon="9.92444">
        <ele>51.017769</ele>
        <time>2020-08-08T09:38:32.499Z</time>
      </trkpt>
      <trkpt lat="63.55378" lon="9.92442">
        <ele>51.009813</ele>
        <time>2020-08-08T09:38:34.453Z</time>
      </trkpt>
      <trkpt lat="63.55392" lon="9.92439">
        <ele>50.998136</ele>
        <time>2020-08-08T09:38:37.507Z</time>
      </trkpt>
      <trkpt lat="63.55401" lon="9.92437">
        <ele>50.989744</ele>
        <time>2020-08-08T09:38:39.508Z</time>
      </trkpt>
      <trkpt lat="63.55411" lon="9.92434">
        <ele>50.981577</ele>
        <time>2020-08-08T09:38:41.455Z</time>
      </trkpt>
      <trkpt lat="63.5542" lon="9.92431">
        <ele>50.973314</ele>
        <time>2020-08-08T09:38:43.479Z</time>
      </trkpt>
      <trkpt lat="63.55433" lon="9.92427">
        <ele>50.961844</ele>
        <time>2020-08-08T09:38:46.500Z</time>
      </trkpt>
      <trkpt lat="63.55443" lon="9.92423">
        <ele>50.953388</ele>
        <time>2020-08-08T09:38:48.476Z</time>
      </trkpt>
      <trkpt lat="63.55453" lon="9.9242">
        <ele>50.945107</ele>
        <time>2020-08-08T09:38:50.497Z</time>
      </trkpt>
      <trkpt lat="63.55462" lon="9.92416">
        <ele>50.936991</ele>
        <time>2020-08-08T09:38:52.446Z</time>
      </trkpt>
      <trkpt lat="63.55472" lon="9.92413">
        <ele>50.928648</ele>
        <time>2020-08-08T09:38:54.474Z</time>
      </trkpt>
      <trkpt lat="63.55481" lon="9.92411">
        <ele>50.920486</ele>
        <time>2020-08-08T09:38:56.452Z</time>
      </trkpt>
      <trkpt lat="63.55491" lon="9.92407">
        <ele>50.912126</ele>
        <time>2020-08-08T09:38:58.485Z</time>
      </trkpt>
      <trkpt lat="63.555" lon="9.92404">
        <ele>50.904034</ele>
        <time>2020-08-08T09:39:00.473Z</time>
      </trkpt>
      <trkpt lat="63.55509" lon="9.92402">
        <ele>50.980202</ele>
        <time>2020-08-08T09:39:02.475Z</time>
      </trkpt>
      <trkpt lat="63.55522" lon="9.92398">
        <ele>51.098054</ele>
        <time>2020-08-08T09:39:05.466Z</time>
      </trkpt>
      <trkpt lat="63.55531" lon="9.92397">
        <ele>51.178576</ele>
        <time>2020-08-08T09:39:07.451Z</time>
      </trkpt>
      <trkpt lat="63.55544" lon="9.92393">
        <ele>51.292138</ele>
        <time>2020-08-08T09:39:10.451Z</time>
      </trkpt>
      <trkpt lat="63.55557" lon="9.9239">
        <ele>51.403774</ele>
        <time>2020-08-08T09:39:13.472Z</time>
      </trkpt>
      <trkpt lat="63.5557" lon="9.92387">
        <ele>51.521804</ele>
        <time>2020-08-08T09:39:16.483Z</time>
      </trkpt>
      <trkpt lat="63.55579" lon="9.92384">
        <ele>51.601039</ele>
        <time>2020-08-08T09:39:18.539Z</time>
      </trkpt>
      <trkpt lat="63.55588" lon="9.92381">
        <ele>51.680017</ele>
        <time>2020-08-08T09:39:20.439Z</time>
      </trkpt>
      <trkpt lat="63.55597" lon="9.92378">
        <ele>51.7603</ele>
        <time>2020-08-08T09:39:22.472Z</time>
      </trkpt>
      <trkpt lat="63.5561" lon="9.92373">
        <ele>51.875572</ele>
        <time>2020-08-08T09:39:25.449Z</time>
      </trkpt>
      <trkpt lat="63.55623" lon="9.92368">
        <ele>51.992646</ele>
        <time>2020-08-08T09:39:28.453Z</time>
      </trkpt>
      <trkpt lat="63.55632" lon="9.92364">
        <ele>52.074126</ele>
        <time>2020-08-08T09:39:30.457Z</time>
      </trkpt>
      <trkpt lat="63.55645" lon="9.92359">
        <ele>52.193004</ele>
        <time>2020-08-08T09:39:33.448Z</time>
      </trkpt>
      <trkpt lat="63.55654" lon="9.92356">
        <ele>52.271676</ele>
        <time>2020-08-08T09:39:35.474Z</time>
      </trkpt>
      <trkpt lat="63.55667" lon="9.92352">
        <ele>52.382978</ele>
        <time>2020-08-08T09:39:38.507Z</time>
      </trkpt>
      <trkpt lat="63.55679" lon="9.92347">
        <ele>52.508182</ele>
        <time>2020-08-08T09:39:41.468Z</time>
      </trkpt>
      <trkpt lat="63.55691" lon="9.92342">
        <ele>52.812808</ele>
        <time>2020-08-08T09:39:44.455Z</time>
      </trkpt>
      <trkpt lat="63.55703" lon="9.92339">
        <ele>53.0979</ele>
        <time>2020-08-08T09:39:47.447Z</time>
      </trkpt>
      <trkpt lat="63.55715" lon="9.92336">
        <ele>53.387429</ele>
        <time>2020-08-08T09:39:50.442Z</time>
      </trkpt>
      <trkpt lat="63.55727" lon="9.92332">
        <ele>53.67842</ele>
        <time>2020-08-08T09:39:53.489Z</time>
      </trkpt>
      <trkpt lat="63.55738" lon="9.92327">
        <ele>53.964594</ele>
        <time>2020-08-08T09:39:56.469Z</time>
      </trkpt>
      <trkpt lat="63.55751" lon="9.92323">
        <ele>54.282909</ele>
        <time>2020-08-08T09:39:59.522Z</time>
      </trkpt>
      <trkpt lat="63.5576" lon="9.9232">
        <ele>54.501494</ele>
        <time>2020-08-08T09:40:01.446Z</time>
      </trkpt>
      <trkpt lat="63.55769" lon="9.92318">
        <ele>54.727335</ele>
        <time>2020-08-08T09:40:03.452Z</time>
      </trkpt>
      <trkpt lat="63.55778" lon="9.92315">
        <ele>54.953892</ele>
        <time>2020-08-08T09:40:05.461Z</time>
      </trkpt>
      <trkpt lat="63.55787" lon="9.92312">
        <ele>55.175627</ele>
        <time>2020-08-08T09:40:07.442Z</time>
      </trkpt>
      <trkpt lat="63.558" lon="9.92308">
        <ele>55.48974</ele>
        <time>2020-08-08T09:40:10.490Z</time>
      </trkpt>
      <trkpt lat="63.55811" lon="9.92305">
        <ele>55.757926</ele>
        <time>2020-08-08T09:40:13.484Z</time>
      </trkpt>
      <trkpt lat="63.55821" lon="9.92302">
        <ele>55.991156</ele>
        <time>2020-08-08T09:40:16.442Z</time>
      </trkpt>
      <trkpt lat="63.55832" lon="9.923">
        <ele>56.261069</ele>
        <time>2020-08-08T09:40:20.443Z</time>
      </trkpt>
      <trkpt lat="63.55841" lon="9.92297">
        <ele>56.501961</ele>
        <time>2020-08-08T09:40:24.437Z</time>
      </trkpt>
      <trkpt lat="63.55851" lon="9.92294">
        <ele>56.73049</ele>
        <time>2020-08-08T09:40:28.453Z</time>
      </trkpt>
      <trkpt lat="63.55862" lon="9.9229">
        <ele>57.035969</ele>
        <time>2020-08-08T09:40:32.481Z</time>
      </trkpt>
      <trkpt lat="63.55871" lon="9.92288">
        <ele>57.338454</ele>
        <time>2020-08-08T09:40:36.474Z</time>
      </trkpt>
      <trkpt lat="63.5588" lon="9.92285">
        <ele>57.642022</ele>
        <time>2020-08-08T09:40:40.449Z</time>
      </trkpt>
      <trkpt lat="63.5589" lon="9.92281">
        <ele>57.957094</ele>
        <time>2020-08-08T09:40:44.460Z</time>
      </trkpt>
      <trkpt lat="63.55899" lon="9.92277">
        <ele>58.250161</ele>
        <time>2020-08-08T09:40:48.501Z</time>
      </trkpt>
      <trkpt lat="63.55909" lon="9.92274">
        <ele>58.560061</ele>
        <time>2020-08-08T09:40:52.448Z</time>
      </trkpt>
      <trkpt lat="63.55918" lon="9.92269">
        <ele>58.857988</ele>
        <time>2020-08-08T09:40:56.463Z</time>
      </trkpt>
      <trkpt lat="63.55929" lon="9.92266">
        <ele>59.20648</ele>
        <time>2020-08-08T09:41:01.504Z</time>
      </trkpt>
      <trkpt lat="63.55938" lon="9.92264">
        <ele>59.51548</ele>
        <time>2020-08-08T09:41:05.455Z</time>
      </trkpt>
      <trkpt lat="63.55948" lon="9.9226">
        <ele>59.838856</ele>
        <time>2020-08-08T09:41:09.483Z</time>
      </trkpt>
      <trkpt lat="63.55959" lon="9.92257">
        <ele>60.194277</ele>
        <time>2020-08-08T09:41:13.443Z</time>
      </trkpt>
      <trkpt lat="63.55969" lon="9.92253">
        <ele>60.511552</ele>
        <time>2020-08-08T09:41:16.452Z</time>
      </trkpt>
      <trkpt lat="63.5598" lon="9.92248">
        <ele>60.863839</ele>
        <time>2020-08-08T09:41:19.482Z</time>
      </trkpt>
      <trkpt lat="63.55991" lon="9.92243">
        <ele>61.240972</ele>
        <time>2020-08-08T09:41:22.492Z</time>
      </trkpt>
      <trkpt lat="63.56003" lon="9.9224">
        <ele>61.608667</ele>
        <time>2020-08-08T09:41:25.454Z</time>
      </trkpt>
      <trkpt lat="63.56014" lon="9.92236">
        <ele>61.9756</ele>
        <time>2020-08-08T09:41:28.463Z</time>
      </trkpt>
      <trkpt lat="63.56025" lon="9.9223">
        <ele>62.344404</ele>
        <time>2020-08-08T09:41:31.464Z</time>
      </trkpt>
      <trkpt lat="63.56036" lon="9.92225">
        <ele>62.663601</ele>
        <time>2020-08-08T09:41:34.489Z</time>
      </trkpt>
      <trkpt lat="63.56048" lon="9.92219">
        <ele>62.846826</ele>
        <time>2020-08-08T09:41:37.517Z</time>
      </trkpt>
      <trkpt lat="63.56059" lon="9.92215">
        <ele>63.018888</ele>
        <time>2020-08-08T09:41:40.472Z</time>
      </trkpt>
      <trkpt lat="63.5607" lon="9.9221">
        <ele>63.191836</ele>
        <time>2020-08-08T09:41:43.474Z</time>
      </trkpt>
      <trkpt lat="63.5608" lon="9.92207">
        <ele>63.358331</ele>
        <time>2020-08-08T09:41:46.455Z</time>
      </trkpt>
      <trkpt lat="63.56091" lon="9.92204">
        <ele>63.527475</ele>
        <time>2020-08-08T09:41:49.472Z</time>
      </trkpt>
      <trkpt lat="63.56102" lon="9.92201">
        <ele>63.692334</ele>
        <time>2020-08-08T09:41:52.454Z</time>
      </trkpt>
      <trkpt lat="63.56111" lon="9.92197">
        <ele>63.845295</ele>
        <time>2020-08-08T09:41:55.465Z</time>
      </trkpt>
      <trkpt lat="63.56121" lon="9.92194">
        <ele>63.996721</ele>
        <time>2020-08-08T09:41:58.461Z</time>
      </trkpt>
      <trkpt lat="63.56131" lon="9.92191">
        <ele>64.149358</ele>
        <time>2020-08-08T09:42:01.498Z</time>
      </trkpt>
      <trkpt lat="63.5614" lon="9.92187">
        <ele>64.303744</ele>
        <time>2020-08-08T09:42:04.453Z</time>
      </trkpt>
      <trkpt lat="63.5615" lon="9.92183">
        <ele>64.460122</ele>
        <time>2020-08-08T09:42:07.466Z</time>
      </trkpt>
      <trkpt lat="63.5616" lon="9.92179">
        <ele>64.609101</ele>
        <time>2020-08-08T09:42:10.496Z</time>
      </trkpt>
      <trkpt lat="63.56169" lon="9.92175">
        <ele>64.762294</ele>
        <time>2020-08-08T09:42:13.489Z</time>
      </trkpt>
      <trkpt lat="63.5618" lon="9.92171">
        <ele>64.933318</ele>
        <time>2020-08-08T09:42:16.529Z</time>
      </trkpt>
      <trkpt lat="63.56191" lon="9.92167">
        <ele>65.108009</ele>
        <time>2020-08-08T09:42:19.468Z</time>
      </trkpt>
      <trkpt lat="63.56203" lon="9.92163">
        <ele>65.290926</ele>
        <time>2020-08-08T09:42:22.441Z</time>
      </trkpt>
      <trkpt lat="63.56214" lon="9.92159">
        <ele>65.553373</ele>
        <time>2020-08-08T09:42:25.452Z</time>
      </trkpt>
      <trkpt lat="63.56227" lon="9.92154">
        <ele>66.069163</ele>
        <time>2020-08-08T09:42:28.461Z</time>
      </trkpt>
      <trkpt lat="63.5624" lon="9.92149">
        <ele>66.593509</ele>
        <time>2020-08-08T09:42:31.479Z</time>
      </trkpt>
      <trkpt lat="63.56252" lon="9.92147">
        <ele>67.072351</ele>
        <time>2020-08-08T09:42:34.487Z</time>
      </trkpt>
      <trkpt lat="63.56261" lon="9.92145">
        <ele>67.462295</ele>
        <time>2020-08-08T09:42:37.469Z</time>
      </trkpt>
      <trkpt lat="63.56271" lon="9.92143">
        <ele>67.863565</ele>
        <time>2020-08-08T09:42:40.501Z</time>
      </trkpt>
      <trkpt lat="63.5628" lon="9.92142">
        <ele>68.232584</ele>
        <time>2020-08-08T09:42:43.467Z</time>
      </trkpt>
      <trkpt lat="63.56291" lon="9.9214">
        <ele>68.674437</ele>
        <time>2020-08-08T09:42:47.448Z</time>
      </trkpt>
      <trkpt lat="63.56302" lon="9.92137">
        <ele>69.122858</ele>
        <time>2020-08-08T09:42:51.487Z</time>
      </trkpt>
      <trkpt lat="63.56312" lon="9.92132">
        <ele>69.531568</ele>
        <time>2020-08-08T09:42:55.461Z</time>
      </trkpt>
      <trkpt lat="63.56322" lon="9.92128">
        <ele>69.95252</ele>
        <time>2020-08-08T09:43:02.450Z</time>
      </trkpt>
      <trkpt lat="63.56332" lon="9.92124">
        <ele>70.370518</ele>
        <time>2020-08-08T09:43:07.497Z</time>
      </trkpt>
      <trkpt lat="63.56343" lon="9.92124">
        <ele>70.803096</ele>
        <time>2020-08-08T09:43:13.456Z</time>
      </trkpt>
      <trkpt lat="63.56352" lon="9.92131">
        <ele>71.172296</ele>
        <time>2020-08-08T09:43:17.469Z</time>
      </trkpt>
      <trkpt lat="63.56359" lon="9.92145">
        <ele>71.545292</ele>
        <time>2020-08-08T09:43:22.459Z</time>
      </trkpt>
      <trkpt lat="63.56365" lon="9.92162">
        <ele>71.93805</ele>
        <time>2020-08-08T09:43:25.467Z</time>
      </trkpt>
      <trkpt lat="63.56372" lon="9.9218">
        <ele>72.38177</ele>
        <time>2020-08-08T09:43:28.470Z</time>
      </trkpt>
      <trkpt lat="63.56378" lon="9.92198">
        <ele>72.728312</ele>
        <time>2020-08-08T09:43:31.439Z</time>
      </trkpt>
      <trkpt lat="63.56385" lon="9.92218">
        <ele>72.906799</ele>
        <time>2020-08-08T09:43:34.495Z</time>
      </trkpt>
      <trkpt lat="63.56392" lon="9.9224">
        <ele>73.100878</ele>
        <time>2020-08-08T09:43:37.461Z</time>
      </trkpt>
      <trkpt lat="63.56398" lon="9.92263">
        <ele>73.293192</ele>
        <time>2020-08-08T09:43:40.510Z</time>
      </trkpt>
      <trkpt lat="63.56403" lon="9.92285">
        <ele>73.468938</ele>
        <time>2020-08-08T09:43:43.482Z</time>
      </trkpt>
      <trkpt lat="63.56408" lon="9.92305">
        <ele>73.627842</ele>
        <time>2020-08-08T09:43:46.455Z</time>
      </trkpt>
      <trkpt lat="63.56413" lon="9.92328">
        <ele>73.816634</ele>
        <time>2020-08-08T09:43:49.454Z</time>
      </trkpt>
      <trkpt lat="63.56419" lon="9.92352">
        <ele>74.006059</ele>
        <time>2020-08-08T09:43:52.438Z</time>
      </trkpt>
      <trkpt lat="63.56424" lon="9.92372">
        <ele>74.17309</ele>
        <time>2020-08-08T09:43:55.453Z</time>
      </trkpt>
      <trkpt lat="63.5643" lon="9.92391">
        <ele>74.337909</ele>
        <time>2020-08-08T09:43:59.481Z</time>
      </trkpt>
      <trkpt lat="63.56436" lon="9.9241">
        <ele>74.502728</ele>
        <time>2020-08-08T09:44:03.472Z</time>
      </trkpt>
      <trkpt lat="63.56442" lon="9.92427">
        <ele>74.653014</ele>
        <time>2020-08-08T09:44:07.454Z</time>
      </trkpt>
      <trkpt lat="63.56449" lon="9.92447">
        <ele>74.838588</ele>
        <time>2020-08-08T09:44:12.458Z</time>
      </trkpt>
      <trkpt lat="63.56457" lon="9.92466">
        <ele>75.024047</ele>
        <time>2020-08-08T09:44:16.493Z</time>
      </trkpt>
      <trkpt lat="63.56458" lon="9.92499">
        <ele>75.260608</ele>
        <time>2020-08-08T09:44:29.489Z</time>
      </trkpt>
      <trkpt lat="63.56468" lon="9.92509">
        <ele>75.437585</ele>
        <time>2020-08-08T09:48:11.498Z</time>
      </trkpt>
      <trkpt lat="63.56479" lon="9.92525">
        <ele>75.436632</ele>
        <time>2020-08-08T09:48:15.451Z</time>
      </trkpt>
      <trkpt lat="63.56487" lon="9.92538">
        <ele>75.141663</ele>
        <time>2020-08-08T09:48:18.469Z</time>
      </trkpt>
      <trkpt lat="63.56494" lon="9.9255">
        <ele>74.873171</ele>
        <time>2020-08-08T09:48:20.481Z</time>
      </trkpt>
      <trkpt lat="63.56502" lon="9.92565">
        <ele>74.580364</ele>
        <time>2020-08-08T09:48:22.453Z</time>
      </trkpt>
      <trkpt lat="63.5651" lon="9.92581">
        <ele>74.254682</ele>
        <time>2020-08-08T09:48:24.494Z</time>
      </trkpt>
      <trkpt lat="63.56519" lon="9.92597">
        <ele>73.918528</ele>
        <time>2020-08-08T09:48:26.461Z</time>
      </trkpt>
      <trkpt lat="63.56528" lon="9.92614">
        <ele>73.566638</ele>
        <time>2020-08-08T09:48:28.459Z</time>
      </trkpt>
      <trkpt lat="63.56538" lon="9.92633">
        <ele>73.188649</ele>
        <time>2020-08-08T09:48:30.474Z</time>
      </trkpt>
      <trkpt lat="63.5655" lon="9.92651">
        <ele>72.778135</ele>
        <time>2020-08-08T09:48:32.467Z</time>
      </trkpt>
      <trkpt lat="63.56562" lon="9.92672">
        <ele>72.329925</ele>
        <time>2020-08-08T09:48:34.441Z</time>
      </trkpt>
      <trkpt lat="63.56575" lon="9.92692">
        <ele>71.854206</ele>
        <time>2020-08-08T09:48:36.479Z</time>
      </trkpt>
      <trkpt lat="63.56589" lon="9.92712">
        <ele>71.361861</ele>
        <time>2020-08-08T09:48:38.445Z</time>
      </trkpt>
      <trkpt lat="63.56597" lon="9.92723">
        <ele>71.096882</ele>
        <time>2020-08-08T09:48:39.490Z</time>
      </trkpt>
      <trkpt lat="63.56605" lon="9.92733">
        <ele>70.827521</ele>
        <time>2020-08-08T09:48:40.450Z</time>
      </trkpt>
      <trkpt lat="63.56613" lon="9.92744">
        <ele>70.554297</ele>
        <time>2020-08-08T09:48:41.458Z</time>
      </trkpt>
      <trkpt lat="63.56621" lon="9.92754">
        <ele>70.279057</ele>
        <time>2020-08-08T09:48:42.494Z</time>
      </trkpt>
      <trkpt lat="63.56629" lon="9.92766">
        <ele>69.797516</ele>
        <time>2020-08-08T09:48:43.452Z</time>
      </trkpt>
      <trkpt lat="63.56637" lon="9.92777">
        <ele>69.305854</ele>
        <time>2020-08-08T09:48:44.514Z</time>
      </trkpt>
      <trkpt lat="63.56644" lon="9.92789">
        <ele>68.803307</ele>
        <time>2020-08-08T09:48:45.471Z</time>
      </trkpt>
      <trkpt lat="63.56652" lon="9.92801">
        <ele>68.314222</ele>
        <time>2020-08-08T09:48:46.486Z</time>
      </trkpt>
      <trkpt lat="63.5666" lon="9.92813">
        <ele>67.81465</ele>
        <time>2020-08-08T09:48:47.457Z</time>
      </trkpt>
      <trkpt lat="63.56667" lon="9.92826">
        <ele>67.324865</ele>
        <time>2020-08-08T09:48:48.451Z</time>
      </trkpt>
      <trkpt lat="63.56674" lon="9.9284">
        <ele>66.839022</ele>
        <time>2020-08-08T09:48:49.495Z</time>
      </trkpt>
      <trkpt lat="63.56681" lon="9.92856">
        <ele>66.33119</ele>
        <time>2020-08-08T09:48:50.443Z</time>
      </trkpt>
      <trkpt lat="63.56687" lon="9.92872">
        <ele>65.827496</ele>
        <time>2020-08-08T09:48:51.455Z</time>
      </trkpt>
      <trkpt lat="63.56694" lon="9.92889">
        <ele>65.290487</ele>
        <time>2020-08-08T09:48:52.516Z</time>
      </trkpt>
      <trkpt lat="63.567" lon="9.92907">
        <ele>64.75655</ele>
        <time>2020-08-08T09:48:53.464Z</time>
      </trkpt>
      <trkpt lat="63.56707" lon="9.92925">
        <ele>64.236458</ele>
        <time>2020-08-08T09:48:54.454Z</time>
      </trkpt>
      <trkpt lat="63.56712" lon="9.92942">
        <ele>63.723585</ele>
        <time>2020-08-08T09:48:55.459Z</time>
      </trkpt>
      <trkpt lat="63.56718" lon="9.9296">
        <ele>63.219459</ele>
        <time>2020-08-08T09:48:56.493Z</time>
      </trkpt>
      <trkpt lat="63.56724" lon="9.92977">
        <ele>62.724682</ele>
        <time>2020-08-08T09:48:57.482Z</time>
      </trkpt>
      <trkpt lat="63.5673" lon="9.92993">
        <ele>62.233617</ele>
        <time>2020-08-08T09:48:58.483Z</time>
      </trkpt>
      <trkpt lat="63.56735" lon="9.93009">
        <ele>61.760043</ele>
        <time>2020-08-08T09:48:59.461Z</time>
      </trkpt>
      <trkpt lat="63.56746" lon="9.9304">
        <ele>60.846681</ele>
        <time>2020-08-08T09:49:01.468Z</time>
      </trkpt>
      <trkpt lat="63.56755" lon="9.93069">
        <ele>60.218936</ele>
        <time>2020-08-08T09:49:03.477Z</time>
      </trkpt>
      <trkpt lat="63.56764" lon="9.93097">
        <ele>59.605542</ele>
        <time>2020-08-08T09:49:05.443Z</time>
      </trkpt>
      <trkpt lat="63.56774" lon="9.93118">
        <ele>59.068761</ele>
        <time>2020-08-08T09:49:07.475Z</time>
      </trkpt>
      <trkpt lat="63.56789" lon="9.93139">
        <ele>58.369489</ele>
        <time>2020-08-08T09:49:09.473Z</time>
      </trkpt>
      <trkpt lat="63.56804" lon="9.9315">
        <ele>57.732251</ele>
        <time>2020-08-08T09:49:11.453Z</time>
      </trkpt>
      <trkpt lat="63.56821" lon="9.93159">
        <ele>57.072087</ele>
        <time>2020-08-08T09:49:13.456Z</time>
      </trkpt>
      <trkpt lat="63.56837" lon="9.93169">
        <ele>56.391911</ele>
        <time>2020-08-08T09:49:15.506Z</time>
      </trkpt>
      <trkpt lat="63.56854" lon="9.93177">
        <ele>55.724345</ele>
        <time>2020-08-08T09:49:17.470Z</time>
      </trkpt>
      <trkpt lat="63.56869" lon="9.93186">
        <ele>55.076086</ele>
        <time>2020-08-08T09:49:19.481Z</time>
      </trkpt>
      <trkpt lat="63.56885" lon="9.93194">
        <ele>54.434159</ele>
        <time>2020-08-08T09:49:21.461Z</time>
      </trkpt>
      <trkpt lat="63.56901" lon="9.93201">
        <ele>53.80467</ele>
        <time>2020-08-08T09:49:23.444Z</time>
      </trkpt>
      <trkpt lat="63.56916" lon="9.93208">
        <ele>53.405046</ele>
        <time>2020-08-08T09:49:25.446Z</time>
      </trkpt>
      <trkpt lat="63.56932" lon="9.93214">
        <ele>53.04304</ele>
        <time>2020-08-08T09:49:27.459Z</time>
      </trkpt>
      <trkpt lat="63.56948" lon="9.9322">
        <ele>52.677907</ele>
        <time>2020-08-08T09:49:29.462Z</time>
      </trkpt>
      <trkpt lat="63.56964" lon="9.93225">
        <ele>52.303805</ele>
        <time>2020-08-08T09:49:31.458Z</time>
      </trkpt>
      <trkpt lat="63.5698" lon="9.9323">
        <ele>51.9397</ele>
        <time>2020-08-08T09:49:33.461Z</time>
      </trkpt>
      <trkpt lat="63.56996" lon="9.93235">
        <ele>51.57517</ele>
        <time>2020-08-08T09:49:35.482Z</time>
      </trkpt>
      <trkpt lat="63.57012" lon="9.9324">
        <ele>51.219911</ele>
        <time>2020-08-08T09:49:37.473Z</time>
      </trkpt>
      <trkpt lat="63.57026" lon="9.93246">
        <ele>50.881129</ele>
        <time>2020-08-08T09:49:39.469Z</time>
      </trkpt>
      <trkpt lat="63.5704" lon="9.93252">
        <ele>50.5678</ele>
        <time>2020-08-08T09:49:41.466Z</time>
      </trkpt>
      <trkpt lat="63.57053" lon="9.93257">
        <ele>50.277516</ele>
        <time>2020-08-08T09:49:43.476Z</time>
      </trkpt>
      <trkpt lat="63.57064" lon="9.93261">
        <ele>50.017328</ele>
        <time>2020-08-08T09:49:45.497Z</time>
      </trkpt>
      <trkpt lat="63.57074" lon="9.93265">
        <ele>49.784996</ele>
        <time>2020-08-08T09:49:47.437Z</time>
      </trkpt>
      <trkpt lat="63.57085" lon="9.93269">
        <ele>49.630616</ele>
        <time>2020-08-08T09:49:49.462Z</time>
      </trkpt>
      <trkpt lat="63.57095" lon="9.93272">
        <ele>49.612304</ele>
        <time>2020-08-08T09:49:51.445Z</time>
      </trkpt>
      <trkpt lat="63.57105" lon="9.93275">
        <ele>49.595009</ele>
        <time>2020-08-08T09:49:53.464Z</time>
      </trkpt>
      <trkpt lat="63.57114" lon="9.93279">
        <ele>49.579324</ele>
        <time>2020-08-08T09:49:55.442Z</time>
      </trkpt>
      <trkpt lat="63.57124" lon="9.93283">
        <ele>49.562497</ele>
        <time>2020-08-08T09:49:57.453Z</time>
      </trkpt>
      <trkpt lat="63.57134" lon="9.93286">
        <ele>49.546339</ele>
        <time>2020-08-08T09:49:59.462Z</time>
      </trkpt>
      <trkpt lat="63.57146" lon="9.93292">
        <ele>49.524528</ele>
        <time>2020-08-08T09:50:02.465Z</time>
      </trkpt>
      <trkpt lat="63.57159" lon="9.93298">
        <ele>49.501959</ele>
        <time>2020-08-08T09:50:05.474Z</time>
      </trkpt>
      <trkpt lat="63.57172" lon="9.93302">
        <ele>49.480172</ele>
        <time>2020-08-08T09:50:08.459Z</time>
      </trkpt>
      <trkpt lat="63.57185" lon="9.93307">
        <ele>49.458516</ele>
        <time>2020-08-08T09:50:11.464Z</time>
      </trkpt>
      <trkpt lat="63.57197" lon="9.93312">
        <ele>49.436613</ele>
        <time>2020-08-08T09:50:14.481Z</time>
      </trkpt>
      <trkpt lat="63.57207" lon="9.93316">
        <ele>49.420132</ele>
        <time>2020-08-08T09:50:16.481Z</time>
      </trkpt>
      <trkpt lat="63.57216" lon="9.9332">
        <ele>49.404295</ele>
        <time>2020-08-08T09:50:18.486Z</time>
      </trkpt>
      <trkpt lat="63.57225" lon="9.93323">
        <ele>49.38879</ele>
        <time>2020-08-08T09:50:20.470Z</time>
      </trkpt>
      <trkpt lat="63.57234" lon="9.93327">
        <ele>49.373244</ele>
        <time>2020-08-08T09:50:22.452Z</time>
      </trkpt>
      <trkpt lat="63.57247" lon="9.93333">
        <ele>49.350647</ele>
        <time>2020-08-08T09:50:25.471Z</time>
      </trkpt>
      <trkpt lat="63.57256" lon="9.93336">
        <ele>49.335229</ele>
        <time>2020-08-08T09:50:27.502Z</time>
      </trkpt>
      <trkpt lat="63.57267" lon="9.93339">
        <ele>49.137728</ele>
        <time>2020-08-08T09:50:29.454Z</time>
      </trkpt>
      <trkpt lat="63.57277" lon="9.93343">
        <ele>48.904644</ele>
        <time>2020-08-08T09:50:31.471Z</time>
      </trkpt>
      <trkpt lat="63.57288" lon="9.93347">
        <ele>48.666691</ele>
        <time>2020-08-08T09:50:33.459Z</time>
      </trkpt>
      <trkpt lat="63.57299" lon="9.93351">
        <ele>48.422831</ele>
        <time>2020-08-08T09:50:35.465Z</time>
      </trkpt>
      <trkpt lat="63.57311" lon="9.93355">
        <ele>48.178024</ele>
        <time>2020-08-08T09:50:37.456Z</time>
      </trkpt>
      <trkpt lat="63.57322" lon="9.9336">
        <ele>47.931265</ele>
        <time>2020-08-08T09:50:39.474Z</time>
      </trkpt>
      <trkpt lat="63.57333" lon="9.93364">
        <ele>47.688745</ele>
        <time>2020-08-08T09:50:41.496Z</time>
      </trkpt>
      <trkpt lat="63.57344" lon="9.93369">
        <ele>47.436897</ele>
        <time>2020-08-08T09:50:43.475Z</time>
      </trkpt>
      <trkpt lat="63.57356" lon="9.93374">
        <ele>47.173759</ele>
        <time>2020-08-08T09:50:45.461Z</time>
      </trkpt>
      <trkpt lat="63.57369" lon="9.93379">
        <ele>46.909868</ele>
        <time>2020-08-08T09:50:47.481Z</time>
      </trkpt>
      <trkpt lat="63.5738" lon="9.93384">
        <ele>46.64973</ele>
        <time>2020-08-08T09:50:49.457Z</time>
      </trkpt>
      <trkpt lat="63.57392" lon="9.93388">
        <ele>46.391537</ele>
        <time>2020-08-08T09:50:51.447Z</time>
      </trkpt>
      <trkpt lat="63.57404" lon="9.93393">
        <ele>46.129281</ele>
        <time>2020-08-08T09:50:53.451Z</time>
      </trkpt>
      <trkpt lat="63.57417" lon="9.93398">
        <ele>45.86083</ele>
        <time>2020-08-08T09:50:55.509Z</time>
      </trkpt>
      <trkpt lat="63.57429" lon="9.93402">
        <ele>45.588445</ele>
        <time>2020-08-08T09:50:57.453Z</time>
      </trkpt>
      <trkpt lat="63.57442" lon="9.93407">
        <ele>45.377761</ele>
        <time>2020-08-08T09:50:59.451Z</time>
      </trkpt>
      <trkpt lat="63.57454" lon="9.93412">
        <ele>45.218089</ele>
        <time>2020-08-08T09:51:01.461Z</time>
      </trkpt>
      <trkpt lat="63.57467" lon="9.93416">
        <ele>45.06358</ele>
        <time>2020-08-08T09:51:03.457Z</time>
      </trkpt>
      <trkpt lat="63.57479" lon="9.93421">
        <ele>44.907672</ele>
        <time>2020-08-08T09:51:05.475Z</time>
      </trkpt>
      <trkpt lat="63.57491" lon="9.93426">
        <ele>44.753642</ele>
        <time>2020-08-08T09:51:07.478Z</time>
      </trkpt>
      <trkpt lat="63.57504" lon="9.93431">
        <ele>44.59727</ele>
        <time>2020-08-08T09:51:09.458Z</time>
      </trkpt>
      <trkpt lat="63.57516" lon="9.93436">
        <ele>44.44334</ele>
        <time>2020-08-08T09:51:11.462Z</time>
      </trkpt>
      <trkpt lat="63.57528" lon="9.93441">
        <ele>44.285239</ele>
        <time>2020-08-08T09:51:13.481Z</time>
      </trkpt>
      <trkpt lat="63.5754" lon="9.93447">
        <ele>44.130681</ele>
        <time>2020-08-08T09:51:15.458Z</time>
      </trkpt>
      <trkpt lat="63.57552" lon="9.93452">
        <ele>43.97958</ele>
        <time>2020-08-08T09:51:17.499Z</time>
      </trkpt>
      <trkpt lat="63.57565" lon="9.93457">
        <ele>43.823009</ele>
        <time>2020-08-08T09:51:19.518Z</time>
      </trkpt>
      <trkpt lat="63.57577" lon="9.93462">
        <ele>43.673312</ele>
        <time>2020-08-08T09:51:21.491Z</time>
      </trkpt>
      <trkpt lat="63.57588" lon="9.93467">
        <ele>43.529141</ele>
        <time>2020-08-08T09:51:23.501Z</time>
      </trkpt>
      <trkpt lat="63.57599" lon="9.93472">
        <ele>43.386498</ele>
        <time>2020-08-08T09:51:25.482Z</time>
      </trkpt>
      <trkpt lat="63.5761" lon="9.93476">
        <ele>43.246872</ele>
        <time>2020-08-08T09:51:27.457Z</time>
      </trkpt>
      <trkpt lat="63.57622" lon="9.9348">
        <ele>43.426885</ele>
        <time>2020-08-08T09:51:29.470Z</time>
      </trkpt>
      <trkpt lat="63.57632" lon="9.93485">
        <ele>43.636889</ele>
        <time>2020-08-08T09:51:31.511Z</time>
      </trkpt>
      <trkpt lat="63.57642" lon="9.93489">
        <ele>43.828733</ele>
        <time>2020-08-08T09:51:33.455Z</time>
      </trkpt>
      <trkpt lat="63.57651" lon="9.93492">
        <ele>44.009816</ele>
        <time>2020-08-08T09:51:35.465Z</time>
      </trkpt>
      <trkpt lat="63.5766" lon="9.93496">
        <ele>44.183226</ele>
        <time>2020-08-08T09:51:37.476Z</time>
      </trkpt>
      <trkpt lat="63.57669" lon="9.93499">
        <ele>44.368149</ele>
        <time>2020-08-08T09:51:39.457Z</time>
      </trkpt>
      <trkpt lat="63.57679" lon="9.93502">
        <ele>44.547046</ele>
        <time>2020-08-08T09:51:41.453Z</time>
      </trkpt>
      <trkpt lat="63.57691" lon="9.93506">
        <ele>44.800654</ele>
        <time>2020-08-08T09:51:44.452Z</time>
      </trkpt>
      <trkpt lat="63.57703" lon="9.93511">
        <ele>45.037716</ele>
        <time>2020-08-08T09:51:47.473Z</time>
      </trkpt>
      <trkpt lat="63.57715" lon="9.93515">
        <ele>45.261721</ele>
        <time>2020-08-08T09:51:50.465Z</time>
      </trkpt>
      <trkpt lat="63.57727" lon="9.93519">
        <ele>45.498848</ele>
        <time>2020-08-08T09:51:53.471Z</time>
      </trkpt>
      <trkpt lat="63.5774" lon="9.93523">
        <ele>45.754508</ele>
        <time>2020-08-08T09:51:56.494Z</time>
      </trkpt>
      <trkpt lat="63.57752" lon="9.93527">
        <ele>45.990177</ele>
        <time>2020-08-08T09:51:59.470Z</time>
      </trkpt>
      <trkpt lat="63.57764" lon="9.93531">
        <ele>46.228022</ele>
        <time>2020-08-08T09:52:02.449Z</time>
      </trkpt>
      <trkpt lat="63.57777" lon="9.93536">
        <ele>46.492042</ele>
        <time>2020-08-08T09:52:05.457Z</time>
      </trkpt>
      <trkpt lat="63.57787" lon="9.9354">
        <ele>46.673406</ele>
        <time>2020-08-08T09:52:07.467Z</time>
      </trkpt>
      <trkpt lat="63.57796" lon="9.93543">
        <ele>46.843145</ele>
        <time>2020-08-08T09:52:09.493Z</time>
      </trkpt>
      <trkpt lat="63.57806" lon="9.93547">
        <ele>47.004005</ele>
        <time>2020-08-08T09:52:11.456Z</time>
      </trkpt>
      <trkpt lat="63.57815" lon="9.93551">
        <ele>47.161496</ele>
        <time>2020-08-08T09:52:13.438Z</time>
      </trkpt>
      <trkpt lat="63.57825" lon="9.93556">
        <ele>47.322497</ele>
        <time>2020-08-08T09:52:15.447Z</time>
      </trkpt>
      <trkpt lat="63.57834" lon="9.9356">
        <ele>47.476482</ele>
        <time>2020-08-08T09:52:17.449Z</time>
      </trkpt>
      <trkpt lat="63.57847" lon="9.93565">
        <ele>47.692859</ele>
        <time>2020-08-08T09:52:20.457Z</time>
      </trkpt>
      <trkpt lat="63.57859" lon="9.93571">
        <ele>47.895617</ele>
        <time>2020-08-08T09:52:23.492Z</time>
      </trkpt>
      <trkpt lat="63.5787" lon="9.93575">
        <ele>48.072909</ele>
        <time>2020-08-08T09:52:26.470Z</time>
      </trkpt>
      <trkpt lat="63.5788" lon="9.93579">
        <ele>48.242963</ele>
        <time>2020-08-08T09:52:29.448Z</time>
      </trkpt>
      <trkpt lat="63.5789" lon="9.93582">
        <ele>48.40248</ele>
        <time>2020-08-08T09:52:32.454Z</time>
      </trkpt>
      <trkpt lat="63.57901" lon="9.93586">
        <ele>48.594471</ele>
        <time>2020-08-08T09:52:36.453Z</time>
      </trkpt>
      <trkpt lat="63.57911" lon="9.9359">
        <ele>48.758293</ele>
        <time>2020-08-08T09:52:40.477Z</time>
      </trkpt>
      <trkpt lat="63.57922" lon="9.93596">
        <ele>48.938195</ele>
        <time>2020-08-08T09:52:44.491Z</time>
      </trkpt>
      <trkpt lat="63.57932" lon="9.93599">
        <ele>49.114517</ele>
        <time>2020-08-08T09:52:48.499Z</time>
      </trkpt>
      <trkpt lat="63.57942" lon="9.93604">
        <ele>49.279331</ele>
        <time>2020-08-08T09:52:52.485Z</time>
      </trkpt>
      <trkpt lat="63.57951" lon="9.93607">
        <ele>49.435195</ele>
        <time>2020-08-08T09:52:56.472Z</time>
      </trkpt>
      <trkpt lat="63.57961" lon="9.9361">
        <ele>49.600261</ele>
        <time>2020-08-08T09:53:00.451Z</time>
      </trkpt>
      <trkpt lat="63.57972" lon="9.93614">
        <ele>49.715511</ele>
        <time>2020-08-08T09:53:04.499Z</time>
      </trkpt>
      <trkpt lat="63.57982" lon="9.93618">
        <ele>49.772092</ele>
        <time>2020-08-08T09:53:08.462Z</time>
      </trkpt>
      <trkpt lat="63.57992" lon="9.93622">
        <ele>49.826412</ele>
        <time>2020-08-08T09:53:12.459Z</time>
      </trkpt>
      <trkpt lat="63.58002" lon="9.93629">
        <ele>49.882188</ele>
        <time>2020-08-08T09:53:16.481Z</time>
      </trkpt>
      <trkpt lat="63.58011" lon="9.93639">
        <ele>49.939577</ele>
        <time>2020-08-08T09:53:21.448Z</time>
      </trkpt>
      <trkpt lat="63.58021" lon="9.93645">
        <ele>49.993722</ele>
        <time>2020-08-08T09:53:25.478Z</time>
      </trkpt>
      <trkpt lat="63.58028" lon="9.93627">
        <ele>50.051561</ele>
        <time>2020-08-08T09:53:30.465Z</time>
      </trkpt>
      <trkpt lat="63.58033" lon="9.93604">
        <ele>50.11382</ele>
        <time>2020-08-08T09:53:33.466Z</time>
      </trkpt>
      <trkpt lat="63.58038" lon="9.93588">
        <ele>50.162771</ele>
        <time>2020-08-08T09:53:35.429Z</time>
      </trkpt>
      <trkpt lat="63.58045" lon="9.93568">
        <ele>50.221604</ele>
        <time>2020-08-08T09:53:37.421Z</time>
      </trkpt>
      <trkpt lat="63.58053" lon="9.93547">
        <ele>50.287016</ele>
        <time>2020-08-08T09:53:39.449Z</time>
      </trkpt>
      <trkpt lat="63.58061" lon="9.93527">
        <ele>50.353724</ele>
        <time>2020-08-08T09:53:41.452Z</time>
      </trkpt>
      <trkpt lat="63.58069" lon="9.93509">
        <ele>50.414456</ele>
        <time>2020-08-08T09:53:43.514Z</time>
      </trkpt>
      <trkpt lat="63.58075" lon="9.93492">
        <ele>50.466915</ele>
        <time>2020-08-08T09:53:45.461Z</time>
      </trkpt>
      <trkpt lat="63.58081" lon="9.93476">
        <ele>50.518125</ele>
        <time>2020-08-08T09:53:47.466Z</time>
      </trkpt>
      <trkpt lat="63.58087" lon="9.93459">
        <ele>50.569336</ele>
        <time>2020-08-08T09:53:49.448Z</time>
      </trkpt>
      <trkpt lat="63.58093" lon="9.93443">
        <ele>50.620174</ele>
        <time>2020-08-08T09:53:51.473Z</time>
      </trkpt>
      <trkpt lat="63.58099" lon="9.93426">
        <ele>50.646185</ele>
        <time>2020-08-08T09:53:53.440Z</time>
      </trkpt>
      <trkpt lat="63.58105" lon="9.93409">
        <ele>50.577895</ele>
        <time>2020-08-08T09:53:55.453Z</time>
      </trkpt>
      <trkpt lat="63.58111" lon="9.93391">
        <ele>50.510855</ele>
        <time>2020-08-08T09:53:57.473Z</time>
      </trkpt>
      <trkpt lat="63.58117" lon="9.93374">
        <ele>50.444114</ele>
        <time>2020-08-08T09:53:59.466Z</time>
      </trkpt>
      <trkpt lat="63.58123" lon="9.93357">
        <ele>50.380104</ele>
        <time>2020-08-08T09:54:01.458Z</time>
      </trkpt>
      <trkpt lat="63.58129" lon="9.9334">
        <ele>50.314806</ele>
        <time>2020-08-08T09:54:03.455Z</time>
      </trkpt>
      <trkpt lat="63.58135" lon="9.93324">
        <ele>50.249903</ele>
        <time>2020-08-08T09:54:05.481Z</time>
      </trkpt>
      <trkpt lat="63.58141" lon="9.93306">
        <ele>50.18383</ele>
        <time>2020-08-08T09:54:07.488Z</time>
      </trkpt>
      <trkpt lat="63.58146" lon="9.93288">
        <ele>50.1203</ele>
        <time>2020-08-08T09:54:09.457Z</time>
      </trkpt>
      <trkpt lat="63.58151" lon="9.93272">
        <ele>50.059275</ele>
        <time>2020-08-08T09:54:11.485Z</time>
      </trkpt>
      <trkpt lat="63.58159" lon="9.93248">
        <ele>49.972292</ele>
        <time>2020-08-08T09:54:14.479Z</time>
      </trkpt>
      <trkpt lat="63.58166" lon="9.93225">
        <ele>49.888338</ele>
        <time>2020-08-08T09:54:17.534Z</time>
      </trkpt>
      <trkpt lat="63.58177" lon="9.93219">
        <ele>49.812558</ele>
        <time>2020-08-08T09:54:21.457Z</time>
      </trkpt>
      <trkpt lat="63.58173" lon="9.93239">
        <ele>49.748959</ele>
        <time>2020-08-08T09:54:24.462Z</time>
      </trkpt>
      <trkpt lat="63.58164" lon="9.93255">
        <ele>49.671551</ele>
        <time>2020-08-08T09:54:27.455Z</time>
      </trkpt>
      <trkpt lat="63.58157" lon="9.93273">
        <ele>49.600615</ele>
        <time>2020-08-08T09:54:30.440Z</time>
      </trkpt>
      <trkpt lat="63.58151" lon="9.93293">
        <ele>49.528799</ele>
        <time>2020-08-08T09:54:33.453Z</time>
      </trkpt>
      <trkpt lat="63.58145" lon="9.9331">
        <ele>49.461109</ele>
        <time>2020-08-08T09:54:36.448Z</time>
      </trkpt>
      <trkpt lat="63.58139" lon="9.93328">
        <ele>49.51436</ele>
        <time>2020-08-08T09:54:39.499Z</time>
      </trkpt>
      <trkpt lat="63.58132" lon="9.93346">
        <ele>49.619368</ele>
        <time>2020-08-08T09:54:42.468Z</time>
      </trkpt>
      <trkpt lat="63.58126" lon="9.93363">
        <ele>49.722973</ele>
        <time>2020-08-08T09:54:45.466Z</time>
      </trkpt>
      <trkpt lat="63.58119" lon="9.93381">
        <ele>49.826694</ele>
        <time>2020-08-08T09:54:48.465Z</time>
      </trkpt>
      <trkpt lat="63.58113" lon="9.934">
        <ele>49.933657</ele>
        <time>2020-08-08T09:54:51.511Z</time>
      </trkpt>
      <trkpt lat="63.58107" lon="9.93416">
        <ele>50.032187</ele>
        <time>2020-08-08T09:54:54.481Z</time>
      </trkpt>
      <trkpt lat="63.58101" lon="9.93435">
        <ele>50.140244</ele>
        <time>2020-08-08T09:54:57.474Z</time>
      </trkpt>
      <trkpt lat="63.58094" lon="9.93454">
        <ele>50.247936</ele>
        <time>2020-08-08T09:55:00.518Z</time>
      </trkpt>
      <trkpt lat="63.58088" lon="9.93473">
        <ele>50.357323</ele>
        <time>2020-08-08T09:55:03.491Z</time>
      </trkpt>
      <trkpt lat="63.58081" lon="9.93492">
        <ele>50.469675</ele>
        <time>2020-08-08T09:55:06.490Z</time>
      </trkpt>
      <trkpt lat="63.58074" lon="9.9351">
        <ele>50.575391</ele>
        <time>2020-08-08T09:55:09.467Z</time>
      </trkpt>
      <trkpt lat="63.58068" lon="9.93527">
        <ele>50.681001</ele>
        <time>2020-08-08T09:55:12.476Z</time>
      </trkpt>
      <trkpt lat="63.58061" lon="9.93544">
        <ele>50.784571</ele>
        <time>2020-08-08T09:55:15.513Z</time>
      </trkpt>
      <trkpt lat="63.58055" lon="9.93562">
        <ele>50.888377</ele>
        <time>2020-08-08T09:55:18.471Z</time>
      </trkpt>
      <trkpt lat="63.58049" lon="9.9358">
        <ele>50.987648</ele>
        <time>2020-08-08T09:55:21.451Z</time>
      </trkpt>
      <trkpt lat="63.58045" lon="9.93599">
        <ele>51.085144</ele>
        <time>2020-08-08T09:55:24.486Z</time>
      </trkpt>
      <trkpt lat="63.58042" lon="9.9362">
        <ele>51.183371</ele>
        <time>2020-08-08T09:55:27.511Z</time>
      </trkpt>
      <trkpt lat="63.5804" lon="9.93641">
        <ele>51.281752</ele>
        <time>2020-08-08T09:55:30.455Z</time>
      </trkpt>
      <trkpt lat="63.5804" lon="9.93663">
        <ele>51.408747</ele>
        <time>2020-08-08T09:55:33.442Z</time>
      </trkpt>
      <trkpt lat="63.5804" lon="9.93684">
        <ele>51.527551</ele>
        <time>2020-08-08T09:55:36.491Z</time>
      </trkpt>
      <trkpt lat="63.58042" lon="9.93706">
        <ele>51.654075</ele>
        <time>2020-08-08T09:55:39.500Z</time>
      </trkpt>
      <trkpt lat="63.58045" lon="9.93727">
        <ele>51.782241</ele>
        <time>2020-08-08T09:55:42.438Z</time>
      </trkpt>
      <trkpt lat="63.58049" lon="9.93747">
        <ele>51.904243</ele>
        <time>2020-08-08T09:55:45.461Z</time>
      </trkpt>
      <trkpt lat="63.58052" lon="9.93768">
        <ele>52.029831</ele>
        <time>2020-08-08T09:55:48.462Z</time>
      </trkpt>
      <trkpt lat="63.58056" lon="9.93789">
        <ele>52.160783</ele>
        <time>2020-08-08T09:55:51.468Z</time>
      </trkpt>
      <trkpt lat="63.5806" lon="9.93813">
        <ele>52.304442</ele>
        <time>2020-08-08T09:55:54.442Z</time>
      </trkpt>
      <trkpt lat="63.58064" lon="9.93835">
        <ele>52.443299</ele>
        <time>2020-08-08T09:55:57.459Z</time>
      </trkpt>
      <trkpt lat="63.58068" lon="9.93859">
        <ele>52.589635</ele>
        <time>2020-08-08T09:56:00.489Z</time>
      </trkpt>
      <trkpt lat="63.58072" lon="9.93883">
        <ele>52.737331</ele>
        <time>2020-08-08T09:56:03.473Z</time>
      </trkpt>
      <trkpt lat="63.58076" lon="9.93909">
        <ele>52.89241</ele>
        <time>2020-08-08T09:56:06.454Z</time>
      </trkpt>
      <trkpt lat="63.58081" lon="9.93936">
        <ele>53.054979</ele>
        <time>2020-08-08T09:56:09.512Z</time>
      </trkpt>
      <trkpt lat="63.58085" lon="9.93963">
        <ele>53.219697</ele>
        <time>2020-08-08T09:56:12.491Z</time>
      </trkpt>
      <trkpt lat="63.58088" lon="9.93982">
        <ele>53.336159</ele>
        <time>2020-08-08T09:56:14.461Z</time>
      </trkpt>
      <trkpt lat="63.58093" lon="9.9401">
        <ele>53.506479</ele>
        <time>2020-08-08T09:56:17.492Z</time>
      </trkpt>
      <trkpt lat="63.58098" lon="9.94037">
        <ele>53.729832</ele>
        <time>2020-08-08T09:56:20.456Z</time>
      </trkpt>
      <trkpt lat="63.58102" lon="9.94056">
        <ele>53.919466</ele>
        <time>2020-08-08T09:56:22.511Z</time>
      </trkpt>
      <trkpt lat="63.58106" lon="9.94083">
        <ele>54.194978</ele>
        <time>2020-08-08T09:56:25.492Z</time>
      </trkpt>
      <trkpt lat="63.58111" lon="9.9411">
        <ele>54.471231</ele>
        <time>2020-08-08T09:56:28.458Z</time>
      </trkpt>
      <trkpt lat="63.58116" lon="9.94137">
        <ele>54.749612</ele>
        <time>2020-08-08T09:56:31.491Z</time>
      </trkpt>
      <trkpt lat="63.58121" lon="9.94164">
        <ele>55.018715</ele>
        <time>2020-08-08T09:56:34.511Z</time>
      </trkpt>
      <trkpt lat="63.58126" lon="9.94192">
        <ele>55.300007</ele>
        <time>2020-08-08T09:56:37.510Z</time>
      </trkpt>
      <trkpt lat="63.5813" lon="9.94218">
        <ele>55.568234</ele>
        <time>2020-08-08T09:56:40.479Z</time>
      </trkpt>
      <trkpt lat="63.58135" lon="9.94245">
        <ele>55.840207</ele>
        <time>2020-08-08T09:56:43.453Z</time>
      </trkpt>
      <trkpt lat="63.58138" lon="9.94264">
        <ele>56.031274</ele>
        <time>2020-08-08T09:56:45.485Z</time>
      </trkpt>
      <trkpt lat="63.58141" lon="9.94284">
        <ele>56.227495</ele>
        <time>2020-08-08T09:56:47.455Z</time>
      </trkpt>
      <trkpt lat="63.58145" lon="9.94311">
        <ele>56.498395</ele>
        <time>2020-08-08T09:56:50.470Z</time>
      </trkpt>
      <trkpt lat="63.58149" lon="9.94337">
        <ele>56.758109</ele>
        <time>2020-08-08T09:56:53.483Z</time>
      </trkpt>
      <trkpt lat="63.58153" lon="9.94363">
        <ele>57.019203</ele>
        <time>2020-08-08T09:56:56.489Z</time>
      </trkpt>
      <trkpt lat="63.58157" lon="9.94389">
        <ele>57.27732</ele>
        <time>2020-08-08T09:56:59.482Z</time>
      </trkpt>
      <trkpt lat="63.58162" lon="9.94414">
        <ele>57.409411</ele>
        <time>2020-08-08T09:57:02.470Z</time>
      </trkpt>
      <trkpt lat="63.58167" lon="9.94441">
        <ele>57.417303</ele>
        <time>2020-08-08T09:57:05.499Z</time>
      </trkpt>
      <trkpt lat="63.58171" lon="9.94468">
        <ele>57.425476</ele>
        <time>2020-08-08T09:57:08.457Z</time>
      </trkpt>
      <trkpt lat="63.58176" lon="9.94495">
        <ele>57.433469</ele>
        <time>2020-08-08T09:57:11.458Z</time>
      </trkpt>
      <trkpt lat="63.58181" lon="9.94522">
        <ele>57.441637</ele>
        <time>2020-08-08T09:57:14.459Z</time>
      </trkpt>
      <trkpt lat="63.58185" lon="9.94549">
        <ele>57.449699</ele>
        <time>2020-08-08T09:57:17.485Z</time>
      </trkpt>
      <trkpt lat="63.5819" lon="9.94574">
        <ele>57.457289</ele>
        <time>2020-08-08T09:57:20.457Z</time>
      </trkpt>
      <trkpt lat="63.58194" lon="9.94601">
        <ele>57.465184</ele>
        <time>2020-08-08T09:57:23.447Z</time>
      </trkpt>
      <trkpt lat="63.58199" lon="9.94627">
        <ele>57.473128</ele>
        <time>2020-08-08T09:57:26.515Z</time>
      </trkpt>
      <trkpt lat="63.58203" lon="9.94653">
        <ele>57.480839</ele>
        <time>2020-08-08T09:57:29.492Z</time>
      </trkpt>
      <trkpt lat="63.58208" lon="9.94677">
        <ele>57.488214</ele>
        <time>2020-08-08T09:57:32.442Z</time>
      </trkpt>
      <trkpt lat="63.58213" lon="9.94701">
        <ele>57.495614</ele>
        <time>2020-08-08T09:57:35.478Z</time>
      </trkpt>
      <trkpt lat="63.58217" lon="9.94727">
        <ele>57.503324</ele>
        <time>2020-08-08T09:57:38.493Z</time>
      </trkpt>
      <trkpt lat="63.58222" lon="9.94753">
        <ele>57.511067</ele>
        <time>2020-08-08T09:57:41.476Z</time>
      </trkpt>
      <trkpt lat="63.58226" lon="9.94778">
        <ele>57.529472</ele>
        <time>2020-08-08T09:57:44.457Z</time>
      </trkpt>
      <trkpt lat="63.5823" lon="9.94803">
        <ele>57.756802</ele>
        <time>2020-08-08T09:57:47.460Z</time>
      </trkpt>
      <trkpt lat="63.58234" lon="9.94828">
        <ele>57.979564</ele>
        <time>2020-08-08T09:57:50.440Z</time>
      </trkpt>
      <trkpt lat="63.58238" lon="9.94853">
        <ele>58.207011</ele>
        <time>2020-08-08T09:57:53.462Z</time>
      </trkpt>
      <trkpt lat="63.58242" lon="9.94877">
        <ele>58.430089</ele>
        <time>2020-08-08T09:57:56.475Z</time>
      </trkpt>
      <trkpt lat="63.58246" lon="9.94902">
        <ele>58.660616</ele>
        <time>2020-08-08T09:57:59.476Z</time>
      </trkpt>
      <trkpt lat="63.5825" lon="9.94928">
        <ele>58.89289</ele>
        <time>2020-08-08T09:58:02.465Z</time>
      </trkpt>
      <trkpt lat="63.58254" lon="9.94952">
        <ele>59.113022</ele>
        <time>2020-08-08T09:58:05.454Z</time>
      </trkpt>
      <trkpt lat="63.58259" lon="9.94975">
        <ele>59.325136</ele>
        <time>2020-08-08T09:58:08.468Z</time>
      </trkpt>
      <trkpt lat="63.58261" lon="9.94998">
        <ele>59.533882</ele>
        <time>2020-08-08T09:58:11.450Z</time>
      </trkpt>
      <trkpt lat="63.58261" lon="9.95024">
        <ele>59.756644</ele>
        <time>2020-08-08T09:58:14.469Z</time>
      </trkpt>
      <trkpt lat="63.58262" lon="9.95051">
        <ele>59.983463</ele>
        <time>2020-08-08T09:58:17.468Z</time>
      </trkpt>
      <trkpt lat="63.58265" lon="9.95075">
        <ele>60.198987</ele>
        <time>2020-08-08T09:58:20.474Z</time>
      </trkpt>
      <trkpt lat="63.5827" lon="9.95099">
        <ele>60.422939</ele>
        <time>2020-08-08T09:58:23.490Z</time>
      </trkpt>
      <trkpt lat="63.58274" lon="9.95124">
        <ele>60.65317</ele>
        <time>2020-08-08T09:58:26.451Z</time>
      </trkpt>
      <trkpt lat="63.58279" lon="9.95148">
        <ele>60.884935</ele>
        <time>2020-08-08T09:58:29.460Z</time>
      </trkpt>
      <trkpt lat="63.58284" lon="9.95173">
        <ele>61.139597</ele>
        <time>2020-08-08T09:58:32.441Z</time>
      </trkpt>
      <trkpt lat="63.58289" lon="9.95197">
        <ele>61.407797</ele>
        <time>2020-08-08T09:58:35.531Z</time>
      </trkpt>
      <trkpt lat="63.58293" lon="9.95222">
        <ele>61.680247</ele>
        <time>2020-08-08T09:58:38.466Z</time>
      </trkpt>
      <trkpt lat="63.58297" lon="9.95246">
        <ele>61.953124</ele>
        <time>2020-08-08T09:58:41.477Z</time>
      </trkpt>
      <trkpt lat="63.58301" lon="9.95271">
        <ele>62.225747</ele>
        <time>2020-08-08T09:58:44.474Z</time>
      </trkpt>
      <trkpt lat="63.58305" lon="9.95295">
        <ele>62.487842</ele>
        <time>2020-08-08T09:58:47.449Z</time>
      </trkpt>
      <trkpt lat="63.58309" lon="9.9532">
        <ele>62.755351</ele>
        <time>2020-08-08T09:58:50.476Z</time>
      </trkpt>
      <trkpt lat="63.58312" lon="9.95343">
        <ele>63.007538</ele>
        <time>2020-08-08T09:58:53.454Z</time>
      </trkpt>
      <trkpt lat="63.58317" lon="9.95366">
        <ele>63.267238</ele>
        <time>2020-08-08T09:58:56.462Z</time>
      </trkpt>
      <trkpt lat="63.58321" lon="9.95391">
        <ele>63.537151</ele>
        <time>2020-08-08T09:58:59.445Z</time>
      </trkpt>
      <trkpt lat="63.58325" lon="9.95415">
        <ele>63.800956</ele>
        <time>2020-08-08T09:59:02.474Z</time>
      </trkpt>
      <trkpt lat="63.58329" lon="9.9544">
        <ele>64.075038</ele>
        <time>2020-08-08T09:59:05.477Z</time>
      </trkpt>
      <trkpt lat="63.58334" lon="9.95466">
        <ele>64.366823</ele>
        <time>2020-08-08T09:59:08.500Z</time>
      </trkpt>
      <trkpt lat="63.58339" lon="9.95493">
        <ele>64.657655</ele>
        <time>2020-08-08T09:59:11.460Z</time>
      </trkpt>
      <trkpt lat="63.58343" lon="9.95512">
        <ele>64.875267</ele>
        <time>2020-08-08T09:59:13.500Z</time>
      </trkpt>
      <trkpt lat="63.58348" lon="9.95538">
        <ele>65.097446</ele>
        <time>2020-08-08T09:59:16.450Z</time>
      </trkpt>
      <trkpt lat="63.58352" lon="9.95557">
        <ele>64.930377</ele>
        <time>2020-08-08T09:59:18.494Z</time>
      </trkpt>
      <trkpt lat="63.58355" lon="9.95576">
        <ele>64.754958</ele>
        <time>2020-08-08T09:59:20.441Z</time>
      </trkpt>
      <trkpt lat="63.58359" lon="9.95596">
        <ele>64.583883</ele>
        <time>2020-08-08T09:59:22.481Z</time>
      </trkpt>
      <trkpt lat="63.58363" lon="9.95623">
        <ele>64.341619</ele>
        <time>2020-08-08T09:59:25.472Z</time>
      </trkpt>
      <trkpt lat="63.58369" lon="9.9565">
        <ele>64.096883</ele>
        <time>2020-08-08T09:59:28.469Z</time>
      </trkpt>
      <trkpt lat="63.58374" lon="9.95675">
        <ele>63.869571</ele>
        <time>2020-08-08T09:59:31.470Z</time>
      </trkpt>
      <trkpt lat="63.5838" lon="9.957">
        <ele>63.641964</ele>
        <time>2020-08-08T09:59:34.473Z</time>
      </trkpt>
      <trkpt lat="63.58385" lon="9.95722">
        <ele>63.436902</ele>
        <time>2020-08-08T09:59:37.498Z</time>
      </trkpt>
      <trkpt lat="63.58389" lon="9.95744">
        <ele>63.238201</ele>
        <time>2020-08-08T09:59:40.462Z</time>
      </trkpt>
      <trkpt lat="63.58395" lon="9.95771">
        <ele>62.992726</ele>
        <time>2020-08-08T09:59:43.469Z</time>
      </trkpt>
      <trkpt lat="63.584" lon="9.95798">
        <ele>62.748147</ele>
        <time>2020-08-08T09:59:46.444Z</time>
      </trkpt>
      <trkpt lat="63.58406" lon="9.95822">
        <ele>62.525051</ele>
        <time>2020-08-08T09:59:49.501Z</time>
      </trkpt>
      <trkpt lat="63.5841" lon="9.95846">
        <ele>62.313395</ele>
        <time>2020-08-08T09:59:52.454Z</time>
      </trkpt>
      <trkpt lat="63.58413" lon="9.9587">
        <ele>62.107294</ele>
        <time>2020-08-08T09:59:55.439Z</time>
      </trkpt>
      <trkpt lat="63.58415" lon="9.95893">
        <ele>61.910379</ele>
        <time>2020-08-08T09:59:58.440Z</time>
      </trkpt>
      <trkpt lat="63.58416" lon="9.95915">
        <ele>61.884775</ele>
        <time>2020-08-08T10:00:01.493Z</time>
      </trkpt>
      <trkpt lat="63.58421" lon="9.95933">
        <ele>62.100414</ele>
        <time>2020-08-08T10:00:04.505Z</time>
      </trkpt>
      <trkpt lat="63.58431" lon="9.95939">
        <ele>62.336615</ele>
        <time>2020-08-08T10:00:07.457Z</time>
      </trkpt>
      <trkpt lat="63.58441" lon="9.95949">
        <ele>62.582572</ele>
        <time>2020-08-08T10:00:11.450Z</time>
      </trkpt>
      <trkpt lat="63.58442" lon="9.95972">
        <ele>62.812044</ele>
        <time>2020-08-08T10:00:14.486Z</time>
      </trkpt>
      <trkpt lat="63.58446" lon="9.95993">
        <ele>63.047603</ele>
        <time>2020-08-08T10:00:17.500Z</time>
      </trkpt>
      <trkpt lat="63.58451" lon="9.96013">
        <ele>63.282144</ele>
        <time>2020-08-08T10:00:20.440Z</time>
      </trkpt>
      <trkpt lat="63.58456" lon="9.96036">
        <ele>63.534408</ele>
        <time>2020-08-08T10:00:23.456Z</time>
      </trkpt>
      <trkpt lat="63.58461" lon="9.96058">
        <ele>63.772607</ele>
        <time>2020-08-08T10:00:26.466Z</time>
      </trkpt>
      <trkpt lat="63.58465" lon="9.96076">
        <ele>63.984717</ele>
        <time>2020-08-08T10:00:29.448Z</time>
      </trkpt>
      <trkpt lat="63.5847" lon="9.96099">
        <ele>64.23661</ele>
        <time>2020-08-08T10:00:34.460Z</time>
      </trkpt>
      <trkpt lat="63.58472" lon="9.96121">
        <ele>64.460465</ele>
        <time>2020-08-08T10:00:37.467Z</time>
      </trkpt>
      <trkpt lat="63.58474" lon="9.96145">
        <ele>64.706151</ele>
        <time>2020-08-08T10:00:40.458Z</time>
      </trkpt>
      <trkpt lat="63.58478" lon="9.9617">
        <ele>64.972187</ele>
        <time>2020-08-08T10:00:43.458Z</time>
      </trkpt>
      <trkpt lat="63.58483" lon="9.96192">
        <ele>65.227804</ele>
        <time>2020-08-08T10:00:46.436Z</time>
      </trkpt>
      <trkpt lat="63.58489" lon="9.96216">
        <ele>65.504453</ele>
        <time>2020-08-08T10:00:49.450Z</time>
      </trkpt>
      <trkpt lat="63.58495" lon="9.96241">
        <ele>65.780738</ele>
        <time>2020-08-08T10:00:52.456Z</time>
      </trkpt>
      <trkpt lat="63.58501" lon="9.96264">
        <ele>66.145831</ele>
        <time>2020-08-08T10:00:55.484Z</time>
      </trkpt>
      <trkpt lat="63.58506" lon="9.96287">
        <ele>66.542551</ele>
        <time>2020-08-08T10:00:58.461Z</time>
      </trkpt>
      <trkpt lat="63.58511" lon="9.96311">
        <ele>66.944527</ele>
        <time>2020-08-08T10:01:01.480Z</time>
      </trkpt>
      <trkpt lat="63.58515" lon="9.96334">
        <ele>67.323973</ele>
        <time>2020-08-08T10:01:04.472Z</time>
      </trkpt>
      <trkpt lat="63.5852" lon="9.96355">
        <ele>67.672866</ele>
        <time>2020-08-08T10:01:07.470Z</time>
      </trkpt>
      <trkpt lat="63.58524" lon="9.96375">
        <ele>68.010901</ele>
        <time>2020-08-08T10:01:10.455Z</time>
      </trkpt>
      <trkpt lat="63.58529" lon="9.96397">
        <ele>68.39185</ele>
        <time>2020-08-08T10:01:14.457Z</time>
      </trkpt>
      <trkpt lat="63.58534" lon="9.96419">
        <ele>68.759315</ele>
        <time>2020-08-08T10:01:18.508Z</time>
      </trkpt>
      <trkpt lat="63.58539" lon="9.96438">
        <ele>69.100998</ele>
        <time>2020-08-08T10:01:22.510Z</time>
      </trkpt>
      <trkpt lat="63.58545" lon="9.96457">
        <ele>69.458653</ele>
        <time>2020-08-08T10:01:26.453Z</time>
      </trkpt>
      <trkpt lat="63.5855" lon="9.96478">
        <ele>69.82305</ele>
        <time>2020-08-08T10:01:30.460Z</time>
      </trkpt>
      <trkpt lat="63.58558" lon="9.96493">
        <ele>70.177324</ele>
        <time>2020-08-08T10:01:34.453Z</time>
      </trkpt>
      <trkpt lat="63.58568" lon="9.96509">
        <ele>70.583262</ele>
        <time>2020-08-08T10:01:38.494Z</time>
      </trkpt>
      <trkpt lat="63.58571" lon="9.96531">
        <ele>70.944116</ele>
        <time>2020-08-08T10:01:41.481Z</time>
      </trkpt>
      <trkpt lat="63.58575" lon="9.96551">
        <ele>71.286011</ele>
        <time>2020-08-08T10:01:44.448Z</time>
      </trkpt>
      <trkpt lat="63.58579" lon="9.96571">
        <ele>71.619566</ele>
        <time>2020-08-08T10:01:47.444Z</time>
      </trkpt>
      <trkpt lat="63.58583" lon="9.96591">
        <ele>71.95312</ele>
        <time>2020-08-08T10:01:50.453Z</time>
      </trkpt>
      <trkpt lat="63.58587" lon="9.96611">
        <ele>72.11365</ele>
        <time>2020-08-08T10:01:53.469Z</time>
      </trkpt>
      <trkpt lat="63.58592" lon="9.9663">
        <ele>72.240855</ele>
        <time>2020-08-08T10:01:56.459Z</time>
      </trkpt>
      <trkpt lat="63.58596" lon="9.96648">
        <ele>72.362836</ele>
        <time>2020-08-08T10:01:59.452Z</time>
      </trkpt>
      <trkpt lat="63.58601" lon="9.96673">
        <ele>72.527253</ele>
        <time>2020-08-08T10:02:03.470Z</time>
      </trkpt>
      <trkpt lat="63.58604" lon="9.96692">
        <ele>72.651622</ele>
        <time>2020-08-08T10:02:06.475Z</time>
      </trkpt>
      <trkpt lat="63.58608" lon="9.96715">
        <ele>72.802788</ele>
        <time>2020-08-08T10:02:10.492Z</time>
      </trkpt>
      <trkpt lat="63.58613" lon="9.96737">
        <ele>72.953463</ele>
        <time>2020-08-08T10:02:14.472Z</time>
      </trkpt>
      <trkpt lat="63.58618" lon="9.96759">
        <ele>73.095299</ele>
        <time>2020-08-08T10:02:18.467Z</time>
      </trkpt>
      <trkpt lat="63.58622" lon="9.96779">
        <ele>73.233281</ele>
        <time>2020-08-08T10:02:22.500Z</time>
      </trkpt>
      <trkpt lat="63.58626" lon="9.96801">
        <ele>73.378379</ele>
        <time>2020-08-08T10:02:26.488Z</time>
      </trkpt>
      <trkpt lat="63.5863" lon="9.96824">
        <ele>73.529061</ele>
        <time>2020-08-08T10:02:30.486Z</time>
      </trkpt>
      <trkpt lat="63.58635" lon="9.96842">
        <ele>73.654747</ele>
        <time>2020-08-08T10:02:33.483Z</time>
      </trkpt>
      <trkpt lat="63.5864" lon="9.9686">
        <ele>73.781295</ele>
        <time>2020-08-08T10:02:36.513Z</time>
      </trkpt>
      <trkpt lat="63.58644" lon="9.96879">
        <ele>73.907633</ele>
        <time>2020-08-08T10:02:39.530Z</time>
      </trkpt>
      <trkpt lat="63.58648" lon="9.96899">
        <ele>74.042511</ele>
        <time>2020-08-08T10:02:42.459Z</time>
      </trkpt>
      <trkpt lat="63.58653" lon="9.96919">
        <ele>74.182619</ele>
        <time>2020-08-08T10:02:45.517Z</time>
      </trkpt>
      <trkpt lat="63.58658" lon="9.9694">
        <ele>74.322076</ele>
        <time>2020-08-08T10:02:48.491Z</time>
      </trkpt>
      <trkpt lat="63.58663" lon="9.96962">
        <ele>74.470915</ele>
        <time>2020-08-08T10:02:51.452Z</time>
      </trkpt>
      <trkpt lat="63.58667" lon="9.96983">
        <ele>74.624268</ele>
        <time>2020-08-08T10:02:54.474Z</time>
      </trkpt>
      <trkpt lat="63.5867" lon="9.97002">
        <ele>74.767819</ele>
        <time>2020-08-08T10:02:57.454Z</time>
      </trkpt>
      <trkpt lat="63.58674" lon="9.97022">
        <ele>74.90537</ele>
        <time>2020-08-08T10:03:00.471Z</time>
      </trkpt>
      <trkpt lat="63.58678" lon="9.97041">
        <ele>75.049868</ele>
        <time>2020-08-08T10:03:03.465Z</time>
      </trkpt>
      <trkpt lat="63.58682" lon="9.97059">
        <ele>75.187418</ele>
        <time>2020-08-08T10:03:06.468Z</time>
      </trkpt>
      <trkpt lat="63.58686" lon="9.97077">
        <ele>75.323171</ele>
        <time>2020-08-08T10:03:09.490Z</time>
      </trkpt>
      <trkpt lat="63.58692" lon="9.971">
        <ele>75.49825</ele>
        <time>2020-08-08T10:03:13.485Z</time>
      </trkpt>
      <trkpt lat="63.58697" lon="9.97124">
        <ele>75.677455</ele>
        <time>2020-08-08T10:03:17.444Z</time>
      </trkpt>
      <trkpt lat="63.58701" lon="9.97146">
        <ele>75.840614</ele>
        <time>2020-08-08T10:03:21.478Z</time>
      </trkpt>
      <trkpt lat="63.58705" lon="9.97169">
        <ele>76.003216</ele>
        <time>2020-08-08T10:03:25.460Z</time>
      </trkpt>
      <trkpt lat="63.58709" lon="9.97189">
        <ele>76.150444</ele>
        <time>2020-08-08T10:03:29.453Z</time>
      </trkpt>
      <trkpt lat="63.58713" lon="9.9721">
        <ele>76.299644</ele>
        <time>2020-08-08T10:03:33.489Z</time>
      </trkpt>
      <trkpt lat="63.58717" lon="9.97231">
        <ele>76.457453</ele>
        <time>2020-08-08T10:03:37.491Z</time>
      </trkpt>
      <trkpt lat="63.58722" lon="9.97252">
        <ele>76.620909</ele>
        <time>2020-08-08T10:03:41.468Z</time>
      </trkpt>
      <trkpt lat="63.58727" lon="9.97274">
        <ele>76.78377</ele>
        <time>2020-08-08T10:03:45.462Z</time>
      </trkpt>
      <trkpt lat="63.58732" lon="9.97295">
        <ele>76.945135</ele>
        <time>2020-08-08T10:03:49.445Z</time>
      </trkpt>
      <trkpt lat="63.58737" lon="9.97317">
        <ele>77.108422</ele>
        <time>2020-08-08T10:03:53.493Z</time>
      </trkpt>
      <trkpt lat="63.58741" lon="9.97339">
        <ele>77.268347</ele>
        <time>2020-08-08T10:03:57.433Z</time>
      </trkpt>
      <trkpt lat="63.58746" lon="9.9736">
        <ele>77.428507</ele>
        <time>2020-08-08T10:04:01.479Z</time>
      </trkpt>
      <trkpt lat="63.5875" lon="9.9738">
        <ele>77.57958</ele>
        <time>2020-08-08T10:04:05.519Z</time>
      </trkpt>
      <trkpt lat="63.58755" lon="9.97402">
        <ele>77.744535</ele>
        <time>2020-08-08T10:04:09.463Z</time>
      </trkpt>
      <trkpt lat="63.5876" lon="9.97423">
        <ele>77.904694</ele>
        <time>2020-08-08T10:04:13.469Z</time>
      </trkpt>
      <trkpt lat="63.58764" lon="9.97443">
        <ele>78.051887</ele>
        <time>2020-08-08T10:04:17.493Z</time>
      </trkpt>
      <trkpt lat="63.58769" lon="9.97466">
        <ele>78.22188</ele>
        <time>2020-08-08T10:04:21.464Z</time>
      </trkpt>
      <trkpt lat="63.58775" lon="9.97489">
        <ele>78.400839</ele>
        <time>2020-08-08T10:04:25.512Z</time>
      </trkpt>
      <trkpt lat="63.5878" lon="9.97512">
        <ele>78.57554</ele>
        <time>2020-08-08T10:04:29.532Z</time>
      </trkpt>
      <trkpt lat="63.58785" lon="9.97533">
        <ele>78.738174</ele>
        <time>2020-08-08T10:04:33.478Z</time>
      </trkpt>
      <trkpt lat="63.58789" lon="9.97553">
        <ele>78.881689</ele>
        <time>2020-08-08T10:04:37.470Z</time>
      </trkpt>
      <trkpt lat="63.58793" lon="9.97573">
        <ele>79.030958</ele>
        <time>2020-08-08T10:04:41.447Z</time>
      </trkpt>
      <trkpt lat="63.58797" lon="9.97594">
        <ele>79.186774</ele>
        <time>2020-08-08T10:04:45.490Z</time>
      </trkpt>
      <trkpt lat="63.58802" lon="9.97616">
        <ele>79.34936</ele>
        <time>2020-08-08T10:04:49.497Z</time>
      </trkpt>
      <trkpt lat="63.58806" lon="9.97638">
        <ele>79.516297</ele>
        <time>2020-08-08T10:04:53.505Z</time>
      </trkpt>
      <trkpt lat="63.58811" lon="9.97658">
        <ele>79.667239</ele>
        <time>2020-08-08T10:04:57.465Z</time>
      </trkpt>
      <trkpt lat="63.58816" lon="9.97679">
        <ele>79.823053</ele>
        <time>2020-08-08T10:05:01.513Z</time>
      </trkpt>
      <trkpt lat="63.5882" lon="9.97703">
        <ele>80.110804</ele>
        <time>2020-08-08T10:05:05.482Z</time>
      </trkpt>
      <trkpt lat="63.58824" lon="9.97722">
        <ele>80.373036</ele>
        <time>2020-08-08T10:05:08.480Z</time>
      </trkpt>
      <trkpt lat="63.58828" lon="9.97741">
        <ele>80.641367</ele>
        <time>2020-08-08T10:05:11.469Z</time>
      </trkpt>
      <trkpt lat="63.58834" lon="9.97765">
        <ele>80.989646</ele>
        <time>2020-08-08T10:05:15.471Z</time>
      </trkpt>
      <trkpt lat="63.58838" lon="9.97785">
        <ele>81.276416</ele>
        <time>2020-08-08T10:05:18.458Z</time>
      </trkpt>
      <trkpt lat="63.58843" lon="9.9781">
        <ele>81.61933</ele>
        <time>2020-08-08T10:05:22.497Z</time>
      </trkpt>
      <trkpt lat="63.58846" lon="9.9783">
        <ele>81.895689</ele>
        <time>2020-08-08T10:05:25.553Z</time>
      </trkpt>
      <trkpt lat="63.5885" lon="9.97849">
        <ele>82.170743</ele>
        <time>2020-08-08T10:05:28.461Z</time>
      </trkpt>
      <trkpt lat="63.58855" lon="9.97868">
        <ele>82.441717</ele>
        <time>2020-08-08T10:05:31.490Z</time>
      </trkpt>
      <trkpt lat="63.58858" lon="9.97887">
        <ele>82.706214</ele>
        <time>2020-08-08T10:05:34.502Z</time>
      </trkpt>
      <trkpt lat="63.58862" lon="9.97906">
        <ele>82.978942</ele>
        <time>2020-08-08T10:05:37.490Z</time>
      </trkpt>
      <trkpt lat="63.58866" lon="9.97926">
        <ele>83.254029</ele>
        <time>2020-08-08T10:05:40.458Z</time>
      </trkpt>
      <trkpt lat="63.58871" lon="9.97946">
        <ele>83.544893</ele>
        <time>2020-08-08T10:05:43.471Z</time>
      </trkpt>
      <trkpt lat="63.58876" lon="9.97967">
        <ele>83.85227</ele>
        <time>2020-08-08T10:05:46.485Z</time>
      </trkpt>
      <trkpt lat="63.58881" lon="9.97988">
        <ele>84.165502</ele>
        <time>2020-08-08T10:05:49.443Z</time>
      </trkpt>
      <trkpt lat="63.58886" lon="9.98008">
        <ele>84.45184</ele>
        <time>2020-08-08T10:05:52.476Z</time>
      </trkpt>
      <trkpt lat="63.58891" lon="9.98028">
        <ele>84.748237</ele>
        <time>2020-08-08T10:05:55.442Z</time>
      </trkpt>
      <trkpt lat="63.58897" lon="9.9805">
        <ele>85.053096</ele>
        <time>2020-08-08T10:05:58.453Z</time>
      </trkpt>
      <trkpt lat="63.58902" lon="9.98071">
        <ele>84.671551</ele>
        <time>2020-08-08T10:06:01.477Z</time>
      </trkpt>
      <trkpt lat="63.58909" lon="9.98092">
        <ele>84.28312</ele>
        <time>2020-08-08T10:06:04.495Z</time>
      </trkpt>
      <trkpt lat="63.58917" lon="9.98113">
        <ele>83.868405</ele>
        <time>2020-08-08T10:06:07.476Z</time>
      </trkpt>
      <trkpt lat="63.58925" lon="9.98133">
        <ele>83.450306</ele>
        <time>2020-08-08T10:06:10.450Z</time>
      </trkpt>
      <trkpt lat="63.58934" lon="9.98151">
        <ele>83.020299</ele>
        <time>2020-08-08T10:06:13.440Z</time>
      </trkpt>
      <trkpt lat="63.58945" lon="9.9817">
        <ele>82.562425</ele>
        <time>2020-08-08T10:06:16.439Z</time>
      </trkpt>
      <trkpt lat="63.58952" lon="9.98182">
        <ele>82.239749</ele>
        <time>2020-08-08T10:06:18.463Z</time>
      </trkpt>
      <trkpt lat="63.5896" lon="9.98195">
        <ele>81.9143</ele>
        <time>2020-08-08T10:06:20.459Z</time>
      </trkpt>
      <trkpt lat="63.58967" lon="9.98208">
        <ele>81.596221</ele>
        <time>2020-08-08T10:06:22.465Z</time>
      </trkpt>
      <trkpt lat="63.58976" lon="9.98227">
        <ele>81.164167</ele>
        <time>2020-08-08T10:06:25.458Z</time>
      </trkpt>
      <trkpt lat="63.58985" lon="9.98243">
        <ele>80.779134</ele>
        <time>2020-08-08T10:06:28.476Z</time>
      </trkpt>
      <trkpt lat="63.58993" lon="9.98258">
        <ele>80.411883</ele>
        <time>2020-08-08T10:06:31.467Z</time>
      </trkpt>
      <trkpt lat="63.59003" lon="9.98275">
        <ele>79.975203</ele>
        <time>2020-08-08T10:06:34.491Z</time>
      </trkpt>
      <trkpt lat="63.59011" lon="9.98287">
        <ele>79.645761</ele>
        <time>2020-08-08T10:06:36.463Z</time>
      </trkpt>
      <trkpt lat="63.5902" lon="9.98301">
        <ele>79.272034</ele>
        <time>2020-08-08T10:06:38.464Z</time>
      </trkpt>
      <trkpt lat="63.5903" lon="9.98314">
        <ele>78.885525</ele>
        <time>2020-08-08T10:06:40.472Z</time>
      </trkpt>
      <trkpt lat="63.5904" lon="9.98329">
        <ele>78.216644</ele>
        <time>2020-08-08T10:06:42.469Z</time>
      </trkpt>
      <trkpt lat="63.59052" lon="9.98344">
        <ele>77.459332</ele>
        <time>2020-08-08T10:06:44.453Z</time>
      </trkpt>
      <trkpt lat="63.59065" lon="9.9836">
        <ele>76.660143</ele>
        <time>2020-08-08T10:06:46.452Z</time>
      </trkpt>
      <trkpt lat="63.59078" lon="9.98376">
        <ele>75.822225</ele>
        <time>2020-08-08T10:06:48.451Z</time>
      </trkpt>
      <trkpt lat="63.59091" lon="9.98392">
        <ele>74.978006</ele>
        <time>2020-08-08T10:06:50.492Z</time>
      </trkpt>
      <trkpt lat="63.59105" lon="9.98408">
        <ele>74.104211</ele>
        <time>2020-08-08T10:06:52.470Z</time>
      </trkpt>
      <trkpt lat="63.5912" lon="9.98425">
        <ele>73.185811</ele>
        <time>2020-08-08T10:06:54.478Z</time>
      </trkpt>
      <trkpt lat="63.59135" lon="9.98441">
        <ele>72.271811</ele>
        <time>2020-08-08T10:06:56.450Z</time>
      </trkpt>
      <trkpt lat="63.5915" lon="9.98458">
        <ele>71.34351</ele>
        <time>2020-08-08T10:06:58.489Z</time>
      </trkpt>
      <trkpt lat="63.59165" lon="9.98474">
        <ele>70.406698</ele>
        <time>2020-08-08T10:07:00.480Z</time>
      </trkpt>
      <trkpt lat="63.59181" lon="9.98491">
        <ele>69.458812</ele>
        <time>2020-08-08T10:07:02.477Z</time>
      </trkpt>
      <trkpt lat="63.59196" lon="9.98508">
        <ele>68.515268</ele>
        <time>2020-08-08T10:07:04.496Z</time>
      </trkpt>
      <trkpt lat="63.59204" lon="9.98517">
        <ele>68.030089</ele>
        <time>2020-08-08T10:07:05.501Z</time>
      </trkpt>
      <trkpt lat="63.59213" lon="9.98526">
        <ele>67.539066</ele>
        <time>2020-08-08T10:07:06.448Z</time>
      </trkpt>
      <trkpt lat="63.59221" lon="9.98536">
        <ele>67.035281</ele>
        <time>2020-08-08T10:07:07.529Z</time>
      </trkpt>
      <trkpt lat="63.59229" lon="9.98546">
        <ele>66.536257</ele>
        <time>2020-08-08T10:07:08.445Z</time>
      </trkpt>
      <trkpt lat="63.59238" lon="9.98555">
        <ele>66.032472</ele>
        <time>2020-08-08T10:07:09.452Z</time>
      </trkpt>
      <trkpt lat="63.59246" lon="9.98565">
        <ele>65.520186</ele>
        <time>2020-08-08T10:07:10.485Z</time>
      </trkpt>
      <trkpt lat="63.59255" lon="9.98575">
        <ele>65.004715</ele>
        <time>2020-08-08T10:07:11.461Z</time>
      </trkpt>
      <trkpt lat="63.59263" lon="9.98584">
        <ele>64.492918</ele>
        <time>2020-08-08T10:07:12.440Z</time>
      </trkpt>
      <trkpt lat="63.59272" lon="9.98594">
        <ele>63.980633</ele>
        <time>2020-08-08T10:07:13.461Z</time>
      </trkpt>
      <trkpt lat="63.59281" lon="9.98604">
        <ele>63.459319</ele>
        <time>2020-08-08T10:07:14.435Z</time>
      </trkpt>
      <trkpt lat="63.59289" lon="9.98614">
        <ele>62.938005</ele>
        <time>2020-08-08T10:07:15.470Z</time>
      </trkpt>
      <trkpt lat="63.59298" lon="9.98624">
        <ele>62.411916</ele>
        <time>2020-08-08T10:07:16.450Z</time>
      </trkpt>
      <trkpt lat="63.59307" lon="9.98634">
        <ele>61.882597</ele>
        <time>2020-08-08T10:07:17.459Z</time>
      </trkpt>
      <trkpt lat="63.59316" lon="9.98644">
        <ele>61.350663</ele>
        <time>2020-08-08T10:07:18.480Z</time>
      </trkpt>
      <trkpt lat="63.59325" lon="9.98654">
        <ele>60.812201</ele>
        <time>2020-08-08T10:07:19.470Z</time>
      </trkpt>
      <trkpt lat="63.59334" lon="9.98666">
        <ele>60.258698</ele>
        <time>2020-08-08T10:07:20.526Z</time>
      </trkpt>
      <trkpt lat="63.59343" lon="9.98677">
        <ele>59.705252</ele>
        <time>2020-08-08T10:07:21.478Z</time>
      </trkpt>
      <trkpt lat="63.59352" lon="9.98689">
        <ele>59.162385</ele>
        <time>2020-08-08T10:07:22.461Z</time>
      </trkpt>
      <trkpt lat="63.59361" lon="9.98701">
        <ele>58.686515</ele>
        <time>2020-08-08T10:07:23.477Z</time>
      </trkpt>
      <trkpt lat="63.59371" lon="9.98714">
        <ele>58.211435</ele>
        <time>2020-08-08T10:07:24.466Z</time>
      </trkpt>
      <trkpt lat="63.5938" lon="9.98726">
        <ele>57.738376</ele>
        <time>2020-08-08T10:07:25.457Z</time>
      </trkpt>
      <trkpt lat="63.59389" lon="9.98738">
        <ele>57.269111</ele>
        <time>2020-08-08T10:07:26.454Z</time>
      </trkpt>
      <trkpt lat="63.59398" lon="9.98751">
        <ele>56.801575</ele>
        <time>2020-08-08T10:07:27.501Z</time>
      </trkpt>
      <trkpt lat="63.59407" lon="9.98764">
        <ele>56.339424</ele>
        <time>2020-08-08T10:07:28.457Z</time>
      </trkpt>
      <trkpt lat="63.59415" lon="9.98776">
        <ele>55.878836</ele>
        <time>2020-08-08T10:07:29.447Z</time>
      </trkpt>
      <trkpt lat="63.59424" lon="9.98789">
        <ele>55.425601</ele>
        <time>2020-08-08T10:07:30.468Z</time>
      </trkpt>
      <trkpt lat="63.59432" lon="9.98802">
        <ele>54.982164</ele>
        <time>2020-08-08T10:07:31.461Z</time>
      </trkpt>
      <trkpt lat="63.5944" lon="9.98816">
        <ele>54.542429</ele>
        <time>2020-08-08T10:07:32.501Z</time>
      </trkpt>
      <trkpt lat="63.59448" lon="9.98829">
        <ele>54.113298</ele>
        <time>2020-08-08T10:07:33.441Z</time>
      </trkpt>
      <trkpt lat="63.59455" lon="9.98842">
        <ele>53.690081</ele>
        <time>2020-08-08T10:07:34.462Z</time>
      </trkpt>
      <trkpt lat="63.59463" lon="9.98855">
        <ele>53.276251</ele>
        <time>2020-08-08T10:07:35.482Z</time>
      </trkpt>
      <trkpt lat="63.5947" lon="9.98868">
        <ele>52.86937</ele>
        <time>2020-08-08T10:07:36.470Z</time>
      </trkpt>
      <trkpt lat="63.59477" lon="9.98881">
        <ele>52.463712</ele>
        <time>2020-08-08T10:07:37.496Z</time>
      </trkpt>
      <trkpt lat="63.59484" lon="9.98893">
        <ele>52.064951</ele>
        <time>2020-08-08T10:07:38.471Z</time>
      </trkpt>
      <trkpt lat="63.59498" lon="9.9892">
        <ele>51.309045</ele>
        <time>2020-08-08T10:07:40.453Z</time>
      </trkpt>
      <trkpt lat="63.59511" lon="9.98945">
        <ele>50.927749</ele>
        <time>2020-08-08T10:07:42.464Z</time>
      </trkpt>
      <trkpt lat="63.59523" lon="9.98971">
        <ele>50.552695</ele>
        <time>2020-08-08T10:07:44.469Z</time>
      </trkpt>
      <trkpt lat="63.59535" lon="9.98997">
        <ele>50.192485</ele>
        <time>2020-08-08T10:07:46.479Z</time>
      </trkpt>
      <trkpt lat="63.59546" lon="9.99023">
        <ele>49.837152</ele>
        <time>2020-08-08T10:07:48.446Z</time>
      </trkpt>
      <trkpt lat="63.59557" lon="9.99048">
        <ele>49.492319</ele>
        <time>2020-08-08T10:07:50.472Z</time>
      </trkpt>
      <trkpt lat="63.59568" lon="9.99073">
        <ele>49.152554</ele>
        <time>2020-08-08T10:07:52.491Z</time>
      </trkpt>
      <trkpt lat="63.59577" lon="9.99098">
        <ele>48.822587</ele>
        <time>2020-08-08T10:07:54.493Z</time>
      </trkpt>
      <trkpt lat="63.59587" lon="9.99122">
        <ele>48.497642</ele>
        <time>2020-08-08T10:07:56.467Z</time>
      </trkpt>
      <trkpt lat="63.59597" lon="9.99147">
        <ele>48.182905</ele>
        <time>2020-08-08T10:07:58.471Z</time>
      </trkpt>
      <trkpt lat="63.59603" lon="9.99175">
        <ele>47.870213</ele>
        <time>2020-08-08T10:08:00.469Z</time>
      </trkpt>
      <trkpt lat="63.59609" lon="9.99204">
        <ele>47.559773</ele>
        <time>2020-08-08T10:08:02.472Z</time>
      </trkpt>
      <trkpt lat="63.59617" lon="9.99229">
        <ele>47.326668</ele>
        <time>2020-08-08T10:08:04.442Z</time>
      </trkpt>
      <trkpt lat="63.59625" lon="9.99253">
        <ele>47.209992</ele>
        <time>2020-08-08T10:08:06.489Z</time>
      </trkpt>
      <trkpt lat="63.59634" lon="9.99275">
        <ele>47.091572</ele>
        <time>2020-08-08T10:08:08.470Z</time>
      </trkpt>
      <trkpt lat="63.59643" lon="9.99297">
        <ele>46.975192</ele>
        <time>2020-08-08T10:08:10.447Z</time>
      </trkpt>
      <trkpt lat="63.59652" lon="9.99321">
        <ele>46.854725</ele>
        <time>2020-08-08T10:08:12.478Z</time>
      </trkpt>
      <trkpt lat="63.59661" lon="9.99345">
        <ele>46.731634</ele>
        <time>2020-08-08T10:08:14.473Z</time>
      </trkpt>
      <trkpt lat="63.5967" lon="9.99368">
        <ele>46.609424</ele>
        <time>2020-08-08T10:08:16.477Z</time>
      </trkpt>
      <trkpt lat="63.59679" lon="9.9939">
        <ele>46.489489</ele>
        <time>2020-08-08T10:08:18.455Z</time>
      </trkpt>
      <trkpt lat="63.59688" lon="9.99413">
        <ele>46.371637</ele>
        <time>2020-08-08T10:08:20.473Z</time>
      </trkpt>
      <trkpt lat="63.59697" lon="9.99433">
        <ele>46.261676</ele>
        <time>2020-08-08T10:08:22.463Z</time>
      </trkpt>
      <trkpt lat="63.59705" lon="9.99454">
        <ele>46.154038</ele>
        <time>2020-08-08T10:08:24.496Z</time>
      </trkpt>
      <trkpt lat="63.59712" lon="9.99473">
        <ele>46.054287</ele>
        <time>2020-08-08T10:08:26.503Z</time>
      </trkpt>
      <trkpt lat="63.59719" lon="9.99491">
        <ele>45.962704</ele>
        <time>2020-08-08T10:08:28.460Z</time>
      </trkpt>
      <trkpt lat="63.59726" lon="9.99508">
        <ele>45.874599</ele>
        <time>2020-08-08T10:08:30.457Z</time>
      </trkpt>
      <trkpt lat="63.59732" lon="9.99525">
        <ele>45.790282</ele>
        <time>2020-08-08T10:08:32.467Z</time>
      </trkpt>
      <trkpt lat="63.59741" lon="9.99545">
        <ele>46.63271</ele>
        <time>2020-08-08T10:08:35.473Z</time>
      </trkpt>
      <trkpt lat="63.59748" lon="9.99565">
        <ele>47.400482</ele>
        <time>2020-08-08T10:08:38.442Z</time>
      </trkpt>
      <trkpt lat="63.59754" lon="9.99583">
        <ele>48.087185</ele>
        <time>2020-08-08T10:08:41.510Z</time>
      </trkpt>
      <trkpt lat="63.59759" lon="9.99599">
        <ele>48.701582</ele>
        <time>2020-08-08T10:08:44.470Z</time>
      </trkpt>
      <trkpt lat="63.59767" lon="9.99618">
        <ele>49.461699</ele>
        <time>2020-08-08T10:08:48.468Z</time>
      </trkpt>
      <trkpt lat="63.59773" lon="9.99636">
        <ele>50.121564</ele>
        <time>2020-08-08T10:08:52.458Z</time>
      </trkpt>
      <trkpt lat="63.59779" lon="9.99655">
        <ele>50.842306</ele>
        <time>2020-08-08T10:08:56.479Z</time>
      </trkpt>
      <trkpt lat="63.59786" lon="9.99676">
        <ele>51.648717</ele>
        <time>2020-08-08T10:09:00.461Z</time>
      </trkpt>
      <trkpt lat="63.59792" lon="9.99693">
        <ele>52.265559</ele>
        <time>2020-08-08T10:09:03.466Z</time>
      </trkpt>
      <trkpt lat="63.59798" lon="9.99708">
        <ele>52.888136</ele>
        <time>2020-08-08T10:09:06.465Z</time>
      </trkpt>
      <trkpt lat="63.59804" lon="9.99724">
        <ele>53.524381</ele>
        <time>2020-08-08T10:09:09.455Z</time>
      </trkpt>
      <trkpt lat="63.59811" lon="9.99739">
        <ele>54.172546</ele>
        <time>2020-08-08T10:09:12.501Z</time>
      </trkpt>
      <trkpt lat="63.59817" lon="9.99753">
        <ele>54.797488</ele>
        <time>2020-08-08T10:09:15.458Z</time>
      </trkpt>
      <trkpt lat="63.59824" lon="9.99767">
        <ele>55.415424</ele>
        <time>2020-08-08T10:09:18.468Z</time>
      </trkpt>
      <trkpt lat="63.59831" lon="9.9978">
        <ele>56.049378</ele>
        <time>2020-08-08T10:09:21.491Z</time>
      </trkpt>
      <trkpt lat="63.59838" lon="9.99795">
        <ele>56.68929</ele>
        <time>2020-08-08T10:09:24.453Z</time>
      </trkpt>
      <trkpt lat="63.59846" lon="9.99809">
        <ele>57.354249</ele>
        <time>2020-08-08T10:09:27.497Z</time>
      </trkpt>
      <trkpt lat="63.59854" lon="9.99822">
        <ele>57.99325</ele>
        <time>2020-08-08T10:09:30.450Z</time>
      </trkpt>
      <trkpt lat="63.59861" lon="9.99833">
        <ele>57.914047</ele>
        <time>2020-08-08T10:09:33.483Z</time>
      </trkpt>
      <trkpt lat="63.59869" lon="9.99847">
        <ele>57.827239</ele>
        <time>2020-08-08T10:09:36.471Z</time>
      </trkpt>
      <trkpt lat="63.59877" lon="9.99861">
        <ele>57.737409</ele>
        <time>2020-08-08T10:09:39.452Z</time>
      </trkpt>
      <trkpt lat="63.59885" lon="9.99874">
        <ele>57.652679</ele>
        <time>2020-08-08T10:09:42.480Z</time>
      </trkpt>
      <trkpt lat="63.59893" lon="9.99886">
        <ele>57.570495</ele>
        <time>2020-08-08T10:09:45.461Z</time>
      </trkpt>
      <trkpt lat="63.59901" lon="9.99899">
        <ele>57.483179</ele>
        <time>2020-08-08T10:09:48.460Z</time>
      </trkpt>
      <trkpt lat="63.59909" lon="9.99911">
        <ele>57.402891</ele>
        <time>2020-08-08T10:09:51.485Z</time>
      </trkpt>
      <trkpt lat="63.59916" lon="9.99924">
        <ele>57.32072</ele>
        <time>2020-08-08T10:09:54.466Z</time>
      </trkpt>
      <trkpt lat="63.59924" lon="9.99937">
        <ele>57.235536</ele>
        <time>2020-08-08T10:09:57.466Z</time>
      </trkpt>
      <trkpt lat="63.59932" lon="9.9995">
        <ele>57.147998</ele>
        <time>2020-08-08T10:10:00.496Z</time>
      </trkpt>
      <trkpt lat="63.5994" lon="9.99962">
        <ele>57.06794</ele>
        <time>2020-08-08T10:10:03.491Z</time>
      </trkpt>
      <trkpt lat="63.59947" lon="9.99975">
        <ele>56.988584</ele>
        <time>2020-08-08T10:10:06.503Z</time>
      </trkpt>
      <trkpt lat="63.59955" lon="9.99985">
        <ele>56.909295</ele>
        <time>2020-08-08T10:10:09.460Z</time>
      </trkpt>
      <trkpt lat="63.59963" lon="9.99995">
        <ele>56.826381</ele>
        <time>2020-08-08T10:10:12.477Z</time>
      </trkpt>
      <trkpt lat="63.5997" lon="10.00008">
        <ele>56.74516</ele>
        <time>2020-08-08T10:10:15.446Z</time>
      </trkpt>
      <trkpt lat="63.59981" lon="10.00021">
        <ele>56.642669</ele>
        <time>2020-08-08T10:10:19.454Z</time>
      </trkpt>
      <trkpt lat="63.5999" lon="10.00032">
        <ele>56.546629</ele>
        <time>2020-08-08T10:10:23.476Z</time>
      </trkpt>
      <trkpt lat="63.6" lon="10.00045">
        <ele>56.450949</ele>
        <time>2020-08-08T10:10:27.498Z</time>
      </trkpt>
      <trkpt lat="63.60008" lon="10.00057">
        <ele>56.782869</ele>
        <time>2020-08-08T10:10:31.464Z</time>
      </trkpt>
      <trkpt lat="63.60018" lon="10.00068">
        <ele>57.323204</ele>
        <time>2020-08-08T10:10:36.480Z</time>
      </trkpt>
      <trkpt lat="63.60025" lon="10.00082">
        <ele>57.773776</ele>
        <time>2020-08-08T10:10:40.457Z</time>
      </trkpt>
      <trkpt lat="63.60032" lon="10.00095">
        <ele>58.228825</ele>
        <time>2020-08-08T10:10:44.487Z</time>
      </trkpt>
      <trkpt lat="63.60041" lon="10.00105">
        <ele>58.726113</ele>
        <time>2020-08-08T10:10:49.465Z</time>
      </trkpt>
      <trkpt lat="63.6005" lon="10.00116">
        <ele>59.241512</ele>
        <time>2020-08-08T10:10:54.457Z</time>
      </trkpt>
      <trkpt lat="63.60058" lon="10.00127">
        <ele>59.729886</ele>
        <time>2020-08-08T10:10:59.446Z</time>
      </trkpt>
      <trkpt lat="63.60066" lon="10.00141">
        <ele>60.221821</ele>
        <time>2020-08-08T10:11:04.449Z</time>
      </trkpt>
      <trkpt lat="63.60075" lon="10.00153">
        <ele>60.725961</ele>
        <time>2020-08-08T10:11:09.495Z</time>
      </trkpt>
      <trkpt lat="63.60083" lon="10.00166">
        <ele>61.23914</ele>
        <time>2020-08-08T10:11:14.457Z</time>
      </trkpt>
      <trkpt lat="63.60091" lon="10.00179">
        <ele>61.703295</ele>
        <time>2020-08-08T10:11:19.444Z</time>
      </trkpt>
      <trkpt lat="63.60098" lon="10.00194">
        <ele>62.183272</ele>
        <time>2020-08-08T10:11:24.469Z</time>
      </trkpt>
      <trkpt lat="63.60106" lon="10.00208">
        <ele>62.688847</ele>
        <time>2020-08-08T10:11:29.458Z</time>
      </trkpt>
      <trkpt lat="63.60114" lon="10.00223">
        <ele>63.212523</ele>
        <time>2020-08-08T10:11:34.469Z</time>
      </trkpt>
      <trkpt lat="63.60123" lon="10.00239">
        <ele>63.769233</ele>
        <time>2020-08-08T10:11:39.466Z</time>
      </trkpt>
      <trkpt lat="63.60129" lon="10.00254">
        <ele>64.234857</ele>
        <time>2020-08-08T10:11:43.490Z</time>
      </trkpt>
      <trkpt lat="63.60137" lon="10.00271">
        <ele>64.747669</ele>
        <time>2020-08-08T10:11:47.445Z</time>
      </trkpt>
      <trkpt lat="63.60143" lon="10.00286">
        <ele>65.202386</ele>
        <time>2020-08-08T10:11:51.444Z</time>
      </trkpt>
      <trkpt lat="63.6015" lon="10.00302">
        <ele>65.417965</ele>
        <time>2020-08-08T10:11:55.513Z</time>
      </trkpt>
      <trkpt lat="63.60156" lon="10.00318">
        <ele>65.51727</ele>
        <time>2020-08-08T10:11:59.450Z</time>
      </trkpt>
      <trkpt lat="63.60163" lon="10.00335">
        <ele>65.618591</ele>
        <time>2020-08-08T10:12:03.458Z</time>
      </trkpt>
      <trkpt lat="63.60171" lon="10.00353">
        <ele>65.728939</ele>
        <time>2020-08-08T10:12:07.462Z</time>
      </trkpt>
      <trkpt lat="63.60177" lon="10.00372">
        <ele>65.834369</ele>
        <time>2020-08-08T10:12:11.450Z</time>
      </trkpt>
      <trkpt lat="63.60184" lon="10.00389">
        <ele>65.935686</ele>
        <time>2020-08-08T10:12:15.438Z</time>
      </trkpt>
      <trkpt lat="63.6019" lon="10.00407">
        <ele>66.040485</ele>
        <time>2020-08-08T10:12:19.452Z</time>
      </trkpt>
      <trkpt lat="63.60197" lon="10.00424">
        <ele>66.146837</ele>
        <time>2020-08-08T10:12:23.491Z</time>
      </trkpt>
      <trkpt lat="63.60205" lon="10.00443">
        <ele>66.256861</ele>
        <time>2020-08-08T10:12:27.478Z</time>
      </trkpt>
      <trkpt lat="63.60212" lon="10.00463">
        <ele>66.370745</ele>
        <time>2020-08-08T10:12:31.474Z</time>
      </trkpt>
      <trkpt lat="63.60219" lon="10.00483">
        <ele>66.484801</ele>
        <time>2020-08-08T10:12:35.469Z</time>
      </trkpt>
      <trkpt lat="63.60225" lon="10.00502">
        <ele>66.590384</ele>
        <time>2020-08-08T10:12:39.459Z</time>
      </trkpt>
      <trkpt lat="63.60231" lon="10.00521">
        <ele>66.695833</ele>
        <time>2020-08-08T10:12:43.469Z</time>
      </trkpt>
      <trkpt lat="63.60238" lon="10.0054">
        <ele>66.804963</ele>
        <time>2020-08-08T10:12:47.452Z</time>
      </trkpt>
      <trkpt lat="63.60245" lon="10.00559">
        <ele>66.918313</ele>
        <time>2020-08-08T10:12:51.455Z</time>
      </trkpt>
      <trkpt lat="63.60253" lon="10.00579">
        <ele>67.032067</ele>
        <time>2020-08-08T10:12:55.480Z</time>
      </trkpt>
      <trkpt lat="63.6026" lon="10.00598">
        <ele>67.149762</ele>
        <time>2020-08-08T10:12:59.447Z</time>
      </trkpt>
      <trkpt lat="63.60268" lon="10.00617">
        <ele>67.345586</ele>
        <time>2020-08-08T10:13:03.474Z</time>
      </trkpt>
      <trkpt lat="63.60276" lon="10.00635">
        <ele>67.544489</ele>
        <time>2020-08-08T10:13:07.454Z</time>
      </trkpt>
      <trkpt lat="63.60284" lon="10.00654">
        <ele>67.7351</ele>
        <time>2020-08-08T10:13:11.483Z</time>
      </trkpt>
      <trkpt lat="63.60291" lon="10.00673">
        <ele>67.932053</ele>
        <time>2020-08-08T10:13:15.467Z</time>
      </trkpt>
      <trkpt lat="63.60299" lon="10.00692">
        <ele>68.130194</ele>
        <time>2020-08-08T10:13:19.484Z</time>
      </trkpt>
      <trkpt lat="63.60305" lon="10.00708">
        <ele>68.292502</ele>
        <time>2020-08-08T10:13:22.476Z</time>
      </trkpt>
      <trkpt lat="63.60313" lon="10.00727">
        <ele>68.491766</ele>
        <time>2020-08-08T10:13:26.453Z</time>
      </trkpt>
      <trkpt lat="63.6032" lon="10.00745">
        <ele>68.680175</ele>
        <time>2020-08-08T10:13:30.451Z</time>
      </trkpt>
      <trkpt lat="63.60326" lon="10.00763">
        <ele>68.860382</ele>
        <time>2020-08-08T10:13:34.450Z</time>
      </trkpt>
      <trkpt lat="63.60333" lon="10.00781">
        <ele>69.040803</ele>
        <time>2020-08-08T10:13:38.458Z</time>
      </trkpt>
      <trkpt lat="63.6034" lon="10.00801">
        <ele>69.235516</ele>
        <time>2020-08-08T10:13:42.449Z</time>
      </trkpt>
      <trkpt lat="63.60348" lon="10.0082">
        <ele>69.43593</ele>
        <time>2020-08-08T10:13:46.454Z</time>
      </trkpt>
      <trkpt lat="63.60355" lon="10.00839">
        <ele>69.635766</ele>
        <time>2020-08-08T10:13:50.459Z</time>
      </trkpt>
      <trkpt lat="63.60362" lon="10.00859">
        <ele>69.824124</ele>
        <time>2020-08-08T10:13:54.491Z</time>
      </trkpt>
      <trkpt lat="63.6037" lon="10.00879">
        <ele>70.028592</ele>
        <time>2020-08-08T10:13:58.443Z</time>
      </trkpt>
      <trkpt lat="63.60377" lon="10.00896">
        <ele>70.22188</ele>
        <time>2020-08-08T10:14:02.443Z</time>
      </trkpt>
      <trkpt lat="63.60385" lon="10.00917">
        <ele>70.647453</ele>
        <time>2020-08-08T10:14:06.459Z</time>
      </trkpt>
      <trkpt lat="63.60392" lon="10.00937">
        <ele>71.153286</ele>
        <time>2020-08-08T10:14:10.461Z</time>
      </trkpt>
      <trkpt lat="63.60399" lon="10.00953">
        <ele>71.583304</ele>
        <time>2020-08-08T10:14:13.472Z</time>
      </trkpt>
      <trkpt lat="63.60405" lon="10.00969">
        <ele>71.996992</ele>
        <time>2020-08-08T10:14:16.469Z</time>
      </trkpt>
      <trkpt lat="63.60411" lon="10.00983">
        <ele>72.393306</ele>
        <time>2020-08-08T10:14:19.519Z</time>
      </trkpt>
      <trkpt lat="63.60419" lon="10.01003">
        <ele>72.906772</ele>
        <time>2020-08-08T10:14:23.482Z</time>
      </trkpt>
      <trkpt lat="63.60427" lon="10.01023">
        <ele>73.426051</ele>
        <time>2020-08-08T10:14:27.467Z</time>
      </trkpt>
      <trkpt lat="63.60434" lon="10.01043">
        <ele>73.933988</ele>
        <time>2020-08-08T10:14:31.478Z</time>
      </trkpt>
      <trkpt lat="63.60441" lon="10.01061">
        <ele>74.406325</ele>
        <time>2020-08-08T10:14:35.485Z</time>
      </trkpt>
      <trkpt lat="63.60448" lon="10.0108">
        <ele>74.894806</ele>
        <time>2020-08-08T10:14:39.470Z</time>
      </trkpt>
      <trkpt lat="63.60456" lon="10.01098">
        <ele>75.38654</ele>
        <time>2020-08-08T10:14:43.484Z</time>
      </trkpt>
      <trkpt lat="63.60463" lon="10.01115">
        <ele>75.842744</ele>
        <time>2020-08-08T10:14:47.442Z</time>
      </trkpt>
      <trkpt lat="63.60469" lon="10.01131">
        <ele>76.266731</ele>
        <time>2020-08-08T10:14:51.478Z</time>
      </trkpt>
      <trkpt lat="63.60476" lon="10.01148">
        <ele>76.706795</ele>
        <time>2020-08-08T10:14:55.473Z</time>
      </trkpt>
      <trkpt lat="63.60482" lon="10.01163">
        <ele>77.11312</ele>
        <time>2020-08-08T10:14:59.494Z</time>
      </trkpt>
      <trkpt lat="63.60489" lon="10.01182">
        <ele>77.589964</ele>
        <time>2020-08-08T10:15:04.489Z</time>
      </trkpt>
      <trkpt lat="63.60496" lon="10.01199">
        <ele>78.041798</ele>
        <time>2020-08-08T10:15:09.463Z</time>
      </trkpt>
      <trkpt lat="63.60502" lon="10.01217">
        <ele>78.442809</ele>
        <time>2020-08-08T10:15:14.524Z</time>
      </trkpt>
      <trkpt lat="63.60508" lon="10.01235">
        <ele>78.809665</ele>
        <time>2020-08-08T10:15:20.481Z</time>
      </trkpt>
      <trkpt lat="63.60514" lon="10.01251">
        <ele>79.136231</ele>
        <time>2020-08-08T10:15:25.506Z</time>
      </trkpt>
      <trkpt lat="63.60521" lon="10.0127">
        <ele>79.511582</ele>
        <time>2020-08-08T10:15:31.456Z</time>
      </trkpt>
      <trkpt lat="63.60528" lon="10.01287">
        <ele>79.890579</ele>
        <time>2020-08-08T10:15:37.475Z</time>
      </trkpt>
      <trkpt lat="63.60535" lon="10.01305">
        <ele>80.268187</ele>
        <time>2020-08-08T10:15:43.461Z</time>
      </trkpt>
      <trkpt lat="63.60541" lon="10.0132">
        <ele>80.589002</ele>
        <time>2020-08-08T10:15:48.504Z</time>
      </trkpt>
      <trkpt lat="63.60548" lon="10.01336">
        <ele>80.938137</ele>
        <time>2020-08-08T10:15:53.475Z</time>
      </trkpt>
      <trkpt lat="63.60554" lon="10.01352">
        <ele>81.278994</ele>
        <time>2020-08-08T10:15:59.457Z</time>
      </trkpt>
      <trkpt lat="63.60561" lon="10.01368">
        <ele>81.635958</ele>
        <time>2020-08-08T10:16:05.508Z</time>
      </trkpt>
      <trkpt lat="63.60568" lon="10.01387">
        <ele>82.019551</ele>
        <time>2020-08-08T10:16:11.475Z</time>
      </trkpt>
      <trkpt lat="63.60574" lon="10.01403">
        <ele>82.361544</ele>
        <time>2020-08-08T10:16:16.441Z</time>
      </trkpt>
      <trkpt lat="63.60581" lon="10.01419">
        <ele>82.731421</ele>
        <time>2020-08-08T10:16:21.459Z</time>
      </trkpt>
      <trkpt lat="63.6059" lon="10.01435">
        <ele>83.12149</ele>
        <time>2020-08-08T10:16:26.452Z</time>
      </trkpt>
      <trkpt lat="63.60596" lon="10.0145">
        <ele>83.443903</ele>
        <time>2020-08-08T10:16:30.521Z</time>
      </trkpt>
      <trkpt lat="63.60604" lon="10.01467">
        <ele>83.832466</ele>
        <time>2020-08-08T10:16:34.471Z</time>
      </trkpt>
      <trkpt lat="63.60612" lon="10.01483">
        <ele>84.21613</ele>
        <time>2020-08-08T10:16:38.473Z</time>
      </trkpt>
      <trkpt lat="63.6062" lon="10.01499">
        <ele>84.610419</ele>
        <time>2020-08-08T10:16:42.494Z</time>
      </trkpt>
      <trkpt lat="63.60629" lon="10.01516">
        <ele>84.770229</ele>
        <time>2020-08-08T10:16:46.490Z</time>
      </trkpt>
      <trkpt lat="63.60638" lon="10.01532">
        <ele>84.907232</ele>
        <time>2020-08-08T10:16:50.440Z</time>
      </trkpt>
      <trkpt lat="63.60646" lon="10.01545">
        <ele>85.012375</ele>
        <time>2020-08-08T10:16:53.452Z</time>
      </trkpt>
      <trkpt lat="63.60653" lon="10.0156">
        <ele>85.128315</ele>
        <time>2020-08-08T10:16:56.535Z</time>
      </trkpt>
      <trkpt lat="63.60661" lon="10.01576">
        <ele>85.247115</ele>
        <time>2020-08-08T10:16:59.470Z</time>
      </trkpt>
      <trkpt lat="63.60669" lon="10.01591">
        <ele>85.361859</ele>
        <time>2020-08-08T10:17:02.462Z</time>
      </trkpt>
      <trkpt lat="63.60676" lon="10.01605">
        <ele>85.47455</ele>
        <time>2020-08-08T10:17:05.486Z</time>
      </trkpt>
      <trkpt lat="63.60684" lon="10.01619">
        <ele>85.587564</ele>
        <time>2020-08-08T10:17:08.511Z</time>
      </trkpt>
      <trkpt lat="63.60691" lon="10.01632">
        <ele>85.695332</ele>
        <time>2020-08-08T10:17:11.465Z</time>
      </trkpt>
      <trkpt lat="63.60699" lon="10.01647">
        <ele>85.810563</ele>
        <time>2020-08-08T10:17:14.452Z</time>
      </trkpt>
      <trkpt lat="63.60708" lon="10.01665">
        <ele>85.943784</ele>
        <time>2020-08-08T10:17:17.475Z</time>
      </trkpt>
      <trkpt lat="63.60717" lon="10.01678">
        <ele>86.070006</ele>
        <time>2020-08-08T10:17:20.497Z</time>
      </trkpt>
      <trkpt lat="63.60725" lon="10.01693">
        <ele>86.191164</ele>
        <time>2020-08-08T10:17:23.459Z</time>
      </trkpt>
      <trkpt lat="63.60733" lon="10.01708">
        <ele>86.309827</ele>
        <time>2020-08-08T10:17:26.437Z</time>
      </trkpt>
      <trkpt lat="63.60741" lon="10.01725">
        <ele>86.435749</ele>
        <time>2020-08-08T10:17:29.501Z</time>
      </trkpt>
      <trkpt lat="63.60749" lon="10.01744">
        <ele>86.563179</ele>
        <time>2020-08-08T10:17:32.466Z</time>
      </trkpt>
      <trkpt lat="63.60758" lon="10.01761">
        <ele>86.697775</ele>
        <time>2020-08-08T10:17:35.471Z</time>
      </trkpt>
      <trkpt lat="63.60768" lon="10.01777">
        <ele>86.61555</ele>
        <time>2020-08-08T10:17:38.461Z</time>
      </trkpt>
      <trkpt lat="63.60775" lon="10.0179">
        <ele>86.546951</ele>
        <time>2020-08-08T10:17:40.479Z</time>
      </trkpt>
      <trkpt lat="63.60783" lon="10.01802">
        <ele>86.476536</ele>
        <time>2020-08-08T10:17:42.476Z</time>
      </trkpt>
      <trkpt lat="63.60793" lon="10.0182">
        <ele>86.376461</ele>
        <time>2020-08-08T10:17:45.459Z</time>
      </trkpt>
      <trkpt lat="63.608" lon="10.01834">
        <ele>86.306725</ele>
        <time>2020-08-08T10:17:47.527Z</time>
      </trkpt>
      <trkpt lat="63.6081" lon="10.01854">
        <ele>86.205676</ele>
        <time>2020-08-08T10:17:50.498Z</time>
      </trkpt>
      <trkpt lat="63.6082" lon="10.01871">
        <ele>86.112652</ele>
        <time>2020-08-08T10:17:53.456Z</time>
      </trkpt>
      <trkpt lat="63.6083" lon="10.01888">
        <ele>86.013579</ele>
        <time>2020-08-08T10:17:56.461Z</time>
      </trkpt>
      <trkpt lat="63.60841" lon="10.01905">
        <ele>85.917141</ele>
        <time>2020-08-08T10:17:59.489Z</time>
      </trkpt>
      <trkpt lat="63.6085" lon="10.01925">
        <ele>85.819515</ele>
        <time>2020-08-08T10:18:02.477Z</time>
      </trkpt>
      <trkpt lat="63.6086" lon="10.01945">
        <ele>85.720301</ele>
        <time>2020-08-08T10:18:05.454Z</time>
      </trkpt>
      <trkpt lat="63.60869" lon="10.01963">
        <ele>85.627172</ele>
        <time>2020-08-08T10:18:08.532Z</time>
      </trkpt>
      <trkpt lat="63.60878" lon="10.0198">
        <ele>85.541797</ele>
        <time>2020-08-08T10:18:11.450Z</time>
      </trkpt>
      <trkpt lat="63.60886" lon="10.01995">
        <ele>85.460189</ele>
        <time>2020-08-08T10:18:14.484Z</time>
      </trkpt>
      <trkpt lat="63.60894" lon="10.02009">
        <ele>85.383321</ele>
        <time>2020-08-08T10:18:17.516Z</time>
      </trkpt>
      <trkpt lat="63.60902" lon="10.02023">
        <ele>85.480467</ele>
        <time>2020-08-08T10:18:20.493Z</time>
      </trkpt>
      <trkpt lat="63.60909" lon="10.02037">
        <ele>85.750922</ele>
        <time>2020-08-08T10:18:23.462Z</time>
      </trkpt>
      <trkpt lat="63.60916" lon="10.02051">
        <ele>86.013457</ele>
        <time>2020-08-08T10:18:26.514Z</time>
      </trkpt>
      <trkpt lat="63.60924" lon="10.02064">
        <ele>86.280901</ele>
        <time>2020-08-08T10:18:29.474Z</time>
      </trkpt>
      <trkpt lat="63.60933" lon="10.02082">
        <ele>86.60334</ele>
        <time>2020-08-08T10:18:33.457Z</time>
      </trkpt>
      <trkpt lat="63.60942" lon="10.02098">
        <ele>86.910786</ele>
        <time>2020-08-08T10:18:37.458Z</time>
      </trkpt>
      <trkpt lat="63.6095" lon="10.02112">
        <ele>87.210537</ele>
        <time>2020-08-08T10:18:41.465Z</time>
      </trkpt>
      <trkpt lat="63.6096" lon="10.02128">
        <ele>87.533078</ele>
        <time>2020-08-08T10:18:45.482Z</time>
      </trkpt>
      <trkpt lat="63.60968" lon="10.02144">
        <ele>87.827351</ele>
        <time>2020-08-08T10:18:49.455Z</time>
      </trkpt>
      <trkpt lat="63.60976" lon="10.0216">
        <ele>88.132955</ele>
        <time>2020-08-08T10:18:53.456Z</time>
      </trkpt>
      <trkpt lat="63.60984" lon="10.02176">
        <ele>88.428664</ele>
        <time>2020-08-08T10:18:57.461Z</time>
      </trkpt>
      <trkpt lat="63.60993" lon="10.02192">
        <ele>88.727961</ele>
        <time>2020-08-08T10:19:01.461Z</time>
      </trkpt>
      <trkpt lat="63.61002" lon="10.02206">
        <ele>89.032216</ele>
        <time>2020-08-08T10:19:05.541Z</time>
      </trkpt>
      <trkpt lat="63.6101" lon="10.02221">
        <ele>89.33351</ele>
        <time>2020-08-08T10:19:09.486Z</time>
      </trkpt>
      <trkpt lat="63.61019" lon="10.02237">
        <ele>89.64445</ele>
        <time>2020-08-08T10:19:13.478Z</time>
      </trkpt>
      <trkpt lat="63.61027" lon="10.02253">
        <ele>89.93772</ele>
        <time>2020-08-08T10:19:17.489Z</time>
      </trkpt>
      <trkpt lat="63.61034" lon="10.02265">
        <ele>90.186074</ele>
        <time>2020-08-08T10:19:20.487Z</time>
      </trkpt>
      <trkpt lat="63.61042" lon="10.02278">
        <ele>90.380913</ele>
        <time>2020-08-08T10:19:23.473Z</time>
      </trkpt>
      <trkpt lat="63.61049" lon="10.02292">
        <ele>90.529185</ele>
        <time>2020-08-08T10:19:26.458Z</time>
      </trkpt>
      <trkpt lat="63.61056" lon="10.02305">
        <ele>90.670689</ele>
        <time>2020-08-08T10:19:29.472Z</time>
      </trkpt>
      <trkpt lat="63.61063" lon="10.0232">
        <ele>90.829615</ele>
        <time>2020-08-08T10:19:32.458Z</time>
      </trkpt>
      <trkpt lat="63.61071" lon="10.02337">
        <ele>90.998106</ele>
        <time>2020-08-08T10:19:35.499Z</time>
      </trkpt>
      <trkpt lat="63.6108" lon="10.02353">
        <ele>91.172183</ele>
        <time>2020-08-08T10:19:38.549Z</time>
      </trkpt>
      <trkpt lat="63.61089" lon="10.02369">
        <ele>91.353925</ele>
        <time>2020-08-08T10:19:41.455Z</time>
      </trkpt>
      <trkpt lat="63.61098" lon="10.02386">
        <ele>91.530083</ele>
        <time>2020-08-08T10:19:44.461Z</time>
      </trkpt>
      <trkpt lat="63.61106" lon="10.02401">
        <ele>91.699117</ele>
        <time>2020-08-08T10:19:47.469Z</time>
      </trkpt>
      <trkpt lat="63.61115" lon="10.02416">
        <ele>91.864699</ele>
        <time>2020-08-08T10:19:50.465Z</time>
      </trkpt>
      <trkpt lat="63.61122" lon="10.02432">
        <ele>92.028467</ele>
        <time>2020-08-08T10:19:53.472Z</time>
      </trkpt>
      <trkpt lat="63.6113" lon="10.02446">
        <ele>92.186555</ele>
        <time>2020-08-08T10:19:56.450Z</time>
      </trkpt>
      <trkpt lat="63.6114" lon="10.02461">
        <ele>92.36667</ele>
        <time>2020-08-08T10:19:59.466Z</time>
      </trkpt>
      <trkpt lat="63.61149" lon="10.02477">
        <ele>92.54327</ele>
        <time>2020-08-08T10:20:02.514Z</time>
      </trkpt>
      <trkpt lat="63.61157" lon="10.02494">
        <ele>92.717946</ele>
        <time>2020-08-08T10:20:05.455Z</time>
      </trkpt>
      <trkpt lat="63.61165" lon="10.0251">
        <ele>92.888655</ele>
        <time>2020-08-08T10:20:08.511Z</time>
      </trkpt>
      <trkpt lat="63.61174" lon="10.02525">
        <ele>93.05846</ele>
        <time>2020-08-08T10:20:11.446Z</time>
      </trkpt>
      <trkpt lat="63.61181" lon="10.02542">
        <ele>93.128931</ele>
        <time>2020-08-08T10:20:14.473Z</time>
      </trkpt>
      <trkpt lat="63.6119" lon="10.02559">
        <ele>93.173289</ele>
        <time>2020-08-08T10:20:17.455Z</time>
      </trkpt>
      <trkpt lat="63.612" lon="10.02577">
        <ele>93.220438</ele>
        <time>2020-08-08T10:20:20.482Z</time>
      </trkpt>
      <trkpt lat="63.6121" lon="10.02594">
        <ele>93.268279</ele>
        <time>2020-08-08T10:20:23.472Z</time>
      </trkpt>
      <trkpt lat="63.61219" lon="10.02611">
        <ele>93.313564</ele>
        <time>2020-08-08T10:20:26.458Z</time>
      </trkpt>
      <trkpt lat="63.61228" lon="10.02628">
        <ele>93.358128</ele>
        <time>2020-08-08T10:20:29.452Z</time>
      </trkpt>
      <trkpt lat="63.61237" lon="10.02645">
        <ele>93.403015</ele>
        <time>2020-08-08T10:20:32.458Z</time>
      </trkpt>
      <trkpt lat="63.61247" lon="10.02661">
        <ele>93.446842</ele>
        <time>2020-08-08T10:20:35.455Z</time>
      </trkpt>
      <trkpt lat="63.61256" lon="10.02676">
        <ele>93.489981</ele>
        <time>2020-08-08T10:20:38.482Z</time>
      </trkpt>
      <trkpt lat="63.61265" lon="10.0269">
        <ele>93.533244</ele>
        <time>2020-08-08T10:20:41.493Z</time>
      </trkpt>
      <trkpt lat="63.61274" lon="10.02707">
        <ele>93.574737</ele>
        <time>2020-08-08T10:20:44.439Z</time>
      </trkpt>
      <trkpt lat="63.61282" lon="10.02723">
        <ele>93.617973</ele>
        <time>2020-08-08T10:20:47.457Z</time>
      </trkpt>
      <trkpt lat="63.61292" lon="10.02741">
        <ele>93.664701</ele>
        <time>2020-08-08T10:20:50.469Z</time>
      </trkpt>
      <trkpt lat="63.61301" lon="10.0276">
        <ele>93.712258</ele>
        <time>2020-08-08T10:20:53.472Z</time>
      </trkpt>
      <trkpt lat="63.61311" lon="10.02779">
        <ele>93.75971</ele>
        <time>2020-08-08T10:20:56.477Z</time>
      </trkpt>
      <trkpt lat="63.6132" lon="10.02797">
        <ele>93.805472</ele>
        <time>2020-08-08T10:20:59.462Z</time>
      </trkpt>
      <trkpt lat="63.61331" lon="10.02816">
        <ele>93.852308</ele>
        <time>2020-08-08T10:21:02.480Z</time>
      </trkpt>
      <trkpt lat="63.6134" lon="10.02834">
        <ele>93.896213</ele>
        <time>2020-08-08T10:21:05.483Z</time>
      </trkpt>
      <trkpt lat="63.6135" lon="10.02852">
        <ele>93.941386</ele>
        <time>2020-08-08T10:21:08.483Z</time>
      </trkpt>
      <trkpt lat="63.6136" lon="10.02871">
        <ele>93.98629</ele>
        <time>2020-08-08T10:21:11.482Z</time>
      </trkpt>
      <trkpt lat="63.6137" lon="10.02891">
        <ele>94.03385</ele>
        <time>2020-08-08T10:21:14.485Z</time>
      </trkpt>
      <trkpt lat="63.61379" lon="10.02909">
        <ele>94.078754</ele>
        <time>2020-08-08T10:21:17.496Z</time>
      </trkpt>
      <trkpt lat="63.61389" lon="10.02927">
        <ele>94.122659</ele>
        <time>2020-08-08T10:21:20.489Z</time>
      </trkpt>
      <trkpt lat="63.61399" lon="10.02946">
        <ele>94.168506</ele>
        <time>2020-08-08T10:21:23.466Z</time>
      </trkpt>
      <trkpt lat="63.61409" lon="10.02964">
        <ele>94.214282</ele>
        <time>2020-08-08T10:21:26.479Z</time>
      </trkpt>
      <trkpt lat="63.61419" lon="10.02982">
        <ele>94.259455</ele>
        <time>2020-08-08T10:21:29.496Z</time>
      </trkpt>
      <trkpt lat="63.61429" lon="10.03001">
        <ele>94.303987</ele>
        <time>2020-08-08T10:21:32.481Z</time>
      </trkpt>
      <trkpt lat="63.61439" lon="10.03019">
        <ele>94.349977</ele>
        <time>2020-08-08T10:21:35.516Z</time>
      </trkpt>
      <trkpt lat="63.61446" lon="10.03032">
        <ele>94.383036</ele>
        <time>2020-08-08T10:21:37.493Z</time>
      </trkpt>
      <trkpt lat="63.61454" lon="10.03044">
        <ele>94.397001</ele>
        <time>2020-08-08T10:21:39.490Z</time>
      </trkpt>
      <trkpt lat="63.61461" lon="10.03058">
        <ele>94.065827</ele>
        <time>2020-08-08T10:21:41.494Z</time>
      </trkpt>
      <trkpt lat="63.61468" lon="10.03071">
        <ele>93.725402</ele>
        <time>2020-08-08T10:21:43.449Z</time>
      </trkpt>
      <trkpt lat="63.61475" lon="10.03085">
        <ele>93.379462</ele>
        <time>2020-08-08T10:21:45.486Z</time>
      </trkpt>
      <trkpt lat="63.61482" lon="10.03099">
        <ele>93.039496</ele>
        <time>2020-08-08T10:21:47.509Z</time>
      </trkpt>
      <trkpt lat="63.61489" lon="10.03113">
        <ele>92.703793</ele>
        <time>2020-08-08T10:21:49.473Z</time>
      </trkpt>
      <trkpt lat="63.61497" lon="10.03129">
        <ele>92.322669</ele>
        <time>2020-08-08T10:21:51.474Z</time>
      </trkpt>
      <trkpt lat="63.61505" lon="10.03144">
        <ele>91.938249</ele>
        <time>2020-08-08T10:21:53.496Z</time>
      </trkpt>
      <trkpt lat="63.61514" lon="10.03159">
        <ele>91.56324</ele>
        <time>2020-08-08T10:21:55.458Z</time>
      </trkpt>
      <trkpt lat="63.61522" lon="10.03174">
        <ele>91.185009</ele>
        <time>2020-08-08T10:21:57.461Z</time>
      </trkpt>
      <trkpt lat="63.61532" lon="10.0319">
        <ele>90.745783</ele>
        <time>2020-08-08T10:21:59.489Z</time>
      </trkpt>
      <trkpt lat="63.61543" lon="10.03207">
        <ele>90.260255</ele>
        <time>2020-08-08T10:22:01.504Z</time>
      </trkpt>
      <trkpt lat="63.61556" lon="10.03228">
        <ele>89.698079</ele>
        <time>2020-08-08T10:22:03.478Z</time>
      </trkpt>
      <trkpt lat="63.61569" lon="10.0325">
        <ele>89.087158</ele>
        <time>2020-08-08T10:22:05.498Z</time>
      </trkpt>
      <trkpt lat="63.61584" lon="10.03274">
        <ele>88.438011</ele>
        <time>2020-08-08T10:22:07.477Z</time>
      </trkpt>
      <trkpt lat="63.61591" lon="10.03287">
        <ele>88.094735</ele>
        <time>2020-08-08T10:22:08.452Z</time>
      </trkpt>
      <trkpt lat="63.61599" lon="10.03301">
        <ele>87.493943</ele>
        <time>2020-08-08T10:22:09.465Z</time>
      </trkpt>
      <trkpt lat="63.61607" lon="10.03315">
        <ele>86.74071</ele>
        <time>2020-08-08T10:22:10.457Z</time>
      </trkpt>
      <trkpt lat="63.61615" lon="10.03328">
        <ele>85.973193</ele>
        <time>2020-08-08T10:22:11.462Z</time>
      </trkpt>
      <trkpt lat="63.61623" lon="10.03342">
        <ele>85.187378</ele>
        <time>2020-08-08T10:22:12.450Z</time>
      </trkpt>
      <trkpt lat="63.61632" lon="10.03356">
        <ele>84.409695</ele>
        <time>2020-08-08T10:22:13.481Z</time>
      </trkpt>
      <trkpt lat="63.6164" lon="10.0337">
        <ele>83.619762</ele>
        <time>2020-08-08T10:22:14.457Z</time>
      </trkpt>
      <trkpt lat="63.61648" lon="10.03384">
        <ele>82.850234</ele>
        <time>2020-08-08T10:22:15.442Z</time>
      </trkpt>
      <trkpt lat="63.61656" lon="10.03397">
        <ele>82.080706</ele>
        <time>2020-08-08T10:22:16.458Z</time>
      </trkpt>
      <trkpt lat="63.61664" lon="10.03411">
        <ele>81.300964</ele>
        <time>2020-08-08T10:22:17.480Z</time>
      </trkpt>
      <trkpt lat="63.61672" lon="10.03425">
        <ele>80.515154</ele>
        <time>2020-08-08T10:22:18.516Z</time>
      </trkpt>
      <trkpt lat="63.6168" lon="10.03439">
        <ele>79.731391</ele>
        <time>2020-08-08T10:22:19.452Z</time>
      </trkpt>
      <trkpt lat="63.61689" lon="10.03453">
        <ele>78.939487</ele>
        <time>2020-08-08T10:22:20.438Z</time>
      </trkpt>
      <trkpt lat="63.61697" lon="10.03467">
        <ele>78.141462</ele>
        <time>2020-08-08T10:22:21.475Z</time>
      </trkpt>
      <trkpt lat="63.61706" lon="10.03481">
        <ele>77.335282</ele>
        <time>2020-08-08T10:22:22.496Z</time>
      </trkpt>
      <trkpt lat="63.61714" lon="10.03495">
        <ele>76.531111</ele>
        <time>2020-08-08T10:22:23.469Z</time>
      </trkpt>
      <trkpt lat="63.61723" lon="10.03509">
        <ele>75.72894</ele>
        <time>2020-08-08T10:22:24.474Z</time>
      </trkpt>
      <trkpt lat="63.61731" lon="10.03523">
        <ele>74.914602</ele>
        <time>2020-08-08T10:22:25.479Z</time>
      </trkpt>
      <trkpt lat="63.6174" lon="10.03538">
        <ele>74.1235</ele>
        <time>2020-08-08T10:22:26.490Z</time>
      </trkpt>
      <trkpt lat="63.61748" lon="10.03553">
        <ele>73.461689</ele>
        <time>2020-08-08T10:22:27.475Z</time>
      </trkpt>
      <trkpt lat="63.61757" lon="10.03569">
        <ele>72.762383</ele>
        <time>2020-08-08T10:22:28.453Z</time>
      </trkpt>
      <trkpt lat="63.61767" lon="10.03586">
        <ele>72.04514</ele>
        <time>2020-08-08T10:22:29.493Z</time>
      </trkpt>
      <trkpt lat="63.61776" lon="10.03602">
        <ele>71.310402</ele>
        <time>2020-08-08T10:22:30.508Z</time>
      </trkpt>
      <trkpt lat="63.61786" lon="10.03618">
        <ele>70.55778</ele>
        <time>2020-08-08T10:22:31.479Z</time>
      </trkpt>
      <trkpt lat="63.61796" lon="10.03635">
        <ele>69.805158</ele>
        <time>2020-08-08T10:22:32.466Z</time>
      </trkpt>
      <trkpt lat="63.61806" lon="10.03651">
        <ele>69.052538</ele>
        <time>2020-08-08T10:22:33.459Z</time>
      </trkpt>
      <trkpt lat="63.61816" lon="10.03667">
        <ele>68.304665</ele>
        <time>2020-08-08T10:22:34.493Z</time>
      </trkpt>
      <trkpt lat="63.61826" lon="10.03683">
        <ele>67.568243</ele>
        <time>2020-08-08T10:22:35.461Z</time>
      </trkpt>
      <trkpt lat="63.61836" lon="10.03699">
        <ele>66.836553</ele>
        <time>2020-08-08T10:22:36.483Z</time>
      </trkpt>
      <trkpt lat="63.61845" lon="10.03714">
        <ele>66.124422</ele>
        <time>2020-08-08T10:22:37.451Z</time>
      </trkpt>
      <trkpt lat="63.61854" lon="10.0373">
        <ele>65.431886</ele>
        <time>2020-08-08T10:22:38.479Z</time>
      </trkpt>
      <trkpt lat="63.61863" lon="10.03745">
        <ele>64.750679</ele>
        <time>2020-08-08T10:22:39.459Z</time>
      </trkpt>
      <trkpt lat="63.61872" lon="10.0376">
        <ele>64.093797</ele>
        <time>2020-08-08T10:22:40.471Z</time>
      </trkpt>
      <trkpt lat="63.6188" lon="10.03774">
        <ele>63.45152</ele>
        <time>2020-08-08T10:22:41.475Z</time>
      </trkpt>
      <trkpt lat="63.61889" lon="10.03788">
        <ele>63.146172</ele>
        <time>2020-08-08T10:22:42.456Z</time>
      </trkpt>
      <trkpt lat="63.61896" lon="10.03801">
        <ele>62.975691</ele>
        <time>2020-08-08T10:22:43.521Z</time>
      </trkpt>
      <trkpt lat="63.61904" lon="10.03814">
        <ele>62.810774</ele>
        <time>2020-08-08T10:22:44.460Z</time>
      </trkpt>
      <trkpt lat="63.61911" lon="10.03826">
        <ele>62.64912</ele>
        <time>2020-08-08T10:22:45.471Z</time>
      </trkpt>
      <trkpt lat="63.61919" lon="10.03839">
        <ele>62.48979</ele>
        <time>2020-08-08T10:22:46.491Z</time>
      </trkpt>
      <trkpt lat="63.61933" lon="10.03863">
        <ele>62.182278</ele>
        <time>2020-08-08T10:22:48.439Z</time>
      </trkpt>
      <trkpt lat="63.61946" lon="10.03886">
        <ele>61.885445</ele>
        <time>2020-08-08T10:22:50.509Z</time>
      </trkpt>
      <trkpt lat="63.61959" lon="10.03907">
        <ele>61.605768</ele>
        <time>2020-08-08T10:22:52.455Z</time>
      </trkpt>
      <trkpt lat="63.61972" lon="10.03928">
        <ele>61.337725</ele>
        <time>2020-08-08T10:22:54.458Z</time>
      </trkpt>
      <trkpt lat="63.61983" lon="10.03947">
        <ele>61.085493</ele>
        <time>2020-08-08T10:22:56.443Z</time>
      </trkpt>
      <trkpt lat="63.61994" lon="10.03966">
        <ele>60.848591</ele>
        <time>2020-08-08T10:22:58.455Z</time>
      </trkpt>
      <trkpt lat="63.62005" lon="10.03984">
        <ele>60.619119</ele>
        <time>2020-08-08T10:23:00.454Z</time>
      </trkpt>
      <trkpt lat="63.62015" lon="10.04">
        <ele>60.398466</ele>
        <time>2020-08-08T10:23:02.543Z</time>
      </trkpt>
      <trkpt lat="63.62025" lon="10.04016">
        <ele>60.190774</ele>
        <time>2020-08-08T10:23:04.512Z</time>
      </trkpt>
      <trkpt lat="63.62033" lon="10.04029">
        <ele>60.298957</ele>
        <time>2020-08-08T10:23:06.450Z</time>
      </trkpt>
      <trkpt lat="63.62041" lon="10.04042">
        <ele>60.502076</ele>
        <time>2020-08-08T10:23:08.491Z</time>
      </trkpt>
      <trkpt lat="63.6205" lon="10.04053">
        <ele>60.694745</ele>
        <time>2020-08-08T10:23:10.453Z</time>
      </trkpt>
      <trkpt lat="63.62058" lon="10.04062">
        <ele>60.889168</ele>
        <time>2020-08-08T10:23:12.467Z</time>
      </trkpt>
      <trkpt lat="63.62067" lon="10.0407">
        <ele>61.081444</ele>
        <time>2020-08-08T10:23:14.457Z</time>
      </trkpt>
      <trkpt lat="63.62076" lon="10.04076">
        <ele>61.268652</ele>
        <time>2020-08-08T10:23:16.469Z</time>
      </trkpt>
      <trkpt lat="63.62084" lon="10.04083">
        <ele>61.456148</ele>
        <time>2020-08-08T10:23:18.505Z</time>
      </trkpt>
      <trkpt lat="63.62093" lon="10.04089">
        <ele>61.648365</ele>
        <time>2020-08-08T10:23:20.455Z</time>
      </trkpt>
      <trkpt lat="63.62103" lon="10.04094">
        <ele>61.841233</ele>
        <time>2020-08-08T10:23:22.454Z</time>
      </trkpt>
      <trkpt lat="63.62112" lon="10.04099">
        <ele>62.03077</ele>
        <time>2020-08-08T10:23:24.463Z</time>
      </trkpt>
      <trkpt lat="63.62121" lon="10.04104">
        <ele>62.226916</ele>
        <time>2020-08-08T10:23:26.461Z</time>
      </trkpt>
      <trkpt lat="63.6213" lon="10.0411">
        <ele>62.420316</ele>
        <time>2020-08-08T10:23:28.451Z</time>
      </trkpt>
      <trkpt lat="63.62139" lon="10.04117">
        <ele>62.620877</ele>
        <time>2020-08-08T10:23:30.508Z</time>
      </trkpt>
      <trkpt lat="63.62149" lon="10.04122">
        <ele>62.817961</ele>
        <time>2020-08-08T10:23:32.464Z</time>
      </trkpt>
      <trkpt lat="63.62158" lon="10.04128">
        <ele>63.013575</ele>
        <time>2020-08-08T10:23:34.455Z</time>
      </trkpt>
      <trkpt lat="63.62167" lon="10.04134">
        <ele>63.206726</ele>
        <time>2020-08-08T10:23:36.445Z</time>
      </trkpt>
      <trkpt lat="63.62176" lon="10.0414">
        <ele>63.394772</ele>
        <time>2020-08-08T10:23:38.471Z</time>
      </trkpt>
      <trkpt lat="63.62185" lon="10.04146">
        <ele>63.58114</ele>
        <time>2020-08-08T10:23:40.497Z</time>
      </trkpt>
      <trkpt lat="63.62197" lon="10.04155">
        <ele>63.823083</ele>
        <time>2020-08-08T10:23:43.470Z</time>
      </trkpt>
      <trkpt lat="63.62209" lon="10.04164">
        <ele>63.889196</ele>
        <time>2020-08-08T10:23:46.438Z</time>
      </trkpt>
      <trkpt lat="63.6222" lon="10.04173">
        <ele>63.953964</ele>
        <time>2020-08-08T10:23:49.475Z</time>
      </trkpt>
      <trkpt lat="63.62231" lon="10.04182">
        <ele>64.016968</ele>
        <time>2020-08-08T10:23:52.452Z</time>
      </trkpt>
      <trkpt lat="63.62242" lon="10.04192">
        <ele>64.078274</ele>
        <time>2020-08-08T10:23:55.508Z</time>
      </trkpt>
      <trkpt lat="63.62252" lon="10.04204">
        <ele>64.139631</ele>
        <time>2020-08-08T10:23:58.475Z</time>
      </trkpt>
      <trkpt lat="63.62262" lon="10.04215">
        <ele>64.199666</ele>
        <time>2020-08-08T10:24:01.478Z</time>
      </trkpt>
      <trkpt lat="63.62271" lon="10.04227">
        <ele>64.257101</ele>
        <time>2020-08-08T10:24:04.485Z</time>
      </trkpt>
      <trkpt lat="63.62281" lon="10.0424">
        <ele>64.316062</ele>
        <time>2020-08-08T10:24:07.475Z</time>
      </trkpt>
      <trkpt lat="63.62289" lon="10.04253">
        <ele>64.373026</ele>
        <time>2020-08-08T10:24:10.453Z</time>
      </trkpt>
      <trkpt lat="63.62298" lon="10.04267">
        <ele>64.432014</ele>
        <time>2020-08-08T10:24:13.474Z</time>
      </trkpt>
      <trkpt lat="63.62307" lon="10.04283">
        <ele>64.49275</ele>
        <time>2020-08-08T10:24:16.479Z</time>
      </trkpt>
      <trkpt lat="63.62315" lon="10.04298">
        <ele>64.550349</ele>
        <time>2020-08-08T10:24:19.452Z</time>
      </trkpt>
      <trkpt lat="63.62323" lon="10.04314">
        <ele>64.60693</ele>
        <time>2020-08-08T10:24:22.475Z</time>
      </trkpt>
      <trkpt lat="63.62331" lon="10.04329">
        <ele>64.662167</ele>
        <time>2020-08-08T10:24:25.477Z</time>
      </trkpt>
      <trkpt lat="63.62339" lon="10.04346">
        <ele>64.721141</ele>
        <time>2020-08-08T10:24:28.473Z</time>
      </trkpt>
      <trkpt lat="63.62347" lon="10.04363">
        <ele>64.779329</ele>
        <time>2020-08-08T10:24:31.468Z</time>
      </trkpt>
      <trkpt lat="63.62355" lon="10.04379">
        <ele>64.689372</ele>
        <time>2020-08-08T10:24:34.502Z</time>
      </trkpt>
      <trkpt lat="63.62363" lon="10.04396">
        <ele>64.597281</ele>
        <time>2020-08-08T10:24:37.467Z</time>
      </trkpt>
      <trkpt lat="63.62371" lon="10.04415">
        <ele>64.502377</ele>
        <time>2020-08-08T10:24:40.522Z</time>
      </trkpt>
      <trkpt lat="63.62379" lon="10.04432">
        <ele>64.408904</ele>
        <time>2020-08-08T10:24:43.457Z</time>
      </trkpt>
      <trkpt lat="63.62388" lon="10.04451">
        <ele>64.306997</ele>
        <time>2020-08-08T10:24:46.446Z</time>
      </trkpt>
      <trkpt lat="63.62396" lon="10.04468">
        <ele>64.20907</ele>
        <time>2020-08-08T10:24:49.467Z</time>
      </trkpt>
      <trkpt lat="63.62405" lon="10.04486">
        <ele>64.108508</ele>
        <time>2020-08-08T10:24:52.506Z</time>
      </trkpt>
      <trkpt lat="63.62414" lon="10.04505">
        <ele>64.007174</ele>
        <time>2020-08-08T10:24:55.452Z</time>
      </trkpt>
      <trkpt lat="63.62423" lon="10.04525">
        <ele>63.902815</ele>
        <time>2020-08-08T10:24:58.470Z</time>
      </trkpt>
      <trkpt lat="63.62432" lon="10.04545">
        <ele>63.793844</ele>
        <time>2020-08-08T10:25:01.478Z</time>
      </trkpt>
      <trkpt lat="63.62441" lon="10.04566">
        <ele>63.681366</ele>
        <time>2020-08-08T10:25:04.497Z</time>
      </trkpt>
      <trkpt lat="63.62451" lon="10.04587">
        <ele>63.569407</ele>
        <time>2020-08-08T10:25:07.503Z</time>
      </trkpt>
      <trkpt lat="63.62458" lon="10.04601">
        <ele>63.492477</ele>
        <time>2020-08-08T10:25:09.451Z</time>
      </trkpt>
      <trkpt lat="63.62465" lon="10.04616">
        <ele>63.413518</ele>
        <time>2020-08-08T10:25:11.462Z</time>
      </trkpt>
      <trkpt lat="63.62472" lon="10.04631">
        <ele>63.328721</ele>
        <time>2020-08-08T10:25:13.481Z</time>
      </trkpt>
      <trkpt lat="63.6248" lon="10.04647">
        <ele>63.232172</ele>
        <time>2020-08-08T10:25:15.482Z</time>
      </trkpt>
      <trkpt lat="63.62488" lon="10.04662">
        <ele>63.10824</ele>
        <time>2020-08-08T10:25:17.478Z</time>
      </trkpt>
      <trkpt lat="63.62496" lon="10.04678">
        <ele>62.98471</ele>
        <time>2020-08-08T10:25:19.462Z</time>
      </trkpt>
      <trkpt lat="63.62504" lon="10.04694">
        <ele>62.863927</ele>
        <time>2020-08-08T10:25:21.483Z</time>
      </trkpt>
      <trkpt lat="63.62511" lon="10.0471">
        <ele>62.744508</ele>
        <time>2020-08-08T10:25:23.465Z</time>
      </trkpt>
      <trkpt lat="63.62519" lon="10.04725">
        <ele>62.628871</ele>
        <time>2020-08-08T10:25:25.479Z</time>
      </trkpt>
      <trkpt lat="63.62526" lon="10.0474">
        <ele>62.513578</ele>
        <time>2020-08-08T10:25:27.513Z</time>
      </trkpt>
      <trkpt lat="63.62534" lon="10.04755">
        <ele>62.396034</ele>
        <time>2020-08-08T10:25:29.522Z</time>
      </trkpt>
      <trkpt lat="63.62541" lon="10.0477">
        <ele>62.282448</ele>
        <time>2020-08-08T10:25:31.490Z</time>
      </trkpt>
      <trkpt lat="63.62548" lon="10.04784">
        <ele>62.175728</ele>
        <time>2020-08-08T10:25:33.443Z</time>
      </trkpt>
      <trkpt lat="63.62558" lon="10.04804">
        <ele>62.022631</ele>
        <time>2020-08-08T10:25:36.450Z</time>
      </trkpt>
      <trkpt lat="63.62567" lon="10.04825">
        <ele>61.870723</ele>
        <time>2020-08-08T10:25:39.500Z</time>
      </trkpt>
      <trkpt lat="63.62577" lon="10.04845">
        <ele>61.718884</ele>
        <time>2020-08-08T10:25:42.468Z</time>
      </trkpt>
      <trkpt lat="63.62587" lon="10.04864">
        <ele>61.566357</ele>
        <time>2020-08-08T10:25:45.469Z</time>
      </trkpt>
      <trkpt lat="63.62596" lon="10.04884">
        <ele>61.419841</ele>
        <time>2020-08-08T10:25:48.478Z</time>
      </trkpt>
      <trkpt lat="63.62606" lon="10.04904">
        <ele>61.26509</ele>
        <time>2020-08-08T10:25:51.455Z</time>
      </trkpt>
      <trkpt lat="63.62616" lon="10.04923">
        <ele>61.169545</ele>
        <time>2020-08-08T10:25:54.473Z</time>
      </trkpt>
      <trkpt lat="63.62625" lon="10.04943">
        <ele>61.12408</ele>
        <time>2020-08-08T10:25:57.439Z</time>
      </trkpt>
      <trkpt lat="63.62635" lon="10.04964">
        <ele>61.079107</ele>
        <time>2020-08-08T10:26:00.454Z</time>
      </trkpt>
      <trkpt lat="63.62644" lon="10.04983">
        <ele>61.034833</ele>
        <time>2020-08-08T10:26:03.442Z</time>
      </trkpt>
      <trkpt lat="63.62654" lon="10.05003">
        <ele>60.989832</ele>
        <time>2020-08-08T10:26:06.514Z</time>
      </trkpt>
      <trkpt lat="63.6266" lon="10.05017">
        <ele>60.958421</ele>
        <time>2020-08-08T10:26:08.452Z</time>
      </trkpt>
      <trkpt lat="63.62667" lon="10.05031">
        <ele>60.927118</ele>
        <time>2020-08-08T10:26:10.501Z</time>
      </trkpt>
      <trkpt lat="63.62676" lon="10.05054">
        <ele>60.879774</ele>
        <time>2020-08-08T10:26:13.468Z</time>
      </trkpt>
      <trkpt lat="63.62682" lon="10.05069">
        <ele>60.846363</ele>
        <time>2020-08-08T10:26:15.481Z</time>
      </trkpt>
      <trkpt lat="63.62691" lon="10.05092">
        <ele>60.79995</ele>
        <time>2020-08-08T10:26:18.453Z</time>
      </trkpt>
      <trkpt lat="63.62701" lon="10.05113">
        <ele>60.753136</ele>
        <time>2020-08-08T10:26:21.462Z</time>
      </trkpt>
      <trkpt lat="63.62708" lon="10.05126">
        <ele>60.722003</ele>
        <time>2020-08-08T10:26:23.472Z</time>
      </trkpt>
      <trkpt lat="63.62717" lon="10.05148">
        <ele>60.675751</ele>
        <time>2020-08-08T10:26:26.453Z</time>
      </trkpt>
      <trkpt lat="63.62726" lon="10.0517">
        <ele>60.630252</ele>
        <time>2020-08-08T10:26:29.486Z</time>
      </trkpt>
      <trkpt lat="63.62731" lon="10.05186">
        <ele>60.599087</ele>
        <time>2020-08-08T10:26:31.450Z</time>
      </trkpt>
      <trkpt lat="63.62737" lon="10.05203">
        <ele>60.575833</ele>
        <time>2020-08-08T10:26:33.486Z</time>
      </trkpt>
      <trkpt lat="63.62743" lon="10.05218">
        <ele>60.718242</ele>
        <time>2020-08-08T10:26:35.453Z</time>
      </trkpt>
      <trkpt lat="63.62751" lon="10.05241">
        <ele>60.926675</ele>
        <time>2020-08-08T10:26:38.443Z</time>
      </trkpt>
      <trkpt lat="63.62757" lon="10.05257">
        <ele>61.067076</ele>
        <time>2020-08-08T10:26:40.490Z</time>
      </trkpt>
      <trkpt lat="63.62763" lon="10.05273">
        <ele>61.209093</ele>
        <time>2020-08-08T10:26:42.498Z</time>
      </trkpt>
      <trkpt lat="63.62769" lon="10.05288">
        <ele>61.351502</ele>
        <time>2020-08-08T10:26:44.486Z</time>
      </trkpt>
      <trkpt lat="63.62775" lon="10.05304">
        <ele>61.498084</ele>
        <time>2020-08-08T10:26:46.465Z</time>
      </trkpt>
      <trkpt lat="63.62781" lon="10.05319">
        <ele>61.638911</ele>
        <time>2020-08-08T10:26:48.452Z</time>
      </trkpt>
      <trkpt lat="63.62789" lon="10.05341">
        <ele>61.843733</ele>
        <time>2020-08-08T10:26:51.481Z</time>
      </trkpt>
      <trkpt lat="63.62798" lon="10.05362">
        <ele>62.041751</ele>
        <time>2020-08-08T10:26:54.530Z</time>
      </trkpt>
      <trkpt lat="63.62807" lon="10.05382">
        <ele>62.23314</ele>
        <time>2020-08-08T10:26:57.478Z</time>
      </trkpt>
      <trkpt lat="63.62814" lon="10.05401">
        <ele>62.412513</ele>
        <time>2020-08-08T10:27:00.476Z</time>
      </trkpt>
      <trkpt lat="63.62822" lon="10.05419">
        <ele>62.582445</ele>
        <time>2020-08-08T10:27:03.453Z</time>
      </trkpt>
      <trkpt lat="63.62828" lon="10.05437">
        <ele>62.744566</ele>
        <time>2020-08-08T10:27:06.494Z</time>
      </trkpt>
      <trkpt lat="63.62835" lon="10.05456">
        <ele>62.909362</ele>
        <time>2020-08-08T10:27:09.460Z</time>
      </trkpt>
      <trkpt lat="63.62842" lon="10.05474">
        <ele>63.075144</ele>
        <time>2020-08-08T10:27:12.500Z</time>
      </trkpt>
      <trkpt lat="63.62848" lon="10.05492">
        <ele>63.241509</ele>
        <time>2020-08-08T10:27:15.466Z</time>
      </trkpt>
      <trkpt lat="63.62855" lon="10.05509">
        <ele>63.378831</ele>
        <time>2020-08-08T10:27:18.471Z</time>
      </trkpt>
      <trkpt lat="63.62861" lon="10.05524">
        <ele>63.306552</ele>
        <time>2020-08-08T10:27:21.483Z</time>
      </trkpt>
      <trkpt lat="63.62869" lon="10.05544">
        <ele>63.215096</ele>
        <time>2020-08-08T10:27:25.497Z</time>
      </trkpt>
      <trkpt lat="63.62877" lon="10.05563">
        <ele>63.123649</ele>
        <time>2020-08-08T10:27:29.482Z</time>
      </trkpt>
      <trkpt lat="63.62883" lon="10.05584">
        <ele>63.036291</ele>
        <time>2020-08-08T10:27:33.481Z</time>
      </trkpt>
      <trkpt lat="63.6289" lon="10.05604">
        <ele>62.949464</ele>
        <time>2020-08-08T10:27:37.469Z</time>
      </trkpt>
      <trkpt lat="63.62899" lon="10.05622">
        <ele>62.855779</ele>
        <time>2020-08-08T10:27:41.460Z</time>
      </trkpt>
      <trkpt lat="63.62906" lon="10.05636">
        <ele>62.77851</ele>
        <time>2020-08-08T10:27:44.500Z</time>
      </trkpt>
      <trkpt lat="63.62912" lon="10.05654">
        <ele>62.699032</ele>
        <time>2020-08-08T10:27:47.475Z</time>
      </trkpt>
      <trkpt lat="63.6292" lon="10.05674">
        <ele>62.608878</ele>
        <time>2020-08-08T10:27:50.466Z</time>
      </trkpt>
      <trkpt lat="63.6293" lon="10.05695">
        <ele>62.504528</ele>
        <time>2020-08-08T10:27:53.502Z</time>
      </trkpt>
      <trkpt lat="63.62936" lon="10.05712">
        <ele>62.426025</ele>
        <time>2020-08-08T10:27:55.446Z</time>
      </trkpt>
      <trkpt lat="63.62943" lon="10.05731">
        <ele>62.340252</ele>
        <time>2020-08-08T10:27:57.461Z</time>
      </trkpt>
      <trkpt lat="63.62951" lon="10.0575">
        <ele>62.252386</ele>
        <time>2020-08-08T10:27:59.456Z</time>
      </trkpt>
      <trkpt lat="63.62958" lon="10.0577">
        <ele>62.163267</ele>
        <time>2020-08-08T10:28:01.502Z</time>
      </trkpt>
      <trkpt lat="63.62966" lon="10.05788">
        <ele>62.075164</ele>
        <time>2020-08-08T10:28:03.489Z</time>
      </trkpt>
      <trkpt lat="63.62974" lon="10.05806">
        <ele>61.989316</ele>
        <time>2020-08-08T10:28:05.501Z</time>
      </trkpt>
      <trkpt lat="63.62981" lon="10.05824">
        <ele>61.822421</ele>
        <time>2020-08-08T10:28:07.462Z</time>
      </trkpt>
      <trkpt lat="63.62989" lon="10.05842">
        <ele>61.638088</ele>
        <time>2020-08-08T10:28:09.442Z</time>
      </trkpt>
      <trkpt lat="63.62997" lon="10.0586">
        <ele>61.452795</ele>
        <time>2020-08-08T10:28:11.471Z</time>
      </trkpt>
      <trkpt lat="63.63004" lon="10.05879">
        <ele>61.275169</ele>
        <time>2020-08-08T10:28:13.451Z</time>
      </trkpt>
      <trkpt lat="63.63012" lon="10.05898">
        <ele>61.088862</ele>
        <time>2020-08-08T10:28:15.466Z</time>
      </trkpt>
      <trkpt lat="63.63019" lon="10.05917">
        <ele>60.90528</ele>
        <time>2020-08-08T10:28:17.490Z</time>
      </trkpt>
      <trkpt lat="63.63027" lon="10.05936">
        <ele>60.721691</ele>
        <time>2020-08-08T10:28:19.461Z</time>
      </trkpt>
      <trkpt lat="63.63034" lon="10.05956">
        <ele>60.529311</ele>
        <time>2020-08-08T10:28:21.474Z</time>
      </trkpt>
      <trkpt lat="63.63042" lon="10.05977">
        <ele>60.333178</ele>
        <time>2020-08-08T10:28:23.468Z</time>
      </trkpt>
      <trkpt lat="63.63048" lon="10.06">
        <ele>60.138759</ele>
        <time>2020-08-08T10:28:25.488Z</time>
      </trkpt>
      <trkpt lat="63.63055" lon="10.06023">
        <ele>59.938693</ele>
        <time>2020-08-08T10:28:27.498Z</time>
      </trkpt>
      <trkpt lat="63.63061" lon="10.06046">
        <ele>59.746516</ele>
        <time>2020-08-08T10:28:29.444Z</time>
      </trkpt>
      <trkpt lat="63.63066" lon="10.06069">
        <ele>59.557163</ele>
        <time>2020-08-08T10:28:31.463Z</time>
      </trkpt>
      <trkpt lat="63.63072" lon="10.06092">
        <ele>59.367175</ele>
        <time>2020-08-08T10:28:33.489Z</time>
      </trkpt>
      <trkpt lat="63.63077" lon="10.06114">
        <ele>59.186525</ele>
        <time>2020-08-08T10:28:35.435Z</time>
      </trkpt>
      <trkpt lat="63.63083" lon="10.06135">
        <ele>59.054124</ele>
        <time>2020-08-08T10:28:37.494Z</time>
      </trkpt>
      <trkpt lat="63.63088" lon="10.06156">
        <ele>59.090733</ele>
        <time>2020-08-08T10:28:39.471Z</time>
      </trkpt>
      <trkpt lat="63.63093" lon="10.06178">
        <ele>59.127097</ele>
        <time>2020-08-08T10:28:41.466Z</time>
      </trkpt>
      <trkpt lat="63.63098" lon="10.06198">
        <ele>59.162395</ele>
        <time>2020-08-08T10:28:43.494Z</time>
      </trkpt>
      <trkpt lat="63.63102" lon="10.06218">
        <ele>59.197663</ele>
        <time>2020-08-08T10:28:45.446Z</time>
      </trkpt>
      <trkpt lat="63.63108" lon="10.06239">
        <ele>59.232902</ele>
        <time>2020-08-08T10:28:47.477Z</time>
      </trkpt>
      <trkpt lat="63.63113" lon="10.06259">
        <ele>59.267935</ele>
        <time>2020-08-08T10:28:49.470Z</time>
      </trkpt>
      <trkpt lat="63.63117" lon="10.06279">
        <ele>59.302347</ele>
        <time>2020-08-08T10:28:51.462Z</time>
      </trkpt>
      <trkpt lat="63.63122" lon="10.063">
        <ele>59.337683</ele>
        <time>2020-08-08T10:28:53.469Z</time>
      </trkpt>
      <trkpt lat="63.63127" lon="10.06321">
        <ele>59.374409</ele>
        <time>2020-08-08T10:28:55.441Z</time>
      </trkpt>
      <trkpt lat="63.63132" lon="10.06343">
        <ele>59.412003</ele>
        <time>2020-08-08T10:28:57.471Z</time>
      </trkpt>
      <trkpt lat="63.63137" lon="10.06365">
        <ele>59.448635</ele>
        <time>2020-08-08T10:28:59.458Z</time>
      </trkpt>
      <trkpt lat="63.63142" lon="10.06387">
        <ele>59.485767</ele>
        <time>2020-08-08T10:29:01.473Z</time>
      </trkpt>
      <trkpt lat="63.63146" lon="10.06409">
        <ele>59.522478</ele>
        <time>2020-08-08T10:29:03.464Z</time>
      </trkpt>
      <trkpt lat="63.63151" lon="10.06429">
        <ele>59.556139</ele>
        <time>2020-08-08T10:29:05.467Z</time>
      </trkpt>
      <trkpt lat="63.63155" lon="10.06448">
        <ele>59.588155</ele>
        <time>2020-08-08T10:29:07.447Z</time>
      </trkpt>
      <trkpt lat="63.63159" lon="10.06466">
        <ele>59.619226</ele>
        <time>2020-08-08T10:29:09.450Z</time>
      </trkpt>
      <trkpt lat="63.63165" lon="10.06491">
        <ele>59.670494</ele>
        <time>2020-08-08T10:29:12.474Z</time>
      </trkpt>
      <trkpt lat="63.63171" lon="10.06512">
        <ele>59.814963</ele>
        <time>2020-08-08T10:29:15.478Z</time>
      </trkpt>
      <trkpt lat="63.63176" lon="10.06532">
        <ele>59.944664</ele>
        <time>2020-08-08T10:29:18.448Z</time>
      </trkpt>
      <trkpt lat="63.63181" lon="10.06552">
        <ele>60.071761</ele>
        <time>2020-08-08T10:29:21.445Z</time>
      </trkpt>
      <trkpt lat="63.63186" lon="10.06571">
        <ele>60.197121</ele>
        <time>2020-08-08T10:29:24.449Z</time>
      </trkpt>
      <trkpt lat="63.63191" lon="10.06591">
        <ele>60.322603</ele>
        <time>2020-08-08T10:29:27.453Z</time>
      </trkpt>
      <trkpt lat="63.63196" lon="10.0661">
        <ele>60.451317</ele>
        <time>2020-08-08T10:29:30.447Z</time>
      </trkpt>
      <trkpt lat="63.63201" lon="10.0663">
        <ele>60.583921</ele>
        <time>2020-08-08T10:29:33.449Z</time>
      </trkpt>
      <trkpt lat="63.63207" lon="10.0665">
        <ele>60.719203</ele>
        <time>2020-08-08T10:29:36.448Z</time>
      </trkpt>
      <trkpt lat="63.63212" lon="10.06671">
        <ele>60.856131</ele>
        <time>2020-08-08T10:29:39.462Z</time>
      </trkpt>
      <trkpt lat="63.63219" lon="10.06689">
        <ele>60.993231</ele>
        <time>2020-08-08T10:29:42.504Z</time>
      </trkpt>
      <trkpt lat="63.63227" lon="10.06709">
        <ele>61.13747</ele>
        <time>2020-08-08T10:29:45.491Z</time>
      </trkpt>
      <trkpt lat="63.63234" lon="10.06731">
        <ele>61.294325</ele>
        <time>2020-08-08T10:29:48.477Z</time>
      </trkpt>
      <trkpt lat="63.63242" lon="10.06755">
        <ele>61.463944</ele>
        <time>2020-08-08T10:29:51.474Z</time>
      </trkpt>
      <trkpt lat="63.63248" lon="10.06773">
        <ele>61.590047</ele>
        <time>2020-08-08T10:29:53.465Z</time>
      </trkpt>
      <trkpt lat="63.63255" lon="10.06791">
        <ele>61.726222</ele>
        <time>2020-08-08T10:29:55.443Z</time>
      </trkpt>
      <trkpt lat="63.63262" lon="10.06811">
        <ele>61.874708</ele>
        <time>2020-08-08T10:29:57.463Z</time>
      </trkpt>
      <trkpt lat="63.6327" lon="10.06833">
        <ele>61.998929</ele>
        <time>2020-08-08T10:29:59.482Z</time>
      </trkpt>
      <trkpt lat="63.63277" lon="10.06855">
        <ele>62.086675</ele>
        <time>2020-08-08T10:30:01.455Z</time>
      </trkpt>
      <trkpt lat="63.63283" lon="10.06875">
        <ele>62.169665</ele>
        <time>2020-08-08T10:30:03.459Z</time>
      </trkpt>
      <trkpt lat="63.6329" lon="10.06896">
        <ele>62.25039</ele>
        <time>2020-08-08T10:30:05.473Z</time>
      </trkpt>
      <trkpt lat="63.63297" lon="10.06917">
        <ele>62.333804</ele>
        <time>2020-08-08T10:30:07.459Z</time>
      </trkpt>
      <trkpt lat="63.63303" lon="10.06937">
        <ele>62.415317</ele>
        <time>2020-08-08T10:30:09.477Z</time>
      </trkpt>
      <trkpt lat="63.6331" lon="10.06957">
        <ele>62.495518</ele>
        <time>2020-08-08T10:30:11.464Z</time>
      </trkpt>
      <trkpt lat="63.63316" lon="10.06976">
        <ele>62.572078</ele>
        <time>2020-08-08T10:30:13.472Z</time>
      </trkpt>
      <trkpt lat="63.63321" lon="10.06995">
        <ele>62.645472</ele>
        <time>2020-08-08T10:30:15.498Z</time>
      </trkpt>
      <trkpt lat="63.63326" lon="10.07015">
        <ele>62.718258</ele>
        <time>2020-08-08T10:30:17.490Z</time>
      </trkpt>
      <trkpt lat="63.63331" lon="10.07035">
        <ele>62.792329</ele>
        <time>2020-08-08T10:30:19.453Z</time>
      </trkpt>
      <trkpt lat="63.63337" lon="10.07055">
        <ele>62.86946</ele>
        <time>2020-08-08T10:30:21.470Z</time>
      </trkpt>
      <trkpt lat="63.63341" lon="10.07074">
        <ele>62.94069</ele>
        <time>2020-08-08T10:30:23.500Z</time>
      </trkpt>
      <trkpt lat="63.63346" lon="10.07094">
        <ele>63.014258</ele>
        <time>2020-08-08T10:30:25.443Z</time>
      </trkpt>
      <trkpt lat="63.63351" lon="10.07115">
        <ele>63.089252</ele>
        <time>2020-08-08T10:30:27.465Z</time>
      </trkpt>
      <trkpt lat="63.63356" lon="10.07134">
        <ele>63.16042</ele>
        <time>2020-08-08T10:30:29.468Z</time>
      </trkpt>
      <trkpt lat="63.6336" lon="10.07153">
        <ele>63.230164</ele>
        <time>2020-08-08T10:30:31.472Z</time>
      </trkpt>
      <trkpt lat="63.63364" lon="10.07172">
        <ele>63.303407</ele>
        <time>2020-08-08T10:30:33.499Z</time>
      </trkpt>
      <trkpt lat="63.63368" lon="10.07191">
        <ele>63.380017</ele>
        <time>2020-08-08T10:30:35.460Z</time>
      </trkpt>
      <trkpt lat="63.63372" lon="10.07209">
        <ele>63.454923</ele>
        <time>2020-08-08T10:30:37.474Z</time>
      </trkpt>
      <trkpt lat="63.63376" lon="10.07228">
        <ele>63.530905</ele>
        <time>2020-08-08T10:30:39.498Z</time>
      </trkpt>
      <trkpt lat="63.6338" lon="10.07247">
        <ele>63.606146</ele>
        <time>2020-08-08T10:30:41.500Z</time>
      </trkpt>
      <trkpt lat="63.63384" lon="10.07265">
        <ele>63.68074</ele>
        <time>2020-08-08T10:30:43.462Z</time>
      </trkpt>
      <trkpt lat="63.63388" lon="10.07283">
        <ele>63.754968</ele>
        <time>2020-08-08T10:30:45.471Z</time>
      </trkpt>
      <trkpt lat="63.63391" lon="10.07302">
        <ele>63.831883</ele>
        <time>2020-08-08T10:30:47.451Z</time>
      </trkpt>
      <trkpt lat="63.63395" lon="10.07322">
        <ele>63.908812</ele>
        <time>2020-08-08T10:30:49.466Z</time>
      </trkpt>
      <trkpt lat="63.63399" lon="10.0734">
        <ele>63.986583</ele>
        <time>2020-08-08T10:30:51.530Z</time>
      </trkpt>
      <trkpt lat="63.63404" lon="10.07359">
        <ele>64.063455</ele>
        <time>2020-08-08T10:30:53.481Z</time>
      </trkpt>
      <trkpt lat="63.63408" lon="10.07378">
        <ele>64.140727</ele>
        <time>2020-08-08T10:30:55.459Z</time>
      </trkpt>
      <trkpt lat="63.63412" lon="10.07397">
        <ele>64.219329</ele>
        <time>2020-08-08T10:30:57.457Z</time>
      </trkpt>
      <trkpt lat="63.63416" lon="10.07416">
        <ele>64.297598</ele>
        <time>2020-08-08T10:30:59.454Z</time>
      </trkpt>
      <trkpt lat="63.6342" lon="10.07436">
        <ele>64.375187</ele>
        <time>2020-08-08T10:31:01.440Z</time>
      </trkpt>
      <trkpt lat="63.63424" lon="10.07455">
        <ele>64.454123</ele>
        <time>2020-08-08T10:31:03.465Z</time>
      </trkpt>
      <trkpt lat="63.63427" lon="10.07474">
        <ele>64.530712</ele>
        <time>2020-08-08T10:31:05.463Z</time>
      </trkpt>
      <trkpt lat="63.63431" lon="10.07493">
        <ele>64.606303</ele>
        <time>2020-08-08T10:31:07.482Z</time>
      </trkpt>
      <trkpt lat="63.63435" lon="10.07513">
        <ele>64.684248</ele>
        <time>2020-08-08T10:31:09.464Z</time>
      </trkpt>
      <trkpt lat="63.63438" lon="10.07532">
        <ele>64.758003</ele>
        <time>2020-08-08T10:31:11.480Z</time>
      </trkpt>
      <trkpt lat="63.63443" lon="10.07558">
        <ele>64.793965</ele>
        <time>2020-08-08T10:31:14.493Z</time>
      </trkpt>
      <trkpt lat="63.63447" lon="10.0758">
        <ele>64.824302</ele>
        <time>2020-08-08T10:31:17.477Z</time>
      </trkpt>
      <trkpt lat="63.63452" lon="10.07599">
        <ele>64.852716</ele>
        <time>2020-08-08T10:31:20.464Z</time>
      </trkpt>
      <trkpt lat="63.63457" lon="10.07617">
        <ele>64.879974</ele>
        <time>2020-08-08T10:31:23.449Z</time>
      </trkpt>
      <trkpt lat="63.63461" lon="10.07636">
        <ele>64.906962</ele>
        <time>2020-08-08T10:31:26.442Z</time>
      </trkpt>
      <trkpt lat="63.63466" lon="10.07657">
        <ele>64.936714</ele>
        <time>2020-08-08T10:31:29.469Z</time>
      </trkpt>
      <trkpt lat="63.63471" lon="10.0768">
        <ele>64.969491</ele>
        <time>2020-08-08T10:31:32.460Z</time>
      </trkpt>
      <trkpt lat="63.63477" lon="10.07705">
        <ele>65.005774</ele>
        <time>2020-08-08T10:31:35.492Z</time>
      </trkpt>
      <trkpt lat="63.63481" lon="10.07723">
        <ele>65.032895</ele>
        <time>2020-08-08T10:31:37.452Z</time>
      </trkpt>
      <trkpt lat="63.63487" lon="10.07743">
        <ele>65.062195</ele>
        <time>2020-08-08T10:31:39.447Z</time>
      </trkpt>
      <trkpt lat="63.63492" lon="10.07764">
        <ele>65.093717</ele>
        <time>2020-08-08T10:31:41.458Z</time>
      </trkpt>
      <trkpt lat="63.63498" lon="10.07785">
        <ele>65.125956</ele>
        <time>2020-08-08T10:31:43.461Z</time>
      </trkpt>
      <trkpt lat="63.63504" lon="10.07809">
        <ele>65.161364</ele>
        <time>2020-08-08T10:31:45.442Z</time>
      </trkpt>
      <trkpt lat="63.6351" lon="10.07834">
        <ele>65.197512</ele>
        <time>2020-08-08T10:31:47.462Z</time>
      </trkpt>
      <trkpt lat="63.63516" lon="10.07859">
        <ele>65.233255</ele>
        <time>2020-08-08T10:31:49.472Z</time>
      </trkpt>
      <trkpt lat="63.63522" lon="10.07881">
        <ele>65.265975</ele>
        <time>2020-08-08T10:31:51.471Z</time>
      </trkpt>
      <trkpt lat="63.63527" lon="10.07901">
        <ele>65.158446</ele>
        <time>2020-08-08T10:31:53.510Z</time>
      </trkpt>
      <trkpt lat="63.63532" lon="10.07921">
        <ele>64.99624</ele>
        <time>2020-08-08T10:31:55.497Z</time>
      </trkpt>
      <trkpt lat="63.63537" lon="10.07942">
        <ele>64.834382</ele>
        <time>2020-08-08T10:31:57.461Z</time>
      </trkpt>
      <trkpt lat="63.63543" lon="10.07962">
        <ele>64.666752</ele>
        <time>2020-08-08T10:31:59.480Z</time>
      </trkpt>
      <trkpt lat="63.63548" lon="10.07981">
        <ele>64.507336</ele>
        <time>2020-08-08T10:32:01.539Z</time>
      </trkpt>
      <trkpt lat="63.63553" lon="10.08001">
        <ele>64.346726</ele>
        <time>2020-08-08T10:32:03.489Z</time>
      </trkpt>
      <trkpt lat="63.63558" lon="10.08021">
        <ele>64.188693</ele>
        <time>2020-08-08T10:32:05.485Z</time>
      </trkpt>
      <trkpt lat="63.63563" lon="10.08041">
        <ele>64.029705</ele>
        <time>2020-08-08T10:32:07.486Z</time>
      </trkpt>
      <trkpt lat="63.63568" lon="10.0806">
        <ele>63.870885</ele>
        <time>2020-08-08T10:32:09.474Z</time>
      </trkpt>
      <trkpt lat="63.63573" lon="10.08078">
        <ele>63.725732</ele>
        <time>2020-08-08T10:32:11.451Z</time>
      </trkpt>
      <trkpt lat="63.63578" lon="10.08096">
        <ele>63.578235</ele>
        <time>2020-08-08T10:32:13.480Z</time>
      </trkpt>
      <trkpt lat="63.63582" lon="10.08115">
        <ele>63.430944</ele>
        <time>2020-08-08T10:32:15.459Z</time>
      </trkpt>
      <trkpt lat="63.63586" lon="10.08135">
        <ele>63.275168</ele>
        <time>2020-08-08T10:32:17.457Z</time>
      </trkpt>
      <trkpt lat="63.63591" lon="10.08154">
        <ele>63.123393</ele>
        <time>2020-08-08T10:32:19.500Z</time>
      </trkpt>
      <trkpt lat="63.63596" lon="10.08171">
        <ele>62.978838</ele>
        <time>2020-08-08T10:32:21.460Z</time>
      </trkpt>
      <trkpt lat="63.63603" lon="10.08197">
        <ele>62.76783</ele>
        <time>2020-08-08T10:32:24.521Z</time>
      </trkpt>
      <trkpt lat="63.6361" lon="10.08223">
        <ele>62.560049</ele>
        <time>2020-08-08T10:32:27.470Z</time>
      </trkpt>
      <trkpt lat="63.63615" lon="10.08239">
        <ele>62.422021</ele>
        <time>2020-08-08T10:32:29.456Z</time>
      </trkpt>
      <trkpt lat="63.6362" lon="10.08257">
        <ele>62.295703</ele>
        <time>2020-08-08T10:32:31.488Z</time>
      </trkpt>
      <trkpt lat="63.63626" lon="10.08274">
        <ele>62.173022</ele>
        <time>2020-08-08T10:32:33.460Z</time>
      </trkpt>
      <trkpt lat="63.63631" lon="10.0829">
        <ele>62.053659</ele>
        <time>2020-08-08T10:32:35.470Z</time>
      </trkpt>
      <trkpt lat="63.63639" lon="10.08314">
        <ele>61.876851</ele>
        <time>2020-08-08T10:32:38.477Z</time>
      </trkpt>
      <trkpt lat="63.63645" lon="10.0833">
        <ele>61.753796</ele>
        <time>2020-08-08T10:32:40.468Z</time>
      </trkpt>
      <trkpt lat="63.63651" lon="10.08346">
        <ele>61.633106</ele>
        <time>2020-08-08T10:32:42.489Z</time>
      </trkpt>
      <trkpt lat="63.63657" lon="10.08363">
        <ele>61.509479</ele>
        <time>2020-08-08T10:32:44.484Z</time>
      </trkpt>
      <trkpt lat="63.63662" lon="10.08379">
        <ele>61.388701</ele>
        <time>2020-08-08T10:32:46.479Z</time>
      </trkpt>
      <trkpt lat="63.63669" lon="10.08395">
        <ele>61.262309</ele>
        <time>2020-08-08T10:32:48.460Z</time>
      </trkpt>
      <trkpt lat="63.63675" lon="10.08412">
        <ele>61.135893</ele>
        <time>2020-08-08T10:32:50.455Z</time>
      </trkpt>
      <trkpt lat="63.63681" lon="10.08427">
        <ele>61.015175</ele>
        <time>2020-08-08T10:32:52.461Z</time>
      </trkpt>
      <trkpt lat="63.63687" lon="10.08443">
        <ele>60.891845</ele>
        <time>2020-08-08T10:32:54.469Z</time>
      </trkpt>
      <trkpt lat="63.63693" lon="10.08458">
        <ele>60.770663</ele>
        <time>2020-08-08T10:32:56.462Z</time>
      </trkpt>
      <trkpt lat="63.637" lon="10.08473">
        <ele>60.645045</ele>
        <time>2020-08-08T10:32:58.487Z</time>
      </trkpt>
      <trkpt lat="63.63707" lon="10.08489">
        <ele>60.516742</ele>
        <time>2020-08-08T10:33:00.474Z</time>
      </trkpt>
      <trkpt lat="63.63713" lon="10.08505">
        <ele>60.390326</ele>
        <time>2020-08-08T10:33:02.455Z</time>
      </trkpt>
      <trkpt lat="63.6372" lon="10.08519">
        <ele>60.268568</ele>
        <time>2020-08-08T10:33:04.463Z</time>
      </trkpt>
      <trkpt lat="63.63726" lon="10.08534">
        <ele>60.146152</ele>
        <time>2020-08-08T10:33:06.457Z</time>
      </trkpt>
      <trkpt lat="63.63733" lon="10.08548">
        <ele>60.112336</ele>
        <time>2020-08-08T10:33:08.482Z</time>
      </trkpt>
      <trkpt lat="63.63742" lon="10.0857">
        <ele>60.352465</ele>
        <time>2020-08-08T10:33:11.450Z</time>
      </trkpt>
      <trkpt lat="63.63748" lon="10.08584">
        <ele>60.513991</ele>
        <time>2020-08-08T10:33:13.457Z</time>
      </trkpt>
      <trkpt lat="63.63755" lon="10.08599">
        <ele>60.676928</ele>
        <time>2020-08-08T10:33:15.478Z</time>
      </trkpt>
      <trkpt lat="63.63764" lon="10.0862">
        <ele>60.913642</ele>
        <time>2020-08-08T10:33:18.481Z</time>
      </trkpt>
      <trkpt lat="63.63773" lon="10.08641">
        <ele>61.142969</ele>
        <time>2020-08-08T10:33:21.478Z</time>
      </trkpt>
      <trkpt lat="63.63782" lon="10.08662">
        <ele>61.37603</ele>
        <time>2020-08-08T10:33:24.450Z</time>
      </trkpt>
      <trkpt lat="63.63791" lon="10.08681">
        <ele>61.60606</ele>
        <time>2020-08-08T10:33:27.495Z</time>
      </trkpt>
      <trkpt lat="63.63801" lon="10.08701">
        <ele>61.833366</ele>
        <time>2020-08-08T10:33:30.460Z</time>
      </trkpt>
      <trkpt lat="63.63809" lon="10.08721">
        <ele>62.056287</ele>
        <time>2020-08-08T10:33:33.494Z</time>
      </trkpt>
      <trkpt lat="63.63818" lon="10.08741">
        <ele>62.283426</ele>
        <time>2020-08-08T10:33:36.482Z</time>
      </trkpt>
      <trkpt lat="63.63827" lon="10.08761">
        <ele>62.507749</ele>
        <time>2020-08-08T10:33:39.466Z</time>
      </trkpt>
      <trkpt lat="63.63836" lon="10.08781">
        <ele>62.726456</ele>
        <time>2020-08-08T10:33:42.469Z</time>
      </trkpt>
      <trkpt lat="63.63844" lon="10.08799">
        <ele>62.939707</ele>
        <time>2020-08-08T10:33:45.452Z</time>
      </trkpt>
      <trkpt lat="63.63852" lon="10.08817">
        <ele>63.137567</ele>
        <time>2020-08-08T10:33:48.474Z</time>
      </trkpt>
      <trkpt lat="63.63859" lon="10.08834">
        <ele>63.335804</ele>
        <time>2020-08-08T10:33:51.472Z</time>
      </trkpt>
      <trkpt lat="63.63866" lon="10.0885">
        <ele>63.544345</ele>
        <time>2020-08-08T10:33:54.494Z</time>
      </trkpt>
      <trkpt lat="63.63873" lon="10.08864">
        <ele>63.750836</ele>
        <time>2020-08-08T10:33:57.469Z</time>
      </trkpt>
      <trkpt lat="63.6388" lon="10.08879">
        <ele>63.943412</ele>
        <time>2020-08-08T10:34:00.492Z</time>
      </trkpt>
      <trkpt lat="63.63886" lon="10.08892">
        <ele>64.136242</ele>
        <time>2020-08-08T10:34:03.442Z</time>
      </trkpt>
      <trkpt lat="63.63895" lon="10.08911">
        <ele>64.388081</ele>
        <time>2020-08-08T10:34:07.507Z</time>
      </trkpt>
      <trkpt lat="63.63901" lon="10.08927">
        <ele>64.588987</ele>
        <time>2020-08-08T10:34:10.468Z</time>
      </trkpt>
      <trkpt lat="63.63907" lon="10.08941">
        <ele>64.781055</ele>
        <time>2020-08-08T10:34:13.443Z</time>
      </trkpt>
      <trkpt lat="63.63916" lon="10.0896">
        <ele>65.036853</ele>
        <time>2020-08-08T10:34:17.492Z</time>
      </trkpt>
      <trkpt lat="63.63922" lon="10.08977">
        <ele>65.249811</ele>
        <time>2020-08-08T10:34:20.453Z</time>
      </trkpt>
      <trkpt lat="63.6393" lon="10.08992">
        <ele>65.460545</ele>
        <time>2020-08-08T10:34:23.457Z</time>
      </trkpt>
      <trkpt lat="63.63937" lon="10.09007">
        <ele>65.672443</ele>
        <time>2020-08-08T10:34:26.457Z</time>
      </trkpt>
      <trkpt lat="63.63944" lon="10.09025">
        <ele>65.899679</ele>
        <time>2020-08-08T10:34:29.473Z</time>
      </trkpt>
      <trkpt lat="63.63952" lon="10.09043">
        <ele>66.139107</ele>
        <time>2020-08-08T10:34:32.451Z</time>
      </trkpt>
      <trkpt lat="63.6396" lon="10.09061">
        <ele>66.390496</ele>
        <time>2020-08-08T10:34:35.490Z</time>
      </trkpt>
      <trkpt lat="63.63968" lon="10.09081">
        <ele>66.647434</ele>
        <time>2020-08-08T10:34:38.461Z</time>
      </trkpt>
      <trkpt lat="63.63975" lon="10.09102">
        <ele>66.889573</ele>
        <time>2020-08-08T10:34:41.465Z</time>
      </trkpt>
      <trkpt lat="63.63982" lon="10.0912">
        <ele>67.12524</ele>
        <time>2020-08-08T10:34:44.469Z</time>
      </trkpt>
      <trkpt lat="63.6399" lon="10.09139">
        <ele>67.263442</ele>
        <time>2020-08-08T10:34:47.452Z</time>
      </trkpt>
      <trkpt lat="63.63997" lon="10.09159">
        <ele>67.398354</ele>
        <time>2020-08-08T10:34:50.472Z</time>
      </trkpt>
      <trkpt lat="63.64005" lon="10.09179">
        <ele>67.540375</ele>
        <time>2020-08-08T10:34:53.470Z</time>
      </trkpt>
      <trkpt lat="63.64013" lon="10.09198">
        <ele>67.679739</ele>
        <time>2020-08-08T10:34:56.459Z</time>
      </trkpt>
      <trkpt lat="63.6402" lon="10.09219">
        <ele>67.819848</ele>
        <time>2020-08-08T10:34:59.481Z</time>
      </trkpt>
      <trkpt lat="63.64029" lon="10.0924">
        <ele>67.968615</ele>
        <time>2020-08-08T10:35:02.478Z</time>
      </trkpt>
      <trkpt lat="63.64037" lon="10.09262">
        <ele>68.126108</ele>
        <time>2020-08-08T10:35:05.463Z</time>
      </trkpt>
      <trkpt lat="63.64045" lon="10.09286">
        <ele>68.282912</ele>
        <time>2020-08-08T10:35:08.462Z</time>
      </trkpt>
      <trkpt lat="63.64054" lon="10.09308">
        <ele>68.440454</ele>
        <time>2020-08-08T10:35:11.470Z</time>
      </trkpt>
      <trkpt lat="63.64061" lon="10.09333">
        <ele>68.602126</ele>
        <time>2020-08-08T10:35:14.480Z</time>
      </trkpt>
      <trkpt lat="63.64067" lon="10.09349">
        <ele>68.710132</ele>
        <time>2020-08-08T10:35:16.470Z</time>
      </trkpt>
      <trkpt lat="63.64073" lon="10.09366">
        <ele>68.823195</ele>
        <time>2020-08-08T10:35:18.476Z</time>
      </trkpt>
      <trkpt lat="63.64078" lon="10.09383">
        <ele>68.934947</ele>
        <time>2020-08-08T10:35:20.462Z</time>
      </trkpt>
      <trkpt lat="63.64086" lon="10.09408">
        <ele>69.096721</ele>
        <time>2020-08-08T10:35:23.454Z</time>
      </trkpt>
      <trkpt lat="63.64092" lon="10.09424">
        <ele>69.206249</ele>
        <time>2020-08-08T10:35:25.488Z</time>
      </trkpt>
      <trkpt lat="63.64098" lon="10.0944">
        <ele>69.278582</ele>
        <time>2020-08-08T10:35:27.464Z</time>
      </trkpt>
      <trkpt lat="63.64104" lon="10.09456">
        <ele>69.266238</ele>
        <time>2020-08-08T10:35:29.499Z</time>
      </trkpt>
      <trkpt lat="63.64113" lon="10.09479">
        <ele>69.248821</ele>
        <time>2020-08-08T10:35:32.494Z</time>
      </trkpt>
      <trkpt lat="63.64121" lon="10.09502">
        <ele>69.231107</ele>
        <time>2020-08-08T10:35:35.454Z</time>
      </trkpt>
      <trkpt lat="63.64127" lon="10.09518">
        <ele>69.219033</ele>
        <time>2020-08-08T10:35:37.459Z</time>
      </trkpt>
      <trkpt lat="63.64133" lon="10.09535">
        <ele>69.206296</ele>
        <time>2020-08-08T10:35:39.469Z</time>
      </trkpt>
      <trkpt lat="63.64139" lon="10.09551">
        <ele>69.19427</ele>
        <time>2020-08-08T10:35:41.478Z</time>
      </trkpt>
      <trkpt lat="63.64145" lon="10.09567">
        <ele>69.182151</ele>
        <time>2020-08-08T10:35:43.492Z</time>
      </trkpt>
      <trkpt lat="63.64152" lon="10.09582">
        <ele>69.169864</ele>
        <time>2020-08-08T10:35:45.501Z</time>
      </trkpt>
      <trkpt lat="63.64158" lon="10.09598">
        <ele>69.157181</ele>
        <time>2020-08-08T10:35:47.453Z</time>
      </trkpt>
      <trkpt lat="63.64164" lon="10.09615">
        <ele>69.144368</ele>
        <time>2020-08-08T10:35:49.450Z</time>
      </trkpt>
      <trkpt lat="63.64171" lon="10.09632">
        <ele>69.131378</ele>
        <time>2020-08-08T10:35:51.542Z</time>
      </trkpt>
      <trkpt lat="63.64176" lon="10.09648">
        <ele>69.119373</ele>
        <time>2020-08-08T10:35:53.457Z</time>
      </trkpt>
      <trkpt lat="63.64184" lon="10.09671">
        <ele>69.102266</ele>
        <time>2020-08-08T10:35:56.447Z</time>
      </trkpt>
      <trkpt lat="63.64191" lon="10.09687">
        <ele>69.089847</ele>
        <time>2020-08-08T10:35:58.451Z</time>
      </trkpt>
      <trkpt lat="63.64196" lon="10.09704">
        <ele>69.077448</ele>
        <time>2020-08-08T10:36:00.477Z</time>
      </trkpt>
      <trkpt lat="63.64202" lon="10.09721">
        <ele>69.0653</ele>
        <time>2020-08-08T10:36:02.518Z</time>
      </trkpt>
      <trkpt lat="63.64207" lon="10.09739">
        <ele>69.052275</ele>
        <time>2020-08-08T10:36:04.477Z</time>
      </trkpt>
      <trkpt lat="63.64213" lon="10.09756">
        <ele>69.041876</ele>
        <time>2020-08-08T10:36:06.463Z</time>
      </trkpt>
      <trkpt lat="63.64219" lon="10.09774">
        <ele>69.033713</ele>
        <time>2020-08-08T10:36:08.476Z</time>
      </trkpt>
      <trkpt lat="63.64225" lon="10.09794">
        <ele>69.025067</ele>
        <time>2020-08-08T10:36:10.466Z</time>
      </trkpt>
      <trkpt lat="63.6423" lon="10.09812">
        <ele>69.01685</ele>
        <time>2020-08-08T10:36:12.474Z</time>
      </trkpt>
      <trkpt lat="63.64236" lon="10.0983">
        <ele>69.00877</ele>
        <time>2020-08-08T10:36:14.460Z</time>
      </trkpt>
      <trkpt lat="63.64241" lon="10.09848">
        <ele>69.000768</ele>
        <time>2020-08-08T10:36:16.446Z</time>
      </trkpt>
      <trkpt lat="63.64246" lon="10.09866">
        <ele>68.993072</ele>
        <time>2020-08-08T10:36:18.481Z</time>
      </trkpt>
      <trkpt lat="63.64251" lon="10.09884">
        <ele>68.985125</ele>
        <time>2020-08-08T10:36:20.462Z</time>
      </trkpt>
      <trkpt lat="63.64256" lon="10.09902">
        <ele>68.977653</ele>
        <time>2020-08-08T10:36:22.471Z</time>
      </trkpt>
      <trkpt lat="63.64263" lon="10.09927">
        <ele>68.966783</ele>
        <time>2020-08-08T10:36:25.474Z</time>
      </trkpt>
      <trkpt lat="63.6427" lon="10.0995">
        <ele>68.956236</ele>
        <time>2020-08-08T10:36:28.472Z</time>
      </trkpt>
      <trkpt lat="63.64277" lon="10.09969">
        <ele>68.946924</ele>
        <time>2020-08-08T10:36:31.495Z</time>
      </trkpt>
      <trkpt lat="63.64284" lon="10.0999">
        <ele>68.937589</ele>
        <time>2020-08-08T10:36:34.454Z</time>
      </trkpt>
      <trkpt lat="63.6429" lon="10.10009">
        <ele>68.929101</ele>
        <time>2020-08-08T10:36:37.445Z</time>
      </trkpt>
      <trkpt lat="63.64294" lon="10.10029">
        <ele>68.920895</ele>
        <time>2020-08-08T10:36:40.458Z</time>
      </trkpt>
      <trkpt lat="63.643" lon="10.10053">
        <ele>68.911025</ele>
        <time>2020-08-08T10:36:44.449Z</time>
      </trkpt>
      <trkpt lat="63.64305" lon="10.10071">
        <ele>68.903217</ele>
        <time>2020-08-08T10:36:47.462Z</time>
      </trkpt>
      <trkpt lat="63.64309" lon="10.10089">
        <ele>68.905507</ele>
        <time>2020-08-08T10:36:50.473Z</time>
      </trkpt>
      <trkpt lat="63.64315" lon="10.10112">
        <ele>68.980453</ele>
        <time>2020-08-08T10:36:54.459Z</time>
      </trkpt>
      <trkpt lat="63.64319" lon="10.10132">
        <ele>69.040058</ele>
        <time>2020-08-08T10:36:57.471Z</time>
      </trkpt>
      <trkpt lat="63.64324" lon="10.10151">
        <ele>69.098535</ele>
        <time>2020-08-08T10:37:00.469Z</time>
      </trkpt>
      <trkpt lat="63.64329" lon="10.10173">
        <ele>69.167705</ele>
        <time>2020-08-08T10:37:04.453Z</time>
      </trkpt>
      <trkpt lat="63.64335" lon="10.10192">
        <ele>69.230456</ele>
        <time>2020-08-08T10:37:08.460Z</time>
      </trkpt>
      <trkpt lat="63.64339" lon="10.1021">
        <ele>69.287183</ele>
        <time>2020-08-08T10:37:12.444Z</time>
      </trkpt>
      <trkpt lat="63.64343" lon="10.10232">
        <ele>69.350666</ele>
        <time>2020-08-08T10:37:17.469Z</time>
      </trkpt>
      <trkpt lat="63.64346" lon="10.10251">
        <ele>69.408775</ele>
        <time>2020-08-08T10:37:21.496Z</time>
      </trkpt>
      <trkpt lat="63.6435" lon="10.10274">
        <ele>69.476262</ele>
        <time>2020-08-08T10:37:25.457Z</time>
      </trkpt>
      <trkpt lat="63.64353" lon="10.10298">
        <ele>69.544531</ele>
        <time>2020-08-08T10:37:29.491Z</time>
      </trkpt>
      <trkpt lat="63.64357" lon="10.10322">
        <ele>69.61411</ele>
        <time>2020-08-08T10:37:33.455Z</time>
      </trkpt>
      <trkpt lat="63.64359" lon="10.10342">
        <ele>69.670659</ele>
        <time>2020-08-08T10:37:36.445Z</time>
      </trkpt>
      <trkpt lat="63.64361" lon="10.10363">
        <ele>69.730027</ele>
        <time>2020-08-08T10:37:39.485Z</time>
      </trkpt>
      <trkpt lat="63.64363" lon="10.10386">
        <ele>69.793369</ele>
        <time>2020-08-08T10:37:42.453Z</time>
      </trkpt>
      <trkpt lat="63.64364" lon="10.10409">
        <ele>69.859275</ele>
        <time>2020-08-08T10:37:45.474Z</time>
      </trkpt>
      <trkpt lat="63.64365" lon="10.10433">
        <ele>69.925456</ele>
        <time>2020-08-08T10:37:48.477Z</time>
      </trkpt>
      <trkpt lat="63.64366" lon="10.10455">
        <ele>69.984327</ele>
        <time>2020-08-08T10:37:51.500Z</time>
      </trkpt>
      <trkpt lat="63.64366" lon="10.10476">
        <ele>70.183677</ele>
        <time>2020-08-08T10:37:54.448Z</time>
      </trkpt>
      <trkpt lat="63.64366" lon="10.105">
        <ele>70.536706</ele>
        <time>2020-08-08T10:37:57.504Z</time>
      </trkpt>
      <trkpt lat="63.64366" lon="10.10524">
        <ele>70.891569</ele>
        <time>2020-08-08T10:38:00.502Z</time>
      </trkpt>
      <trkpt lat="63.64365" lon="10.1055">
        <ele>71.265085</ele>
        <time>2020-08-08T10:38:03.461Z</time>
      </trkpt>
      <trkpt lat="63.64364" lon="10.10574">
        <ele>71.620806</ele>
        <time>2020-08-08T10:38:06.467Z</time>
      </trkpt>
      <trkpt lat="63.64363" lon="10.10597">
        <ele>71.958288</ele>
        <time>2020-08-08T10:38:09.452Z</time>
      </trkpt>
      <trkpt lat="63.64363" lon="10.10619">
        <ele>72.285353</ele>
        <time>2020-08-08T10:38:12.488Z</time>
      </trkpt>
      <trkpt lat="63.64362" lon="10.1064">
        <ele>72.596179</ele>
        <time>2020-08-08T10:38:15.451Z</time>
      </trkpt>
      <trkpt lat="63.64361" lon="10.10661">
        <ele>72.895011</ele>
        <time>2020-08-08T10:38:18.472Z</time>
      </trkpt>
      <trkpt lat="63.6436" lon="10.10684">
        <ele>73.238992</ele>
        <time>2020-08-08T10:38:22.480Z</time>
      </trkpt>
      <trkpt lat="63.64359" lon="10.10708">
        <ele>73.58621</ele>
        <time>2020-08-08T10:38:27.463Z</time>
      </trkpt>
      <trkpt lat="63.64358" lon="10.10731">
        <ele>73.929749</ele>
        <time>2020-08-08T10:38:33.454Z</time>
      </trkpt>
      <trkpt lat="63.64357" lon="10.10754">
        <ele>74.274986</ele>
        <time>2020-08-08T10:38:39.448Z</time>
      </trkpt>
      <trkpt lat="63.64356" lon="10.10776">
        <ele>74.587614</ele>
        <time>2020-08-08T10:38:44.455Z</time>
      </trkpt>
      <trkpt lat="63.64356" lon="10.10796">
        <ele>74.891275</ele>
        <time>2020-08-08T10:38:49.470Z</time>
      </trkpt>
      <trkpt lat="63.64355" lon="10.10819">
        <ele>75.223959</ele>
        <time>2020-08-08T10:38:55.480Z</time>
      </trkpt>
      <trkpt lat="63.64353" lon="10.1084">
        <ele>75.541307</ele>
        <time>2020-08-08T10:39:01.472Z</time>
      </trkpt>
      <trkpt lat="63.64353" lon="10.10864">
        <ele>75.883003</ele>
        <time>2020-08-08T10:39:07.514Z</time>
      </trkpt>
      <trkpt lat="63.64352" lon="10.10886">
        <ele>76.195767</ele>
        <time>2020-08-08T10:39:13.490Z</time>
      </trkpt>
      <trkpt lat="63.64351" lon="10.10909">
        <ele>76.513151</ele>
        <time>2020-08-08T10:39:19.467Z</time>
      </trkpt>
      <trkpt lat="63.6435" lon="10.10934">
        <ele>76.844809</ele>
        <time>2020-08-08T10:39:25.444Z</time>
      </trkpt>
      <trkpt lat="63.6435" lon="10.10954">
        <ele>77.122982</ele>
        <time>2020-08-08T10:39:30.461Z</time>
      </trkpt>
      <trkpt lat="63.64349" lon="10.10974">
        <ele>77.398892</ele>
        <time>2020-08-08T10:39:35.477Z</time>
      </trkpt>
      <trkpt lat="63.64348" lon="10.10998">
        <ele>77.723771</ele>
        <time>2020-08-08T10:39:41.457Z</time>
      </trkpt>
      <trkpt lat="63.64347" lon="10.11021">
        <ele>78.035323</ele>
        <time>2020-08-08T10:39:46.490Z</time>
      </trkpt>
      <trkpt lat="63.64345" lon="10.11041">
        <ele>78.314772</ele>
        <time>2020-08-08T10:39:50.475Z</time>
      </trkpt>
      <trkpt lat="63.64345" lon="10.11063">
        <ele>78.616961</ele>
        <time>2020-08-08T10:39:54.501Z</time>
      </trkpt>
      <trkpt lat="63.64343" lon="10.11084">
        <ele>78.905494</ele>
        <time>2020-08-08T10:39:58.488Z</time>
      </trkpt>
      <trkpt lat="63.64342" lon="10.11105">
        <ele>79.193553</ele>
        <time>2020-08-08T10:40:02.493Z</time>
      </trkpt>
      <trkpt lat="63.64341" lon="10.11129">
        <ele>79.53068</ele>
        <time>2020-08-08T10:40:06.493Z</time>
      </trkpt>
      <trkpt lat="63.64341" lon="10.11156">
        <ele>79.890681</ele>
        <time>2020-08-08T10:40:10.471Z</time>
      </trkpt>
      <trkpt lat="63.64341" lon="10.11177">
        <ele>80.175533</ele>
        <time>2020-08-08T10:40:13.462Z</time>
      </trkpt>
      <trkpt lat="63.64339" lon="10.11203">
        <ele>80.531118</ele>
        <time>2020-08-08T10:40:17.457Z</time>
      </trkpt>
      <trkpt lat="63.64338" lon="10.11229">
        <ele>80.888438</ele>
        <time>2020-08-08T10:40:21.483Z</time>
      </trkpt>
      <trkpt lat="63.64336" lon="10.11254">
        <ele>81.232833</ele>
        <time>2020-08-08T10:40:25.461Z</time>
      </trkpt>
      <trkpt lat="63.64335" lon="10.11279">
        <ele>81.687596</ele>
        <time>2020-08-08T10:40:29.459Z</time>
      </trkpt>
      <trkpt lat="63.64334" lon="10.11303">
        <ele>82.37483</ele>
        <time>2020-08-08T10:40:33.494Z</time>
      </trkpt>
      <trkpt lat="63.64334" lon="10.11328">
        <ele>83.096352</ele>
        <time>2020-08-08T10:40:37.512Z</time>
      </trkpt>
      <trkpt lat="63.64335" lon="10.11353">
        <ele>83.798375</ele>
        <time>2020-08-08T10:40:41.479Z</time>
      </trkpt>
      <trkpt lat="63.64335" lon="10.11379">
        <ele>84.514485</ele>
        <time>2020-08-08T10:40:45.471Z</time>
      </trkpt>
      <trkpt lat="63.64337" lon="10.11402">
        <ele>85.179966</ele>
        <time>2020-08-08T10:40:49.473Z</time>
      </trkpt>
      <trkpt lat="63.64338" lon="10.11424">
        <ele>85.811652</ele>
        <time>2020-08-08T10:40:53.489Z</time>
      </trkpt>
      <trkpt lat="63.64339" lon="10.11447">
        <ele>86.454554</ele>
        <time>2020-08-08T10:40:57.470Z</time>
      </trkpt>
      <trkpt lat="63.6434" lon="10.11468">
        <ele>87.053047</ele>
        <time>2020-08-08T10:41:01.452Z</time>
      </trkpt>
      <trkpt lat="63.64342" lon="10.11492">
        <ele>87.746799</ele>
        <time>2020-08-08T10:41:06.461Z</time>
      </trkpt>
      <trkpt lat="63.64346" lon="10.11514">
        <ele>88.413981</ele>
        <time>2020-08-08T10:41:11.457Z</time>
      </trkpt>
      <trkpt lat="63.64351" lon="10.11535">
        <ele>89.072158</ele>
        <time>2020-08-08T10:41:17.452Z</time>
      </trkpt>
      <trkpt lat="63.64354" lon="10.11557">
        <ele>89.726969</ele>
        <time>2020-08-08T10:41:23.502Z</time>
      </trkpt>
      <trkpt lat="63.6436" lon="10.11577">
        <ele>90.39552</ele>
        <time>2020-08-08T10:41:29.469Z</time>
      </trkpt>
      <trkpt lat="63.64365" lon="10.11594">
        <ele>90.976103</ele>
        <time>2020-08-08T10:41:34.456Z</time>
      </trkpt>
      <trkpt lat="63.6437" lon="10.11613">
        <ele>91.597811</ele>
        <time>2020-08-08T10:41:40.449Z</time>
      </trkpt>
      <trkpt lat="63.64377" lon="10.1163">
        <ele>92.240669</ele>
        <time>2020-08-08T10:41:46.460Z</time>
      </trkpt>
      <trkpt lat="63.64384" lon="10.11643">
        <ele>92.814224</ele>
        <time>2020-08-08T10:41:51.451Z</time>
      </trkpt>
      <trkpt lat="63.6439" lon="10.11661">
        <ele>93.661057</ele>
        <time>2020-08-08T10:41:57.475Z</time>
      </trkpt>
      <trkpt lat="63.64397" lon="10.11677">
        <ele>94.588328</ele>
        <time>2020-08-08T10:42:04.478Z</time>
      </trkpt>
      <trkpt lat="63.64405" lon="10.11692">
        <ele>95.509149</ele>
        <time>2020-08-08T10:42:11.468Z</time>
      </trkpt>
      <trkpt lat="63.64413" lon="10.11707">
        <ele>96.435836</ele>
        <time>2020-08-08T10:42:17.530Z</time>
      </trkpt>
      <trkpt lat="63.64421" lon="10.11718">
        <ele>97.272616</ele>
        <time>2020-08-08T10:42:23.486Z</time>
      </trkpt>
      <trkpt lat="63.64429" lon="10.11728">
        <ele>98.144494</ele>
        <time>2020-08-08T10:42:29.510Z</time>
      </trkpt>
      <trkpt lat="63.64437" lon="10.1174">
        <ele>98.990455</ele>
        <time>2020-08-08T10:42:36.485Z</time>
      </trkpt>
      <trkpt lat="63.64445" lon="10.11751">
        <ele>99.851578</ele>
        <time>2020-08-08T10:42:42.502Z</time>
      </trkpt>
      <trkpt lat="63.64454" lon="10.11758">
        <ele>100.684494</ele>
        <time>2020-08-08T10:42:48.479Z</time>
      </trkpt>
      <trkpt lat="63.64461" lon="10.11771">
        <ele>101.487671</ele>
        <time>2020-08-08T10:42:54.451Z</time>
      </trkpt>
      <trkpt lat="63.64469" lon="10.11781">
        <ele>102.30716</ele>
        <time>2020-08-08T10:43:00.473Z</time>
      </trkpt>
      <trkpt lat="63.64477" lon="10.11793">
        <ele>103.224654</ele>
        <time>2020-08-08T10:43:07.462Z</time>
      </trkpt>
      <trkpt lat="63.64486" lon="10.11806">
        <ele>104.165125</ele>
        <time>2020-08-08T10:43:14.482Z</time>
      </trkpt>
      <trkpt lat="63.64493" lon="10.11819">
        <ele>104.992247</ele>
        <time>2020-08-08T10:43:20.481Z</time>
      </trkpt>
      <trkpt lat="63.64502" lon="10.11831">
        <ele>105.891141</ele>
        <time>2020-08-08T10:43:26.489Z</time>
      </trkpt>
      <trkpt lat="63.6451" lon="10.11843">
        <ele>106.807337</ele>
        <time>2020-08-08T10:43:33.487Z</time>
      </trkpt>
      <trkpt lat="63.64519" lon="10.11854">
        <ele>107.726174</ele>
        <time>2020-08-08T10:43:40.454Z</time>
      </trkpt>
      <trkpt lat="63.64527" lon="10.11863">
        <ele>108.552916</ele>
        <time>2020-08-08T10:43:46.497Z</time>
      </trkpt>
      <trkpt lat="63.64535" lon="10.11876">
        <ele>109.327361</ele>
        <time>2020-08-08T10:43:52.471Z</time>
      </trkpt>
      <trkpt lat="63.64543" lon="10.11891">
        <ele>110.00305</ele>
        <time>2020-08-08T10:44:00.477Z</time>
      </trkpt>
      <trkpt lat="63.6455" lon="10.11903">
        <ele>110.610992</ele>
        <time>2020-08-08T10:44:06.490Z</time>
      </trkpt>
      <trkpt lat="63.64557" lon="10.11917">
        <ele>111.275457</ele>
        <time>2020-08-08T10:44:12.492Z</time>
      </trkpt>
      <trkpt lat="63.64564" lon="10.11932">
        <ele>111.935011</ele>
        <time>2020-08-08T10:44:18.490Z</time>
      </trkpt>
      <trkpt lat="63.64571" lon="10.11947">
        <ele>112.555019</ele>
        <time>2020-08-08T10:44:24.457Z</time>
      </trkpt>
      <trkpt lat="63.64578" lon="10.11963">
        <ele>113.245251</ele>
        <time>2020-08-08T10:44:31.472Z</time>
      </trkpt>
      <trkpt lat="63.64583" lon="10.11981">
        <ele>113.887416</ele>
        <time>2020-08-08T10:44:37.519Z</time>
      </trkpt>
      <trkpt lat="63.64589" lon="10.11995">
        <ele>114.494023</ele>
        <time>2020-08-08T10:44:42.501Z</time>
      </trkpt>
      <trkpt lat="63.64595" lon="10.12013">
        <ele>115.133553</ele>
        <time>2020-08-08T10:44:49.479Z</time>
      </trkpt>
      <trkpt lat="63.646" lon="10.1203">
        <ele>115.749342</ele>
        <time>2020-08-08T10:44:56.486Z</time>
      </trkpt>
      <trkpt lat="63.64605" lon="10.12049">
        <ele>116.443058</ele>
        <time>2020-08-08T10:45:02.453Z</time>
      </trkpt>
      <trkpt lat="63.64611" lon="10.12067">
        <ele>117.093063</ele>
        <time>2020-08-08T10:45:07.500Z</time>
      </trkpt>
      <trkpt lat="63.64616" lon="10.12084">
        <ele>117.728868</ele>
        <time>2020-08-08T10:45:12.479Z</time>
      </trkpt>
      <trkpt lat="63.6462" lon="10.12104">
        <ele>118.373545</ele>
        <time>2020-08-08T10:45:16.485Z</time>
      </trkpt>
      <trkpt lat="63.64625" lon="10.12124">
        <ele>119.087566</ele>
        <time>2020-08-08T10:45:20.479Z</time>
      </trkpt>
      <trkpt lat="63.64629" lon="10.12143">
        <ele>119.70444</ele>
        <time>2020-08-08T10:45:23.484Z</time>
      </trkpt>
      <trkpt lat="63.64633" lon="10.12162">
        <ele>120.347023</ele>
        <time>2020-08-08T10:45:26.476Z</time>
      </trkpt>
      <trkpt lat="63.64637" lon="10.12183">
        <ele>121.03031</ele>
        <time>2020-08-08T10:45:29.466Z</time>
      </trkpt>
      <trkpt lat="63.64642" lon="10.12205">
        <ele>120.919583</ele>
        <time>2020-08-08T10:45:32.461Z</time>
      </trkpt>
      <trkpt lat="63.64647" lon="10.1223">
        <ele>120.326807</ele>
        <time>2020-08-08T10:45:35.518Z</time>
      </trkpt>
      <trkpt lat="63.64653" lon="10.12254">
        <ele>119.73651</ele>
        <time>2020-08-08T10:45:38.481Z</time>
      </trkpt>
      <trkpt lat="63.64657" lon="10.12272">
        <ele>119.301338</ele>
        <time>2020-08-08T10:45:40.455Z</time>
      </trkpt>
      <trkpt lat="63.64662" lon="10.1229">
        <ele>118.849477</ele>
        <time>2020-08-08T10:45:42.477Z</time>
      </trkpt>
      <trkpt lat="63.64667" lon="10.12309">
        <ele>118.386634</ele>
        <time>2020-08-08T10:45:44.491Z</time>
      </trkpt>
      <trkpt lat="63.64671" lon="10.1233">
        <ele>117.876587</ele>
        <time>2020-08-08T10:45:46.464Z</time>
      </trkpt>
      <trkpt lat="63.64676" lon="10.12352">
        <ele>117.341928</ele>
        <time>2020-08-08T10:45:48.457Z</time>
      </trkpt>
      <trkpt lat="63.64682" lon="10.12374">
        <ele>116.79702</ele>
        <time>2020-08-08T10:45:50.491Z</time>
      </trkpt>
      <trkpt lat="63.64687" lon="10.12396">
        <ele>116.259131</ele>
        <time>2020-08-08T10:45:52.462Z</time>
      </trkpt>
      <trkpt lat="63.64693" lon="10.12418">
        <ele>115.728096</ele>
        <time>2020-08-08T10:45:54.473Z</time>
      </trkpt>
      <trkpt lat="63.64698" lon="10.1244">
        <ele>115.191152</ele>
        <time>2020-08-08T10:45:56.484Z</time>
      </trkpt>
      <trkpt lat="63.64704" lon="10.12461">
        <ele>114.664978</ele>
        <time>2020-08-08T10:45:58.458Z</time>
      </trkpt>
      <trkpt lat="63.6471" lon="10.12483">
        <ele>114.099431</ele>
        <time>2020-08-08T10:46:00.472Z</time>
      </trkpt>
      <trkpt lat="63.64716" lon="10.12506">
        <ele>113.529529</ele>
        <time>2020-08-08T10:46:02.474Z</time>
      </trkpt>
      <trkpt lat="63.64722" lon="10.12528">
        <ele>112.974492</ele>
        <time>2020-08-08T10:46:04.480Z</time>
      </trkpt>
      <trkpt lat="63.64727" lon="10.12551">
        <ele>112.393164</ele>
        <time>2020-08-08T10:46:06.457Z</time>
      </trkpt>
      <trkpt lat="63.64734" lon="10.12574">
        <ele>111.734086</ele>
        <time>2020-08-08T10:46:08.464Z</time>
      </trkpt>
      <trkpt lat="63.6474" lon="10.12597">
        <ele>111.069219</ele>
        <time>2020-08-08T10:46:10.448Z</time>
      </trkpt>
      <trkpt lat="63.64746" lon="10.1262">
        <ele>110.388832</ele>
        <time>2020-08-08T10:46:12.440Z</time>
      </trkpt>
      <trkpt lat="63.64753" lon="10.12644">
        <ele>109.68731</ele>
        <time>2020-08-08T10:46:14.472Z</time>
      </trkpt>
      <trkpt lat="63.64761" lon="10.12667">
        <ele>108.971035</ele>
        <time>2020-08-08T10:46:16.472Z</time>
      </trkpt>
      <trkpt lat="63.64769" lon="10.12692">
        <ele>108.206474</ele>
        <time>2020-08-08T10:46:18.473Z</time>
      </trkpt>
      <trkpt lat="63.64777" lon="10.12719">
        <ele>107.424848</ele>
        <time>2020-08-08T10:46:20.501Z</time>
      </trkpt>
      <trkpt lat="63.64785" lon="10.12747">
        <ele>106.590843</ele>
        <time>2020-08-08T10:46:22.500Z</time>
      </trkpt>
      <trkpt lat="63.64794" lon="10.12775">
        <ele>105.726471</ele>
        <time>2020-08-08T10:46:24.466Z</time>
      </trkpt>
      <trkpt lat="63.64803" lon="10.12804">
        <ele>104.850843</ele>
        <time>2020-08-08T10:46:26.447Z</time>
      </trkpt>
      <trkpt lat="63.64813" lon="10.12835">
        <ele>103.928448</ele>
        <time>2020-08-08T10:46:28.491Z</time>
      </trkpt>
      <trkpt lat="63.64823" lon="10.12867">
        <ele>102.965886</ele>
        <time>2020-08-08T10:46:30.470Z</time>
      </trkpt>
      <trkpt lat="63.64832" lon="10.129">
        <ele>102.136971</ele>
        <time>2020-08-08T10:46:32.461Z</time>
      </trkpt>
      <trkpt lat="63.64842" lon="10.12932">
        <ele>101.425005</ele>
        <time>2020-08-08T10:46:34.450Z</time>
      </trkpt>
      <trkpt lat="63.64851" lon="10.12962">
        <ele>100.747611</ele>
        <time>2020-08-08T10:46:36.460Z</time>
      </trkpt>
      <trkpt lat="63.6486" lon="10.1299">
        <ele>100.12246</ele>
        <time>2020-08-08T10:46:38.481Z</time>
      </trkpt>
      <trkpt lat="63.64868" lon="10.13017">
        <ele>99.508143</ele>
        <time>2020-08-08T10:46:40.482Z</time>
      </trkpt>
      <trkpt lat="63.64876" lon="10.13045">
        <ele>98.899322</ele>
        <time>2020-08-08T10:46:42.444Z</time>
      </trkpt>
      <trkpt lat="63.64884" lon="10.13072">
        <ele>98.292802</ele>
        <time>2020-08-08T10:46:44.488Z</time>
      </trkpt>
      <trkpt lat="63.64893" lon="10.13099">
        <ele>97.681221</ele>
        <time>2020-08-08T10:46:46.462Z</time>
      </trkpt>
      <trkpt lat="63.64902" lon="10.13128">
        <ele>97.02108</ele>
        <time>2020-08-08T10:46:48.489Z</time>
      </trkpt>
      <trkpt lat="63.64912" lon="10.1316">
        <ele>96.296437</ele>
        <time>2020-08-08T10:46:50.495Z</time>
      </trkpt>
      <trkpt lat="63.64917" lon="10.13176">
        <ele>95.917321</ele>
        <time>2020-08-08T10:46:51.483Z</time>
      </trkpt>
      <trkpt lat="63.64923" lon="10.13193">
        <ele>95.533201</ele>
        <time>2020-08-08T10:46:52.469Z</time>
      </trkpt>
      <trkpt lat="63.64929" lon="10.13209">
        <ele>95.14466</ele>
        <time>2020-08-08T10:46:53.450Z</time>
      </trkpt>
      <trkpt lat="63.64934" lon="10.13227">
        <ele>94.800028</ele>
        <time>2020-08-08T10:46:54.479Z</time>
      </trkpt>
      <trkpt lat="63.6494" lon="10.13244">
        <ele>94.454551</ele>
        <time>2020-08-08T10:46:55.517Z</time>
      </trkpt>
      <trkpt lat="63.64946" lon="10.13262">
        <ele>94.106507</ele>
        <time>2020-08-08T10:46:56.467Z</time>
      </trkpt>
      <trkpt lat="63.64951" lon="10.1328">
        <ele>93.747354</ele>
        <time>2020-08-08T10:46:57.473Z</time>
      </trkpt>
      <trkpt lat="63.64957" lon="10.13299">
        <ele>93.385607</ele>
        <time>2020-08-08T10:46:58.477Z</time>
      </trkpt>
      <trkpt lat="63.64963" lon="10.13318">
        <ele>93.017146</ele>
        <time>2020-08-08T10:46:59.499Z</time>
      </trkpt>
      <trkpt lat="63.64969" lon="10.13337">
        <ele>92.655399</ele>
        <time>2020-08-08T10:47:00.493Z</time>
      </trkpt>
      <trkpt lat="63.64975" lon="10.13355">
        <ele>92.293653</ele>
        <time>2020-08-08T10:47:01.449Z</time>
      </trkpt>
      <trkpt lat="63.6498" lon="10.13374">
        <ele>91.933942</ele>
        <time>2020-08-08T10:47:02.515Z</time>
      </trkpt>
      <trkpt lat="63.64986" lon="10.13393">
        <ele>91.577555</ele>
        <time>2020-08-08T10:47:03.474Z</time>
      </trkpt>
      <trkpt lat="63.64992" lon="10.13411">
        <ele>91.228423</ele>
        <time>2020-08-08T10:47:04.469Z</time>
      </trkpt>
      <trkpt lat="63.64997" lon="10.13429">
        <ele>90.888547</ele>
        <time>2020-08-08T10:47:05.522Z</time>
      </trkpt>
      <trkpt lat="63.65002" lon="10.13446">
        <ele>90.55653</ele>
        <time>2020-08-08T10:47:06.469Z</time>
      </trkpt>
      <trkpt lat="63.65007" lon="10.13463">
        <ele>90.231168</ele>
        <time>2020-08-08T10:47:07.496Z</time>
      </trkpt>
      <trkpt lat="63.65017" lon="10.13496">
        <ele>89.601577</ele>
        <time>2020-08-08T10:47:09.461Z</time>
      </trkpt>
      <trkpt lat="63.65026" lon="10.13529">
        <ele>88.986334</ele>
        <time>2020-08-08T10:47:11.495Z</time>
      </trkpt>
      <trkpt lat="63.65034" lon="10.13561">
        <ele>88.512594</ele>
        <time>2020-08-08T10:47:13.440Z</time>
      </trkpt>
      <trkpt lat="63.65041" lon="10.13592">
        <ele>88.20342</ele>
        <time>2020-08-08T10:47:15.464Z</time>
      </trkpt>
      <trkpt lat="63.65047" lon="10.13622">
        <ele>87.912202</ele>
        <time>2020-08-08T10:47:17.441Z</time>
      </trkpt>
      <trkpt lat="63.65052" lon="10.13649">
        <ele>87.646328</ele>
        <time>2020-08-08T10:47:19.442Z</time>
      </trkpt>
      <trkpt lat="63.65056" lon="10.13674">
        <ele>87.413528</ele>
        <time>2020-08-08T10:47:21.461Z</time>
      </trkpt>
      <trkpt lat="63.65059" lon="10.13697">
        <ele>87.197439</ele>
        <time>2020-08-08T10:47:23.457Z</time>
      </trkpt>
      <trkpt lat="63.65063" lon="10.13719">
        <ele>86.989402</ele>
        <time>2020-08-08T10:47:25.457Z</time>
      </trkpt>
      <trkpt lat="63.65066" lon="10.13741">
        <ele>86.785768</ele>
        <time>2020-08-08T10:47:27.558Z</time>
      </trkpt>
      <trkpt lat="63.65069" lon="10.13763">
        <ele>86.574195</ele>
        <time>2020-08-08T10:47:29.452Z</time>
      </trkpt>
      <trkpt lat="63.65073" lon="10.13786">
        <ele>86.357685</ele>
        <time>2020-08-08T10:47:31.465Z</time>
      </trkpt>
      <trkpt lat="63.65076" lon="10.13811">
        <ele>86.126581</ele>
        <time>2020-08-08T10:47:33.488Z</time>
      </trkpt>
      <trkpt lat="63.65081" lon="10.13836">
        <ele>85.886537</ele>
        <time>2020-08-08T10:47:35.497Z</time>
      </trkpt>
      <trkpt lat="63.65084" lon="10.13861">
        <ele>85.653506</ele>
        <time>2020-08-08T10:47:37.453Z</time>
      </trkpt>
      <trkpt lat="63.65087" lon="10.13886">
        <ele>85.417379</ele>
        <time>2020-08-08T10:47:39.478Z</time>
      </trkpt>
      <trkpt lat="63.6509" lon="10.13914">
        <ele>85.160775</ele>
        <time>2020-08-08T10:47:41.452Z</time>
      </trkpt>
      <trkpt lat="63.65093" lon="10.13944">
        <ele>84.9858</ele>
        <time>2020-08-08T10:47:43.513Z</time>
      </trkpt>
      <trkpt lat="63.65096" lon="10.13974">
        <ele>84.881416</ele>
        <time>2020-08-08T10:47:45.453Z</time>
      </trkpt>
      <trkpt lat="63.65099" lon="10.14005">
        <ele>84.776545</ele>
        <time>2020-08-08T10:47:47.468Z</time>
      </trkpt>
      <trkpt lat="63.65102" lon="10.14035">
        <ele>84.673465</ele>
        <time>2020-08-08T10:47:49.477Z</time>
      </trkpt>
      <trkpt lat="63.65105" lon="10.14065">
        <ele>84.57137</ele>
        <time>2020-08-08T10:47:51.452Z</time>
      </trkpt>
      <trkpt lat="63.65108" lon="10.14094">
        <ele>84.471725</ele>
        <time>2020-08-08T10:47:53.454Z</time>
      </trkpt>
      <trkpt lat="63.65111" lon="10.14121">
        <ele>84.377632</ele>
        <time>2020-08-08T10:47:55.468Z</time>
      </trkpt>
      <trkpt lat="63.65114" lon="10.14149">
        <ele>84.283866</ele>
        <time>2020-08-08T10:47:57.503Z</time>
      </trkpt>
      <trkpt lat="63.65116" lon="10.14174">
        <ele>84.196605</ele>
        <time>2020-08-08T10:47:59.449Z</time>
      </trkpt>
      <trkpt lat="63.65118" lon="10.142">
        <ele>84.110001</ele>
        <time>2020-08-08T10:48:01.471Z</time>
      </trkpt>
      <trkpt lat="63.6512" lon="10.14224">
        <ele>84.027759</ele>
        <time>2020-08-08T10:48:03.484Z</time>
      </trkpt>
      <trkpt lat="63.65122" lon="10.14249">
        <ele>83.940023</ele>
        <time>2020-08-08T10:48:05.445Z</time>
      </trkpt>
      <trkpt lat="63.65125" lon="10.14276">
        <ele>83.849361</ele>
        <time>2020-08-08T10:48:07.493Z</time>
      </trkpt>
      <trkpt lat="63.65128" lon="10.14303">
        <ele>83.755384</ele>
        <time>2020-08-08T10:48:09.479Z</time>
      </trkpt>
      <trkpt lat="63.65132" lon="10.1433">
        <ele>83.66294</ele>
        <time>2020-08-08T10:48:11.463Z</time>
      </trkpt>
      <trkpt lat="63.65135" lon="10.14357">
        <ele>83.571363</ele>
        <time>2020-08-08T10:48:13.492Z</time>
      </trkpt>
      <trkpt lat="63.65139" lon="10.14384">
        <ele>83.477528</ele>
        <time>2020-08-08T10:48:15.452Z</time>
      </trkpt>
      <trkpt lat="63.65144" lon="10.14411">
        <ele>83.38177</ele>
        <time>2020-08-08T10:48:17.448Z</time>
      </trkpt>
      <trkpt lat="63.6515" lon="10.14439">
        <ele>83.284278</ele>
        <time>2020-08-08T10:48:19.493Z</time>
      </trkpt>
      <trkpt lat="63.65156" lon="10.14465">
        <ele>83.18703</ele>
        <time>2020-08-08T10:48:21.469Z</time>
      </trkpt>
      <trkpt lat="63.65162" lon="10.14491">
        <ele>83.090277</ele>
        <time>2020-08-08T10:48:23.457Z</time>
      </trkpt>
      <trkpt lat="63.65168" lon="10.14517">
        <ele>82.9963</ele>
        <time>2020-08-08T10:48:25.439Z</time>
      </trkpt>
      <trkpt lat="63.65174" lon="10.14541">
        <ele>82.906649</ele>
        <time>2020-08-08T10:48:27.491Z</time>
      </trkpt>
      <trkpt lat="63.65181" lon="10.14564">
        <ele>82.815551</ele>
        <time>2020-08-08T10:48:29.449Z</time>
      </trkpt>
      <trkpt lat="63.65187" lon="10.14585">
        <ele>82.733121</ele>
        <time>2020-08-08T10:48:31.452Z</time>
      </trkpt>
      <trkpt lat="63.65194" lon="10.14607">
        <ele>82.648128</ele>
        <time>2020-08-08T10:48:33.518Z</time>
      </trkpt>
      <trkpt lat="63.652" lon="10.14627">
        <ele>82.571118</ele>
        <time>2020-08-08T10:48:35.502Z</time>
      </trkpt>
      <trkpt lat="63.65205" lon="10.14646">
        <ele>82.49693</ele>
        <time>2020-08-08T10:48:37.497Z</time>
      </trkpt>
      <trkpt lat="63.65211" lon="10.14665">
        <ele>82.424382</ele>
        <time>2020-08-08T10:48:39.491Z</time>
      </trkpt>
      <trkpt lat="63.65216" lon="10.14682">
        <ele>82.339983</ele>
        <time>2020-08-08T10:48:41.479Z</time>
      </trkpt>
      <trkpt lat="63.65222" lon="10.14699">
        <ele>82.169987</ele>
        <time>2020-08-08T10:48:43.495Z</time>
      </trkpt>
      <trkpt lat="63.65228" lon="10.14715">
        <ele>82.015831</ele>
        <time>2020-08-08T10:48:45.458Z</time>
      </trkpt>
      <trkpt lat="63.65236" lon="10.14738">
        <ele>81.797433</ele>
        <time>2020-08-08T10:48:48.479Z</time>
      </trkpt>
      <trkpt lat="63.65243" lon="10.14754">
        <ele>81.628081</ele>
        <time>2020-08-08T10:48:50.474Z</time>
      </trkpt>
      <trkpt lat="63.6525" lon="10.14771">
        <ele>81.452075</ele>
        <time>2020-08-08T10:48:52.477Z</time>
      </trkpt>
      <trkpt lat="63.65257" lon="10.14789">
        <ele>81.27777</ele>
        <time>2020-08-08T10:48:54.500Z</time>
      </trkpt>
      <trkpt lat="63.65264" lon="10.14806">
        <ele>81.098365</ele>
        <time>2020-08-08T10:48:56.473Z</time>
      </trkpt>
      <trkpt lat="63.65271" lon="10.14825">
        <ele>80.91835</ele>
        <time>2020-08-08T10:48:58.502Z</time>
      </trkpt>
      <trkpt lat="63.65278" lon="10.14843">
        <ele>80.733855</ele>
        <time>2020-08-08T10:49:00.469Z</time>
      </trkpt>
      <trkpt lat="63.65285" lon="10.14863">
        <ele>80.54378</ele>
        <time>2020-08-08T10:49:02.454Z</time>
      </trkpt>
      <trkpt lat="63.65293" lon="10.14883">
        <ele>80.342961</ele>
        <time>2020-08-08T10:49:04.470Z</time>
      </trkpt>
      <trkpt lat="63.65301" lon="10.14904">
        <ele>80.134342</ele>
        <time>2020-08-08T10:49:06.490Z</time>
      </trkpt>
      <trkpt lat="63.65309" lon="10.14924">
        <ele>79.926846</ele>
        <time>2020-08-08T10:49:08.466Z</time>
      </trkpt>
      <trkpt lat="63.65318" lon="10.14945">
        <ele>79.713058</ele>
        <time>2020-08-08T10:49:10.507Z</time>
      </trkpt>
      <trkpt lat="63.65326" lon="10.14966">
        <ele>79.498179</ele>
        <time>2020-08-08T10:49:12.462Z</time>
      </trkpt>
      <trkpt lat="63.65335" lon="10.14986">
        <ele>79.267476</ele>
        <time>2020-08-08T10:49:14.481Z</time>
      </trkpt>
      <trkpt lat="63.65344" lon="10.15007">
        <ele>78.910985</ele>
        <time>2020-08-08T10:49:16.497Z</time>
      </trkpt>
      <trkpt lat="63.65354" lon="10.15029">
        <ele>78.544646</ele>
        <time>2020-08-08T10:49:18.484Z</time>
      </trkpt>
      <trkpt lat="63.65364" lon="10.15051">
        <ele>78.173663</ele>
        <time>2020-08-08T10:49:20.459Z</time>
      </trkpt>
      <trkpt lat="63.65374" lon="10.15073">
        <ele>77.801857</ele>
        <time>2020-08-08T10:49:22.471Z</time>
      </trkpt>
      <trkpt lat="63.65384" lon="10.15093">
        <ele>77.437837</ele>
        <time>2020-08-08T10:49:24.473Z</time>
      </trkpt>
      <trkpt lat="63.65394" lon="10.15112">
        <ele>77.08984</ele>
        <time>2020-08-08T10:49:26.446Z</time>
      </trkpt>
      <trkpt lat="63.65405" lon="10.15131">
        <ele>76.73493</ele>
        <time>2020-08-08T10:49:28.478Z</time>
      </trkpt>
      <trkpt lat="63.65415" lon="10.1515">
        <ele>76.37809</ele>
        <time>2020-08-08T10:49:30.469Z</time>
      </trkpt>
      <trkpt lat="63.65426" lon="10.15168">
        <ele>76.017094</ele>
        <time>2020-08-08T10:49:32.510Z</time>
      </trkpt>
      <trkpt lat="63.65437" lon="10.15187">
        <ele>75.637498</ele>
        <time>2020-08-08T10:49:34.478Z</time>
      </trkpt>
      <trkpt lat="63.6545" lon="10.15207">
        <ele>75.229277</ele>
        <time>2020-08-08T10:49:36.495Z</time>
      </trkpt>
      <trkpt lat="63.65464" lon="10.15227">
        <ele>74.791698</ele>
        <time>2020-08-08T10:49:38.494Z</time>
      </trkpt>
      <trkpt lat="63.65478" lon="10.15248">
        <ele>74.32552</ele>
        <time>2020-08-08T10:49:40.494Z</time>
      </trkpt>
      <trkpt lat="63.65492" lon="10.15269">
        <ele>73.84282</ele>
        <time>2020-08-08T10:49:42.485Z</time>
      </trkpt>
      <trkpt lat="63.65505" lon="10.15291">
        <ele>73.364593</ele>
        <time>2020-08-08T10:49:44.449Z</time>
      </trkpt>
      <trkpt lat="63.65517" lon="10.15314">
        <ele>72.903907</ele>
        <time>2020-08-08T10:49:46.492Z</time>
      </trkpt>
      <trkpt lat="63.65529" lon="10.15336">
        <ele>72.45303</ele>
        <time>2020-08-08T10:49:48.468Z</time>
      </trkpt>
      <trkpt lat="63.6554" lon="10.15358">
        <ele>72.027058</ele>
        <time>2020-08-08T10:49:50.487Z</time>
      </trkpt>
      <trkpt lat="63.65551" lon="10.15379">
        <ele>71.623554</ele>
        <time>2020-08-08T10:49:52.466Z</time>
      </trkpt>
      <trkpt lat="63.6556" lon="10.154">
        <ele>71.235722</ele>
        <time>2020-08-08T10:49:54.532Z</time>
      </trkpt>
      <trkpt lat="63.65569" lon="10.1542">
        <ele>70.8747</ele>
        <time>2020-08-08T10:49:56.449Z</time>
      </trkpt>
      <trkpt lat="63.65576" lon="10.1544">
        <ele>70.532152</ele>
        <time>2020-08-08T10:49:58.493Z</time>
      </trkpt>
      <trkpt lat="63.65584" lon="10.1546">
        <ele>70.208796</ele>
        <time>2020-08-08T10:50:00.450Z</time>
      </trkpt>
      <trkpt lat="63.6559" lon="10.15478">
        <ele>69.898795</ele>
        <time>2020-08-08T10:50:02.457Z</time>
      </trkpt>
      <trkpt lat="63.65597" lon="10.15496">
        <ele>69.598612</ele>
        <time>2020-08-08T10:50:04.482Z</time>
      </trkpt>
      <trkpt lat="63.65604" lon="10.15513">
        <ele>69.315676</ele>
        <time>2020-08-08T10:50:06.456Z</time>
      </trkpt>
      <trkpt lat="63.6561" lon="10.1553">
        <ele>69.406108</ele>
        <time>2020-08-08T10:50:08.529Z</time>
      </trkpt>
      <trkpt lat="63.65617" lon="10.15546">
        <ele>69.493774</ele>
        <time>2020-08-08T10:50:10.482Z</time>
      </trkpt>
      <trkpt lat="63.65623" lon="10.15561">
        <ele>69.579001</ele>
        <time>2020-08-08T10:50:12.473Z</time>
      </trkpt>
      <trkpt lat="63.65631" lon="10.15584">
        <ele>69.703142</ele>
        <time>2020-08-08T10:50:15.494Z</time>
      </trkpt>
      <trkpt lat="63.65638" lon="10.15599">
        <ele>69.789654</ele>
        <time>2020-08-08T10:50:17.458Z</time>
      </trkpt>
      <trkpt lat="63.65644" lon="10.15615">
        <ele>69.875194</ele>
        <time>2020-08-08T10:50:19.516Z</time>
      </trkpt>
      <trkpt lat="63.65651" lon="10.1563">
        <ele>69.960474</ele>
        <time>2020-08-08T10:50:21.473Z</time>
      </trkpt>
      <trkpt lat="63.65659" lon="10.15652">
        <ele>70.081556</ele>
        <time>2020-08-08T10:50:24.496Z</time>
      </trkpt>
      <trkpt lat="63.65665" lon="10.15667">
        <ele>70.165248</ele>
        <time>2020-08-08T10:50:26.460Z</time>
      </trkpt>
      <trkpt lat="63.65671" lon="10.15683">
        <ele>70.250163</ele>
        <time>2020-08-08T10:50:28.474Z</time>
      </trkpt>
      <trkpt lat="63.6568" lon="10.15706">
        <ele>70.371889</ele>
        <time>2020-08-08T10:50:31.474Z</time>
      </trkpt>
      <trkpt lat="63.65688" lon="10.15727">
        <ele>70.486229</ele>
        <time>2020-08-08T10:50:34.486Z</time>
      </trkpt>
      <trkpt lat="63.65696" lon="10.15748">
        <ele>70.600279</ele>
        <time>2020-08-08T10:50:37.453Z</time>
      </trkpt>
      <trkpt lat="63.65704" lon="10.15769">
        <ele>70.71709</ele>
        <time>2020-08-08T10:50:40.471Z</time>
      </trkpt>
      <trkpt lat="63.65712" lon="10.15791">
        <ele>70.834876</ele>
        <time>2020-08-08T10:50:43.460Z</time>
      </trkpt>
      <trkpt lat="63.65721" lon="10.15813">
        <ele>70.955338</ele>
        <time>2020-08-08T10:50:46.479Z</time>
      </trkpt>
      <trkpt lat="63.6573" lon="10.15834">
        <ele>70.944881</ele>
        <time>2020-08-08T10:50:49.502Z</time>
      </trkpt>
      <trkpt lat="63.65739" lon="10.15857">
        <ele>70.908816</ele>
        <time>2020-08-08T10:50:52.463Z</time>
      </trkpt>
      <trkpt lat="63.65748" lon="10.15879">
        <ele>70.87284</ele>
        <time>2020-08-08T10:50:55.468Z</time>
      </trkpt>
      <trkpt lat="63.65757" lon="10.15901">
        <ele>70.836578</ele>
        <time>2020-08-08T10:50:58.455Z</time>
      </trkpt>
      <trkpt lat="63.65763" lon="10.15916">
        <ele>70.81147</ele>
        <time>2020-08-08T10:51:00.491Z</time>
      </trkpt>
      <trkpt lat="63.65769" lon="10.15931">
        <ele>70.787097</ele>
        <time>2020-08-08T10:51:02.469Z</time>
      </trkpt>
      <trkpt lat="63.65778" lon="10.15955">
        <ele>70.750563</ele>
        <time>2020-08-08T10:51:05.488Z</time>
      </trkpt>
      <trkpt lat="63.65784" lon="10.1597">
        <ele>70.725017</ele>
        <time>2020-08-08T10:51:07.465Z</time>
      </trkpt>
      <trkpt lat="63.65791" lon="10.15988">
        <ele>70.698353</ele>
        <time>2020-08-08T10:51:09.458Z</time>
      </trkpt>
      <trkpt lat="63.65797" lon="10.16005">
        <ele>70.671101</ele>
        <time>2020-08-08T10:51:11.502Z</time>
      </trkpt>
      <trkpt lat="63.65804" lon="10.16022">
        <ele>70.64367</ele>
        <time>2020-08-08T10:51:13.477Z</time>
      </trkpt>
      <trkpt lat="63.6581" lon="10.16038">
        <ele>70.617409</ele>
        <time>2020-08-08T10:51:15.486Z</time>
      </trkpt>
      <trkpt lat="63.65817" lon="10.16054">
        <ele>70.591502</ele>
        <time>2020-08-08T10:51:17.471Z</time>
      </trkpt>
      <trkpt lat="63.65823" lon="10.16069">
        <ele>70.566227</ele>
        <time>2020-08-08T10:51:19.506Z</time>
      </trkpt>
      <trkpt lat="63.6583" lon="10.16085">
        <ele>70.540507</ele>
        <time>2020-08-08T10:51:21.459Z</time>
      </trkpt>
      <trkpt lat="63.65836" lon="10.16101">
        <ele>70.515055</ele>
        <time>2020-08-08T10:51:23.467Z</time>
      </trkpt>
      <trkpt lat="63.65842" lon="10.16116">
        <ele>70.489859</ele>
        <time>2020-08-08T10:51:25.467Z</time>
      </trkpt>
      <trkpt lat="63.65851" lon="10.16139">
        <ele>70.517715</ele>
        <time>2020-08-08T10:51:28.459Z</time>
      </trkpt>
      <trkpt lat="63.65857" lon="10.16155">
        <ele>70.540587</ele>
        <time>2020-08-08T10:51:30.475Z</time>
      </trkpt>
      <trkpt lat="63.65863" lon="10.16171">
        <ele>70.563862</ele>
        <time>2020-08-08T10:51:32.485Z</time>
      </trkpt>
      <trkpt lat="63.6587" lon="10.16187">
        <ele>70.587712</ele>
        <time>2020-08-08T10:51:34.481Z</time>
      </trkpt>
      <trkpt lat="63.65876" lon="10.16203">
        <ele>70.611248</ele>
        <time>2020-08-08T10:51:36.467Z</time>
      </trkpt>
      <trkpt lat="63.65882" lon="10.16221">
        <ele>70.635206</ele>
        <time>2020-08-08T10:51:38.453Z</time>
      </trkpt>
      <trkpt lat="63.65889" lon="10.16237">
        <ele>70.659136</ele>
        <time>2020-08-08T10:51:40.488Z</time>
      </trkpt>
      <trkpt lat="63.65895" lon="10.16253">
        <ele>70.682981</ele>
        <time>2020-08-08T10:51:42.484Z</time>
      </trkpt>
      <trkpt lat="63.65901" lon="10.16268">
        <ele>70.70512</ele>
        <time>2020-08-08T10:51:44.491Z</time>
      </trkpt>
      <trkpt lat="63.65908" lon="10.16283">
        <ele>70.728011</ele>
        <time>2020-08-08T10:51:46.457Z</time>
      </trkpt>
      <trkpt lat="63.65915" lon="10.16298">
        <ele>70.751801</ele>
        <time>2020-08-08T10:51:48.488Z</time>
      </trkpt>
      <trkpt lat="63.65922" lon="10.16315">
        <ele>70.775811</ele>
        <time>2020-08-08T10:51:50.505Z</time>
      </trkpt>
      <trkpt lat="63.65928" lon="10.1633">
        <ele>70.79811</ele>
        <time>2020-08-08T10:51:52.502Z</time>
      </trkpt>
      <trkpt lat="63.65933" lon="10.16346">
        <ele>70.820746</ele>
        <time>2020-08-08T10:51:54.447Z</time>
      </trkpt>
      <trkpt lat="63.6594" lon="10.16361">
        <ele>70.842725</ele>
        <time>2020-08-08T10:51:56.471Z</time>
      </trkpt>
      <trkpt lat="63.65946" lon="10.16376">
        <ele>70.864783</ele>
        <time>2020-08-08T10:51:58.457Z</time>
      </trkpt>
      <trkpt lat="63.65952" lon="10.16391">
        <ele>70.887415</ele>
        <time>2020-08-08T10:52:00.488Z</time>
      </trkpt>
      <trkpt lat="63.65961" lon="10.16412">
        <ele>70.919679</ele>
        <time>2020-08-08T10:52:03.509Z</time>
      </trkpt>
      <trkpt lat="63.6597" lon="10.16433">
        <ele>70.959568</ele>
        <time>2020-08-08T10:52:06.435Z</time>
      </trkpt>
      <trkpt lat="63.65979" lon="10.16453">
        <ele>71.001741</ele>
        <time>2020-08-08T10:52:09.480Z</time>
      </trkpt>
      <trkpt lat="63.65989" lon="10.1647">
        <ele>71.043369</ele>
        <time>2020-08-08T10:52:12.479Z</time>
      </trkpt>
      <trkpt lat="63.65999" lon="10.16487">
        <ele>71.085432</ele>
        <time>2020-08-08T10:52:15.479Z</time>
      </trkpt>
      <trkpt lat="63.66009" lon="10.16504">
        <ele>71.126072</ele>
        <time>2020-08-08T10:52:18.462Z</time>
      </trkpt>
      <trkpt lat="63.66019" lon="10.1652">
        <ele>71.168255</ele>
        <time>2020-08-08T10:52:21.453Z</time>
      </trkpt>
      <trkpt lat="63.66029" lon="10.16535">
        <ele>71.208419</ele>
        <time>2020-08-08T10:52:24.468Z</time>
      </trkpt>
      <trkpt lat="63.66039" lon="10.16551">
        <ele>71.249425</ele>
        <time>2020-08-08T10:52:27.502Z</time>
      </trkpt>
      <trkpt lat="63.66049" lon="10.16568">
        <ele>71.291931</ele>
        <time>2020-08-08T10:52:30.472Z</time>
      </trkpt>
      <trkpt lat="63.66059" lon="10.16585">
        <ele>71.333104</ele>
        <time>2020-08-08T10:52:33.487Z</time>
      </trkpt>
      <trkpt lat="63.66069" lon="10.16601">
        <ele>71.374467</ele>
        <time>2020-08-08T10:52:36.451Z</time>
      </trkpt>
      <trkpt lat="63.66079" lon="10.16617">
        <ele>71.415575</ele>
        <time>2020-08-08T10:52:39.471Z</time>
      </trkpt>
      <trkpt lat="63.6609" lon="10.16635">
        <ele>71.458973</ele>
        <time>2020-08-08T10:52:42.465Z</time>
      </trkpt>
      <trkpt lat="63.66101" lon="10.16651">
        <ele>71.502066</ele>
        <time>2020-08-08T10:52:45.475Z</time>
      </trkpt>
      <trkpt lat="63.66112" lon="10.16666">
        <ele>71.591761</ele>
        <time>2020-08-08T10:52:48.458Z</time>
      </trkpt>
      <trkpt lat="63.66122" lon="10.16684">
        <ele>71.748825</ele>
        <time>2020-08-08T10:52:51.507Z</time>
      </trkpt>
      <trkpt lat="63.66132" lon="10.16702">
        <ele>71.905267</ele>
        <time>2020-08-08T10:52:54.454Z</time>
      </trkpt>
      <trkpt lat="63.66143" lon="10.16719">
        <ele>72.064639</ele>
        <time>2020-08-08T10:52:57.449Z</time>
      </trkpt>
      <trkpt lat="63.66154" lon="10.16736">
        <ele>72.226686</ele>
        <time>2020-08-08T10:53:00.481Z</time>
      </trkpt>
      <trkpt lat="63.66164" lon="10.16754">
        <ele>72.388301</ele>
        <time>2020-08-08T10:53:03.468Z</time>
      </trkpt>
      <trkpt lat="63.66174" lon="10.16772">
        <ele>72.542215</ele>
        <time>2020-08-08T10:53:06.468Z</time>
      </trkpt>
      <trkpt lat="63.66184" lon="10.16791">
        <ele>72.701577</ele>
        <time>2020-08-08T10:53:09.470Z</time>
      </trkpt>
      <trkpt lat="63.66192" lon="10.16814">
        <ele>72.862678</ele>
        <time>2020-08-08T10:53:12.515Z</time>
      </trkpt>
      <trkpt lat="63.66197" lon="10.16831">
        <ele>72.972244</ele>
        <time>2020-08-08T10:53:14.469Z</time>
      </trkpt>
      <trkpt lat="63.66204" lon="10.16854">
        <ele>73.12281</ele>
        <time>2020-08-08T10:53:17.492Z</time>
      </trkpt>
      <trkpt lat="63.6621" lon="10.16879">
        <ele>73.275793</ele>
        <time>2020-08-08T10:53:20.479Z</time>
      </trkpt>
      <trkpt lat="63.66216" lon="10.16904">
        <ele>73.428439</ele>
        <time>2020-08-08T10:53:23.514Z</time>
      </trkpt>
      <trkpt lat="63.66221" lon="10.16929">
        <ele>73.578478</ele>
        <time>2020-08-08T10:53:26.516Z</time>
      </trkpt>
      <trkpt lat="63.66226" lon="10.16954">
        <ele>73.725806</ele>
        <time>2020-08-08T10:53:29.485Z</time>
      </trkpt>
      <trkpt lat="63.66229" lon="10.16978">
        <ele>74.001233</ele>
        <time>2020-08-08T10:53:32.519Z</time>
      </trkpt>
      <trkpt lat="63.66232" lon="10.17003">
        <ele>74.278308</ele>
        <time>2020-08-08T10:53:35.478Z</time>
      </trkpt>
      <trkpt lat="63.66235" lon="10.17029">
        <ele>74.565772</ele>
        <time>2020-08-08T10:53:38.454Z</time>
      </trkpt>
      <trkpt lat="63.66237" lon="10.17054">
        <ele>74.845655</ele>
        <time>2020-08-08T10:53:41.457Z</time>
      </trkpt>
      <trkpt lat="63.66239" lon="10.17079">
        <ele>75.114292</ele>
        <time>2020-08-08T10:53:44.479Z</time>
      </trkpt>
      <trkpt lat="63.66241" lon="10.17103">
        <ele>75.382312</ele>
        <time>2020-08-08T10:53:47.512Z</time>
      </trkpt>
      <trkpt lat="63.66243" lon="10.17126">
        <ele>75.638844</ele>
        <time>2020-08-08T10:53:50.455Z</time>
      </trkpt>
      <trkpt lat="63.66246" lon="10.17148">
        <ele>75.882062</ele>
        <time>2020-08-08T10:53:53.471Z</time>
      </trkpt>
      <trkpt lat="63.66249" lon="10.17168">
        <ele>76.116399</ele>
        <time>2020-08-08T10:53:56.470Z</time>
      </trkpt>
      <trkpt lat="63.66252" lon="10.17188">
        <ele>76.344583</ele>
        <time>2020-08-08T10:53:59.485Z</time>
      </trkpt>
      <trkpt lat="63.66256" lon="10.17208">
        <ele>76.574945</ele>
        <time>2020-08-08T10:54:02.450Z</time>
      </trkpt>
      <trkpt lat="63.66259" lon="10.17228">
        <ele>76.801688</ele>
        <time>2020-08-08T10:54:05.518Z</time>
      </trkpt>
      <trkpt lat="63.66262" lon="10.17247">
        <ele>77.022718</ele>
        <time>2020-08-08T10:54:08.483Z</time>
      </trkpt>
      <trkpt lat="63.66265" lon="10.17267">
        <ele>77.25145</ele>
        <time>2020-08-08T10:54:12.511Z</time>
      </trkpt>
      <trkpt lat="63.66275" lon="10.17312">
        <ele>77.798111</ele>
        <time>2020-08-08T11:05:19.480Z</time>
      </trkpt>
      <trkpt lat="63.66281" lon="10.17332">
        <ele>78.057761</ele>
        <time>2020-08-08T11:05:23.461Z</time>
      </trkpt>
      <trkpt lat="63.66287" lon="10.17348">
        <ele>78.120911</ele>
        <time>2020-08-08T11:05:26.462Z</time>
      </trkpt>
      <trkpt lat="63.66293" lon="10.17366">
        <ele>78.141587</ele>
        <time>2020-08-08T11:05:29.510Z</time>
      </trkpt>
      <trkpt lat="63.66299" lon="10.17385">
        <ele>78.162685</ele>
        <time>2020-08-08T11:05:32.476Z</time>
      </trkpt>
      <trkpt lat="63.66305" lon="10.17404">
        <ele>78.184276</ele>
        <time>2020-08-08T11:05:35.447Z</time>
      </trkpt>
      <trkpt lat="63.66311" lon="10.17423">
        <ele>78.205694</ele>
        <time>2020-08-08T11:05:38.479Z</time>
      </trkpt>
      <trkpt lat="63.66317" lon="10.17444">
        <ele>78.228565</ele>
        <time>2020-08-08T11:05:41.477Z</time>
      </trkpt>
      <trkpt lat="63.66324" lon="10.17466">
        <ele>78.253484</ele>
        <time>2020-08-08T11:05:44.465Z</time>
      </trkpt>
      <trkpt lat="63.6633" lon="10.17487">
        <ele>78.27798</ele>
        <time>2020-08-08T11:05:47.522Z</time>
      </trkpt>
      <trkpt lat="63.66337" lon="10.17509">
        <ele>78.30272</ele>
        <time>2020-08-08T11:05:50.492Z</time>
      </trkpt>
      <trkpt lat="63.66344" lon="10.17531">
        <ele>78.32709</ele>
        <time>2020-08-08T11:05:53.448Z</time>
      </trkpt>
      <trkpt lat="63.66351" lon="10.17554">
        <ele>78.352735</ele>
        <time>2020-08-08T11:05:56.517Z</time>
      </trkpt>
      <trkpt lat="63.66357" lon="10.17577">
        <ele>78.378269</ele>
        <time>2020-08-08T11:05:59.462Z</time>
      </trkpt>
      <trkpt lat="63.66364" lon="10.17601">
        <ele>78.404105</ele>
        <time>2020-08-08T11:06:02.463Z</time>
      </trkpt>
      <trkpt lat="63.66371" lon="10.17624">
        <ele>78.429373</ele>
        <time>2020-08-08T11:06:05.477Z</time>
      </trkpt>
      <trkpt lat="63.66377" lon="10.17647">
        <ele>78.454264</ele>
        <time>2020-08-08T11:06:08.471Z</time>
      </trkpt>
      <trkpt lat="63.66382" lon="10.17668">
        <ele>78.477508</ele>
        <time>2020-08-08T11:06:11.454Z</time>
      </trkpt>
      <trkpt lat="63.66388" lon="10.17689">
        <ele>78.657934</ele>
        <time>2020-08-08T11:06:14.465Z</time>
      </trkpt>
      <trkpt lat="63.66393" lon="10.17709">
        <ele>78.845584</ele>
        <time>2020-08-08T11:06:17.510Z</time>
      </trkpt>
      <trkpt lat="63.66398" lon="10.17727">
        <ele>79.026345</ele>
        <time>2020-08-08T11:06:20.448Z</time>
      </trkpt>
      <trkpt lat="63.66403" lon="10.17746">
        <ele>79.212344</ele>
        <time>2020-08-08T11:06:23.447Z</time>
      </trkpt>
      <trkpt lat="63.66409" lon="10.17764">
        <ele>79.392337</ele>
        <time>2020-08-08T11:06:26.482Z</time>
      </trkpt>
      <trkpt lat="63.66414" lon="10.1778">
        <ele>79.56513</ele>
        <time>2020-08-08T11:06:29.491Z</time>
      </trkpt>
      <trkpt lat="63.66421" lon="10.17799">
        <ele>79.769703</ele>
        <time>2020-08-08T11:06:33.529Z</time>
      </trkpt>
      <trkpt lat="63.66429" lon="10.1782">
        <ele>79.990016</ele>
        <time>2020-08-08T11:06:37.493Z</time>
      </trkpt>
      <trkpt lat="63.66436" lon="10.17841">
        <ele>80.212655</ele>
        <time>2020-08-08T11:06:41.487Z</time>
      </trkpt>
      <trkpt lat="63.66442" lon="10.17857">
        <ele>80.387202</ele>
        <time>2020-08-08T11:06:44.541Z</time>
      </trkpt>
      <trkpt lat="63.66448" lon="10.17872">
        <ele>80.559992</ele>
        <time>2020-08-08T11:06:47.472Z</time>
      </trkpt>
      <trkpt lat="63.66455" lon="10.17887">
        <ele>80.734689</ele>
        <time>2020-08-08T11:06:50.503Z</time>
      </trkpt>
      <trkpt lat="63.66462" lon="10.17902">
        <ele>80.918384</ele>
        <time>2020-08-08T11:06:53.449Z</time>
      </trkpt>
      <trkpt lat="63.66469" lon="10.17918">
        <ele>81.108642</ele>
        <time>2020-08-08T11:06:56.473Z</time>
      </trkpt>
      <trkpt lat="63.66477" lon="10.17932">
        <ele>81.294431</ele>
        <time>2020-08-08T11:06:59.501Z</time>
      </trkpt>
      <trkpt lat="63.66484" lon="10.17947">
        <ele>81.485556</ele>
        <time>2020-08-08T11:07:02.457Z</time>
      </trkpt>
      <trkpt lat="63.66492" lon="10.17963">
        <ele>81.683667</ele>
        <time>2020-08-08T11:07:05.472Z</time>
      </trkpt>
      <trkpt lat="63.66501" lon="10.17978">
        <ele>81.847877</ele>
        <time>2020-08-08T11:07:08.496Z</time>
      </trkpt>
      <trkpt lat="63.6651" lon="10.17995">
        <ele>81.775007</ele>
        <time>2020-08-08T11:07:11.473Z</time>
      </trkpt>
      <trkpt lat="63.66521" lon="10.18013">
        <ele>81.69615</ele>
        <time>2020-08-08T11:07:14.509Z</time>
      </trkpt>
      <trkpt lat="63.66528" lon="10.18026">
        <ele>81.641105</ele>
        <time>2020-08-08T11:07:16.514Z</time>
      </trkpt>
      <trkpt lat="63.66534" lon="10.18039">
        <ele>81.586762</ele>
        <time>2020-08-08T11:07:18.446Z</time>
      </trkpt>
      <trkpt lat="63.66544" lon="10.18061">
        <ele>81.506543</ele>
        <time>2020-08-08T11:07:21.446Z</time>
      </trkpt>
      <trkpt lat="63.6655" lon="10.18077">
        <ele>81.45005</ele>
        <time>2020-08-08T11:07:23.489Z</time>
      </trkpt>
      <trkpt lat="63.66555" lon="10.18094">
        <ele>81.39292</ele>
        <time>2020-08-08T11:07:25.483Z</time>
      </trkpt>
      <trkpt lat="63.6656" lon="10.18113">
        <ele>81.334849</ele>
        <time>2020-08-08T11:07:27.451Z</time>
      </trkpt>
      <trkpt lat="63.66564" lon="10.18134">
        <ele>81.273842</ele>
        <time>2020-08-08T11:07:29.474Z</time>
      </trkpt>
      <trkpt lat="63.66569" lon="10.18153">
        <ele>81.214703</ele>
        <time>2020-08-08T11:07:31.498Z</time>
      </trkpt>
      <trkpt lat="63.66572" lon="10.18173">
        <ele>81.158887</ele>
        <time>2020-08-08T11:07:33.521Z</time>
      </trkpt>
      <trkpt lat="63.66576" lon="10.18192">
        <ele>81.101116</ele>
        <time>2020-08-08T11:07:35.450Z</time>
      </trkpt>
      <trkpt lat="63.66581" lon="10.18213">
        <ele>81.039894</ele>
        <time>2020-08-08T11:07:37.473Z</time>
      </trkpt>
      <trkpt lat="63.66584" lon="10.18233">
        <ele>80.981576</ele>
        <time>2020-08-08T11:07:39.466Z</time>
      </trkpt>
      <trkpt lat="63.66588" lon="10.18253">
        <ele>80.924186</ele>
        <time>2020-08-08T11:07:41.517Z</time>
      </trkpt>
      <trkpt lat="63.6659" lon="10.18273">
        <ele>80.86819</ele>
        <time>2020-08-08T11:07:43.441Z</time>
      </trkpt>
      <trkpt lat="63.66592" lon="10.18295">
        <ele>80.80989</ele>
        <time>2020-08-08T11:07:45.449Z</time>
      </trkpt>
      <trkpt lat="63.66595" lon="10.18316">
        <ele>80.652553</ele>
        <time>2020-08-08T11:07:47.461Z</time>
      </trkpt>
      <trkpt lat="63.66597" lon="10.18338">
        <ele>80.335176</ele>
        <time>2020-08-08T11:07:49.490Z</time>
      </trkpt>
      <trkpt lat="63.66599" lon="10.18359">
        <ele>80.02062</ele>
        <time>2020-08-08T11:07:51.456Z</time>
      </trkpt>
      <trkpt lat="63.666" lon="10.1838">
        <ele>79.714198</ele>
        <time>2020-08-08T11:07:53.490Z</time>
      </trkpt>
      <trkpt lat="63.66602" lon="10.184">
        <ele>79.415442</ele>
        <time>2020-08-08T11:07:55.462Z</time>
      </trkpt>
      <trkpt lat="63.66604" lon="10.18429">
        <ele>78.988569</ele>
        <time>2020-08-08T11:07:58.488Z</time>
      </trkpt>
      <trkpt lat="63.66606" lon="10.18458">
        <ele>78.564038</ele>
        <time>2020-08-08T11:08:01.463Z</time>
      </trkpt>
      <trkpt lat="63.66608" lon="10.18489">
        <ele>78.124781</ele>
        <time>2020-08-08T11:08:04.456Z</time>
      </trkpt>
      <trkpt lat="63.66609" lon="10.18509">
        <ele>77.828876</ele>
        <time>2020-08-08T11:08:06.453Z</time>
      </trkpt>
      <trkpt lat="63.66611" lon="10.18539">
        <ele>77.392006</ele>
        <time>2020-08-08T11:08:09.472Z</time>
      </trkpt>
      <trkpt lat="63.66613" lon="10.18568">
        <ele>76.970889</ele>
        <time>2020-08-08T11:08:12.454Z</time>
      </trkpt>
      <trkpt lat="63.66614" lon="10.18596">
        <ele>76.552963</ele>
        <time>2020-08-08T11:08:15.474Z</time>
      </trkpt>
      <trkpt lat="63.66614" lon="10.18625">
        <ele>76.142326</ele>
        <time>2020-08-08T11:08:18.498Z</time>
      </trkpt>
      <trkpt lat="63.66615" lon="10.18654">
        <ele>75.727625</ele>
        <time>2020-08-08T11:08:21.470Z</time>
      </trkpt>
      <trkpt lat="63.66615" lon="10.18683">
        <ele>75.307833</ele>
        <time>2020-08-08T11:08:24.467Z</time>
      </trkpt>
      <trkpt lat="63.66617" lon="10.18711">
        <ele>74.920903</ele>
        <time>2020-08-08T11:08:27.459Z</time>
      </trkpt>
      <trkpt lat="63.66618" lon="10.18739">
        <ele>75.033083</ele>
        <time>2020-08-08T11:08:30.453Z</time>
      </trkpt>
      <trkpt lat="63.66618" lon="10.18766">
        <ele>75.142224</ele>
        <time>2020-08-08T11:08:33.490Z</time>
      </trkpt>
      <trkpt lat="63.66618" lon="10.18794">
        <ele>75.253858</ele>
        <time>2020-08-08T11:08:36.465Z</time>
      </trkpt>
      <trkpt lat="63.66619" lon="10.18821">
        <ele>75.364431</ele>
        <time>2020-08-08T11:08:39.455Z</time>
      </trkpt>
      <trkpt lat="63.6662" lon="10.18849">
        <ele>75.475752</ele>
        <time>2020-08-08T11:08:42.454Z</time>
      </trkpt>
      <trkpt lat="63.66621" lon="10.18876">
        <ele>75.58438</ele>
        <time>2020-08-08T11:08:45.463Z</time>
      </trkpt>
      <trkpt lat="63.66622" lon="10.18902">
        <ele>75.69254</ele>
        <time>2020-08-08T11:08:48.461Z</time>
      </trkpt>
      <trkpt lat="63.66623" lon="10.18928">
        <ele>75.794275</ele>
        <time>2020-08-08T11:08:51.482Z</time>
      </trkpt>
      <trkpt lat="63.66623" lon="10.18952">
        <ele>75.894001</ele>
        <time>2020-08-08T11:08:54.491Z</time>
      </trkpt>
      <trkpt lat="63.66625" lon="10.18977">
        <ele>75.995258</ele>
        <time>2020-08-08T11:08:57.455Z</time>
      </trkpt>
      <trkpt lat="63.66626" lon="10.19002">
        <ele>76.09645</ele>
        <time>2020-08-08T11:09:00.452Z</time>
      </trkpt>
      <trkpt lat="63.66628" lon="10.19027">
        <ele>76.197409</ele>
        <time>2020-08-08T11:09:03.484Z</time>
      </trkpt>
      <trkpt lat="63.6663" lon="10.19052">
        <ele>76.299038</ele>
        <time>2020-08-08T11:09:06.458Z</time>
      </trkpt>
      <trkpt lat="63.66633" lon="10.19078">
        <ele>76.407548</ele>
        <time>2020-08-08T11:09:09.457Z</time>
      </trkpt>
      <trkpt lat="63.66638" lon="10.19103">
        <ele>76.519142</ele>
        <time>2020-08-08T11:09:12.479Z</time>
      </trkpt>
      <trkpt lat="63.66643" lon="10.19128">
        <ele>76.638958</ele>
        <time>2020-08-08T11:09:15.465Z</time>
      </trkpt>
      <trkpt lat="63.66648" lon="10.19151">
        <ele>76.761802</ele>
        <time>2020-08-08T11:09:18.477Z</time>
      </trkpt>
      <trkpt lat="63.66656" lon="10.19174">
        <ele>76.894229</ele>
        <time>2020-08-08T11:09:21.467Z</time>
      </trkpt>
      <trkpt lat="63.66663" lon="10.19197">
        <ele>77.024426</ele>
        <time>2020-08-08T11:09:24.464Z</time>
      </trkpt>
      <trkpt lat="63.66671" lon="10.1922">
        <ele>77.160729</ele>
        <time>2020-08-08T11:09:27.471Z</time>
      </trkpt>
      <trkpt lat="63.66677" lon="10.19236">
        <ele>77.257034</ele>
        <time>2020-08-08T11:09:29.471Z</time>
      </trkpt>
      <trkpt lat="63.66683" lon="10.19253">
        <ele>77.352409</ele>
        <time>2020-08-08T11:09:31.511Z</time>
      </trkpt>
      <trkpt lat="63.66688" lon="10.19269">
        <ele>77.447024</ele>
        <time>2020-08-08T11:09:33.451Z</time>
      </trkpt>
      <trkpt lat="63.66693" lon="10.19286">
        <ele>77.542154</ele>
        <time>2020-08-08T11:09:35.490Z</time>
      </trkpt>
      <trkpt lat="63.66699" lon="10.19304">
        <ele>77.639633</ele>
        <time>2020-08-08T11:09:37.479Z</time>
      </trkpt>
      <trkpt lat="63.66704" lon="10.19321">
        <ele>77.739581</ele>
        <time>2020-08-08T11:09:39.454Z</time>
      </trkpt>
      <trkpt lat="63.6671" lon="10.19337">
        <ele>77.835799</ele>
        <time>2020-08-08T11:09:41.501Z</time>
      </trkpt>
      <trkpt lat="63.66718" lon="10.19361">
        <ele>77.97368</ele>
        <time>2020-08-08T11:09:44.472Z</time>
      </trkpt>
      <trkpt lat="63.66726" lon="10.19385">
        <ele>78.110195</ele>
        <time>2020-08-08T11:09:47.490Z</time>
      </trkpt>
      <trkpt lat="63.66731" lon="10.194">
        <ele>78.203297</ele>
        <time>2020-08-08T11:09:49.469Z</time>
      </trkpt>
      <trkpt lat="63.66739" lon="10.19423">
        <ele>78.336125</ele>
        <time>2020-08-08T11:09:52.462Z</time>
      </trkpt>
      <trkpt lat="63.66747" lon="10.19446">
        <ele>78.560898</ele>
        <time>2020-08-08T11:09:55.491Z</time>
      </trkpt>
      <trkpt lat="63.66755" lon="10.19467">
        <ele>78.948643</ele>
        <time>2020-08-08T11:09:58.492Z</time>
      </trkpt>
      <trkpt lat="63.66762" lon="10.19488">
        <ele>79.307342</ele>
        <time>2020-08-08T11:10:01.480Z</time>
      </trkpt>
      <trkpt lat="63.66768" lon="10.19506">
        <ele>79.631029</ele>
        <time>2020-08-08T11:10:04.450Z</time>
      </trkpt>
      <trkpt lat="63.66774" lon="10.19523">
        <ele>79.938697</ele>
        <time>2020-08-08T11:10:07.454Z</time>
      </trkpt>
      <trkpt lat="63.66779" lon="10.1954">
        <ele>80.233182</ele>
        <time>2020-08-08T11:10:10.440Z</time>
      </trkpt>
      <trkpt lat="63.66786" lon="10.19562">
        <ele>80.612281</ele>
        <time>2020-08-08T11:10:14.484Z</time>
      </trkpt>
      <trkpt lat="63.66792" lon="10.19578">
        <ele>80.895704</ele>
        <time>2020-08-08T11:10:17.456Z</time>
      </trkpt>
      <trkpt lat="63.66799" lon="10.19599">
        <ele>81.253835</ele>
        <time>2020-08-08T11:10:21.461Z</time>
      </trkpt>
      <trkpt lat="63.66806" lon="10.1962">
        <ele>81.618839</ele>
        <time>2020-08-08T11:10:25.457Z</time>
      </trkpt>
      <trkpt lat="63.66812" lon="10.19641">
        <ele>81.974716</ele>
        <time>2020-08-08T11:10:29.478Z</time>
      </trkpt>
      <trkpt lat="63.66817" lon="10.19658">
        <ele>82.258301</ele>
        <time>2020-08-08T11:10:32.497Z</time>
      </trkpt>
      <trkpt lat="63.66824" lon="10.19678">
        <ele>82.616996</ele>
        <time>2020-08-08T11:10:36.478Z</time>
      </trkpt>
      <trkpt lat="63.6683" lon="10.19694">
        <ele>82.898236</ele>
        <time>2020-08-08T11:10:39.482Z</time>
      </trkpt>
      <trkpt lat="63.66836" lon="10.1971">
        <ele>83.187989</ele>
        <time>2020-08-08T11:10:42.458Z</time>
      </trkpt>
      <trkpt lat="63.66843" lon="10.19729">
        <ele>83.540168</ele>
        <time>2020-08-08T11:10:46.452Z</time>
      </trkpt>
      <trkpt lat="63.6685" lon="10.19751">
        <ele>83.909883</ele>
        <time>2020-08-08T11:10:50.454Z</time>
      </trkpt>
      <trkpt lat="63.66857" lon="10.1977">
        <ele>84.094223</ele>
        <time>2020-08-08T11:10:54.469Z</time>
      </trkpt>
      <trkpt lat="63.66863" lon="10.19789">
        <ele>84.114627</ele>
        <time>2020-08-08T11:10:58.464Z</time>
      </trkpt>
      <trkpt lat="63.6687" lon="10.19807">
        <ele>84.134973</ele>
        <time>2020-08-08T11:11:03.455Z</time>
      </trkpt>
      <trkpt lat="63.66875" lon="10.19826">
        <ele>84.15437</ele>
        <time>2020-08-08T11:11:08.458Z</time>
      </trkpt>
      <trkpt lat="63.66881" lon="10.19845">
        <ele>84.174556</ele>
        <time>2020-08-08T11:11:13.504Z</time>
      </trkpt>
      <trkpt lat="63.66887" lon="10.19861">
        <ele>84.19314</ele>
        <time>2020-08-08T11:11:17.512Z</time>
      </trkpt>
      <trkpt lat="63.66893" lon="10.19879">
        <ele>84.211733</ele>
        <time>2020-08-08T11:11:21.448Z</time>
      </trkpt>
      <trkpt lat="63.669" lon="10.19897">
        <ele>84.233099</ele>
        <time>2020-08-08T11:11:25.531Z</time>
      </trkpt>
      <trkpt lat="63.66905" lon="10.19914">
        <ele>84.250846</ele>
        <time>2020-08-08T11:11:28.505Z</time>
      </trkpt>
      <trkpt lat="63.66912" lon="10.19933">
        <ele>84.271975</ele>
        <time>2020-08-08T11:11:31.525Z</time>
      </trkpt>
      <trkpt lat="63.6692" lon="10.19954">
        <ele>84.296005</ele>
        <time>2020-08-08T11:11:34.480Z</time>
      </trkpt>
      <trkpt lat="63.66926" lon="10.19971">
        <ele>84.314226</ele>
        <time>2020-08-08T11:11:36.470Z</time>
      </trkpt>
      <trkpt lat="63.66932" lon="10.19989">
        <ele>84.334315</ele>
        <time>2020-08-08T11:11:38.507Z</time>
      </trkpt>
      <trkpt lat="63.66939" lon="10.20009">
        <ele>84.356501</ele>
        <time>2020-08-08T11:11:40.474Z</time>
      </trkpt>
      <trkpt lat="63.66947" lon="10.2003">
        <ele>84.379541</ele>
        <time>2020-08-08T11:11:42.490Z</time>
      </trkpt>
      <trkpt lat="63.66954" lon="10.20051">
        <ele>84.402581</ele>
        <time>2020-08-08T11:11:44.526Z</time>
      </trkpt>
      <trkpt lat="63.66961" lon="10.20071">
        <ele>84.424784</ele>
        <time>2020-08-08T11:11:46.453Z</time>
      </trkpt>
      <trkpt lat="63.66968" lon="10.2009">
        <ele>84.367992</ele>
        <time>2020-08-08T11:11:48.482Z</time>
      </trkpt>
      <trkpt lat="63.66974" lon="10.2011">
        <ele>84.254289</ele>
        <time>2020-08-08T11:11:50.457Z</time>
      </trkpt>
      <trkpt lat="63.6698" lon="10.20129">
        <ele>84.143154</ele>
        <time>2020-08-08T11:11:52.461Z</time>
      </trkpt>
      <trkpt lat="63.66986" lon="10.20148">
        <ele>84.03331</ele>
        <time>2020-08-08T11:11:54.483Z</time>
      </trkpt>
      <trkpt lat="63.66992" lon="10.20165">
        <ele>83.927693</ele>
        <time>2020-08-08T11:11:56.472Z</time>
      </trkpt>
      <trkpt lat="63.66998" lon="10.20183">
        <ele>83.817558</ele>
        <time>2020-08-08T11:11:58.486Z</time>
      </trkpt>
      <trkpt lat="63.67004" lon="10.202">
        <ele>83.714854</ele>
        <time>2020-08-08T11:12:00.452Z</time>
      </trkpt>
      <trkpt lat="63.6701" lon="10.20218">
        <ele>83.608955</ele>
        <time>2020-08-08T11:12:02.493Z</time>
      </trkpt>
      <trkpt lat="63.67016" lon="10.20236">
        <ele>83.499657</ele>
        <time>2020-08-08T11:12:04.487Z</time>
      </trkpt>
      <trkpt lat="63.67023" lon="10.20254">
        <ele>83.389523</ele>
        <time>2020-08-08T11:12:06.470Z</time>
      </trkpt>
      <trkpt lat="63.67029" lon="10.20273">
        <ele>83.281733</ele>
        <time>2020-08-08T11:12:08.458Z</time>
      </trkpt>
      <trkpt lat="63.67034" lon="10.20292">
        <ele>83.168636</ele>
        <time>2020-08-08T11:12:10.451Z</time>
      </trkpt>
      <trkpt lat="63.67041" lon="10.20313">
        <ele>83.051534</ele>
        <time>2020-08-08T11:12:12.466Z</time>
      </trkpt>
      <trkpt lat="63.67047" lon="10.20332">
        <ele>82.93455</ele>
        <time>2020-08-08T11:12:14.442Z</time>
      </trkpt>
      <trkpt lat="63.67054" lon="10.20352">
        <ele>82.811834</ele>
        <time>2020-08-08T11:12:16.459Z</time>
      </trkpt>
      <trkpt lat="63.67061" lon="10.20374">
        <ele>82.685704</ele>
        <time>2020-08-08T11:12:18.456Z</time>
      </trkpt>
      <trkpt lat="63.67069" lon="10.20394">
        <ele>82.56158</ele>
        <time>2020-08-08T11:12:20.462Z</time>
      </trkpt>
      <trkpt lat="63.67076" lon="10.20415">
        <ele>82.632045</ele>
        <time>2020-08-08T11:12:22.490Z</time>
      </trkpt>
      <trkpt lat="63.67082" lon="10.20435">
        <ele>82.865357</ele>
        <time>2020-08-08T11:12:24.461Z</time>
      </trkpt>
      <trkpt lat="63.67089" lon="10.20454">
        <ele>83.083575</ele>
        <time>2020-08-08T11:12:26.481Z</time>
      </trkpt>
      <trkpt lat="63.67095" lon="10.2047">
        <ele>83.285782</ele>
        <time>2020-08-08T11:12:28.453Z</time>
      </trkpt>
      <trkpt lat="63.67102" lon="10.20488">
        <ele>83.494875</ele>
        <time>2020-08-08T11:12:30.454Z</time>
      </trkpt>
      <trkpt lat="63.67108" lon="10.20505">
        <ele>83.697877</ele>
        <time>2020-08-08T11:12:32.477Z</time>
      </trkpt>
      <trkpt lat="63.67114" lon="10.20521">
        <ele>83.896624</ele>
        <time>2020-08-08T11:12:34.449Z</time>
      </trkpt>
      <trkpt lat="63.67121" lon="10.20536">
        <ele>84.087166</ele>
        <time>2020-08-08T11:12:36.472Z</time>
      </trkpt>
      <trkpt lat="63.67129" lon="10.20557">
        <ele>84.349873</ele>
        <time>2020-08-08T11:12:39.456Z</time>
      </trkpt>
      <trkpt lat="63.67137" lon="10.20576">
        <ele>84.59409</ele>
        <time>2020-08-08T11:12:42.467Z</time>
      </trkpt>
      <trkpt lat="63.67145" lon="10.20596">
        <ele>84.833369</ele>
        <time>2020-08-08T11:12:45.442Z</time>
      </trkpt>
      <trkpt lat="63.67153" lon="10.20614">
        <ele>85.066488</ele>
        <time>2020-08-08T11:12:48.474Z</time>
      </trkpt>
      <trkpt lat="63.6716" lon="10.20632">
        <ele>85.296338</ele>
        <time>2020-08-08T11:12:51.452Z</time>
      </trkpt>
      <trkpt lat="63.67168" lon="10.2065">
        <ele>85.522765</ele>
        <time>2020-08-08T11:12:54.515Z</time>
      </trkpt>
      <trkpt lat="63.67175" lon="10.20667">
        <ele>85.736824</ele>
        <time>2020-08-08T11:12:57.490Z</time>
      </trkpt>
      <trkpt lat="63.67182" lon="10.20682">
        <ele>85.942081</ele>
        <time>2020-08-08T11:13:00.465Z</time>
      </trkpt>
      <trkpt lat="63.67189" lon="10.20698">
        <ele>86.137393</ele>
        <time>2020-08-08T11:13:03.462Z</time>
      </trkpt>
      <trkpt lat="63.67196" lon="10.20715">
        <ele>86.309417</ele>
        <time>2020-08-08T11:13:07.488Z</time>
      </trkpt>
      <trkpt lat="63.67204" lon="10.20734">
        <ele>86.445346</ele>
        <time>2020-08-08T11:13:11.470Z</time>
      </trkpt>
      <trkpt lat="63.67211" lon="10.20751">
        <ele>86.574703</ele>
        <time>2020-08-08T11:13:15.458Z</time>
      </trkpt>
      <trkpt lat="63.67218" lon="10.20769">
        <ele>86.706517</ele>
        <time>2020-08-08T11:13:19.475Z</time>
      </trkpt>
      <trkpt lat="63.67224" lon="10.20787">
        <ele>86.836307</ele>
        <time>2020-08-08T11:13:23.491Z</time>
      </trkpt>
      <trkpt lat="63.67231" lon="10.20806">
        <ele>86.970715</ele>
        <time>2020-08-08T11:13:27.475Z</time>
      </trkpt>
      <trkpt lat="63.67237" lon="10.20822">
        <ele>87.083907</ele>
        <time>2020-08-08T11:13:30.505Z</time>
      </trkpt>
      <trkpt lat="63.67242" lon="10.20839">
        <ele>87.201448</ele>
        <time>2020-08-08T11:13:33.455Z</time>
      </trkpt>
      <trkpt lat="63.67248" lon="10.20856">
        <ele>87.317894</ele>
        <time>2020-08-08T11:13:36.471Z</time>
      </trkpt>
      <trkpt lat="63.67253" lon="10.20875">
        <ele>87.440337</ele>
        <time>2020-08-08T11:13:39.460Z</time>
      </trkpt>
      <trkpt lat="63.67259" lon="10.20894">
        <ele>87.567531</ele>
        <time>2020-08-08T11:13:42.478Z</time>
      </trkpt>
      <trkpt lat="63.67266" lon="10.20914">
        <ele>87.707459</ele>
        <time>2020-08-08T11:13:45.450Z</time>
      </trkpt>
      <trkpt lat="63.67272" lon="10.20937">
        <ele>87.855074</ele>
        <time>2020-08-08T11:13:48.456Z</time>
      </trkpt>
      <trkpt lat="63.67279" lon="10.20962">
        <ele>88.017176</ele>
        <time>2020-08-08T11:13:51.468Z</time>
      </trkpt>
      <trkpt lat="63.67284" lon="10.20979">
        <ele>88.132227</ele>
        <time>2020-08-08T11:13:53.458Z</time>
      </trkpt>
      <trkpt lat="63.6729" lon="10.20998">
        <ele>88.257815</ele>
        <time>2020-08-08T11:13:55.490Z</time>
      </trkpt>
      <trkpt lat="63.67296" lon="10.21018">
        <ele>88.389133</ele>
        <time>2020-08-08T11:13:57.525Z</time>
      </trkpt>
      <trkpt lat="63.67302" lon="10.21039">
        <ele>88.469946</ele>
        <time>2020-08-08T11:13:59.459Z</time>
      </trkpt>
      <trkpt lat="63.67308" lon="10.21062">
        <ele>88.481722</ele>
        <time>2020-08-08T11:14:01.449Z</time>
      </trkpt>
      <trkpt lat="63.67313" lon="10.21085">
        <ele>88.493453</ele>
        <time>2020-08-08T11:14:03.509Z</time>
      </trkpt>
      <trkpt lat="63.67317" lon="10.21109">
        <ele>88.50504</ele>
        <time>2020-08-08T11:14:05.478Z</time>
      </trkpt>
      <trkpt lat="63.67319" lon="10.21134">
        <ele>88.516391</ele>
        <time>2020-08-08T11:14:07.454Z</time>
      </trkpt>
      <trkpt lat="63.6732" lon="10.21156">
        <ele>88.526536</ele>
        <time>2020-08-08T11:14:09.461Z</time>
      </trkpt>
      <trkpt lat="63.67319" lon="10.21185">
        <ele>88.539547</ele>
        <time>2020-08-08T11:14:12.450Z</time>
      </trkpt>
      <trkpt lat="63.67315" lon="10.2121">
        <ele>88.551574</ele>
        <time>2020-08-08T11:14:15.496Z</time>
      </trkpt>
      <trkpt lat="63.67313" lon="10.21235">
        <ele>88.562891</ele>
        <time>2020-08-08T11:14:18.449Z</time>
      </trkpt>
      <trkpt lat="63.67318" lon="10.21258">
        <ele>88.574534</ele>
        <time>2020-08-08T11:14:21.490Z</time>
      </trkpt>
      <trkpt lat="63.67328" lon="10.21275">
        <ele>88.587488</ele>
        <time>2020-08-08T11:14:24.504Z</time>
      </trkpt>
      <trkpt lat="63.67338" lon="10.21285">
        <ele>88.598489</ele>
        <time>2020-08-08T11:14:27.512Z</time>
      </trkpt>
      <trkpt lat="63.67349" lon="10.21295">
        <ele>88.610286</ele>
        <time>2020-08-08T11:14:31.452Z</time>
      </trkpt>
      <trkpt lat="63.67359" lon="10.21304">
        <ele>88.621339</ele>
        <time>2020-08-08T11:14:35.459Z</time>
      </trkpt>
      <trkpt lat="63.67369" lon="10.21317">
        <ele>88.633189</ele>
        <time>2020-08-08T11:14:39.477Z</time>
      </trkpt>
      <trkpt lat="63.67377" lon="10.21327">
        <ele>88.642314</ele>
        <time>2020-08-08T11:14:42.459Z</time>
      </trkpt>
      <trkpt lat="63.67387" lon="10.21341">
        <ele>89.158847</ele>
        <time>2020-08-08T11:14:46.448Z</time>
      </trkpt>
      <trkpt lat="63.67395" lon="10.21353">
        <ele>89.907623</ele>
        <time>2020-08-08T11:14:49.449Z</time>
      </trkpt>
      <trkpt lat="63.67404" lon="10.21368">
        <ele>90.800075</ele>
        <time>2020-08-08T11:14:53.478Z</time>
      </trkpt>
      <trkpt lat="63.67413" lon="10.21382">
        <ele>91.64637</ele>
        <time>2020-08-08T11:14:57.442Z</time>
      </trkpt>
      <trkpt lat="63.67421" lon="10.21396">
        <ele>92.438542</ele>
        <time>2020-08-08T11:15:01.447Z</time>
      </trkpt>
      <trkpt lat="63.67428" lon="10.21411">
        <ele>93.224085</ele>
        <time>2020-08-08T11:15:05.482Z</time>
      </trkpt>
      <trkpt lat="63.67436" lon="10.21426">
        <ele>94.009627</ele>
        <time>2020-08-08T11:15:09.477Z</time>
      </trkpt>
      <trkpt lat="63.67444" lon="10.2144">
        <ele>94.814272</ele>
        <time>2020-08-08T11:15:13.467Z</time>
      </trkpt>
      <trkpt lat="63.67452" lon="10.21454">
        <ele>95.60949</ele>
        <time>2020-08-08T11:15:17.477Z</time>
      </trkpt>
      <trkpt lat="63.67459" lon="10.2147">
        <ele>96.358501</ele>
        <time>2020-08-08T11:15:21.446Z</time>
      </trkpt>
      <trkpt lat="63.67465" lon="10.21485">
        <ele>97.067099</ele>
        <time>2020-08-08T11:15:25.454Z</time>
      </trkpt>
      <trkpt lat="63.67473" lon="10.21501">
        <ele>97.931454</ele>
        <time>2020-08-08T11:15:30.510Z</time>
      </trkpt>
      <trkpt lat="63.67481" lon="10.21517">
        <ele>98.74586</ele>
        <time>2020-08-08T11:15:35.469Z</time>
      </trkpt>
      <trkpt lat="63.67488" lon="10.21533">
        <ele>99.563966</ele>
        <time>2020-08-08T11:15:40.503Z</time>
      </trkpt>
      <trkpt lat="63.67494" lon="10.2155">
        <ele>100.310114</ele>
        <time>2020-08-08T11:15:45.455Z</time>
      </trkpt>
      <trkpt lat="63.675" lon="10.21567">
        <ele>101.071433</ele>
        <time>2020-08-08T11:15:50.457Z</time>
      </trkpt>
      <trkpt lat="63.67505" lon="10.21587">
        <ele>101.855845</ele>
        <time>2020-08-08T11:15:55.479Z</time>
      </trkpt>
      <trkpt lat="63.67511" lon="10.21603">
        <ele>102.579959</ele>
        <time>2020-08-08T11:16:00.451Z</time>
      </trkpt>
      <trkpt lat="63.67518" lon="10.21617">
        <ele>103.413553</ele>
        <time>2020-08-08T11:16:05.486Z</time>
      </trkpt>
      <trkpt lat="63.67524" lon="10.21634">
        <ele>104.323504</ele>
        <time>2020-08-08T11:16:10.477Z</time>
      </trkpt>
      <trkpt lat="63.6753" lon="10.21651">
        <ele>105.276873</ele>
        <time>2020-08-08T11:16:15.471Z</time>
      </trkpt>
      <trkpt lat="63.67537" lon="10.21668">
        <ele>106.224026</ele>
        <time>2020-08-08T11:16:20.467Z</time>
      </trkpt>
      <trkpt lat="63.67543" lon="10.21684">
        <ele>107.145269</ele>
        <time>2020-08-08T11:16:25.470Z</time>
      </trkpt>
      <trkpt lat="63.67549" lon="10.21701">
        <ele>108.06782</ele>
        <time>2020-08-08T11:16:30.469Z</time>
      </trkpt>
      <trkpt lat="63.67556" lon="10.21718">
        <ele>109.011461</ele>
        <time>2020-08-08T11:16:36.452Z</time>
      </trkpt>
      <trkpt lat="63.67561" lon="10.21737">
        <ele>109.984029</ele>
        <time>2020-08-08T11:16:42.459Z</time>
      </trkpt>
      <trkpt lat="63.67566" lon="10.21754">
        <ele>110.846934</ele>
        <time>2020-08-08T11:16:47.443Z</time>
      </trkpt>
      <trkpt lat="63.67571" lon="10.21771">
        <ele>111.727953</ele>
        <time>2020-08-08T11:16:53.458Z</time>
      </trkpt>
      <trkpt lat="63.67578" lon="10.21786">
        <ele>112.629907</ele>
        <time>2020-08-08T11:17:01.448Z</time>
      </trkpt>
      <trkpt lat="63.67583" lon="10.21802">
        <ele>113.504061</ele>
        <time>2020-08-08T11:17:08.489Z</time>
      </trkpt>
      <trkpt lat="63.67588" lon="10.2182">
        <ele>114.372192</ele>
        <time>2020-08-08T11:17:14.458Z</time>
      </trkpt>
      <trkpt lat="63.67594" lon="10.21839">
        <ele>115.346661</ele>
        <time>2020-08-08T11:17:20.469Z</time>
      </trkpt>
      <trkpt lat="63.676" lon="10.21857">
        <ele>116.318725</ele>
        <time>2020-08-08T11:17:26.458Z</time>
      </trkpt>
      <trkpt lat="63.67606" lon="10.21874">
        <ele>117.22147</ele>
        <time>2020-08-08T11:17:31.441Z</time>
      </trkpt>
      <trkpt lat="63.67611" lon="10.21891">
        <ele>118.112825</ele>
        <time>2020-08-08T11:17:36.469Z</time>
      </trkpt>
      <trkpt lat="63.67616" lon="10.21908">
        <ele>118.991356</ele>
        <time>2020-08-08T11:17:41.499Z</time>
      </trkpt>
      <trkpt lat="63.6762" lon="10.21928">
        <ele>119.907472</ele>
        <time>2020-08-08T11:17:50.458Z</time>
      </trkpt>
      <trkpt lat="63.67624" lon="10.21947">
        <ele>120.445491</ele>
        <time>2020-08-08T11:17:57.441Z</time>
      </trkpt>
      <trkpt lat="63.6763" lon="10.21963">
        <ele>120.958103</ele>
        <time>2020-08-08T11:18:03.460Z</time>
      </trkpt>
      <trkpt lat="63.67635" lon="10.21983">
        <ele>121.552583</ele>
        <time>2020-08-08T11:18:09.451Z</time>
      </trkpt>
      <trkpt lat="63.67641" lon="10.22003">
        <ele>122.129447</ele>
        <time>2020-08-08T11:18:14.451Z</time>
      </trkpt>
      <trkpt lat="63.67647" lon="10.22019">
        <ele>122.6795</ele>
        <time>2020-08-08T11:18:19.447Z</time>
      </trkpt>
      <trkpt lat="63.67654" lon="10.22038">
        <ele>123.248029</ele>
        <time>2020-08-08T11:18:24.478Z</time>
      </trkpt>
      <trkpt lat="63.67658" lon="10.22058">
        <ele>123.820297</ele>
        <time>2020-08-08T11:18:30.460Z</time>
      </trkpt>
      <trkpt lat="63.67663" lon="10.22077">
        <ele>124.358748</ele>
        <time>2020-08-08T11:18:35.500Z</time>
      </trkpt>
      <trkpt lat="63.67667" lon="10.22095">
        <ele>124.864946</ele>
        <time>2020-08-08T11:18:40.440Z</time>
      </trkpt>
      <trkpt lat="63.67672" lon="10.22113">
        <ele>125.414939</ele>
        <time>2020-08-08T11:18:46.470Z</time>
      </trkpt>
      <trkpt lat="63.67678" lon="10.2213">
        <ele>125.941367</ele>
        <time>2020-08-08T11:18:51.461Z</time>
      </trkpt>
      <trkpt lat="63.67684" lon="10.22148">
        <ele>126.486497</ele>
        <time>2020-08-08T11:18:57.498Z</time>
      </trkpt>
      <trkpt lat="63.6769" lon="10.22164">
        <ele>127.040249</ele>
        <time>2020-08-08T11:19:04.450Z</time>
      </trkpt>
      <trkpt lat="63.67695" lon="10.22181">
        <ele>127.544459</ele>
        <time>2020-08-08T11:19:11.477Z</time>
      </trkpt>
      <trkpt lat="63.67702" lon="10.22197">
        <ele>128.077681</ele>
        <time>2020-08-08T11:19:18.464Z</time>
      </trkpt>
      <trkpt lat="63.67708" lon="10.22215">
        <ele>128.639402</ele>
        <time>2020-08-08T11:19:25.472Z</time>
      </trkpt>
      <trkpt lat="63.67714" lon="10.22232">
        <ele>129.200592</ele>
        <time>2020-08-08T11:19:32.493Z</time>
      </trkpt>
      <trkpt lat="63.67722" lon="10.22244">
        <ele>129.73366</ele>
        <time>2020-08-08T11:19:39.491Z</time>
      </trkpt>
      <trkpt lat="63.6773" lon="10.22259">
        <ele>130.398402</ele>
        <time>2020-08-08T11:19:45.448Z</time>
      </trkpt>
      <trkpt lat="63.67735" lon="10.22275">
        <ele>131.113322</ele>
        <time>2020-08-08T11:19:51.446Z</time>
      </trkpt>
      <trkpt lat="63.67743" lon="10.22286">
        <ele>131.853033</ele>
        <time>2020-08-08T11:19:58.507Z</time>
      </trkpt>
      <trkpt lat="63.67751" lon="10.223">
        <ele>132.649155</ele>
        <time>2020-08-08T11:20:05.446Z</time>
      </trkpt>
      <trkpt lat="63.67759" lon="10.22311">
        <ele>133.3992</ele>
        <time>2020-08-08T11:20:11.522Z</time>
      </trkpt>
      <trkpt lat="63.67767" lon="10.22326">
        <ele>134.20167</ele>
        <time>2020-08-08T11:20:18.458Z</time>
      </trkpt>
      <trkpt lat="63.67773" lon="10.22344">
        <ele>134.999869</ele>
        <time>2020-08-08T11:20:25.470Z</time>
      </trkpt>
      <trkpt lat="63.67779" lon="10.2236">
        <ele>135.72227</ele>
        <time>2020-08-08T11:20:31.443Z</time>
      </trkpt>
      <trkpt lat="63.67785" lon="10.22376">
        <ele>136.510778</ele>
        <time>2020-08-08T11:20:38.478Z</time>
      </trkpt>
      <trkpt lat="63.67792" lon="10.22393">
        <ele>137.283145</ele>
        <time>2020-08-08T11:20:45.459Z</time>
      </trkpt>
      <trkpt lat="63.67797" lon="10.22414">
        <ele>138.115544</ele>
        <time>2020-08-08T11:20:52.453Z</time>
      </trkpt>
      <trkpt lat="63.67802" lon="10.22432">
        <ele>138.893142</ele>
        <time>2020-08-08T11:20:59.458Z</time>
      </trkpt>
      <trkpt lat="63.67809" lon="10.22448">
        <ele>139.67107</ele>
        <time>2020-08-08T11:21:06.461Z</time>
      </trkpt>
      <trkpt lat="63.67814" lon="10.22464">
        <ele>140.386058</ele>
        <time>2020-08-08T11:21:13.544Z</time>
      </trkpt>
      <trkpt lat="63.6782" lon="10.22481">
        <ele>141.122833</ele>
        <time>2020-08-08T11:21:20.469Z</time>
      </trkpt>
      <trkpt lat="63.67825" lon="10.22499">
        <ele>141.879372</ele>
        <time>2020-08-08T11:21:27.464Z</time>
      </trkpt>
      <trkpt lat="63.67831" lon="10.22516">
        <ele>142.621574</ele>
        <time>2020-08-08T11:21:34.490Z</time>
      </trkpt>
      <trkpt lat="63.67836" lon="10.22535">
        <ele>143.415272</ele>
        <time>2020-08-08T11:21:41.471Z</time>
      </trkpt>
      <trkpt lat="63.67842" lon="10.22552">
        <ele>144.167753</ele>
        <time>2020-08-08T11:21:49.440Z</time>
      </trkpt>
      <trkpt lat="63.67847" lon="10.2257">
        <ele>144.916561</ele>
        <time>2020-08-08T11:21:57.445Z</time>
      </trkpt>
      <trkpt lat="63.67854" lon="10.22588">
        <ele>145.713494</ele>
        <time>2020-08-08T11:22:05.492Z</time>
      </trkpt>
      <trkpt lat="63.67859" lon="10.22604">
        <ele>146.424567</ele>
        <time>2020-08-08T11:22:12.482Z</time>
      </trkpt>
      <trkpt lat="63.67866" lon="10.22619">
        <ele>147.172298</ele>
        <time>2020-08-08T11:22:19.485Z</time>
      </trkpt>
      <trkpt lat="63.67873" lon="10.22635">
        <ele>147.931201</ele>
        <time>2020-08-08T11:22:26.465Z</time>
      </trkpt>
      <trkpt lat="63.67881" lon="10.2265">
        <ele>148.721175</ele>
        <time>2020-08-08T11:22:34.492Z</time>
      </trkpt>
      <trkpt lat="63.67887" lon="10.22667">
        <ele>149.492649</ele>
        <time>2020-08-08T11:22:42.474Z</time>
      </trkpt>
      <trkpt lat="63.67894" lon="10.22681">
        <ele>150.215727</ele>
        <time>2020-08-08T11:22:50.460Z</time>
      </trkpt>
      <trkpt lat="63.67901" lon="10.22698">
        <ele>150.99748</ele>
        <time>2020-08-08T11:22:57.447Z</time>
      </trkpt>
      <trkpt lat="63.67908" lon="10.22712">
        <ele>151.773898</ele>
        <time>2020-08-08T11:23:05.446Z</time>
      </trkpt>
      <trkpt lat="63.67915" lon="10.22729">
        <ele>152.568873</ele>
        <time>2020-08-08T11:23:12.489Z</time>
      </trkpt>
      <trkpt lat="63.67922" lon="10.22743">
        <ele>153.294213</ele>
        <time>2020-08-08T11:23:19.482Z</time>
      </trkpt>
      <trkpt lat="63.67929" lon="10.22758">
        <ele>154.032397</ele>
        <time>2020-08-08T11:23:27.493Z</time>
      </trkpt>
      <trkpt lat="63.67936" lon="10.22776">
        <ele>154.838262</ele>
        <time>2020-08-08T11:23:35.458Z</time>
      </trkpt>
      <trkpt lat="63.67942" lon="10.22792">
        <ele>155.565823</ele>
        <time>2020-08-08T11:23:43.513Z</time>
      </trkpt>
      <trkpt lat="63.67948" lon="10.22808">
        <ele>156.303702</ele>
        <time>2020-08-08T11:23:51.442Z</time>
      </trkpt>
      <trkpt lat="63.67953" lon="10.22826">
        <ele>157.040197</ele>
        <time>2020-08-08T11:23:59.499Z</time>
      </trkpt>
      <trkpt lat="63.67959" lon="10.22843">
        <ele>157.750842</ele>
        <time>2020-08-08T11:24:07.449Z</time>
      </trkpt>
      <trkpt lat="63.67966" lon="10.22857">
        <ele>158.431795</ele>
        <time>2020-08-08T11:24:14.455Z</time>
      </trkpt>
      <trkpt lat="63.67971" lon="10.22874">
        <ele>158.880205</ele>
        <time>2020-08-08T11:24:22.467Z</time>
      </trkpt>
      <trkpt lat="63.67975" lon="10.22892">
        <ele>159.328832</ele>
        <time>2020-08-08T11:24:30.449Z</time>
      </trkpt>
      <trkpt lat="63.67981" lon="10.22909">
        <ele>159.788314</ele>
        <time>2020-08-08T11:24:38.503Z</time>
      </trkpt>
      <trkpt lat="63.67987" lon="10.22927">
        <ele>160.286579</ele>
        <time>2020-08-08T11:24:46.469Z</time>
      </trkpt>
      <trkpt lat="63.67992" lon="10.22946">
        <ele>160.767091</ele>
        <time>2020-08-08T11:24:54.471Z</time>
      </trkpt>
      <trkpt lat="63.67997" lon="10.22963">
        <ele>161.213879</ele>
        <time>2020-08-08T11:25:01.459Z</time>
      </trkpt>
      <trkpt lat="63.68003" lon="10.22982">
        <ele>161.727785</ele>
        <time>2020-08-08T11:25:08.497Z</time>
      </trkpt>
      <trkpt lat="63.6801" lon="10.22999">
        <ele>162.22546</ele>
        <time>2020-08-08T11:25:15.491Z</time>
      </trkpt>
      <trkpt lat="63.68016" lon="10.23018">
        <ele>162.752128</ele>
        <time>2020-08-08T11:25:21.468Z</time>
      </trkpt>
      <trkpt lat="63.68022" lon="10.23037">
        <ele>163.241526</ele>
        <time>2020-08-08T11:25:27.477Z</time>
      </trkpt>
      <trkpt lat="63.68027" lon="10.23055">
        <ele>163.704445</ele>
        <time>2020-08-08T11:25:32.452Z</time>
      </trkpt>
      <trkpt lat="63.68032" lon="10.23072">
        <ele>164.144933</ele>
        <time>2020-08-08T11:25:37.470Z</time>
      </trkpt>
      <trkpt lat="63.68037" lon="10.23089">
        <ele>164.594502</ele>
        <time>2020-08-08T11:25:42.466Z</time>
      </trkpt>
      <trkpt lat="63.68043" lon="10.23108">
        <ele>165.106526</ele>
        <time>2020-08-08T11:25:48.433Z</time>
      </trkpt>
      <trkpt lat="63.68049" lon="10.23124">
        <ele>165.56658</ele>
        <time>2020-08-08T11:25:53.466Z</time>
      </trkpt>
      <trkpt lat="63.68055" lon="10.23141">
        <ele>166.019176</ele>
        <time>2020-08-08T11:25:58.485Z</time>
      </trkpt>
      <trkpt lat="63.68059" lon="10.2316">
        <ele>166.505942</ele>
        <time>2020-08-08T11:26:03.460Z</time>
      </trkpt>
      <trkpt lat="63.68065" lon="10.23178">
        <ele>166.984314</ele>
        <time>2020-08-08T11:26:08.474Z</time>
      </trkpt>
      <trkpt lat="63.68071" lon="10.23194">
        <ele>167.451498</ele>
        <time>2020-08-08T11:26:13.469Z</time>
      </trkpt>
      <trkpt lat="63.68076" lon="10.23211">
        <ele>167.914702</ele>
        <time>2020-08-08T11:26:18.451Z</time>
      </trkpt>
      <trkpt lat="63.68082" lon="10.23229">
        <ele>168.406595</ele>
        <time>2020-08-08T11:26:23.459Z</time>
      </trkpt>
      <trkpt lat="63.68087" lon="10.23246">
        <ele>168.861223</ele>
        <time>2020-08-08T11:26:28.488Z</time>
      </trkpt>
      <trkpt lat="63.68092" lon="10.23264">
        <ele>169.354365</ele>
        <time>2020-08-08T11:26:33.502Z</time>
      </trkpt>
      <trkpt lat="63.68097" lon="10.23283">
        <ele>169.830146</ele>
        <time>2020-08-08T11:26:38.469Z</time>
      </trkpt>
      <trkpt lat="63.68103" lon="10.233">
        <ele>170.311911</ele>
        <time>2020-08-08T11:26:43.474Z</time>
      </trkpt>
      <trkpt lat="63.68109" lon="10.23316">
        <ele>170.776102</ele>
        <time>2020-08-08T11:26:48.467Z</time>
      </trkpt>
      <trkpt lat="63.68114" lon="10.23334">
        <ele>171.263561</ele>
        <time>2020-08-08T11:26:53.435Z</time>
      </trkpt>
      <trkpt lat="63.68119" lon="10.23352">
        <ele>171.72292</ele>
        <time>2020-08-08T11:26:58.469Z</time>
      </trkpt>
      <trkpt lat="63.68125" lon="10.23372">
        <ele>172.266113</ele>
        <time>2020-08-08T11:27:04.446Z</time>
      </trkpt>
      <trkpt lat="63.68131" lon="10.2339">
        <ele>172.76838</ele>
        <time>2020-08-08T11:27:09.461Z</time>
      </trkpt>
      <trkpt lat="63.68136" lon="10.2341">
        <ele>173.302194</ele>
        <time>2020-08-08T11:27:15.484Z</time>
      </trkpt>
      <trkpt lat="63.68142" lon="10.23429">
        <ele>173.804941</ele>
        <time>2020-08-08T11:27:20.451Z</time>
      </trkpt>
      <trkpt lat="63.68147" lon="10.23447">
        <ele>174.282931</ele>
        <time>2020-08-08T11:27:25.489Z</time>
      </trkpt>
      <trkpt lat="63.68153" lon="10.23467">
        <ele>174.820603</ele>
        <time>2020-08-08T11:27:30.480Z</time>
      </trkpt>
      <trkpt lat="63.68158" lon="10.23484">
        <ele>175.283608</ele>
        <time>2020-08-08T11:27:35.456Z</time>
      </trkpt>
      <trkpt lat="63.68164" lon="10.23501">
        <ele>175.79102</ele>
        <time>2020-08-08T11:27:40.489Z</time>
      </trkpt>
      <trkpt lat="63.68171" lon="10.23516">
        <ele>176.24972</ele>
        <time>2020-08-08T11:27:45.450Z</time>
      </trkpt>
      <trkpt lat="63.68176" lon="10.23535">
        <ele>176.471173</ele>
        <time>2020-08-08T11:27:50.489Z</time>
      </trkpt>
      <trkpt lat="63.68181" lon="10.23554">
        <ele>176.704036</ele>
        <time>2020-08-08T11:27:55.454Z</time>
      </trkpt>
      <trkpt lat="63.68186" lon="10.23576">
        <ele>176.956266</ele>
        <time>2020-08-08T11:28:00.499Z</time>
      </trkpt>
      <trkpt lat="63.68192" lon="10.23596">
        <ele>177.203559</ele>
        <time>2020-08-08T11:28:05.471Z</time>
      </trkpt>
      <trkpt lat="63.682" lon="10.23614">
        <ele>177.451899</ele>
        <time>2020-08-08T11:28:10.464Z</time>
      </trkpt>
      <trkpt lat="63.68206" lon="10.23632">
        <ele>177.682801</ele>
        <time>2020-08-08T11:28:15.457Z</time>
      </trkpt>
      <trkpt lat="63.68211" lon="10.23653">
        <ele>177.932101</ele>
        <time>2020-08-08T11:28:20.442Z</time>
      </trkpt>
      <trkpt lat="63.68217" lon="10.2367">
        <ele>178.148536</ele>
        <time>2020-08-08T11:28:24.468Z</time>
      </trkpt>
      <trkpt lat="63.68222" lon="10.23687">
        <ele>178.361324</ele>
        <time>2020-08-08T11:28:28.448Z</time>
      </trkpt>
      <trkpt lat="63.68227" lon="10.23707">
        <ele>178.592121</ele>
        <time>2020-08-08T11:28:32.466Z</time>
      </trkpt>
      <trkpt lat="63.68234" lon="10.23725">
        <ele>178.828617</ele>
        <time>2020-08-08T11:28:36.451Z</time>
      </trkpt>
      <trkpt lat="63.68239" lon="10.23744">
        <ele>179.060099</ele>
        <time>2020-08-08T11:28:40.516Z</time>
      </trkpt>
      <trkpt lat="63.68245" lon="10.23763">
        <ele>179.291971</ele>
        <time>2020-08-08T11:28:44.488Z</time>
      </trkpt>
      <trkpt lat="63.68251" lon="10.23784">
        <ele>179.54546</ele>
        <time>2020-08-08T11:28:48.489Z</time>
      </trkpt>
      <trkpt lat="63.68256" lon="10.23801">
        <ele>179.760382</ele>
        <time>2020-08-08T11:28:51.448Z</time>
      </trkpt>
      <trkpt lat="63.68262" lon="10.23817">
        <ele>179.968713</ele>
        <time>2020-08-08T11:28:54.453Z</time>
      </trkpt>
      <trkpt lat="63.68269" lon="10.23839">
        <ele>180.236457</ele>
        <time>2020-08-08T11:28:58.471Z</time>
      </trkpt>
      <trkpt lat="63.68276" lon="10.23858">
        <ele>180.736153</ele>
        <time>2020-08-08T11:29:02.465Z</time>
      </trkpt>
      <trkpt lat="63.68283" lon="10.23878">
        <ele>181.569311</ele>
        <time>2020-08-08T11:29:06.477Z</time>
      </trkpt>
      <trkpt lat="63.68289" lon="10.23895">
        <ele>182.292691</ele>
        <time>2020-08-08T11:29:10.450Z</time>
      </trkpt>
      <trkpt lat="63.68296" lon="10.23912">
        <ele>183.005386</ele>
        <time>2020-08-08T11:29:14.450Z</time>
      </trkpt>
      <trkpt lat="63.68303" lon="10.2393">
        <ele>183.778281</ele>
        <time>2020-08-08T11:29:19.441Z</time>
      </trkpt>
      <trkpt lat="63.68311" lon="10.23946">
        <ele>184.570764</ele>
        <time>2020-08-08T11:29:24.479Z</time>
      </trkpt>
      <trkpt lat="63.68319" lon="10.23963">
        <ele>185.343761</ele>
        <time>2020-08-08T11:29:29.469Z</time>
      </trkpt>
      <trkpt lat="63.68326" lon="10.23979">
        <ele>186.105862</ele>
        <time>2020-08-08T11:29:34.460Z</time>
      </trkpt>
      <trkpt lat="63.68333" lon="10.23993">
        <ele>186.777588</ele>
        <time>2020-08-08T11:29:38.452Z</time>
      </trkpt>
      <trkpt lat="63.6834" lon="10.24009">
        <ele>187.495858</ele>
        <time>2020-08-08T11:29:43.491Z</time>
      </trkpt>
      <trkpt lat="63.68348" lon="10.24023">
        <ele>188.213714</ele>
        <time>2020-08-08T11:29:48.468Z</time>
      </trkpt>
      <trkpt lat="63.68355" lon="10.24034">
        <ele>188.871849</ele>
        <time>2020-08-08T11:29:53.490Z</time>
      </trkpt>
      <trkpt lat="63.68363" lon="10.2405">
        <ele>189.618926</ele>
        <time>2020-08-08T11:29:58.493Z</time>
      </trkpt>
      <trkpt lat="63.6837" lon="10.24063">
        <ele>190.282344</ele>
        <time>2020-08-08T11:30:03.506Z</time>
      </trkpt>
      <trkpt lat="63.68379" lon="10.24076">
        <ele>191.019941</ele>
        <time>2020-08-08T11:30:08.471Z</time>
      </trkpt>
      <trkpt lat="63.68387" lon="10.24091">
        <ele>191.782208</ele>
        <time>2020-08-08T11:30:14.474Z</time>
      </trkpt>
      <trkpt lat="63.68396" lon="10.24103">
        <ele>192.542696</ele>
        <time>2020-08-08T11:30:20.440Z</time>
      </trkpt>
      <trkpt lat="63.68403" lon="10.24114">
        <ele>193.204579</ele>
        <time>2020-08-08T11:30:25.454Z</time>
      </trkpt>
      <trkpt lat="63.68412" lon="10.24126">
        <ele>193.966373</ele>
        <time>2020-08-08T11:30:30.465Z</time>
      </trkpt>
      <trkpt lat="63.6842" lon="10.24137">
        <ele>194.707507</ele>
        <time>2020-08-08T11:30:35.459Z</time>
      </trkpt>
      <trkpt lat="63.68428" lon="10.24146">
        <ele>195.419218</ele>
        <time>2020-08-08T11:30:40.478Z</time>
      </trkpt>
      <trkpt lat="63.68436" lon="10.24156">
        <ele>196.139872</ele>
        <time>2020-08-08T11:30:45.477Z</time>
      </trkpt>
      <trkpt lat="63.68443" lon="10.24169">
        <ele>196.855298</ele>
        <time>2020-08-08T11:30:50.442Z</time>
      </trkpt>
      <trkpt lat="63.68452" lon="10.2418">
        <ele>197.661382</ele>
        <time>2020-08-08T11:30:56.440Z</time>
      </trkpt>
      <trkpt lat="63.68462" lon="10.24189">
        <ele>198.490504</ele>
        <time>2020-08-08T11:31:02.458Z</time>
      </trkpt>
      <trkpt lat="63.68472" lon="10.242">
        <ele>199.328767</ele>
        <time>2020-08-08T11:31:08.449Z</time>
      </trkpt>
      <trkpt lat="63.68481" lon="10.2421">
        <ele>200.131826</ele>
        <time>2020-08-08T11:31:13.454Z</time>
      </trkpt>
      <trkpt lat="63.68489" lon="10.24217">
        <ele>200.833996</ele>
        <time>2020-08-08T11:31:18.453Z</time>
      </trkpt>
      <trkpt lat="63.68499" lon="10.24224">
        <ele>201.601703</ele>
        <time>2020-08-08T11:31:23.469Z</time>
      </trkpt>
      <trkpt lat="63.68507" lon="10.24234">
        <ele>202.309649</ele>
        <time>2020-08-08T11:31:29.478Z</time>
      </trkpt>
      <trkpt lat="63.68516" lon="10.24241">
        <ele>203.087113</ele>
        <time>2020-08-08T11:31:34.473Z</time>
      </trkpt>
      <trkpt lat="63.68526" lon="10.24248">
        <ele>203.884341</ele>
        <time>2020-08-08T11:31:39.484Z</time>
      </trkpt>
      <trkpt lat="63.68534" lon="10.24256">
        <ele>204.597475</ele>
        <time>2020-08-08T11:31:44.446Z</time>
      </trkpt>
      <trkpt lat="63.68543" lon="10.24263">
        <ele>205.303053</ele>
        <time>2020-08-08T11:31:49.489Z</time>
      </trkpt>
      <trkpt lat="63.68551" lon="10.24272">
        <ele>206.023317</ele>
        <time>2020-08-08T11:31:54.442Z</time>
      </trkpt>
      <trkpt lat="63.68559" lon="10.24279">
        <ele>206.728102</ele>
        <time>2020-08-08T11:31:59.474Z</time>
      </trkpt>
      <trkpt lat="63.68568" lon="10.24285">
        <ele>207.469828</ele>
        <time>2020-08-08T11:32:05.472Z</time>
      </trkpt>
      <trkpt lat="63.68577" lon="10.24292">
        <ele>208.112207</ele>
        <time>2020-08-08T11:32:11.472Z</time>
      </trkpt>
      <trkpt lat="63.68587" lon="10.24297">
        <ele>208.829873</ele>
        <time>2020-08-08T11:32:17.485Z</time>
      </trkpt>
      <trkpt lat="63.68597" lon="10.24306">
        <ele>209.54823</ele>
        <time>2020-08-08T11:32:23.494Z</time>
      </trkpt>
      <trkpt lat="63.68605" lon="10.24311">
        <ele>210.19838</ele>
        <time>2020-08-08T11:32:28.445Z</time>
      </trkpt>
      <trkpt lat="63.68615" lon="10.24319">
        <ele>210.874261</ele>
        <time>2020-08-08T11:32:33.454Z</time>
      </trkpt>
      <trkpt lat="63.68625" lon="10.24326">
        <ele>211.622471</ele>
        <time>2020-08-08T11:32:39.466Z</time>
      </trkpt>
      <trkpt lat="63.68634" lon="10.2433">
        <ele>212.299794</ele>
        <time>2020-08-08T11:32:45.491Z</time>
      </trkpt>
      <trkpt lat="63.68644" lon="10.24336">
        <ele>212.987197</ele>
        <time>2020-08-08T11:32:50.454Z</time>
      </trkpt>
      <trkpt lat="63.68654" lon="10.24343">
        <ele>213.728647</ele>
        <time>2020-08-08T11:32:56.471Z</time>
      </trkpt>
      <trkpt lat="63.68663" lon="10.24351">
        <ele>214.454656</ele>
        <time>2020-08-08T11:33:02.501Z</time>
      </trkpt>
      <trkpt lat="63.68673" lon="10.24358">
        <ele>215.169389</ele>
        <time>2020-08-08T11:33:09.458Z</time>
      </trkpt>
      <trkpt lat="63.68683" lon="10.24364">
        <ele>215.873509</ele>
        <time>2020-08-08T11:33:18.453Z</time>
      </trkpt>
      <trkpt lat="63.68692" lon="10.2437">
        <ele>216.555711</ele>
        <time>2020-08-08T11:33:27.451Z</time>
      </trkpt>
      <trkpt lat="63.68702" lon="10.24376">
        <ele>217.247982</ele>
        <time>2020-08-08T11:33:35.492Z</time>
      </trkpt>
      <trkpt lat="63.68712" lon="10.24381">
        <ele>217.960401</ele>
        <time>2020-08-08T11:33:43.471Z</time>
      </trkpt>
      <trkpt lat="63.68722" lon="10.24387">
        <ele>218.685634</ele>
        <time>2020-08-08T11:33:50.463Z</time>
      </trkpt>
      <trkpt lat="63.68731" lon="10.24393">
        <ele>219.371517</ele>
        <time>2020-08-08T11:33:56.474Z</time>
      </trkpt>
      <trkpt lat="63.6874" lon="10.24398">
        <ele>220.034764</ele>
        <time>2020-08-08T11:34:03.476Z</time>
      </trkpt>
      <trkpt lat="63.6875" lon="10.24404">
        <ele>220.695988</ele>
        <time>2020-08-08T11:34:11.445Z</time>
      </trkpt>
      <trkpt lat="63.68759" lon="10.24407">
        <ele>221.289907</ele>
        <time>2020-08-08T11:34:18.454Z</time>
      </trkpt>
      <trkpt lat="63.68768" lon="10.24411">
        <ele>221.882017</ele>
        <time>2020-08-08T11:34:25.450Z</time>
      </trkpt>
      <trkpt lat="63.68778" lon="10.24414">
        <ele>222.537328</ele>
        <time>2020-08-08T11:34:33.467Z</time>
      </trkpt>
      <trkpt lat="63.68788" lon="10.2442">
        <ele>223.167524</ele>
        <time>2020-08-08T11:34:40.459Z</time>
      </trkpt>
      <trkpt lat="63.68797" lon="10.24426">
        <ele>223.810953</ele>
        <time>2020-08-08T11:34:48.488Z</time>
      </trkpt>
      <trkpt lat="63.68806" lon="10.24431">
        <ele>224.399953</ele>
        <time>2020-08-08T11:34:55.475Z</time>
      </trkpt>
      <trkpt lat="63.68816" lon="10.24436">
        <ele>225.064094</ele>
        <time>2020-08-08T11:35:02.440Z</time>
      </trkpt>
      <trkpt lat="63.68825" lon="10.24438">
        <ele>225.663332</ele>
        <time>2020-08-08T11:35:09.475Z</time>
      </trkpt>
      <trkpt lat="63.68835" lon="10.24442">
        <ele>226.323701</ele>
        <time>2020-08-08T11:35:15.471Z</time>
      </trkpt>
      <trkpt lat="63.68844" lon="10.24443">
        <ele>226.913957</ele>
        <time>2020-08-08T11:35:23.481Z</time>
      </trkpt>
      <trkpt lat="63.68853" lon="10.24448">
        <ele>227.512669</ele>
        <time>2020-08-08T11:35:29.494Z</time>
      </trkpt>
      <trkpt lat="63.68863" lon="10.24451">
        <ele>228.107811</ele>
        <time>2020-08-08T11:35:36.466Z</time>
      </trkpt>
      <trkpt lat="63.68871" lon="10.24455">
        <ele>228.694104</ele>
        <time>2020-08-08T11:35:44.449Z</time>
      </trkpt>
      <trkpt lat="63.68881" lon="10.24459">
        <ele>229.325408</ele>
        <time>2020-08-08T11:35:51.463Z</time>
      </trkpt>
      <trkpt lat="63.6889" lon="10.24461">
        <ele>229.929538</ele>
        <time>2020-08-08T11:35:58.454Z</time>
      </trkpt>
      <trkpt lat="63.689" lon="10.24465">
        <ele>230.556118</ele>
        <time>2020-08-08T11:36:05.467Z</time>
      </trkpt>
      <trkpt lat="63.68909" lon="10.24468">
        <ele>231.141529</ele>
        <time>2020-08-08T11:36:11.453Z</time>
      </trkpt>
      <trkpt lat="63.68919" lon="10.2447">
        <ele>231.77731</ele>
        <time>2020-08-08T11:36:17.468Z</time>
      </trkpt>
      <trkpt lat="63.68928" lon="10.24471">
        <ele>232.259564</ele>
        <time>2020-08-08T11:36:23.490Z</time>
      </trkpt>
      <trkpt lat="63.68937" lon="10.24471">
        <ele>232.746156</ele>
        <time>2020-08-08T11:36:29.471Z</time>
      </trkpt>
      <trkpt lat="63.68947" lon="10.24476">
        <ele>233.255473</ele>
        <time>2020-08-08T11:36:35.469Z</time>
      </trkpt>
      <trkpt lat="63.68956" lon="10.24481">
        <ele>233.733675</ele>
        <time>2020-08-08T11:36:41.501Z</time>
      </trkpt>
      <trkpt lat="63.68965" lon="10.24484">
        <ele>234.247593</ele>
        <time>2020-08-08T11:36:48.447Z</time>
      </trkpt>
      <trkpt lat="63.68975" lon="10.24486">
        <ele>234.761048</ele>
        <time>2020-08-08T11:36:58.501Z</time>
      </trkpt>
      <trkpt lat="63.68985" lon="10.24486">
        <ele>235.268602</ele>
        <time>2020-08-08T11:37:05.470Z</time>
      </trkpt>
      <trkpt lat="63.68995" lon="10.24485">
        <ele>235.808583</ele>
        <time>2020-08-08T11:37:11.460Z</time>
      </trkpt>
      <trkpt lat="63.69005" lon="10.24484">
        <ele>236.316185</ele>
        <time>2020-08-08T11:37:17.501Z</time>
      </trkpt>
      <trkpt lat="63.69016" lon="10.24485">
        <ele>236.886905</ele>
        <time>2020-08-08T11:37:24.454Z</time>
      </trkpt>
      <trkpt lat="63.69025" lon="10.24486">
        <ele>237.389405</ele>
        <time>2020-08-08T11:37:29.487Z</time>
      </trkpt>
      <trkpt lat="63.69035" lon="10.24485">
        <ele>237.907384</ele>
        <time>2020-08-08T11:37:35.460Z</time>
      </trkpt>
      <trkpt lat="63.69045" lon="10.24486">
        <ele>238.425338</ele>
        <time>2020-08-08T11:37:41.467Z</time>
      </trkpt>
      <trkpt lat="63.69055" lon="10.24486">
        <ele>238.959288</ele>
        <time>2020-08-08T11:37:48.532Z</time>
      </trkpt>
      <trkpt lat="63.69065" lon="10.24487">
        <ele>239.472324</ele>
        <time>2020-08-08T11:37:55.482Z</time>
      </trkpt>
      <trkpt lat="63.69075" lon="10.24487">
        <ele>239.990257</ele>
        <time>2020-08-08T11:38:03.454Z</time>
      </trkpt>
      <trkpt lat="63.69084" lon="10.24488">
        <ele>240.472126</ele>
        <time>2020-08-08T11:38:10.477Z</time>
      </trkpt>
      <trkpt lat="63.69094" lon="10.24488">
        <ele>240.995295</ele>
        <time>2020-08-08T11:38:17.493Z</time>
      </trkpt>
      <trkpt lat="63.69104" lon="10.2449">
        <ele>241.701017</ele>
        <time>2020-08-08T11:38:23.480Z</time>
      </trkpt>
      <trkpt lat="63.69114" lon="10.2449">
        <ele>242.544438</ele>
        <time>2020-08-08T11:38:30.441Z</time>
      </trkpt>
      <trkpt lat="63.69122" lon="10.24488">
        <ele>243.306792</ele>
        <time>2020-08-08T11:38:37.477Z</time>
      </trkpt>
      <trkpt lat="63.69132" lon="10.24487">
        <ele>244.160363</ele>
        <time>2020-08-08T11:38:44.477Z</time>
      </trkpt>
      <trkpt lat="63.69142" lon="10.24483">
        <ele>244.990064</ele>
        <time>2020-08-08T11:38:50.471Z</time>
      </trkpt>
      <trkpt lat="63.69152" lon="10.24479">
        <ele>245.87549</ele>
        <time>2020-08-08T11:38:56.487Z</time>
      </trkpt>
      <trkpt lat="63.69162" lon="10.24476">
        <ele>246.682769</ele>
        <time>2020-08-08T11:39:02.474Z</time>
      </trkpt>
      <trkpt lat="63.69172" lon="10.24474">
        <ele>247.546865</ele>
        <time>2020-08-08T11:39:08.484Z</time>
      </trkpt>
      <trkpt lat="63.69181" lon="10.24469">
        <ele>248.356393</ele>
        <time>2020-08-08T11:39:14.488Z</time>
      </trkpt>
      <trkpt lat="63.69191" lon="10.24464">
        <ele>249.215821</ele>
        <time>2020-08-08T11:39:20.451Z</time>
      </trkpt>
      <trkpt lat="63.69201" lon="10.24459">
        <ele>250.110335</ele>
        <time>2020-08-08T11:39:26.474Z</time>
      </trkpt>
      <trkpt lat="63.6921" lon="10.24456">
        <ele>250.907136</ele>
        <time>2020-08-08T11:39:32.459Z</time>
      </trkpt>
      <trkpt lat="63.69221" lon="10.24453">
        <ele>251.780819</ele>
        <time>2020-08-08T11:39:38.456Z</time>
      </trkpt>
      <trkpt lat="63.6923" lon="10.24448">
        <ele>252.634757</ele>
        <time>2020-08-08T11:39:45.465Z</time>
      </trkpt>
      <trkpt lat="63.69239" lon="10.24444">
        <ele>253.414805</ele>
        <time>2020-08-08T11:39:51.474Z</time>
      </trkpt>
      <trkpt lat="63.69249" lon="10.24439">
        <ele>254.292609</ele>
        <time>2020-08-08T11:39:58.459Z</time>
      </trkpt>
      <trkpt lat="63.69259" lon="10.24434">
        <ele>255.156075</ele>
        <time>2020-08-08T11:40:05.448Z</time>
      </trkpt>
      <trkpt lat="63.69269" lon="10.24431">
        <ele>256.027195</ele>
        <time>2020-08-08T11:40:12.485Z</time>
      </trkpt>
      <trkpt lat="63.69278" lon="10.24427">
        <ele>256.740297</ele>
        <time>2020-08-08T11:40:18.461Z</time>
      </trkpt>
      <trkpt lat="63.69288" lon="10.24424">
        <ele>257.402206</ele>
        <time>2020-08-08T11:40:24.488Z</time>
      </trkpt>
      <trkpt lat="63.69297" lon="10.24419">
        <ele>258.050648</ele>
        <time>2020-08-08T11:40:31.449Z</time>
      </trkpt>
      <trkpt lat="63.69306" lon="10.24416">
        <ele>258.681764</ele>
        <time>2020-08-08T11:40:38.496Z</time>
      </trkpt>
      <trkpt lat="63.69315" lon="10.24411">
        <ele>259.363701</ele>
        <time>2020-08-08T11:40:45.485Z</time>
      </trkpt>
      <trkpt lat="63.69324" lon="10.24406">
        <ele>260.021725</ele>
        <time>2020-08-08T11:40:52.450Z</time>
      </trkpt>
      <trkpt lat="63.69335" lon="10.24403">
        <ele>260.75916</ele>
        <time>2020-08-08T11:40:59.455Z</time>
      </trkpt>
      <trkpt lat="63.69345" lon="10.24398">
        <ele>261.449149</ele>
        <time>2020-08-08T11:41:06.501Z</time>
      </trkpt>
      <trkpt lat="63.69354" lon="10.24393">
        <ele>262.126791</ele>
        <time>2020-08-08T11:41:13.452Z</time>
      </trkpt>
      <trkpt lat="63.69363" lon="10.24389">
        <ele>262.767141</ele>
        <time>2020-08-08T11:41:20.495Z</time>
      </trkpt>
      <trkpt lat="63.69372" lon="10.24385">
        <ele>263.435414</ele>
        <time>2020-08-08T11:41:27.478Z</time>
      </trkpt>
      <trkpt lat="63.69382" lon="10.2438">
        <ele>264.087265</ele>
        <time>2020-08-08T11:41:34.441Z</time>
      </trkpt>
      <trkpt lat="63.69391" lon="10.24376">
        <ele>264.774873</ele>
        <time>2020-08-08T11:41:42.449Z</time>
      </trkpt>
      <trkpt lat="63.69401" lon="10.24372">
        <ele>265.476746</ele>
        <time>2020-08-08T11:41:49.444Z</time>
      </trkpt>
      <trkpt lat="63.69411" lon="10.24367">
        <ele>266.170703</ele>
        <time>2020-08-08T11:41:55.457Z</time>
      </trkpt>
      <trkpt lat="63.6942" lon="10.24363">
        <ele>266.84189</ele>
        <time>2020-08-08T11:42:02.495Z</time>
      </trkpt>
      <trkpt lat="63.6943" lon="10.2436">
        <ele>267.518964</ele>
        <time>2020-08-08T11:42:09.501Z</time>
      </trkpt>
      <trkpt lat="63.69439" lon="10.24355">
        <ele>268.156542</ele>
        <time>2020-08-08T11:42:16.485Z</time>
      </trkpt>
      <trkpt lat="63.69447" lon="10.24349">
        <ele>268.784658</ele>
        <time>2020-08-08T11:42:23.445Z</time>
      </trkpt>
      <trkpt lat="63.69457" lon="10.24345">
        <ele>269.204106</ele>
        <time>2020-08-08T11:42:30.479Z</time>
      </trkpt>
      <trkpt lat="63.69467" lon="10.24341">
        <ele>269.516942</ele>
        <time>2020-08-08T11:42:37.450Z</time>
      </trkpt>
      <trkpt lat="63.69478" lon="10.24337">
        <ele>269.829096</ele>
        <time>2020-08-08T11:42:44.481Z</time>
      </trkpt>
      <trkpt lat="63.69487" lon="10.24333">
        <ele>270.102285</ele>
        <time>2020-08-08T11:42:50.453Z</time>
      </trkpt>
      <trkpt lat="63.69496" lon="10.2433">
        <ele>270.394735</ele>
        <time>2020-08-08T11:42:57.531Z</time>
      </trkpt>
      <trkpt lat="63.69506" lon="10.24325">
        <ele>270.702058</ele>
        <time>2020-08-08T11:43:04.479Z</time>
      </trkpt>
      <trkpt lat="63.69517" lon="10.2432">
        <ele>271.015197</ele>
        <time>2020-08-08T11:43:11.474Z</time>
      </trkpt>
      <trkpt lat="63.69526" lon="10.24314">
        <ele>271.314126</ele>
        <time>2020-08-08T11:43:17.453Z</time>
      </trkpt>
      <trkpt lat="63.69536" lon="10.2431">
        <ele>271.614962</ele>
        <time>2020-08-08T11:43:23.455Z</time>
      </trkpt>
      <trkpt lat="63.69546" lon="10.24306">
        <ele>271.922409</ele>
        <time>2020-08-08T11:43:29.440Z</time>
      </trkpt>
      <trkpt lat="63.69556" lon="10.24301">
        <ele>272.224511</ele>
        <time>2020-08-08T11:43:35.455Z</time>
      </trkpt>
      <trkpt lat="63.69566" lon="10.24297">
        <ele>272.522408</ele>
        <time>2020-08-08T11:43:41.459Z</time>
      </trkpt>
      <trkpt lat="63.69575" lon="10.24292">
        <ele>272.807255</ele>
        <time>2020-08-08T11:43:47.482Z</time>
      </trkpt>
      <trkpt lat="63.69585" lon="10.24287">
        <ele>273.098815</ele>
        <time>2020-08-08T11:43:53.458Z</time>
      </trkpt>
      <trkpt lat="63.69595" lon="10.24282">
        <ele>273.399709</ele>
        <time>2020-08-08T11:43:58.459Z</time>
      </trkpt>
      <trkpt lat="63.69604" lon="10.24277">
        <ele>273.693034</ele>
        <time>2020-08-08T11:44:03.498Z</time>
      </trkpt>
      <trkpt lat="63.69614" lon="10.24272">
        <ele>273.987211</ele>
        <time>2020-08-08T11:44:08.469Z</time>
      </trkpt>
      <trkpt lat="63.69623" lon="10.24266">
        <ele>274.279916</ele>
        <time>2020-08-08T11:44:13.503Z</time>
      </trkpt>
      <trkpt lat="63.69633" lon="10.24262">
        <ele>274.379218</ele>
        <time>2020-08-08T11:44:18.499Z</time>
      </trkpt>
      <trkpt lat="63.69644" lon="10.24261">
        <ele>274.369691</ele>
        <time>2020-08-08T11:44:24.452Z</time>
      </trkpt>
      <trkpt lat="63.69656" lon="10.24247">
        <ele>274.357216</ele>
        <time>2020-08-08T11:46:35.444Z</time>
      </trkpt>
      <trkpt lat="63.69664" lon="10.24241">
        <ele>274.348826</ele>
        <time>2020-08-08T11:46:42.440Z</time>
      </trkpt>
      <trkpt lat="63.69674" lon="10.2423">
        <ele>274.339114</ele>
        <time>2020-08-08T11:46:48.479Z</time>
      </trkpt>
      <trkpt lat="63.69683" lon="10.24218">
        <ele>274.329367</ele>
        <time>2020-08-08T11:46:53.441Z</time>
      </trkpt>
      <trkpt lat="63.69691" lon="10.24209">
        <ele>274.320902</ele>
        <time>2020-08-08T11:46:57.492Z</time>
      </trkpt>
      <trkpt lat="63.69701" lon="10.24195">
        <ele>274.310305</ele>
        <time>2020-08-08T11:47:01.486Z</time>
      </trkpt>
      <trkpt lat="63.69709" lon="10.24184">
        <ele>274.302084</ele>
        <time>2020-08-08T11:47:04.440Z</time>
      </trkpt>
      <trkpt lat="63.69717" lon="10.24173">
        <ele>274.293607</ele>
        <time>2020-08-08T11:47:07.436Z</time>
      </trkpt>
      <trkpt lat="63.69725" lon="10.24161">
        <ele>274.284571</ele>
        <time>2020-08-08T11:47:10.453Z</time>
      </trkpt>
      <trkpt lat="63.69734" lon="10.24147">
        <ele>274.274812</ele>
        <time>2020-08-08T11:47:13.461Z</time>
      </trkpt>
      <trkpt lat="63.69744" lon="10.24132">
        <ele>274.263832</ele>
        <time>2020-08-08T11:47:16.460Z</time>
      </trkpt>
      <trkpt lat="63.69755" lon="10.24118">
        <ele>274.252009</ele>
        <time>2020-08-08T11:47:19.455Z</time>
      </trkpt>
      <trkpt lat="63.69763" lon="10.24106">
        <ele>274.243413</ele>
        <time>2020-08-08T11:47:21.492Z</time>
      </trkpt>
      <trkpt lat="63.69771" lon="10.24094">
        <ele>274.234785</ele>
        <time>2020-08-08T11:47:23.462Z</time>
      </trkpt>
      <trkpt lat="63.69778" lon="10.24083">
        <ele>274.226475</ele>
        <time>2020-08-08T11:47:25.462Z</time>
      </trkpt>
      <trkpt lat="63.69786" lon="10.24071">
        <ele>274.184632</ele>
        <time>2020-08-08T11:47:27.470Z</time>
      </trkpt>
      <trkpt lat="63.69794" lon="10.2406">
        <ele>274.072311</ele>
        <time>2020-08-08T11:47:29.461Z</time>
      </trkpt>
      <trkpt lat="63.69802" lon="10.24048">
        <ele>273.955758</ele>
        <time>2020-08-08T11:47:31.491Z</time>
      </trkpt>
      <trkpt lat="63.6981" lon="10.24036">
        <ele>273.838453</ele>
        <time>2020-08-08T11:47:33.470Z</time>
      </trkpt>
      <trkpt lat="63.69818" lon="10.24025">
        <ele>273.726235</ele>
        <time>2020-08-08T11:47:35.469Z</time>
      </trkpt>
      <trkpt lat="63.69828" lon="10.24008">
        <ele>273.566258</ele>
        <time>2020-08-08T11:47:38.445Z</time>
      </trkpt>
      <trkpt lat="63.69839" lon="10.23992">
        <ele>273.406084</ele>
        <time>2020-08-08T11:47:41.470Z</time>
      </trkpt>
      <trkpt lat="63.69847" lon="10.23981">
        <ele>273.29668</ele>
        <time>2020-08-08T11:47:43.494Z</time>
      </trkpt>
      <trkpt lat="63.69855" lon="10.2397">
        <ele>273.185501</ele>
        <time>2020-08-08T11:47:45.454Z</time>
      </trkpt>
      <trkpt lat="63.69866" lon="10.23955">
        <ele>273.024843</ele>
        <time>2020-08-08T11:47:48.526Z</time>
      </trkpt>
      <trkpt lat="63.69878" lon="10.2394">
        <ele>272.861889</ele>
        <time>2020-08-08T11:47:51.467Z</time>
      </trkpt>
      <trkpt lat="63.69886" lon="10.2393">
        <ele>272.752093</ele>
        <time>2020-08-08T11:47:53.470Z</time>
      </trkpt>
      <trkpt lat="63.69894" lon="10.2392">
        <ele>272.634197</ele>
        <time>2020-08-08T11:47:55.453Z</time>
      </trkpt>
      <trkpt lat="63.69903" lon="10.23911">
        <ele>272.51438</ele>
        <time>2020-08-08T11:47:57.490Z</time>
      </trkpt>
      <trkpt lat="63.69912" lon="10.23903">
        <ele>272.396859</ele>
        <time>2020-08-08T11:47:59.442Z</time>
      </trkpt>
      <trkpt lat="63.69921" lon="10.23895">
        <ele>272.279921</ele>
        <time>2020-08-08T11:48:01.448Z</time>
      </trkpt>
      <trkpt lat="63.6993" lon="10.23888">
        <ele>272.167704</ele>
        <time>2020-08-08T11:48:03.472Z</time>
      </trkpt>
      <trkpt lat="63.69939" lon="10.23882">
        <ele>272.050335</ele>
        <time>2020-08-08T11:48:05.513Z</time>
      </trkpt>
      <trkpt lat="63.69949" lon="10.23877">
        <ele>272.220836</ele>
        <time>2020-08-08T11:48:07.497Z</time>
      </trkpt>
      <trkpt lat="63.69958" lon="10.23871">
        <ele>272.436107</ele>
        <time>2020-08-08T11:48:09.474Z</time>
      </trkpt>
      <trkpt lat="63.69967" lon="10.23866">
        <ele>272.640999</ele>
        <time>2020-08-08T11:48:11.454Z</time>
      </trkpt>
      <trkpt lat="63.69981" lon="10.23862">
        <ele>272.936457</ele>
        <time>2020-08-08T11:48:14.446Z</time>
      </trkpt>
      <trkpt lat="63.6999" lon="10.23858">
        <ele>273.1404</ele>
        <time>2020-08-08T11:48:16.480Z</time>
      </trkpt>
      <trkpt lat="63.69999" lon="10.23855">
        <ele>273.340007</ele>
        <time>2020-08-08T11:48:18.450Z</time>
      </trkpt>
      <trkpt lat="63.70008" lon="10.23852">
        <ele>273.54815</ele>
        <time>2020-08-08T11:48:20.471Z</time>
      </trkpt>
      <trkpt lat="63.70018" lon="10.23849">
        <ele>273.754405</ele>
        <time>2020-08-08T11:48:22.442Z</time>
      </trkpt>
      <trkpt lat="63.70026" lon="10.23845">
        <ele>273.952996</ele>
        <time>2020-08-08T11:48:24.441Z</time>
      </trkpt>
      <trkpt lat="63.70035" lon="10.23842">
        <ele>274.150902</ele>
        <time>2020-08-08T11:48:26.439Z</time>
      </trkpt>
      <trkpt lat="63.70045" lon="10.23839">
        <ele>274.354184</ele>
        <time>2020-08-08T11:48:28.456Z</time>
      </trkpt>
      <trkpt lat="63.70054" lon="10.23836">
        <ele>274.565071</ele>
        <time>2020-08-08T11:48:30.509Z</time>
      </trkpt>
      <trkpt lat="63.70064" lon="10.23832">
        <ele>274.776773</ele>
        <time>2020-08-08T11:48:32.465Z</time>
      </trkpt>
      <trkpt lat="63.70073" lon="10.23828">
        <ele>274.990807</ele>
        <time>2020-08-08T11:48:34.452Z</time>
      </trkpt>
      <trkpt lat="63.70083" lon="10.23824">
        <ele>275.200179</ele>
        <time>2020-08-08T11:48:36.455Z</time>
      </trkpt>
      <trkpt lat="63.70092" lon="10.2382">
        <ele>275.416197</ele>
        <time>2020-08-08T11:48:38.451Z</time>
      </trkpt>
      <trkpt lat="63.70102" lon="10.23816">
        <ele>275.627899</ele>
        <time>2020-08-08T11:48:40.474Z</time>
      </trkpt>
      <trkpt lat="63.70112" lon="10.23812">
        <ele>275.8466</ele>
        <time>2020-08-08T11:48:42.472Z</time>
      </trkpt>
      <trkpt lat="63.70122" lon="10.23808">
        <ele>275.92731</ele>
        <time>2020-08-08T11:48:44.445Z</time>
      </trkpt>
      <trkpt lat="63.70131" lon="10.23804">
        <ele>275.808453</ele>
        <time>2020-08-08T11:48:46.479Z</time>
      </trkpt>
      <trkpt lat="63.70141" lon="10.238">
        <ele>275.693075</ele>
        <time>2020-08-08T11:48:48.465Z</time>
      </trkpt>
      <trkpt lat="63.70151" lon="10.23795">
        <ele>275.568041</ele>
        <time>2020-08-08T11:48:50.454Z</time>
      </trkpt>
      <trkpt lat="63.70161" lon="10.23791">
        <ele>275.441712</ele>
        <time>2020-08-08T11:48:52.494Z</time>
      </trkpt>
      <trkpt lat="63.7017" lon="10.23786">
        <ele>275.322211</ele>
        <time>2020-08-08T11:48:54.462Z</time>
      </trkpt>
      <trkpt lat="63.7018" lon="10.23781">
        <ele>275.206966</ele>
        <time>2020-08-08T11:48:56.474Z</time>
      </trkpt>
      <trkpt lat="63.70189" lon="10.23776">
        <ele>275.093031</ele>
        <time>2020-08-08T11:48:58.478Z</time>
      </trkpt>
      <trkpt lat="63.70198" lon="10.23771">
        <ele>274.980405</ele>
        <time>2020-08-08T11:49:00.497Z</time>
      </trkpt>
      <trkpt lat="63.70207" lon="10.23767">
        <ele>274.864469</ele>
        <time>2020-08-08T11:49:02.452Z</time>
      </trkpt>
      <trkpt lat="63.70216" lon="10.23762">
        <ele>274.751025</ele>
        <time>2020-08-08T11:49:04.458Z</time>
      </trkpt>
      <trkpt lat="63.70225" lon="10.23758">
        <ele>274.640072</ele>
        <time>2020-08-08T11:49:06.524Z</time>
      </trkpt>
      <trkpt lat="63.70234" lon="10.23753">
        <ele>274.528879</ele>
        <time>2020-08-08T11:49:08.457Z</time>
      </trkpt>
      <trkpt lat="63.70247" lon="10.23746">
        <ele>274.365235</ele>
        <time>2020-08-08T11:49:11.495Z</time>
      </trkpt>
      <trkpt lat="63.70256" lon="10.2374">
        <ele>274.248281</ele>
        <time>2020-08-08T11:49:13.488Z</time>
      </trkpt>
      <trkpt lat="63.70265" lon="10.23735">
        <ele>274.134993</ele>
        <time>2020-08-08T11:49:15.476Z</time>
      </trkpt>
      <trkpt lat="63.70274" lon="10.2373">
        <ele>274.021978</ele>
        <time>2020-08-08T11:49:17.437Z</time>
      </trkpt>
      <trkpt lat="63.70283" lon="10.23725">
        <ele>273.909225</ele>
        <time>2020-08-08T11:49:19.456Z</time>
      </trkpt>
      <trkpt lat="63.70296" lon="10.23716">
        <ele>273.756146</ele>
        <time>2020-08-08T11:49:22.491Z</time>
      </trkpt>
      <trkpt lat="63.70305" lon="10.23711">
        <ele>273.672627</ele>
        <time>2020-08-08T11:49:24.453Z</time>
      </trkpt>
      <trkpt lat="63.70314" lon="10.23706">
        <ele>273.59065</ele>
        <time>2020-08-08T11:49:26.472Z</time>
      </trkpt>
      <trkpt lat="63.70323" lon="10.237">
        <ele>273.506831</ele>
        <time>2020-08-08T11:49:28.456Z</time>
      </trkpt>
      <trkpt lat="63.70332" lon="10.23695">
        <ele>273.424184</ele>
        <time>2020-08-08T11:49:30.476Z</time>
      </trkpt>
      <trkpt lat="63.70341" lon="10.23689">
        <ele>273.342646</ele>
        <time>2020-08-08T11:49:32.441Z</time>
      </trkpt>
      <trkpt lat="63.70354" lon="10.23681">
        <ele>273.220394</ele>
        <time>2020-08-08T11:49:35.462Z</time>
      </trkpt>
      <trkpt lat="63.70363" lon="10.23676">
        <ele>273.137844</ele>
        <time>2020-08-08T11:49:37.456Z</time>
      </trkpt>
      <trkpt lat="63.70372" lon="10.2367">
        <ele>273.053265</ele>
        <time>2020-08-08T11:49:39.491Z</time>
      </trkpt>
      <trkpt lat="63.70381" lon="10.23665">
        <ele>272.967902</ele>
        <time>2020-08-08T11:49:41.475Z</time>
      </trkpt>
      <trkpt lat="63.7039" lon="10.2366">
        <ele>272.880102</ele>
        <time>2020-08-08T11:49:43.487Z</time>
      </trkpt>
      <trkpt lat="63.704" lon="10.23655">
        <ele>272.793671</ele>
        <time>2020-08-08T11:49:45.490Z</time>
      </trkpt>
      <trkpt lat="63.70409" lon="10.23649">
        <ele>272.710054</ele>
        <time>2020-08-08T11:49:47.500Z</time>
      </trkpt>
      <trkpt lat="63.70418" lon="10.23644">
        <ele>272.626725</ele>
        <time>2020-08-08T11:49:49.466Z</time>
      </trkpt>
      <trkpt lat="63.70427" lon="10.23639">
        <ele>272.543301</ele>
        <time>2020-08-08T11:49:51.453Z</time>
      </trkpt>
      <trkpt lat="63.70436" lon="10.23634">
        <ele>272.457742</ele>
        <time>2020-08-08T11:49:53.473Z</time>
      </trkpt>
      <trkpt lat="63.70445" lon="10.23629">
        <ele>272.375661</ele>
        <time>2020-08-08T11:49:55.497Z</time>
      </trkpt>
      <trkpt lat="63.70454" lon="10.23623">
        <ele>272.29087</ele>
        <time>2020-08-08T11:49:57.442Z</time>
      </trkpt>
      <trkpt lat="63.70463" lon="10.23618">
        <ele>272.204822</ele>
        <time>2020-08-08T11:49:59.456Z</time>
      </trkpt>
      <trkpt lat="63.70472" lon="10.23613">
        <ele>272.20256</ele>
        <time>2020-08-08T11:50:01.459Z</time>
      </trkpt>
      <trkpt lat="63.70482" lon="10.23607">
        <ele>272.252725</ele>
        <time>2020-08-08T11:50:03.462Z</time>
      </trkpt>
      <trkpt lat="63.70491" lon="10.23602">
        <ele>272.301411</ele>
        <time>2020-08-08T11:50:05.461Z</time>
      </trkpt>
      <trkpt lat="63.70501" lon="10.23597">
        <ele>272.353172</ele>
        <time>2020-08-08T11:50:07.457Z</time>
      </trkpt>
      <trkpt lat="63.7051" lon="10.23591">
        <ele>272.405157</ele>
        <time>2020-08-08T11:50:09.512Z</time>
      </trkpt>
      <trkpt lat="63.7052" lon="10.23585">
        <ele>272.456759</ele>
        <time>2020-08-08T11:50:11.469Z</time>
      </trkpt>
      <trkpt lat="63.7053" lon="10.23579">
        <ele>272.511761</ele>
        <time>2020-08-08T11:50:13.473Z</time>
      </trkpt>
      <trkpt lat="63.7054" lon="10.23573">
        <ele>272.565986</ele>
        <time>2020-08-08T11:50:15.441Z</time>
      </trkpt>
      <trkpt lat="63.7055" lon="10.23567">
        <ele>272.618976</ele>
        <time>2020-08-08T11:50:17.514Z</time>
      </trkpt>
      <trkpt lat="63.7056" lon="10.23561">
        <ele>272.673644</ele>
        <time>2020-08-08T11:50:19.466Z</time>
      </trkpt>
      <trkpt lat="63.70571" lon="10.23556">
        <ele>272.728088</ele>
        <time>2020-08-08T11:50:21.456Z</time>
      </trkpt>
      <trkpt lat="63.70581" lon="10.2355">
        <ele>272.784549</ele>
        <time>2020-08-08T11:50:23.459Z</time>
      </trkpt>
      <trkpt lat="63.70592" lon="10.23545">
        <ele>272.840112</ele>
        <time>2020-08-08T11:50:25.471Z</time>
      </trkpt>
      <trkpt lat="63.70602" lon="10.23539">
        <ele>272.895785</ele>
        <time>2020-08-08T11:50:27.493Z</time>
      </trkpt>
      <trkpt lat="63.70612" lon="10.23534">
        <ele>272.951184</ele>
        <time>2020-08-08T11:50:29.473Z</time>
      </trkpt>
      <trkpt lat="63.70623" lon="10.23528">
        <ele>273.005069</ele>
        <time>2020-08-08T11:50:31.472Z</time>
      </trkpt>
      <trkpt lat="63.70632" lon="10.23522">
        <ele>273.05811</ele>
        <time>2020-08-08T11:50:33.448Z</time>
      </trkpt>
      <trkpt lat="63.70642" lon="10.23516">
        <ele>273.104637</ele>
        <time>2020-08-08T11:50:35.503Z</time>
      </trkpt>
      <trkpt lat="63.70653" lon="10.2351">
        <ele>273.10379</ele>
        <time>2020-08-08T11:50:37.456Z</time>
      </trkpt>
      <trkpt lat="63.70663" lon="10.23504">
        <ele>273.102964</ele>
        <time>2020-08-08T11:50:39.471Z</time>
      </trkpt>
      <trkpt lat="63.70673" lon="10.23498">
        <ele>273.102105</ele>
        <time>2020-08-08T11:50:41.458Z</time>
      </trkpt>
      <trkpt lat="63.70685" lon="10.23494">
        <ele>273.101189</ele>
        <time>2020-08-08T11:50:43.457Z</time>
      </trkpt>
      <trkpt lat="63.70696" lon="10.2349">
        <ele>273.10031</ele>
        <time>2020-08-08T11:50:45.449Z</time>
      </trkpt>
      <trkpt lat="63.70707" lon="10.23488">
        <ele>273.099436</ele>
        <time>2020-08-08T11:50:47.456Z</time>
      </trkpt>
      <trkpt lat="63.70718" lon="10.23487">
        <ele>273.09854</ele>
        <time>2020-08-08T11:50:49.462Z</time>
      </trkpt>
      <trkpt lat="63.70729" lon="10.23488">
        <ele>273.097685</ele>
        <time>2020-08-08T11:50:51.484Z</time>
      </trkpt>
      <trkpt lat="63.70739" lon="10.2349">
        <ele>273.096857</ele>
        <time>2020-08-08T11:50:53.457Z</time>
      </trkpt>
      <trkpt lat="63.70749" lon="10.23494">
        <ele>273.096071</ele>
        <time>2020-08-08T11:50:55.450Z</time>
      </trkpt>
      <trkpt lat="63.70759" lon="10.23499">
        <ele>273.095299</ele>
        <time>2020-08-08T11:50:57.459Z</time>
      </trkpt>
      <trkpt lat="63.70768" lon="10.23504">
        <ele>273.094548</ele>
        <time>2020-08-08T11:50:59.446Z</time>
      </trkpt>
      <trkpt lat="63.70777" lon="10.2351">
        <ele>273.093781</ele>
        <time>2020-08-08T11:51:01.494Z</time>
      </trkpt>
      <trkpt lat="63.70787" lon="10.23516">
        <ele>273.093007</ele>
        <time>2020-08-08T11:51:03.492Z</time>
      </trkpt>
      <trkpt lat="63.70796" lon="10.23522">
        <ele>273.092249</ele>
        <time>2020-08-08T11:51:05.477Z</time>
      </trkpt>
      <trkpt lat="63.70805" lon="10.23528">
        <ele>273.09148</ele>
        <time>2020-08-08T11:51:07.461Z</time>
      </trkpt>
      <trkpt lat="63.70815" lon="10.23533">
        <ele>273.09069</ele>
        <time>2020-08-08T11:51:09.486Z</time>
      </trkpt>
      <trkpt lat="63.70824" lon="10.23538">
        <ele>273.245694</ele>
        <time>2020-08-08T11:51:11.450Z</time>
      </trkpt>
      <trkpt lat="63.70833" lon="10.23545">
        <ele>273.450327</ele>
        <time>2020-08-08T11:51:13.480Z</time>
      </trkpt>
      <trkpt lat="63.70842" lon="10.23551">
        <ele>273.644563</ele>
        <time>2020-08-08T11:51:15.498Z</time>
      </trkpt>
      <trkpt lat="63.70851" lon="10.23557">
        <ele>273.846587</ele>
        <time>2020-08-08T11:51:17.470Z</time>
      </trkpt>
      <trkpt lat="63.7086" lon="10.23562">
        <ele>274.042966</ele>
        <time>2020-08-08T11:51:19.438Z</time>
      </trkpt>
      <trkpt lat="63.70869" lon="10.23569">
        <ele>274.234604</ele>
        <time>2020-08-08T11:51:21.477Z</time>
      </trkpt>
      <trkpt lat="63.70878" lon="10.23575">
        <ele>274.439922</ele>
        <time>2020-08-08T11:51:23.477Z</time>
      </trkpt>
      <trkpt lat="63.70888" lon="10.2358">
        <ele>274.653837</ele>
        <time>2020-08-08T11:51:25.447Z</time>
      </trkpt>
      <trkpt lat="63.70898" lon="10.23585">
        <ele>274.865469</ele>
        <time>2020-08-08T11:51:27.444Z</time>
      </trkpt>
      <trkpt lat="63.70908" lon="10.2359">
        <ele>275.081919</ele>
        <time>2020-08-08T11:51:29.498Z</time>
      </trkpt>
      <trkpt lat="63.70917" lon="10.23593">
        <ele>275.279661</ele>
        <time>2020-08-08T11:51:31.470Z</time>
      </trkpt>
      <trkpt lat="63.70926" lon="10.23596">
        <ele>275.480692</ele>
        <time>2020-08-08T11:51:33.471Z</time>
      </trkpt>
      <trkpt lat="63.70935" lon="10.23597">
        <ele>275.678546</ele>
        <time>2020-08-08T11:51:35.453Z</time>
      </trkpt>
      <trkpt lat="63.70945" lon="10.23597">
        <ele>275.880209</ele>
        <time>2020-08-08T11:51:37.477Z</time>
      </trkpt>
      <trkpt lat="63.70955" lon="10.23596">
        <ele>276.092736</ele>
        <time>2020-08-08T11:51:39.504Z</time>
      </trkpt>
      <trkpt lat="63.70965" lon="10.23594">
        <ele>276.305418</ele>
        <time>2020-08-08T11:51:41.453Z</time>
      </trkpt>
      <trkpt lat="63.70975" lon="10.23593">
        <ele>276.518294</ele>
        <time>2020-08-08T11:51:43.498Z</time>
      </trkpt>
      <trkpt lat="63.70985" lon="10.2359">
        <ele>276.727983</ele>
        <time>2020-08-08T11:51:45.449Z</time>
      </trkpt>
      <trkpt lat="63.70995" lon="10.23587">
        <ele>276.867309</ele>
        <time>2020-08-08T11:51:47.495Z</time>
      </trkpt>
      <trkpt lat="63.71006" lon="10.23585">
        <ele>276.640631</ele>
        <time>2020-08-08T11:51:49.456Z</time>
      </trkpt>
      <trkpt lat="63.71017" lon="10.23583">
        <ele>276.413608</ele>
        <time>2020-08-08T11:51:51.487Z</time>
      </trkpt>
      <trkpt lat="63.71028" lon="10.23581">
        <ele>276.182728</ele>
        <time>2020-08-08T11:51:53.487Z</time>
      </trkpt>
      <trkpt lat="63.71039" lon="10.2358">
        <ele>275.95012</ele>
        <time>2020-08-08T11:51:55.459Z</time>
      </trkpt>
      <trkpt lat="63.71051" lon="10.2358">
        <ele>275.711466</ele>
        <time>2020-08-08T11:51:57.452Z</time>
      </trkpt>
      <trkpt lat="63.71062" lon="10.23582">
        <ele>275.486731</ele>
        <time>2020-08-08T11:51:59.449Z</time>
      </trkpt>
      <trkpt lat="63.71072" lon="10.23585">
        <ele>275.264417</ele>
        <time>2020-08-08T11:52:01.463Z</time>
      </trkpt>
      <trkpt lat="63.71082" lon="10.23591">
        <ele>275.047002</ele>
        <time>2020-08-08T11:52:03.459Z</time>
      </trkpt>
      <trkpt lat="63.71093" lon="10.23598">
        <ele>274.82297</ele>
        <time>2020-08-08T11:52:05.465Z</time>
      </trkpt>
      <trkpt lat="63.71102" lon="10.23606">
        <ele>274.608525</ele>
        <time>2020-08-08T11:52:07.451Z</time>
      </trkpt>
      <trkpt lat="63.71112" lon="10.23613">
        <ele>274.398747</ele>
        <time>2020-08-08T11:52:09.492Z</time>
      </trkpt>
      <trkpt lat="63.71122" lon="10.23621">
        <ele>274.178888</ele>
        <time>2020-08-08T11:52:11.480Z</time>
      </trkpt>
      <trkpt lat="63.71131" lon="10.23629">
        <ele>273.969111</ele>
        <time>2020-08-08T11:52:13.458Z</time>
      </trkpt>
      <trkpt lat="63.71141" lon="10.23636">
        <ele>273.756884</ele>
        <time>2020-08-08T11:52:15.489Z</time>
      </trkpt>
      <trkpt lat="63.71151" lon="10.23644">
        <ele>273.53869</ele>
        <time>2020-08-08T11:52:17.470Z</time>
      </trkpt>
      <trkpt lat="63.71161" lon="10.23652">
        <ele>273.328178</ele>
        <time>2020-08-08T11:52:19.480Z</time>
      </trkpt>
      <trkpt lat="63.7117" lon="10.23657">
        <ele>273.192478</ele>
        <time>2020-08-08T11:52:21.456Z</time>
      </trkpt>
      <trkpt lat="63.71179" lon="10.23662">
        <ele>273.260387</ele>
        <time>2020-08-08T11:52:23.493Z</time>
      </trkpt>
      <trkpt lat="63.71192" lon="10.23669">
        <ele>273.363169</ele>
        <time>2020-08-08T11:52:26.478Z</time>
      </trkpt>
      <trkpt lat="63.71202" lon="10.23673">
        <ele>273.437369</ele>
        <time>2020-08-08T11:52:28.466Z</time>
      </trkpt>
      <trkpt lat="63.71212" lon="10.23675">
        <ele>273.512592</ele>
        <time>2020-08-08T11:52:30.451Z</time>
      </trkpt>
      <trkpt lat="63.71222" lon="10.23675">
        <ele>273.588936</ele>
        <time>2020-08-08T11:52:32.451Z</time>
      </trkpt>
      <trkpt lat="63.71233" lon="10.23674">
        <ele>273.668418</ele>
        <time>2020-08-08T11:52:34.491Z</time>
      </trkpt>
      <trkpt lat="63.71243" lon="10.23671">
        <ele>273.748211</ele>
        <time>2020-08-08T11:52:36.506Z</time>
      </trkpt>
      <trkpt lat="63.71254" lon="10.23667">
        <ele>273.827106</ele>
        <time>2020-08-08T11:52:38.488Z</time>
      </trkpt>
      <trkpt lat="63.71264" lon="10.23663">
        <ele>273.907213</ele>
        <time>2020-08-08T11:52:40.462Z</time>
      </trkpt>
      <trkpt lat="63.71275" lon="10.23658">
        <ele>273.992526</ele>
        <time>2020-08-08T11:52:42.470Z</time>
      </trkpt>
      <trkpt lat="63.71287" lon="10.23653">
        <ele>274.079371</ele>
        <time>2020-08-08T11:52:44.477Z</time>
      </trkpt>
      <trkpt lat="63.71299" lon="10.23648">
        <ele>274.169098</ele>
        <time>2020-08-08T11:52:46.497Z</time>
      </trkpt>
      <trkpt lat="63.7131" lon="10.23643">
        <ele>274.258826</ele>
        <time>2020-08-08T11:52:48.477Z</time>
      </trkpt>
      <trkpt lat="63.71322" lon="10.23638">
        <ele>274.345475</ele>
        <time>2020-08-08T11:52:50.477Z</time>
      </trkpt>
      <trkpt lat="63.71333" lon="10.23632">
        <ele>274.430738</ele>
        <time>2020-08-08T11:52:52.479Z</time>
      </trkpt>
      <trkpt lat="63.71344" lon="10.23626">
        <ele>274.517977</ele>
        <time>2020-08-08T11:52:54.499Z</time>
      </trkpt>
      <trkpt lat="63.71355" lon="10.23621">
        <ele>274.466705</ele>
        <time>2020-08-08T11:52:56.442Z</time>
      </trkpt>
      <trkpt lat="63.71367" lon="10.23616">
        <ele>274.408904</ele>
        <time>2020-08-08T11:52:58.452Z</time>
      </trkpt>
      <trkpt lat="63.71378" lon="10.2361">
        <ele>274.351179</ele>
        <time>2020-08-08T11:53:00.476Z</time>
      </trkpt>
      <trkpt lat="63.71389" lon="10.23604">
        <ele>274.292365</ele>
        <time>2020-08-08T11:53:02.494Z</time>
      </trkpt>
      <trkpt lat="63.71401" lon="10.236">
        <ele>274.231306</ele>
        <time>2020-08-08T11:53:04.450Z</time>
      </trkpt>
      <trkpt lat="63.71412" lon="10.23594">
        <ele>274.172593</ele>
        <time>2020-08-08T11:53:06.473Z</time>
      </trkpt>
      <trkpt lat="63.71424" lon="10.23589">
        <ele>274.112585</ele>
        <time>2020-08-08T11:53:08.489Z</time>
      </trkpt>
      <trkpt lat="63.71436" lon="10.23584">
        <ele>274.049879</ele>
        <time>2020-08-08T11:53:10.504Z</time>
      </trkpt>
      <trkpt lat="63.71448" lon="10.23579">
        <ele>273.985675</ele>
        <time>2020-08-08T11:53:12.473Z</time>
      </trkpt>
      <trkpt lat="63.7146" lon="10.23573">
        <ele>273.923994</ele>
        <time>2020-08-08T11:53:14.464Z</time>
      </trkpt>
      <trkpt lat="63.71472" lon="10.23568">
        <ele>273.861414</ele>
        <time>2020-08-08T11:53:16.483Z</time>
      </trkpt>
      <trkpt lat="63.71484" lon="10.23562">
        <ele>273.800032</ele>
        <time>2020-08-08T11:53:18.466Z</time>
      </trkpt>
      <trkpt lat="63.71496" lon="10.23556">
        <ele>273.738081</ele>
        <time>2020-08-08T11:53:20.468Z</time>
      </trkpt>
      <trkpt lat="63.71508" lon="10.23552">
        <ele>273.675485</ele>
        <time>2020-08-08T11:53:22.478Z</time>
      </trkpt>
      <trkpt lat="63.71521" lon="10.23547">
        <ele>273.611585</ele>
        <time>2020-08-08T11:53:24.554Z</time>
      </trkpt>
      <trkpt lat="63.71533" lon="10.2354">
        <ele>273.195799</ele>
        <time>2020-08-08T11:53:26.458Z</time>
      </trkpt>
      <trkpt lat="63.71546" lon="10.23533">
        <ele>272.762255</ele>
        <time>2020-08-08T11:53:28.450Z</time>
      </trkpt>
      <trkpt lat="63.7156" lon="10.23528">
        <ele>272.329291</ele>
        <time>2020-08-08T11:53:30.494Z</time>
      </trkpt>
      <trkpt lat="63.71572" lon="10.23522">
        <ele>271.904247</ele>
        <time>2020-08-08T11:53:32.489Z</time>
      </trkpt>
      <trkpt lat="63.71585" lon="10.23518">
        <ele>271.486273</ele>
        <time>2020-08-08T11:53:34.471Z</time>
      </trkpt>
      <trkpt lat="63.71598" lon="10.23513">
        <ele>271.073528</ele>
        <time>2020-08-08T11:53:36.466Z</time>
      </trkpt>
      <trkpt lat="63.7161" lon="10.23508">
        <ele>270.663984</ele>
        <time>2020-08-08T11:53:38.479Z</time>
      </trkpt>
      <trkpt lat="63.71622" lon="10.23502">
        <ele>270.266151</ele>
        <time>2020-08-08T11:53:40.466Z</time>
      </trkpt>
      <trkpt lat="63.71634" lon="10.23497">
        <ele>269.874694</ele>
        <time>2020-08-08T11:53:42.479Z</time>
      </trkpt>
      <trkpt lat="63.71645" lon="10.23491">
        <ele>269.491261</ele>
        <time>2020-08-08T11:53:44.450Z</time>
      </trkpt>
      <trkpt lat="63.71657" lon="10.23484">
        <ele>269.093193</ele>
        <time>2020-08-08T11:53:46.509Z</time>
      </trkpt>
      <trkpt lat="63.71669" lon="10.23478">
        <ele>268.69724</ele>
        <time>2020-08-08T11:53:48.452Z</time>
      </trkpt>
      <trkpt lat="63.7168" lon="10.23471">
        <ele>268.32862</ele>
        <time>2020-08-08T11:53:50.469Z</time>
      </trkpt>
      <trkpt lat="63.71691" lon="10.23465">
        <ele>267.948398</ele>
        <time>2020-08-08T11:53:52.458Z</time>
      </trkpt>
      <trkpt lat="63.71702" lon="10.23458">
        <ele>267.72394</ele>
        <time>2020-08-08T11:53:54.469Z</time>
      </trkpt>
      <trkpt lat="63.71714" lon="10.23451">
        <ele>267.64703</ele>
        <time>2020-08-08T11:53:56.504Z</time>
      </trkpt>
      <trkpt lat="63.71725" lon="10.23444">
        <ele>267.569888</ele>
        <time>2020-08-08T11:53:58.471Z</time>
      </trkpt>
      <trkpt lat="63.71737" lon="10.23436">
        <ele>267.491242</ele>
        <time>2020-08-08T11:54:00.482Z</time>
      </trkpt>
      <trkpt lat="63.71748" lon="10.23428">
        <ele>267.412722</ele>
        <time>2020-08-08T11:54:02.471Z</time>
      </trkpt>
      <trkpt lat="63.7176" lon="10.2342">
        <ele>267.329335</ele>
        <time>2020-08-08T11:54:04.477Z</time>
      </trkpt>
      <trkpt lat="63.71772" lon="10.23413">
        <ele>267.250058</ele>
        <time>2020-08-08T11:54:06.474Z</time>
      </trkpt>
      <trkpt lat="63.71783" lon="10.23405">
        <ele>267.17538</ele>
        <time>2020-08-08T11:54:08.509Z</time>
      </trkpt>
      <trkpt lat="63.71793" lon="10.23397">
        <ele>267.104437</ele>
        <time>2020-08-08T11:54:10.470Z</time>
      </trkpt>
      <trkpt lat="63.71803" lon="10.23388">
        <ele>267.033919</ele>
        <time>2020-08-08T11:54:12.471Z</time>
      </trkpt>
      <trkpt lat="63.71813" lon="10.23378">
        <ele>266.961227</ele>
        <time>2020-08-08T11:54:14.447Z</time>
      </trkpt>
      <trkpt lat="63.71822" lon="10.23365">
        <ele>266.889109</ele>
        <time>2020-08-08T11:54:16.466Z</time>
      </trkpt>
      <trkpt lat="63.71832" lon="10.2335">
        <ele>266.813116</ele>
        <time>2020-08-08T11:54:18.468Z</time>
      </trkpt>
      <trkpt lat="63.71842" lon="10.23335">
        <ele>266.732503</ele>
        <time>2020-08-08T11:54:20.454Z</time>
      </trkpt>
      <trkpt lat="63.71853" lon="10.23319">
        <ele>266.647799</ele>
        <time>2020-08-08T11:54:22.456Z</time>
      </trkpt>
      <trkpt lat="63.71864" lon="10.23303">
        <ele>266.504407</ele>
        <time>2020-08-08T11:54:24.482Z</time>
      </trkpt>
      <trkpt lat="63.71876" lon="10.23288">
        <ele>266.095427</ele>
        <time>2020-08-08T11:54:26.476Z</time>
      </trkpt>
      <trkpt lat="63.71889" lon="10.23274">
        <ele>265.673823</ele>
        <time>2020-08-08T11:54:28.522Z</time>
      </trkpt>
      <trkpt lat="63.71903" lon="10.23263">
        <ele>265.229228</ele>
        <time>2020-08-08T11:54:30.482Z</time>
      </trkpt>
      <trkpt lat="63.71918" lon="10.23253">
        <ele>264.783941</ele>
        <time>2020-08-08T11:54:32.456Z</time>
      </trkpt>
      <trkpt lat="63.71933" lon="10.23247">
        <ele>264.32695</ele>
        <time>2020-08-08T11:54:34.445Z</time>
      </trkpt>
      <trkpt lat="63.71948" lon="10.23243">
        <ele>263.875268</ele>
        <time>2020-08-08T11:54:36.456Z</time>
      </trkpt>
      <trkpt lat="63.71964" lon="10.2324">
        <ele>263.412654</ele>
        <time>2020-08-08T11:54:38.507Z</time>
      </trkpt>
      <trkpt lat="63.7198" lon="10.23239">
        <ele>262.93384</ele>
        <time>2020-08-08T11:54:40.471Z</time>
      </trkpt>
      <trkpt lat="63.71997" lon="10.23238">
        <ele>262.434687</ele>
        <time>2020-08-08T11:54:42.449Z</time>
      </trkpt>
      <trkpt lat="63.72014" lon="10.23237">
        <ele>261.932599</ele>
        <time>2020-08-08T11:54:44.460Z</time>
      </trkpt>
      <trkpt lat="63.72032" lon="10.23236">
        <ele>261.421735</ele>
        <time>2020-08-08T11:54:46.499Z</time>
      </trkpt>
      <trkpt lat="63.7205" lon="10.23236">
        <ele>260.954087</ele>
        <time>2020-08-08T11:54:48.480Z</time>
      </trkpt>
      <trkpt lat="63.72059" lon="10.23236">
        <ele>260.725093</ele>
        <time>2020-08-08T11:54:49.493Z</time>
      </trkpt>
      <trkpt lat="63.72068" lon="10.23236">
        <ele>260.493583</ele>
        <time>2020-08-08T11:54:50.497Z</time>
      </trkpt>
      <trkpt lat="63.72086" lon="10.23236">
        <ele>260.04315</ele>
        <time>2020-08-08T11:54:52.461Z</time>
      </trkpt>
      <trkpt lat="63.72103" lon="10.23237">
        <ele>259.612524</ele>
        <time>2020-08-08T11:54:54.485Z</time>
      </trkpt>
      <trkpt lat="63.72119" lon="10.23239">
        <ele>259.216759</ele>
        <time>2020-08-08T11:54:56.493Z</time>
      </trkpt>
      <trkpt lat="63.72133" lon="10.23242">
        <ele>258.842837</ele>
        <time>2020-08-08T11:54:58.470Z</time>
      </trkpt>
      <trkpt lat="63.72147" lon="10.23248">
        <ele>258.486937</ele>
        <time>2020-08-08T11:55:00.452Z</time>
      </trkpt>
      <trkpt lat="63.7216" lon="10.23255">
        <ele>258.14919</ele>
        <time>2020-08-08T11:55:02.493Z</time>
      </trkpt>
      <trkpt lat="63.72173" lon="10.23262">
        <ele>257.829168</ele>
        <time>2020-08-08T11:55:04.474Z</time>
      </trkpt>
      <trkpt lat="63.72184" lon="10.23269">
        <ele>257.531296</ele>
        <time>2020-08-08T11:55:06.491Z</time>
      </trkpt>
      <trkpt lat="63.72195" lon="10.23277">
        <ele>257.250415</ele>
        <time>2020-08-08T11:55:08.455Z</time>
      </trkpt>
      <trkpt lat="63.72204" lon="10.23285">
        <ele>256.999551</ele>
        <time>2020-08-08T11:55:10.480Z</time>
      </trkpt>
      <trkpt lat="63.72214" lon="10.23292">
        <ele>256.70513</ele>
        <time>2020-08-08T11:55:12.489Z</time>
      </trkpt>
      <trkpt lat="63.72223" lon="10.233">
        <ele>256.211907</ele>
        <time>2020-08-08T11:55:14.485Z</time>
      </trkpt>
      <trkpt lat="63.72233" lon="10.23307">
        <ele>255.713289</ele>
        <time>2020-08-08T11:55:16.458Z</time>
      </trkpt>
      <trkpt lat="63.72243" lon="10.23316">
        <ele>255.173867</ele>
        <time>2020-08-08T11:55:18.478Z</time>
      </trkpt>
      <trkpt lat="63.72254" lon="10.23325">
        <ele>254.58197</ele>
        <time>2020-08-08T11:55:20.478Z</time>
      </trkpt>
      <trkpt lat="63.72266" lon="10.23335">
        <ele>253.949159</ele>
        <time>2020-08-08T11:55:22.480Z</time>
      </trkpt>
      <trkpt lat="63.72279" lon="10.23347">
        <ele>253.260793</ele>
        <time>2020-08-08T11:55:24.450Z</time>
      </trkpt>
      <trkpt lat="63.72293" lon="10.23359">
        <ele>252.500585</ele>
        <time>2020-08-08T11:55:26.473Z</time>
      </trkpt>
      <trkpt lat="63.7231" lon="10.23371">
        <ele>251.643652</ele>
        <time>2020-08-08T11:55:28.469Z</time>
      </trkpt>
      <trkpt lat="63.72319" lon="10.23377">
        <ele>251.186932</ele>
        <time>2020-08-08T11:55:29.496Z</time>
      </trkpt>
      <trkpt lat="63.72328" lon="10.23385">
        <ele>250.685081</ele>
        <time>2020-08-08T11:55:30.470Z</time>
      </trkpt>
      <trkpt lat="63.72338" lon="10.23392">
        <ele>250.171188</ele>
        <time>2020-08-08T11:55:31.449Z</time>
      </trkpt>
      <trkpt lat="63.72349" lon="10.23398">
        <ele>249.639589</ele>
        <time>2020-08-08T11:55:32.486Z</time>
      </trkpt>
      <trkpt lat="63.72359" lon="10.23404">
        <ele>249.123456</ele>
        <time>2020-08-08T11:55:33.478Z</time>
      </trkpt>
      <trkpt lat="63.72369" lon="10.2341">
        <ele>248.594503</ele>
        <time>2020-08-08T11:55:34.500Z</time>
      </trkpt>
      <trkpt lat="63.7238" lon="10.23414">
        <ele>248.060891</ele>
        <time>2020-08-08T11:55:35.471Z</time>
      </trkpt>
      <trkpt lat="63.72391" lon="10.23418">
        <ele>247.383446</ele>
        <time>2020-08-08T11:55:36.474Z</time>
      </trkpt>
      <trkpt lat="63.72402" lon="10.23422">
        <ele>246.5931</ele>
        <time>2020-08-08T11:55:37.469Z</time>
      </trkpt>
      <trkpt lat="63.72413" lon="10.23425">
        <ele>245.823802</ele>
        <time>2020-08-08T11:55:38.529Z</time>
      </trkpt>
      <trkpt lat="63.72425" lon="10.23428">
        <ele>245.021447</ele>
        <time>2020-08-08T11:55:39.479Z</time>
      </trkpt>
      <trkpt lat="63.72437" lon="10.23432">
        <ele>244.204849</ele>
        <time>2020-08-08T11:55:40.477Z</time>
      </trkpt>
      <trkpt lat="63.72449" lon="10.23435">
        <ele>243.367228</ele>
        <time>2020-08-08T11:55:41.448Z</time>
      </trkpt>
      <trkpt lat="63.72461" lon="10.23439">
        <ele>242.516092</ele>
        <time>2020-08-08T11:55:42.454Z</time>
      </trkpt>
      <trkpt lat="63.72474" lon="10.23442">
        <ele>241.659263</ele>
        <time>2020-08-08T11:55:43.501Z</time>
      </trkpt>
      <trkpt lat="63.72487" lon="10.23445">
        <ele>240.794608</ele>
        <time>2020-08-08T11:55:44.459Z</time>
      </trkpt>
      <trkpt lat="63.72499" lon="10.23449">
        <ele>239.914901</ele>
        <time>2020-08-08T11:55:45.501Z</time>
      </trkpt>
      <trkpt lat="63.72512" lon="10.23453">
        <ele>239.026764</ele>
        <time>2020-08-08T11:55:46.467Z</time>
      </trkpt>
      <trkpt lat="63.72525" lon="10.23457">
        <ele>238.126803</ele>
        <time>2020-08-08T11:55:47.464Z</time>
      </trkpt>
      <trkpt lat="63.72539" lon="10.23461">
        <ele>237.215153</ele>
        <time>2020-08-08T11:55:48.454Z</time>
      </trkpt>
      <trkpt lat="63.72552" lon="10.23464">
        <ele>236.331248</ele>
        <time>2020-08-08T11:55:49.470Z</time>
      </trkpt>
      <trkpt lat="63.72565" lon="10.23468">
        <ele>235.480369</ele>
        <time>2020-08-08T11:55:50.441Z</time>
      </trkpt>
      <trkpt lat="63.72578" lon="10.23472">
        <ele>234.814397</ele>
        <time>2020-08-08T11:55:51.457Z</time>
      </trkpt>
      <trkpt lat="63.7259" lon="10.23476">
        <ele>234.169748</ele>
        <time>2020-08-08T11:55:52.486Z</time>
      </trkpt>
      <trkpt lat="63.72603" lon="10.2348">
        <ele>233.5251</ele>
        <time>2020-08-08T11:55:53.465Z</time>
      </trkpt>
      <trkpt lat="63.72615" lon="10.23483">
        <ele>232.906179</ele>
        <time>2020-08-08T11:55:54.440Z</time>
      </trkpt>
      <trkpt lat="63.72627" lon="10.23488">
        <ele>232.305397</ele>
        <time>2020-08-08T11:55:55.491Z</time>
      </trkpt>
      <trkpt lat="63.72638" lon="10.23492">
        <ele>231.720341</ele>
        <time>2020-08-08T11:55:56.506Z</time>
      </trkpt>
      <trkpt lat="63.72649" lon="10.23495">
        <ele>231.15228</ele>
        <time>2020-08-08T11:55:57.460Z</time>
      </trkpt>
      <trkpt lat="63.7266" lon="10.23498">
        <ele>230.599893</ele>
        <time>2020-08-08T11:55:58.460Z</time>
      </trkpt>
      <trkpt lat="63.72671" lon="10.23501">
        <ele>230.058677</ele>
        <time>2020-08-08T11:55:59.461Z</time>
      </trkpt>
      <trkpt lat="63.72681" lon="10.23504">
        <ele>229.538373</ele>
        <time>2020-08-08T11:56:00.475Z</time>
      </trkpt>
      <trkpt lat="63.72691" lon="10.23506">
        <ele>229.037707</ele>
        <time>2020-08-08T11:56:01.508Z</time>
      </trkpt>
      <trkpt lat="63.727" lon="10.23509">
        <ele>228.54623</ele>
        <time>2020-08-08T11:56:02.450Z</time>
      </trkpt>
      <trkpt lat="63.7271" lon="10.23512">
        <ele>228.065971</ele>
        <time>2020-08-08T11:56:03.463Z</time>
      </trkpt>
      <trkpt lat="63.72719" lon="10.23514">
        <ele>227.586485</ele>
        <time>2020-08-08T11:56:04.463Z</time>
      </trkpt>
      <trkpt lat="63.72728" lon="10.23516">
        <ele>227.107882</ele>
        <time>2020-08-08T11:56:05.457Z</time>
      </trkpt>
      <trkpt lat="63.72738" lon="10.23518">
        <ele>226.63872</ele>
        <time>2020-08-08T11:56:06.472Z</time>
      </trkpt>
      <trkpt lat="63.72747" lon="10.23521">
        <ele>226.197003</ele>
        <time>2020-08-08T11:56:07.490Z</time>
      </trkpt>
      <trkpt lat="63.72756" lon="10.23523">
        <ele>225.760359</ele>
        <time>2020-08-08T11:56:08.476Z</time>
      </trkpt>
      <trkpt lat="63.72766" lon="10.23525">
        <ele>225.319511</ele>
        <time>2020-08-08T11:56:09.481Z</time>
      </trkpt>
      <trkpt lat="63.72775" lon="10.23525">
        <ele>224.888941</ele>
        <time>2020-08-08T11:56:10.511Z</time>
      </trkpt>
      <trkpt lat="63.72784" lon="10.23526">
        <ele>224.476744</ele>
        <time>2020-08-08T11:56:11.466Z</time>
      </trkpt>
      <trkpt lat="63.72793" lon="10.23526">
        <ele>224.060289</ele>
        <time>2020-08-08T11:56:12.485Z</time>
      </trkpt>
      <trkpt lat="63.72803" lon="10.23526">
        <ele>223.639214</ele>
        <time>2020-08-08T11:56:13.525Z</time>
      </trkpt>
      <trkpt lat="63.72821" lon="10.23526">
        <ele>222.815435</ele>
        <time>2020-08-08T11:56:15.446Z</time>
      </trkpt>
      <trkpt lat="63.72838" lon="10.23523">
        <ele>222.008752</ele>
        <time>2020-08-08T11:56:17.490Z</time>
      </trkpt>
      <trkpt lat="63.72856" lon="10.23519">
        <ele>221.193148</ele>
        <time>2020-08-08T11:56:19.458Z</time>
      </trkpt>
      <trkpt lat="63.72865" lon="10.23515">
        <ele>220.775551</ele>
        <time>2020-08-08T11:56:20.470Z</time>
      </trkpt>
      <trkpt lat="63.72874" lon="10.23512">
        <ele>220.35344</ele>
        <time>2020-08-08T11:56:21.500Z</time>
      </trkpt>
      <trkpt lat="63.72883" lon="10.23508">
        <ele>219.933272</ele>
        <time>2020-08-08T11:56:22.501Z</time>
      </trkpt>
      <trkpt lat="63.72892" lon="10.23503">
        <ele>219.497584</ele>
        <time>2020-08-08T11:56:23.495Z</time>
      </trkpt>
      <trkpt lat="63.72902" lon="10.23498">
        <ele>219.045797</ele>
        <time>2020-08-08T11:56:24.464Z</time>
      </trkpt>
      <trkpt lat="63.72911" lon="10.23493">
        <ele>218.599395</ele>
        <time>2020-08-08T11:56:25.477Z</time>
      </trkpt>
      <trkpt lat="63.72921" lon="10.23488">
        <ele>218.023538</ele>
        <time>2020-08-08T11:56:26.475Z</time>
      </trkpt>
      <trkpt lat="63.72932" lon="10.23483">
        <ele>217.105103</ele>
        <time>2020-08-08T11:56:27.491Z</time>
      </trkpt>
      <trkpt lat="63.72943" lon="10.23477">
        <ele>216.151729</ele>
        <time>2020-08-08T11:56:28.463Z</time>
      </trkpt>
      <trkpt lat="63.72954" lon="10.23471">
        <ele>215.180885</ele>
        <time>2020-08-08T11:56:29.474Z</time>
      </trkpt>
      <trkpt lat="63.72965" lon="10.23465">
        <ele>214.182566</ele>
        <time>2020-08-08T11:56:30.482Z</time>
      </trkpt>
      <trkpt lat="63.72977" lon="10.2346">
        <ele>213.145078</ele>
        <time>2020-08-08T11:56:31.459Z</time>
      </trkpt>
      <trkpt lat="63.7299" lon="10.23456">
        <ele>212.068335</ele>
        <time>2020-08-08T11:56:32.466Z</time>
      </trkpt>
      <trkpt lat="63.73002" lon="10.23452">
        <ele>210.986507</ele>
        <time>2020-08-08T11:56:33.438Z</time>
      </trkpt>
      <trkpt lat="63.73015" lon="10.2345">
        <ele>209.900168</ele>
        <time>2020-08-08T11:56:34.490Z</time>
      </trkpt>
      <trkpt lat="63.73028" lon="10.23449">
        <ele>208.815896</ele>
        <time>2020-08-08T11:56:35.510Z</time>
      </trkpt>
      <trkpt lat="63.7304" lon="10.23448">
        <ele>207.783798</ele>
        <time>2020-08-08T11:56:36.503Z</time>
      </trkpt>
      <trkpt lat="63.73052" lon="10.23448">
        <ele>206.768692</ele>
        <time>2020-08-08T11:56:37.474Z</time>
      </trkpt>
      <trkpt lat="63.73063" lon="10.23448">
        <ele>205.770755</ele>
        <time>2020-08-08T11:56:38.452Z</time>
      </trkpt>
      <trkpt lat="63.73075" lon="10.23447">
        <ele>204.764291</ele>
        <time>2020-08-08T11:56:39.451Z</time>
      </trkpt>
      <trkpt lat="63.73087" lon="10.23447">
        <ele>203.757826</ele>
        <time>2020-08-08T11:56:40.453Z</time>
      </trkpt>
      <trkpt lat="63.73098" lon="10.23447">
        <ele>202.823317</ele>
        <time>2020-08-08T11:56:41.495Z</time>
      </trkpt>
      <trkpt lat="63.7311" lon="10.23446">
        <ele>202.170167</ele>
        <time>2020-08-08T11:56:42.475Z</time>
      </trkpt>
      <trkpt lat="63.73121" lon="10.23446">
        <ele>201.52272</ele>
        <time>2020-08-08T11:56:43.460Z</time>
      </trkpt>
      <trkpt lat="63.73132" lon="10.23446">
        <ele>200.892331</ele>
        <time>2020-08-08T11:56:44.465Z</time>
      </trkpt>
      <trkpt lat="63.73144" lon="10.23446">
        <ele>200.261937</ele>
        <time>2020-08-08T11:56:45.475Z</time>
      </trkpt>
      <trkpt lat="63.73155" lon="10.23446">
        <ele>199.631527</ele>
        <time>2020-08-08T11:56:46.463Z</time>
      </trkpt>
      <trkpt lat="63.73165" lon="10.23446">
        <ele>199.018046</ele>
        <time>2020-08-08T11:56:47.477Z</time>
      </trkpt>
      <trkpt lat="63.73176" lon="10.23445">
        <ele>198.404509</ele>
        <time>2020-08-08T11:56:48.476Z</time>
      </trkpt>
      <trkpt lat="63.73187" lon="10.23444">
        <ele>197.796582</ele>
        <time>2020-08-08T11:56:49.486Z</time>
      </trkpt>
      <trkpt lat="63.73197" lon="10.23443">
        <ele>197.216863</ele>
        <time>2020-08-08T11:56:50.461Z</time>
      </trkpt>
      <trkpt lat="63.73207" lon="10.23443">
        <ele>196.631713</ele>
        <time>2020-08-08T11:56:51.482Z</time>
      </trkpt>
      <trkpt lat="63.73218" lon="10.23442">
        <ele>196.035314</ele>
        <time>2020-08-08T11:56:52.456Z</time>
      </trkpt>
      <trkpt lat="63.73229" lon="10.23442">
        <ele>195.427454</ele>
        <time>2020-08-08T11:56:53.461Z</time>
      </trkpt>
      <trkpt lat="63.73239" lon="10.23441">
        <ele>194.819361</ele>
        <time>2020-08-08T11:56:54.470Z</time>
      </trkpt>
      <trkpt lat="63.7325" lon="10.2344">
        <ele>194.222787</ele>
        <time>2020-08-08T11:56:55.452Z</time>
      </trkpt>
      <trkpt lat="63.7326" lon="10.2344">
        <ele>193.626472</ele>
        <time>2020-08-08T11:56:56.453Z</time>
      </trkpt>
      <trkpt lat="63.73271" lon="10.2344">
        <ele>193.030153</ele>
        <time>2020-08-08T11:56:57.496Z</time>
      </trkpt>
      <trkpt lat="63.73281" lon="10.2344">
        <ele>192.545813</ele>
        <time>2020-08-08T11:56:58.451Z</time>
      </trkpt>
      <trkpt lat="63.73292" lon="10.23439">
        <ele>192.188007</ele>
        <time>2020-08-08T11:56:59.490Z</time>
      </trkpt>
      <trkpt lat="63.73302" lon="10.23439">
        <ele>191.823361</ele>
        <time>2020-08-08T11:57:00.475Z</time>
      </trkpt>
      <trkpt lat="63.73313" lon="10.23439">
        <ele>191.462115</ele>
        <time>2020-08-08T11:57:01.505Z</time>
      </trkpt>
      <trkpt lat="63.73323" lon="10.23438">
        <ele>191.097367</ele>
        <time>2020-08-08T11:57:02.460Z</time>
      </trkpt>
      <trkpt lat="63.73334" lon="10.23438">
        <ele>190.739497</ele>
        <time>2020-08-08T11:57:03.462Z</time>
      </trkpt>
      <trkpt lat="63.73344" lon="10.23436">
        <ele>190.381196</ele>
        <time>2020-08-08T11:57:04.471Z</time>
      </trkpt>
      <trkpt lat="63.73355" lon="10.23435">
        <ele>190.019373</ele>
        <time>2020-08-08T11:57:05.470Z</time>
      </trkpt>
      <trkpt lat="63.73365" lon="10.23433">
        <ele>189.653927</ele>
        <time>2020-08-08T11:57:06.457Z</time>
      </trkpt>
      <trkpt lat="63.73376" lon="10.23431">
        <ele>189.301985</ele>
        <time>2020-08-08T11:57:07.465Z</time>
      </trkpt>
      <trkpt lat="63.73386" lon="10.23429">
        <ele>188.953083</ele>
        <time>2020-08-08T11:57:08.450Z</time>
      </trkpt>
      <trkpt lat="63.73395" lon="10.23427">
        <ele>188.616886</ele>
        <time>2020-08-08T11:57:09.466Z</time>
      </trkpt>
      <trkpt lat="63.73405" lon="10.23423">
        <ele>188.292812</ele>
        <time>2020-08-08T11:57:10.467Z</time>
      </trkpt>
      <trkpt lat="63.73414" lon="10.23419">
        <ele>187.974477</ele>
        <time>2020-08-08T11:57:11.459Z</time>
      </trkpt>
      <trkpt lat="63.73423" lon="10.23415">
        <ele>187.657719</ele>
        <time>2020-08-08T11:57:12.462Z</time>
      </trkpt>
      <trkpt lat="63.73432" lon="10.23411">
        <ele>187.34496</ele>
        <time>2020-08-08T11:57:13.449Z</time>
      </trkpt>
      <trkpt lat="63.73449" lon="10.23403">
        <ele>186.736585</ele>
        <time>2020-08-08T11:57:15.445Z</time>
      </trkpt>
      <trkpt lat="63.73465" lon="10.23394">
        <ele>186.360779</ele>
        <time>2020-08-08T11:57:17.444Z</time>
      </trkpt>
      <trkpt lat="63.73481" lon="10.23385">
        <ele>186.109494</ele>
        <time>2020-08-08T11:57:19.460Z</time>
      </trkpt>
      <trkpt lat="63.73496" lon="10.23377">
        <ele>185.871036</ele>
        <time>2020-08-08T11:57:21.494Z</time>
      </trkpt>
      <trkpt lat="63.73512" lon="10.2337">
        <ele>185.626637</ele>
        <time>2020-08-08T11:57:23.443Z</time>
      </trkpt>
      <trkpt lat="63.73526" lon="10.23364">
        <ele>185.395296</ele>
        <time>2020-08-08T11:57:25.455Z</time>
      </trkpt>
      <trkpt lat="63.7354" lon="10.23356">
        <ele>185.180668</ele>
        <time>2020-08-08T11:57:27.457Z</time>
      </trkpt>
      <trkpt lat="63.73553" lon="10.23349">
        <ele>184.975864</ele>
        <time>2020-08-08T11:57:29.454Z</time>
      </trkpt>
      <trkpt lat="63.73565" lon="10.23342">
        <ele>184.775879</ele>
        <time>2020-08-08T11:57:31.462Z</time>
      </trkpt>
      <trkpt lat="63.73578" lon="10.23337">
        <ele>184.58379</ele>
        <time>2020-08-08T11:57:33.455Z</time>
      </trkpt>
      <trkpt lat="63.73588" lon="10.23333">
        <ele>184.422313</ele>
        <time>2020-08-08T11:57:35.449Z</time>
      </trkpt>
      <trkpt lat="63.73597" lon="10.23329">
        <ele>184.276185</ele>
        <time>2020-08-08T11:57:37.439Z</time>
      </trkpt>
      <trkpt lat="63.73608" lon="10.23326">
        <ele>184.106641</ele>
        <time>2020-08-08T11:57:40.454Z</time>
      </trkpt>
      <trkpt lat="63.73618" lon="10.23325">
        <ele>183.956398</ele>
        <time>2020-08-08T11:57:43.457Z</time>
      </trkpt>
      <trkpt lat="63.73627" lon="10.23324">
        <ele>183.813871</ele>
        <time>2020-08-08T11:57:46.497Z</time>
      </trkpt>
      <trkpt lat="63.73637" lon="10.23323">
        <ele>183.979145</ele>
        <time>2020-08-08T11:57:49.461Z</time>
      </trkpt>
      <trkpt lat="63.73646" lon="10.23323">
        <ele>184.369295</ele>
        <time>2020-08-08T11:57:52.447Z</time>
      </trkpt>
      <trkpt lat="63.73656" lon="10.23325">
        <ele>184.772385</ele>
        <time>2020-08-08T11:57:55.455Z</time>
      </trkpt>
      <trkpt lat="63.73667" lon="10.23327">
        <ele>185.205115</ele>
        <time>2020-08-08T11:57:58.489Z</time>
      </trkpt>
      <trkpt lat="63.73677" lon="10.2333">
        <ele>185.622238</ele>
        <time>2020-08-08T11:58:01.490Z</time>
      </trkpt>
      <trkpt lat="63.73687" lon="10.23335">
        <ele>186.050724</ele>
        <time>2020-08-08T11:58:04.455Z</time>
      </trkpt>
      <trkpt lat="63.73699" lon="10.2334">
        <ele>186.528397</ele>
        <time>2020-08-08T11:58:07.502Z</time>
      </trkpt>
      <trkpt lat="63.73711" lon="10.23348">
        <ele>187.029946</ele>
        <time>2020-08-08T11:58:10.528Z</time>
      </trkpt>
      <trkpt lat="63.73719" lon="10.23353">
        <ele>187.394738</ele>
        <time>2020-08-08T11:58:12.448Z</time>
      </trkpt>
      <trkpt lat="63.73729" lon="10.23359">
        <ele>187.810285</ele>
        <time>2020-08-08T11:58:14.486Z</time>
      </trkpt>
      <trkpt lat="63.73739" lon="10.23366">
        <ele>188.235587</ele>
        <time>2020-08-08T11:58:16.452Z</time>
      </trkpt>
      <trkpt lat="63.73749" lon="10.23372">
        <ele>188.648828</ele>
        <time>2020-08-08T11:58:18.465Z</time>
      </trkpt>
      <trkpt lat="63.73759" lon="10.2338">
        <ele>189.074777</ele>
        <time>2020-08-08T11:58:20.490Z</time>
      </trkpt>
      <trkpt lat="63.73769" lon="10.23387">
        <ele>189.490234</ele>
        <time>2020-08-08T11:58:22.475Z</time>
      </trkpt>
      <trkpt lat="63.7378" lon="10.23396">
        <ele>189.958621</ele>
        <time>2020-08-08T11:58:24.514Z</time>
      </trkpt>
      <trkpt lat="63.73791" lon="10.23406">
        <ele>190.439765</ele>
        <time>2020-08-08T11:58:26.448Z</time>
      </trkpt>
      <trkpt lat="63.73801" lon="10.23417">
        <ele>190.921152</ele>
        <time>2020-08-08T11:58:28.451Z</time>
      </trkpt>
      <trkpt lat="63.73812" lon="10.23431">
        <ele>191.138041</ele>
        <time>2020-08-08T11:58:30.436Z</time>
      </trkpt>
      <trkpt lat="63.73822" lon="10.23446">
        <ele>191.239971</ele>
        <time>2020-08-08T11:58:32.479Z</time>
      </trkpt>
      <trkpt lat="63.7383" lon="10.2346">
        <ele>191.335462</ele>
        <time>2020-08-08T11:58:34.459Z</time>
      </trkpt>
      <trkpt lat="63.7384" lon="10.23476">
        <ele>191.438287</ele>
        <time>2020-08-08T11:58:36.466Z</time>
      </trkpt>
      <trkpt lat="63.7385" lon="10.23492">
        <ele>191.546953</ele>
        <time>2020-08-08T11:58:38.457Z</time>
      </trkpt>
      <trkpt lat="63.73859" lon="10.23508">
        <ele>191.652321</ele>
        <time>2020-08-08T11:58:40.471Z</time>
      </trkpt>
      <trkpt lat="63.73869" lon="10.23524">
        <ele>191.756287</ele>
        <time>2020-08-08T11:58:42.442Z</time>
      </trkpt>
      <trkpt lat="63.73877" lon="10.23539">
        <ele>191.850839</ele>
        <time>2020-08-08T11:58:44.482Z</time>
      </trkpt>
      <trkpt lat="63.73886" lon="10.23553">
        <ele>191.944689</ele>
        <time>2020-08-08T11:58:46.472Z</time>
      </trkpt>
      <trkpt lat="63.73893" lon="10.23567">
        <ele>192.029842</ele>
        <time>2020-08-08T11:58:48.478Z</time>
      </trkpt>
      <trkpt lat="63.73901" lon="10.2358">
        <ele>192.117378</ele>
        <time>2020-08-08T11:58:50.454Z</time>
      </trkpt>
      <trkpt lat="63.73909" lon="10.23591">
        <ele>192.202722</ele>
        <time>2020-08-08T11:58:52.461Z</time>
      </trkpt>
      <trkpt lat="63.73917" lon="10.23603">
        <ele>192.287225</ele>
        <time>2020-08-08T11:58:54.457Z</time>
      </trkpt>
      <trkpt lat="63.73927" lon="10.23613">
        <ele>192.377308</ele>
        <time>2020-08-08T11:58:56.470Z</time>
      </trkpt>
      <trkpt lat="63.73936" lon="10.23623">
        <ele>192.465373</ele>
        <time>2020-08-08T11:58:58.479Z</time>
      </trkpt>
      <trkpt lat="63.73945" lon="10.2363">
        <ele>192.551772</ele>
        <time>2020-08-08T11:59:00.462Z</time>
      </trkpt>
      <trkpt lat="63.73955" lon="10.23637">
        <ele>192.642954</ele>
        <time>2020-08-08T11:59:02.458Z</time>
      </trkpt>
      <trkpt lat="63.73965" lon="10.2364">
        <ele>192.470777</ele>
        <time>2020-08-08T11:59:04.464Z</time>
      </trkpt>
      <trkpt lat="63.73976" lon="10.23642">
        <ele>192.280919</ele>
        <time>2020-08-08T11:59:06.479Z</time>
      </trkpt>
      <trkpt lat="63.73988" lon="10.23642">
        <ele>192.079303</ele>
        <time>2020-08-08T11:59:08.481Z</time>
      </trkpt>
      <trkpt lat="63.73999" lon="10.2364">
        <ele>191.880586</ele>
        <time>2020-08-08T11:59:10.471Z</time>
      </trkpt>
      <trkpt lat="63.74011" lon="10.23636">
        <ele>191.671621</ele>
        <time>2020-08-08T11:59:12.465Z</time>
      </trkpt>
      <trkpt lat="63.74023" lon="10.23632">
        <ele>191.460697</ele>
        <time>2020-08-08T11:59:14.498Z</time>
      </trkpt>
      <trkpt lat="63.74034" lon="10.23629">
        <ele>191.250309</ele>
        <time>2020-08-08T11:59:16.456Z</time>
      </trkpt>
      <trkpt lat="63.74047" lon="10.23625">
        <ele>191.03306</ele>
        <time>2020-08-08T11:59:18.450Z</time>
      </trkpt>
      <trkpt lat="63.74059" lon="10.23622">
        <ele>190.81068</ele>
        <time>2020-08-08T11:59:20.468Z</time>
      </trkpt>
      <trkpt lat="63.74072" lon="10.23621">
        <ele>190.584295</ele>
        <time>2020-08-08T11:59:22.473Z</time>
      </trkpt>
      <trkpt lat="63.74085" lon="10.23621">
        <ele>190.359865</ele>
        <time>2020-08-08T11:59:24.507Z</time>
      </trkpt>
      <trkpt lat="63.74097" lon="10.23621">
        <ele>190.145971</ele>
        <time>2020-08-08T11:59:26.454Z</time>
      </trkpt>
      <trkpt lat="63.74109" lon="10.23623">
        <ele>189.935073</ele>
        <time>2020-08-08T11:59:28.443Z</time>
      </trkpt>
      <trkpt lat="63.7412" lon="10.23625">
        <ele>189.741171</ele>
        <time>2020-08-08T11:59:30.479Z</time>
      </trkpt>
      <trkpt lat="63.74131" lon="10.23629">
        <ele>189.551397</ele>
        <time>2020-08-08T11:59:32.453Z</time>
      </trkpt>
      <trkpt lat="63.74141" lon="10.23635">
        <ele>189.612089</ele>
        <time>2020-08-08T11:59:34.515Z</time>
      </trkpt>
      <trkpt lat="63.74152" lon="10.23643">
        <ele>189.782431</ele>
        <time>2020-08-08T11:59:36.481Z</time>
      </trkpt>
      <trkpt lat="63.74161" lon="10.23653">
        <ele>189.942947</ele>
        <time>2020-08-08T11:59:38.473Z</time>
      </trkpt>
      <trkpt lat="63.74171" lon="10.23662">
        <ele>190.108691</ele>
        <time>2020-08-08T11:59:40.452Z</time>
      </trkpt>
      <trkpt lat="63.7418" lon="10.23671">
        <ele>190.278425</ele>
        <time>2020-08-08T11:59:42.454Z</time>
      </trkpt>
      <trkpt lat="63.7419" lon="10.23681">
        <ele>190.442386</ele>
        <time>2020-08-08T11:59:44.474Z</time>
      </trkpt>
      <trkpt lat="63.74198" lon="10.23691">
        <ele>190.590909</ele>
        <time>2020-08-08T11:59:46.452Z</time>
      </trkpt>
      <trkpt lat="63.74209" lon="10.23705">
        <ele>190.78227</ele>
        <time>2020-08-08T11:59:49.460Z</time>
      </trkpt>
      <trkpt lat="63.74218" lon="10.23716">
        <ele>190.95045</ele>
        <time>2020-08-08T11:59:52.448Z</time>
      </trkpt>
      <trkpt lat="63.74227" lon="10.23725">
        <ele>191.101576</ele>
        <time>2020-08-08T11:59:55.456Z</time>
      </trkpt>
      <trkpt lat="63.74236" lon="10.23734">
        <ele>191.261095</ele>
        <time>2020-08-08T11:59:58.490Z</time>
      </trkpt>
      <trkpt lat="63.74245" lon="10.23742">
        <ele>191.415449</ele>
        <time>2020-08-08T12:00:01.467Z</time>
      </trkpt>
      <trkpt lat="63.74254" lon="10.23749">
        <ele>191.561668</ele>
        <time>2020-08-08T12:00:04.485Z</time>
      </trkpt>
      <trkpt lat="63.74265" lon="10.23758">
        <ele>191.749533</ele>
        <time>2020-08-08T12:00:08.467Z</time>
      </trkpt>
      <trkpt lat="63.74274" lon="10.23761">
        <ele>191.892771</ele>
        <time>2020-08-08T12:00:11.490Z</time>
      </trkpt>
      <trkpt lat="63.74284" lon="10.23763">
        <ele>192.040507</ele>
        <time>2020-08-08T12:00:14.482Z</time>
      </trkpt>
      <trkpt lat="63.74293" lon="10.23766">
        <ele>192.194412</ele>
        <time>2020-08-08T12:00:17.450Z</time>
      </trkpt>
      <trkpt lat="63.74303" lon="10.23767">
        <ele>192.331951</ele>
        <time>2020-08-08T12:00:20.530Z</time>
      </trkpt>
      <trkpt lat="63.74315" lon="10.23769">
        <ele>192.363726</ele>
        <time>2020-08-08T12:00:23.458Z</time>
      </trkpt>
      <trkpt lat="63.74327" lon="10.23772">
        <ele>192.397573</ele>
        <time>2020-08-08T12:00:26.474Z</time>
      </trkpt>
      <trkpt lat="63.74339" lon="10.23774">
        <ele>192.433386</ele>
        <time>2020-08-08T12:00:29.450Z</time>
      </trkpt>
      <trkpt lat="63.74349" lon="10.23776">
        <ele>192.460097</ele>
        <time>2020-08-08T12:00:31.455Z</time>
      </trkpt>
      <trkpt lat="63.74359" lon="10.23778">
        <ele>192.489694</ele>
        <time>2020-08-08T12:00:33.478Z</time>
      </trkpt>
      <trkpt lat="63.7437" lon="10.23781">
        <ele>192.519437</ele>
        <time>2020-08-08T12:00:35.475Z</time>
      </trkpt>
      <trkpt lat="63.7438" lon="10.23784">
        <ele>192.549571</ele>
        <time>2020-08-08T12:00:37.449Z</time>
      </trkpt>
      <trkpt lat="63.74392" lon="10.23787">
        <ele>192.581772</ele>
        <time>2020-08-08T12:00:39.510Z</time>
      </trkpt>
      <trkpt lat="63.74404" lon="10.23789">
        <ele>192.616165</ele>
        <time>2020-08-08T12:00:41.463Z</time>
      </trkpt>
      <trkpt lat="63.74417" lon="10.23792">
        <ele>192.652525</ele>
        <time>2020-08-08T12:00:43.457Z</time>
      </trkpt>
      <trkpt lat="63.7443" lon="10.23795">
        <ele>192.689152</ele>
        <time>2020-08-08T12:00:45.490Z</time>
      </trkpt>
      <trkpt lat="63.74443" lon="10.23798">
        <ele>192.725512</ele>
        <time>2020-08-08T12:00:47.458Z</time>
      </trkpt>
      <trkpt lat="63.74456" lon="10.238">
        <ele>192.761548</ele>
        <time>2020-08-08T12:00:49.473Z</time>
      </trkpt>
      <trkpt lat="63.74468" lon="10.23804">
        <ele>192.797769</ele>
        <time>2020-08-08T12:00:51.460Z</time>
      </trkpt>
      <trkpt lat="63.74482" lon="10.23809">
        <ele>192.804912</ele>
        <time>2020-08-08T12:00:53.487Z</time>
      </trkpt>
      <trkpt lat="63.74496" lon="10.23815">
        <ele>192.491435</ele>
        <time>2020-08-08T12:00:55.456Z</time>
      </trkpt>
      <trkpt lat="63.74509" lon="10.23822">
        <ele>192.184298</ele>
        <time>2020-08-08T12:00:57.452Z</time>
      </trkpt>
      <trkpt lat="63.74523" lon="10.23828">
        <ele>191.878987</ele>
        <time>2020-08-08T12:00:59.447Z</time>
      </trkpt>
      <trkpt lat="63.74537" lon="10.23834">
        <ele>191.560495</ele>
        <time>2020-08-08T12:01:01.450Z</time>
      </trkpt>
      <trkpt lat="63.7455" lon="10.23836">
        <ele>191.24894</ele>
        <time>2020-08-08T12:01:03.481Z</time>
      </trkpt>
      <trkpt lat="63.74564" lon="10.23834">
        <ele>190.944011</ele>
        <time>2020-08-08T12:01:05.487Z</time>
      </trkpt>
      <trkpt lat="63.74578" lon="10.23827">
        <ele>190.632075</ele>
        <time>2020-08-08T12:01:07.500Z</time>
      </trkpt>
      <trkpt lat="63.7459" lon="10.23815">
        <ele>190.324996</ele>
        <time>2020-08-08T12:01:09.478Z</time>
      </trkpt>
      <trkpt lat="63.74602" lon="10.23803">
        <ele>190.032365</ele>
        <time>2020-08-08T12:01:11.484Z</time>
      </trkpt>
      <trkpt lat="63.74614" lon="10.23791">
        <ele>189.751537</ele>
        <time>2020-08-08T12:01:13.478Z</time>
      </trkpt>
      <trkpt lat="63.74624" lon="10.2378">
        <ele>189.497068</ele>
        <time>2020-08-08T12:01:15.466Z</time>
      </trkpt>
      <trkpt lat="63.74634" lon="10.23769">
        <ele>189.256815</ele>
        <time>2020-08-08T12:01:17.484Z</time>
      </trkpt>
      <trkpt lat="63.74644" lon="10.23758">
        <ele>188.998328</ele>
        <time>2020-08-08T12:01:19.491Z</time>
      </trkpt>
      <trkpt lat="63.74654" lon="10.23747">
        <ele>188.804737</ele>
        <time>2020-08-08T12:01:21.470Z</time>
      </trkpt>
      <trkpt lat="63.74664" lon="10.23738">
        <ele>188.784099</ele>
        <time>2020-08-08T12:01:23.487Z</time>
      </trkpt>
      <trkpt lat="63.74676" lon="10.23731">
        <ele>188.761632</ele>
        <time>2020-08-08T12:01:25.494Z</time>
      </trkpt>
      <trkpt lat="63.74687" lon="10.23726">
        <ele>188.740084</ele>
        <time>2020-08-08T12:01:27.484Z</time>
      </trkpt>
      <trkpt lat="63.74697" lon="10.23721">
        <ele>188.71952</ele>
        <time>2020-08-08T12:01:29.451Z</time>
      </trkpt>
      <trkpt lat="63.74708" lon="10.23716">
        <ele>188.698362</ele>
        <time>2020-08-08T12:01:31.492Z</time>
      </trkpt>
      <trkpt lat="63.74719" lon="10.23713">
        <ele>188.677636</ele>
        <time>2020-08-08T12:01:33.501Z</time>
      </trkpt>
      <trkpt lat="63.7473" lon="10.23711">
        <ele>188.657392</ele>
        <time>2020-08-08T12:01:35.474Z</time>
      </trkpt>
      <trkpt lat="63.7474" lon="10.2371">
        <ele>188.638128</ele>
        <time>2020-08-08T12:01:37.457Z</time>
      </trkpt>
      <trkpt lat="63.7475" lon="10.23709">
        <ele>188.618303</ele>
        <time>2020-08-08T12:01:39.462Z</time>
      </trkpt>
      <trkpt lat="63.74762" lon="10.23708">
        <ele>188.596401</ele>
        <time>2020-08-08T12:01:41.492Z</time>
      </trkpt>
      <trkpt lat="63.74774" lon="10.23706">
        <ele>188.572924</ele>
        <time>2020-08-08T12:01:43.462Z</time>
      </trkpt>
      <trkpt lat="63.74787" lon="10.23703">
        <ele>188.548063</ele>
        <time>2020-08-08T12:01:45.458Z</time>
      </trkpt>
      <trkpt lat="63.74802" lon="10.23702">
        <ele>188.520259</ele>
        <time>2020-08-08T12:01:47.453Z</time>
      </trkpt>
      <trkpt lat="63.74816" lon="10.23701">
        <ele>188.493394</ele>
        <time>2020-08-08T12:01:49.491Z</time>
      </trkpt>
      <trkpt lat="63.74829" lon="10.237">
        <ele>188.461285</ele>
        <time>2020-08-08T12:01:51.451Z</time>
      </trkpt>
      <trkpt lat="63.74843" lon="10.23697">
        <ele>187.854994</ele>
        <time>2020-08-08T12:01:53.471Z</time>
      </trkpt>
      <trkpt lat="63.74857" lon="10.23694">
        <ele>187.211568</ele>
        <time>2020-08-08T12:01:55.516Z</time>
      </trkpt>
      <trkpt lat="63.74874" lon="10.23694">
        <ele>186.452324</ele>
        <time>2020-08-08T12:01:57.512Z</time>
      </trkpt>
      <trkpt lat="63.7489" lon="10.23691">
        <ele>185.743451</ele>
        <time>2020-08-08T12:01:59.511Z</time>
      </trkpt>
      <trkpt lat="63.74905" lon="10.23687">
        <ele>185.081704</ele>
        <time>2020-08-08T12:02:01.449Z</time>
      </trkpt>
      <trkpt lat="63.74919" lon="10.23683">
        <ele>184.468166</ele>
        <time>2020-08-08T12:02:03.458Z</time>
      </trkpt>
      <trkpt lat="63.74932" lon="10.2368">
        <ele>183.861506</ele>
        <time>2020-08-08T12:02:05.460Z</time>
      </trkpt>
      <trkpt lat="63.74946" lon="10.23677">
        <ele>183.255721</ele>
        <time>2020-08-08T12:02:07.446Z</time>
      </trkpt>
      <trkpt lat="63.7496" lon="10.23675">
        <ele>182.636812</ele>
        <time>2020-08-08T12:02:09.454Z</time>
      </trkpt>
      <trkpt lat="63.74974" lon="10.23675">
        <ele>182.024127</ele>
        <time>2020-08-08T12:02:11.494Z</time>
      </trkpt>
      <trkpt lat="63.74987" lon="10.23676">
        <ele>181.432919</ele>
        <time>2020-08-08T12:02:13.477Z</time>
      </trkpt>
      <trkpt lat="63.75001" lon="10.23677">
        <ele>180.819794</ele>
        <time>2020-08-08T12:02:15.463Z</time>
      </trkpt>
      <trkpt lat="63.75013" lon="10.23679">
        <ele>180.306147</ele>
        <time>2020-08-08T12:02:17.462Z</time>
      </trkpt>
      <trkpt lat="63.75027" lon="10.23681">
        <ele>179.853133</ele>
        <time>2020-08-08T12:02:19.458Z</time>
      </trkpt>
      <trkpt lat="63.7504" lon="10.23685">
        <ele>179.402313</ele>
        <time>2020-08-08T12:02:21.460Z</time>
      </trkpt>
      <trkpt lat="63.75052" lon="10.23687">
        <ele>178.973315</ele>
        <time>2020-08-08T12:02:23.455Z</time>
      </trkpt>
      <trkpt lat="63.75064" lon="10.23691">
        <ele>178.570559</ele>
        <time>2020-08-08T12:02:25.480Z</time>
      </trkpt>
      <trkpt lat="63.75074" lon="10.23692">
        <ele>178.197715</ele>
        <time>2020-08-08T12:02:27.477Z</time>
      </trkpt>
      <trkpt lat="63.75085" lon="10.23693">
        <ele>177.814967</ele>
        <time>2020-08-08T12:02:29.471Z</time>
      </trkpt>
      <trkpt lat="63.75097" lon="10.23696">
        <ele>177.41683</ele>
        <time>2020-08-08T12:02:31.479Z</time>
      </trkpt>
      <trkpt lat="63.75109" lon="10.23698">
        <ele>177.005522</ele>
        <time>2020-08-08T12:02:33.467Z</time>
      </trkpt>
      <trkpt lat="63.75121" lon="10.237">
        <ele>176.580815</ele>
        <time>2020-08-08T12:02:35.450Z</time>
      </trkpt>
      <trkpt lat="63.75134" lon="10.23704">
        <ele>176.126573</ele>
        <time>2020-08-08T12:02:37.462Z</time>
      </trkpt>
      <trkpt lat="63.75148" lon="10.23706">
        <ele>175.63592</ele>
        <time>2020-08-08T12:02:39.475Z</time>
      </trkpt>
      <trkpt lat="63.75162" lon="10.23709">
        <ele>175.155048</ele>
        <time>2020-08-08T12:02:41.462Z</time>
      </trkpt>
      <trkpt lat="63.75177" lon="10.23713">
        <ele>174.641577</ele>
        <time>2020-08-08T12:02:43.450Z</time>
      </trkpt>
      <trkpt lat="63.75192" lon="10.23715">
        <ele>174.149214</ele>
        <time>2020-08-08T12:02:45.449Z</time>
      </trkpt>
      <trkpt lat="63.75207" lon="10.23717">
        <ele>173.65965</ele>
        <time>2020-08-08T12:02:47.470Z</time>
      </trkpt>
      <trkpt lat="63.75222" lon="10.2372">
        <ele>173.152762</ele>
        <time>2020-08-08T12:02:49.470Z</time>
      </trkpt>
      <trkpt lat="63.75239" lon="10.23723">
        <ele>172.600867</ele>
        <time>2020-08-08T12:02:51.488Z</time>
      </trkpt>
      <trkpt lat="63.75249" lon="10.23725">
        <ele>172.277212</ele>
        <time>2020-08-08T12:02:52.469Z</time>
      </trkpt>
      <trkpt lat="63.75259" lon="10.23726">
        <ele>171.944495</ele>
        <time>2020-08-08T12:02:53.484Z</time>
      </trkpt>
      <trkpt lat="63.75269" lon="10.23727">
        <ele>171.618424</ele>
        <time>2020-08-08T12:02:54.446Z</time>
      </trkpt>
      <trkpt lat="63.75279" lon="10.23727">
        <ele>171.282821</ele>
        <time>2020-08-08T12:02:55.486Z</time>
      </trkpt>
      <trkpt lat="63.75289" lon="10.23728">
        <ele>170.957018</ele>
        <time>2020-08-08T12:02:56.502Z</time>
      </trkpt>
      <trkpt lat="63.75299" lon="10.23729">
        <ele>170.631007</ele>
        <time>2020-08-08T12:02:57.492Z</time>
      </trkpt>
      <trkpt lat="63.7531" lon="10.2373">
        <ele>170.284941</ele>
        <time>2020-08-08T12:02:58.469Z</time>
      </trkpt>
      <trkpt lat="63.7532" lon="10.23731">
        <ele>169.958984</ele>
        <time>2020-08-08T12:02:59.485Z</time>
      </trkpt>
      <trkpt lat="63.7533" lon="10.23731">
        <ele>169.623431</ele>
        <time>2020-08-08T12:03:00.450Z</time>
      </trkpt>
      <trkpt lat="63.7534" lon="10.23731">
        <ele>169.294342</ele>
        <time>2020-08-08T12:03:01.460Z</time>
      </trkpt>
      <trkpt lat="63.7535" lon="10.2373">
        <ele>168.971689</ele>
        <time>2020-08-08T12:03:02.449Z</time>
      </trkpt>
      <trkpt lat="63.7536" lon="10.23729">
        <ele>168.652126</ele>
        <time>2020-08-08T12:03:03.474Z</time>
      </trkpt>
      <trkpt lat="63.75369" lon="10.23728">
        <ele>168.319674</ele>
        <time>2020-08-08T12:03:04.449Z</time>
      </trkpt>
      <trkpt lat="63.75387" lon="10.23725">
        <ele>167.509911</ele>
        <time>2020-08-08T12:03:06.496Z</time>
      </trkpt>
      <trkpt lat="63.75402" lon="10.23723">
        <ele>166.788361</ele>
        <time>2020-08-08T12:03:08.448Z</time>
      </trkpt>
      <trkpt lat="63.75417" lon="10.2372">
        <ele>166.094172</ele>
        <time>2020-08-08T12:03:10.460Z</time>
      </trkpt>
      <trkpt lat="63.75432" lon="10.23718">
        <ele>165.400138</ele>
        <time>2020-08-08T12:03:12.445Z</time>
      </trkpt>
      <trkpt lat="63.75446" lon="10.23715">
        <ele>164.766141</ele>
        <time>2020-08-08T12:03:14.457Z</time>
      </trkpt>
      <trkpt lat="63.7546" lon="10.23712">
        <ele>164.112076</ele>
        <time>2020-08-08T12:03:16.489Z</time>
      </trkpt>
      <trkpt lat="63.75472" lon="10.23708">
        <ele>163.521327</ele>
        <time>2020-08-08T12:03:18.448Z</time>
      </trkpt>
      <trkpt lat="63.75484" lon="10.23705">
        <ele>162.973107</ele>
        <time>2020-08-08T12:03:20.459Z</time>
      </trkpt>
      <trkpt lat="63.75496" lon="10.23702">
        <ele>162.432199</ele>
        <time>2020-08-08T12:03:22.469Z</time>
      </trkpt>
      <trkpt lat="63.75507" lon="10.23701">
        <ele>161.89723</ele>
        <time>2020-08-08T12:03:24.482Z</time>
      </trkpt>
      <trkpt lat="63.75519" lon="10.237">
        <ele>161.358139</ele>
        <time>2020-08-08T12:03:26.485Z</time>
      </trkpt>
      <trkpt lat="63.7553" lon="10.23697">
        <ele>160.80721</ele>
        <time>2020-08-08T12:03:28.475Z</time>
      </trkpt>
      <trkpt lat="63.75543" lon="10.23694">
        <ele>160.223515</ele>
        <time>2020-08-08T12:03:30.477Z</time>
      </trkpt>
      <trkpt lat="63.75556" lon="10.23692">
        <ele>159.54334</ele>
        <time>2020-08-08T12:03:32.495Z</time>
      </trkpt>
      <trkpt lat="63.75568" lon="10.23693">
        <ele>158.846439</ele>
        <time>2020-08-08T12:03:34.477Z</time>
      </trkpt>
      <trkpt lat="63.75581" lon="10.23693">
        <ele>158.121507</ele>
        <time>2020-08-08T12:03:36.448Z</time>
      </trkpt>
      <trkpt lat="63.75594" lon="10.23694">
        <ele>157.424279</ele>
        <time>2020-08-08T12:03:38.465Z</time>
      </trkpt>
      <trkpt lat="63.75606" lon="10.23696">
        <ele>156.743455</ele>
        <time>2020-08-08T12:03:40.446Z</time>
      </trkpt>
      <trkpt lat="63.75618" lon="10.23698">
        <ele>156.060137</ele>
        <time>2020-08-08T12:03:42.491Z</time>
      </trkpt>
      <trkpt lat="63.7563" lon="10.23704">
        <ele>155.362616</ele>
        <time>2020-08-08T12:03:44.446Z</time>
      </trkpt>
      <trkpt lat="63.75642" lon="10.2371">
        <ele>154.700635</ele>
        <time>2020-08-08T12:03:46.447Z</time>
      </trkpt>
      <trkpt lat="63.75655" lon="10.23719">
        <ele>153.931538</ele>
        <time>2020-08-08T12:03:48.475Z</time>
      </trkpt>
      <trkpt lat="63.75669" lon="10.23727">
        <ele>153.131395</ele>
        <time>2020-08-08T12:03:50.498Z</time>
      </trkpt>
      <trkpt lat="63.75683" lon="10.23735">
        <ele>152.337265</ele>
        <time>2020-08-08T12:03:52.454Z</time>
      </trkpt>
      <trkpt lat="63.75697" lon="10.23744">
        <ele>151.541322</ele>
        <time>2020-08-08T12:03:54.465Z</time>
      </trkpt>
      <trkpt lat="63.7571" lon="10.23753">
        <ele>150.76603</ele>
        <time>2020-08-08T12:03:56.460Z</time>
      </trkpt>
      <trkpt lat="63.75722" lon="10.23761">
        <ele>150.048254</ele>
        <time>2020-08-08T12:03:58.469Z</time>
      </trkpt>
      <trkpt lat="63.75733" lon="10.23769">
        <ele>150.432222</ele>
        <time>2020-08-08T12:04:00.464Z</time>
      </trkpt>
      <trkpt lat="63.75745" lon="10.23778">
        <ele>150.830844</ele>
        <time>2020-08-08T12:04:02.494Z</time>
      </trkpt>
      <trkpt lat="63.75755" lon="10.23788">
        <ele>151.209288</ele>
        <time>2020-08-08T12:04:04.473Z</time>
      </trkpt>
      <trkpt lat="63.75766" lon="10.23798">
        <ele>151.591063</ele>
        <time>2020-08-08T12:04:06.480Z</time>
      </trkpt>
      <trkpt lat="63.75777" lon="10.23807">
        <ele>151.968961</ele>
        <time>2020-08-08T12:04:08.485Z</time>
      </trkpt>
      <trkpt lat="63.75787" lon="10.23815">
        <ele>152.330428</ele>
        <time>2020-08-08T12:04:10.486Z</time>
      </trkpt>
      <trkpt lat="63.75796" lon="10.2382">
        <ele>152.640247</ele>
        <time>2020-08-08T12:04:12.481Z</time>
      </trkpt>
      <trkpt lat="63.75805" lon="10.23826">
        <ele>152.947667</ele>
        <time>2020-08-08T12:04:14.440Z</time>
      </trkpt>
      <trkpt lat="63.75815" lon="10.23832">
        <ele>153.314282</ele>
        <time>2020-08-08T12:04:17.473Z</time>
      </trkpt>
      <trkpt lat="63.75825" lon="10.23837">
        <ele>153.627993</ele>
        <time>2020-08-08T12:04:20.490Z</time>
      </trkpt>
      <trkpt lat="63.75837" lon="10.23848">
        <ele>154.061253</ele>
        <time>2020-08-08T12:04:23.483Z</time>
      </trkpt>
      <trkpt lat="63.75848" lon="10.23858">
        <ele>154.459477</ele>
        <time>2020-08-08T12:04:26.486Z</time>
      </trkpt>
      <trkpt lat="63.75858" lon="10.23868">
        <ele>154.839939</ele>
        <time>2020-08-08T12:04:29.454Z</time>
      </trkpt>
      <trkpt lat="63.75869" lon="10.23877">
        <ele>155.210591</ele>
        <time>2020-08-08T12:04:32.472Z</time>
      </trkpt>
      <trkpt lat="63.75879" lon="10.23887">
        <ele>155.574793</ele>
        <time>2020-08-08T12:04:35.457Z</time>
      </trkpt>
      <trkpt lat="63.75889" lon="10.23896">
        <ele>155.926266</ele>
        <time>2020-08-08T12:04:38.462Z</time>
      </trkpt>
      <trkpt lat="63.75899" lon="10.23902">
        <ele>156.249992</ele>
        <time>2020-08-08T12:04:41.461Z</time>
      </trkpt>
      <trkpt lat="63.75908" lon="10.23909">
        <ele>156.561254</ele>
        <time>2020-08-08T12:04:44.481Z</time>
      </trkpt>
      <trkpt lat="63.75918" lon="10.23915">
        <ele>156.872516</ele>
        <time>2020-08-08T12:04:47.493Z</time>
      </trkpt>
      <trkpt lat="63.75928" lon="10.2392">
        <ele>157.199112</ele>
        <time>2020-08-08T12:04:50.454Z</time>
      </trkpt>
      <trkpt lat="63.75937" lon="10.23925">
        <ele>157.49222</ele>
        <time>2020-08-08T12:04:53.444Z</time>
      </trkpt>
      <trkpt lat="63.75946" lon="10.2393">
        <ele>157.776472</ele>
        <time>2020-08-08T12:04:56.442Z</time>
      </trkpt>
      <trkpt lat="63.75957" lon="10.23936">
        <ele>158.133289</ele>
        <time>2020-08-08T12:05:00.444Z</time>
      </trkpt>
      <trkpt lat="63.75967" lon="10.2394">
        <ele>158.458124</ele>
        <time>2020-08-08T12:05:04.460Z</time>
      </trkpt>
      <trkpt lat="63.75977" lon="10.23941">
        <ele>158.779091</ele>
        <time>2020-08-08T12:05:08.459Z</time>
      </trkpt>
      <trkpt lat="63.75988" lon="10.23939">
        <ele>159.13861</ele>
        <time>2020-08-08T12:05:12.481Z</time>
      </trkpt>
      <trkpt lat="63.75998" lon="10.23935">
        <ele>159.42894</ele>
        <time>2020-08-08T12:05:15.455Z</time>
      </trkpt>
      <trkpt lat="63.76008" lon="10.23931">
        <ele>159.757584</ele>
        <time>2020-08-08T12:05:18.487Z</time>
      </trkpt>
      <trkpt lat="63.76019" lon="10.23925">
        <ele>160.115951</ele>
        <time>2020-08-08T12:05:21.491Z</time>
      </trkpt>
      <trkpt lat="63.76031" lon="10.2392">
        <ele>160.486759</ele>
        <time>2020-08-08T12:05:24.450Z</time>
      </trkpt>
      <trkpt lat="63.76043" lon="10.23912">
        <ele>160.881841</ele>
        <time>2020-08-08T12:05:27.489Z</time>
      </trkpt>
      <trkpt lat="63.76055" lon="10.23904">
        <ele>161.298469</ele>
        <time>2020-08-08T12:05:30.469Z</time>
      </trkpt>
      <trkpt lat="63.76066" lon="10.239">
        <ele>161.630962</ele>
        <time>2020-08-08T12:05:32.482Z</time>
      </trkpt>
      <trkpt lat="63.76077" lon="10.23897">
        <ele>161.680136</ele>
        <time>2020-08-08T12:05:34.489Z</time>
      </trkpt>
      <trkpt lat="63.76088" lon="10.23897">
        <ele>161.697876</ele>
        <time>2020-08-08T12:05:36.462Z</time>
      </trkpt>
      <trkpt lat="63.761" lon="10.23898">
        <ele>161.71627</ele>
        <time>2020-08-08T12:05:38.442Z</time>
      </trkpt>
      <trkpt lat="63.76115" lon="10.23902">
        <ele>161.739851</ele>
        <time>2020-08-08T12:05:40.493Z</time>
      </trkpt>
      <trkpt lat="63.7613" lon="10.23907">
        <ele>161.764247</ele>
        <time>2020-08-08T12:05:42.441Z</time>
      </trkpt>
      <trkpt lat="63.76145" lon="10.23907">
        <ele>161.786383</ele>
        <time>2020-08-08T12:05:44.503Z</time>
      </trkpt>
      <trkpt lat="63.76157" lon="10.23904">
        <ele>161.805345</ele>
        <time>2020-08-08T12:05:46.458Z</time>
      </trkpt>
      <trkpt lat="63.76168" lon="10.239">
        <ele>161.823334</ele>
        <time>2020-08-08T12:05:48.494Z</time>
      </trkpt>
      <trkpt lat="63.7618" lon="10.23896">
        <ele>161.842027</ele>
        <time>2020-08-08T12:05:50.470Z</time>
      </trkpt>
      <trkpt lat="63.76191" lon="10.23893">
        <ele>161.859859</ele>
        <time>2020-08-08T12:05:52.460Z</time>
      </trkpt>
      <trkpt lat="63.76201" lon="10.23891">
        <ele>161.87642</ele>
        <time>2020-08-08T12:05:54.441Z</time>
      </trkpt>
      <trkpt lat="63.76211" lon="10.23889">
        <ele>161.891599</ele>
        <time>2020-08-08T12:05:56.468Z</time>
      </trkpt>
      <trkpt lat="63.76224" lon="10.23887">
        <ele>161.911874</ele>
        <time>2020-08-08T12:05:59.488Z</time>
      </trkpt>
      <trkpt lat="63.76237" lon="10.2389">
        <ele>161.932845</ele>
        <time>2020-08-08T12:06:02.470Z</time>
      </trkpt>
      <trkpt lat="63.7625" lon="10.23895">
        <ele>162.037259</ele>
        <time>2020-08-08T12:06:05.462Z</time>
      </trkpt>
      <trkpt lat="63.76262" lon="10.23902">
        <ele>162.282621</ele>
        <time>2020-08-08T12:06:08.454Z</time>
      </trkpt>
      <trkpt lat="63.76272" lon="10.23906">
        <ele>162.500644</ele>
        <time>2020-08-08T12:06:11.490Z</time>
      </trkpt>
      <trkpt lat="63.76283" lon="10.2391">
        <ele>162.714671</ele>
        <time>2020-08-08T12:06:14.469Z</time>
      </trkpt>
      <trkpt lat="63.76292" lon="10.23914">
        <ele>162.913619</ele>
        <time>2020-08-08T12:06:17.489Z</time>
      </trkpt>
      <trkpt lat="63.76302" lon="10.23919">
        <ele>163.1039</ele>
        <time>2020-08-08T12:06:20.439Z</time>
      </trkpt>
      <trkpt lat="63.76312" lon="10.23923">
        <ele>163.326224</ele>
        <time>2020-08-08T12:06:24.477Z</time>
      </trkpt>
      <trkpt lat="63.76324" lon="10.23927">
        <ele>163.56172</ele>
        <time>2020-08-08T12:06:28.474Z</time>
      </trkpt>
      <trkpt lat="63.76335" lon="10.23931">
        <ele>163.784201</ele>
        <time>2020-08-08T12:06:32.477Z</time>
      </trkpt>
      <trkpt lat="63.76345" lon="10.23934">
        <ele>164.002684</ele>
        <time>2020-08-08T12:06:36.479Z</time>
      </trkpt>
      <trkpt lat="63.76356" lon="10.23936">
        <ele>164.216831</ele>
        <time>2020-08-08T12:06:40.471Z</time>
      </trkpt>
      <trkpt lat="63.76366" lon="10.2394">
        <ele>164.413434</ele>
        <time>2020-08-08T12:06:44.447Z</time>
      </trkpt>
      <trkpt lat="63.76375" lon="10.23943">
        <ele>164.617015</ele>
        <time>2020-08-08T12:06:48.467Z</time>
      </trkpt>
      <trkpt lat="63.76384" lon="10.23946">
        <ele>164.799315</ele>
        <time>2020-08-08T12:06:52.513Z</time>
      </trkpt>
      <trkpt lat="63.76395" lon="10.2395">
        <ele>165.0244</ele>
        <time>2020-08-08T12:06:57.476Z</time>
      </trkpt>
      <trkpt lat="63.76406" lon="10.23953">
        <ele>165.249608</ele>
        <time>2020-08-08T12:07:02.474Z</time>
      </trkpt>
      <trkpt lat="63.76417" lon="10.23957">
        <ele>165.461188</ele>
        <time>2020-08-08T12:07:07.481Z</time>
      </trkpt>
      <trkpt lat="63.76427" lon="10.23961">
        <ele>165.855978</ele>
        <time>2020-08-08T12:07:12.462Z</time>
      </trkpt>
      <trkpt lat="63.76438" lon="10.23964">
        <ele>166.467152</ele>
        <time>2020-08-08T12:07:16.462Z</time>
      </trkpt>
      <trkpt lat="63.76447" lon="10.23967">
        <ele>167.015408</ele>
        <time>2020-08-08T12:07:20.464Z</time>
      </trkpt>
      <trkpt lat="63.76458" lon="10.2397">
        <ele>167.668474</ele>
        <time>2020-08-08T12:07:25.470Z</time>
      </trkpt>
      <trkpt lat="63.76468" lon="10.23974">
        <ele>168.283606</ele>
        <time>2020-08-08T12:07:29.487Z</time>
      </trkpt>
      <trkpt lat="63.76479" lon="10.23976">
        <ele>168.898607</ele>
        <time>2020-08-08T12:07:34.459Z</time>
      </trkpt>
      <trkpt lat="63.76488" lon="10.23978">
        <ele>169.456486</ele>
        <time>2020-08-08T12:07:38.488Z</time>
      </trkpt>
      <trkpt lat="63.76498" lon="10.23981">
        <ele>170.05565</ele>
        <time>2020-08-08T12:07:43.440Z</time>
      </trkpt>
      <trkpt lat="63.76508" lon="10.23983">
        <ele>170.61969</ele>
        <time>2020-08-08T12:07:47.468Z</time>
      </trkpt>
      <trkpt lat="63.76518" lon="10.23986">
        <ele>171.230864</ele>
        <time>2020-08-08T12:07:52.498Z</time>
      </trkpt>
      <trkpt lat="63.76527" lon="10.23989">
        <ele>171.771184</ele>
        <time>2020-08-08T12:07:57.449Z</time>
      </trkpt>
      <trkpt lat="63.76536" lon="10.23991">
        <ele>172.322341</ele>
        <time>2020-08-08T12:08:01.487Z</time>
      </trkpt>
      <trkpt lat="63.76547" lon="10.23993">
        <ele>172.943889</ele>
        <time>2020-08-08T12:08:06.466Z</time>
      </trkpt>
      <trkpt lat="63.76557" lon="10.23994">
        <ele>173.528405</ele>
        <time>2020-08-08T12:08:11.501Z</time>
      </trkpt>
      <trkpt lat="63.76566" lon="10.23995">
        <ele>174.100299</ele>
        <time>2020-08-08T12:08:16.491Z</time>
      </trkpt>
      <trkpt lat="63.76576" lon="10.23995">
        <ele>174.654662</ele>
        <time>2020-08-08T12:08:20.458Z</time>
      </trkpt>
      <trkpt lat="63.76586" lon="10.23995">
        <ele>175.24999</ele>
        <time>2020-08-08T12:08:24.473Z</time>
      </trkpt>
      <trkpt lat="63.76598" lon="10.23996">
        <ele>175.963369</ele>
        <time>2020-08-08T12:08:29.438Z</time>
      </trkpt>
      <trkpt lat="63.76608" lon="10.23995">
        <ele>176.502952</ele>
        <time>2020-08-08T12:08:33.472Z</time>
      </trkpt>
      <trkpt lat="63.76617" lon="10.23995">
        <ele>176.986773</ele>
        <time>2020-08-08T12:08:37.453Z</time>
      </trkpt>
      <trkpt lat="63.76628" lon="10.23993">
        <ele>177.554746</ele>
        <time>2020-08-08T12:08:42.436Z</time>
      </trkpt>
      <trkpt lat="63.76639" lon="10.23992">
        <ele>178.09096</ele>
        <time>2020-08-08T12:08:47.458Z</time>
      </trkpt>
      <trkpt lat="63.76648" lon="10.23989">
        <ele>178.577581</ele>
        <time>2020-08-08T12:08:52.495Z</time>
      </trkpt>
      <trkpt lat="63.76659" lon="10.23986">
        <ele>179.123186</ele>
        <time>2020-08-08T12:08:58.493Z</time>
      </trkpt>
      <trkpt lat="63.76669" lon="10.23982">
        <ele>179.686077</ele>
        <time>2020-08-08T12:09:04.448Z</time>
      </trkpt>
      <trkpt lat="63.76679" lon="10.23979">
        <ele>180.165859</ele>
        <time>2020-08-08T12:09:09.463Z</time>
      </trkpt>
      <trkpt lat="63.76688" lon="10.23974">
        <ele>180.633784</ele>
        <time>2020-08-08T12:09:14.452Z</time>
      </trkpt>
      <trkpt lat="63.76698" lon="10.23969">
        <ele>181.168458</ele>
        <time>2020-08-08T12:09:20.460Z</time>
      </trkpt>
      <trkpt lat="63.76707" lon="10.23963">
        <ele>181.666194</ele>
        <time>2020-08-08T12:09:26.477Z</time>
      </trkpt>
      <trkpt lat="63.76716" lon="10.23956">
        <ele>182.15384</ele>
        <time>2020-08-08T12:09:33.482Z</time>
      </trkpt>
      <trkpt lat="63.76725" lon="10.23949">
        <ele>182.64345</ele>
        <time>2020-08-08T12:09:39.439Z</time>
      </trkpt>
      <trkpt lat="63.76733" lon="10.23941">
        <ele>183.119478</ele>
        <time>2020-08-08T12:09:45.473Z</time>
      </trkpt>
      <trkpt lat="63.76743" lon="10.23931">
        <ele>183.650288</ele>
        <time>2020-08-08T12:09:52.467Z</time>
      </trkpt>
      <trkpt lat="63.76752" lon="10.23923">
        <ele>184.138936</ele>
        <time>2020-08-08T12:09:59.444Z</time>
      </trkpt>
      <trkpt lat="63.7676" lon="10.23913">
        <ele>184.64176</ele>
        <time>2020-08-08T12:10:06.474Z</time>
      </trkpt>
      <trkpt lat="63.76769" lon="10.23901">
        <ele>185.164204</ele>
        <time>2020-08-08T12:10:13.474Z</time>
      </trkpt>
      <trkpt lat="63.76778" lon="10.23889">
        <ele>185.787108</ele>
        <time>2020-08-08T12:10:19.447Z</time>
      </trkpt>
      <trkpt lat="63.76787" lon="10.23878">
        <ele>186.55287</ele>
        <time>2020-08-08T12:10:26.478Z</time>
      </trkpt>
      <trkpt lat="63.76794" lon="10.23864">
        <ele>187.278603</ele>
        <time>2020-08-08T12:10:33.501Z</time>
      </trkpt>
      <trkpt lat="63.76803" lon="10.23852">
        <ele>188.045373</ele>
        <time>2020-08-08T12:10:40.459Z</time>
      </trkpt>
      <trkpt lat="63.7681" lon="10.23838">
        <ele>188.755372</ele>
        <time>2020-08-08T12:10:46.455Z</time>
      </trkpt>
      <trkpt lat="63.76818" lon="10.23826">
        <ele>189.513308</ele>
        <time>2020-08-08T12:10:52.479Z</time>
      </trkpt>
      <trkpt lat="63.76826" lon="10.2381">
        <ele>190.284237</ele>
        <time>2020-08-08T12:10:57.454Z</time>
      </trkpt>
      <trkpt lat="63.76835" lon="10.238">
        <ele>191.023898</ele>
        <time>2020-08-08T12:11:03.449Z</time>
      </trkpt>
      <trkpt lat="63.76844" lon="10.23787">
        <ele>191.812269</ele>
        <time>2020-08-08T12:11:10.455Z</time>
      </trkpt>
      <trkpt lat="63.76851" lon="10.23775">
        <ele>192.497527</ele>
        <time>2020-08-08T12:11:17.471Z</time>
      </trkpt>
      <trkpt lat="63.7686" lon="10.23763">
        <ele>193.294139</ele>
        <time>2020-08-08T12:11:24.472Z</time>
      </trkpt>
      <trkpt lat="63.76869" lon="10.23752">
        <ele>194.056455</ele>
        <time>2020-08-08T12:11:32.520Z</time>
      </trkpt>
      <trkpt lat="63.76877" lon="10.23741">
        <ele>194.75869</ele>
        <time>2020-08-08T12:11:39.501Z</time>
      </trkpt>
      <trkpt lat="63.76886" lon="10.23732">
        <ele>195.494153</ele>
        <time>2020-08-08T12:11:45.494Z</time>
      </trkpt>
      <trkpt lat="63.76895" lon="10.23722">
        <ele>196.214346</ele>
        <time>2020-08-08T12:11:53.448Z</time>
      </trkpt>
      <trkpt lat="63.76903" lon="10.23712">
        <ele>196.906921</ele>
        <time>2020-08-08T12:11:59.466Z</time>
      </trkpt>
      <trkpt lat="63.76912" lon="10.23707">
        <ele>197.624226</ele>
        <time>2020-08-08T12:12:06.481Z</time>
      </trkpt>
      <trkpt lat="63.76921" lon="10.23703">
        <ele>198.316634</ele>
        <time>2020-08-08T12:12:12.475Z</time>
      </trkpt>
      <trkpt lat="63.76931" lon="10.23695">
        <ele>199.057232</ele>
        <time>2020-08-08T12:12:20.466Z</time>
      </trkpt>
      <trkpt lat="63.76941" lon="10.2369">
        <ele>199.824154</ele>
        <time>2020-08-08T12:12:26.455Z</time>
      </trkpt>
      <trkpt lat="63.76952" lon="10.23686">
        <ele>200.589239</ele>
        <time>2020-08-08T12:12:34.481Z</time>
      </trkpt>
      <trkpt lat="63.76961" lon="10.23684">
        <ele>201.251351</ele>
        <time>2020-08-08T12:12:41.493Z</time>
      </trkpt>
      <trkpt lat="63.76971" lon="10.2368">
        <ele>201.94402</ele>
        <time>2020-08-08T12:12:48.449Z</time>
      </trkpt>
      <trkpt lat="63.76982" lon="10.23679">
        <ele>202.680434</ele>
        <time>2020-08-08T12:12:56.455Z</time>
      </trkpt>
      <trkpt lat="63.76992" lon="10.23677">
        <ele>203.4101</ele>
        <time>2020-08-08T12:13:02.450Z</time>
      </trkpt>
      <trkpt lat="63.77001" lon="10.23675">
        <ele>204.05761</ele>
        <time>2020-08-08T12:13:09.490Z</time>
      </trkpt>
      <trkpt lat="63.77012" lon="10.23673">
        <ele>204.794491</ele>
        <time>2020-08-08T12:13:18.459Z</time>
      </trkpt>
      <trkpt lat="63.77021" lon="10.23669">
        <ele>205.433856</ele>
        <time>2020-08-08T12:13:24.449Z</time>
      </trkpt>
      <trkpt lat="63.7703" lon="10.23667">
        <ele>206.061242</ele>
        <time>2020-08-08T12:13:32.470Z</time>
      </trkpt>
      <trkpt lat="63.77039" lon="10.23663">
        <ele>206.735596</ele>
        <time>2020-08-08T12:13:38.452Z</time>
      </trkpt>
      <trkpt lat="63.77049" lon="10.23659">
        <ele>207.420205</ele>
        <time>2020-08-08T12:13:45.510Z</time>
      </trkpt>
      <trkpt lat="63.77057" lon="10.23653">
        <ele>208.045395</ele>
        <time>2020-08-08T12:13:52.452Z</time>
      </trkpt>
      <trkpt lat="63.77067" lon="10.2365">
        <ele>208.716417</ele>
        <time>2020-08-08T12:13:57.442Z</time>
      </trkpt>
      <trkpt lat="63.77077" lon="10.23648">
        <ele>209.426236</ele>
        <time>2020-08-08T12:14:03.498Z</time>
      </trkpt>
      <trkpt lat="63.77086" lon="10.23647">
        <ele>210.05712</ele>
        <time>2020-08-08T12:14:08.470Z</time>
      </trkpt>
      <trkpt lat="63.77096" lon="10.23648">
        <ele>210.772602</ele>
        <time>2020-08-08T12:14:13.465Z</time>
      </trkpt>
      <trkpt lat="63.77106" lon="10.23648">
        <ele>211.479162</ele>
        <time>2020-08-08T12:14:18.454Z</time>
      </trkpt>
      <trkpt lat="63.77116" lon="10.23649">
        <ele>210.921283</ele>
        <time>2020-08-08T12:14:22.453Z</time>
      </trkpt>
      <trkpt lat="63.77128" lon="10.2365">
        <ele>210.202001</ele>
        <time>2020-08-08T12:14:26.445Z</time>
      </trkpt>
      <trkpt lat="63.77139" lon="10.2365">
        <ele>209.489064</ele>
        <time>2020-08-08T12:14:30.449Z</time>
      </trkpt>
      <trkpt lat="63.7715" lon="10.23651">
        <ele>208.743864</ele>
        <time>2020-08-08T12:14:34.462Z</time>
      </trkpt>
      <trkpt lat="63.77161" lon="10.23653">
        <ele>208.085743</ele>
        <time>2020-08-08T12:14:37.454Z</time>
      </trkpt>
      <trkpt lat="63.77172" lon="10.23655">
        <ele>207.326224</ele>
        <time>2020-08-08T12:14:40.457Z</time>
      </trkpt>
      <trkpt lat="63.77185" lon="10.23658">
        <ele>206.501362</ele>
        <time>2020-08-08T12:14:43.523Z</time>
      </trkpt>
      <trkpt lat="63.77198" lon="10.23662">
        <ele>205.645927</ele>
        <time>2020-08-08T12:14:46.452Z</time>
      </trkpt>
      <trkpt lat="63.77208" lon="10.23665">
        <ele>204.993287</ele>
        <time>2020-08-08T12:14:48.477Z</time>
      </trkpt>
      <trkpt lat="63.77218" lon="10.23667">
        <ele>204.3668</ele>
        <time>2020-08-08T12:14:50.456Z</time>
      </trkpt>
      <trkpt lat="63.77229" lon="10.23669">
        <ele>203.683638</ele>
        <time>2020-08-08T12:14:52.453Z</time>
      </trkpt>
      <trkpt lat="63.7724" lon="10.23671">
        <ele>202.968722</ele>
        <time>2020-08-08T12:14:54.491Z</time>
      </trkpt>
      <trkpt lat="63.77252" lon="10.23672">
        <ele>202.197255</ele>
        <time>2020-08-08T12:14:56.475Z</time>
      </trkpt>
      <trkpt lat="63.77265" lon="10.23674">
        <ele>201.342423</ele>
        <time>2020-08-08T12:14:58.460Z</time>
      </trkpt>
      <trkpt lat="63.77279" lon="10.23673">
        <ele>200.462376</ele>
        <time>2020-08-08T12:15:00.474Z</time>
      </trkpt>
      <trkpt lat="63.77294" lon="10.23672">
        <ele>199.60693</ele>
        <time>2020-08-08T12:15:02.474Z</time>
      </trkpt>
      <trkpt lat="63.7731" lon="10.2367">
        <ele>198.760567</ele>
        <time>2020-08-08T12:15:04.451Z</time>
      </trkpt>
      <trkpt lat="63.77328" lon="10.23667">
        <ele>197.818502</ele>
        <time>2020-08-08T12:15:06.483Z</time>
      </trkpt>
      <trkpt lat="63.77337" lon="10.23665">
        <ele>197.339305</ele>
        <time>2020-08-08T12:15:07.456Z</time>
      </trkpt>
      <trkpt lat="63.77348" lon="10.23662">
        <ele>196.792132</ele>
        <time>2020-08-08T12:15:08.454Z</time>
      </trkpt>
      <trkpt lat="63.77358" lon="10.23659">
        <ele>196.249376</ele>
        <time>2020-08-08T12:15:09.470Z</time>
      </trkpt>
      <trkpt lat="63.77369" lon="10.23656">
        <ele>195.699098</ele>
        <time>2020-08-08T12:15:10.497Z</time>
      </trkpt>
      <trkpt lat="63.77379" lon="10.23652">
        <ele>195.133428</ele>
        <time>2020-08-08T12:15:11.454Z</time>
      </trkpt>
      <trkpt lat="63.77391" lon="10.23648">
        <ele>194.530174</ele>
        <time>2020-08-08T12:15:12.496Z</time>
      </trkpt>
      <trkpt lat="63.77403" lon="10.23643">
        <ele>193.912402</ele>
        <time>2020-08-08T12:15:13.537Z</time>
      </trkpt>
      <trkpt lat="63.77414" lon="10.23638">
        <ele>193.300152</ele>
        <time>2020-08-08T12:15:14.473Z</time>
      </trkpt>
      <trkpt lat="63.77427" lon="10.23634">
        <ele>192.648657</ele>
        <time>2020-08-08T12:15:15.468Z</time>
      </trkpt>
      <trkpt lat="63.77439" lon="10.2363">
        <ele>191.988324</ele>
        <time>2020-08-08T12:15:16.477Z</time>
      </trkpt>
      <trkpt lat="63.77452" lon="10.23625">
        <ele>191.30027</ele>
        <time>2020-08-08T12:15:17.478Z</time>
      </trkpt>
      <trkpt lat="63.77465" lon="10.2362">
        <ele>190.638738</ele>
        <time>2020-08-08T12:15:18.491Z</time>
      </trkpt>
      <trkpt lat="63.77478" lon="10.23616">
        <ele>190.121388</ele>
        <time>2020-08-08T12:15:19.469Z</time>
      </trkpt>
      <trkpt lat="63.7749" lon="10.2361">
        <ele>189.612942</ele>
        <time>2020-08-08T12:15:20.472Z</time>
      </trkpt>
      <trkpt lat="63.77503" lon="10.23605">
        <ele>189.10976</ele>
        <time>2020-08-08T12:15:21.455Z</time>
      </trkpt>
      <trkpt lat="63.77514" lon="10.23598">
        <ele>188.626729</ele>
        <time>2020-08-08T12:15:22.485Z</time>
      </trkpt>
      <trkpt lat="63.77529" lon="10.23575">
        <ele>187.90127</ele>
        <time>2020-08-08T12:15:24.494Z</time>
      </trkpt>
      <trkpt lat="63.77542" lon="10.23559">
        <ele>187.332912</ele>
        <time>2020-08-08T12:15:25.450Z</time>
      </trkpt>
      <trkpt lat="63.7755" lon="10.23544">
        <ele>186.903119</ele>
        <time>2020-08-08T12:15:26.466Z</time>
      </trkpt>
      <trkpt lat="63.77562" lon="10.23526">
        <ele>186.355517</ele>
        <time>2020-08-08T12:15:27.524Z</time>
      </trkpt>
      <trkpt lat="63.77573" lon="10.23507">
        <ele>185.785708</ele>
        <time>2020-08-08T12:15:28.497Z</time>
      </trkpt>
      <trkpt lat="63.77584" lon="10.23488">
        <ele>185.236017</ele>
        <time>2020-08-08T12:15:29.457Z</time>
      </trkpt>
      <trkpt lat="63.77595" lon="10.23468">
        <ele>184.678931</ele>
        <time>2020-08-08T12:15:30.452Z</time>
      </trkpt>
      <trkpt lat="63.77608" lon="10.23446">
        <ele>184.030583</ele>
        <time>2020-08-08T12:15:31.481Z</time>
      </trkpt>
      <trkpt lat="63.7762" lon="10.23424">
        <ele>183.338258</ele>
        <time>2020-08-08T12:15:32.478Z</time>
      </trkpt>
      <trkpt lat="63.77633" lon="10.23402">
        <ele>182.29484</ele>
        <time>2020-08-08T12:15:33.467Z</time>
      </trkpt>
      <trkpt lat="63.77644" lon="10.2338">
        <ele>181.281545</ele>
        <time>2020-08-08T12:15:34.493Z</time>
      </trkpt>
      <trkpt lat="63.77655" lon="10.23358">
        <ele>180.301584</ele>
        <time>2020-08-08T12:15:35.484Z</time>
      </trkpt>
      <trkpt lat="63.77662" lon="10.23338">
        <ele>179.547924</ele>
        <time>2020-08-08T12:15:36.474Z</time>
      </trkpt>
      <trkpt lat="63.77669" lon="10.23304">
        <ele>178.449878</ele>
        <time>2020-08-08T12:15:38.478Z</time>
      </trkpt>
      <trkpt lat="63.77675" lon="10.23278">
        <ele>177.585558</ele>
        <time>2020-08-08T12:15:39.470Z</time>
      </trkpt>
      <trkpt lat="63.77681" lon="10.23247">
        <ele>176.554968</ele>
        <time>2020-08-08T12:15:40.472Z</time>
      </trkpt>
      <trkpt lat="63.77695" lon="10.232">
        <ele>174.890826</ele>
        <time>2020-08-08T12:15:41.501Z</time>
      </trkpt>
      <trkpt lat="63.77697" lon="10.23177">
        <ele>174.202475</ele>
        <time>2020-08-08T12:15:42.462Z</time>
      </trkpt>
      <trkpt lat="63.77701" lon="10.23149">
        <ele>173.341537</ele>
        <time>2020-08-08T12:15:43.482Z</time>
      </trkpt>
      <trkpt lat="63.77703" lon="10.23125">
        <ele>172.612631</ele>
        <time>2020-08-08T12:15:44.491Z</time>
      </trkpt>
      <trkpt lat="63.77704" lon="10.23102">
        <ele>171.941972</ele>
        <time>2020-08-08T12:15:45.481Z</time>
      </trkpt>
      <trkpt lat="63.77705" lon="10.2308">
        <ele>171.377867</ele>
        <time>2020-08-08T12:15:46.485Z</time>
      </trkpt>
      <trkpt lat="63.77707" lon="10.23041">
        <ele>170.844178</ele>
        <time>2020-08-08T12:15:48.441Z</time>
      </trkpt>
      <trkpt lat="63.77709" lon="10.22998">
        <ele>170.270763</ele>
        <time>2020-08-08T12:15:50.493Z</time>
      </trkpt>
      <trkpt lat="63.7771" lon="10.2296">
        <ele>169.768984</ele>
        <time>2020-08-08T12:15:52.496Z</time>
      </trkpt>
      <trkpt lat="63.77711" lon="10.22929">
        <ele>169.34251</ele>
        <time>2020-08-08T12:15:54.489Z</time>
      </trkpt>
      <trkpt lat="63.77713" lon="10.22892">
        <ele>168.854714</ele>
        <time>2020-08-08T12:15:56.457Z</time>
      </trkpt>
      <trkpt lat="63.77715" lon="10.22858">
        <ele>168.398418</ele>
        <time>2020-08-08T12:15:58.465Z</time>
      </trkpt>
      <trkpt lat="63.77716" lon="10.22826">
        <ele>167.965012</ele>
        <time>2020-08-08T12:16:00.462Z</time>
      </trkpt>
      <trkpt lat="63.77717" lon="10.22798">
        <ele>167.586685</ele>
        <time>2020-08-08T12:16:02.445Z</time>
      </trkpt>
      <trkpt lat="63.77719" lon="10.22769">
        <ele>167.201711</ele>
        <time>2020-08-08T12:16:04.484Z</time>
      </trkpt>
      <trkpt lat="63.7772" lon="10.22742">
        <ele>166.831903</ele>
        <time>2020-08-08T12:16:06.460Z</time>
      </trkpt>
      <trkpt lat="63.7772" lon="10.22715">
        <ele>166.480971</ele>
        <time>2020-08-08T12:16:08.482Z</time>
      </trkpt>
      <trkpt lat="63.77722" lon="10.22692">
        <ele>166.160726</ele>
        <time>2020-08-08T12:16:10.469Z</time>
      </trkpt>
      <trkpt lat="63.77723" lon="10.22667">
        <ele>166.062941</ele>
        <time>2020-08-08T12:16:12.493Z</time>
      </trkpt>
      <trkpt lat="63.77724" lon="10.22644">
        <ele>166.1448</ele>
        <time>2020-08-08T12:16:14.455Z</time>
      </trkpt>
      <trkpt lat="63.77725" lon="10.22621">
        <ele>166.229829</ele>
        <time>2020-08-08T12:16:16.500Z</time>
      </trkpt>
      <trkpt lat="63.77726" lon="10.22597">
        <ele>166.313351</ele>
        <time>2020-08-08T12:16:18.481Z</time>
      </trkpt>
      <trkpt lat="63.77727" lon="10.22574">
        <ele>166.399018</ele>
        <time>2020-08-08T12:16:20.516Z</time>
      </trkpt>
      <trkpt lat="63.77728" lon="10.2255">
        <ele>166.482195</ele>
        <time>2020-08-08T12:16:22.465Z</time>
      </trkpt>
      <trkpt lat="63.77729" lon="10.22527">
        <ele>166.56678</ele>
        <time>2020-08-08T12:16:24.459Z</time>
      </trkpt>
      <trkpt lat="63.77731" lon="10.22503">
        <ele>166.652332</ele>
        <time>2020-08-08T12:16:26.487Z</time>
      </trkpt>
      <trkpt lat="63.77732" lon="10.22479">
        <ele>166.7395</ele>
        <time>2020-08-08T12:16:28.442Z</time>
      </trkpt>
      <trkpt lat="63.77733" lon="10.22455">
        <ele>166.826667</ele>
        <time>2020-08-08T12:16:30.458Z</time>
      </trkpt>
      <trkpt lat="63.77735" lon="10.22431">
        <ele>166.912293</ele>
        <time>2020-08-08T12:16:32.515Z</time>
      </trkpt>
      <trkpt lat="63.77736" lon="10.22408">
        <ele>166.993851</ele>
        <time>2020-08-08T12:16:34.452Z</time>
      </trkpt>
      <trkpt lat="63.77737" lon="10.22386">
        <ele>167.074539</ele>
        <time>2020-08-08T12:16:36.497Z</time>
      </trkpt>
      <trkpt lat="63.77738" lon="10.22363">
        <ele>167.155032</ele>
        <time>2020-08-08T12:16:38.469Z</time>
      </trkpt>
      <trkpt lat="63.77739" lon="10.22342">
        <ele>167.231615</ele>
        <time>2020-08-08T12:16:40.465Z</time>
      </trkpt>
      <trkpt lat="63.7774" lon="10.22321">
        <ele>167.30817</ele>
        <time>2020-08-08T12:16:42.457Z</time>
      </trkpt>
      <trkpt lat="63.77742" lon="10.22299">
        <ele>167.38688</ele>
        <time>2020-08-08T12:16:44.444Z</time>
      </trkpt>
      <trkpt lat="63.77744" lon="10.22277">
        <ele>167.465909</ele>
        <time>2020-08-08T12:16:46.450Z</time>
      </trkpt>
      <trkpt lat="63.77745" lon="10.22255">
        <ele>167.393372</ele>
        <time>2020-08-08T12:16:48.439Z</time>
      </trkpt>
      <trkpt lat="63.77747" lon="10.22232">
        <ele>167.315729</ele>
        <time>2020-08-08T12:16:50.452Z</time>
      </trkpt>
      <trkpt lat="63.77749" lon="10.22209">
        <ele>167.234638</ele>
        <time>2020-08-08T12:16:52.458Z</time>
      </trkpt>
      <trkpt lat="63.77751" lon="10.22185">
        <ele>167.150564</ele>
        <time>2020-08-08T12:16:54.447Z</time>
      </trkpt>
      <trkpt lat="63.77754" lon="10.22161">
        <ele>167.06716</ele>
        <time>2020-08-08T12:16:56.481Z</time>
      </trkpt>
      <trkpt lat="63.77757" lon="10.22136">
        <ele>166.981217</ele>
        <time>2020-08-08T12:16:58.481Z</time>
      </trkpt>
      <trkpt lat="63.7776" lon="10.2211">
        <ele>166.890513</ele>
        <time>2020-08-08T12:17:00.475Z</time>
      </trkpt>
      <trkpt lat="63.77763" lon="10.22086">
        <ele>166.802756</ele>
        <time>2020-08-08T12:17:02.503Z</time>
      </trkpt>
      <trkpt lat="63.77768" lon="10.22061">
        <ele>166.710916</ele>
        <time>2020-08-08T12:17:04.494Z</time>
      </trkpt>
      <trkpt lat="63.77774" lon="10.22036">
        <ele>166.615565</ele>
        <time>2020-08-08T12:17:06.447Z</time>
      </trkpt>
      <trkpt lat="63.7778" lon="10.2201">
        <ele>166.516165</ele>
        <time>2020-08-08T12:17:08.461Z</time>
      </trkpt>
      <trkpt lat="63.77787" lon="10.21985">
        <ele>166.416707</ele>
        <time>2020-08-08T12:17:10.480Z</time>
      </trkpt>
      <trkpt lat="63.77794" lon="10.21961">
        <ele>166.316796</ele>
        <time>2020-08-08T12:17:12.502Z</time>
      </trkpt>
      <trkpt lat="63.77803" lon="10.21939">
        <ele>166.214188</ele>
        <time>2020-08-08T12:17:14.489Z</time>
      </trkpt>
      <trkpt lat="63.77813" lon="10.21917">
        <ele>166.109927</ele>
        <time>2020-08-08T12:17:16.459Z</time>
      </trkpt>
      <trkpt lat="63.77822" lon="10.21896">
        <ele>166.058579</ele>
        <time>2020-08-08T12:17:18.455Z</time>
      </trkpt>
      <trkpt lat="63.77832" lon="10.21878">
        <ele>166.01894</ele>
        <time>2020-08-08T12:17:20.446Z</time>
      </trkpt>
      <trkpt lat="63.77843" lon="10.21861">
        <ele>165.978181</ele>
        <time>2020-08-08T12:17:22.506Z</time>
      </trkpt>
      <trkpt lat="63.77855" lon="10.21846">
        <ele>165.939479</ele>
        <time>2020-08-08T12:17:24.454Z</time>
      </trkpt>
      <trkpt lat="63.77866" lon="10.21833">
        <ele>165.899598</ele>
        <time>2020-08-08T12:17:26.501Z</time>
      </trkpt>
      <trkpt lat="63.77878" lon="10.21822">
        <ele>165.861421</ele>
        <time>2020-08-08T12:17:28.486Z</time>
      </trkpt>
      <trkpt lat="63.7789" lon="10.21812">
        <ele>165.823878</ele>
        <time>2020-08-08T12:17:30.467Z</time>
      </trkpt>
      <trkpt lat="63.77901" lon="10.21806">
        <ele>165.788626</ele>
        <time>2020-08-08T12:17:32.493Z</time>
      </trkpt>
      <trkpt lat="63.77914" lon="10.21802">
        <ele>165.751193</ele>
        <time>2020-08-08T12:17:34.462Z</time>
      </trkpt>
      <trkpt lat="63.77925" lon="10.21798">
        <ele>165.716159</ele>
        <time>2020-08-08T12:17:36.460Z</time>
      </trkpt>
      <trkpt lat="63.77937" lon="10.21794">
        <ele>165.680661</ele>
        <time>2020-08-08T12:17:38.459Z</time>
      </trkpt>
      <trkpt lat="63.77948" lon="10.21792">
        <ele>165.647717</ele>
        <time>2020-08-08T12:17:40.457Z</time>
      </trkpt>
      <trkpt lat="63.77959" lon="10.21791">
        <ele>165.613991</ele>
        <time>2020-08-08T12:17:42.482Z</time>
      </trkpt>
      <trkpt lat="63.77969" lon="10.2179">
        <ele>165.582647</ele>
        <time>2020-08-08T12:17:44.471Z</time>
      </trkpt>
      <trkpt lat="63.7798" lon="10.21789">
        <ele>165.551644</ele>
        <time>2020-08-08T12:17:46.450Z</time>
      </trkpt>
      <trkpt lat="63.77991" lon="10.2179">
        <ele>165.497888</ele>
        <time>2020-08-08T12:17:48.484Z</time>
      </trkpt>
      <trkpt lat="63.78001" lon="10.21794">
        <ele>165.443727</ele>
        <time>2020-08-08T12:17:50.495Z</time>
      </trkpt>
      <trkpt lat="63.78011" lon="10.218">
        <ele>165.38892</ele>
        <time>2020-08-08T12:17:52.490Z</time>
      </trkpt>
      <trkpt lat="63.78021" lon="10.21806">
        <ele>165.334783</ele>
        <time>2020-08-08T12:17:54.481Z</time>
      </trkpt>
      <trkpt lat="63.78031" lon="10.21813">
        <ele>165.279098</ele>
        <time>2020-08-08T12:17:56.497Z</time>
      </trkpt>
      <trkpt lat="63.78041" lon="10.21822">
        <ele>165.22418</ele>
        <time>2020-08-08T12:17:58.457Z</time>
      </trkpt>
      <trkpt lat="63.78051" lon="10.21832">
        <ele>165.16709</ele>
        <time>2020-08-08T12:18:00.491Z</time>
      </trkpt>
      <trkpt lat="63.78061" lon="10.21845">
        <ele>165.109056</ele>
        <time>2020-08-08T12:18:02.477Z</time>
      </trkpt>
      <trkpt lat="63.78071" lon="10.21858">
        <ele>165.048656</ele>
        <time>2020-08-08T12:18:04.466Z</time>
      </trkpt>
      <trkpt lat="63.78082" lon="10.21871">
        <ele>164.985778</ele>
        <time>2020-08-08T12:18:06.463Z</time>
      </trkpt>
      <trkpt lat="63.78093" lon="10.21885">
        <ele>164.921987</ele>
        <time>2020-08-08T12:18:08.445Z</time>
      </trkpt>
      <trkpt lat="63.78103" lon="10.21902">
        <ele>164.855064</ele>
        <time>2020-08-08T12:18:10.446Z</time>
      </trkpt>
      <trkpt lat="63.78115" lon="10.21919">
        <ele>164.784155</ele>
        <time>2020-08-08T12:18:12.503Z</time>
      </trkpt>
      <trkpt lat="63.78126" lon="10.21937">
        <ele>164.712064</ele>
        <time>2020-08-08T12:18:14.469Z</time>
      </trkpt>
      <trkpt lat="63.78137" lon="10.21955">
        <ele>164.64197</ele>
        <time>2020-08-08T12:18:16.463Z</time>
      </trkpt>
      <trkpt lat="63.78148" lon="10.21972">
        <ele>164.505787</ele>
        <time>2020-08-08T12:18:18.479Z</time>
      </trkpt>
      <trkpt lat="63.7816" lon="10.2199">
        <ele>164.329332</ele>
        <time>2020-08-08T12:18:20.455Z</time>
      </trkpt>
      <trkpt lat="63.78171" lon="10.22007">
        <ele>164.153502</ele>
        <time>2020-08-08T12:18:22.496Z</time>
      </trkpt>
      <trkpt lat="63.78182" lon="10.22023">
        <ele>163.986542</ele>
        <time>2020-08-08T12:18:24.459Z</time>
      </trkpt>
      <trkpt lat="63.78193" lon="10.22039">
        <ele>163.825869</ele>
        <time>2020-08-08T12:18:26.473Z</time>
      </trkpt>
      <trkpt lat="63.78203" lon="10.22053">
        <ele>163.671011</ele>
        <time>2020-08-08T12:18:28.494Z</time>
      </trkpt>
      <trkpt lat="63.78213" lon="10.22069">
        <ele>163.518413</ele>
        <time>2020-08-08T12:18:30.483Z</time>
      </trkpt>
      <trkpt lat="63.78223" lon="10.22084">
        <ele>163.364932</ele>
        <time>2020-08-08T12:18:32.524Z</time>
      </trkpt>
      <trkpt lat="63.78231" lon="10.221">
        <ele>163.223699</ele>
        <time>2020-08-08T12:18:34.477Z</time>
      </trkpt>
      <trkpt lat="63.78239" lon="10.22116">
        <ele>163.091684</ele>
        <time>2020-08-08T12:18:36.465Z</time>
      </trkpt>
      <trkpt lat="63.78247" lon="10.22132">
        <ele>162.958901</ele>
        <time>2020-08-08T12:18:38.482Z</time>
      </trkpt>
      <trkpt lat="63.78253" lon="10.22148">
        <ele>162.831737</ele>
        <time>2020-08-08T12:18:40.461Z</time>
      </trkpt>
      <trkpt lat="63.78263" lon="10.2217">
        <ele>162.662716</ele>
        <time>2020-08-08T12:18:43.509Z</time>
      </trkpt>
      <trkpt lat="63.78269" lon="10.22186">
        <ele>162.545312</ele>
        <time>2020-08-08T12:18:45.454Z</time>
      </trkpt>
      <trkpt lat="63.78275" lon="10.22203">
        <ele>162.419884</ele>
        <time>2020-08-08T12:18:47.482Z</time>
      </trkpt>
      <trkpt lat="63.78282" lon="10.2222">
        <ele>162.31229</ele>
        <time>2020-08-08T12:18:49.452Z</time>
      </trkpt>
      <trkpt lat="63.78289" lon="10.22238">
        <ele>162.276623</ele>
        <time>2020-08-08T12:18:51.452Z</time>
      </trkpt>
      <trkpt lat="63.78296" lon="10.22256">
        <ele>162.240611</ele>
        <time>2020-08-08T12:18:53.469Z</time>
      </trkpt>
      <trkpt lat="63.78303" lon="10.22274">
        <ele>162.206165</ele>
        <time>2020-08-08T12:18:55.490Z</time>
      </trkpt>
      <trkpt lat="63.7831" lon="10.22292">
        <ele>162.169046</ele>
        <time>2020-08-08T12:18:57.476Z</time>
      </trkpt>
      <trkpt lat="63.78318" lon="10.22312">
        <ele>162.129027</ele>
        <time>2020-08-08T12:18:59.486Z</time>
      </trkpt>
      <trkpt lat="63.78326" lon="10.22333">
        <ele>162.087563</ele>
        <time>2020-08-08T12:19:01.461Z</time>
      </trkpt>
      <trkpt lat="63.78334" lon="10.22354">
        <ele>162.046656</ele>
        <time>2020-08-08T12:19:03.492Z</time>
      </trkpt>
      <trkpt lat="63.78343" lon="10.22374">
        <ele>162.00608</ele>
        <time>2020-08-08T12:19:05.468Z</time>
      </trkpt>
      <trkpt lat="63.78351" lon="10.22395">
        <ele>161.964283</ele>
        <time>2020-08-08T12:19:07.508Z</time>
      </trkpt>
      <trkpt lat="63.78359" lon="10.22415">
        <ele>161.924154</ele>
        <time>2020-08-08T12:19:09.479Z</time>
      </trkpt>
      <trkpt lat="63.78367" lon="10.22435">
        <ele>161.883468</ele>
        <time>2020-08-08T12:19:11.466Z</time>
      </trkpt>
      <trkpt lat="63.78375" lon="10.22455">
        <ele>161.843319</ele>
        <time>2020-08-08T12:19:13.456Z</time>
      </trkpt>
      <trkpt lat="63.78383" lon="10.22475">
        <ele>161.802297</ele>
        <time>2020-08-08T12:19:15.495Z</time>
      </trkpt>
      <trkpt lat="63.78392" lon="10.22496">
        <ele>161.761158</ele>
        <time>2020-08-08T12:19:17.475Z</time>
      </trkpt>
      <trkpt lat="63.784" lon="10.22515">
        <ele>161.721139</ele>
        <time>2020-08-08T12:19:19.498Z</time>
      </trkpt>
      <trkpt lat="63.78408" lon="10.22534">
        <ele>161.766198</ele>
        <time>2020-08-08T12:19:21.449Z</time>
      </trkpt>
      <trkpt lat="63.78415" lon="10.22554">
        <ele>161.825204</ele>
        <time>2020-08-08T12:19:23.462Z</time>
      </trkpt>
      <trkpt lat="63.78423" lon="10.22573">
        <ele>161.883194</ele>
        <time>2020-08-08T12:19:25.491Z</time>
      </trkpt>
      <trkpt lat="63.78431" lon="10.22592">
        <ele>161.941515</ele>
        <time>2020-08-08T12:19:27.460Z</time>
      </trkpt>
      <trkpt lat="63.78439" lon="10.22612">
        <ele>162.001542</ele>
        <time>2020-08-08T12:19:29.504Z</time>
      </trkpt>
      <trkpt lat="63.78446" lon="10.22631">
        <ele>162.059695</ele>
        <time>2020-08-08T12:19:31.466Z</time>
      </trkpt>
      <trkpt lat="63.78455" lon="10.22651">
        <ele>162.121259</ele>
        <time>2020-08-08T12:19:33.450Z</time>
      </trkpt>
      <trkpt lat="63.78464" lon="10.22672">
        <ele>162.186009</ele>
        <time>2020-08-08T12:19:35.450Z</time>
      </trkpt>
      <trkpt lat="63.78473" lon="10.22694">
        <ele>162.253252</ele>
        <time>2020-08-08T12:19:37.479Z</time>
      </trkpt>
      <trkpt lat="63.78482" lon="10.22717">
        <ele>162.3254</ele>
        <time>2020-08-08T12:19:39.451Z</time>
      </trkpt>
      <trkpt lat="63.78492" lon="10.22742">
        <ele>162.400536</ele>
        <time>2020-08-08T12:19:41.478Z</time>
      </trkpt>
      <trkpt lat="63.78502" lon="10.22766">
        <ele>162.474668</ele>
        <time>2020-08-08T12:19:43.501Z</time>
      </trkpt>
      <trkpt lat="63.78512" lon="10.2279">
        <ele>162.548799</ele>
        <time>2020-08-08T12:19:45.492Z</time>
      </trkpt>
      <trkpt lat="63.78522" lon="10.22813">
        <ele>162.618902</ele>
        <time>2020-08-08T12:19:47.459Z</time>
      </trkpt>
      <trkpt lat="63.78531" lon="10.22836">
        <ele>162.677944</ele>
        <time>2020-08-08T12:19:49.472Z</time>
      </trkpt>
      <trkpt lat="63.7854" lon="10.22858">
        <ele>162.729559</ele>
        <time>2020-08-08T12:19:51.478Z</time>
      </trkpt>
      <trkpt lat="63.78549" lon="10.22881">
        <ele>162.783308</ele>
        <time>2020-08-08T12:19:53.454Z</time>
      </trkpt>
      <trkpt lat="63.78557" lon="10.22904">
        <ele>162.836792</ele>
        <time>2020-08-08T12:19:55.441Z</time>
      </trkpt>
      <trkpt lat="63.78567" lon="10.22927">
        <ele>162.89403</ele>
        <time>2020-08-08T12:19:57.474Z</time>
      </trkpt>
      <trkpt lat="63.78576" lon="10.22949">
        <ele>162.945512</ele>
        <time>2020-08-08T12:19:59.456Z</time>
      </trkpt>
      <trkpt lat="63.78584" lon="10.22969">
        <ele>162.993538</ele>
        <time>2020-08-08T12:20:01.470Z</time>
      </trkpt>
      <trkpt lat="63.78591" lon="10.2299">
        <ele>163.041971</ele>
        <time>2020-08-08T12:20:03.449Z</time>
      </trkpt>
      <trkpt lat="63.78599" lon="10.23009">
        <ele>163.087586</ele>
        <time>2020-08-08T12:20:05.451Z</time>
      </trkpt>
      <trkpt lat="63.78606" lon="10.23027">
        <ele>163.131477</ele>
        <time>2020-08-08T12:20:07.492Z</time>
      </trkpt>
      <trkpt lat="63.78613" lon="10.23044">
        <ele>163.173906</ele>
        <time>2020-08-08T12:20:09.478Z</time>
      </trkpt>
      <trkpt lat="63.7862" lon="10.2306">
        <ele>163.212319</ele>
        <time>2020-08-08T12:20:11.468Z</time>
      </trkpt>
      <trkpt lat="63.7863" lon="10.23081">
        <ele>163.266969</ele>
        <time>2020-08-08T12:20:14.468Z</time>
      </trkpt>
      <trkpt lat="63.78637" lon="10.23094">
        <ele>163.304295</ele>
        <time>2020-08-08T12:20:16.491Z</time>
      </trkpt>
      <trkpt lat="63.78645" lon="10.23106">
        <ele>163.342262</ele>
        <time>2020-08-08T12:20:18.447Z</time>
      </trkpt>
      <trkpt lat="63.78656" lon="10.23121">
        <ele>163.749603</ele>
        <time>2020-08-08T12:20:21.455Z</time>
      </trkpt>
      <trkpt lat="63.78664" lon="10.2313">
        <ele>164.099262</ele>
        <time>2020-08-08T12:20:23.515Z</time>
      </trkpt>
      <trkpt lat="63.78677" lon="10.2314">
        <ele>164.612399</ele>
        <time>2020-08-08T12:20:26.472Z</time>
      </trkpt>
      <trkpt lat="63.78689" lon="10.23148">
        <ele>165.092527</ele>
        <time>2020-08-08T12:20:29.506Z</time>
      </trkpt>
      <trkpt lat="63.78701" lon="10.23154">
        <ele>165.557432</ele>
        <time>2020-08-08T12:20:32.511Z</time>
      </trkpt>
      <trkpt lat="63.78712" lon="10.23157">
        <ele>166.019381</ele>
        <time>2020-08-08T12:20:35.460Z</time>
      </trkpt>
      <trkpt lat="63.78725" lon="10.23161">
        <ele>166.501758</ele>
        <time>2020-08-08T12:20:38.438Z</time>
      </trkpt>
      <trkpt lat="63.78737" lon="10.23164">
        <ele>166.971777</ele>
        <time>2020-08-08T12:20:41.486Z</time>
      </trkpt>
      <trkpt lat="63.78748" lon="10.23167">
        <ele>167.409424</ele>
        <time>2020-08-08T12:20:44.467Z</time>
      </trkpt>
      <trkpt lat="63.78759" lon="10.23169">
        <ele>167.842061</ele>
        <time>2020-08-08T12:20:47.482Z</time>
      </trkpt>
      <trkpt lat="63.78769" lon="10.23171">
        <ele>168.206365</ele>
        <time>2020-08-08T12:20:50.512Z</time>
      </trkpt>
      <trkpt lat="63.78778" lon="10.23173">
        <ele>168.566013</ele>
        <time>2020-08-08T12:20:53.498Z</time>
      </trkpt>
      <trkpt lat="63.78788" lon="10.23175">
        <ele>168.960654</ele>
        <time>2020-08-08T12:20:56.489Z</time>
      </trkpt>
      <trkpt lat="63.788" lon="10.23175">
        <ele>169.392219</ele>
        <time>2020-08-08T12:21:00.444Z</time>
      </trkpt>
      <trkpt lat="63.78809" lon="10.23175">
        <ele>169.762155</ele>
        <time>2020-08-08T12:21:03.460Z</time>
      </trkpt>
      <trkpt lat="63.7882" lon="10.23172">
        <ele>170.184652</ele>
        <time>2020-08-08T12:21:07.447Z</time>
      </trkpt>
      <trkpt lat="63.78829" lon="10.2317">
        <ele>170.462224</ele>
        <time>2020-08-08T12:21:10.478Z</time>
      </trkpt>
      <trkpt lat="63.7884" lon="10.23168">
        <ele>170.73873</ele>
        <time>2020-08-08T12:21:13.458Z</time>
      </trkpt>
      <trkpt lat="63.78851" lon="10.23165">
        <ele>171.044286</ele>
        <time>2020-08-08T12:21:17.488Z</time>
      </trkpt>
      <trkpt lat="63.78864" lon="10.23164">
        <ele>171.389018</ele>
        <time>2020-08-08T12:21:21.462Z</time>
      </trkpt>
      <trkpt lat="63.78876" lon="10.23166">
        <ele>171.684304</ele>
        <time>2020-08-08T12:21:25.484Z</time>
      </trkpt>
      <trkpt lat="63.78887" lon="10.23169">
        <ele>171.988822</ele>
        <time>2020-08-08T12:21:29.471Z</time>
      </trkpt>
      <trkpt lat="63.78898" lon="10.23173">
        <ele>172.269724</ele>
        <time>2020-08-08T12:21:33.485Z</time>
      </trkpt>
      <trkpt lat="63.78909" lon="10.23181">
        <ele>172.571924</ele>
        <time>2020-08-08T12:21:37.461Z</time>
      </trkpt>
      <trkpt lat="63.78919" lon="10.23192">
        <ele>172.869104</ele>
        <time>2020-08-08T12:21:41.480Z</time>
      </trkpt>
      <trkpt lat="63.78928" lon="10.23203">
        <ele>173.134185</ele>
        <time>2020-08-08T12:21:45.459Z</time>
      </trkpt>
      <trkpt lat="63.78936" lon="10.23214">
        <ele>173.383855</ele>
        <time>2020-08-08T12:21:49.475Z</time>
      </trkpt>
      <trkpt lat="63.78944" lon="10.23226">
        <ele>173.641052</ele>
        <time>2020-08-08T12:21:53.543Z</time>
      </trkpt>
      <trkpt lat="63.78953" lon="10.23238">
        <ele>173.911888</ele>
        <time>2020-08-08T12:21:57.466Z</time>
      </trkpt>
      <trkpt lat="63.78962" lon="10.23251">
        <ele>174.197782</ele>
        <time>2020-08-08T12:22:01.481Z</time>
      </trkpt>
      <trkpt lat="63.78972" lon="10.23265">
        <ele>174.514298</ele>
        <time>2020-08-08T12:22:05.476Z</time>
      </trkpt>
      <trkpt lat="63.78983" lon="10.23279">
        <ele>174.833175</ele>
        <time>2020-08-08T12:22:09.483Z</time>
      </trkpt>
      <trkpt lat="63.78991" lon="10.2329">
        <ele>174.966355</ele>
        <time>2020-08-08T12:22:12.498Z</time>
      </trkpt>
      <trkpt lat="63.78999" lon="10.23301">
        <ele>174.752584</ele>
        <time>2020-08-08T12:22:15.440Z</time>
      </trkpt>
      <trkpt lat="63.79007" lon="10.23311">
        <ele>174.560855</ele>
        <time>2020-08-08T12:22:18.493Z</time>
      </trkpt>
      <trkpt lat="63.79016" lon="10.23322">
        <ele>174.355855</ele>
        <time>2020-08-08T12:22:21.456Z</time>
      </trkpt>
      <trkpt lat="63.79025" lon="10.23332">
        <ele>174.140143</ele>
        <time>2020-08-08T12:22:24.441Z</time>
      </trkpt>
      <trkpt lat="63.79034" lon="10.23342">
        <ele>173.9343</ele>
        <time>2020-08-08T12:22:27.488Z</time>
      </trkpt>
      <trkpt lat="63.79043" lon="10.23348">
        <ele>173.737999</ele>
        <time>2020-08-08T12:22:30.461Z</time>
      </trkpt>
      <trkpt lat="63.79053" lon="10.23353">
        <ele>173.509766</ele>
        <time>2020-08-08T12:22:34.453Z</time>
      </trkpt>
      <trkpt lat="63.79063" lon="10.23356">
        <ele>173.308473</ele>
        <time>2020-08-08T12:22:37.442Z</time>
      </trkpt>
      <trkpt lat="63.79072" lon="10.23356">
        <ele>173.108222</ele>
        <time>2020-08-08T12:22:40.501Z</time>
      </trkpt>
      <trkpt lat="63.79082" lon="10.2335">
        <ele>172.891305</ele>
        <time>2020-08-08T12:22:43.479Z</time>
      </trkpt>
      <trkpt lat="63.79095" lon="10.23345">
        <ele>172.619262</ele>
        <time>2020-08-08T12:22:46.456Z</time>
      </trkpt>
      <trkpt lat="63.79106" lon="10.23337">
        <ele>172.372537</ele>
        <time>2020-08-08T12:22:49.459Z</time>
      </trkpt>
      <trkpt lat="63.79118" lon="10.23329">
        <ele>172.122413</ele>
        <time>2020-08-08T12:22:52.455Z</time>
      </trkpt>
      <trkpt lat="63.7913" lon="10.23319">
        <ele>171.843275</ele>
        <time>2020-08-08T12:22:55.464Z</time>
      </trkpt>
      <trkpt lat="63.79142" lon="10.23311">
        <ele>171.581978</ele>
        <time>2020-08-08T12:22:58.455Z</time>
      </trkpt>
      <trkpt lat="63.79151" lon="10.23307">
        <ele>171.382612</ele>
        <time>2020-08-08T12:23:00.457Z</time>
      </trkpt>
      <trkpt lat="63.79161" lon="10.23305">
        <ele>171.115575</ele>
        <time>2020-08-08T12:23:02.510Z</time>
      </trkpt>
      <trkpt lat="63.79171" lon="10.23303">
        <ele>170.573053</ele>
        <time>2020-08-08T12:23:04.454Z</time>
      </trkpt>
      <trkpt lat="63.7918" lon="10.23302">
        <ele>170.103415</ele>
        <time>2020-08-08T12:23:06.473Z</time>
      </trkpt>
      <trkpt lat="63.79189" lon="10.233">
        <ele>169.637713</ele>
        <time>2020-08-08T12:23:08.475Z</time>
      </trkpt>
      <trkpt lat="63.79202" lon="10.233">
        <ele>168.98325</ele>
        <time>2020-08-08T12:23:11.449Z</time>
      </trkpt>
      <trkpt lat="63.79215" lon="10.23297">
        <ele>168.32684</ele>
        <time>2020-08-08T12:23:14.473Z</time>
      </trkpt>
      <trkpt lat="63.79224" lon="10.23297">
        <ele>167.852647</ele>
        <time>2020-08-08T12:23:16.470Z</time>
      </trkpt>
      <trkpt lat="63.79233" lon="10.23295">
        <ele>167.392075</ele>
        <time>2020-08-08T12:23:18.454Z</time>
      </trkpt>
      <trkpt lat="63.79246" lon="10.2329">
        <ele>166.724701</ele>
        <time>2020-08-08T12:23:21.449Z</time>
      </trkpt>
      <trkpt lat="63.79255" lon="10.23287">
        <ele>166.259298</ele>
        <time>2020-08-08T12:23:23.469Z</time>
      </trkpt>
      <trkpt lat="63.79264" lon="10.23284">
        <ele>165.771117</ele>
        <time>2020-08-08T12:23:25.519Z</time>
      </trkpt>
      <trkpt lat="63.79273" lon="10.23279">
        <ele>165.28018</ele>
        <time>2020-08-08T12:23:27.493Z</time>
      </trkpt>
      <trkpt lat="63.79284" lon="10.23274">
        <ele>164.710347</ele>
        <time>2020-08-08T12:23:29.474Z</time>
      </trkpt>
      <trkpt lat="63.79295" lon="10.23267">
        <ele>164.13401</ele>
        <time>2020-08-08T12:23:31.482Z</time>
      </trkpt>
      <trkpt lat="63.79306" lon="10.23261">
        <ele>163.520459</ele>
        <time>2020-08-08T12:23:33.492Z</time>
      </trkpt>
      <trkpt lat="63.79319" lon="10.23256">
        <ele>162.881278</ele>
        <time>2020-08-08T12:23:35.464Z</time>
      </trkpt>
      <trkpt lat="63.79333" lon="10.23253">
        <ele>162.155597</ele>
        <time>2020-08-08T12:23:37.472Z</time>
      </trkpt>
      <trkpt lat="63.79347" lon="10.23251">
        <ele>161.936165</ele>
        <time>2020-08-08T12:23:39.462Z</time>
      </trkpt>
      <trkpt lat="63.79361" lon="10.23251">
        <ele>161.906354</ele>
        <time>2020-08-08T12:23:41.510Z</time>
      </trkpt>
      <trkpt lat="63.79375" lon="10.23252">
        <ele>161.877583</ele>
        <time>2020-08-08T12:23:43.482Z</time>
      </trkpt>
      <trkpt lat="63.79389" lon="10.23253">
        <ele>161.846701</ele>
        <time>2020-08-08T12:23:45.453Z</time>
      </trkpt>
      <trkpt lat="63.79404" lon="10.23254">
        <ele>161.816055</ele>
        <time>2020-08-08T12:23:47.446Z</time>
      </trkpt>
      <trkpt lat="63.7942" lon="10.23254">
        <ele>161.782906</ele>
        <time>2020-08-08T12:23:49.457Z</time>
      </trkpt>
      <trkpt lat="63.79436" lon="10.23256">
        <ele>161.749924</ele>
        <time>2020-08-08T12:23:51.453Z</time>
      </trkpt>
      <trkpt lat="63.79452" lon="10.23258">
        <ele>161.716762</ele>
        <time>2020-08-08T12:23:53.508Z</time>
      </trkpt>
      <trkpt lat="63.79469" lon="10.23259">
        <ele>161.681727</ele>
        <time>2020-08-08T12:23:55.461Z</time>
      </trkpt>
      <trkpt lat="63.79486" lon="10.23261">
        <ele>161.646232</ele>
        <time>2020-08-08T12:23:57.490Z</time>
      </trkpt>
      <trkpt lat="63.79502" lon="10.23262">
        <ele>161.611829</ele>
        <time>2020-08-08T12:23:59.464Z</time>
      </trkpt>
      <trkpt lat="63.79519" lon="10.23265">
        <ele>161.515267</ele>
        <time>2020-08-08T12:24:01.462Z</time>
      </trkpt>
      <trkpt lat="63.79536" lon="10.23269">
        <ele>161.073291</ele>
        <time>2020-08-08T12:24:03.537Z</time>
      </trkpt>
      <trkpt lat="63.79553" lon="10.23273">
        <ele>160.657542</ele>
        <time>2020-08-08T12:24:05.460Z</time>
      </trkpt>
      <trkpt lat="63.79569" lon="10.23278">
        <ele>160.246231</ele>
        <time>2020-08-08T12:24:07.448Z</time>
      </trkpt>
      <trkpt lat="63.79584" lon="10.23282">
        <ele>159.869957</ele>
        <time>2020-08-08T12:24:09.451Z</time>
      </trkpt>
      <trkpt lat="63.79597" lon="10.23287">
        <ele>159.555061</ele>
        <time>2020-08-08T12:24:11.475Z</time>
      </trkpt>
      <trkpt lat="63.79611" lon="10.23292">
        <ele>159.187918</ele>
        <time>2020-08-08T12:24:13.462Z</time>
      </trkpt>
      <trkpt lat="63.79626" lon="10.23297">
        <ele>158.814782</ele>
        <time>2020-08-08T12:24:15.476Z</time>
      </trkpt>
      <trkpt lat="63.79641" lon="10.23303">
        <ele>158.431405</ele>
        <time>2020-08-08T12:24:17.453Z</time>
      </trkpt>
      <trkpt lat="63.79656" lon="10.23308">
        <ele>158.041817</ele>
        <time>2020-08-08T12:24:19.491Z</time>
      </trkpt>
      <trkpt lat="63.79672" lon="10.23313">
        <ele>157.65065</ele>
        <time>2020-08-08T12:24:21.469Z</time>
      </trkpt>
      <trkpt lat="63.79686" lon="10.23313">
        <ele>157.282642</ele>
        <time>2020-08-08T12:24:23.450Z</time>
      </trkpt>
      <trkpt lat="63.79701" lon="10.23311">
        <ele>156.928526</ele>
        <time>2020-08-08T12:24:25.482Z</time>
      </trkpt>
      <trkpt lat="63.79715" lon="10.23304">
        <ele>156.613674</ele>
        <time>2020-08-08T12:24:27.465Z</time>
      </trkpt>
      <trkpt lat="63.79729" lon="10.23296">
        <ele>156.278418</ele>
        <time>2020-08-08T12:24:29.445Z</time>
      </trkpt>
      <trkpt lat="63.79744" lon="10.23288">
        <ele>155.948725</ele>
        <time>2020-08-08T12:24:31.446Z</time>
      </trkpt>
      <trkpt lat="63.79758" lon="10.23278">
        <ele>155.620414</ele>
        <time>2020-08-08T12:24:33.453Z</time>
      </trkpt>
      <trkpt lat="63.79772" lon="10.23269">
        <ele>155.287796</ele>
        <time>2020-08-08T12:24:35.469Z</time>
      </trkpt>
      <trkpt lat="63.79786" lon="10.23259">
        <ele>154.954324</ele>
        <time>2020-08-08T12:24:37.474Z</time>
      </trkpt>
      <trkpt lat="63.798" lon="10.2325">
        <ele>154.634696</ele>
        <time>2020-08-08T12:24:39.479Z</time>
      </trkpt>
      <trkpt lat="63.79814" lon="10.2324">
        <ele>154.29332</ele>
        <time>2020-08-08T12:24:41.478Z</time>
      </trkpt>
      <trkpt lat="63.79829" lon="10.23227">
        <ele>153.947539</ele>
        <time>2020-08-08T12:24:43.451Z</time>
      </trkpt>
      <trkpt lat="63.79843" lon="10.23212">
        <ele>153.590259</ele>
        <time>2020-08-08T12:24:45.467Z</time>
      </trkpt>
      <trkpt lat="63.79857" lon="10.23198">
        <ele>153.236647</ele>
        <time>2020-08-08T12:24:47.459Z</time>
      </trkpt>
      <trkpt lat="63.79872" lon="10.23184">
        <ele>152.887843</ele>
        <time>2020-08-08T12:24:49.473Z</time>
      </trkpt>
      <trkpt lat="63.79888" lon="10.23167">
        <ele>152.506822</ele>
        <time>2020-08-08T12:24:51.457Z</time>
      </trkpt>
      <trkpt lat="63.79904" lon="10.2315">
        <ele>152.11585</ele>
        <time>2020-08-08T12:24:53.462Z</time>
      </trkpt>
      <trkpt lat="63.79913" lon="10.23141">
        <ele>151.910147</ele>
        <time>2020-08-08T12:24:54.454Z</time>
      </trkpt>
      <trkpt lat="63.79921" lon="10.23135">
        <ele>151.708389</ele>
        <time>2020-08-08T12:24:55.482Z</time>
      </trkpt>
      <trkpt lat="63.79931" lon="10.2313">
        <ele>151.49165</ele>
        <time>2020-08-08T12:24:56.453Z</time>
      </trkpt>
      <trkpt lat="63.79941" lon="10.23127">
        <ele>151.265307</ele>
        <time>2020-08-08T12:24:57.450Z</time>
      </trkpt>
      <trkpt lat="63.7995" lon="10.2313">
        <ele>151.067804</ele>
        <time>2020-08-08T12:24:58.509Z</time>
      </trkpt>
      <trkpt lat="63.79961" lon="10.23131">
        <ele>150.829584</ele>
        <time>2020-08-08T12:24:59.460Z</time>
      </trkpt>
      <trkpt lat="63.79971" lon="10.23132">
        <ele>150.62388</ele>
        <time>2020-08-08T12:25:00.454Z</time>
      </trkpt>
      <trkpt lat="63.79983" lon="10.23133">
        <ele>150.348804</ele>
        <time>2020-08-08T12:25:01.472Z</time>
      </trkpt>
      <trkpt lat="63.79995" lon="10.23133">
        <ele>150.095538</ele>
        <time>2020-08-08T12:25:02.477Z</time>
      </trkpt>
      <trkpt lat="63.80007" lon="10.23134">
        <ele>149.835656</ele>
        <time>2020-08-08T12:25:03.453Z</time>
      </trkpt>
      <trkpt lat="63.80018" lon="10.23134">
        <ele>149.588983</ele>
        <time>2020-08-08T12:25:04.456Z</time>
      </trkpt>
      <trkpt lat="63.8003" lon="10.23134">
        <ele>149.337939</ele>
        <time>2020-08-08T12:25:05.440Z</time>
      </trkpt>
      <trkpt lat="63.80041" lon="10.23135">
        <ele>149.075079</ele>
        <time>2020-08-08T12:25:06.461Z</time>
      </trkpt>
      <trkpt lat="63.80052" lon="10.23136">
        <ele>148.591533</ele>
        <time>2020-08-08T12:25:07.443Z</time>
      </trkpt>
      <trkpt lat="63.80064" lon="10.23137">
        <ele>148.11221</ele>
        <time>2020-08-08T12:25:08.461Z</time>
      </trkpt>
      <trkpt lat="63.80074" lon="10.23137">
        <ele>147.683042</ele>
        <time>2020-08-08T12:25:09.480Z</time>
      </trkpt>
      <trkpt lat="63.80086" lon="10.23137">
        <ele>147.19561</ele>
        <time>2020-08-08T12:25:10.472Z</time>
      </trkpt>
      <trkpt lat="63.80097" lon="10.23137">
        <ele>146.712175</ele>
        <time>2020-08-08T12:25:11.452Z</time>
      </trkpt>
      <trkpt lat="63.80108" lon="10.23138">
        <ele>146.265948</ele>
        <time>2020-08-08T12:25:12.449Z</time>
      </trkpt>
      <trkpt lat="63.80119" lon="10.23139">
        <ele>145.832615</ele>
        <time>2020-08-08T12:25:13.464Z</time>
      </trkpt>
      <trkpt lat="63.80135" lon="10.23136">
        <ele>145.156021</ele>
        <time>2020-08-08T12:25:15.511Z</time>
      </trkpt>
      <trkpt lat="63.80148" lon="10.2313">
        <ele>144.591759</ele>
        <time>2020-08-08T12:25:17.444Z</time>
      </trkpt>
      <trkpt lat="63.80156" lon="10.23114">
        <ele>144.140371</ele>
        <time>2020-08-08T12:25:19.472Z</time>
      </trkpt>
      <trkpt lat="63.80169" lon="10.23097">
        <ele>143.517507</ele>
        <time>2020-08-08T12:25:21.515Z</time>
      </trkpt>
      <trkpt lat="63.80179" lon="10.23079">
        <ele>142.981082</ele>
        <time>2020-08-08T12:25:23.466Z</time>
      </trkpt>
      <trkpt lat="63.80188" lon="10.23058">
        <ele>142.448327</ele>
        <time>2020-08-08T12:25:25.474Z</time>
      </trkpt>
      <trkpt lat="63.80198" lon="10.23036">
        <ele>141.883636</ele>
        <time>2020-08-08T12:25:27.482Z</time>
      </trkpt>
      <trkpt lat="63.80207" lon="10.23014">
        <ele>141.480544</ele>
        <time>2020-08-08T12:25:29.444Z</time>
      </trkpt>
      <trkpt lat="63.80215" lon="10.22991">
        <ele>141.211663</ele>
        <time>2020-08-08T12:25:31.461Z</time>
      </trkpt>
      <trkpt lat="63.80223" lon="10.22969">
        <ele>140.954638</ele>
        <time>2020-08-08T12:25:33.516Z</time>
      </trkpt>
      <trkpt lat="63.80231" lon="10.22948">
        <ele>140.709494</ele>
        <time>2020-08-08T12:25:35.461Z</time>
      </trkpt>
      <trkpt lat="63.80237" lon="10.22928">
        <ele>140.496054</ele>
        <time>2020-08-08T12:25:37.461Z</time>
      </trkpt>
      <trkpt lat="63.80243" lon="10.22907">
        <ele>140.268977</ele>
        <time>2020-08-08T12:25:39.462Z</time>
      </trkpt>
      <trkpt lat="63.8025" lon="10.22884">
        <ele>140.019603</ele>
        <time>2020-08-08T12:25:41.481Z</time>
      </trkpt>
      <trkpt lat="63.80257" lon="10.22861">
        <ele>139.774346</ele>
        <time>2020-08-08T12:25:43.454Z</time>
      </trkpt>
      <trkpt lat="63.80264" lon="10.22838">
        <ele>139.531243</ele>
        <time>2020-08-08T12:25:45.463Z</time>
      </trkpt>
      <trkpt lat="63.80271" lon="10.22815">
        <ele>139.276031</ele>
        <time>2020-08-08T12:25:47.500Z</time>
      </trkpt>
      <trkpt lat="63.80279" lon="10.22793">
        <ele>139.025996</ele>
        <time>2020-08-08T12:25:49.510Z</time>
      </trkpt>
      <trkpt lat="63.80286" lon="10.22771">
        <ele>138.782729</ele>
        <time>2020-08-08T12:25:51.463Z</time>
      </trkpt>
      <trkpt lat="63.80293" lon="10.2275">
        <ele>138.546779</ele>
        <time>2020-08-08T12:25:53.448Z</time>
      </trkpt>
      <trkpt lat="63.80301" lon="10.22733">
        <ele>138.334424</ele>
        <time>2020-08-08T12:25:55.516Z</time>
      </trkpt>
      <trkpt lat="63.80308" lon="10.2272">
        <ele>138.149393</ele>
        <time>2020-08-08T12:25:57.444Z</time>
      </trkpt>
      <trkpt lat="63.80319" lon="10.22704">
        <ele>138.01221</ele>
        <time>2020-08-08T12:26:00.459Z</time>
      </trkpt>
      <trkpt lat="63.8033" lon="10.22693">
        <ele>138.057726</ele>
        <time>2020-08-08T12:26:03.483Z</time>
      </trkpt>
      <trkpt lat="63.80342" lon="10.22684">
        <ele>138.104918</ele>
        <time>2020-08-08T12:26:06.490Z</time>
      </trkpt>
      <trkpt lat="63.80352" lon="10.22677">
        <ele>138.142953</ele>
        <time>2020-08-08T12:26:08.493Z</time>
      </trkpt>
      <trkpt lat="63.80361" lon="10.2267">
        <ele>138.179284</ele>
        <time>2020-08-08T12:26:10.448Z</time>
      </trkpt>
      <trkpt lat="63.80372" lon="10.22698">
        <ele>138.239427</ele>
        <time>2020-08-08T12:26:17.471Z</time>
      </trkpt>
      <trkpt lat="63.80376" lon="10.22728">
        <ele>138.291012</ele>
        <time>2020-08-08T12:26:19.488Z</time>
      </trkpt>
      <trkpt lat="63.80378" lon="10.22751">
        <ele>138.328633</ele>
        <time>2020-08-08T12:26:21.485Z</time>
      </trkpt>
      <trkpt lat="63.80381" lon="10.22776">
        <ele>138.370359</ele>
        <time>2020-08-08T12:26:23.461Z</time>
      </trkpt>
      <trkpt lat="63.80384" lon="10.228">
        <ele>138.411806</ele>
        <time>2020-08-08T12:26:25.494Z</time>
      </trkpt>
      <trkpt lat="63.80387" lon="10.22823">
        <ele>138.452022</ele>
        <time>2020-08-08T12:26:27.486Z</time>
      </trkpt>
      <trkpt lat="63.8039" lon="10.22848">
        <ele>138.494815</ele>
        <time>2020-08-08T12:26:29.478Z</time>
      </trkpt>
      <trkpt lat="63.80392" lon="10.22871">
        <ele>138.532158</ele>
        <time>2020-08-08T12:26:31.447Z</time>
      </trkpt>
      <trkpt lat="63.80395" lon="10.22894">
        <ele>138.571085</ele>
        <time>2020-08-08T12:26:33.445Z</time>
      </trkpt>
      <trkpt lat="63.80397" lon="10.22919">
        <ele>138.612899</ele>
        <time>2020-08-08T12:26:35.464Z</time>
      </trkpt>
      <trkpt lat="63.80399" lon="10.22944">
        <ele>138.653966</ele>
        <time>2020-08-08T12:26:37.514Z</time>
      </trkpt>
      <trkpt lat="63.80401" lon="10.22968">
        <ele>138.733568</ele>
        <time>2020-08-08T12:26:39.490Z</time>
      </trkpt>
      <trkpt lat="63.80402" lon="10.22993">
        <ele>138.818535</ele>
        <time>2020-08-08T12:26:41.475Z</time>
      </trkpt>
      <trkpt lat="63.80403" lon="10.23015">
        <ele>138.894049</ele>
        <time>2020-08-08T12:26:43.442Z</time>
      </trkpt>
      <trkpt lat="63.80404" lon="10.2304">
        <ele>138.979284</ele>
        <time>2020-08-08T12:26:45.471Z</time>
      </trkpt>
      <trkpt lat="63.80405" lon="10.23063">
        <ele>139.060413</ele>
        <time>2020-08-08T12:26:47.503Z</time>
      </trkpt>
      <trkpt lat="63.80407" lon="10.23084">
        <ele>139.135766</ele>
        <time>2020-08-08T12:26:49.509Z</time>
      </trkpt>
      <trkpt lat="63.8041" lon="10.23108">
        <ele>139.220875</ele>
        <time>2020-08-08T12:26:51.464Z</time>
      </trkpt>
      <trkpt lat="63.80413" lon="10.23132">
        <ele>139.306428</ele>
        <time>2020-08-08T12:26:53.484Z</time>
      </trkpt>
      <trkpt lat="63.80417" lon="10.23154">
        <ele>139.387258</ele>
        <time>2020-08-08T12:26:55.472Z</time>
      </trkpt>
      <trkpt lat="63.80421" lon="10.23175">
        <ele>139.466801</ele>
        <time>2020-08-08T12:26:57.446Z</time>
      </trkpt>
      <trkpt lat="63.80425" lon="10.23196">
        <ele>139.5454</ele>
        <time>2020-08-08T12:26:59.493Z</time>
      </trkpt>
      <trkpt lat="63.8043" lon="10.23213">
        <ele>139.616491</ele>
        <time>2020-08-08T12:27:01.471Z</time>
      </trkpt>
      <trkpt lat="63.80435" lon="10.23232">
        <ele>139.692132</ele>
        <time>2020-08-08T12:27:03.468Z</time>
      </trkpt>
      <trkpt lat="63.80441" lon="10.23251">
        <ele>139.770653</ele>
        <time>2020-08-08T12:27:05.467Z</time>
      </trkpt>
      <trkpt lat="63.80447" lon="10.23268">
        <ele>139.845178</ele>
        <time>2020-08-08T12:27:07.487Z</time>
      </trkpt>
      <trkpt lat="63.80454" lon="10.23284">
        <ele>139.923138</ele>
        <time>2020-08-08T12:27:09.452Z</time>
      </trkpt>
      <trkpt lat="63.80462" lon="10.23299">
        <ele>140.003007</ele>
        <time>2020-08-08T12:27:11.468Z</time>
      </trkpt>
      <trkpt lat="63.8047" lon="10.23315">
        <ele>140.112036</ele>
        <time>2020-08-08T12:27:13.486Z</time>
      </trkpt>
      <trkpt lat="63.80478" lon="10.2333">
        <ele>140.276258</ele>
        <time>2020-08-08T12:27:15.442Z</time>
      </trkpt>
      <trkpt lat="63.80487" lon="10.23345">
        <ele>140.439617</ele>
        <time>2020-08-08T12:27:17.459Z</time>
      </trkpt>
      <trkpt lat="63.80495" lon="10.2336">
        <ele>140.604915</ele>
        <time>2020-08-08T12:27:19.443Z</time>
      </trkpt>
      <trkpt lat="63.80503" lon="10.23376">
        <ele>140.764383</ele>
        <time>2020-08-08T12:27:21.451Z</time>
      </trkpt>
      <trkpt lat="63.80511" lon="10.23391">
        <ele>140.92328</ele>
        <time>2020-08-08T12:27:23.461Z</time>
      </trkpt>
      <trkpt lat="63.80518" lon="10.23406">
        <ele>141.07671</ele>
        <time>2020-08-08T12:27:25.484Z</time>
      </trkpt>
      <trkpt lat="63.80525" lon="10.23419">
        <ele>141.218911</ele>
        <time>2020-08-08T12:27:27.442Z</time>
      </trkpt>
      <trkpt lat="63.80532" lon="10.23433">
        <ele>141.360001</ele>
        <time>2020-08-08T12:27:29.500Z</time>
      </trkpt>
      <trkpt lat="63.80542" lon="10.23448">
        <ele>141.546713</ele>
        <time>2020-08-08T12:27:32.478Z</time>
      </trkpt>
      <trkpt lat="63.80553" lon="10.23463">
        <ele>141.737756</ele>
        <time>2020-08-08T12:27:35.481Z</time>
      </trkpt>
      <trkpt lat="63.80564" lon="10.23473">
        <ele>141.913862</ele>
        <time>2020-08-08T12:27:38.473Z</time>
      </trkpt>
      <trkpt lat="63.80575" lon="10.23479">
        <ele>142.093451</ele>
        <time>2020-08-08T12:27:41.457Z</time>
      </trkpt>
      <trkpt lat="63.80588" lon="10.23479">
        <ele>142.286413</ele>
        <time>2020-08-08T12:27:44.458Z</time>
      </trkpt>
      <trkpt lat="63.806" lon="10.23473">
        <ele>142.473908</ele>
        <time>2020-08-08T12:27:47.470Z</time>
      </trkpt>
      <trkpt lat="63.80608" lon="10.23467">
        <ele>142.612326</ele>
        <time>2020-08-08T12:27:49.478Z</time>
      </trkpt>
      <trkpt lat="63.80617" lon="10.23459">
        <ele>142.762558</ele>
        <time>2020-08-08T12:27:51.487Z</time>
      </trkpt>
      <trkpt lat="63.80628" lon="10.23447">
        <ele>143.404745</ele>
        <time>2020-08-08T12:27:53.463Z</time>
      </trkpt>
      <trkpt lat="63.80638" lon="10.23437">
        <ele>144.189304</ele>
        <time>2020-08-08T12:27:55.460Z</time>
      </trkpt>
      <trkpt lat="63.80648" lon="10.23426">
        <ele>144.964687</ele>
        <time>2020-08-08T12:27:57.439Z</time>
      </trkpt>
      <trkpt lat="63.8066" lon="10.23414">
        <ele>145.950605</ele>
        <time>2020-08-08T12:28:00.467Z</time>
      </trkpt>
      <trkpt lat="63.8067" lon="10.23408">
        <ele>146.642038</ele>
        <time>2020-08-08T12:28:02.482Z</time>
      </trkpt>
      <trkpt lat="63.80682" lon="10.23402">
        <ele>147.535853</ele>
        <time>2020-08-08T12:28:05.471Z</time>
      </trkpt>
      <trkpt lat="63.80693" lon="10.23398">
        <ele>148.339269</ele>
        <time>2020-08-08T12:28:09.498Z</time>
      </trkpt>
      <trkpt lat="63.80703" lon="10.23395">
        <ele>149.056234</ele>
        <time>2020-08-08T12:28:14.453Z</time>
      </trkpt>
      <trkpt lat="63.80712" lon="10.23396">
        <ele>149.752641</ele>
        <time>2020-08-08T12:28:19.476Z</time>
      </trkpt>
      <trkpt lat="63.80722" lon="10.234">
        <ele>150.431479</ele>
        <time>2020-08-08T12:28:24.450Z</time>
      </trkpt>
      <trkpt lat="63.80731" lon="10.23404">
        <ele>151.102092</ele>
        <time>2020-08-08T12:28:30.454Z</time>
      </trkpt>
      <trkpt lat="63.8074" lon="10.23409">
        <ele>151.749171</ele>
        <time>2020-08-08T12:28:35.510Z</time>
      </trkpt>
      <trkpt lat="63.80749" lon="10.23416">
        <ele>152.469839</ele>
        <time>2020-08-08T12:28:42.490Z</time>
      </trkpt>
      <trkpt lat="63.80759" lon="10.23423">
        <ele>153.189616</ele>
        <time>2020-08-08T12:28:47.447Z</time>
      </trkpt>
      <trkpt lat="63.80768" lon="10.2343">
        <ele>153.845985</ele>
        <time>2020-08-08T12:28:52.496Z</time>
      </trkpt>
      <trkpt lat="63.80777" lon="10.23436">
        <ele>154.533702</ele>
        <time>2020-08-08T12:28:58.455Z</time>
      </trkpt>
      <trkpt lat="63.8079" lon="10.23445">
        <ele>155.513601</ele>
        <time>2020-08-08T12:29:03.478Z</time>
      </trkpt>
      <trkpt lat="63.80799" lon="10.2345">
        <ele>156.097312</ele>
        <time>2020-08-08T12:29:12.493Z</time>
      </trkpt>
      <trkpt lat="63.80811" lon="10.23457">
        <ele>156.755808</ele>
        <time>2020-08-08T12:29:19.461Z</time>
      </trkpt>
      <trkpt lat="63.80822" lon="10.23464">
        <ele>157.380747</ele>
        <time>2020-08-08T12:29:26.487Z</time>
      </trkpt>
      <trkpt lat="63.80832" lon="10.23469">
        <ele>157.938868</ele>
        <time>2020-08-08T12:29:33.468Z</time>
      </trkpt>
      <trkpt lat="63.80842" lon="10.23474">
        <ele>158.496401</ele>
        <time>2020-08-08T12:29:38.470Z</time>
      </trkpt>
      <trkpt lat="63.80851" lon="10.2348">
        <ele>159.026814</ele>
        <time>2020-08-08T12:29:43.460Z</time>
      </trkpt>
      <trkpt lat="63.80862" lon="10.23483">
        <ele>159.613805</ele>
        <time>2020-08-08T12:29:48.493Z</time>
      </trkpt>
      <trkpt lat="63.80872" lon="10.23487">
        <ele>160.183123</ele>
        <time>2020-08-08T12:29:53.456Z</time>
      </trkpt>
      <trkpt lat="63.80883" lon="10.2349">
        <ele>160.784609</ele>
        <time>2020-08-08T12:29:58.462Z</time>
      </trkpt>
      <trkpt lat="63.80893" lon="10.23493">
        <ele>161.309245</ele>
        <time>2020-08-08T12:30:02.485Z</time>
      </trkpt>
      <trkpt lat="63.80902" lon="10.23496">
        <ele>161.838974</ele>
        <time>2020-08-08T12:30:06.474Z</time>
      </trkpt>
      <trkpt lat="63.80913" lon="10.23498">
        <ele>162.425496</ele>
        <time>2020-08-08T12:30:11.484Z</time>
      </trkpt>
      <trkpt lat="63.80924" lon="10.23501">
        <ele>163.025779</ele>
        <time>2020-08-08T12:30:16.438Z</time>
      </trkpt>
      <trkpt lat="63.80934" lon="10.23503">
        <ele>163.591425</ele>
        <time>2020-08-08T12:30:21.460Z</time>
      </trkpt>
      <trkpt lat="63.80944" lon="10.23505">
        <ele>164.146177</ele>
        <time>2020-08-08T12:30:26.471Z</time>
      </trkpt>
      <trkpt lat="63.80954" lon="10.23507">
        <ele>164.669283</ele>
        <time>2020-08-08T12:30:31.477Z</time>
      </trkpt>
      <trkpt lat="63.80963" lon="10.23509">
        <ele>165.174158</ele>
        <time>2020-08-08T12:30:35.497Z</time>
      </trkpt>
      <trkpt lat="63.80973" lon="10.23512">
        <ele>165.679806</ele>
        <time>2020-08-08T12:30:39.460Z</time>
      </trkpt>
      <trkpt lat="63.80982" lon="10.23514">
        <ele>166.09127</ele>
        <time>2020-08-08T12:30:43.457Z</time>
      </trkpt>
      <trkpt lat="63.80992" lon="10.23516">
        <ele>166.509641</ele>
        <time>2020-08-08T12:30:48.470Z</time>
      </trkpt>
      <trkpt lat="63.81002" lon="10.23519">
        <ele>166.922544</ele>
        <time>2020-08-08T12:30:53.441Z</time>
      </trkpt>
      <trkpt lat="63.81013" lon="10.2352">
        <ele>167.386979</ele>
        <time>2020-08-08T12:30:59.457Z</time>
      </trkpt>
      <trkpt lat="63.81023" lon="10.23525">
        <ele>167.836313</ele>
        <time>2020-08-08T12:31:04.472Z</time>
      </trkpt>
      <trkpt lat="63.81033" lon="10.23528">
        <ele>168.277402</ele>
        <time>2020-08-08T12:31:09.451Z</time>
      </trkpt>
      <trkpt lat="63.81043" lon="10.23529">
        <ele>168.682353</ele>
        <time>2020-08-08T12:31:14.511Z</time>
      </trkpt>
      <trkpt lat="63.81053" lon="10.23532">
        <ele>169.107906</ele>
        <time>2020-08-08T12:31:19.491Z</time>
      </trkpt>
      <trkpt lat="63.81062" lon="10.23536">
        <ele>169.515511</ele>
        <time>2020-08-08T12:31:24.453Z</time>
      </trkpt>
      <trkpt lat="63.81072" lon="10.23536">
        <ele>169.928546</ele>
        <time>2020-08-08T12:31:30.448Z</time>
      </trkpt>
      <trkpt lat="63.81081" lon="10.23541">
        <ele>170.326819</ele>
        <time>2020-08-08T12:31:35.509Z</time>
      </trkpt>
      <trkpt lat="63.81091" lon="10.23543">
        <ele>170.75428</ele>
        <time>2020-08-08T12:31:40.510Z</time>
      </trkpt>
      <trkpt lat="63.811" lon="10.23545">
        <ele>171.161097</ele>
        <time>2020-08-08T12:31:45.498Z</time>
      </trkpt>
      <trkpt lat="63.8111" lon="10.23549">
        <ele>171.560709</ele>
        <time>2020-08-08T12:31:50.500Z</time>
      </trkpt>
      <trkpt lat="63.8112" lon="10.23551">
        <ele>172.009228</ele>
        <time>2020-08-08T12:31:55.445Z</time>
      </trkpt>
      <trkpt lat="63.81129" lon="10.23554">
        <ele>172.405004</ele>
        <time>2020-08-08T12:32:00.494Z</time>
      </trkpt>
      <trkpt lat="63.81139" lon="10.23556">
        <ele>172.832811</ele>
        <time>2020-08-08T12:32:06.466Z</time>
      </trkpt>
      <trkpt lat="63.81149" lon="10.23559">
        <ele>173.210667</ele>
        <time>2020-08-08T12:32:11.470Z</time>
      </trkpt>
      <trkpt lat="63.81158" lon="10.23562">
        <ele>173.334961</ele>
        <time>2020-08-08T12:32:17.461Z</time>
      </trkpt>
      <trkpt lat="63.81167" lon="10.23565">
        <ele>173.464926</ele>
        <time>2020-08-08T12:32:23.476Z</time>
      </trkpt>
      <trkpt lat="63.81178" lon="10.23567">
        <ele>173.609331</ele>
        <time>2020-08-08T12:32:29.467Z</time>
      </trkpt>
      <trkpt lat="63.81187" lon="10.23572">
        <ele>173.746025</ele>
        <time>2020-08-08T12:32:34.499Z</time>
      </trkpt>
      <trkpt lat="63.81198" lon="10.23572">
        <ele>173.888501</ele>
        <time>2020-08-08T12:32:39.458Z</time>
      </trkpt>
      <trkpt lat="63.81208" lon="10.23569">
        <ele>174.032284</ele>
        <time>2020-08-08T12:32:44.462Z</time>
      </trkpt>
      <trkpt lat="63.81217" lon="10.23574">
        <ele>174.155873</ele>
        <time>2020-08-08T12:32:49.453Z</time>
      </trkpt>
      <trkpt lat="63.81226" lon="10.23576">
        <ele>174.286579</ele>
        <time>2020-08-08T12:32:55.457Z</time>
      </trkpt>
      <trkpt lat="63.81237" lon="10.23572">
        <ele>174.426839</ele>
        <time>2020-08-08T12:33:00.482Z</time>
      </trkpt>
      <trkpt lat="63.81246" lon="10.23573">
        <ele>174.551578</ele>
        <time>2020-08-08T12:33:04.461Z</time>
      </trkpt>
      <trkpt lat="63.81255" lon="10.23571">
        <ele>174.686324</ele>
        <time>2020-08-08T12:33:08.454Z</time>
      </trkpt>
      <trkpt lat="63.81265" lon="10.23569">
        <ele>174.811518</ele>
        <time>2020-08-08T12:33:11.473Z</time>
      </trkpt>
      <trkpt lat="63.81274" lon="10.23567">
        <ele>174.94758</ele>
        <time>2020-08-08T12:33:14.489Z</time>
      </trkpt>
      <trkpt lat="63.81286" lon="10.23564">
        <ele>175.100519</ele>
        <time>2020-08-08T12:33:17.474Z</time>
      </trkpt>
      <trkpt lat="63.81297" lon="10.23561">
        <ele>175.264688</ele>
        <time>2020-08-08T12:33:20.481Z</time>
      </trkpt>
      <trkpt lat="63.8131" lon="10.23558">
        <ele>175.443897</ele>
        <time>2020-08-08T12:33:23.492Z</time>
      </trkpt>
      <trkpt lat="63.8132" lon="10.23555">
        <ele>175.569627</ele>
        <time>2020-08-08T12:33:25.446Z</time>
      </trkpt>
      <trkpt lat="63.81329" lon="10.23552">
        <ele>175.518329</ele>
        <time>2020-08-08T12:33:27.468Z</time>
      </trkpt>
      <trkpt lat="63.81339" lon="10.2355">
        <ele>175.037773</ele>
        <time>2020-08-08T12:33:29.474Z</time>
      </trkpt>
      <trkpt lat="63.81349" lon="10.23547">
        <ele>174.527431</ele>
        <time>2020-08-08T12:33:31.461Z</time>
      </trkpt>
      <trkpt lat="63.8136" lon="10.23545">
        <ele>174.021442</ele>
        <time>2020-08-08T12:33:33.462Z</time>
      </trkpt>
      <trkpt lat="63.8137" lon="10.23541">
        <ele>173.509229</ele>
        <time>2020-08-08T12:33:35.452Z</time>
      </trkpt>
      <trkpt lat="63.8138" lon="10.23538">
        <ele>172.998138</ele>
        <time>2020-08-08T12:33:37.445Z</time>
      </trkpt>
      <trkpt lat="63.81391" lon="10.23536">
        <ele>172.482206</ele>
        <time>2020-08-08T12:33:39.490Z</time>
      </trkpt>
      <trkpt lat="63.81401" lon="10.23532">
        <ele>171.970287</ele>
        <time>2020-08-08T12:33:41.465Z</time>
      </trkpt>
      <trkpt lat="63.81413" lon="10.2353">
        <ele>171.421358</ele>
        <time>2020-08-08T12:33:43.455Z</time>
      </trkpt>
      <trkpt lat="63.81423" lon="10.23527">
        <ele>170.88699</ele>
        <time>2020-08-08T12:33:45.486Z</time>
      </trkpt>
      <trkpt lat="63.81434" lon="10.23524">
        <ele>170.356007</ele>
        <time>2020-08-08T12:33:47.446Z</time>
      </trkpt>
      <trkpt lat="63.81445" lon="10.23522">
        <ele>169.831343</ele>
        <time>2020-08-08T12:33:49.458Z</time>
      </trkpt>
      <trkpt lat="63.81456" lon="10.23519">
        <ele>169.29041</ele>
        <time>2020-08-08T12:33:51.477Z</time>
      </trkpt>
      <trkpt lat="63.81467" lon="10.23516">
        <ele>168.759693</ele>
        <time>2020-08-08T12:33:53.489Z</time>
      </trkpt>
      <trkpt lat="63.81478" lon="10.23513">
        <ele>168.229482</ele>
        <time>2020-08-08T12:33:55.481Z</time>
      </trkpt>
      <trkpt lat="63.81488" lon="10.2351">
        <ele>167.699966</ele>
        <time>2020-08-08T12:33:57.479Z</time>
      </trkpt>
      <trkpt lat="63.81499" lon="10.23508">
        <ele>167.179927</ele>
        <time>2020-08-08T12:33:59.514Z</time>
      </trkpt>
      <trkpt lat="63.8151" lon="10.23504">
        <ele>167.087727</ele>
        <time>2020-08-08T12:34:01.486Z</time>
      </trkpt>
      <trkpt lat="63.81521" lon="10.23502">
        <ele>167.500703</ele>
        <time>2020-08-08T12:34:03.449Z</time>
      </trkpt>
      <trkpt lat="63.81533" lon="10.23499">
        <ele>167.932608</ele>
        <time>2020-08-08T12:34:05.459Z</time>
      </trkpt>
      <trkpt lat="63.81545" lon="10.23496">
        <ele>168.353048</ele>
        <time>2020-08-08T12:34:07.468Z</time>
      </trkpt>
      <trkpt lat="63.81557" lon="10.23493">
        <ele>168.799033</ele>
        <time>2020-08-08T12:34:09.453Z</time>
      </trkpt>
      <trkpt lat="63.81569" lon="10.2349">
        <ele>169.242835</ele>
        <time>2020-08-08T12:34:11.464Z</time>
      </trkpt>
      <trkpt lat="63.8158" lon="10.23488">
        <ele>169.662797</ele>
        <time>2020-08-08T12:34:13.516Z</time>
      </trkpt>
      <trkpt lat="63.81591" lon="10.23484">
        <ele>170.069808</ele>
        <time>2020-08-08T12:34:15.470Z</time>
      </trkpt>
      <trkpt lat="63.81602" lon="10.23483">
        <ele>170.462857</ele>
        <time>2020-08-08T12:34:17.495Z</time>
      </trkpt>
      <trkpt lat="63.81612" lon="10.2348">
        <ele>170.851261</ele>
        <time>2020-08-08T12:34:19.478Z</time>
      </trkpt>
      <trkpt lat="63.81623" lon="10.23477">
        <ele>171.239068</ele>
        <time>2020-08-08T12:34:21.466Z</time>
      </trkpt>
      <trkpt lat="63.81633" lon="10.23474">
        <ele>171.609077</ele>
        <time>2020-08-08T12:34:23.444Z</time>
      </trkpt>
      <trkpt lat="63.81643" lon="10.2347">
        <ele>171.998855</ele>
        <time>2020-08-08T12:34:25.452Z</time>
      </trkpt>
      <trkpt lat="63.81653" lon="10.23467">
        <ele>172.373638</ele>
        <time>2020-08-08T12:34:27.463Z</time>
      </trkpt>
      <trkpt lat="63.81663" lon="10.23462">
        <ele>172.732904</ele>
        <time>2020-08-08T12:34:29.484Z</time>
      </trkpt>
      <trkpt lat="63.81672" lon="10.23458">
        <ele>173.078836</ele>
        <time>2020-08-08T12:34:31.472Z</time>
      </trkpt>
      <trkpt lat="63.81685" lon="10.2345">
        <ele>173.483993</ele>
        <time>2020-08-08T12:34:34.459Z</time>
      </trkpt>
      <trkpt lat="63.81697" lon="10.23442">
        <ele>173.465957</ele>
        <time>2020-08-08T12:34:37.502Z</time>
      </trkpt>
      <trkpt lat="63.81706" lon="10.23436">
        <ele>173.452947</ele>
        <time>2020-08-08T12:34:39.461Z</time>
      </trkpt>
      <trkpt lat="63.81714" lon="10.2343">
        <ele>173.44002</ele>
        <time>2020-08-08T12:34:41.466Z</time>
      </trkpt>
      <trkpt lat="63.81723" lon="10.23424">
        <ele>173.426531</ele>
        <time>2020-08-08T12:34:43.477Z</time>
      </trkpt>
      <trkpt lat="63.81732" lon="10.23419">
        <ele>173.413588</ele>
        <time>2020-08-08T12:34:45.480Z</time>
      </trkpt>
      <trkpt lat="63.81741" lon="10.23413">
        <ele>173.400488</ele>
        <time>2020-08-08T12:34:47.447Z</time>
      </trkpt>
      <trkpt lat="63.8175" lon="10.23407">
        <ele>173.387641</ele>
        <time>2020-08-08T12:34:49.442Z</time>
      </trkpt>
      <trkpt lat="63.81762" lon="10.23397">
        <ele>173.368514</ele>
        <time>2020-08-08T12:34:52.473Z</time>
      </trkpt>
      <trkpt lat="63.81771" lon="10.23391">
        <ele>173.35497</ele>
        <time>2020-08-08T12:34:54.455Z</time>
      </trkpt>
      <trkpt lat="63.8178" lon="10.23384">
        <ele>173.341794</ele>
        <time>2020-08-08T12:34:56.446Z</time>
      </trkpt>
      <trkpt lat="63.8179" lon="10.23377">
        <ele>173.327729</ele>
        <time>2020-08-08T12:34:58.470Z</time>
      </trkpt>
      <trkpt lat="63.81799" lon="10.2337">
        <ele>173.313684</ele>
        <time>2020-08-08T12:35:00.450Z</time>
      </trkpt>
      <trkpt lat="63.81809" lon="10.23363">
        <ele>173.299229</ele>
        <time>2020-08-08T12:35:02.494Z</time>
      </trkpt>
      <trkpt lat="63.81819" lon="10.23355">
        <ele>173.284102</ele>
        <time>2020-08-08T12:35:04.479Z</time>
      </trkpt>
      <trkpt lat="63.81829" lon="10.23348">
        <ele>173.269052</ele>
        <time>2020-08-08T12:35:06.462Z</time>
      </trkpt>
      <trkpt lat="63.81839" lon="10.2334">
        <ele>173.253519</ele>
        <time>2020-08-08T12:35:08.439Z</time>
      </trkpt>
      <trkpt lat="63.8185" lon="10.23333">
        <ele>173.23785</ele>
        <time>2020-08-08T12:35:10.433Z</time>
      </trkpt>
      <trkpt lat="63.8186" lon="10.23325">
        <ele>173.125619</ele>
        <time>2020-08-08T12:35:12.450Z</time>
      </trkpt>
      <trkpt lat="63.81869" lon="10.23317">
        <ele>172.944055</ele>
        <time>2020-08-08T12:35:14.458Z</time>
      </trkpt>
      <trkpt lat="63.81879" lon="10.23307">
        <ele>172.762385</ele>
        <time>2020-08-08T12:35:16.441Z</time>
      </trkpt>
      <trkpt lat="63.81888" lon="10.23297">
        <ele>172.569259</ele>
        <time>2020-08-08T12:35:18.454Z</time>
      </trkpt>
      <trkpt lat="63.81898" lon="10.23286">
        <ele>172.37762</ele>
        <time>2020-08-08T12:35:20.450Z</time>
      </trkpt>
      <trkpt lat="63.81907" lon="10.23273">
        <ele>172.190706</ele>
        <time>2020-08-08T12:35:22.473Z</time>
      </trkpt>
      <trkpt lat="63.81916" lon="10.23258">
        <ele>171.988702</ele>
        <time>2020-08-08T12:35:24.472Z</time>
      </trkpt>
      <trkpt lat="63.81924" lon="10.23244">
        <ele>171.793822</ele>
        <time>2020-08-08T12:35:26.467Z</time>
      </trkpt>
      <trkpt lat="63.81933" lon="10.23228">
        <ele>171.597972</ele>
        <time>2020-08-08T12:35:28.451Z</time>
      </trkpt>
      <trkpt lat="63.81941" lon="10.23213">
        <ele>171.408553</ele>
        <time>2020-08-08T12:35:30.476Z</time>
      </trkpt>
      <trkpt lat="63.81948" lon="10.23196">
        <ele>171.225129</ele>
        <time>2020-08-08T12:35:32.481Z</time>
      </trkpt>
      <trkpt lat="63.81955" lon="10.23178">
        <ele>171.035704</ele>
        <time>2020-08-08T12:35:34.482Z</time>
      </trkpt>
      <trkpt lat="63.81962" lon="10.23162">
        <ele>170.853671</ele>
        <time>2020-08-08T12:35:36.462Z</time>
      </trkpt>
      <trkpt lat="63.8197" lon="10.23146">
        <ele>170.665004</ele>
        <time>2020-08-08T12:35:38.458Z</time>
      </trkpt>
      <trkpt lat="63.81976" lon="10.23131">
        <ele>170.494779</ele>
        <time>2020-08-08T12:35:40.475Z</time>
      </trkpt>
      <trkpt lat="63.81984" lon="10.23116">
        <ele>170.316105</ele>
        <time>2020-08-08T12:35:42.473Z</time>
      </trkpt>
      <trkpt lat="63.81991" lon="10.23101">
        <ele>170.139201</ele>
        <time>2020-08-08T12:35:44.444Z</time>
      </trkpt>
      <trkpt lat="63.82" lon="10.23087">
        <ele>170.031452</ele>
        <time>2020-08-08T12:35:46.537Z</time>
      </trkpt>
      <trkpt lat="63.82008" lon="10.23075">
        <ele>170.184281</ele>
        <time>2020-08-08T12:35:48.493Z</time>
      </trkpt>
      <trkpt lat="63.82016" lon="10.23063">
        <ele>170.344752</ele>
        <time>2020-08-08T12:35:50.501Z</time>
      </trkpt>
      <trkpt lat="63.82024" lon="10.23052">
        <ele>170.498456</ele>
        <time>2020-08-08T12:35:52.487Z</time>
      </trkpt>
      <trkpt lat="63.82032" lon="10.23043">
        <ele>170.642845</ele>
        <time>2020-08-08T12:35:54.494Z</time>
      </trkpt>
      <trkpt lat="63.82045" lon="10.2303">
        <ele>170.859241</ele>
        <time>2020-08-08T12:35:57.492Z</time>
      </trkpt>
      <trkpt lat="63.82053" lon="10.23023">
        <ele>171.005067</ele>
        <time>2020-08-08T12:35:59.483Z</time>
      </trkpt>
      <trkpt lat="63.82062" lon="10.23017">
        <ele>171.154132</ele>
        <time>2020-08-08T12:36:01.474Z</time>
      </trkpt>
      <trkpt lat="63.82071" lon="10.23012">
        <ele>171.298356</ele>
        <time>2020-08-08T12:36:03.439Z</time>
      </trkpt>
      <trkpt lat="63.8208" lon="10.23009">
        <ele>171.445176</ele>
        <time>2020-08-08T12:36:05.477Z</time>
      </trkpt>
      <trkpt lat="63.82089" lon="10.23007">
        <ele>171.590054</ele>
        <time>2020-08-08T12:36:07.439Z</time>
      </trkpt>
      <trkpt lat="63.82099" lon="10.23005">
        <ele>171.742464</ele>
        <time>2020-08-08T12:36:09.473Z</time>
      </trkpt>
      <trkpt lat="63.82108" lon="10.23004">
        <ele>171.89458</ele>
        <time>2020-08-08T12:36:11.494Z</time>
      </trkpt>
      <trkpt lat="63.82117" lon="10.23004">
        <ele>172.041665</ele>
        <time>2020-08-08T12:36:13.498Z</time>
      </trkpt>
      <trkpt lat="63.82127" lon="10.23004">
        <ele>172.195184</ele>
        <time>2020-08-08T12:36:15.482Z</time>
      </trkpt>
      <trkpt lat="63.82137" lon="10.23006">
        <ele>172.36029</ele>
        <time>2020-08-08T12:36:17.502Z</time>
      </trkpt>
      <trkpt lat="63.82148" lon="10.23008">
        <ele>172.53018</ele>
        <time>2020-08-08T12:36:19.486Z</time>
      </trkpt>
      <trkpt lat="63.82158" lon="10.23009">
        <ele>172.699857</ele>
        <time>2020-08-08T12:36:21.509Z</time>
      </trkpt>
      <trkpt lat="63.82168" lon="10.23011">
        <ele>172.858698</ele>
        <time>2020-08-08T12:36:23.514Z</time>
      </trkpt>
      <trkpt lat="63.82179" lon="10.23013">
        <ele>172.611773</ele>
        <time>2020-08-08T12:36:25.447Z</time>
      </trkpt>
      <trkpt lat="63.82188" lon="10.23015">
        <ele>172.350227</ele>
        <time>2020-08-08T12:36:27.490Z</time>
      </trkpt>
      <trkpt lat="63.82199" lon="10.23017">
        <ele>172.067397</ele>
        <time>2020-08-08T12:36:29.507Z</time>
      </trkpt>
      <trkpt lat="63.8221" lon="10.2302">
        <ele>171.773656</ele>
        <time>2020-08-08T12:36:31.466Z</time>
      </trkpt>
      <trkpt lat="63.8222" lon="10.23021">
        <ele>171.496729</ele>
        <time>2020-08-08T12:36:33.448Z</time>
      </trkpt>
      <trkpt lat="63.8223" lon="10.23023">
        <ele>171.229309</ele>
        <time>2020-08-08T12:36:35.470Z</time>
      </trkpt>
      <trkpt lat="63.82241" lon="10.23025">
        <ele>170.952064</ele>
        <time>2020-08-08T12:36:37.450Z</time>
      </trkpt>
      <trkpt lat="63.82252" lon="10.23027">
        <ele>170.666777</ele>
        <time>2020-08-08T12:36:39.459Z</time>
      </trkpt>
      <trkpt lat="63.82262" lon="10.23029">
        <ele>170.38985</ele>
        <time>2020-08-08T12:36:41.442Z</time>
      </trkpt>
      <trkpt lat="63.82272" lon="10.2303">
        <ele>170.115503</ele>
        <time>2020-08-08T12:36:43.465Z</time>
      </trkpt>
      <trkpt lat="63.82282" lon="10.23031">
        <ele>169.857498</ele>
        <time>2020-08-08T12:36:45.489Z</time>
      </trkpt>
      <trkpt lat="63.82291" lon="10.23033">
        <ele>169.606749</ele>
        <time>2020-08-08T12:36:47.491Z</time>
      </trkpt>
      <trkpt lat="63.82301" lon="10.23035">
        <ele>169.342657</ele>
        <time>2020-08-08T12:36:49.472Z</time>
      </trkpt>
      <trkpt lat="63.82312" lon="10.23036">
        <ele>169.060549</ele>
        <time>2020-08-08T12:36:51.486Z</time>
      </trkpt>
      <trkpt lat="63.82322" lon="10.23037">
        <ele>168.786343</ele>
        <time>2020-08-08T12:36:53.488Z</time>
      </trkpt>
      <trkpt lat="63.82332" lon="10.23039">
        <ele>168.53304</ele>
        <time>2020-08-08T12:36:55.456Z</time>
      </trkpt>
      <trkpt lat="63.82342" lon="10.2304">
        <ele>168.266973</ele>
        <time>2020-08-08T12:36:57.450Z</time>
      </trkpt>
      <trkpt lat="63.82352" lon="10.23041">
        <ele>168.094334</ele>
        <time>2020-08-08T12:36:59.491Z</time>
      </trkpt>
      <trkpt lat="63.82363" lon="10.23042">
        <ele>168.1125</ele>
        <time>2020-08-08T12:37:01.462Z</time>
      </trkpt>
      <trkpt lat="63.82373" lon="10.23043">
        <ele>168.130853</ele>
        <time>2020-08-08T12:37:03.505Z</time>
      </trkpt>
      <trkpt lat="63.82385" lon="10.23045">
        <ele>168.150048</ele>
        <time>2020-08-08T12:37:05.490Z</time>
      </trkpt>
      <trkpt lat="63.82395" lon="10.23046">
        <ele>168.168231</ele>
        <time>2020-08-08T12:37:07.453Z</time>
      </trkpt>
      <trkpt lat="63.82406" lon="10.23048">
        <ele>168.186744</ele>
        <time>2020-08-08T12:37:09.461Z</time>
      </trkpt>
      <trkpt lat="63.82417" lon="10.23049">
        <ele>168.205092</ele>
        <time>2020-08-08T12:37:11.491Z</time>
      </trkpt>
      <trkpt lat="63.82428" lon="10.2305">
        <ele>168.223074</ele>
        <time>2020-08-08T12:37:13.454Z</time>
      </trkpt>
      <trkpt lat="63.82438" lon="10.23051">
        <ele>168.240887</ele>
        <time>2020-08-08T12:37:15.484Z</time>
      </trkpt>
      <trkpt lat="63.82449" lon="10.23051">
        <ele>168.258522</ele>
        <time>2020-08-08T12:37:17.482Z</time>
      </trkpt>
      <trkpt lat="63.82459" lon="10.23049">
        <ele>168.276523</ele>
        <time>2020-08-08T12:37:19.499Z</time>
      </trkpt>
      <trkpt lat="63.8247" lon="10.23048">
        <ele>168.294702</ele>
        <time>2020-08-08T12:37:21.456Z</time>
      </trkpt>
      <trkpt lat="63.8248" lon="10.23045">
        <ele>168.311956</ele>
        <time>2020-08-08T12:37:23.464Z</time>
      </trkpt>
      <trkpt lat="63.82491" lon="10.23041">
        <ele>168.33031</ele>
        <time>2020-08-08T12:37:25.473Z</time>
      </trkpt>
      <trkpt lat="63.82501" lon="10.23037">
        <ele>168.348223</ele>
        <time>2020-08-08T12:37:27.466Z</time>
      </trkpt>
      <trkpt lat="63.82512" lon="10.23032">
        <ele>168.366795</ele>
        <time>2020-08-08T12:37:29.537Z</time>
      </trkpt>
      <trkpt lat="63.82522" lon="10.23028">
        <ele>168.384722</ele>
        <time>2020-08-08T12:37:31.481Z</time>
      </trkpt>
      <trkpt lat="63.82533" lon="10.23022">
        <ele>168.537778</ele>
        <time>2020-08-08T12:37:33.457Z</time>
      </trkpt>
      <trkpt lat="63.82543" lon="10.23016">
        <ele>168.810656</ele>
        <time>2020-08-08T12:37:35.471Z</time>
      </trkpt>
      <trkpt lat="63.82553" lon="10.23012">
        <ele>169.066378</ele>
        <time>2020-08-08T12:37:37.488Z</time>
      </trkpt>
      <trkpt lat="63.82563" lon="10.23007">
        <ele>169.320313</ele>
        <time>2020-08-08T12:37:39.470Z</time>
      </trkpt>
      <trkpt lat="63.82572" lon="10.23002">
        <ele>169.572005</ele>
        <time>2020-08-08T12:37:41.454Z</time>
      </trkpt>
      <trkpt lat="63.82582" lon="10.22997">
        <ele>169.823201</ele>
        <time>2020-08-08T12:37:43.489Z</time>
      </trkpt>
      <trkpt lat="63.82591" lon="10.22993">
        <ele>170.057993</ele>
        <time>2020-08-08T12:37:45.437Z</time>
      </trkpt>
      <trkpt lat="63.826" lon="10.22989">
        <ele>170.295287</ele>
        <time>2020-08-08T12:37:47.476Z</time>
      </trkpt>
      <trkpt lat="63.82609" lon="10.22984">
        <ele>170.530133</ele>
        <time>2020-08-08T12:37:49.458Z</time>
      </trkpt>
      <trkpt lat="63.82622" lon="10.22978">
        <ele>170.876422</ele>
        <time>2020-08-08T12:37:52.462Z</time>
      </trkpt>
      <trkpt lat="63.82634" lon="10.22971">
        <ele>171.193907</ele>
        <time>2020-08-08T12:37:55.474Z</time>
      </trkpt>
      <trkpt lat="63.82646" lon="10.22965">
        <ele>171.503414</ele>
        <time>2020-08-08T12:37:58.470Z</time>
      </trkpt>
      <trkpt lat="63.82657" lon="10.22957">
        <ele>171.810787</ele>
        <time>2020-08-08T12:38:01.466Z</time>
      </trkpt>
      <trkpt lat="63.82669" lon="10.22947">
        <ele>172.129499</ele>
        <time>2020-08-08T12:38:04.479Z</time>
      </trkpt>
      <trkpt lat="63.82681" lon="10.22937">
        <ele>172.461368</ele>
        <time>2020-08-08T12:38:07.468Z</time>
      </trkpt>
      <trkpt lat="63.8269" lon="10.22928">
        <ele>172.712715</ele>
        <time>2020-08-08T12:38:09.504Z</time>
      </trkpt>
      <trkpt lat="63.827" lon="10.22918">
        <ele>172.983746</ele>
        <time>2020-08-08T12:38:11.468Z</time>
      </trkpt>
      <trkpt lat="63.8271" lon="10.22909">
        <ele>172.773464</ele>
        <time>2020-08-08T12:38:13.455Z</time>
      </trkpt>
      <trkpt lat="63.8272" lon="10.229">
        <ele>172.54849</ele>
        <time>2020-08-08T12:38:15.458Z</time>
      </trkpt>
      <trkpt lat="63.8273" lon="10.2289">
        <ele>172.326738</ele>
        <time>2020-08-08T12:38:17.463Z</time>
      </trkpt>
      <trkpt lat="63.8274" lon="10.22881">
        <ele>172.109414</ele>
        <time>2020-08-08T12:38:19.483Z</time>
      </trkpt>
      <trkpt lat="63.82749" lon="10.22872">
        <ele>171.90647</ele>
        <time>2020-08-08T12:38:21.470Z</time>
      </trkpt>
      <trkpt lat="63.82758" lon="10.22864">
        <ele>171.698298</ele>
        <time>2020-08-08T12:38:23.453Z</time>
      </trkpt>
      <trkpt lat="63.82767" lon="10.22856">
        <ele>171.488837</ele>
        <time>2020-08-08T12:38:25.476Z</time>
      </trkpt>
      <trkpt lat="63.82777" lon="10.22849">
        <ele>171.281512</ele>
        <time>2020-08-08T12:38:27.446Z</time>
      </trkpt>
      <trkpt lat="63.82786" lon="10.22842">
        <ele>171.090775</ele>
        <time>2020-08-08T12:38:29.494Z</time>
      </trkpt>
      <trkpt lat="63.82795" lon="10.22837">
        <ele>170.89612</ele>
        <time>2020-08-08T12:38:31.461Z</time>
      </trkpt>
      <trkpt lat="63.82804" lon="10.22832">
        <ele>170.701927</ele>
        <time>2020-08-08T12:38:33.528Z</time>
      </trkpt>
      <trkpt lat="63.82813" lon="10.22827">
        <ele>170.501699</ele>
        <time>2020-08-08T12:38:35.443Z</time>
      </trkpt>
      <trkpt lat="63.82823" lon="10.22823">
        <ele>170.299956</ele>
        <time>2020-08-08T12:38:37.442Z</time>
      </trkpt>
      <trkpt lat="63.82832" lon="10.2282">
        <ele>170.105669</ele>
        <time>2020-08-08T12:38:39.506Z</time>
      </trkpt>
      <trkpt lat="63.82846" lon="10.22816">
        <ele>169.83004</ele>
        <time>2020-08-08T12:38:42.458Z</time>
      </trkpt>
      <trkpt lat="63.82858" lon="10.22813">
        <ele>169.561821</ele>
        <time>2020-08-08T12:38:45.456Z</time>
      </trkpt>
      <trkpt lat="63.82871" lon="10.22811">
        <ele>169.302941</ele>
        <time>2020-08-08T12:38:48.457Z</time>
      </trkpt>
      <trkpt lat="63.82884" lon="10.2281">
        <ele>169.098234</ele>
        <time>2020-08-08T12:38:51.474Z</time>
      </trkpt>
      <trkpt lat="63.82894" lon="10.2281">
        <ele>168.956487</ele>
        <time>2020-08-08T12:38:53.455Z</time>
      </trkpt>
      <trkpt lat="63.82905" lon="10.22811">
        <ele>168.807497</ele>
        <time>2020-08-08T12:38:55.523Z</time>
      </trkpt>
      <trkpt lat="63.82915" lon="10.22812">
        <ele>168.658252</ele>
        <time>2020-08-08T12:38:57.467Z</time>
      </trkpt>
      <trkpt lat="63.82925" lon="10.22815">
        <ele>168.509485</ele>
        <time>2020-08-08T12:38:59.474Z</time>
      </trkpt>
      <trkpt lat="63.82936" lon="10.22819">
        <ele>168.354458</ele>
        <time>2020-08-08T12:39:01.472Z</time>
      </trkpt>
      <trkpt lat="63.82947" lon="10.22823">
        <ele>168.193322</ele>
        <time>2020-08-08T12:39:03.486Z</time>
      </trkpt>
      <trkpt lat="63.82958" lon="10.22828">
        <ele>168.02951</ele>
        <time>2020-08-08T12:39:05.459Z</time>
      </trkpt>
      <trkpt lat="63.82969" lon="10.22834">
        <ele>167.8612</ele>
        <time>2020-08-08T12:39:07.507Z</time>
      </trkpt>
      <trkpt lat="63.8298" lon="10.2284">
        <ele>167.70037</ele>
        <time>2020-08-08T12:39:09.482Z</time>
      </trkpt>
      <trkpt lat="63.82991" lon="10.22847">
        <ele>167.539643</ele>
        <time>2020-08-08T12:39:11.447Z</time>
      </trkpt>
      <trkpt lat="63.83001" lon="10.22854">
        <ele>167.38483</ele>
        <time>2020-08-08T12:39:13.462Z</time>
      </trkpt>
      <trkpt lat="63.83011" lon="10.2286">
        <ele>167.234713</ele>
        <time>2020-08-08T12:39:15.457Z</time>
      </trkpt>
      <trkpt lat="63.8302" lon="10.22866">
        <ele>167.093117</ele>
        <time>2020-08-08T12:39:17.462Z</time>
      </trkpt>
      <trkpt lat="63.83031" lon="10.22872">
        <ele>166.937251</ele>
        <time>2020-08-08T12:39:19.466Z</time>
      </trkpt>
      <trkpt lat="63.83041" lon="10.22878">
        <ele>166.78967</ele>
        <time>2020-08-08T12:39:21.443Z</time>
      </trkpt>
      <trkpt lat="63.8305" lon="10.22884">
        <ele>166.726001</ele>
        <time>2020-08-08T12:39:23.468Z</time>
      </trkpt>
      <trkpt lat="63.83059" lon="10.2289">
        <ele>167.045264</ele>
        <time>2020-08-08T12:39:25.493Z</time>
      </trkpt>
      <trkpt lat="63.83072" lon="10.22899">
        <ele>167.518797</ele>
        <time>2020-08-08T12:39:28.475Z</time>
      </trkpt>
      <trkpt lat="63.83082" lon="10.22905">
        <ele>167.851394</ele>
        <time>2020-08-08T12:39:30.455Z</time>
      </trkpt>
      <trkpt lat="63.83092" lon="10.22911">
        <ele>168.202217</ele>
        <time>2020-08-08T12:39:32.458Z</time>
      </trkpt>
      <trkpt lat="63.83101" lon="10.22916">
        <ele>168.51084</ele>
        <time>2020-08-08T12:39:34.449Z</time>
      </trkpt>
      <trkpt lat="63.8311" lon="10.22923">
        <ele>168.858463</ele>
        <time>2020-08-08T12:39:36.461Z</time>
      </trkpt>
      <trkpt lat="63.8312" lon="10.22929">
        <ele>169.185807</ele>
        <time>2020-08-08T12:39:38.514Z</time>
      </trkpt>
      <trkpt lat="63.83129" lon="10.22934">
        <ele>169.509857</ele>
        <time>2020-08-08T12:39:40.465Z</time>
      </trkpt>
      <trkpt lat="63.83137" lon="10.2294">
        <ele>169.818291</ele>
        <time>2020-08-08T12:39:42.453Z</time>
      </trkpt>
      <trkpt lat="63.8315" lon="10.22948">
        <ele>170.276682</ele>
        <time>2020-08-08T12:39:45.448Z</time>
      </trkpt>
      <trkpt lat="63.83159" lon="10.22953">
        <ele>170.581998</ele>
        <time>2020-08-08T12:39:47.467Z</time>
      </trkpt>
      <trkpt lat="63.83168" lon="10.22958">
        <ele>170.891351</ele>
        <time>2020-08-08T12:39:49.485Z</time>
      </trkpt>
      <trkpt lat="63.8318" lon="10.22965">
        <ele>171.326938</ele>
        <time>2020-08-08T12:39:52.470Z</time>
      </trkpt>
      <trkpt lat="63.83192" lon="10.22973">
        <ele>171.733378</ele>
        <time>2020-08-08T12:39:55.497Z</time>
      </trkpt>
      <trkpt lat="63.83202" lon="10.22979">
        <ele>172.097923</ele>
        <time>2020-08-08T12:39:58.479Z</time>
      </trkpt>
      <trkpt lat="63.83211" lon="10.22985">
        <ele>172.417427</ele>
        <time>2020-08-08T12:40:01.455Z</time>
      </trkpt>
      <trkpt lat="63.8322" lon="10.22991">
        <ele>172.749221</ele>
        <time>2020-08-08T12:40:04.481Z</time>
      </trkpt>
      <trkpt lat="63.8323" lon="10.22997">
        <ele>173.347101</ele>
        <time>2020-08-08T12:40:07.490Z</time>
      </trkpt>
      <trkpt lat="63.8324" lon="10.23003">
        <ele>173.955979</ele>
        <time>2020-08-08T12:40:10.454Z</time>
      </trkpt>
      <trkpt lat="63.83251" lon="10.23011">
        <ele>174.651605</ele>
        <time>2020-08-08T12:40:14.484Z</time>
      </trkpt>
      <trkpt lat="63.83262" lon="10.23019">
        <ele>175.370597</ele>
        <time>2020-08-08T12:40:18.466Z</time>
      </trkpt>
      <trkpt lat="63.83271" lon="10.23026">
        <ele>175.934085</ele>
        <time>2020-08-08T12:40:21.452Z</time>
      </trkpt>
      <trkpt lat="63.83281" lon="10.23034">
        <ele>176.63385</ele>
        <time>2020-08-08T12:40:25.478Z</time>
      </trkpt>
      <trkpt lat="63.8329" lon="10.23041">
        <ele>177.209348</ele>
        <time>2020-08-08T12:40:29.459Z</time>
      </trkpt>
      <trkpt lat="63.83299" lon="10.23049">
        <ele>177.804048</ele>
        <time>2020-08-08T12:40:33.480Z</time>
      </trkpt>
      <trkpt lat="63.83309" lon="10.23055">
        <ele>178.400356</ele>
        <time>2020-08-08T12:40:37.452Z</time>
      </trkpt>
      <trkpt lat="63.83318" lon="10.23061">
        <ele>179.023341</ele>
        <time>2020-08-08T12:40:42.475Z</time>
      </trkpt>
      <trkpt lat="63.83327" lon="10.23066">
        <ele>179.586737</ele>
        <time>2020-08-08T12:40:46.440Z</time>
      </trkpt>
      <trkpt lat="63.83338" lon="10.23073">
        <ele>180.251081</ele>
        <time>2020-08-08T12:40:50.513Z</time>
      </trkpt>
      <trkpt lat="63.83347" lon="10.23077">
        <ele>180.826338</ele>
        <time>2020-08-08T12:40:54.473Z</time>
      </trkpt>
      <trkpt lat="63.83357" lon="10.23081">
        <ele>181.49628</ele>
        <time>2020-08-08T12:40:58.503Z</time>
      </trkpt>
      <trkpt lat="63.83367" lon="10.23084">
        <ele>182.117159</ele>
        <time>2020-08-08T12:41:02.480Z</time>
      </trkpt>
      <trkpt lat="63.83377" lon="10.23085">
        <ele>182.690034</ele>
        <time>2020-08-08T12:41:06.448Z</time>
      </trkpt>
      <trkpt lat="63.83387" lon="10.23087">
        <ele>183.30006</ele>
        <time>2020-08-08T12:41:10.496Z</time>
      </trkpt>
      <trkpt lat="63.83397" lon="10.23087">
        <ele>183.879428</ele>
        <time>2020-08-08T12:41:14.472Z</time>
      </trkpt>
      <trkpt lat="63.83407" lon="10.23086">
        <ele>184.061367</ele>
        <time>2020-08-08T12:41:20.473Z</time>
      </trkpt>
      <trkpt lat="63.83418" lon="10.23085">
        <ele>184.238086</ele>
        <time>2020-08-08T12:41:26.477Z</time>
      </trkpt>
      <trkpt lat="63.83427" lon="10.23085">
        <ele>184.399124</ele>
        <time>2020-08-08T12:41:31.450Z</time>
      </trkpt>
      <trkpt lat="63.83437" lon="10.23082">
        <ele>184.584491</ele>
        <time>2020-08-08T12:41:36.448Z</time>
      </trkpt>
      <trkpt lat="63.83448" lon="10.23079">
        <ele>184.771468</ele>
        <time>2020-08-08T12:41:42.460Z</time>
      </trkpt>
      <trkpt lat="63.83459" lon="10.23075">
        <ele>184.957287</ele>
        <time>2020-08-08T12:41:46.478Z</time>
      </trkpt>
      <trkpt lat="63.83468" lon="10.23073">
        <ele>185.115668</ele>
        <time>2020-08-08T12:41:50.451Z</time>
      </trkpt>
      <trkpt lat="63.83478" lon="10.23068">
        <ele>185.287577</ele>
        <time>2020-08-08T12:41:54.474Z</time>
      </trkpt>
      <trkpt lat="63.83486" lon="10.23062">
        <ele>185.443759</ele>
        <time>2020-08-08T12:41:58.477Z</time>
      </trkpt>
      <trkpt lat="63.83497" lon="10.23058">
        <ele>185.631785</ele>
        <time>2020-08-08T12:42:02.479Z</time>
      </trkpt>
      <trkpt lat="63.83506" lon="10.23054">
        <ele>185.799674</ele>
        <time>2020-08-08T12:42:06.473Z</time>
      </trkpt>
      <trkpt lat="63.83516" lon="10.23048">
        <ele>185.978979</ele>
        <time>2020-08-08T12:42:10.445Z</time>
      </trkpt>
      <trkpt lat="63.83526" lon="10.23044">
        <ele>186.14997</ele>
        <time>2020-08-08T12:42:13.475Z</time>
      </trkpt>
      <trkpt lat="63.83535" lon="10.23039">
        <ele>186.310413</ele>
        <time>2020-08-08T12:42:16.447Z</time>
      </trkpt>
      <trkpt lat="63.83544" lon="10.23033">
        <ele>186.473286</ele>
        <time>2020-08-08T12:42:19.453Z</time>
      </trkpt>
      <trkpt lat="63.83554" lon="10.23026">
        <ele>186.64743</ele>
        <time>2020-08-08T12:42:22.468Z</time>
      </trkpt>
      <trkpt lat="63.83564" lon="10.23019">
        <ele>186.82488</ele>
        <time>2020-08-08T12:42:25.500Z</time>
      </trkpt>
      <trkpt lat="63.83573" lon="10.23011">
        <ele>186.982888</ele>
        <time>2020-08-08T12:42:28.457Z</time>
      </trkpt>
      <trkpt lat="63.83583" lon="10.23002">
        <ele>187.029225</ele>
        <time>2020-08-08T12:42:31.446Z</time>
      </trkpt>
      <trkpt lat="63.83594" lon="10.22993">
        <ele>187.076034</ele>
        <time>2020-08-08T12:42:34.474Z</time>
      </trkpt>
      <trkpt lat="63.83604" lon="10.22985">
        <ele>187.122977</ele>
        <time>2020-08-08T12:42:37.489Z</time>
      </trkpt>
      <trkpt lat="63.83614" lon="10.22975">
        <ele>187.169341</ele>
        <time>2020-08-08T12:42:41.461Z</time>
      </trkpt>
      <trkpt lat="63.83625" lon="10.22964">
        <ele>187.222691</ele>
        <time>2020-08-08T12:47:25.470Z</time>
      </trkpt>
      <trkpt lat="63.83634" lon="10.22953">
        <ele>187.266588</ele>
        <time>2020-08-08T12:47:29.448Z</time>
      </trkpt>
      <trkpt lat="63.83644" lon="10.22943">
        <ele>187.312067</ele>
        <time>2020-08-08T12:47:33.472Z</time>
      </trkpt>
      <trkpt lat="63.83655" lon="10.22934">
        <ele>187.363185</ele>
        <time>2020-08-08T12:47:37.437Z</time>
      </trkpt>
      <trkpt lat="63.83664" lon="10.22926">
        <ele>187.408511</ele>
        <time>2020-08-08T12:47:41.485Z</time>
      </trkpt>
      <trkpt lat="63.83673" lon="10.22918">
        <ele>187.447439</ele>
        <time>2020-08-08T12:47:44.461Z</time>
      </trkpt>
      <trkpt lat="63.83682" lon="10.2291">
        <ele>187.488657</ele>
        <time>2020-08-08T12:47:47.455Z</time>
      </trkpt>
      <trkpt lat="63.83691" lon="10.22904">
        <ele>187.529403</ele>
        <time>2020-08-08T12:47:50.455Z</time>
      </trkpt>
      <trkpt lat="63.83701" lon="10.22897">
        <ele>187.575313</ele>
        <time>2020-08-08T12:47:54.471Z</time>
      </trkpt>
      <trkpt lat="63.83711" lon="10.22888">
        <ele>187.62401</ele>
        <time>2020-08-08T12:47:58.470Z</time>
      </trkpt>
      <trkpt lat="63.83721" lon="10.22881">
        <ele>187.667514</ele>
        <time>2020-08-08T12:48:02.489Z</time>
      </trkpt>
      <trkpt lat="63.8373" lon="10.22878">
        <ele>187.706732</ele>
        <time>2020-08-08T12:48:06.471Z</time>
      </trkpt>
      <trkpt lat="63.83739" lon="10.22875">
        <ele>187.746484</ele>
        <time>2020-08-08T12:48:10.448Z</time>
      </trkpt>
      <trkpt lat="63.83749" lon="10.22872">
        <ele>188.126684</ele>
        <time>2020-08-08T12:48:14.455Z</time>
      </trkpt>
      <trkpt lat="63.83759" lon="10.22869">
        <ele>188.544443</ele>
        <time>2020-08-08T12:48:18.435Z</time>
      </trkpt>
      <trkpt lat="63.83768" lon="10.22867">
        <ele>188.940864</ele>
        <time>2020-08-08T12:48:22.479Z</time>
      </trkpt>
      <trkpt lat="63.83779" lon="10.22864">
        <ele>189.406978</ele>
        <time>2020-08-08T12:48:27.461Z</time>
      </trkpt>
      <trkpt lat="63.83789" lon="10.22863">
        <ele>189.810735</ele>
        <time>2020-08-08T12:48:31.482Z</time>
      </trkpt>
      <trkpt lat="63.83798" lon="10.22862">
        <ele>190.227562</ele>
        <time>2020-08-08T12:48:35.471Z</time>
      </trkpt>
      <trkpt lat="63.83808" lon="10.22862">
        <ele>190.635443</ele>
        <time>2020-08-08T12:48:39.458Z</time>
      </trkpt>
      <trkpt lat="63.83817" lon="10.22862">
        <ele>191.039079</ele>
        <time>2020-08-08T12:48:43.449Z</time>
      </trkpt>
      <trkpt lat="63.83828" lon="10.22862">
        <ele>191.489292</ele>
        <time>2020-08-08T12:48:48.438Z</time>
      </trkpt>
      <trkpt lat="63.83839" lon="10.22865">
        <ele>191.937893</ele>
        <time>2020-08-08T12:48:53.490Z</time>
      </trkpt>
      <trkpt lat="63.83848" lon="10.22866">
        <ele>192.350823</ele>
        <time>2020-08-08T12:48:57.490Z</time>
      </trkpt>
      <trkpt lat="63.83859" lon="10.2287">
        <ele>192.822848</ele>
        <time>2020-08-08T12:49:02.460Z</time>
      </trkpt>
      <trkpt lat="63.83868" lon="10.22871">
        <ele>193.214881</ele>
        <time>2020-08-08T12:49:06.458Z</time>
      </trkpt>
      <trkpt lat="63.83878" lon="10.22875">
        <ele>193.621079</ele>
        <time>2020-08-08T12:49:11.472Z</time>
      </trkpt>
      <trkpt lat="63.83887" lon="10.2288">
        <ele>194.00421</ele>
        <time>2020-08-08T12:49:16.442Z</time>
      </trkpt>
      <trkpt lat="63.83897" lon="10.22885">
        <ele>194.470179</ele>
        <time>2020-08-08T12:49:21.492Z</time>
      </trkpt>
      <trkpt lat="63.83908" lon="10.22891">
        <ele>194.926636</ele>
        <time>2020-08-08T12:49:26.475Z</time>
      </trkpt>
      <trkpt lat="63.83919" lon="10.22895">
        <ele>195.387213</ele>
        <time>2020-08-08T12:49:31.500Z</time>
      </trkpt>
      <trkpt lat="63.83928" lon="10.229">
        <ele>195.813601</ele>
        <time>2020-08-08T12:49:36.443Z</time>
      </trkpt>
      <trkpt lat="63.83938" lon="10.22907">
        <ele>196.256398</ele>
        <time>2020-08-08T12:49:41.462Z</time>
      </trkpt>
      <trkpt lat="63.83948" lon="10.22912">
        <ele>196.710491</ele>
        <time>2020-08-08T12:49:46.451Z</time>
      </trkpt>
      <trkpt lat="63.83957" lon="10.22915">
        <ele>197.133181</ele>
        <time>2020-08-08T12:49:50.495Z</time>
      </trkpt>
      <trkpt lat="63.83967" lon="10.22917">
        <ele>197.555917</ele>
        <time>2020-08-08T12:49:54.490Z</time>
      </trkpt>
      <trkpt lat="63.83978" lon="10.2292">
        <ele>198.047467</ele>
        <time>2020-08-08T12:49:59.459Z</time>
      </trkpt>
      <trkpt lat="63.83987" lon="10.22924">
        <ele>198.464901</ele>
        <time>2020-08-08T12:50:03.447Z</time>
      </trkpt>
      <trkpt lat="63.83996" lon="10.22925">
        <ele>198.860934</ele>
        <time>2020-08-08T12:50:07.502Z</time>
      </trkpt>
      <trkpt lat="63.84007" lon="10.22927">
        <ele>199.348814</ele>
        <time>2020-08-08T12:50:12.455Z</time>
      </trkpt>
      <trkpt lat="63.84017" lon="10.22927">
        <ele>199.787672</ele>
        <time>2020-08-08T12:50:16.475Z</time>
      </trkpt>
      <trkpt lat="63.84028" lon="10.22927">
        <ele>200.270601</ele>
        <time>2020-08-08T12:50:21.471Z</time>
      </trkpt>
      <trkpt lat="63.84038" lon="10.22928">
        <ele>200.69194</ele>
        <time>2020-08-08T12:50:25.459Z</time>
      </trkpt>
      <trkpt lat="63.84048" lon="10.22928">
        <ele>201.135389</ele>
        <time>2020-08-08T12:50:30.451Z</time>
      </trkpt>
      <trkpt lat="63.84058" lon="10.22928">
        <ele>201.55676</ele>
        <time>2020-08-08T12:50:35.476Z</time>
      </trkpt>
      <trkpt lat="63.84068" lon="10.22929">
        <ele>202.009375</ele>
        <time>2020-08-08T12:50:40.448Z</time>
      </trkpt>
      <trkpt lat="63.84079" lon="10.22931">
        <ele>202.497485</ele>
        <time>2020-08-08T12:50:45.508Z</time>
      </trkpt>
      <trkpt lat="63.84088" lon="10.2293">
        <ele>202.901249</ele>
        <time>2020-08-08T12:50:49.495Z</time>
      </trkpt>
      <trkpt lat="63.84099" lon="10.22931">
        <ele>203.312562</ele>
        <time>2020-08-08T12:50:54.481Z</time>
      </trkpt>
      <trkpt lat="63.84109" lon="10.22931">
        <ele>203.462756</ele>
        <time>2020-08-08T12:50:59.454Z</time>
      </trkpt>
      <trkpt lat="63.84118" lon="10.22932">
        <ele>203.605542</ele>
        <time>2020-08-08T12:51:04.469Z</time>
      </trkpt>
      <trkpt lat="63.84129" lon="10.22931">
        <ele>203.763256</ele>
        <time>2020-08-08T12:51:09.455Z</time>
      </trkpt>
      <trkpt lat="63.84138" lon="10.22932">
        <ele>203.906103</ele>
        <time>2020-08-08T12:51:14.492Z</time>
      </trkpt>
      <trkpt lat="63.84148" lon="10.22931">
        <ele>204.051951</ele>
        <time>2020-08-08T12:51:20.454Z</time>
      </trkpt>
      <trkpt lat="63.84159" lon="10.22928">
        <ele>204.211136</ele>
        <time>2020-08-08T12:51:26.470Z</time>
      </trkpt>
      <trkpt lat="63.84169" lon="10.22926">
        <ele>204.364881</ele>
        <time>2020-08-08T12:51:31.474Z</time>
      </trkpt>
      <trkpt lat="63.84178" lon="10.22921">
        <ele>204.506646</ele>
        <time>2020-08-08T12:51:36.462Z</time>
      </trkpt>
      <trkpt lat="63.84188" lon="10.22918">
        <ele>204.662428</ele>
        <time>2020-08-08T12:51:42.470Z</time>
      </trkpt>
      <trkpt lat="63.84198" lon="10.22913">
        <ele>204.804971</ele>
        <time>2020-08-08T12:51:47.465Z</time>
      </trkpt>
      <trkpt lat="63.84208" lon="10.22907">
        <ele>204.968243</ele>
        <time>2020-08-08T12:51:53.473Z</time>
      </trkpt>
      <trkpt lat="63.84217" lon="10.229">
        <ele>205.112181</ele>
        <time>2020-08-08T12:51:58.457Z</time>
      </trkpt>
      <trkpt lat="63.84227" lon="10.22895">
        <ele>205.26686</ele>
        <time>2020-08-08T12:52:04.488Z</time>
      </trkpt>
      <trkpt lat="63.84238" lon="10.22887">
        <ele>205.431561</ele>
        <time>2020-08-08T12:52:09.471Z</time>
      </trkpt>
      <trkpt lat="63.84247" lon="10.22875">
        <ele>205.586682</ele>
        <time>2020-08-08T12:52:14.465Z</time>
      </trkpt>
      <trkpt lat="63.84255" lon="10.22865">
        <ele>205.724181</ele>
        <time>2020-08-08T12:52:18.452Z</time>
      </trkpt>
      <trkpt lat="63.84263" lon="10.22855">
        <ele>205.868586</ele>
        <time>2020-08-08T12:52:22.449Z</time>
      </trkpt>
      <trkpt lat="63.84272" lon="10.22846">
        <ele>205.920104</ele>
        <time>2020-08-08T12:52:26.438Z</time>
      </trkpt>
      <trkpt lat="63.84282" lon="10.22833">
        <ele>205.561619</ele>
        <time>2020-08-08T12:52:30.452Z</time>
      </trkpt>
      <trkpt lat="63.8429" lon="10.22821">
        <ele>205.256106</ele>
        <time>2020-08-08T12:52:33.461Z</time>
      </trkpt>
      <trkpt lat="63.84299" lon="10.22807">
        <ele>204.914348</ele>
        <time>2020-08-08T12:52:36.495Z</time>
      </trkpt>
      <trkpt lat="63.84309" lon="10.22794">
        <ele>204.542372</ele>
        <time>2020-08-08T12:52:39.476Z</time>
      </trkpt>
      <trkpt lat="63.84317" lon="10.22783">
        <ele>204.246236</ele>
        <time>2020-08-08T12:52:41.469Z</time>
      </trkpt>
      <trkpt lat="63.84326" lon="10.22773">
        <ele>203.947404</ele>
        <time>2020-08-08T12:52:43.457Z</time>
      </trkpt>
      <trkpt lat="63.84335" lon="10.22762">
        <ele>203.609502</ele>
        <time>2020-08-08T12:52:45.476Z</time>
      </trkpt>
      <trkpt lat="63.84346" lon="10.22752">
        <ele>203.261304</ele>
        <time>2020-08-08T12:52:47.470Z</time>
      </trkpt>
      <trkpt lat="63.84357" lon="10.22742">
        <ele>202.874243</ele>
        <time>2020-08-08T12:52:49.486Z</time>
      </trkpt>
      <trkpt lat="63.84369" lon="10.2273">
        <ele>202.447749</ele>
        <time>2020-08-08T12:52:51.509Z</time>
      </trkpt>
      <trkpt lat="63.84383" lon="10.22721">
        <ele>202.00713</ele>
        <time>2020-08-08T12:52:53.457Z</time>
      </trkpt>
      <trkpt lat="63.84396" lon="10.22714">
        <ele>201.571208</ele>
        <time>2020-08-08T12:52:55.469Z</time>
      </trkpt>
      <trkpt lat="63.84409" lon="10.22709">
        <ele>201.170882</ele>
        <time>2020-08-08T12:52:57.462Z</time>
      </trkpt>
      <trkpt lat="63.84421" lon="10.22704">
        <ele>200.769783</ele>
        <time>2020-08-08T12:52:59.511Z</time>
      </trkpt>
      <trkpt lat="63.84434" lon="10.22697">
        <ele>200.347367</ele>
        <time>2020-08-08T12:53:01.469Z</time>
      </trkpt>
      <trkpt lat="63.84446" lon="10.22691">
        <ele>200.366772</ele>
        <time>2020-08-08T12:53:03.452Z</time>
      </trkpt>
      <trkpt lat="63.84458" lon="10.22685">
        <ele>200.415727</ele>
        <time>2020-08-08T12:53:05.502Z</time>
      </trkpt>
      <trkpt lat="63.84469" lon="10.22679">
        <ele>200.462483</ele>
        <time>2020-08-08T12:53:07.466Z</time>
      </trkpt>
      <trkpt lat="63.84479" lon="10.22672">
        <ele>200.505295</ele>
        <time>2020-08-08T12:53:09.473Z</time>
      </trkpt>
      <trkpt lat="63.84489" lon="10.22667">
        <ele>200.549242</ele>
        <time>2020-08-08T12:53:11.510Z</time>
      </trkpt>
      <trkpt lat="63.84499" lon="10.22663">
        <ele>200.593655</ele>
        <time>2020-08-08T12:53:13.467Z</time>
      </trkpt>
      <trkpt lat="63.84508" lon="10.22659">
        <ele>200.631958</ele>
        <time>2020-08-08T12:53:15.492Z</time>
      </trkpt>
      <trkpt lat="63.84518" lon="10.22655">
        <ele>200.670939</ele>
        <time>2020-08-08T12:53:17.465Z</time>
      </trkpt>
      <trkpt lat="63.8453" lon="10.22649">
        <ele>200.723308</ele>
        <time>2020-08-08T12:53:20.463Z</time>
      </trkpt>
      <trkpt lat="63.84542" lon="10.22642">
        <ele>200.774508</ele>
        <time>2020-08-08T12:53:23.448Z</time>
      </trkpt>
      <trkpt lat="63.84555" lon="10.22635">
        <ele>200.830205</ele>
        <time>2020-08-08T12:53:26.488Z</time>
      </trkpt>
      <trkpt lat="63.84564" lon="10.22631">
        <ele>200.868215</ele>
        <time>2020-08-08T12:53:28.462Z</time>
      </trkpt>
      <trkpt lat="63.84576" lon="10.22623">
        <ele>200.923417</ele>
        <time>2020-08-08T12:53:31.489Z</time>
      </trkpt>
      <trkpt lat="63.84585" lon="10.22618">
        <ele>200.961145</ele>
        <time>2020-08-08T12:53:33.445Z</time>
      </trkpt>
      <trkpt lat="63.84594" lon="10.22613">
        <ele>201.000668</ele>
        <time>2020-08-08T12:53:35.483Z</time>
      </trkpt>
      <trkpt lat="63.84604" lon="10.22609">
        <ele>201.040641</ele>
        <time>2020-08-08T12:53:37.457Z</time>
      </trkpt>
      <trkpt lat="63.84613" lon="10.22605">
        <ele>201.099455</ele>
        <time>2020-08-08T12:53:39.450Z</time>
      </trkpt>
      <trkpt lat="63.84623" lon="10.226">
        <ele>201.216683</ele>
        <time>2020-08-08T12:53:41.506Z</time>
      </trkpt>
      <trkpt lat="63.84633" lon="10.22596">
        <ele>201.33754</ele>
        <time>2020-08-08T12:53:43.461Z</time>
      </trkpt>
      <trkpt lat="63.84642" lon="10.22591">
        <ele>201.457649</ele>
        <time>2020-08-08T12:53:45.473Z</time>
      </trkpt>
      <trkpt lat="63.84652" lon="10.22587">
        <ele>201.570951</ele>
        <time>2020-08-08T12:53:47.451Z</time>
      </trkpt>
      <trkpt lat="63.84664" lon="10.22582">
        <ele>201.726291</ele>
        <time>2020-08-08T12:53:50.483Z</time>
      </trkpt>
      <trkpt lat="63.84676" lon="10.22578">
        <ele>201.868638</ele>
        <time>2020-08-08T12:53:53.454Z</time>
      </trkpt>
      <trkpt lat="63.84687" lon="10.22572">
        <ele>202.002644</ele>
        <time>2020-08-08T12:53:56.479Z</time>
      </trkpt>
      <trkpt lat="63.84699" lon="10.22566">
        <ele>202.143664</ele>
        <time>2020-08-08T12:53:59.461Z</time>
      </trkpt>
      <trkpt lat="63.8471" lon="10.22561">
        <ele>202.283513</ele>
        <time>2020-08-08T12:54:02.457Z</time>
      </trkpt>
      <trkpt lat="63.84721" lon="10.22555">
        <ele>202.423594</ele>
        <time>2020-08-08T12:54:05.491Z</time>
      </trkpt>
      <trkpt lat="63.84733" lon="10.22549">
        <ele>202.563793</ele>
        <time>2020-08-08T12:54:08.525Z</time>
      </trkpt>
      <trkpt lat="63.84745" lon="10.22544">
        <ele>202.708684</ele>
        <time>2020-08-08T12:54:11.459Z</time>
      </trkpt>
      <trkpt lat="63.84756" lon="10.22539">
        <ele>202.846815</ele>
        <time>2020-08-08T12:54:14.472Z</time>
      </trkpt>
      <trkpt lat="63.84767" lon="10.22533">
        <ele>202.980704</ele>
        <time>2020-08-08T12:54:17.461Z</time>
      </trkpt>
      <trkpt lat="63.84778" lon="10.22527">
        <ele>203.115878</ele>
        <time>2020-08-08T12:54:20.478Z</time>
      </trkpt>
      <trkpt lat="63.84789" lon="10.22521">
        <ele>203.167745</ele>
        <time>2020-08-08T12:54:23.498Z</time>
      </trkpt>
      <trkpt lat="63.848" lon="10.22514">
        <ele>202.854517</ele>
        <time>2020-08-08T12:54:26.447Z</time>
      </trkpt>
      <trkpt lat="63.84812" lon="10.22507">
        <ele>202.535411</ele>
        <time>2020-08-08T12:54:29.475Z</time>
      </trkpt>
      <trkpt lat="63.84825" lon="10.22502">
        <ele>202.207152</ele>
        <time>2020-08-08T12:54:32.481Z</time>
      </trkpt>
      <trkpt lat="63.84837" lon="10.22497">
        <ele>201.87815</ele>
        <time>2020-08-08T12:54:35.469Z</time>
      </trkpt>
      <trkpt lat="63.8485" lon="10.22492">
        <ele>201.546583</ele>
        <time>2020-08-08T12:54:38.467Z</time>
      </trkpt>
      <trkpt lat="63.84861" lon="10.22488">
        <ele>201.238273</ele>
        <time>2020-08-08T12:54:41.481Z</time>
      </trkpt>
      <trkpt lat="63.84874" lon="10.22484">
        <ele>200.904832</ele>
        <time>2020-08-08T12:54:44.471Z</time>
      </trkpt>
      <trkpt lat="63.84886" lon="10.22481">
        <ele>200.583886</ele>
        <time>2020-08-08T12:54:47.486Z</time>
      </trkpt>
      <trkpt lat="63.84895" lon="10.22481">
        <ele>200.35006</ele>
        <time>2020-08-08T12:54:49.454Z</time>
      </trkpt>
      <trkpt lat="63.84905" lon="10.2248">
        <ele>200.09013</ele>
        <time>2020-08-08T12:54:51.462Z</time>
      </trkpt>
      <trkpt lat="63.84915" lon="10.22479">
        <ele>199.837803</ele>
        <time>2020-08-08T12:54:53.476Z</time>
      </trkpt>
      <trkpt lat="63.84925" lon="10.22478">
        <ele>199.570046</ele>
        <time>2020-08-08T12:54:55.491Z</time>
      </trkpt>
      <trkpt lat="63.84936" lon="10.22477">
        <ele>199.306833</ele>
        <time>2020-08-08T12:54:57.467Z</time>
      </trkpt>
      <trkpt lat="63.84945" lon="10.22475">
        <ele>199.056975</ele>
        <time>2020-08-08T12:54:59.472Z</time>
      </trkpt>
      <trkpt lat="63.84955" lon="10.22475">
        <ele>198.799603</ele>
        <time>2020-08-08T12:55:01.457Z</time>
      </trkpt>
      <trkpt lat="63.84965" lon="10.22474">
        <ele>198.552691</ele>
        <time>2020-08-08T12:55:03.466Z</time>
      </trkpt>
      <trkpt lat="63.84978" lon="10.22472">
        <ele>198.661379</ele>
        <time>2020-08-08T12:55:06.498Z</time>
      </trkpt>
      <trkpt lat="63.84989" lon="10.22472">
        <ele>198.758186</ele>
        <time>2020-08-08T12:55:09.473Z</time>
      </trkpt>
      <trkpt lat="63.84999" lon="10.22471">
        <ele>198.846565</ele>
        <time>2020-08-08T12:55:12.465Z</time>
      </trkpt>
      <trkpt lat="63.85011" lon="10.22472">
        <ele>198.942569</ele>
        <time>2020-08-08T12:55:16.451Z</time>
      </trkpt>
      <trkpt lat="63.85022" lon="10.2247">
        <ele>199.03867</ele>
        <time>2020-08-08T12:55:20.457Z</time>
      </trkpt>
      <trkpt lat="63.85033" lon="10.2247">
        <ele>199.132929</ele>
        <time>2020-08-08T12:55:24.468Z</time>
      </trkpt>
      <trkpt lat="63.85044" lon="10.2247">
        <ele>199.229737</ele>
        <time>2020-08-08T12:55:28.499Z</time>
      </trkpt>
      <trkpt lat="63.85055" lon="10.22469">
        <ele>199.317383</ele>
        <time>2020-08-08T12:55:32.474Z</time>
      </trkpt>
      <trkpt lat="63.85065" lon="10.22467">
        <ele>199.401693</ele>
        <time>2020-08-08T12:55:36.469Z</time>
      </trkpt>
      <trkpt lat="63.85075" lon="10.22466">
        <ele>199.490087</ele>
        <time>2020-08-08T12:55:40.454Z</time>
      </trkpt>
      <trkpt lat="63.85086" lon="10.22466">
        <ele>199.583509</ele>
        <time>2020-08-08T12:55:44.453Z</time>
      </trkpt>
      <trkpt lat="63.85095" lon="10.22466">
        <ele>199.660829</ele>
        <time>2020-08-08T12:55:47.498Z</time>
      </trkpt>
      <trkpt lat="63.85105" lon="10.22465">
        <ele>199.747449</ele>
        <time>2020-08-08T12:55:50.467Z</time>
      </trkpt>
      <trkpt lat="63.85117" lon="10.22464">
        <ele>199.84945</ele>
        <time>2020-08-08T12:55:53.458Z</time>
      </trkpt>
      <trkpt lat="63.85131" lon="10.22465">
        <ele>199.963251</ele>
        <time>2020-08-08T12:55:56.482Z</time>
      </trkpt>
      <trkpt lat="63.8514" lon="10.22464">
        <ele>200.045643</ele>
        <time>2020-08-08T12:55:58.460Z</time>
      </trkpt>
      <trkpt lat="63.85151" lon="10.22464">
        <ele>200.049481</ele>
        <time>2020-08-08T12:56:00.451Z</time>
      </trkpt>
      <trkpt lat="63.8516" lon="10.22464">
        <ele>200.003763</ele>
        <time>2020-08-08T12:56:02.451Z</time>
      </trkpt>
      <trkpt lat="63.8517" lon="10.22463">
        <ele>199.956631</ele>
        <time>2020-08-08T12:56:04.446Z</time>
      </trkpt>
      <trkpt lat="63.85181" lon="10.22462">
        <ele>199.908496</ele>
        <time>2020-08-08T12:56:06.491Z</time>
      </trkpt>
      <trkpt lat="63.85192" lon="10.22461">
        <ele>199.857621</ele>
        <time>2020-08-08T12:56:08.480Z</time>
      </trkpt>
      <trkpt lat="63.85203" lon="10.22461">
        <ele>199.8063</ele>
        <time>2020-08-08T12:56:10.486Z</time>
      </trkpt>
      <trkpt lat="63.85215" lon="10.2246">
        <ele>199.750733</ele>
        <time>2020-08-08T12:56:12.448Z</time>
      </trkpt>
      <trkpt lat="63.85227" lon="10.22458">
        <ele>199.693247</ele>
        <time>2020-08-08T12:56:14.453Z</time>
      </trkpt>
      <trkpt lat="63.85239" lon="10.22457">
        <ele>199.636298</ele>
        <time>2020-08-08T12:56:16.472Z</time>
      </trkpt>
      <trkpt lat="63.85251" lon="10.22457">
        <ele>199.581717</ele>
        <time>2020-08-08T12:56:18.475Z</time>
      </trkpt>
      <trkpt lat="63.85263" lon="10.22456">
        <ele>199.526191</ele>
        <time>2020-08-08T12:56:20.490Z</time>
      </trkpt>
      <trkpt lat="63.85274" lon="10.22457">
        <ele>199.472067</ele>
        <time>2020-08-08T12:56:22.466Z</time>
      </trkpt>
      <trkpt lat="63.85286" lon="10.22457">
        <ele>199.419339</ele>
        <time>2020-08-08T12:56:24.469Z</time>
      </trkpt>
      <trkpt lat="63.85297" lon="10.22458">
        <ele>199.366152</ele>
        <time>2020-08-08T12:56:26.452Z</time>
      </trkpt>
      <trkpt lat="63.85308" lon="10.22459">
        <ele>199.313879</ele>
        <time>2020-08-08T12:56:28.470Z</time>
      </trkpt>
      <trkpt lat="63.85319" lon="10.22461">
        <ele>199.262383</ele>
        <time>2020-08-08T12:56:30.438Z</time>
      </trkpt>
      <trkpt lat="63.8533" lon="10.22463">
        <ele>199.663817</ele>
        <time>2020-08-08T12:56:32.519Z</time>
      </trkpt>
      <trkpt lat="63.85339" lon="10.22467">
        <ele>200.38912</ele>
        <time>2020-08-08T12:56:34.462Z</time>
      </trkpt>
      <trkpt lat="63.85348" lon="10.22471">
        <ele>201.054076</ele>
        <time>2020-08-08T12:56:36.473Z</time>
      </trkpt>
      <trkpt lat="63.85359" lon="10.22479">
        <ele>201.913975</ele>
        <time>2020-08-08T12:56:39.491Z</time>
      </trkpt>
      <trkpt lat="63.85369" lon="10.22486">
        <ele>202.669134</ele>
        <time>2020-08-08T12:56:42.466Z</time>
      </trkpt>
      <trkpt lat="63.85378" lon="10.22494">
        <ele>203.350701</ele>
        <time>2020-08-08T12:56:45.454Z</time>
      </trkpt>
      <trkpt lat="63.85388" lon="10.22507">
        <ele>204.203062</ele>
        <time>2020-08-08T12:56:49.480Z</time>
      </trkpt>
      <trkpt lat="63.85397" lon="10.22517">
        <ele>204.980555</ele>
        <time>2020-08-08T12:56:53.459Z</time>
      </trkpt>
      <trkpt lat="63.85407" lon="10.22531">
        <ele>205.816859</ele>
        <time>2020-08-08T12:56:57.441Z</time>
      </trkpt>
      <trkpt lat="63.85416" lon="10.22542">
        <ele>206.553462</ele>
        <time>2020-08-08T12:57:02.488Z</time>
      </trkpt>
      <trkpt lat="63.85425" lon="10.22553">
        <ele>207.347058</ele>
        <time>2020-08-08T12:57:08.449Z</time>
      </trkpt>
      <trkpt lat="63.85433" lon="10.22563">
        <ele>208.016383</ele>
        <time>2020-08-08T12:57:13.462Z</time>
      </trkpt>
      <trkpt lat="63.85442" lon="10.22572">
        <ele>208.723296</ele>
        <time>2020-08-08T12:57:18.482Z</time>
      </trkpt>
      <trkpt lat="63.8545" lon="10.22584">
        <ele>209.415053</ele>
        <time>2020-08-08T12:57:23.462Z</time>
      </trkpt>
      <trkpt lat="63.8546" lon="10.22591">
        <ele>210.180245</ele>
        <time>2020-08-08T12:57:29.462Z</time>
      </trkpt>
      <trkpt lat="63.85468" lon="10.22601">
        <ele>210.9036</ele>
        <time>2020-08-08T12:57:36.455Z</time>
      </trkpt>
      <trkpt lat="63.85477" lon="10.22609">
        <ele>211.631018</ele>
        <time>2020-08-08T12:57:42.489Z</time>
      </trkpt>
      <trkpt lat="63.85487" lon="10.22617">
        <ele>212.40719</ele>
        <time>2020-08-08T12:57:48.493Z</time>
      </trkpt>
      <trkpt lat="63.85497" lon="10.22622">
        <ele>212.798938</ele>
        <time>2020-08-08T12:57:53.500Z</time>
      </trkpt>
      <trkpt lat="63.85505" lon="10.22628">
        <ele>213.115256</ele>
        <time>2020-08-08T12:57:58.460Z</time>
      </trkpt>
      <trkpt lat="63.85514" lon="10.22635">
        <ele>213.436373</ele>
        <time>2020-08-08T12:58:03.459Z</time>
      </trkpt>
      <trkpt lat="63.85523" lon="10.22638">
        <ele>213.763156</ele>
        <time>2020-08-08T12:58:08.466Z</time>
      </trkpt>
      <trkpt lat="63.85532" lon="10.22642">
        <ele>214.077652</ele>
        <time>2020-08-08T12:58:13.457Z</time>
      </trkpt>
      <trkpt lat="63.85542" lon="10.22646">
        <ele>214.402962</ele>
        <time>2020-08-08T12:58:18.495Z</time>
      </trkpt>
      <trkpt lat="63.8555" lon="10.22651">
        <ele>214.719307</ele>
        <time>2020-08-08T12:58:23.455Z</time>
      </trkpt>
      <trkpt lat="63.85559" lon="10.22654">
        <ele>215.038777</ele>
        <time>2020-08-08T12:58:28.461Z</time>
      </trkpt>
      <trkpt lat="63.85568" lon="10.22658">
        <ele>215.356665</ele>
        <time>2020-08-08T12:58:33.456Z</time>
      </trkpt>
      <trkpt lat="63.85578" lon="10.22663">
        <ele>215.689151</ele>
        <time>2020-08-08T12:58:38.469Z</time>
      </trkpt>
      <trkpt lat="63.85587" lon="10.22665">
        <ele>216.024386</ele>
        <time>2020-08-08T12:58:43.531Z</time>
      </trkpt>
      <trkpt lat="63.85597" lon="10.22668">
        <ele>216.35709</ele>
        <time>2020-08-08T12:58:48.489Z</time>
      </trkpt>
      <trkpt lat="63.85607" lon="10.22673">
        <ele>216.709919</ele>
        <time>2020-08-08T12:58:53.475Z</time>
      </trkpt>
      <trkpt lat="63.85618" lon="10.22674">
        <ele>217.096373</ele>
        <time>2020-08-08T12:58:58.468Z</time>
      </trkpt>
      <trkpt lat="63.85627" lon="10.22674">
        <ele>217.423398</ele>
        <time>2020-08-08T12:59:02.491Z</time>
      </trkpt>
      <trkpt lat="63.85637" lon="10.22673">
        <ele>217.771619</ele>
        <time>2020-08-08T12:59:06.455Z</time>
      </trkpt>
      <trkpt lat="63.85648" lon="10.22672">
        <ele>218.154597</ele>
        <time>2020-08-08T12:59:10.533Z</time>
      </trkpt>
      <trkpt lat="63.8566" lon="10.22674">
        <ele>218.555414</ele>
        <time>2020-08-08T12:59:14.490Z</time>
      </trkpt>
      <trkpt lat="63.8567" lon="10.22673">
        <ele>218.664979</ele>
        <time>2020-08-08T12:59:17.474Z</time>
      </trkpt>
      <trkpt lat="63.8568" lon="10.22672">
        <ele>218.405591</ele>
        <time>2020-08-08T12:59:20.445Z</time>
      </trkpt>
      <trkpt lat="63.8569" lon="10.2267">
        <ele>218.153524</ele>
        <time>2020-08-08T12:59:23.477Z</time>
      </trkpt>
      <trkpt lat="63.85701" lon="10.22667">
        <ele>217.892685</ele>
        <time>2020-08-08T12:59:26.447Z</time>
      </trkpt>
      <trkpt lat="63.85711" lon="10.22662">
        <ele>217.62</ele>
        <time>2020-08-08T12:59:29.492Z</time>
      </trkpt>
      <trkpt lat="63.85721" lon="10.22658">
        <ele>217.369022</ele>
        <time>2020-08-08T12:59:32.510Z</time>
      </trkpt>
      <trkpt lat="63.85732" lon="10.22652">
        <ele>217.08918</ele>
        <time>2020-08-08T12:59:35.488Z</time>
      </trkpt>
      <trkpt lat="63.85744" lon="10.22644">
        <ele>216.758933</ele>
        <time>2020-08-08T12:59:38.448Z</time>
      </trkpt>
      <trkpt lat="63.85757" lon="10.22635">
        <ele>216.432256</ele>
        <time>2020-08-08T12:59:41.440Z</time>
      </trkpt>
      <trkpt lat="63.8577" lon="10.22626">
        <ele>216.097051</ele>
        <time>2020-08-08T12:59:44.477Z</time>
      </trkpt>
      <trkpt lat="63.85778" lon="10.22619">
        <ele>215.863662</ele>
        <time>2020-08-08T12:59:46.473Z</time>
      </trkpt>
      <trkpt lat="63.85787" lon="10.22612">
        <ele>215.621344</ele>
        <time>2020-08-08T12:59:48.455Z</time>
      </trkpt>
      <trkpt lat="63.85797" lon="10.22605">
        <ele>215.375546</ele>
        <time>2020-08-08T12:59:50.457Z</time>
      </trkpt>
      <trkpt lat="63.85806" lon="10.22597">
        <ele>215.133702</ele>
        <time>2020-08-08T12:59:52.477Z</time>
      </trkpt>
      <trkpt lat="63.85815" lon="10.2259">
        <ele>214.896861</ele>
        <time>2020-08-08T12:59:54.486Z</time>
      </trkpt>
      <trkpt lat="63.85824" lon="10.22582">
        <ele>214.644434</ele>
        <time>2020-08-08T12:59:56.464Z</time>
      </trkpt>
      <trkpt lat="63.85834" lon="10.22575">
        <ele>214.385088</ele>
        <time>2020-08-08T12:59:58.496Z</time>
      </trkpt>
      <trkpt lat="63.85843" lon="10.22567">
        <ele>214.158446</ele>
        <time>2020-08-08T13:00:00.459Z</time>
      </trkpt>
      <trkpt lat="63.85853" lon="10.2256">
        <ele>213.959934</ele>
        <time>2020-08-08T13:00:02.489Z</time>
      </trkpt>
      <trkpt lat="63.85862" lon="10.22552">
        <ele>213.766548</ele>
        <time>2020-08-08T13:00:04.474Z</time>
      </trkpt>
      <trkpt lat="63.85872" lon="10.22543">
        <ele>213.567966</ele>
        <time>2020-08-08T13:00:06.465Z</time>
      </trkpt>
      <trkpt lat="63.85881" lon="10.22535">
        <ele>213.373689</ele>
        <time>2020-08-08T13:00:08.461Z</time>
      </trkpt>
      <trkpt lat="63.85891" lon="10.22528">
        <ele>213.180882</ele>
        <time>2020-08-08T13:00:10.466Z</time>
      </trkpt>
      <trkpt lat="63.859" lon="10.2252">
        <ele>212.992931</ele>
        <time>2020-08-08T13:00:12.465Z</time>
      </trkpt>
      <trkpt lat="63.8591" lon="10.22512">
        <ele>212.793224</ele>
        <time>2020-08-08T13:00:14.451Z</time>
      </trkpt>
      <trkpt lat="63.85919" lon="10.22504">
        <ele>212.600446</ele>
        <time>2020-08-08T13:00:16.433Z</time>
      </trkpt>
      <trkpt lat="63.85928" lon="10.22496">
        <ele>212.415197</ele>
        <time>2020-08-08T13:00:18.493Z</time>
      </trkpt>
      <trkpt lat="63.85937" lon="10.22488">
        <ele>212.225437</ele>
        <time>2020-08-08T13:00:20.478Z</time>
      </trkpt>
      <trkpt lat="63.85946" lon="10.2248">
        <ele>212.036878</ele>
        <time>2020-08-08T13:00:22.492Z</time>
      </trkpt>
      <trkpt lat="63.85955" lon="10.22472">
        <ele>211.848009</ele>
        <time>2020-08-08T13:00:24.456Z</time>
      </trkpt>
      <trkpt lat="63.85965" lon="10.22465">
        <ele>211.658148</ele>
        <time>2020-08-08T13:00:26.476Z</time>
      </trkpt>
      <trkpt lat="63.85974" lon="10.22457">
        <ele>211.464764</ele>
        <time>2020-08-08T13:00:28.453Z</time>
      </trkpt>
      <trkpt lat="63.85983" lon="10.22448">
        <ele>211.264859</ele>
        <time>2020-08-08T13:00:30.471Z</time>
      </trkpt>
      <trkpt lat="63.85994" lon="10.22438">
        <ele>211.042233</ele>
        <time>2020-08-08T13:00:32.506Z</time>
      </trkpt>
      <trkpt lat="63.86006" lon="10.22427">
        <ele>210.802212</ele>
        <time>2020-08-08T13:00:34.449Z</time>
      </trkpt>
      <trkpt lat="63.86017" lon="10.22416">
        <ele>210.69477</ele>
        <time>2020-08-08T13:00:36.461Z</time>
      </trkpt>
      <trkpt lat="63.86029" lon="10.22407">
        <ele>210.609191</ele>
        <time>2020-08-08T13:00:38.494Z</time>
      </trkpt>
      <trkpt lat="63.86041" lon="10.22398">
        <ele>210.524456</ele>
        <time>2020-08-08T13:00:40.457Z</time>
      </trkpt>
      <trkpt lat="63.86053" lon="10.2239">
        <ele>210.441007</ele>
        <time>2020-08-08T13:00:42.452Z</time>
      </trkpt>
      <trkpt lat="63.86064" lon="10.22382">
        <ele>210.359527</ele>
        <time>2020-08-08T13:00:44.526Z</time>
      </trkpt>
      <trkpt lat="63.86075" lon="10.22375">
        <ele>210.282987</ele>
        <time>2020-08-08T13:00:46.474Z</time>
      </trkpt>
      <trkpt lat="63.86085" lon="10.2237">
        <ele>210.213516</ele>
        <time>2020-08-08T13:00:48.493Z</time>
      </trkpt>
      <trkpt lat="63.86095" lon="10.22365">
        <ele>210.141372</ele>
        <time>2020-08-08T13:00:50.460Z</time>
      </trkpt>
      <trkpt lat="63.86105" lon="10.2236">
        <ele>210.068623</ele>
        <time>2020-08-08T13:00:52.481Z</time>
      </trkpt>
      <trkpt lat="63.86116" lon="10.22355">
        <ele>209.997945</ele>
        <time>2020-08-08T13:00:54.462Z</time>
      </trkpt>
      <trkpt lat="63.86126" lon="10.22353">
        <ele>209.92848</ele>
        <time>2020-08-08T13:00:56.455Z</time>
      </trkpt>
      <trkpt lat="63.86135" lon="10.22351">
        <ele>209.861799</ele>
        <time>2020-08-08T13:00:58.472Z</time>
      </trkpt>
      <trkpt lat="63.86145" lon="10.22349">
        <ele>209.798553</ele>
        <time>2020-08-08T13:01:00.462Z</time>
      </trkpt>
      <trkpt lat="63.86157" lon="10.22347">
        <ele>209.714825</ele>
        <time>2020-08-08T13:01:03.449Z</time>
      </trkpt>
      <trkpt lat="63.86168" lon="10.22345">
        <ele>209.63873</ele>
        <time>2020-08-08T13:01:06.492Z</time>
      </trkpt>
      <trkpt lat="63.86178" lon="10.22344">
        <ele>209.570868</ele>
        <time>2020-08-08T13:01:09.460Z</time>
      </trkpt>
      <trkpt lat="63.86189" lon="10.22338">
        <ele>209.626629</ele>
        <time>2020-08-08T13:01:13.477Z</time>
      </trkpt>
      <trkpt lat="63.86201" lon="10.22338">
        <ele>209.763443</ele>
        <time>2020-08-08T13:01:17.446Z</time>
      </trkpt>
      <trkpt lat="63.86211" lon="10.22338">
        <ele>209.874753</ele>
        <time>2020-08-08T13:01:20.453Z</time>
      </trkpt>
      <trkpt lat="63.86221" lon="10.22338">
        <ele>209.989531</ele>
        <time>2020-08-08T13:01:23.480Z</time>
      </trkpt>
      <trkpt lat="63.86231" lon="10.22339">
        <ele>210.110261</ele>
        <time>2020-08-08T13:01:26.450Z</time>
      </trkpt>
      <trkpt lat="63.86241" lon="10.22341">
        <ele>210.230967</ele>
        <time>2020-08-08T13:01:29.461Z</time>
      </trkpt>
      <trkpt lat="63.86252" lon="10.22339">
        <ele>210.355399</ele>
        <time>2020-08-08T13:01:32.479Z</time>
      </trkpt>
      <trkpt lat="63.86264" lon="10.22336">
        <ele>210.49306</ele>
        <time>2020-08-08T13:01:35.451Z</time>
      </trkpt>
      <trkpt lat="63.86276" lon="10.22334">
        <ele>210.635896</ele>
        <time>2020-08-08T13:01:38.466Z</time>
      </trkpt>
      <trkpt lat="63.86285" lon="10.22333">
        <ele>210.740391</ele>
        <time>2020-08-08T13:01:40.490Z</time>
      </trkpt>
      <trkpt lat="63.86295" lon="10.22332">
        <ele>210.849402</ele>
        <time>2020-08-08T13:01:42.487Z</time>
      </trkpt>
      <trkpt lat="63.86305" lon="10.22332">
        <ele>210.970064</ele>
        <time>2020-08-08T13:01:44.478Z</time>
      </trkpt>
      <trkpt lat="63.86316" lon="10.22329">
        <ele>211.095779</ele>
        <time>2020-08-08T13:01:46.487Z</time>
      </trkpt>
      <trkpt lat="63.86327" lon="10.22328">
        <ele>211.221167</ele>
        <time>2020-08-08T13:01:48.465Z</time>
      </trkpt>
      <trkpt lat="63.86337" lon="10.22327">
        <ele>211.347604</ele>
        <time>2020-08-08T13:01:50.473Z</time>
      </trkpt>
      <trkpt lat="63.86348" lon="10.22325">
        <ele>211.472366</ele>
        <time>2020-08-08T13:01:52.498Z</time>
      </trkpt>
      <trkpt lat="63.86359" lon="10.22322">
        <ele>211.593615</ele>
        <time>2020-08-08T13:01:54.444Z</time>
      </trkpt>
      <trkpt lat="63.86368" lon="10.22319">
        <ele>211.378444</ele>
        <time>2020-08-08T13:01:56.491Z</time>
      </trkpt>
      <trkpt lat="63.86377" lon="10.22316">
        <ele>211.05734</ele>
        <time>2020-08-08T13:01:58.473Z</time>
      </trkpt>
      <trkpt lat="63.8639" lon="10.22311">
        <ele>210.588678</ele>
        <time>2020-08-08T13:02:01.503Z</time>
      </trkpt>
      <trkpt lat="63.86403" lon="10.22305">
        <ele>210.143232</ele>
        <time>2020-08-08T13:02:04.439Z</time>
      </trkpt>
      <trkpt lat="63.86414" lon="10.22297">
        <ele>209.714076</ele>
        <time>2020-08-08T13:02:07.473Z</time>
      </trkpt>
      <trkpt lat="63.86425" lon="10.22291">
        <ele>209.337115</ele>
        <time>2020-08-08T13:02:10.459Z</time>
      </trkpt>
      <trkpt lat="63.86434" lon="10.22285">
        <ele>208.998789</ele>
        <time>2020-08-08T13:02:13.478Z</time>
      </trkpt>
      <trkpt lat="63.86443" lon="10.22277">
        <ele>208.654875</ele>
        <time>2020-08-08T13:02:16.459Z</time>
      </trkpt>
      <trkpt lat="63.86453" lon="10.22268">
        <ele>208.284549</ele>
        <time>2020-08-08T13:02:19.460Z</time>
      </trkpt>
      <trkpt lat="63.86462" lon="10.22259">
        <ele>207.912858</ele>
        <time>2020-08-08T13:02:22.486Z</time>
      </trkpt>
      <trkpt lat="63.86473" lon="10.22249">
        <ele>207.510004</ele>
        <time>2020-08-08T13:02:25.490Z</time>
      </trkpt>
      <trkpt lat="63.86484" lon="10.22235">
        <ele>207.061767</ele>
        <time>2020-08-08T13:02:28.448Z</time>
      </trkpt>
      <trkpt lat="63.86493" lon="10.22225">
        <ele>206.724019</ele>
        <time>2020-08-08T13:02:30.462Z</time>
      </trkpt>
      <trkpt lat="63.86502" lon="10.22214">
        <ele>206.365393</ele>
        <time>2020-08-08T13:02:32.463Z</time>
      </trkpt>
      <trkpt lat="63.86511" lon="10.22202">
        <ele>205.975447</ele>
        <time>2020-08-08T13:02:34.460Z</time>
      </trkpt>
      <trkpt lat="63.86521" lon="10.22191">
        <ele>205.59703</ele>
        <time>2020-08-08T13:02:36.449Z</time>
      </trkpt>
      <trkpt lat="63.8653" lon="10.22179">
        <ele>205.292946</ele>
        <time>2020-08-08T13:02:38.462Z</time>
      </trkpt>
      <trkpt lat="63.86539" lon="10.22168">
        <ele>205.414293</ele>
        <time>2020-08-08T13:02:40.502Z</time>
      </trkpt>
      <trkpt lat="63.86547" lon="10.22159">
        <ele>205.530397</ele>
        <time>2020-08-08T13:02:42.457Z</time>
      </trkpt>
      <trkpt lat="63.86556" lon="10.22149">
        <ele>205.643705</ele>
        <time>2020-08-08T13:02:44.490Z</time>
      </trkpt>
      <trkpt lat="63.86568" lon="10.22138">
        <ele>205.803516</ele>
        <time>2020-08-08T13:02:47.480Z</time>
      </trkpt>
      <trkpt lat="63.8658" lon="10.2213">
        <ele>205.957597</ele>
        <time>2020-08-08T13:02:50.449Z</time>
      </trkpt>
      <trkpt lat="63.86592" lon="10.22123">
        <ele>206.102247</ele>
        <time>2020-08-08T13:02:53.455Z</time>
      </trkpt>
      <trkpt lat="63.86602" lon="10.22118">
        <ele>206.228352</ele>
        <time>2020-08-08T13:02:56.482Z</time>
      </trkpt>
      <trkpt lat="63.86612" lon="10.22114">
        <ele>206.349761</ele>
        <time>2020-08-08T13:02:59.470Z</time>
      </trkpt>
      <trkpt lat="63.86622" lon="10.2211">
        <ele>206.472268</ele>
        <time>2020-08-08T13:03:02.501Z</time>
      </trkpt>
      <trkpt lat="63.86633" lon="10.22108">
        <ele>206.602087</ele>
        <time>2020-08-08T13:03:05.460Z</time>
      </trkpt>
      <trkpt lat="63.86644" lon="10.22104">
        <ele>206.745769</ele>
        <time>2020-08-08T13:03:08.441Z</time>
      </trkpt>
      <trkpt lat="63.86657" lon="10.22099">
        <ele>206.895175</ele>
        <time>2020-08-08T13:03:11.466Z</time>
      </trkpt>
      <trkpt lat="63.8667" lon="10.22096">
        <ele>207.056713</ele>
        <time>2020-08-08T13:03:14.489Z</time>
      </trkpt>
      <trkpt lat="63.8668" lon="10.22093">
        <ele>207.176492</ele>
        <time>2020-08-08T13:03:16.463Z</time>
      </trkpt>
      <trkpt lat="63.86689" lon="10.2209">
        <ele>207.291788</ele>
        <time>2020-08-08T13:03:18.479Z</time>
      </trkpt>
      <trkpt lat="63.86698" lon="10.22087">
        <ele>207.402812</ele>
        <time>2020-08-08T13:03:20.496Z</time>
      </trkpt>
      <trkpt lat="63.86707" lon="10.22085">
        <ele>207.586595</ele>
        <time>2020-08-08T13:03:22.475Z</time>
      </trkpt>
      <trkpt lat="63.8672" lon="10.22081">
        <ele>207.925457</ele>
        <time>2020-08-08T13:03:25.442Z</time>
      </trkpt>
      <trkpt lat="63.86733" lon="10.22078">
        <ele>208.262778</ele>
        <time>2020-08-08T13:03:28.471Z</time>
      </trkpt>
      <trkpt lat="63.86746" lon="10.22075">
        <ele>208.597739</ele>
        <time>2020-08-08T13:03:31.453Z</time>
      </trkpt>
      <trkpt lat="63.86758" lon="10.22071">
        <ele>208.931745</ele>
        <time>2020-08-08T13:03:34.470Z</time>
      </trkpt>
      <trkpt lat="63.86767" lon="10.22067">
        <ele>209.168723</ele>
        <time>2020-08-08T13:03:36.502Z</time>
      </trkpt>
      <trkpt lat="63.86779" lon="10.22062">
        <ele>209.499701</ele>
        <time>2020-08-08T13:03:39.472Z</time>
      </trkpt>
      <trkpt lat="63.86792" lon="10.22056">
        <ele>209.823184</ele>
        <time>2020-08-08T13:03:42.502Z</time>
      </trkpt>
      <trkpt lat="63.86804" lon="10.2205">
        <ele>210.156529</ele>
        <time>2020-08-08T13:03:45.439Z</time>
      </trkpt>
      <trkpt lat="63.86817" lon="10.22041">
        <ele>210.50244</ele>
        <time>2020-08-08T13:03:48.470Z</time>
      </trkpt>
      <trkpt lat="63.86828" lon="10.2203">
        <ele>210.835738</ele>
        <time>2020-08-08T13:03:51.514Z</time>
      </trkpt>
      <trkpt lat="63.86837" lon="10.22021">
        <ele>211.074422</ele>
        <time>2020-08-08T13:03:53.479Z</time>
      </trkpt>
      <trkpt lat="63.86845" lon="10.2201">
        <ele>211.332044</ele>
        <time>2020-08-08T13:03:55.449Z</time>
      </trkpt>
      <trkpt lat="63.86853" lon="10.21997">
        <ele>211.588596</ele>
        <time>2020-08-08T13:03:57.479Z</time>
      </trkpt>
      <trkpt lat="63.86862" lon="10.21984">
        <ele>211.859103</ele>
        <time>2020-08-08T13:03:59.493Z</time>
      </trkpt>
      <trkpt lat="63.86871" lon="10.21971">
        <ele>212.153503</ele>
        <time>2020-08-08T13:04:01.445Z</time>
      </trkpt>
      <trkpt lat="63.86881" lon="10.21958">
        <ele>212.686135</ele>
        <time>2020-08-08T13:04:03.449Z</time>
      </trkpt>
      <trkpt lat="63.86891" lon="10.21946">
        <ele>213.233531</ele>
        <time>2020-08-08T13:04:05.474Z</time>
      </trkpt>
      <trkpt lat="63.86901" lon="10.21936">
        <ele>213.752946</ele>
        <time>2020-08-08T13:04:07.460Z</time>
      </trkpt>
      <trkpt lat="63.8691" lon="10.21927">
        <ele>214.237179</ele>
        <time>2020-08-08T13:04:09.511Z</time>
      </trkpt>
      <trkpt lat="63.86918" lon="10.2192">
        <ele>214.672084</ele>
        <time>2020-08-08T13:04:11.480Z</time>
      </trkpt>
      <trkpt lat="63.86929" lon="10.21911">
        <ele>215.250849</ele>
        <time>2020-08-08T13:04:14.494Z</time>
      </trkpt>
      <trkpt lat="63.86939" lon="10.21905">
        <ele>215.712312</ele>
        <time>2020-08-08T13:04:17.450Z</time>
      </trkpt>
      <trkpt lat="63.86949" lon="10.21901">
        <ele>216.202775</ele>
        <time>2020-08-08T13:04:21.462Z</time>
      </trkpt>
      <trkpt lat="63.86959" lon="10.21898">
        <ele>216.712743</ele>
        <time>2020-08-08T13:04:26.445Z</time>
      </trkpt>
      <trkpt lat="63.8697" lon="10.21898">
        <ele>217.231769</ele>
        <time>2020-08-08T13:04:31.491Z</time>
      </trkpt>
      <trkpt lat="63.8698" lon="10.21897">
        <ele>217.731541</ele>
        <time>2020-08-08T13:04:36.450Z</time>
      </trkpt>
      <trkpt lat="63.8699" lon="10.21895">
        <ele>218.233771</ele>
        <time>2020-08-08T13:04:41.471Z</time>
      </trkpt>
      <trkpt lat="63.87" lon="10.21893">
        <ele>218.71051</ele>
        <time>2020-08-08T13:04:46.473Z</time>
      </trkpt>
      <trkpt lat="63.87009" lon="10.21889">
        <ele>219.162981</ele>
        <time>2020-08-08T13:04:51.495Z</time>
      </trkpt>
      <trkpt lat="63.8702" lon="10.21889">
        <ele>219.691967</ele>
        <time>2020-08-08T13:04:57.463Z</time>
      </trkpt>
      <trkpt lat="63.8703" lon="10.21889">
        <ele>220.152849</ele>
        <time>2020-08-08T13:05:02.467Z</time>
      </trkpt>
      <trkpt lat="63.87039" lon="10.21888">
        <ele>220.604562</ele>
        <time>2020-08-08T13:05:07.480Z</time>
      </trkpt>
      <trkpt lat="63.87048" lon="10.21889">
        <ele>220.986768</ele>
        <time>2020-08-08T13:05:12.453Z</time>
      </trkpt>
      <trkpt lat="63.87057" lon="10.21889">
        <ele>221.268498</ele>
        <time>2020-08-08T13:05:17.464Z</time>
      </trkpt>
      <trkpt lat="63.87067" lon="10.21889">
        <ele>221.568412</ele>
        <time>2020-08-08T13:05:22.453Z</time>
      </trkpt>
      <trkpt lat="63.87077" lon="10.21887">
        <ele>221.869073</ele>
        <time>2020-08-08T13:05:26.447Z</time>
      </trkpt>
      <trkpt lat="63.87087" lon="10.21886">
        <ele>222.160193</ele>
        <time>2020-08-08T13:05:30.474Z</time>
      </trkpt>
      <trkpt lat="63.87097" lon="10.21886">
        <ele>222.484429</ele>
        <time>2020-08-08T13:05:34.470Z</time>
      </trkpt>
      <trkpt lat="63.87107" lon="10.21886">
        <ele>222.763241</ele>
        <time>2020-08-08T13:05:38.475Z</time>
      </trkpt>
      <trkpt lat="63.87117" lon="10.21886">
        <ele>223.066278</ele>
        <time>2020-08-08T13:05:42.480Z</time>
      </trkpt>
      <trkpt lat="63.87128" lon="10.21886">
        <ele>223.411643</ele>
        <time>2020-08-08T13:05:46.496Z</time>
      </trkpt>
      <trkpt lat="63.8714" lon="10.21885">
        <ele>223.760178</ele>
        <time>2020-08-08T13:05:50.449Z</time>
      </trkpt>
      <trkpt lat="63.8715" lon="10.21883">
        <ele>224.090979</ele>
        <time>2020-08-08T13:05:54.500Z</time>
      </trkpt>
      <trkpt lat="63.87162" lon="10.21881">
        <ele>224.440475</ele>
        <time>2020-08-08T13:05:58.478Z</time>
      </trkpt>
      <trkpt lat="63.87173" lon="10.2188">
        <ele>224.764944</ele>
        <time>2020-08-08T13:06:02.467Z</time>
      </trkpt>
      <trkpt lat="63.87182" lon="10.21876">
        <ele>225.051195</ele>
        <time>2020-08-08T13:06:05.449Z</time>
      </trkpt>
      <trkpt lat="63.87191" lon="10.21873">
        <ele>225.339334</ele>
        <time>2020-08-08T13:06:08.469Z</time>
      </trkpt>
      <trkpt lat="63.87201" lon="10.21872">
        <ele>225.630454</ele>
        <time>2020-08-08T13:06:11.461Z</time>
      </trkpt>
      <trkpt lat="63.87212" lon="10.21872">
        <ele>225.969738</ele>
        <time>2020-08-08T13:06:14.458Z</time>
      </trkpt>
      <trkpt lat="63.87224" lon="10.21871">
        <ele>226.318609</ele>
        <time>2020-08-08T13:06:17.473Z</time>
      </trkpt>
      <trkpt lat="63.87234" lon="10.2187">
        <ele>226.329725</ele>
        <time>2020-08-08T13:06:20.481Z</time>
      </trkpt>
      <trkpt lat="63.87245" lon="10.21866">
        <ele>226.32258</ele>
        <time>2020-08-08T13:06:23.473Z</time>
      </trkpt>
      <trkpt lat="63.87257" lon="10.21861">
        <ele>226.314977</ele>
        <time>2020-08-08T13:06:26.499Z</time>
      </trkpt>
      <trkpt lat="63.87269" lon="10.21858">
        <ele>226.306668</ele>
        <time>2020-08-08T13:06:29.469Z</time>
      </trkpt>
      <trkpt lat="63.87282" lon="10.21852">
        <ele>226.298152</ele>
        <time>2020-08-08T13:06:32.474Z</time>
      </trkpt>
      <trkpt lat="63.87294" lon="10.21847">
        <ele>226.289984</ele>
        <time>2020-08-08T13:06:35.491Z</time>
      </trkpt>
      <trkpt lat="63.87306" lon="10.21838">
        <ele>226.282082</ele>
        <time>2020-08-08T13:06:38.469Z</time>
      </trkpt>
      <trkpt lat="63.87317" lon="10.2183">
        <ele>226.274509</ele>
        <time>2020-08-08T13:06:41.449Z</time>
      </trkpt>
      <trkpt lat="63.87328" lon="10.21823">
        <ele>226.266894</ele>
        <time>2020-08-08T13:06:44.478Z</time>
      </trkpt>
      <trkpt lat="63.87339" lon="10.21817">
        <ele>226.259442</ele>
        <time>2020-08-08T13:06:47.463Z</time>
      </trkpt>
      <trkpt lat="63.8735" lon="10.2181">
        <ele>226.251953</ele>
        <time>2020-08-08T13:06:50.496Z</time>
      </trkpt>
      <trkpt lat="63.8736" lon="10.21804">
        <ele>226.24522</ele>
        <time>2020-08-08T13:06:53.476Z</time>
      </trkpt>
      <trkpt lat="63.8737" lon="10.21798">
        <ele>226.238668</ele>
        <time>2020-08-08T13:06:56.489Z</time>
      </trkpt>
      <trkpt lat="63.87379" lon="10.21791">
        <ele>226.232447</ele>
        <time>2020-08-08T13:06:59.457Z</time>
      </trkpt>
      <trkpt lat="63.87388" lon="10.21784">
        <ele>226.22628</ele>
        <time>2020-08-08T13:07:02.458Z</time>
      </trkpt>
      <trkpt lat="63.87399" lon="10.21777">
        <ele>226.21613</ele>
        <time>2020-08-08T13:07:06.494Z</time>
      </trkpt>
      <trkpt lat="63.8741" lon="10.21769">
        <ele>226.007206</ele>
        <time>2020-08-08T13:07:10.467Z</time>
      </trkpt>
      <trkpt lat="63.87421" lon="10.21762">
        <ele>225.807412</ele>
        <time>2020-08-08T13:07:14.474Z</time>
      </trkpt>
      <trkpt lat="63.87431" lon="10.21753">
        <ele>225.622591</ele>
        <time>2020-08-08T13:07:18.465Z</time>
      </trkpt>
      <trkpt lat="63.87442" lon="10.21746">
        <ele>225.421336</ele>
        <time>2020-08-08T13:07:22.449Z</time>
      </trkpt>
      <trkpt lat="63.8745" lon="10.21739">
        <ele>225.260165</ele>
        <time>2020-08-08T13:07:25.480Z</time>
      </trkpt>
      <trkpt lat="63.8746" lon="10.21733">
        <ele>225.08845</ele>
        <time>2020-08-08T13:07:28.449Z</time>
      </trkpt>
      <trkpt lat="63.8747" lon="10.21726">
        <ele>224.891021</ele>
        <time>2020-08-08T13:07:31.472Z</time>
      </trkpt>
      <trkpt lat="63.87482" lon="10.21717">
        <ele>224.671796</ele>
        <time>2020-08-08T13:07:34.474Z</time>
      </trkpt>
      <trkpt lat="63.87495" lon="10.21708">
        <ele>224.432162</ele>
        <time>2020-08-08T13:07:37.495Z</time>
      </trkpt>
      <trkpt lat="63.87504" lon="10.217">
        <ele>224.264375</ele>
        <time>2020-08-08T13:07:39.477Z</time>
      </trkpt>
      <trkpt lat="63.87513" lon="10.21691">
        <ele>224.091836</ele>
        <time>2020-08-08T13:07:41.481Z</time>
      </trkpt>
      <trkpt lat="63.87523" lon="10.21685">
        <ele>223.899527</ele>
        <time>2020-08-08T13:07:43.489Z</time>
      </trkpt>
      <trkpt lat="63.87536" lon="10.21678">
        <ele>223.677363</ele>
        <time>2020-08-08T13:07:45.471Z</time>
      </trkpt>
      <trkpt lat="63.87549" lon="10.21669">
        <ele>223.43002</ele>
        <time>2020-08-08T13:07:47.469Z</time>
      </trkpt>
      <trkpt lat="63.87564" lon="10.2166">
        <ele>223.166106</ele>
        <time>2020-08-08T13:07:49.479Z</time>
      </trkpt>
      <trkpt lat="63.87579" lon="10.21651">
        <ele>222.715976</ele>
        <time>2020-08-08T13:07:51.458Z</time>
      </trkpt>
      <trkpt lat="63.87594" lon="10.2164">
        <ele>222.127099</ele>
        <time>2020-08-08T13:07:53.497Z</time>
      </trkpt>
      <trkpt lat="63.87611" lon="10.2163">
        <ele>221.504741</ele>
        <time>2020-08-08T13:07:55.490Z</time>
      </trkpt>
      <trkpt lat="63.87627" lon="10.21622">
        <ele>220.87726</ele>
        <time>2020-08-08T13:07:57.447Z</time>
      </trkpt>
      <trkpt lat="63.87645" lon="10.21614">
        <ele>220.224231</ele>
        <time>2020-08-08T13:07:59.464Z</time>
      </trkpt>
      <trkpt lat="63.87662" lon="10.21608">
        <ele>219.561318</ele>
        <time>2020-08-08T13:08:01.466Z</time>
      </trkpt>
      <trkpt lat="63.87672" lon="10.21605">
        <ele>219.224333</ele>
        <time>2020-08-08T13:08:02.450Z</time>
      </trkpt>
      <trkpt lat="63.87681" lon="10.21603">
        <ele>218.880217</ele>
        <time>2020-08-08T13:08:03.491Z</time>
      </trkpt>
      <trkpt lat="63.8769" lon="10.21601">
        <ele>218.536884</ele>
        <time>2020-08-08T13:08:04.492Z</time>
      </trkpt>
      <trkpt lat="63.87699" lon="10.216">
        <ele>218.197711</ele>
        <time>2020-08-08T13:08:05.452Z</time>
      </trkpt>
      <trkpt lat="63.87708" lon="10.21599">
        <ele>217.8664</ele>
        <time>2020-08-08T13:08:06.498Z</time>
      </trkpt>
      <trkpt lat="63.87717" lon="10.21599">
        <ele>217.53166</ele>
        <time>2020-08-08T13:08:07.462Z</time>
      </trkpt>
      <trkpt lat="63.87735" lon="10.216">
        <ele>216.88769</ele>
        <time>2020-08-08T13:08:09.462Z</time>
      </trkpt>
      <trkpt lat="63.87744" lon="10.21601">
        <ele>216.552703</ele>
        <time>2020-08-08T13:08:10.477Z</time>
      </trkpt>
      <trkpt lat="63.87761" lon="10.21603">
        <ele>215.792496</ele>
        <time>2020-08-08T13:08:12.466Z</time>
      </trkpt>
      <trkpt lat="63.87776" lon="10.21606">
        <ele>215.060877</ele>
        <time>2020-08-08T13:08:14.476Z</time>
      </trkpt>
      <trkpt lat="63.87791" lon="10.2161">
        <ele>214.345574</ele>
        <time>2020-08-08T13:08:16.480Z</time>
      </trkpt>
      <trkpt lat="63.87806" lon="10.21613">
        <ele>213.661968</ele>
        <time>2020-08-08T13:08:18.455Z</time>
      </trkpt>
      <trkpt lat="63.87819" lon="10.21614">
        <ele>213.031393</ele>
        <time>2020-08-08T13:08:20.452Z</time>
      </trkpt>
      <trkpt lat="63.87832" lon="10.21619">
        <ele>212.428146</ele>
        <time>2020-08-08T13:08:22.510Z</time>
      </trkpt>
      <trkpt lat="63.87843" lon="10.21621">
        <ele>211.876273</ele>
        <time>2020-08-08T13:08:24.497Z</time>
      </trkpt>
      <trkpt lat="63.87855" lon="10.21623">
        <ele>211.325488</ele>
        <time>2020-08-08T13:08:26.453Z</time>
      </trkpt>
      <trkpt lat="63.87865" lon="10.21627">
        <ele>210.827412</ele>
        <time>2020-08-08T13:08:28.454Z</time>
      </trkpt>
      <trkpt lat="63.87877" lon="10.21629">
        <ele>210.261598</ele>
        <time>2020-08-08T13:08:30.484Z</time>
      </trkpt>
      <trkpt lat="63.87889" lon="10.21632">
        <ele>209.694729</ele>
        <time>2020-08-08T13:08:32.515Z</time>
      </trkpt>
      <trkpt lat="63.879" lon="10.21634">
        <ele>209.149361</ele>
        <time>2020-08-08T13:08:34.463Z</time>
      </trkpt>
      <trkpt lat="63.87911" lon="10.21635">
        <ele>208.665558</ele>
        <time>2020-08-08T13:08:36.501Z</time>
      </trkpt>
      <trkpt lat="63.8792" lon="10.21635">
        <ele>208.201575</ele>
        <time>2020-08-08T13:08:38.441Z</time>
      </trkpt>
      <trkpt lat="63.8793" lon="10.21636">
        <ele>207.902287</ele>
        <time>2020-08-08T13:08:40.468Z</time>
      </trkpt>
      <trkpt lat="63.87939" lon="10.21639">
        <ele>207.883591</ele>
        <time>2020-08-08T13:08:42.449Z</time>
      </trkpt>
      <trkpt lat="63.87952" lon="10.21642">
        <ele>207.858166</ele>
        <time>2020-08-08T13:08:45.457Z</time>
      </trkpt>
      <trkpt lat="63.87964" lon="10.21644">
        <ele>207.835143</ele>
        <time>2020-08-08T13:08:48.482Z</time>
      </trkpt>
      <trkpt lat="63.87976" lon="10.21647">
        <ele>207.811282</ele>
        <time>2020-08-08T13:08:51.458Z</time>
      </trkpt>
      <trkpt lat="63.87987" lon="10.21649">
        <ele>207.788267</ele>
        <time>2020-08-08T13:08:54.500Z</time>
      </trkpt>
      <trkpt lat="63.88" lon="10.21652">
        <ele>207.76244</ele>
        <time>2020-08-08T13:08:57.465Z</time>
      </trkpt>
      <trkpt lat="63.88013" lon="10.21656">
        <ele>207.737351</ele>
        <time>2020-08-08T13:09:00.466Z</time>
      </trkpt>
      <trkpt lat="63.88026" lon="10.21658">
        <ele>207.710981</ele>
        <time>2020-08-08T13:09:03.453Z</time>
      </trkpt>
      <trkpt lat="63.88035" lon="10.21659">
        <ele>207.692398</ele>
        <time>2020-08-08T13:09:05.474Z</time>
      </trkpt>
      <trkpt lat="63.88045" lon="10.21659">
        <ele>207.673225</ele>
        <time>2020-08-08T13:09:07.513Z</time>
      </trkpt>
      <trkpt lat="63.88055" lon="10.21659">
        <ele>207.65405</ele>
        <time>2020-08-08T13:09:09.461Z</time>
      </trkpt>
      <trkpt lat="63.88064" lon="10.21659">
        <ele>207.63626</ele>
        <time>2020-08-08T13:09:11.456Z</time>
      </trkpt>
      <trkpt lat="63.88077" lon="10.21657">
        <ele>207.609305</ele>
        <time>2020-08-08T13:09:14.485Z</time>
      </trkpt>
      <trkpt lat="63.88087" lon="10.21654">
        <ele>207.58999</ele>
        <time>2020-08-08T13:09:16.502Z</time>
      </trkpt>
      <trkpt lat="63.88097" lon="10.21652">
        <ele>207.570124</ele>
        <time>2020-08-08T13:09:18.496Z</time>
      </trkpt>
      <trkpt lat="63.88107" lon="10.2165">
        <ele>207.564585</ele>
        <time>2020-08-08T13:09:20.473Z</time>
      </trkpt>
      <trkpt lat="63.88117" lon="10.21647">
        <ele>207.645081</ele>
        <time>2020-08-08T13:09:22.450Z</time>
      </trkpt>
      <trkpt lat="63.88127" lon="10.21644">
        <ele>207.725065</ele>
        <time>2020-08-08T13:09:24.451Z</time>
      </trkpt>
      <trkpt lat="63.88137" lon="10.2164">
        <ele>207.800462</ele>
        <time>2020-08-08T13:09:26.452Z</time>
      </trkpt>
      <trkpt lat="63.88146" lon="10.21638">
        <ele>207.873685</ele>
        <time>2020-08-08T13:09:28.457Z</time>
      </trkpt>
      <trkpt lat="63.88155" lon="10.21635">
        <ele>207.94819</ele>
        <time>2020-08-08T13:09:30.471Z</time>
      </trkpt>
      <trkpt lat="63.88168" lon="10.2163">
        <ele>208.052174</ele>
        <time>2020-08-08T13:09:33.462Z</time>
      </trkpt>
      <trkpt lat="63.88181" lon="10.21627">
        <ele>208.157491</ele>
        <time>2020-08-08T13:09:36.450Z</time>
      </trkpt>
      <trkpt lat="63.88191" lon="10.21623">
        <ele>208.236183</ele>
        <time>2020-08-08T13:09:38.481Z</time>
      </trkpt>
      <trkpt lat="63.88201" lon="10.21618">
        <ele>208.315685</ele>
        <time>2020-08-08T13:09:40.450Z</time>
      </trkpt>
      <trkpt lat="63.8821" lon="10.21614">
        <ele>208.388798</ele>
        <time>2020-08-08T13:09:42.461Z</time>
      </trkpt>
      <trkpt lat="63.88223" lon="10.21608">
        <ele>208.496554</ele>
        <time>2020-08-08T13:09:45.481Z</time>
      </trkpt>
      <trkpt lat="63.88233" lon="10.21602">
        <ele>208.573051</ele>
        <time>2020-08-08T13:09:47.442Z</time>
      </trkpt>
      <trkpt lat="63.88243" lon="10.21598">
        <ele>208.651556</ele>
        <time>2020-08-08T13:09:49.485Z</time>
      </trkpt>
      <trkpt lat="63.88252" lon="10.21593">
        <ele>208.729215</ele>
        <time>2020-08-08T13:09:51.517Z</time>
      </trkpt>
      <trkpt lat="63.88262" lon="10.21588">
        <ele>208.806947</ele>
        <time>2020-08-08T13:09:53.454Z</time>
      </trkpt>
      <trkpt lat="63.88272" lon="10.21585">
        <ele>208.885364</ele>
        <time>2020-08-08T13:09:55.495Z</time>
      </trkpt>
      <trkpt lat="63.88281" lon="10.21582">
        <ele>208.963051</ele>
        <time>2020-08-08T13:09:57.454Z</time>
      </trkpt>
      <trkpt lat="63.8829" lon="10.2158">
        <ele>208.972452</ele>
        <time>2020-08-08T13:09:59.459Z</time>
      </trkpt>
      <trkpt lat="63.883" lon="10.21579">
        <ele>208.967392</ele>
        <time>2020-08-08T13:10:01.456Z</time>
      </trkpt>
      <trkpt lat="63.88313" lon="10.21578">
        <ele>208.960062</ele>
        <time>2020-08-08T13:10:04.451Z</time>
      </trkpt>
      <trkpt lat="63.88325" lon="10.21578">
        <ele>208.953065</ele>
        <time>2020-08-08T13:10:07.473Z</time>
      </trkpt>
      <trkpt lat="63.88338" lon="10.21577">
        <ele>208.945782</ele>
        <time>2020-08-08T13:10:10.460Z</time>
      </trkpt>
      <trkpt lat="63.88352" lon="10.21578">
        <ele>208.93845</ele>
        <time>2020-08-08T13:10:13.458Z</time>
      </trkpt>
      <trkpt lat="63.88361" lon="10.21579">
        <ele>208.933218</ele>
        <time>2020-08-08T13:10:15.442Z</time>
      </trkpt>
      <trkpt lat="63.88371" lon="10.2158">
        <ele>208.927717</ele>
        <time>2020-08-08T13:10:17.523Z</time>
      </trkpt>
      <trkpt lat="63.8838" lon="10.21581">
        <ele>208.922436</ele>
        <time>2020-08-08T13:10:19.498Z</time>
      </trkpt>
      <trkpt lat="63.8839" lon="10.21581">
        <ele>208.917327</ele>
        <time>2020-08-08T13:10:21.454Z</time>
      </trkpt>
      <trkpt lat="63.88399" lon="10.21581">
        <ele>208.912274</ele>
        <time>2020-08-08T13:10:23.514Z</time>
      </trkpt>
      <trkpt lat="63.88412" lon="10.21583">
        <ele>208.905143</ele>
        <time>2020-08-08T13:10:26.474Z</time>
      </trkpt>
      <trkpt lat="63.88424" lon="10.21585">
        <ele>208.898134</ele>
        <time>2020-08-08T13:10:29.489Z</time>
      </trkpt>
      <trkpt lat="63.88437" lon="10.21586">
        <ele>208.890744</ele>
        <time>2020-08-08T13:10:32.502Z</time>
      </trkpt>
      <trkpt lat="63.88451" lon="10.21588">
        <ele>208.883293</ele>
        <time>2020-08-08T13:10:35.461Z</time>
      </trkpt>
      <trkpt lat="63.88463" lon="10.21591">
        <ele>208.875372</ele>
        <time>2020-08-08T13:10:38.474Z</time>
      </trkpt>
      <trkpt lat="63.88474" lon="10.21593">
        <ele>208.730385</ele>
        <time>2020-08-08T13:10:41.456Z</time>
      </trkpt>
      <trkpt lat="63.88487" lon="10.21596">
        <ele>208.576271</ele>
        <time>2020-08-08T13:10:44.477Z</time>
      </trkpt>
      <trkpt lat="63.885" lon="10.21598">
        <ele>208.418901</ele>
        <time>2020-08-08T13:10:47.468Z</time>
      </trkpt>
      <trkpt lat="63.88513" lon="10.21602">
        <ele>208.252175</ele>
        <time>2020-08-08T13:10:50.467Z</time>
      </trkpt>
      <trkpt lat="63.88523" lon="10.21602">
        <ele>208.132059</ele>
        <time>2020-08-08T13:10:52.519Z</time>
      </trkpt>
      <trkpt lat="63.88533" lon="10.21602">
        <ele>208.015624</ele>
        <time>2020-08-08T13:10:54.497Z</time>
      </trkpt>
      <trkpt lat="63.88542" lon="10.21601">
        <ele>207.897952</ele>
        <time>2020-08-08T13:10:56.466Z</time>
      </trkpt>
      <trkpt lat="63.88552" lon="10.216">
        <ele>207.771418</ele>
        <time>2020-08-08T13:10:58.493Z</time>
      </trkpt>
      <trkpt lat="63.88563" lon="10.21597">
        <ele>207.63819</ele>
        <time>2020-08-08T13:11:00.491Z</time>
      </trkpt>
      <trkpt lat="63.88575" lon="10.21593">
        <ele>207.491053</ele>
        <time>2020-08-08T13:11:02.467Z</time>
      </trkpt>
      <trkpt lat="63.88587" lon="10.2159">
        <ele>207.343916</ele>
        <time>2020-08-08T13:11:04.448Z</time>
      </trkpt>
      <trkpt lat="63.88599" lon="10.21585">
        <ele>207.192431</ele>
        <time>2020-08-08T13:11:06.451Z</time>
      </trkpt>
      <trkpt lat="63.88612" lon="10.2158">
        <ele>207.037686</ele>
        <time>2020-08-08T13:11:08.496Z</time>
      </trkpt>
      <trkpt lat="63.88625" lon="10.21576">
        <ele>206.877808</ele>
        <time>2020-08-08T13:11:10.456Z</time>
      </trkpt>
      <trkpt lat="63.88638" lon="10.2157">
        <ele>206.707569</ele>
        <time>2020-08-08T13:11:12.473Z</time>
      </trkpt>
      <trkpt lat="63.88653" lon="10.21565">
        <ele>206.473295</ele>
        <time>2020-08-08T13:11:14.512Z</time>
      </trkpt>
      <trkpt lat="63.88667" lon="10.21559">
        <ele>206.237645</ele>
        <time>2020-08-08T13:11:16.468Z</time>
      </trkpt>
      <trkpt lat="63.8868" lon="10.21553">
        <ele>206.002256</ele>
        <time>2020-08-08T13:11:18.500Z</time>
      </trkpt>
      <trkpt lat="63.88694" lon="10.21549">
        <ele>205.772911</ele>
        <time>2020-08-08T13:11:20.461Z</time>
      </trkpt>
      <trkpt lat="63.88707" lon="10.21545">
        <ele>205.552702</ele>
        <time>2020-08-08T13:11:22.474Z</time>
      </trkpt>
      <trkpt lat="63.8872" lon="10.21542">
        <ele>205.323066</ele>
        <time>2020-08-08T13:11:24.493Z</time>
      </trkpt>
      <trkpt lat="63.88734" lon="10.21539">
        <ele>205.087131</ele>
        <time>2020-08-08T13:11:26.463Z</time>
      </trkpt>
      <trkpt lat="63.88749" lon="10.21537">
        <ele>204.846332</ele>
        <time>2020-08-08T13:11:28.497Z</time>
      </trkpt>
      <trkpt lat="63.88763" lon="10.21536">
        <ele>204.611006</ele>
        <time>2020-08-08T13:11:30.459Z</time>
      </trkpt>
      <trkpt lat="63.88777" lon="10.21535">
        <ele>204.367109</ele>
        <time>2020-08-08T13:11:32.498Z</time>
      </trkpt>
      <trkpt lat="63.88791" lon="10.21533">
        <ele>204.13008</ele>
        <time>2020-08-08T13:11:34.440Z</time>
      </trkpt>
      <trkpt lat="63.88805" lon="10.21532">
        <ele>203.894452</ele>
        <time>2020-08-08T13:11:36.454Z</time>
      </trkpt>
      <trkpt lat="63.88819" lon="10.2153">
        <ele>203.657101</ele>
        <time>2020-08-08T13:11:38.471Z</time>
      </trkpt>
      <trkpt lat="63.88833" lon="10.21528">
        <ele>203.113219</ele>
        <time>2020-08-08T13:11:40.474Z</time>
      </trkpt>
      <trkpt lat="63.88846" lon="10.21527">
        <ele>202.588844</ele>
        <time>2020-08-08T13:11:42.456Z</time>
      </trkpt>
      <trkpt lat="63.88859" lon="10.21526">
        <ele>202.035764</ele>
        <time>2020-08-08T13:11:44.475Z</time>
      </trkpt>
      <trkpt lat="63.88874" lon="10.21525">
        <ele>201.42906</ele>
        <time>2020-08-08T13:11:46.475Z</time>
      </trkpt>
      <trkpt lat="63.8889" lon="10.21523">
        <ele>200.781282</ele>
        <time>2020-08-08T13:11:48.479Z</time>
      </trkpt>
      <trkpt lat="63.88906" lon="10.21521">
        <ele>200.105247</ele>
        <time>2020-08-08T13:11:50.479Z</time>
      </trkpt>
      <trkpt lat="63.88924" lon="10.2152">
        <ele>199.396274</ele>
        <time>2020-08-08T13:11:52.443Z</time>
      </trkpt>
      <trkpt lat="63.88941" lon="10.2152">
        <ele>198.671507</ele>
        <time>2020-08-08T13:11:54.446Z</time>
      </trkpt>
      <trkpt lat="63.8895" lon="10.2152">
        <ele>198.302965</ele>
        <time>2020-08-08T13:11:55.462Z</time>
      </trkpt>
      <trkpt lat="63.8896" lon="10.21522">
        <ele>197.920926</ele>
        <time>2020-08-08T13:11:56.507Z</time>
      </trkpt>
      <trkpt lat="63.88969" lon="10.21524">
        <ele>197.526344</ele>
        <time>2020-08-08T13:11:57.474Z</time>
      </trkpt>
      <trkpt lat="63.88979" lon="10.21526">
        <ele>197.127358</ele>
        <time>2020-08-08T13:11:58.484Z</time>
      </trkpt>
      <trkpt lat="63.88989" lon="10.21529">
        <ele>196.726747</ele>
        <time>2020-08-08T13:11:59.485Z</time>
      </trkpt>
      <trkpt lat="63.88999" lon="10.21532">
        <ele>196.315626</ele>
        <time>2020-08-08T13:12:00.493Z</time>
      </trkpt>
      <trkpt lat="63.89008" lon="10.21537">
        <ele>195.838389</ele>
        <time>2020-08-08T13:12:01.447Z</time>
      </trkpt>
      <trkpt lat="63.89019" lon="10.21543">
        <ele>195.336658</ele>
        <time>2020-08-08T13:12:02.462Z</time>
      </trkpt>
      <trkpt lat="63.89029" lon="10.21549">
        <ele>194.821996</ele>
        <time>2020-08-08T13:12:03.458Z</time>
      </trkpt>
      <trkpt lat="63.89039" lon="10.21557">
        <ele>194.308598</ele>
        <time>2020-08-08T13:12:04.472Z</time>
      </trkpt>
      <trkpt lat="63.89049" lon="10.21565">
        <ele>193.794862</ele>
        <time>2020-08-08T13:12:05.450Z</time>
      </trkpt>
      <trkpt lat="63.89059" lon="10.21575">
        <ele>193.299085</ele>
        <time>2020-08-08T13:12:06.452Z</time>
      </trkpt>
      <trkpt lat="63.89068" lon="10.21586">
        <ele>192.793075</ele>
        <time>2020-08-08T13:12:07.461Z</time>
      </trkpt>
      <trkpt lat="63.89078" lon="10.21598">
        <ele>192.275882</ele>
        <time>2020-08-08T13:12:08.459Z</time>
      </trkpt>
      <trkpt lat="63.89086" lon="10.21612">
        <ele>191.766664</ele>
        <time>2020-08-08T13:12:09.448Z</time>
      </trkpt>
      <trkpt lat="63.89094" lon="10.21627">
        <ele>191.300754</ele>
        <time>2020-08-08T13:12:10.461Z</time>
      </trkpt>
      <trkpt lat="63.891" lon="10.21643">
        <ele>190.841476</ele>
        <time>2020-08-08T13:12:11.487Z</time>
      </trkpt>
      <trkpt lat="63.89106" lon="10.21659">
        <ele>190.401066</ele>
        <time>2020-08-08T13:12:12.465Z</time>
      </trkpt>
      <trkpt lat="63.89112" lon="10.21675">
        <ele>189.963424</ele>
        <time>2020-08-08T13:12:13.469Z</time>
      </trkpt>
      <trkpt lat="63.89117" lon="10.21692">
        <ele>189.524408</ele>
        <time>2020-08-08T13:12:14.485Z</time>
      </trkpt>
      <trkpt lat="63.89123" lon="10.21709">
        <ele>189.084259</ele>
        <time>2020-08-08T13:12:15.456Z</time>
      </trkpt>
      <trkpt lat="63.89127" lon="10.21727">
        <ele>188.646475</ele>
        <time>2020-08-08T13:12:16.451Z</time>
      </trkpt>
      <trkpt lat="63.89132" lon="10.21745">
        <ele>188.202583</ele>
        <time>2020-08-08T13:12:17.473Z</time>
      </trkpt>
      <trkpt lat="63.89137" lon="10.21764">
        <ele>187.757187</ele>
        <time>2020-08-08T13:12:18.496Z</time>
      </trkpt>
      <trkpt lat="63.89141" lon="10.21782">
        <ele>187.026271</ele>
        <time>2020-08-08T13:12:19.461Z</time>
      </trkpt>
      <trkpt lat="63.89145" lon="10.21801">
        <ele>186.23906</ele>
        <time>2020-08-08T13:12:20.506Z</time>
      </trkpt>
      <trkpt lat="63.8915" lon="10.21819">
        <ele>185.450173</ele>
        <time>2020-08-08T13:12:21.458Z</time>
      </trkpt>
      <trkpt lat="63.89155" lon="10.21837">
        <ele>184.662387</ele>
        <time>2020-08-08T13:12:22.459Z</time>
      </trkpt>
      <trkpt lat="63.8916" lon="10.21856">
        <ele>183.850977</ele>
        <time>2020-08-08T13:12:23.428Z</time>
      </trkpt>
      <trkpt lat="63.89165" lon="10.21874">
        <ele>183.044993</ele>
        <time>2020-08-08T13:12:24.459Z</time>
      </trkpt>
      <trkpt lat="63.8917" lon="10.21893">
        <ele>182.21979</ele>
        <time>2020-08-08T13:12:25.461Z</time>
      </trkpt>
      <trkpt lat="63.89175" lon="10.21912">
        <ele>181.397514</ele>
        <time>2020-08-08T13:12:26.434Z</time>
      </trkpt>
      <trkpt lat="63.89181" lon="10.2193">
        <ele>180.577933</ele>
        <time>2020-08-08T13:12:27.450Z</time>
      </trkpt>
      <trkpt lat="63.89187" lon="10.21947">
        <ele>179.771449</ele>
        <time>2020-08-08T13:12:28.444Z</time>
      </trkpt>
      <trkpt lat="63.89192" lon="10.21964">
        <ele>178.968756</ele>
        <time>2020-08-08T13:12:29.444Z</time>
      </trkpt>
      <trkpt lat="63.89199" lon="10.21981">
        <ele>178.139601</ele>
        <time>2020-08-08T13:12:30.443Z</time>
      </trkpt>
      <trkpt lat="63.89205" lon="10.21998">
        <ele>177.313479</ele>
        <time>2020-08-08T13:12:31.453Z</time>
      </trkpt>
      <trkpt lat="63.89212" lon="10.22014">
        <ele>176.504076</ele>
        <time>2020-08-08T13:12:32.470Z</time>
      </trkpt>
      <trkpt lat="63.89218" lon="10.2203">
        <ele>175.68293</ele>
        <time>2020-08-08T13:12:33.518Z</time>
      </trkpt>
      <trkpt lat="63.89225" lon="10.22045">
        <ele>174.862363</ele>
        <time>2020-08-08T13:12:34.590Z</time>
      </trkpt>
      <trkpt lat="63.89239" lon="10.22076">
        <ele>173.25238</ele>
        <time>2020-08-08T13:12:36.440Z</time>
      </trkpt>
      <trkpt lat="63.89246" lon="10.22091">
        <ele>172.462812</ele>
        <time>2020-08-08T13:12:37.425Z</time>
      </trkpt>
      <trkpt lat="63.89252" lon="10.22106">
        <ele>171.920784</ele>
        <time>2020-08-08T13:12:38.467Z</time>
      </trkpt>
      <trkpt lat="63.89259" lon="10.22121">
        <ele>171.378756</ele>
        <time>2020-08-08T13:12:39.446Z</time>
      </trkpt>
      <trkpt lat="63.89266" lon="10.22135">
        <ele>170.836102</ele>
        <time>2020-08-08T13:12:40.427Z</time>
      </trkpt>
      <trkpt lat="63.89272" lon="10.2215">
        <ele>170.31301</ele>
        <time>2020-08-08T13:12:41.473Z</time>
      </trkpt>
      <trkpt lat="63.89279" lon="10.22164">
        <ele>169.790988</ele>
        <time>2020-08-08T13:12:42.461Z</time>
      </trkpt>
      <trkpt lat="63.89292" lon="10.22191">
        <ele>168.75041</ele>
        <time>2020-08-08T13:12:44.442Z</time>
      </trkpt>
      <trkpt lat="63.89299" lon="10.22205">
        <ele>168.219571</ele>
        <time>2020-08-08T13:12:45.480Z</time>
      </trkpt>
      <trkpt lat="63.89306" lon="10.22219">
        <ele>167.70101</ele>
        <time>2020-08-08T13:12:46.451Z</time>
      </trkpt>
      <trkpt lat="63.89312" lon="10.22232">
        <ele>167.182449</ele>
        <time>2020-08-08T13:12:47.453Z</time>
      </trkpt>
      <trkpt lat="63.89319" lon="10.22246">
        <ele>166.654343</ele>
        <time>2020-08-08T13:12:48.492Z</time>
      </trkpt>
      <trkpt lat="63.89326" lon="10.2226">
        <ele>166.130591</ele>
        <time>2020-08-08T13:12:49.455Z</time>
      </trkpt>
      <trkpt lat="63.89339" lon="10.22287">
        <ele>165.113121</ele>
        <time>2020-08-08T13:12:51.465Z</time>
      </trkpt>
      <trkpt lat="63.89352" lon="10.22314">
        <ele>164.09998</ele>
        <time>2020-08-08T13:12:53.448Z</time>
      </trkpt>
      <trkpt lat="63.89364" lon="10.2234">
        <ele>163.12175</ele>
        <time>2020-08-08T13:12:55.486Z</time>
      </trkpt>
      <trkpt lat="63.89376" lon="10.22366">
        <ele>162.175589</ele>
        <time>2020-08-08T13:12:57.451Z</time>
      </trkpt>
      <trkpt lat="63.89389" lon="10.22391">
        <ele>161.352706</ele>
        <time>2020-08-08T13:12:59.469Z</time>
      </trkpt>
      <trkpt lat="63.89401" lon="10.22416">
        <ele>160.56103</ele>
        <time>2020-08-08T13:13:01.451Z</time>
      </trkpt>
      <trkpt lat="63.89412" lon="10.22441">
        <ele>159.792611</ele>
        <time>2020-08-08T13:13:03.491Z</time>
      </trkpt>
      <trkpt lat="63.89424" lon="10.22466">
        <ele>159.018677</ele>
        <time>2020-08-08T13:13:05.478Z</time>
      </trkpt>
      <trkpt lat="63.89436" lon="10.22493">
        <ele>158.192283</ele>
        <time>2020-08-08T13:13:07.457Z</time>
      </trkpt>
      <trkpt lat="63.89443" lon="10.22507">
        <ele>157.745216</ele>
        <time>2020-08-08T13:13:08.493Z</time>
      </trkpt>
      <trkpt lat="63.8945" lon="10.22522">
        <ele>157.283104</ele>
        <time>2020-08-08T13:13:09.460Z</time>
      </trkpt>
      <trkpt lat="63.89457" lon="10.22537">
        <ele>156.816409</ele>
        <time>2020-08-08T13:13:10.535Z</time>
      </trkpt>
      <trkpt lat="63.89464" lon="10.22553">
        <ele>156.333854</ele>
        <time>2020-08-08T13:13:11.465Z</time>
      </trkpt>
      <trkpt lat="63.89471" lon="10.22569">
        <ele>155.838421</ele>
        <time>2020-08-08T13:13:12.457Z</time>
      </trkpt>
      <trkpt lat="63.89479" lon="10.22586">
        <ele>155.33655</ele>
        <time>2020-08-08T13:13:13.490Z</time>
      </trkpt>
      <trkpt lat="63.89486" lon="10.22602">
        <ele>154.822852</ele>
        <time>2020-08-08T13:13:14.482Z</time>
      </trkpt>
      <trkpt lat="63.89494" lon="10.22618">
        <ele>154.302706</ele>
        <time>2020-08-08T13:13:15.458Z</time>
      </trkpt>
      <trkpt lat="63.89502" lon="10.22635">
        <ele>153.776835</ele>
        <time>2020-08-08T13:13:16.457Z</time>
      </trkpt>
      <trkpt lat="63.89511" lon="10.22652">
        <ele>153.221191</ele>
        <time>2020-08-08T13:13:17.462Z</time>
      </trkpt>
      <trkpt lat="63.89519" lon="10.22668">
        <ele>152.603264</ele>
        <time>2020-08-08T13:13:18.513Z</time>
      </trkpt>
      <trkpt lat="63.89528" lon="10.22683">
        <ele>151.978475</ele>
        <time>2020-08-08T13:13:19.466Z</time>
      </trkpt>
      <trkpt lat="63.89537" lon="10.22698">
        <ele>151.35525</ele>
        <time>2020-08-08T13:13:20.467Z</time>
      </trkpt>
      <trkpt lat="63.89546" lon="10.22712">
        <ele>150.753349</ele>
        <time>2020-08-08T13:13:21.495Z</time>
      </trkpt>
      <trkpt lat="63.89555" lon="10.22724">
        <ele>150.158937</ele>
        <time>2020-08-08T13:13:22.537Z</time>
      </trkpt>
      <trkpt lat="63.89564" lon="10.22735">
        <ele>149.556694</ele>
        <time>2020-08-08T13:13:23.464Z</time>
      </trkpt>
      <trkpt lat="63.89574" lon="10.22746">
        <ele>148.937566</ele>
        <time>2020-08-08T13:13:24.470Z</time>
      </trkpt>
      <trkpt lat="63.89584" lon="10.22756">
        <ele>148.317546</ele>
        <time>2020-08-08T13:13:25.461Z</time>
      </trkpt>
      <trkpt lat="63.89594" lon="10.22766">
        <ele>147.698553</ele>
        <time>2020-08-08T13:13:26.463Z</time>
      </trkpt>
      <trkpt lat="63.89604" lon="10.22776">
        <ele>147.077432</ele>
        <time>2020-08-08T13:13:27.477Z</time>
      </trkpt>
      <trkpt lat="63.89614" lon="10.22786">
        <ele>146.460206</ele>
        <time>2020-08-08T13:13:28.455Z</time>
      </trkpt>
      <trkpt lat="63.89625" lon="10.22795">
        <ele>145.808185</ele>
        <time>2020-08-08T13:13:29.478Z</time>
      </trkpt>
      <trkpt lat="63.89636" lon="10.22804">
        <ele>145.160496</ele>
        <time>2020-08-08T13:13:30.473Z</time>
      </trkpt>
      <trkpt lat="63.89647" lon="10.22811">
        <ele>144.521219</ele>
        <time>2020-08-08T13:13:31.467Z</time>
      </trkpt>
      <trkpt lat="63.89658" lon="10.22816">
        <ele>143.877221</ele>
        <time>2020-08-08T13:13:32.513Z</time>
      </trkpt>
      <trkpt lat="63.89669" lon="10.2282">
        <ele>143.236044</ele>
        <time>2020-08-08T13:13:33.511Z</time>
      </trkpt>
      <trkpt lat="63.89681" lon="10.2282">
        <ele>142.640486</ele>
        <time>2020-08-08T13:13:34.490Z</time>
      </trkpt>
      <trkpt lat="63.89692" lon="10.22819">
        <ele>142.033662</ele>
        <time>2020-08-08T13:13:35.465Z</time>
      </trkpt>
      <trkpt lat="63.89704" lon="10.22816">
        <ele>141.441124</ele>
        <time>2020-08-08T13:13:36.456Z</time>
      </trkpt>
      <trkpt lat="63.89715" lon="10.22814">
        <ele>140.838379</ele>
        <time>2020-08-08T13:13:37.475Z</time>
      </trkpt>
      <trkpt lat="63.89727" lon="10.22813">
        <ele>140.220993</ele>
        <time>2020-08-08T13:13:38.482Z</time>
      </trkpt>
      <trkpt lat="63.89738" lon="10.22812">
        <ele>139.615131</ele>
        <time>2020-08-08T13:13:39.476Z</time>
      </trkpt>
      <trkpt lat="63.8975" lon="10.22814">
        <ele>139.013767</ele>
        <time>2020-08-08T13:13:40.458Z</time>
      </trkpt>
      <trkpt lat="63.89762" lon="10.22817">
        <ele>138.404516</ele>
        <time>2020-08-08T13:13:41.499Z</time>
      </trkpt>
      <trkpt lat="63.89773" lon="10.22821">
        <ele>137.806868</ele>
        <time>2020-08-08T13:13:42.478Z</time>
      </trkpt>
      <trkpt lat="63.89784" lon="10.22825">
        <ele>137.206473</ele>
        <time>2020-08-08T13:13:43.496Z</time>
      </trkpt>
      <trkpt lat="63.89795" lon="10.2283">
        <ele>136.626602</ele>
        <time>2020-08-08T13:13:44.500Z</time>
      </trkpt>
      <trkpt lat="63.89806" lon="10.22835">
        <ele>136.052721</ele>
        <time>2020-08-08T13:13:45.462Z</time>
      </trkpt>
      <trkpt lat="63.89817" lon="10.2284">
        <ele>135.465919</ele>
        <time>2020-08-08T13:13:46.486Z</time>
      </trkpt>
      <trkpt lat="63.89828" lon="10.22846">
        <ele>134.865975</ele>
        <time>2020-08-08T13:13:47.467Z</time>
      </trkpt>
      <trkpt lat="63.89839" lon="10.22853">
        <ele>134.269991</ele>
        <time>2020-08-08T13:13:48.452Z</time>
      </trkpt>
      <trkpt lat="63.8985" lon="10.22861">
        <ele>133.63608</ele>
        <time>2020-08-08T13:13:49.452Z</time>
      </trkpt>
      <trkpt lat="63.89861" lon="10.22869">
        <ele>132.950552</ele>
        <time>2020-08-08T13:13:50.465Z</time>
      </trkpt>
      <trkpt lat="63.89872" lon="10.22878">
        <ele>132.268859</ele>
        <time>2020-08-08T13:13:51.492Z</time>
      </trkpt>
      <trkpt lat="63.89882" lon="10.22889">
        <ele>131.590239</ele>
        <time>2020-08-08T13:13:52.461Z</time>
      </trkpt>
      <trkpt lat="63.89893" lon="10.229">
        <ele>130.90579</ele>
        <time>2020-08-08T13:13:53.453Z</time>
      </trkpt>
      <trkpt lat="63.89903" lon="10.22914">
        <ele>130.216945</ele>
        <time>2020-08-08T13:13:54.493Z</time>
      </trkpt>
      <trkpt lat="63.89912" lon="10.22929">
        <ele>129.519294</ele>
        <time>2020-08-08T13:13:55.481Z</time>
      </trkpt>
      <trkpt lat="63.89922" lon="10.22946">
        <ele>128.811327</ele>
        <time>2020-08-08T13:13:56.473Z</time>
      </trkpt>
      <trkpt lat="63.89931" lon="10.22963">
        <ele>128.102304</ele>
        <time>2020-08-08T13:13:57.457Z</time>
      </trkpt>
      <trkpt lat="63.8994" lon="10.22981">
        <ele>127.398054</ele>
        <time>2020-08-08T13:13:58.479Z</time>
      </trkpt>
      <trkpt lat="63.89948" lon="10.23">
        <ele>126.69063</ele>
        <time>2020-08-08T13:13:59.458Z</time>
      </trkpt>
      <trkpt lat="63.89956" lon="10.23019">
        <ele>126.002646</ele>
        <time>2020-08-08T13:14:00.472Z</time>
      </trkpt>
      <trkpt lat="63.89965" lon="10.23036">
        <ele>125.319023</ele>
        <time>2020-08-08T13:14:01.459Z</time>
      </trkpt>
      <trkpt lat="63.89974" lon="10.23051">
        <ele>124.661585</ele>
        <time>2020-08-08T13:14:02.459Z</time>
      </trkpt>
      <trkpt lat="63.89983" lon="10.23065">
        <ele>124.014836</ele>
        <time>2020-08-08T13:14:03.508Z</time>
      </trkpt>
      <trkpt lat="63.89992" lon="10.23079">
        <ele>123.372079</ele>
        <time>2020-08-08T13:14:04.513Z</time>
      </trkpt>
      <trkpt lat="63.90001" lon="10.23092">
        <ele>122.598372</ele>
        <time>2020-08-08T13:14:05.492Z</time>
      </trkpt>
      <trkpt lat="63.90011" lon="10.23105">
        <ele>121.762685</ele>
        <time>2020-08-08T13:14:06.453Z</time>
      </trkpt>
      <trkpt lat="63.9002" lon="10.23118">
        <ele>120.900574</ele>
        <time>2020-08-08T13:14:07.493Z</time>
      </trkpt>
      <trkpt lat="63.90031" lon="10.2313">
        <ele>120.026402</ele>
        <time>2020-08-08T13:14:08.452Z</time>
      </trkpt>
      <trkpt lat="63.90042" lon="10.23139">
        <ele>119.137029</ele>
        <time>2020-08-08T13:14:09.465Z</time>
      </trkpt>
      <trkpt lat="63.90053" lon="10.23148">
        <ele>118.250245</ele>
        <time>2020-08-08T13:14:10.471Z</time>
      </trkpt>
      <trkpt lat="63.90064" lon="10.23154">
        <ele>117.348248</ele>
        <time>2020-08-08T13:14:11.469Z</time>
      </trkpt>
      <trkpt lat="63.90076" lon="10.2316">
        <ele>116.435007</ele>
        <time>2020-08-08T13:14:12.501Z</time>
      </trkpt>
      <trkpt lat="63.90088" lon="10.23163">
        <ele>115.531285</ele>
        <time>2020-08-08T13:14:13.485Z</time>
      </trkpt>
      <trkpt lat="63.901" lon="10.23164">
        <ele>114.633517</ele>
        <time>2020-08-08T13:14:14.479Z</time>
      </trkpt>
      <trkpt lat="63.90112" lon="10.23164">
        <ele>113.713957</ele>
        <time>2020-08-08T13:14:15.492Z</time>
      </trkpt>
      <trkpt lat="63.90124" lon="10.23161">
        <ele>112.803507</ele>
        <time>2020-08-08T13:14:16.490Z</time>
      </trkpt>
      <trkpt lat="63.90135" lon="10.23156">
        <ele>111.899596</ele>
        <time>2020-08-08T13:14:17.461Z</time>
      </trkpt>
      <trkpt lat="63.90146" lon="10.2315">
        <ele>111.025323</ele>
        <time>2020-08-08T13:14:18.467Z</time>
      </trkpt>
      <trkpt lat="63.90158" lon="10.23143">
        <ele>110.155254</ele>
        <time>2020-08-08T13:14:19.469Z</time>
      </trkpt>
      <trkpt lat="63.90169" lon="10.23137">
        <ele>109.316537</ele>
        <time>2020-08-08T13:14:20.508Z</time>
      </trkpt>
      <trkpt lat="63.9018" lon="10.23131">
        <ele>108.631565</ele>
        <time>2020-08-08T13:14:21.461Z</time>
      </trkpt>
      <trkpt lat="63.90191" lon="10.23127">
        <ele>107.951567</ele>
        <time>2020-08-08T13:14:22.439Z</time>
      </trkpt>
      <trkpt lat="63.90203" lon="10.23123">
        <ele>107.25473</ele>
        <time>2020-08-08T13:14:23.458Z</time>
      </trkpt>
      <trkpt lat="63.90214" lon="10.23119">
        <ele>106.553185</ele>
        <time>2020-08-08T13:14:24.501Z</time>
      </trkpt>
      <trkpt lat="63.90226" lon="10.23116">
        <ele>105.871581</ele>
        <time>2020-08-08T13:14:25.477Z</time>
      </trkpt>
      <trkpt lat="63.90237" lon="10.23113">
        <ele>105.205202</ele>
        <time>2020-08-08T13:14:26.468Z</time>
      </trkpt>
      <trkpt lat="63.90248" lon="10.23113">
        <ele>104.56505</ele>
        <time>2020-08-08T13:14:27.470Z</time>
      </trkpt>
      <trkpt lat="63.90258" lon="10.23116">
        <ele>103.96423</ele>
        <time>2020-08-08T13:14:28.482Z</time>
      </trkpt>
      <trkpt lat="63.90267" lon="10.2312">
        <ele>103.381425</ele>
        <time>2020-08-08T13:14:29.482Z</time>
      </trkpt>
      <trkpt lat="63.90276" lon="10.23128">
        <ele>102.813555</ele>
        <time>2020-08-08T13:14:30.457Z</time>
      </trkpt>
      <trkpt lat="63.90284" lon="10.23137">
        <ele>102.259102</ele>
        <time>2020-08-08T13:14:31.512Z</time>
      </trkpt>
      <trkpt lat="63.90292" lon="10.23147">
        <ele>101.701249</ele>
        <time>2020-08-08T13:14:32.466Z</time>
      </trkpt>
      <trkpt lat="63.90301" lon="10.23161">
        <ele>101.098801</ele>
        <time>2020-08-08T13:14:33.486Z</time>
      </trkpt>
      <trkpt lat="63.90309" lon="10.23177">
        <ele>100.45783</ele>
        <time>2020-08-08T13:14:34.473Z</time>
      </trkpt>
      <trkpt lat="63.90316" lon="10.23197">
        <ele>99.764195</ele>
        <time>2020-08-08T13:14:35.505Z</time>
      </trkpt>
      <trkpt lat="63.90324" lon="10.23218">
        <ele>99.039988</ele>
        <time>2020-08-08T13:14:36.481Z</time>
      </trkpt>
      <trkpt lat="63.90331" lon="10.23241">
        <ele>98.198835</ele>
        <time>2020-08-08T13:14:37.490Z</time>
      </trkpt>
      <trkpt lat="63.90337" lon="10.23265">
        <ele>97.269957</ele>
        <time>2020-08-08T13:14:38.455Z</time>
      </trkpt>
      <trkpt lat="63.90343" lon="10.23289">
        <ele>96.36384</ele>
        <time>2020-08-08T13:14:39.453Z</time>
      </trkpt>
      <trkpt lat="63.90349" lon="10.23312">
        <ele>95.484341</ele>
        <time>2020-08-08T13:14:40.448Z</time>
      </trkpt>
      <trkpt lat="63.90355" lon="10.23334">
        <ele>94.608714</ele>
        <time>2020-08-08T13:14:41.456Z</time>
      </trkpt>
      <trkpt lat="63.90361" lon="10.23356">
        <ele>93.775738</ele>
        <time>2020-08-08T13:14:42.464Z</time>
      </trkpt>
      <trkpt lat="63.90367" lon="10.23376">
        <ele>92.979354</ele>
        <time>2020-08-08T13:14:43.469Z</time>
      </trkpt>
      <trkpt lat="63.90372" lon="10.23396">
        <ele>92.221197</ele>
        <time>2020-08-08T13:14:44.499Z</time>
      </trkpt>
      <trkpt lat="63.90376" lon="10.23417">
        <ele>91.454917</ele>
        <time>2020-08-08T13:14:45.482Z</time>
      </trkpt>
      <trkpt lat="63.90379" lon="10.23439">
        <ele>90.703757</ele>
        <time>2020-08-08T13:14:46.453Z</time>
      </trkpt>
      <trkpt lat="63.90382" lon="10.23461">
        <ele>89.953541</ele>
        <time>2020-08-08T13:14:47.474Z</time>
      </trkpt>
      <trkpt lat="63.90384" lon="10.23484">
        <ele>89.196604</ele>
        <time>2020-08-08T13:14:48.455Z</time>
      </trkpt>
      <trkpt lat="63.90385" lon="10.23507">
        <ele>88.418312</ele>
        <time>2020-08-08T13:14:49.454Z</time>
      </trkpt>
      <trkpt lat="63.90385" lon="10.23532">
        <ele>87.604139</ele>
        <time>2020-08-08T13:14:50.482Z</time>
      </trkpt>
      <trkpt lat="63.90385" lon="10.23557">
        <ele>86.786671</ele>
        <time>2020-08-08T13:14:51.452Z</time>
      </trkpt>
      <trkpt lat="63.90384" lon="10.23582">
        <ele>85.931643</ele>
        <time>2020-08-08T13:14:52.485Z</time>
      </trkpt>
      <trkpt lat="63.90382" lon="10.23609">
        <ele>85.039363</ele>
        <time>2020-08-08T13:14:53.453Z</time>
      </trkpt>
      <trkpt lat="63.90381" lon="10.23636">
        <ele>84.09229</ele>
        <time>2020-08-08T13:14:54.464Z</time>
      </trkpt>
      <trkpt lat="63.9038" lon="10.23664">
        <ele>83.116521</ele>
        <time>2020-08-08T13:14:55.486Z</time>
      </trkpt>
      <trkpt lat="63.90379" lon="10.23693">
        <ele>82.14236</ele>
        <time>2020-08-08T13:14:56.508Z</time>
      </trkpt>
      <trkpt lat="63.90379" lon="10.2372">
        <ele>81.193856</ele>
        <time>2020-08-08T13:14:57.499Z</time>
      </trkpt>
      <trkpt lat="63.90379" lon="10.23747">
        <ele>80.265781</ele>
        <time>2020-08-08T13:14:58.469Z</time>
      </trkpt>
      <trkpt lat="63.9038" lon="10.23774">
        <ele>79.345641</ele>
        <time>2020-08-08T13:14:59.494Z</time>
      </trkpt>
      <trkpt lat="63.90381" lon="10.238">
        <ele>78.438612</ele>
        <time>2020-08-08T13:15:00.486Z</time>
      </trkpt>
      <trkpt lat="63.90383" lon="10.23825">
        <ele>77.546382</ele>
        <time>2020-08-08T13:15:01.465Z</time>
      </trkpt>
      <trkpt lat="63.90384" lon="10.2385">
        <ele>76.701122</ele>
        <time>2020-08-08T13:15:02.445Z</time>
      </trkpt>
      <trkpt lat="63.90385" lon="10.23874">
        <ele>75.868036</ele>
        <time>2020-08-08T13:15:03.478Z</time>
      </trkpt>
      <trkpt lat="63.90386" lon="10.23898">
        <ele>75.023532</ele>
        <time>2020-08-08T13:15:04.449Z</time>
      </trkpt>
      <trkpt lat="63.90387" lon="10.23922">
        <ele>74.186526</ele>
        <time>2020-08-08T13:15:05.467Z</time>
      </trkpt>
      <trkpt lat="63.90388" lon="10.23947">
        <ele>73.339746</ele>
        <time>2020-08-08T13:15:06.489Z</time>
      </trkpt>
      <trkpt lat="63.90388" lon="10.23971">
        <ele>72.503292</ele>
        <time>2020-08-08T13:15:07.457Z</time>
      </trkpt>
      <trkpt lat="63.90389" lon="10.23995">
        <ele>71.672535</ele>
        <time>2020-08-08T13:15:08.494Z</time>
      </trkpt>
      <trkpt lat="63.90391" lon="10.24019">
        <ele>70.893102</ele>
        <time>2020-08-08T13:15:09.464Z</time>
      </trkpt>
      <trkpt lat="63.90392" lon="10.24043">
        <ele>70.184696</ele>
        <time>2020-08-08T13:15:10.505Z</time>
      </trkpt>
      <trkpt lat="63.90394" lon="10.24067">
        <ele>69.473088</ele>
        <time>2020-08-08T13:15:11.464Z</time>
      </trkpt>
      <trkpt lat="63.90396" lon="10.24091">
        <ele>68.775724</ele>
        <time>2020-08-08T13:15:12.448Z</time>
      </trkpt>
      <trkpt lat="63.90398" lon="10.24114">
        <ele>68.090115</ele>
        <time>2020-08-08T13:15:13.503Z</time>
      </trkpt>
      <trkpt lat="63.90401" lon="10.24137">
        <ele>67.388226</ele>
        <time>2020-08-08T13:15:14.459Z</time>
      </trkpt>
      <trkpt lat="63.90405" lon="10.24161">
        <ele>66.673346</ele>
        <time>2020-08-08T13:15:15.489Z</time>
      </trkpt>
      <trkpt lat="63.90409" lon="10.24184">
        <ele>65.93907</ele>
        <time>2020-08-08T13:15:16.449Z</time>
      </trkpt>
      <trkpt lat="63.90414" lon="10.24208">
        <ele>65.188608</ele>
        <time>2020-08-08T13:15:17.469Z</time>
      </trkpt>
      <trkpt lat="63.9042" lon="10.2423">
        <ele>64.413635</ele>
        <time>2020-08-08T13:15:18.475Z</time>
      </trkpt>
      <trkpt lat="63.90427" lon="10.24251">
        <ele>63.669237</ele>
        <time>2020-08-08T13:15:19.475Z</time>
      </trkpt>
      <trkpt lat="63.90436" lon="10.24269">
        <ele>62.893513</ele>
        <time>2020-08-08T13:15:20.506Z</time>
      </trkpt>
      <trkpt lat="63.90445" lon="10.24288">
        <ele>62.093082</ele>
        <time>2020-08-08T13:15:21.455Z</time>
      </trkpt>
      <trkpt lat="63.90454" lon="10.24306">
        <ele>61.287997</ele>
        <time>2020-08-08T13:15:22.462Z</time>
      </trkpt>
      <trkpt lat="63.90464" lon="10.24322">
        <ele>60.462112</ele>
        <time>2020-08-08T13:15:23.457Z</time>
      </trkpt>
      <trkpt lat="63.90475" lon="10.24337">
        <ele>59.641368</ele>
        <time>2020-08-08T13:15:24.506Z</time>
      </trkpt>
      <trkpt lat="63.90485" lon="10.24351">
        <ele>59.055142</ele>
        <time>2020-08-08T13:15:25.497Z</time>
      </trkpt>
      <trkpt lat="63.90495" lon="10.24365">
        <ele>58.611153</ele>
        <time>2020-08-08T13:15:26.529Z</time>
      </trkpt>
      <trkpt lat="63.90505" lon="10.24377">
        <ele>58.178757</ele>
        <time>2020-08-08T13:15:27.472Z</time>
      </trkpt>
      <trkpt lat="63.90515" lon="10.24389">
        <ele>57.754006</ele>
        <time>2020-08-08T13:15:28.500Z</time>
      </trkpt>
      <trkpt lat="63.90524" lon="10.24402">
        <ele>57.324811</ele>
        <time>2020-08-08T13:15:29.462Z</time>
      </trkpt>
      <trkpt lat="63.90533" lon="10.24416">
        <ele>56.912791</ele>
        <time>2020-08-08T13:15:30.486Z</time>
      </trkpt>
      <trkpt lat="63.90542" lon="10.24428">
        <ele>56.521932</ele>
        <time>2020-08-08T13:15:31.525Z</time>
      </trkpt>
      <trkpt lat="63.9055" lon="10.2444">
        <ele>56.137564</ele>
        <time>2020-08-08T13:15:32.464Z</time>
      </trkpt>
      <trkpt lat="63.90558" lon="10.24452">
        <ele>55.765642</ele>
        <time>2020-08-08T13:15:33.459Z</time>
      </trkpt>
      <trkpt lat="63.90566" lon="10.24464">
        <ele>55.397298</ele>
        <time>2020-08-08T13:15:34.453Z</time>
      </trkpt>
      <trkpt lat="63.90574" lon="10.24476">
        <ele>55.041338</ele>
        <time>2020-08-08T13:15:35.479Z</time>
      </trkpt>
      <trkpt lat="63.90581" lon="10.24488">
        <ele>54.69333</ele>
        <time>2020-08-08T13:15:36.477Z</time>
      </trkpt>
      <trkpt lat="63.90596" lon="10.24508">
        <ele>54.037358</ele>
        <time>2020-08-08T13:15:38.462Z</time>
      </trkpt>
      <trkpt lat="63.90608" lon="10.24527">
        <ele>53.47384</ele>
        <time>2020-08-08T13:15:40.517Z</time>
      </trkpt>
      <trkpt lat="63.90618" lon="10.24546">
        <ele>52.977878</ele>
        <time>2020-08-08T13:15:42.480Z</time>
      </trkpt>
      <trkpt lat="63.90626" lon="10.24564">
        <ele>52.531617</ele>
        <time>2020-08-08T13:15:44.476Z</time>
      </trkpt>
      <trkpt lat="63.90634" lon="10.24581">
        <ele>52.623383</ele>
        <time>2020-08-08T13:15:46.474Z</time>
      </trkpt>
      <trkpt lat="63.90641" lon="10.24596">
        <ele>52.875657</ele>
        <time>2020-08-08T13:15:48.443Z</time>
      </trkpt>
      <trkpt lat="63.90649" lon="10.24609">
        <ele>53.118079</ele>
        <time>2020-08-08T13:15:50.459Z</time>
      </trkpt>
      <trkpt lat="63.90657" lon="10.24622">
        <ele>53.347769</ele>
        <time>2020-08-08T13:15:52.480Z</time>
      </trkpt>
      <trkpt lat="63.90665" lon="10.2464">
        <ele>53.646763</ele>
        <time>2020-08-08T13:15:55.477Z</time>
      </trkpt>
      <trkpt lat="63.90674" lon="10.24655">
        <ele>53.920565</ele>
        <time>2020-08-08T13:15:58.485Z</time>
      </trkpt>
      <trkpt lat="63.90683" lon="10.24665">
        <ele>54.16149</ele>
        <time>2020-08-08T13:16:01.493Z</time>
      </trkpt>
      <trkpt lat="63.90691" lon="10.24676">
        <ele>54.402416</ele>
        <time>2020-08-08T13:16:04.498Z</time>
      </trkpt>
      <trkpt lat="63.907" lon="10.24686">
        <ele>54.649459</ele>
        <time>2020-08-08T13:16:07.460Z</time>
      </trkpt>
      <trkpt lat="63.90709" lon="10.24696">
        <ele>54.913512</ele>
        <time>2020-08-08T13:16:10.449Z</time>
      </trkpt>
      <trkpt lat="63.90719" lon="10.24707">
        <ele>55.197672</ele>
        <time>2020-08-08T13:16:13.465Z</time>
      </trkpt>
      <trkpt lat="63.90729" lon="10.24717">
        <ele>55.473595</ele>
        <time>2020-08-08T13:16:16.455Z</time>
      </trkpt>
      <trkpt lat="63.90739" lon="10.24728">
        <ele>55.745294</ele>
        <time>2020-08-08T13:16:19.501Z</time>
      </trkpt>
      <trkpt lat="63.90748" lon="10.24741">
        <ele>56.008083</ele>
        <time>2020-08-08T13:16:22.470Z</time>
      </trkpt>
      <trkpt lat="63.90757" lon="10.24755">
        <ele>56.287372</ele>
        <time>2020-08-08T13:16:25.502Z</time>
      </trkpt>
      <trkpt lat="63.90767" lon="10.24776">
        <ele>56.618385</ele>
        <time>2020-08-08T13:16:28.466Z</time>
      </trkpt>
      <trkpt lat="63.90773" lon="10.24791">
        <ele>56.858346</ele>
        <time>2020-08-08T13:16:30.485Z</time>
      </trkpt>
      <trkpt lat="63.9078" lon="10.24808">
        <ele>56.920945</ele>
        <time>2020-08-08T13:16:32.474Z</time>
      </trkpt>
      <trkpt lat="63.90787" lon="10.24823">
        <ele>56.886843</ele>
        <time>2020-08-08T13:16:34.458Z</time>
      </trkpt>
      <trkpt lat="63.90796" lon="10.24837">
        <ele>56.850174</ele>
        <time>2020-08-08T13:16:36.524Z</time>
      </trkpt>
      <trkpt lat="63.90806" lon="10.24851">
        <ele>56.810706</ele>
        <time>2020-08-08T13:16:38.476Z</time>
      </trkpt>
      <trkpt lat="63.90816" lon="10.24864">
        <ele>56.771971</ele>
        <time>2020-08-08T13:16:40.465Z</time>
      </trkpt>
      <trkpt lat="63.90825" lon="10.24876">
        <ele>56.733831</ele>
        <time>2020-08-08T13:16:42.450Z</time>
      </trkpt>
      <trkpt lat="63.90836" lon="10.24891">
        <ele>56.692439</ele>
        <time>2020-08-08T13:16:44.491Z</time>
      </trkpt>
      <trkpt lat="63.90846" lon="10.24909">
        <ele>56.647351</ele>
        <time>2020-08-08T13:16:46.508Z</time>
      </trkpt>
      <trkpt lat="63.90857" lon="10.24928">
        <ele>56.601005</ele>
        <time>2020-08-08T13:16:48.471Z</time>
      </trkpt>
      <trkpt lat="63.90868" lon="10.24947">
        <ele>56.552844</ele>
        <time>2020-08-08T13:16:50.473Z</time>
      </trkpt>
      <trkpt lat="63.90879" lon="10.24968">
        <ele>56.504977</ele>
        <time>2020-08-08T13:16:52.479Z</time>
      </trkpt>
      <trkpt lat="63.9089" lon="10.24989">
        <ele>56.456363</ele>
        <time>2020-08-08T13:16:54.473Z</time>
      </trkpt>
      <trkpt lat="63.90901" lon="10.25007">
        <ele>56.408371</ele>
        <time>2020-08-08T13:16:56.505Z</time>
      </trkpt>
      <trkpt lat="63.90913" lon="10.25024">
        <ele>56.362112</ele>
        <time>2020-08-08T13:16:58.491Z</time>
      </trkpt>
      <trkpt lat="63.90924" lon="10.25039">
        <ele>56.294763</ele>
        <time>2020-08-08T13:17:00.472Z</time>
      </trkpt>
      <trkpt lat="63.90935" lon="10.25052">
        <ele>56.161058</ele>
        <time>2020-08-08T13:17:02.454Z</time>
      </trkpt>
      <trkpt lat="63.90946" lon="10.2506">
        <ele>56.041479</ele>
        <time>2020-08-08T13:17:04.501Z</time>
      </trkpt>
      <trkpt lat="63.90956" lon="10.25065">
        <ele>55.923144</ele>
        <time>2020-08-08T13:17:06.475Z</time>
      </trkpt>
      <trkpt lat="63.90968" lon="10.25066">
        <ele>55.803622</ele>
        <time>2020-08-08T13:17:08.473Z</time>
      </trkpt>
      <trkpt lat="63.90979" lon="10.25065">
        <ele>55.685091</ele>
        <time>2020-08-08T13:17:10.469Z</time>
      </trkpt>
      <trkpt lat="63.9099" lon="10.25063">
        <ele>55.56845</ele>
        <time>2020-08-08T13:17:12.450Z</time>
      </trkpt>
      <trkpt lat="63.91" lon="10.25059">
        <ele>55.459017</ele>
        <time>2020-08-08T13:17:14.496Z</time>
      </trkpt>
      <trkpt lat="63.91009" lon="10.25053">
        <ele>55.355717</ele>
        <time>2020-08-08T13:17:16.449Z</time>
      </trkpt>
      <trkpt lat="63.91018" lon="10.25048">
        <ele>55.256065</ele>
        <time>2020-08-08T13:17:18.482Z</time>
      </trkpt>
      <trkpt lat="63.91031" lon="10.25036">
        <ele>55.112323</ele>
        <time>2020-08-08T13:17:21.490Z</time>
      </trkpt>
      <trkpt lat="63.91039" lon="10.25028">
        <ele>55.016707</ele>
        <time>2020-08-08T13:17:23.457Z</time>
      </trkpt>
      <trkpt lat="63.9105" lon="10.25013">
        <ele>54.87854</ele>
        <time>2020-08-08T13:17:26.481Z</time>
      </trkpt>
      <trkpt lat="63.9106" lon="10.24996">
        <ele>54.742531</ele>
        <time>2020-08-08T13:17:29.481Z</time>
      </trkpt>
      <trkpt lat="63.9107" lon="10.24977">
        <ele>54.606813</ele>
        <time>2020-08-08T13:17:32.478Z</time>
      </trkpt>
      <trkpt lat="63.91078" lon="10.24956">
        <ele>54.475723</ele>
        <time>2020-08-08T13:17:35.490Z</time>
      </trkpt>
      <trkpt lat="63.91085" lon="10.24936">
        <ele>54.445399</ele>
        <time>2020-08-08T13:17:38.454Z</time>
      </trkpt>
      <trkpt lat="63.9109" lon="10.24916">
        <ele>54.51901</ele>
        <time>2020-08-08T13:17:41.493Z</time>
      </trkpt>
      <trkpt lat="63.91095" lon="10.24893">
        <ele>54.596857</ele>
        <time>2020-08-08T13:17:44.507Z</time>
      </trkpt>
      <trkpt lat="63.91099" lon="10.24868">
        <ele>54.681303</ele>
        <time>2020-08-08T13:17:47.470Z</time>
      </trkpt>
      <trkpt lat="63.91102" lon="10.24841">
        <ele>54.770389</ele>
        <time>2020-08-08T13:17:50.494Z</time>
      </trkpt>
      <trkpt lat="63.91105" lon="10.24812">
        <ele>54.861435</ele>
        <time>2020-08-08T13:17:53.525Z</time>
      </trkpt>
      <trkpt lat="63.91104" lon="10.24784">
        <ele>54.949924</ele>
        <time>2020-08-08T13:17:56.489Z</time>
      </trkpt>
      <trkpt lat="63.91104" lon="10.24762">
        <ele>55.017834</ele>
        <time>2020-08-08T13:17:58.489Z</time>
      </trkpt>
      <trkpt lat="63.91103" lon="10.2474">
        <ele>55.086409</ele>
        <time>2020-08-08T13:18:00.477Z</time>
      </trkpt>
      <trkpt lat="63.91102" lon="10.24717">
        <ele>55.157579</ele>
        <time>2020-08-08T13:18:02.474Z</time>
      </trkpt>
      <trkpt lat="63.91101" lon="10.24696">
        <ele>55.225767</ele>
        <time>2020-08-08T13:18:04.478Z</time>
      </trkpt>
      <trkpt lat="63.911" lon="10.24673">
        <ele>55.295276</ele>
        <time>2020-08-08T13:18:06.444Z</time>
      </trkpt>
      <trkpt lat="63.91099" lon="10.24652">
        <ele>55.363394</ele>
        <time>2020-08-08T13:18:08.471Z</time>
      </trkpt>
      <trkpt lat="63.91099" lon="10.24621">
        <ele>55.458443</ele>
        <time>2020-08-08T13:18:11.454Z</time>
      </trkpt>
      <trkpt lat="63.91099" lon="10.24592">
        <ele>55.549744</ele>
        <time>2020-08-08T13:18:14.440Z</time>
      </trkpt>
      <trkpt lat="63.91098" lon="10.24565">
        <ele>55.634777</ele>
        <time>2020-08-08T13:18:17.451Z</time>
      </trkpt>
      <trkpt lat="63.91098" lon="10.24538">
        <ele>55.709187</ele>
        <time>2020-08-08T13:18:20.490Z</time>
      </trkpt>
      <trkpt lat="63.91097" lon="10.24512">
        <ele>55.764468</ele>
        <time>2020-08-08T13:18:23.497Z</time>
      </trkpt>
      <trkpt lat="63.91097" lon="10.24486">
        <ele>55.820695</ele>
        <time>2020-08-08T13:18:26.458Z</time>
      </trkpt>
      <trkpt lat="63.91097" lon="10.24458">
        <ele>55.880754</ele>
        <time>2020-08-08T13:18:29.450Z</time>
      </trkpt>
      <trkpt lat="63.91096" lon="10.2443">
        <ele>55.940164</ele>
        <time>2020-08-08T13:18:32.480Z</time>
      </trkpt>
      <trkpt lat="63.91096" lon="10.24401">
        <ele>56.000223</ele>
        <time>2020-08-08T13:18:35.469Z</time>
      </trkpt>
      <trkpt lat="63.91095" lon="10.24371">
        <ele>56.064588</ele>
        <time>2020-08-08T13:18:38.481Z</time>
      </trkpt>
      <trkpt lat="63.91095" lon="10.24342">
        <ele>56.127092</ele>
        <time>2020-08-08T13:18:41.468Z</time>
      </trkpt>
      <trkpt lat="63.91094" lon="10.24313">
        <ele>56.188867</ele>
        <time>2020-08-08T13:18:44.452Z</time>
      </trkpt>
      <trkpt lat="63.91093" lon="10.24283">
        <ele>56.252074</ele>
        <time>2020-08-08T13:18:47.500Z</time>
      </trkpt>
      <trkpt lat="63.91092" lon="10.24255">
        <ele>56.312564</ele>
        <time>2020-08-08T13:18:50.469Z</time>
      </trkpt>
      <trkpt lat="63.91091" lon="10.24228">
        <ele>56.369602</ele>
        <time>2020-08-08T13:18:53.469Z</time>
      </trkpt>
      <trkpt lat="63.9109" lon="10.24201">
        <ele>56.427891</ele>
        <time>2020-08-08T13:18:56.451Z</time>
      </trkpt>
      <trkpt lat="63.91089" lon="10.24172">
        <ele>56.490426</ele>
        <time>2020-08-08T13:18:59.500Z</time>
      </trkpt>
      <trkpt lat="63.91088" lon="10.24143">
        <ele>56.552753</ele>
        <time>2020-08-08T13:19:02.502Z</time>
      </trkpt>
      <trkpt lat="63.91085" lon="10.24113">
        <ele>57.36936</ele>
        <time>2020-08-08T13:19:05.470Z</time>
      </trkpt>
      <trkpt lat="63.91082" lon="10.24084">
        <ele>58.251341</ele>
        <time>2020-08-08T13:19:08.455Z</time>
      </trkpt>
      <trkpt lat="63.91079" lon="10.24057">
        <ele>59.097843</ele>
        <time>2020-08-08T13:19:11.467Z</time>
      </trkpt>
      <trkpt lat="63.91076" lon="10.24029">
        <ele>59.948046</ele>
        <time>2020-08-08T13:19:14.496Z</time>
      </trkpt>
      <trkpt lat="63.91072" lon="10.24003">
        <ele>60.766873</ele>
        <time>2020-08-08T13:19:17.500Z</time>
      </trkpt>
      <trkpt lat="63.91068" lon="10.2398">
        <ele>61.518277</ele>
        <time>2020-08-08T13:19:20.458Z</time>
      </trkpt>
      <trkpt lat="63.91065" lon="10.23959">
        <ele>62.157121</ele>
        <time>2020-08-08T13:19:23.478Z</time>
      </trkpt>
      <trkpt lat="63.9106" lon="10.23939">
        <ele>62.864404</ele>
        <time>2020-08-08T13:19:27.450Z</time>
      </trkpt>
      <trkpt lat="63.91053" lon="10.23919">
        <ele>63.60071</ele>
        <time>2020-08-08T13:19:32.456Z</time>
      </trkpt>
      <trkpt lat="63.91047" lon="10.23901">
        <ele>64.30106</ele>
        <time>2020-08-08T13:19:37.485Z</time>
      </trkpt>
      <trkpt lat="63.91041" lon="10.23882">
        <ele>64.993467</ele>
        <time>2020-08-08T13:19:43.488Z</time>
      </trkpt>
      <trkpt lat="63.91034" lon="10.23865">
        <ele>65.695388</ele>
        <time>2020-08-08T13:19:47.457Z</time>
      </trkpt>
      <trkpt lat="63.9103" lon="10.23846">
        <ele>66.335483</ele>
        <time>2020-08-08T13:19:51.497Z</time>
      </trkpt>
      <trkpt lat="63.91026" lon="10.23827">
        <ele>66.963875</ele>
        <time>2020-08-08T13:19:55.533Z</time>
      </trkpt>
      <trkpt lat="63.91021" lon="10.23805">
        <ele>67.665743</ele>
        <time>2020-08-08T13:20:00.480Z</time>
      </trkpt>
      <trkpt lat="63.91017" lon="10.23786">
        <ele>68.297447</ele>
        <time>2020-08-08T13:20:04.457Z</time>
      </trkpt>
      <trkpt lat="63.91014" lon="10.23765">
        <ele>68.682504</ele>
        <time>2020-08-08T13:20:08.450Z</time>
      </trkpt>
      <trkpt lat="63.91011" lon="10.2374">
        <ele>68.407571</ele>
        <time>2020-08-08T13:20:12.451Z</time>
      </trkpt>
      <trkpt lat="63.91008" lon="10.23719">
        <ele>68.167965</ele>
        <time>2020-08-08T13:20:15.460Z</time>
      </trkpt>
      <trkpt lat="63.91007" lon="10.23696">
        <ele>67.920425</ele>
        <time>2020-08-08T13:20:18.469Z</time>
      </trkpt>
      <trkpt lat="63.91005" lon="10.23675">
        <ele>67.682673</ele>
        <time>2020-08-08T13:20:21.452Z</time>
      </trkpt>
      <trkpt lat="63.91003" lon="10.23655">
        <ele>67.461978</ele>
        <time>2020-08-08T13:20:24.479Z</time>
      </trkpt>
      <trkpt lat="63.91003" lon="10.23634">
        <ele>67.241597</ele>
        <time>2020-08-08T13:20:27.516Z</time>
      </trkpt>
      <trkpt lat="63.91002" lon="10.23612">
        <ele>66.999538</ele>
        <time>2020-08-08T13:20:30.460Z</time>
      </trkpt>
      <trkpt lat="63.91003" lon="10.2359">
        <ele>66.760411</ele>
        <time>2020-08-08T13:20:33.502Z</time>
      </trkpt>
      <trkpt lat="63.91004" lon="10.23568">
        <ele>66.524055</ele>
        <time>2020-08-08T13:20:36.520Z</time>
      </trkpt>
      <trkpt lat="63.91007" lon="10.23544">
        <ele>66.254781</ele>
        <time>2020-08-08T13:20:39.483Z</time>
      </trkpt>
      <trkpt lat="63.91011" lon="10.23519">
        <ele>65.972568</ele>
        <time>2020-08-08T13:20:42.488Z</time>
      </trkpt>
      <trkpt lat="63.91017" lon="10.23491">
        <ele>65.631562</ele>
        <time>2020-08-08T13:20:45.504Z</time>
      </trkpt>
      <trkpt lat="63.91024" lon="10.23469">
        <ele>65.3491</ele>
        <time>2020-08-08T13:20:47.450Z</time>
      </trkpt>
      <trkpt lat="63.91031" lon="10.23447">
        <ele>65.05111</ele>
        <time>2020-08-08T13:20:49.462Z</time>
      </trkpt>
      <trkpt lat="63.91039" lon="10.23424">
        <ele>64.73395</ele>
        <time>2020-08-08T13:20:51.529Z</time>
      </trkpt>
      <trkpt lat="63.91047" lon="10.23399">
        <ele>64.404902</ele>
        <time>2020-08-08T13:20:53.452Z</time>
      </trkpt>
      <trkpt lat="63.91057" lon="10.2338">
        <ele>64.108505</ele>
        <time>2020-08-08T13:20:55.509Z</time>
      </trkpt>
      <trkpt lat="63.91069" lon="10.23363">
        <ele>63.785211</ele>
        <time>2020-08-08T13:20:57.503Z</time>
      </trkpt>
      <trkpt lat="63.91083" lon="10.23349">
        <ele>63.458587</ele>
        <time>2020-08-08T13:20:59.488Z</time>
      </trkpt>
      <trkpt lat="63.91096" lon="10.23336">
        <ele>63.143312</ele>
        <time>2020-08-08T13:21:01.490Z</time>
      </trkpt>
      <trkpt lat="63.91108" lon="10.23323">
        <ele>62.8446</ele>
        <time>2020-08-08T13:21:03.482Z</time>
      </trkpt>
      <trkpt lat="63.9112" lon="10.23311">
        <ele>62.552751</ele>
        <time>2020-08-08T13:21:05.487Z</time>
      </trkpt>
      <trkpt lat="63.91131" lon="10.23298">
        <ele>62.281454</ele>
        <time>2020-08-08T13:21:07.454Z</time>
      </trkpt>
      <trkpt lat="63.91141" lon="10.23286">
        <ele>62.018567</ele>
        <time>2020-08-08T13:21:09.459Z</time>
      </trkpt>
      <trkpt lat="63.91151" lon="10.23274">
        <ele>61.774791</ele>
        <time>2020-08-08T13:21:11.476Z</time>
      </trkpt>
      <trkpt lat="63.9116" lon="10.23262">
        <ele>61.540287</ele>
        <time>2020-08-08T13:21:13.459Z</time>
      </trkpt>
      <trkpt lat="63.91169" lon="10.23251">
        <ele>61.323605</ele>
        <time>2020-08-08T13:21:15.464Z</time>
      </trkpt>
      <trkpt lat="63.91176" lon="10.23239">
        <ele>61.121819</ele>
        <time>2020-08-08T13:21:17.486Z</time>
      </trkpt>
      <trkpt lat="63.91187" lon="10.23223">
        <ele>60.834312</ele>
        <time>2020-08-08T13:21:20.453Z</time>
      </trkpt>
      <trkpt lat="63.91197" lon="10.23209">
        <ele>60.578912</ele>
        <time>2020-08-08T13:21:23.448Z</time>
      </trkpt>
      <trkpt lat="63.91206" lon="10.23197">
        <ele>60.366174</ele>
        <time>2020-08-08T13:21:26.482Z</time>
      </trkpt>
      <trkpt lat="63.91215" lon="10.23185">
        <ele>60.817023</ele>
        <time>2020-08-08T13:21:29.475Z</time>
      </trkpt>
      <trkpt lat="63.91223" lon="10.23174">
        <ele>61.231054</ele>
        <time>2020-08-08T13:21:32.450Z</time>
      </trkpt>
      <trkpt lat="63.91231" lon="10.23163">
        <ele>61.619373</ele>
        <time>2020-08-08T13:21:35.500Z</time>
      </trkpt>
      <trkpt lat="63.91241" lon="10.23148">
        <ele>62.103138</ele>
        <time>2020-08-08T13:21:39.501Z</time>
      </trkpt>
      <trkpt lat="63.91249" lon="10.23132">
        <ele>62.572357</ele>
        <time>2020-08-08T13:21:43.473Z</time>
      </trkpt>
      <trkpt lat="63.91259" lon="10.23121">
        <ele>63.027965</ele>
        <time>2020-08-08T13:21:47.472Z</time>
      </trkpt>
      <trkpt lat="63.91268" lon="10.23111">
        <ele>63.445779</ele>
        <time>2020-08-08T13:21:51.465Z</time>
      </trkpt>
      <trkpt lat="63.91276" lon="10.23101">
        <ele>63.830466</ele>
        <time>2020-08-08T13:21:55.460Z</time>
      </trkpt>
      <trkpt lat="63.91285" lon="10.23092">
        <ele>64.246683</ele>
        <time>2020-08-08T13:22:00.527Z</time>
      </trkpt>
      <trkpt lat="63.91293" lon="10.2308">
        <ele>64.657983</ele>
        <time>2020-08-08T13:22:05.458Z</time>
      </trkpt>
      <trkpt lat="63.913" lon="10.23063">
        <ele>65.094445</ele>
        <time>2020-08-08T13:22:11.445Z</time>
      </trkpt>
      <trkpt lat="63.91307" lon="10.23049">
        <ele>65.493497</ele>
        <time>2020-08-08T13:22:17.431Z</time>
      </trkpt>
      <trkpt lat="63.91315" lon="10.23037">
        <ele>65.905721</ele>
        <time>2020-08-08T13:22:24.477Z</time>
      </trkpt>
      <trkpt lat="63.91324" lon="10.23031">
        <ele>66.308966</ele>
        <time>2020-08-08T13:22:30.457Z</time>
      </trkpt>
      <trkpt lat="63.91334" lon="10.23022">
        <ele>66.733981</ele>
        <time>2020-08-08T13:22:36.481Z</time>
      </trkpt>
      <trkpt lat="63.91342" lon="10.23015">
        <ele>67.122592</ele>
        <time>2020-08-08T13:22:42.464Z</time>
      </trkpt>
      <trkpt lat="63.91352" lon="10.23008">
        <ele>67.553982</ele>
        <time>2020-08-08T13:22:49.473Z</time>
      </trkpt>
      <trkpt lat="63.91361" lon="10.23004">
        <ele>67.954329</ele>
        <time>2020-08-08T13:22:54.458Z</time>
      </trkpt>
      <trkpt lat="63.91372" lon="10.23">
        <ele>67.775066</ele>
        <time>2020-08-08T13:22:59.487Z</time>
      </trkpt>
      <trkpt lat="63.91381" lon="10.22997">
        <ele>67.595586</ele>
        <time>2020-08-08T13:23:03.516Z</time>
      </trkpt>
      <trkpt lat="63.91393" lon="10.22993">
        <ele>67.377892</ele>
        <time>2020-08-08T13:23:07.484Z</time>
      </trkpt>
      <trkpt lat="63.91403" lon="10.2299">
        <ele>67.193289</ele>
        <time>2020-08-08T13:23:10.451Z</time>
      </trkpt>
      <trkpt lat="63.91414" lon="10.22987">
        <ele>66.971899</ele>
        <time>2020-08-08T13:23:13.457Z</time>
      </trkpt>
      <trkpt lat="63.91427" lon="10.2299">
        <ele>66.728575</ele>
        <time>2020-08-08T13:23:16.459Z</time>
      </trkpt>
      <trkpt lat="63.91437" lon="10.22994">
        <ele>66.553839</ele>
        <time>2020-08-08T13:23:18.452Z</time>
      </trkpt>
      <trkpt lat="63.91447" lon="10.23001">
        <ele>66.361728</ele>
        <time>2020-08-08T13:23:20.477Z</time>
      </trkpt>
      <trkpt lat="63.91457" lon="10.23011">
        <ele>66.156623</ele>
        <time>2020-08-08T13:23:22.469Z</time>
      </trkpt>
      <trkpt lat="63.91467" lon="10.23021">
        <ele>65.949131</ele>
        <time>2020-08-08T13:23:24.483Z</time>
      </trkpt>
      <trkpt lat="63.91477" lon="10.23032">
        <ele>65.740639</ele>
        <time>2020-08-08T13:23:26.470Z</time>
      </trkpt>
      <trkpt lat="63.91488" lon="10.23043">
        <ele>65.523672</ele>
        <time>2020-08-08T13:23:28.483Z</time>
      </trkpt>
      <trkpt lat="63.91498" lon="10.23053">
        <ele>65.307941</ele>
        <time>2020-08-08T13:23:30.514Z</time>
      </trkpt>
      <trkpt lat="63.91509" lon="10.23066">
        <ele>65.081535</ele>
        <time>2020-08-08T13:23:32.467Z</time>
      </trkpt>
      <trkpt lat="63.91519" lon="10.23076">
        <ele>64.874738</ele>
        <time>2020-08-08T13:23:34.459Z</time>
      </trkpt>
      <trkpt lat="63.91529" lon="10.23085">
        <ele>64.683722</ele>
        <time>2020-08-08T13:23:36.456Z</time>
      </trkpt>
      <trkpt lat="63.91538" lon="10.23093">
        <ele>64.670621</ele>
        <time>2020-08-08T13:23:38.454Z</time>
      </trkpt>
      <trkpt lat="63.91547" lon="10.231">
        <ele>64.749901</ele>
        <time>2020-08-08T13:23:40.478Z</time>
      </trkpt>
      <trkpt lat="63.91556" lon="10.23108">
        <ele>64.833941</ele>
        <time>2020-08-08T13:23:42.504Z</time>
      </trkpt>
      <trkpt lat="63.91565" lon="10.23117">
        <ele>64.917844</ele>
        <time>2020-08-08T13:23:44.456Z</time>
      </trkpt>
      <trkpt lat="63.91574" lon="10.23124">
        <ele>65.00077</ele>
        <time>2020-08-08T13:23:46.490Z</time>
      </trkpt>
      <trkpt lat="63.91584" lon="10.2313">
        <ele>65.08772</ele>
        <time>2020-08-08T13:23:48.518Z</time>
      </trkpt>
      <trkpt lat="63.91595" lon="10.23136">
        <ele>65.180966</ele>
        <time>2020-08-08T13:23:50.473Z</time>
      </trkpt>
      <trkpt lat="63.91606" lon="10.23141">
        <ele>65.274706</ele>
        <time>2020-08-08T13:23:52.481Z</time>
      </trkpt>
      <trkpt lat="63.91616" lon="10.23145">
        <ele>65.365148</ele>
        <time>2020-08-08T13:23:54.470Z</time>
      </trkpt>
      <trkpt lat="63.91627" lon="10.23147">
        <ele>65.45447</ele>
        <time>2020-08-08T13:23:56.472Z</time>
      </trkpt>
      <trkpt lat="63.91637" lon="10.23148">
        <ele>65.539255</ele>
        <time>2020-08-08T13:23:58.471Z</time>
      </trkpt>
      <trkpt lat="63.91647" lon="10.23147">
        <ele>65.6232</ele>
        <time>2020-08-08T13:24:00.457Z</time>
      </trkpt>
      <trkpt lat="63.91656" lon="10.23146">
        <ele>65.700519</ele>
        <time>2020-08-08T13:24:02.460Z</time>
      </trkpt>
      <trkpt lat="63.91665" lon="10.23143">
        <ele>65.776494</ele>
        <time>2020-08-08T13:24:04.470Z</time>
      </trkpt>
      <trkpt lat="63.91673" lon="10.23139">
        <ele>65.8534</ele>
        <time>2020-08-08T13:24:06.475Z</time>
      </trkpt>
      <trkpt lat="63.91685" lon="10.23133">
        <ele>65.95303</ele>
        <time>2020-08-08T13:24:09.486Z</time>
      </trkpt>
      <trkpt lat="63.91695" lon="10.23129">
        <ele>66.040838</ele>
        <time>2020-08-08T13:24:12.451Z</time>
      </trkpt>
      <trkpt lat="63.91704" lon="10.23123">
        <ele>66.116879</ele>
        <time>2020-08-08T13:24:15.478Z</time>
      </trkpt>
      <trkpt lat="63.91714" lon="10.23116">
        <ele>66.28069</ele>
        <time>2020-08-08T13:24:19.441Z</time>
      </trkpt>
      <trkpt lat="63.91724" lon="10.23112">
        <ele>66.456495</ele>
        <time>2020-08-08T13:24:23.471Z</time>
      </trkpt>
      <trkpt lat="63.91733" lon="10.23107">
        <ele>66.627336</ele>
        <time>2020-08-08T13:24:27.477Z</time>
      </trkpt>
      <trkpt lat="63.91743" lon="10.23102">
        <ele>66.809616</ele>
        <time>2020-08-08T13:24:31.473Z</time>
      </trkpt>
      <trkpt lat="63.91752" lon="10.23096">
        <ele>66.976736</ele>
        <time>2020-08-08T13:24:35.490Z</time>
      </trkpt>
      <trkpt lat="63.91763" lon="10.2309">
        <ele>67.176389</ele>
        <time>2020-08-08T13:24:40.487Z</time>
      </trkpt>
      <trkpt lat="63.91772" lon="10.23085">
        <ele>67.337643</ele>
        <time>2020-08-08T13:24:44.490Z</time>
      </trkpt>
      <trkpt lat="63.9178" lon="10.23079">
        <ele>67.499629</ele>
        <time>2020-08-08T13:24:48.474Z</time>
      </trkpt>
      <trkpt lat="63.91789" lon="10.23071">
        <ele>67.667923</ele>
        <time>2020-08-08T13:24:52.469Z</time>
      </trkpt>
      <trkpt lat="63.91798" lon="10.23065">
        <ele>67.837833</ele>
        <time>2020-08-08T13:24:56.518Z</time>
      </trkpt>
      <trkpt lat="63.91809" lon="10.23061">
        <ele>68.033625</ele>
        <time>2020-08-08T13:25:00.484Z</time>
      </trkpt>
      <trkpt lat="63.91818" lon="10.23055">
        <ele>68.196455</ele>
        <time>2020-08-08T13:25:03.470Z</time>
      </trkpt>
      <trkpt lat="63.91828" lon="10.23049">
        <ele>68.373251</ele>
        <time>2020-08-08T13:25:06.497Z</time>
      </trkpt>
      <trkpt lat="63.91839" lon="10.2304">
        <ele>68.59321</ele>
        <time>2020-08-08T13:25:09.487Z</time>
      </trkpt>
      <trkpt lat="63.91848" lon="10.23034">
        <ele>68.761401</ele>
        <time>2020-08-08T13:25:11.502Z</time>
      </trkpt>
      <trkpt lat="63.91858" lon="10.23027">
        <ele>68.945454</ele>
        <time>2020-08-08T13:25:13.451Z</time>
      </trkpt>
      <trkpt lat="63.91869" lon="10.2302">
        <ele>69.154174</ele>
        <time>2020-08-08T13:25:15.499Z</time>
      </trkpt>
      <trkpt lat="63.91882" lon="10.23012">
        <ele>69.279408</ele>
        <time>2020-08-08T13:25:17.459Z</time>
      </trkpt>
      <trkpt lat="63.91895" lon="10.23003">
        <ele>68.870077</ele>
        <time>2020-08-08T13:25:19.472Z</time>
      </trkpt>
      <trkpt lat="63.91909" lon="10.22994">
        <ele>68.404137</ele>
        <time>2020-08-08T13:25:21.486Z</time>
      </trkpt>
      <trkpt lat="63.91925" lon="10.22987">
        <ele>67.923683</ele>
        <time>2020-08-08T13:25:23.510Z</time>
      </trkpt>
      <trkpt lat="63.9194" lon="10.22978">
        <ele>67.426991</ele>
        <time>2020-08-08T13:25:25.509Z</time>
      </trkpt>
      <trkpt lat="63.91956" lon="10.22968">
        <ele>66.920226</ele>
        <time>2020-08-08T13:25:27.489Z</time>
      </trkpt>
      <trkpt lat="63.91972" lon="10.22958">
        <ele>66.431176</ele>
        <time>2020-08-08T13:25:29.460Z</time>
      </trkpt>
      <trkpt lat="63.91986" lon="10.22948">
        <ele>65.97819</ele>
        <time>2020-08-08T13:25:31.457Z</time>
      </trkpt>
      <trkpt lat="63.91999" lon="10.22937">
        <ele>65.550494</ele>
        <time>2020-08-08T13:25:33.475Z</time>
      </trkpt>
      <trkpt lat="63.92011" lon="10.22924">
        <ele>65.15091</ele>
        <time>2020-08-08T13:25:35.462Z</time>
      </trkpt>
      <trkpt lat="63.92021" lon="10.2291">
        <ele>64.775991</ele>
        <time>2020-08-08T13:25:37.471Z</time>
      </trkpt>
      <trkpt lat="63.92031" lon="10.22895">
        <ele>64.404974</ele>
        <time>2020-08-08T13:25:39.475Z</time>
      </trkpt>
      <trkpt lat="63.9204" lon="10.22879">
        <ele>64.052519</ele>
        <time>2020-08-08T13:25:41.478Z</time>
      </trkpt>
      <trkpt lat="63.92048" lon="10.22861">
        <ele>63.765092</ele>
        <time>2020-08-08T13:25:43.488Z</time>
      </trkpt>
      <trkpt lat="63.92055" lon="10.22843">
        <ele>63.589687</ele>
        <time>2020-08-08T13:25:45.457Z</time>
      </trkpt>
      <trkpt lat="63.92062" lon="10.22825">
        <ele>63.410969</ele>
        <time>2020-08-08T13:25:47.467Z</time>
      </trkpt>
      <trkpt lat="63.92068" lon="10.22807">
        <ele>63.244171</ele>
        <time>2020-08-08T13:25:49.487Z</time>
      </trkpt>
      <trkpt lat="63.92073" lon="10.22789">
        <ele>63.085899</ele>
        <time>2020-08-08T13:25:51.486Z</time>
      </trkpt>
      <trkpt lat="63.92078" lon="10.22771">
        <ele>62.924375</ele>
        <time>2020-08-08T13:25:53.449Z</time>
      </trkpt>
      <trkpt lat="63.92082" lon="10.22751">
        <ele>62.765294</ele>
        <time>2020-08-08T13:25:55.467Z</time>
      </trkpt>
      <trkpt lat="63.92086" lon="10.22732">
        <ele>62.606934</ele>
        <time>2020-08-08T13:25:57.493Z</time>
      </trkpt>
      <trkpt lat="63.9209" lon="10.22713">
        <ele>62.453323</ele>
        <time>2020-08-08T13:25:59.451Z</time>
      </trkpt>
      <trkpt lat="63.92094" lon="10.22685">
        <ele>62.236756</ele>
        <time>2020-08-08T13:26:02.449Z</time>
      </trkpt>
      <trkpt lat="63.92097" lon="10.22657">
        <ele>62.027059</ele>
        <time>2020-08-08T13:26:05.468Z</time>
      </trkpt>
      <trkpt lat="63.92099" lon="10.22631">
        <ele>61.825984</ele>
        <time>2020-08-08T13:26:08.465Z</time>
      </trkpt>
      <trkpt lat="63.921" lon="10.22604">
        <ele>61.626162</ele>
        <time>2020-08-08T13:26:11.473Z</time>
      </trkpt>
      <trkpt lat="63.92101" lon="10.22575">
        <ele>61.412783</ele>
        <time>2020-08-08T13:26:14.470Z</time>
      </trkpt>
      <trkpt lat="63.92103" lon="10.22548">
        <ele>61.215902</ele>
        <time>2020-08-08T13:26:17.469Z</time>
      </trkpt>
      <trkpt lat="63.92104" lon="10.22523">
        <ele>61.030046</ele>
        <time>2020-08-08T13:26:20.460Z</time>
      </trkpt>
      <trkpt lat="63.92105" lon="10.22497">
        <ele>60.836023</ele>
        <time>2020-08-08T13:26:23.499Z</time>
      </trkpt>
      <trkpt lat="63.92106" lon="10.2247">
        <ele>60.837256</ele>
        <time>2020-08-08T13:26:26.480Z</time>
      </trkpt>
      <trkpt lat="63.92106" lon="10.22441">
        <ele>60.881016</ele>
        <time>2020-08-08T13:26:29.481Z</time>
      </trkpt>
      <trkpt lat="63.92106" lon="10.2241">
        <ele>60.927327</ele>
        <time>2020-08-08T13:26:32.484Z</time>
      </trkpt>
      <trkpt lat="63.92105" lon="10.22388">
        <ele>60.960735</ele>
        <time>2020-08-08T13:26:34.446Z</time>
      </trkpt>
      <trkpt lat="63.92105" lon="10.22365">
        <ele>60.99491</ele>
        <time>2020-08-08T13:26:36.450Z</time>
      </trkpt>
      <trkpt lat="63.92104" lon="10.22341">
        <ele>61.03185</ele>
        <time>2020-08-08T13:26:38.510Z</time>
      </trkpt>
      <trkpt lat="63.92103" lon="10.22316">
        <ele>61.069239</ele>
        <time>2020-08-08T13:26:40.456Z</time>
      </trkpt>
      <trkpt lat="63.92102" lon="10.2229">
        <ele>61.108065</ele>
        <time>2020-08-08T13:26:42.481Z</time>
      </trkpt>
      <trkpt lat="63.92101" lon="10.22264">
        <ele>61.146954</ele>
        <time>2020-08-08T13:26:44.469Z</time>
      </trkpt>
      <trkpt lat="63.921" lon="10.22239">
        <ele>61.185387</ele>
        <time>2020-08-08T13:26:46.453Z</time>
      </trkpt>
      <trkpt lat="63.92098" lon="10.22214">
        <ele>61.223276</ele>
        <time>2020-08-08T13:26:48.469Z</time>
      </trkpt>
      <trkpt lat="63.92096" lon="10.2219">
        <ele>61.260139</ele>
        <time>2020-08-08T13:26:50.486Z</time>
      </trkpt>
      <trkpt lat="63.92094" lon="10.22166">
        <ele>61.29725</ele>
        <time>2020-08-08T13:26:52.494Z</time>
      </trkpt>
      <trkpt lat="63.92091" lon="10.22144">
        <ele>61.331884</ele>
        <time>2020-08-08T13:26:54.467Z</time>
      </trkpt>
      <trkpt lat="63.92088" lon="10.22123">
        <ele>61.365051</ele>
        <time>2020-08-08T13:26:56.529Z</time>
      </trkpt>
      <trkpt lat="63.92085" lon="10.22101">
        <ele>61.398767</ele>
        <time>2020-08-08T13:26:58.452Z</time>
      </trkpt>
      <trkpt lat="63.92083" lon="10.22079">
        <ele>61.544957</ele>
        <time>2020-08-08T13:27:00.481Z</time>
      </trkpt>
      <trkpt lat="63.9208" lon="10.22057">
        <ele>61.813617</ele>
        <time>2020-08-08T13:27:02.458Z</time>
      </trkpt>
      <trkpt lat="63.92077" lon="10.22034">
        <ele>62.084443</ele>
        <time>2020-08-08T13:27:04.491Z</time>
      </trkpt>
      <trkpt lat="63.92075" lon="10.22012">
        <ele>62.342649</ele>
        <time>2020-08-08T13:27:06.491Z</time>
      </trkpt>
      <trkpt lat="63.92074" lon="10.21992">
        <ele>62.583225</ele>
        <time>2020-08-08T13:27:08.461Z</time>
      </trkpt>
      <trkpt lat="63.92071" lon="10.21973">
        <ele>62.822704</ele>
        <time>2020-08-08T13:27:10.497Z</time>
      </trkpt>
      <trkpt lat="63.92069" lon="10.21952">
        <ele>63.067235</ele>
        <time>2020-08-08T13:27:12.467Z</time>
      </trkpt>
      <trkpt lat="63.92067" lon="10.2193">
        <ele>63.331151</ele>
        <time>2020-08-08T13:27:14.478Z</time>
      </trkpt>
      <trkpt lat="63.92065" lon="10.21909">
        <ele>63.585352</ele>
        <time>2020-08-08T13:27:16.482Z</time>
      </trkpt>
      <trkpt lat="63.92061" lon="10.21881">
        <ele>63.928112</ele>
        <time>2020-08-08T13:27:19.469Z</time>
      </trkpt>
      <trkpt lat="63.92058" lon="10.21855">
        <ele>64.241959</ele>
        <time>2020-08-08T13:27:22.491Z</time>
      </trkpt>
      <trkpt lat="63.92054" lon="10.21831">
        <ele>64.541668</ele>
        <time>2020-08-08T13:27:25.464Z</time>
      </trkpt>
      <trkpt lat="63.9205" lon="10.21809">
        <ele>64.817357</ele>
        <time>2020-08-08T13:27:28.476Z</time>
      </trkpt>
      <trkpt lat="63.92047" lon="10.21788">
        <ele>65.076786</ele>
        <time>2020-08-08T13:27:31.471Z</time>
      </trkpt>
      <trkpt lat="63.92042" lon="10.21764">
        <ele>65.3842</ele>
        <time>2020-08-08T13:27:35.463Z</time>
      </trkpt>
      <trkpt lat="63.9204" lon="10.21741">
        <ele>65.663615</ele>
        <time>2020-08-08T13:27:39.489Z</time>
      </trkpt>
      <trkpt lat="63.92037" lon="10.21721">
        <ele>65.905994</ele>
        <time>2020-08-08T13:27:43.465Z</time>
      </trkpt>
      <trkpt lat="63.92033" lon="10.21698">
        <ele>66.19734</ele>
        <time>2020-08-08T13:27:48.521Z</time>
      </trkpt>
      <trkpt lat="63.9203" lon="10.21675">
        <ele>66.301281</ele>
        <time>2020-08-08T13:27:53.459Z</time>
      </trkpt>
      <trkpt lat="63.92031" lon="10.21652">
        <ele>66.403173</ele>
        <time>2020-08-08T13:27:58.486Z</time>
      </trkpt>
      <trkpt lat="63.92031" lon="10.21627">
        <ele>66.507896</ele>
        <time>2020-08-08T13:28:03.506Z</time>
      </trkpt>
      <trkpt lat="63.92033" lon="10.21607">
        <ele>66.595474</ele>
        <time>2020-08-08T13:28:08.466Z</time>
      </trkpt>
      <trkpt lat="63.92036" lon="10.21586">
        <ele>66.689655</ele>
        <time>2020-08-08T13:28:13.466Z</time>
      </trkpt>
      <trkpt lat="63.92041" lon="10.21567">
        <ele>66.784407</ele>
        <time>2020-08-08T13:28:18.455Z</time>
      </trkpt>
      <trkpt lat="63.92049" lon="10.21551">
        <ele>66.890148</ele>
        <time>2020-08-08T13:28:23.455Z</time>
      </trkpt>
      <trkpt lat="63.92056" lon="10.21536">
        <ele>66.982064</ele>
        <time>2020-08-08T13:28:27.493Z</time>
      </trkpt>
      <trkpt lat="63.92063" lon="10.2152">
        <ele>67.079746</ele>
        <time>2020-08-08T13:28:31.515Z</time>
      </trkpt>
      <trkpt lat="63.92072" lon="10.2151">
        <ele>67.172872</ele>
        <time>2020-08-08T13:28:35.484Z</time>
      </trkpt>
      <trkpt lat="63.92083" lon="10.21502">
        <ele>67.283657</ele>
        <time>2020-08-08T13:28:39.486Z</time>
      </trkpt>
      <trkpt lat="63.92093" lon="10.21497">
        <ele>67.38695</ele>
        <time>2020-08-08T13:28:43.486Z</time>
      </trkpt>
      <trkpt lat="63.92102" lon="10.21496">
        <ele>67.476168</ele>
        <time>2020-08-08T13:28:46.494Z</time>
      </trkpt>
      <trkpt lat="63.92112" lon="10.21496">
        <ele>67.572019</ele>
        <time>2020-08-08T13:28:49.475Z</time>
      </trkpt>
      <trkpt lat="63.92122" lon="10.21498">
        <ele>67.663508</ele>
        <time>2020-08-08T13:28:52.466Z</time>
      </trkpt>
      <trkpt lat="63.92131" lon="10.215">
        <ele>67.752108</ele>
        <time>2020-08-08T13:28:55.463Z</time>
      </trkpt>
      <trkpt lat="63.92142" lon="10.21507">
        <ele>67.863608</ele>
        <time>2020-08-08T13:28:59.470Z</time>
      </trkpt>
      <trkpt lat="63.92152" lon="10.21511">
        <ele>67.974397</ele>
        <time>2020-08-08T13:29:03.441Z</time>
      </trkpt>
      <trkpt lat="63.92162" lon="10.21519">
        <ele>68.112242</ele>
        <time>2020-08-08T13:29:07.458Z</time>
      </trkpt>
      <trkpt lat="63.92173" lon="10.21525">
        <ele>68.263462</ele>
        <time>2020-08-08T13:29:11.487Z</time>
      </trkpt>
      <trkpt lat="63.92185" lon="10.21532">
        <ele>68.421854</ele>
        <time>2020-08-08T13:29:15.446Z</time>
      </trkpt>
      <trkpt lat="63.92196" lon="10.21538">
        <ele>68.574653</ele>
        <time>2020-08-08T13:29:19.461Z</time>
      </trkpt>
      <trkpt lat="63.92205" lon="10.21543">
        <ele>68.694557</ele>
        <time>2020-08-08T13:29:22.468Z</time>
      </trkpt>
      <trkpt lat="63.92216" lon="10.2155">
        <ele>68.843844</ele>
        <time>2020-08-08T13:29:26.492Z</time>
      </trkpt>
      <trkpt lat="63.92224" lon="10.21554">
        <ele>68.963013</ele>
        <time>2020-08-08T13:29:29.465Z</time>
      </trkpt>
      <trkpt lat="63.92236" lon="10.21561">
        <ele>69.11937</ele>
        <time>2020-08-08T13:29:33.488Z</time>
      </trkpt>
      <trkpt lat="63.92246" lon="10.21568">
        <ele>69.267546</ele>
        <time>2020-08-08T13:29:37.488Z</time>
      </trkpt>
      <trkpt lat="63.92256" lon="10.21575">
        <ele>69.404707</ele>
        <time>2020-08-08T13:29:41.467Z</time>
      </trkpt>
      <trkpt lat="63.92267" lon="10.21579">
        <ele>69.542358</ele>
        <time>2020-08-08T13:29:45.465Z</time>
      </trkpt>
      <trkpt lat="63.92276" lon="10.21585">
        <ele>69.675397</ele>
        <time>2020-08-08T13:29:49.506Z</time>
      </trkpt>
      <trkpt lat="63.92285" lon="10.2159">
        <ele>69.800284</ele>
        <time>2020-08-08T13:29:53.469Z</time>
      </trkpt>
      <trkpt lat="63.92296" lon="10.21597">
        <ele>69.941596</ele>
        <time>2020-08-08T13:29:57.457Z</time>
      </trkpt>
      <trkpt lat="63.92306" lon="10.21604">
        <ele>70.091686</ele>
        <time>2020-08-08T13:30:01.457Z</time>
      </trkpt>
      <trkpt lat="63.92315" lon="10.21609">
        <ele>70.211753</ele>
        <time>2020-08-08T13:30:04.487Z</time>
      </trkpt>
      <trkpt lat="63.92325" lon="10.21618">
        <ele>70.322241</ele>
        <time>2020-08-08T13:30:07.460Z</time>
      </trkpt>
      <trkpt lat="63.92336" lon="10.21626">
        <ele>70.244202</ele>
        <time>2020-08-08T13:30:10.469Z</time>
      </trkpt>
      <trkpt lat="63.92347" lon="10.21634">
        <ele>70.164165</ele>
        <time>2020-08-08T13:30:13.470Z</time>
      </trkpt>
      <trkpt lat="63.92358" lon="10.21644">
        <ele>70.081019</ele>
        <time>2020-08-08T13:30:16.538Z</time>
      </trkpt>
      <trkpt lat="63.92369" lon="10.21656">
        <ele>69.9921</ele>
        <time>2020-08-08T13:30:19.459Z</time>
      </trkpt>
      <trkpt lat="63.92381" lon="10.21668">
        <ele>69.898819</ele>
        <time>2020-08-08T13:30:22.457Z</time>
      </trkpt>
      <trkpt lat="63.92392" lon="10.21682">
        <ele>69.808843</ele>
        <time>2020-08-08T13:30:25.441Z</time>
      </trkpt>
      <trkpt lat="63.92403" lon="10.21697">
        <ele>69.722831</ele>
        <time>2020-08-08T13:30:28.459Z</time>
      </trkpt>
      <trkpt lat="63.92413" lon="10.21712">
        <ele>69.634372</ele>
        <time>2020-08-08T13:30:31.456Z</time>
      </trkpt>
      <trkpt lat="63.92421" lon="10.21724">
        <ele>69.567975</ele>
        <time>2020-08-08T13:30:33.521Z</time>
      </trkpt>
      <trkpt lat="63.92428" lon="10.2174">
        <ele>69.498934</ele>
        <time>2020-08-08T13:30:35.455Z</time>
      </trkpt>
      <trkpt lat="63.92434" lon="10.21755">
        <ele>69.434973</ele>
        <time>2020-08-08T13:30:37.485Z</time>
      </trkpt>
      <trkpt lat="63.9244" lon="10.21771">
        <ele>69.368287</ele>
        <time>2020-08-08T13:30:39.474Z</time>
      </trkpt>
      <trkpt lat="63.92447" lon="10.21788">
        <ele>69.298764</ele>
        <time>2020-08-08T13:30:41.455Z</time>
      </trkpt>
      <trkpt lat="63.92455" lon="10.21803">
        <ele>69.227417</ele>
        <time>2020-08-08T13:30:43.460Z</time>
      </trkpt>
      <trkpt lat="63.92462" lon="10.21819">
        <ele>69.153986</ele>
        <time>2020-08-08T13:30:45.471Z</time>
      </trkpt>
      <trkpt lat="63.92471" lon="10.21838">
        <ele>69.072544</ele>
        <time>2020-08-08T13:30:47.455Z</time>
      </trkpt>
      <trkpt lat="63.92479" lon="10.21858">
        <ele>68.467101</ele>
        <time>2020-08-08T13:30:49.468Z</time>
      </trkpt>
      <trkpt lat="63.92488" lon="10.2188">
        <ele>67.754869</ele>
        <time>2020-08-08T13:30:51.452Z</time>
      </trkpt>
      <trkpt lat="63.92499" lon="10.21904">
        <ele>66.986147</ele>
        <time>2020-08-08T13:30:53.452Z</time>
      </trkpt>
      <trkpt lat="63.9251" lon="10.21929">
        <ele>66.163761</ele>
        <time>2020-08-08T13:30:55.473Z</time>
      </trkpt>
      <trkpt lat="63.92522" lon="10.21957">
        <ele>65.267601</ele>
        <time>2020-08-08T13:30:57.458Z</time>
      </trkpt>
      <trkpt lat="63.92534" lon="10.21986">
        <ele>64.321059</ele>
        <time>2020-08-08T13:30:59.477Z</time>
      </trkpt>
      <trkpt lat="63.92541" lon="10.22002">
        <ele>63.825564</ele>
        <time>2020-08-08T13:31:00.451Z</time>
      </trkpt>
      <trkpt lat="63.92548" lon="10.22018">
        <ele>63.313783</ele>
        <time>2020-08-08T13:31:01.461Z</time>
      </trkpt>
      <trkpt lat="63.92555" lon="10.22034">
        <ele>62.793403</ele>
        <time>2020-08-08T13:31:02.468Z</time>
      </trkpt>
      <trkpt lat="63.92562" lon="10.2205">
        <ele>62.264792</ele>
        <time>2020-08-08T13:31:03.512Z</time>
      </trkpt>
      <trkpt lat="63.92569" lon="10.22067">
        <ele>61.721877</ele>
        <time>2020-08-08T13:31:04.451Z</time>
      </trkpt>
      <trkpt lat="63.92577" lon="10.22084">
        <ele>61.158061</ele>
        <time>2020-08-08T13:31:05.472Z</time>
      </trkpt>
      <trkpt lat="63.92584" lon="10.22102">
        <ele>60.581415</ele>
        <time>2020-08-08T13:31:06.470Z</time>
      </trkpt>
      <trkpt lat="63.92592" lon="10.22119">
        <ele>59.999394</ele>
        <time>2020-08-08T13:31:07.461Z</time>
      </trkpt>
      <trkpt lat="63.92601" lon="10.22137">
        <ele>59.424682</ele>
        <time>2020-08-08T13:31:08.457Z</time>
      </trkpt>
      <trkpt lat="63.92609" lon="10.22155">
        <ele>58.874321</ele>
        <time>2020-08-08T13:31:09.500Z</time>
      </trkpt>
      <trkpt lat="63.92618" lon="10.22172">
        <ele>58.325395</ele>
        <time>2020-08-08T13:31:10.482Z</time>
      </trkpt>
      <trkpt lat="63.92625" lon="10.22191">
        <ele>57.787767</ele>
        <time>2020-08-08T13:31:11.521Z</time>
      </trkpt>
      <trkpt lat="63.92634" lon="10.2221">
        <ele>57.219027</ele>
        <time>2020-08-08T13:31:12.465Z</time>
      </trkpt>
      <trkpt lat="63.92642" lon="10.2223">
        <ele>56.643289</ele>
        <time>2020-08-08T13:31:13.490Z</time>
      </trkpt>
      <trkpt lat="63.92651" lon="10.22249">
        <ele>56.075391</ele>
        <time>2020-08-08T13:31:14.465Z</time>
      </trkpt>
      <trkpt lat="63.92659" lon="10.22268">
        <ele>55.500691</ele>
        <time>2020-08-08T13:31:15.479Z</time>
      </trkpt>
      <trkpt lat="63.92667" lon="10.22287">
        <ele>54.939519</ele>
        <time>2020-08-08T13:31:16.490Z</time>
      </trkpt>
      <trkpt lat="63.92675" lon="10.22306">
        <ele>54.399195</ele>
        <time>2020-08-08T13:31:17.473Z</time>
      </trkpt>
      <trkpt lat="63.92682" lon="10.22323">
        <ele>53.885971</ele>
        <time>2020-08-08T13:31:18.464Z</time>
      </trkpt>
      <trkpt lat="63.92689" lon="10.2234">
        <ele>53.399624</ele>
        <time>2020-08-08T13:31:19.478Z</time>
      </trkpt>
      <trkpt lat="63.92696" lon="10.22357">
        <ele>52.933626</ele>
        <time>2020-08-08T13:31:20.488Z</time>
      </trkpt>
      <trkpt lat="63.92702" lon="10.22372">
        <ele>52.499518</ele>
        <time>2020-08-08T13:31:21.481Z</time>
      </trkpt>
      <trkpt lat="63.92714" lon="10.224">
        <ele>51.697142</ele>
        <time>2020-08-08T13:31:23.480Z</time>
      </trkpt>
      <trkpt lat="63.92725" lon="10.22425">
        <ele>51.054761</ele>
        <time>2020-08-08T13:31:25.454Z</time>
      </trkpt>
      <trkpt lat="63.92735" lon="10.22448">
        <ele>51.205477</ele>
        <time>2020-08-08T13:31:27.510Z</time>
      </trkpt>
      <trkpt lat="63.92745" lon="10.22468">
        <ele>51.343238</ele>
        <time>2020-08-08T13:31:29.471Z</time>
      </trkpt>
      <trkpt lat="63.92755" lon="10.22485">
        <ele>51.473409</ele>
        <time>2020-08-08T13:31:31.479Z</time>
      </trkpt>
      <trkpt lat="63.92765" lon="10.225">
        <ele>51.593995</ele>
        <time>2020-08-08T13:31:33.470Z</time>
      </trkpt>
      <trkpt lat="63.92774" lon="10.22513">
        <ele>51.701701</ele>
        <time>2020-08-08T13:31:35.468Z</time>
      </trkpt>
      <trkpt lat="63.92783" lon="10.22523">
        <ele>51.809732</ele>
        <time>2020-08-08T13:31:37.464Z</time>
      </trkpt>
      <trkpt lat="63.92792" lon="10.22531">
        <ele>51.913028</ele>
        <time>2020-08-08T13:31:39.461Z</time>
      </trkpt>
      <trkpt lat="63.92801" lon="10.22538">
        <ele>52.006633</ele>
        <time>2020-08-08T13:31:41.521Z</time>
      </trkpt>
      <trkpt lat="63.92811" lon="10.22546">
        <ele>52.118036</ele>
        <time>2020-08-08T13:31:44.494Z</time>
      </trkpt>
      <trkpt lat="63.9282" lon="10.22551">
        <ele>52.217629</ele>
        <time>2020-08-08T13:31:47.465Z</time>
      </trkpt>
      <trkpt lat="63.92831" lon="10.22549">
        <ele>52.332222</ele>
        <time>2020-08-08T13:31:52.479Z</time>
      </trkpt>
      <trkpt lat="63.92842" lon="10.22551">
        <ele>52.444759</ele>
        <time>2020-08-08T13:31:56.462Z</time>
      </trkpt>
      <trkpt lat="63.92853" lon="10.22551">
        <ele>52.556145</ele>
        <time>2020-08-08T13:32:00.490Z</time>
      </trkpt>
      <trkpt lat="63.92864" lon="10.22553">
        <ele>52.670936</ele>
        <time>2020-08-08T13:32:04.461Z</time>
      </trkpt>
      <trkpt lat="63.92997" lon="10.22573">
        <ele>62.902084</ele>
        <time>2020-08-08T13:33:10.670Z</time>
      </trkpt>
      <trkpt lat="63.93002" lon="10.22554">
        <ele>63.793328</ele>
        <time>2020-08-08T13:33:11.486Z</time>
      </trkpt>
      <trkpt lat="63.9301" lon="10.22547">
        <ele>64.612534</ele>
        <time>2020-08-08T13:33:14.469Z</time>
      </trkpt>
      <trkpt lat="63.9302" lon="10.22541">
        <ele>65.543682</ele>
        <time>2020-08-08T13:33:19.471Z</time>
      </trkpt>
      <trkpt lat="63.93029" lon="10.22538">
        <ele>66.364703</ele>
        <time>2020-08-08T13:33:23.467Z</time>
      </trkpt>
      <trkpt lat="63.9304" lon="10.22533">
        <ele>67.346855</ele>
        <time>2020-08-08T13:33:27.472Z</time>
      </trkpt>
      <trkpt lat="63.93049" lon="10.22534">
        <ele>68.178404</ele>
        <time>2020-08-08T13:33:30.476Z</time>
      </trkpt>
      <trkpt lat="63.9306" lon="10.22538">
        <ele>69.136608</ele>
        <time>2020-08-08T13:33:33.461Z</time>
      </trkpt>
      <trkpt lat="63.93072" lon="10.22543">
        <ele>68.511959</ele>
        <time>2020-08-08T13:33:36.506Z</time>
      </trkpt>
      <trkpt lat="63.93085" lon="10.22545">
        <ele>67.837445</ele>
        <time>2020-08-08T13:33:39.470Z</time>
      </trkpt>
      <trkpt lat="63.93094" lon="10.22545">
        <ele>67.38503</ele>
        <time>2020-08-08T13:33:41.472Z</time>
      </trkpt>
      <trkpt lat="63.93104" lon="10.22543">
        <ele>66.876725</ele>
        <time>2020-08-08T13:33:43.474Z</time>
      </trkpt>
      <trkpt lat="63.93115" lon="10.22539">
        <ele>66.316149</ele>
        <time>2020-08-08T13:33:45.473Z</time>
      </trkpt>
      <trkpt lat="63.93128" lon="10.22535">
        <ele>65.697275</ele>
        <time>2020-08-08T13:33:47.462Z</time>
      </trkpt>
      <trkpt lat="63.9314" lon="10.22528">
        <ele>65.041576</ele>
        <time>2020-08-08T13:33:49.490Z</time>
      </trkpt>
      <trkpt lat="63.93153" lon="10.22516">
        <ele>64.335095</ele>
        <time>2020-08-08T13:33:51.469Z</time>
      </trkpt>
      <trkpt lat="63.93167" lon="10.225">
        <ele>63.568043</ele>
        <time>2020-08-08T13:33:53.500Z</time>
      </trkpt>
      <trkpt lat="63.93179" lon="10.22475">
        <ele>62.742115</ele>
        <time>2020-08-08T13:33:55.494Z</time>
      </trkpt>
      <trkpt lat="63.93191" lon="10.22444">
        <ele>61.851044</ele>
        <time>2020-08-08T13:33:57.485Z</time>
      </trkpt>
      <trkpt lat="63.93199" lon="10.22412">
        <ele>61.00982</ele>
        <time>2020-08-08T13:33:59.464Z</time>
      </trkpt>
      <trkpt lat="63.93207" lon="10.22383">
        <ele>60.285691</ele>
        <time>2020-08-08T13:34:01.477Z</time>
      </trkpt>
      <trkpt lat="63.93213" lon="10.2236">
        <ele>59.969948</ele>
        <time>2020-08-08T13:34:03.454Z</time>
      </trkpt>
      <trkpt lat="63.93219" lon="10.22339">
        <ele>59.810225</ele>
        <time>2020-08-08T13:34:05.473Z</time>
      </trkpt>
      <trkpt lat="63.93224" lon="10.22319">
        <ele>59.658976</ele>
        <time>2020-08-08T13:34:07.457Z</time>
      </trkpt>
      <trkpt lat="63.93228" lon="10.22299">
        <ele>59.511552</ele>
        <time>2020-08-08T13:34:09.528Z</time>
      </trkpt>
      <trkpt lat="63.93233" lon="10.2228">
        <ele>59.36715</ele>
        <time>2020-08-08T13:34:11.463Z</time>
      </trkpt>
      <trkpt lat="63.93239" lon="10.22263">
        <ele>59.225642</ele>
        <time>2020-08-08T13:34:13.483Z</time>
      </trkpt>
      <trkpt lat="63.93247" lon="10.22241">
        <ele>59.038333</ele>
        <time>2020-08-08T13:34:16.454Z</time>
      </trkpt>
      <trkpt lat="63.93255" lon="10.22223">
        <ele>58.875106</ele>
        <time>2020-08-08T13:34:19.477Z</time>
      </trkpt>
      <trkpt lat="63.93263" lon="10.22208">
        <ele>58.712115</ele>
        <time>2020-08-08T13:34:22.448Z</time>
      </trkpt>
      <trkpt lat="63.93272" lon="10.22192">
        <ele>58.546738</ele>
        <time>2020-08-08T13:34:25.449Z</time>
      </trkpt>
      <trkpt lat="63.93282" lon="10.22183">
        <ele>58.384546</ele>
        <time>2020-08-08T13:34:28.520Z</time>
      </trkpt>
      <trkpt lat="63.93294" lon="10.22176">
        <ele>58.206109</ele>
        <time>2020-08-08T13:34:31.461Z</time>
      </trkpt>
      <trkpt lat="63.93306" lon="10.2217">
        <ele>58.012834</ele>
        <time>2020-08-08T13:34:34.473Z</time>
      </trkpt>
      <trkpt lat="63.9332" lon="10.22169">
        <ele>57.815657</ele>
        <time>2020-08-08T13:34:37.507Z</time>
      </trkpt>
      <trkpt lat="63.93329" lon="10.2217">
        <ele>57.678166</ele>
        <time>2020-08-08T13:34:39.496Z</time>
      </trkpt>
      <trkpt lat="63.93338" lon="10.22168">
        <ele>57.540045</ele>
        <time>2020-08-08T13:34:41.488Z</time>
      </trkpt>
      <trkpt lat="63.93348" lon="10.2217">
        <ele>57.394009</ele>
        <time>2020-08-08T13:34:43.455Z</time>
      </trkpt>
      <trkpt lat="63.93358" lon="10.22172">
        <ele>57.24429</ele>
        <time>2020-08-08T13:34:45.462Z</time>
      </trkpt>
      <trkpt lat="63.93369" lon="10.22174">
        <ele>57.084883</ele>
        <time>2020-08-08T13:34:47.454Z</time>
      </trkpt>
      <trkpt lat="63.93381" lon="10.22176">
        <ele>56.91656</ele>
        <time>2020-08-08T13:34:49.515Z</time>
      </trkpt>
      <trkpt lat="63.93393" lon="10.22179">
        <ele>56.742089</ele>
        <time>2020-08-08T13:34:51.476Z</time>
      </trkpt>
      <trkpt lat="63.93405" lon="10.22181">
        <ele>56.574246</ele>
        <time>2020-08-08T13:34:53.532Z</time>
      </trkpt>
      <trkpt lat="63.93417" lon="10.22182">
        <ele>56.399365</ele>
        <time>2020-08-08T13:34:55.485Z</time>
      </trkpt>
      <trkpt lat="63.9343" lon="10.22184">
        <ele>56.216766</ele>
        <time>2020-08-08T13:34:57.478Z</time>
      </trkpt>
      <trkpt lat="63.93443" lon="10.22185">
        <ele>56.0231</ele>
        <time>2020-08-08T13:34:59.488Z</time>
      </trkpt>
      <trkpt lat="63.93457" lon="10.22188">
        <ele>55.826219</ele>
        <time>2020-08-08T13:35:01.489Z</time>
      </trkpt>
      <trkpt lat="63.93471" lon="10.2219">
        <ele>55.623622</ele>
        <time>2020-08-08T13:35:03.449Z</time>
      </trkpt>
      <trkpt lat="63.93485" lon="10.22194">
        <ele>55.420524</ele>
        <time>2020-08-08T13:35:05.485Z</time>
      </trkpt>
      <trkpt lat="63.935" lon="10.22197">
        <ele>55.21166</ele>
        <time>2020-08-08T13:35:07.474Z</time>
      </trkpt>
      <trkpt lat="63.93514" lon="10.222">
        <ele>55.009854</ele>
        <time>2020-08-08T13:35:09.465Z</time>
      </trkpt>
      <trkpt lat="63.93527" lon="10.22204">
        <ele>54.845837</ele>
        <time>2020-08-08T13:35:11.485Z</time>
      </trkpt>
      <trkpt lat="63.9354" lon="10.22207">
        <ele>54.913182</ele>
        <time>2020-08-08T13:35:13.486Z</time>
      </trkpt>
      <trkpt lat="63.93552" lon="10.22209">
        <ele>54.977008</ele>
        <time>2020-08-08T13:35:15.458Z</time>
      </trkpt>
      <trkpt lat="63.93563" lon="10.22211">
        <ele>55.038394</ele>
        <time>2020-08-08T13:35:17.476Z</time>
      </trkpt>
      <trkpt lat="63.93574" lon="10.22216">
        <ele>55.09826</ele>
        <time>2020-08-08T13:35:19.529Z</time>
      </trkpt>
      <trkpt lat="63.93584" lon="10.22221">
        <ele>55.153662</ele>
        <time>2020-08-08T13:35:21.492Z</time>
      </trkpt>
      <trkpt lat="63.93594" lon="10.22227">
        <ele>55.204742</ele>
        <time>2020-08-08T13:35:23.467Z</time>
      </trkpt>
      <trkpt lat="63.93602" lon="10.22236">
        <ele>55.255294</ele>
        <time>2020-08-08T13:35:25.449Z</time>
      </trkpt>
      <trkpt lat="63.93611" lon="10.22247">
        <ele>55.309069</ele>
        <time>2020-08-08T13:35:27.479Z</time>
      </trkpt>
      <trkpt lat="63.9362" lon="10.22257">
        <ele>55.362558</ele>
        <time>2020-08-08T13:35:29.521Z</time>
      </trkpt>
      <trkpt lat="63.93629" lon="10.22267">
        <ele>55.415138</ele>
        <time>2020-08-08T13:35:31.472Z</time>
      </trkpt>
      <trkpt lat="63.93639" lon="10.22275">
        <ele>55.468844</ele>
        <time>2020-08-08T13:35:33.490Z</time>
      </trkpt>
      <trkpt lat="63.93648" lon="10.22284">
        <ele>55.522233</ele>
        <time>2020-08-08T13:35:35.460Z</time>
      </trkpt>
      <trkpt lat="63.93658" lon="10.22292">
        <ele>55.57933</ele>
        <time>2020-08-08T13:35:37.507Z</time>
      </trkpt>
      <trkpt lat="63.93668" lon="10.223">
        <ele>55.633775</ele>
        <time>2020-08-08T13:35:39.442Z</time>
      </trkpt>
      <trkpt lat="63.93677" lon="10.22309">
        <ele>55.686274</ele>
        <time>2020-08-08T13:35:41.510Z</time>
      </trkpt>
      <trkpt lat="63.93686" lon="10.22318">
        <ele>55.739051</ele>
        <time>2020-08-08T13:35:43.501Z</time>
      </trkpt>
      <trkpt lat="63.93695" lon="10.22326">
        <ele>55.791099</ele>
        <time>2020-08-08T13:35:45.493Z</time>
      </trkpt>
      <trkpt lat="63.93704" lon="10.22333">
        <ele>55.999829</ele>
        <time>2020-08-08T13:35:47.473Z</time>
      </trkpt>
      <trkpt lat="63.93713" lon="10.22339">
        <ele>56.220752</ele>
        <time>2020-08-08T13:35:49.452Z</time>
      </trkpt>
      <trkpt lat="63.93722" lon="10.22343">
        <ele>56.432481</ele>
        <time>2020-08-08T13:35:51.524Z</time>
      </trkpt>
      <trkpt lat="63.93731" lon="10.22347">
        <ele>56.640246</ele>
        <time>2020-08-08T13:35:53.484Z</time>
      </trkpt>
      <trkpt lat="63.93744" lon="10.22349">
        <ele>56.923466</ele>
        <time>2020-08-08T13:35:56.452Z</time>
      </trkpt>
      <trkpt lat="63.93755" lon="10.22353">
        <ele>57.175731</ele>
        <time>2020-08-08T13:35:59.502Z</time>
      </trkpt>
      <trkpt lat="63.93766" lon="10.22356">
        <ele>57.423107</ele>
        <time>2020-08-08T13:36:02.479Z</time>
      </trkpt>
      <trkpt lat="63.93776" lon="10.22359">
        <ele>57.66035</ele>
        <time>2020-08-08T13:36:05.482Z</time>
      </trkpt>
      <trkpt lat="63.93786" lon="10.22361">
        <ele>57.885815</ele>
        <time>2020-08-08T13:36:08.493Z</time>
      </trkpt>
      <trkpt lat="63.93796" lon="10.22361">
        <ele>58.113288</ele>
        <time>2020-08-08T13:36:11.452Z</time>
      </trkpt>
      <trkpt lat="63.93806" lon="10.22361">
        <ele>58.347551</ele>
        <time>2020-08-08T13:36:14.456Z</time>
      </trkpt>
      <trkpt lat="63.93816" lon="10.2236">
        <ele>58.579601</ele>
        <time>2020-08-08T13:36:17.456Z</time>
      </trkpt>
      <trkpt lat="63.93826" lon="10.22357">
        <ele>58.806549</ele>
        <time>2020-08-08T13:36:20.509Z</time>
      </trkpt>
      <trkpt lat="63.93836" lon="10.22352">
        <ele>59.039552</ele>
        <time>2020-08-08T13:36:23.472Z</time>
      </trkpt>
      <trkpt lat="63.93846" lon="10.22348">
        <ele>59.266102</ele>
        <time>2020-08-08T13:36:26.478Z</time>
      </trkpt>
      <trkpt lat="63.93856" lon="10.2234">
        <ele>59.497528</ele>
        <time>2020-08-08T13:36:29.484Z</time>
      </trkpt>
      <trkpt lat="63.93864" lon="10.22329">
        <ele>59.724308</ele>
        <time>2020-08-08T13:36:32.459Z</time>
      </trkpt>
      <trkpt lat="63.93874" lon="10.22315">
        <ele>60.073435</ele>
        <time>2020-08-08T13:36:36.474Z</time>
      </trkpt>
      <trkpt lat="63.93883" lon="10.22306">
        <ele>60.418823</ele>
        <time>2020-08-08T13:36:39.486Z</time>
      </trkpt>
      <trkpt lat="63.93892" lon="10.22291">
        <ele>60.868115</ele>
        <time>2020-08-08T13:36:43.457Z</time>
      </trkpt>
      <trkpt lat="63.93902" lon="10.22281">
        <ele>61.259823</ele>
        <time>2020-08-08T13:36:47.451Z</time>
      </trkpt>
      <trkpt lat="63.93911" lon="10.22274">
        <ele>61.628439</ele>
        <time>2020-08-08T13:36:51.480Z</time>
      </trkpt>
      <trkpt lat="63.9392" lon="10.22268">
        <ele>61.997938</ele>
        <time>2020-08-08T13:36:55.467Z</time>
      </trkpt>
      <trkpt lat="63.93931" lon="10.22262">
        <ele>62.417905</ele>
        <time>2020-08-08T13:37:00.499Z</time>
      </trkpt>
      <trkpt lat="63.9394" lon="10.22261">
        <ele>62.779236</ele>
        <time>2020-08-08T13:37:04.465Z</time>
      </trkpt>
      <trkpt lat="63.93949" lon="10.22259">
        <ele>63.129251</ele>
        <time>2020-08-08T13:37:08.480Z</time>
      </trkpt>
      <trkpt lat="63.93961" lon="10.22256">
        <ele>63.573404</ele>
        <time>2020-08-08T13:37:13.490Z</time>
      </trkpt>
      <trkpt lat="63.93971" lon="10.22252">
        <ele>63.965404</ele>
        <time>2020-08-08T13:37:17.451Z</time>
      </trkpt>
      <trkpt lat="63.93982" lon="10.22251">
        <ele>64.394841</ele>
        <time>2020-08-08T13:37:21.469Z</time>
      </trkpt>
      <trkpt lat="63.93993" lon="10.22251">
        <ele>64.804907</ele>
        <time>2020-08-08T13:37:25.494Z</time>
      </trkpt>
      <trkpt lat="63.94003" lon="10.22249">
        <ele>65.184893</ele>
        <time>2020-08-08T13:37:29.482Z</time>
      </trkpt>
      <trkpt lat="63.94012" lon="10.22247">
        <ele>65.53232</ele>
        <time>2020-08-08T13:37:33.452Z</time>
      </trkpt>
      <trkpt lat="63.94021" lon="10.22245">
        <ele>65.890433</ele>
        <time>2020-08-08T13:37:38.462Z</time>
      </trkpt>
      <trkpt lat="63.9403" lon="10.22247">
        <ele>66.240448</ele>
        <time>2020-08-08T13:37:43.454Z</time>
      </trkpt>
      <trkpt lat="63.94039" lon="10.22249">
        <ele>66.603294</ele>
        <time>2020-08-08T13:37:48.457Z</time>
      </trkpt>
      <trkpt lat="63.94049" lon="10.22251">
        <ele>66.967184</ele>
        <time>2020-08-08T13:37:53.464Z</time>
      </trkpt>
      <trkpt lat="63.94059" lon="10.22252">
        <ele>67.346952</ele>
        <time>2020-08-08T13:37:58.450Z</time>
      </trkpt>
      <trkpt lat="63.94068" lon="10.22254">
        <ele>67.727195</ele>
        <time>2020-08-08T13:38:03.497Z</time>
      </trkpt>
      <trkpt lat="63.94079" lon="10.22256">
        <ele>68.135246</ele>
        <time>2020-08-08T13:38:09.454Z</time>
      </trkpt>
      <trkpt lat="63.94089" lon="10.22258">
        <ele>68.512149</ele>
        <time>2020-08-08T13:38:14.494Z</time>
      </trkpt>
      <trkpt lat="63.94098" lon="10.22259">
        <ele>68.89218</ele>
        <time>2020-08-08T13:38:19.490Z</time>
      </trkpt>
      <trkpt lat="63.94109" lon="10.2226">
        <ele>69.310777</ele>
        <time>2020-08-08T13:38:25.503Z</time>
      </trkpt>
      <trkpt lat="63.94118" lon="10.22263">
        <ele>69.665621</ele>
        <time>2020-08-08T13:38:30.451Z</time>
      </trkpt>
      <trkpt lat="63.94128" lon="10.22264">
        <ele>70.041786</ele>
        <time>2020-08-08T13:38:35.484Z</time>
      </trkpt>
      <trkpt lat="63.94138" lon="10.22265">
        <ele>70.421268</ele>
        <time>2020-08-08T13:38:40.498Z</time>
      </trkpt>
      <trkpt lat="63.94147" lon="10.22268">
        <ele>70.784895</ele>
        <time>2020-08-08T13:38:45.510Z</time>
      </trkpt>
      <trkpt lat="63.94157" lon="10.2227">
        <ele>71.169974</ele>
        <time>2020-08-08T13:38:50.447Z</time>
      </trkpt>
      <trkpt lat="63.94167" lon="10.22273">
        <ele>71.568814</ele>
        <time>2020-08-08T13:38:55.473Z</time>
      </trkpt>
      <trkpt lat="63.94176" lon="10.22277">
        <ele>71.934012</ele>
        <time>2020-08-08T13:39:00.476Z</time>
      </trkpt>
      <trkpt lat="63.94187" lon="10.22279">
        <ele>72.335015</ele>
        <time>2020-08-08T13:39:05.472Z</time>
      </trkpt>
      <trkpt lat="63.94196" lon="10.22281">
        <ele>72.689108</ele>
        <time>2020-08-08T13:39:09.493Z</time>
      </trkpt>
      <trkpt lat="63.94205" lon="10.22284">
        <ele>73.048001</ele>
        <time>2020-08-08T13:39:13.480Z</time>
      </trkpt>
      <trkpt lat="63.94217" lon="10.22286">
        <ele>73.510202</ele>
        <time>2020-08-08T13:39:17.463Z</time>
      </trkpt>
      <trkpt lat="63.94227" lon="10.22289">
        <ele>73.605138</ele>
        <time>2020-08-08T13:39:20.512Z</time>
      </trkpt>
      <trkpt lat="63.94238" lon="10.22291">
        <ele>73.303562</ele>
        <time>2020-08-08T13:39:23.483Z</time>
      </trkpt>
      <trkpt lat="63.94249" lon="10.22296">
        <ele>72.988147</ele>
        <time>2020-08-08T13:39:26.496Z</time>
      </trkpt>
      <trkpt lat="63.94262" lon="10.223">
        <ele>72.633178</ele>
        <time>2020-08-08T13:39:29.482Z</time>
      </trkpt>
      <trkpt lat="63.94271" lon="10.22303">
        <ele>72.364645</ele>
        <time>2020-08-08T13:39:31.450Z</time>
      </trkpt>
      <trkpt lat="63.94281" lon="10.22305">
        <ele>72.082601</ele>
        <time>2020-08-08T13:39:33.473Z</time>
      </trkpt>
      <trkpt lat="63.94292" lon="10.22309">
        <ele>71.778655</ele>
        <time>2020-08-08T13:39:35.469Z</time>
      </trkpt>
      <trkpt lat="63.94304" lon="10.22314">
        <ele>71.445412</ele>
        <time>2020-08-08T13:39:37.468Z</time>
      </trkpt>
      <trkpt lat="63.94316" lon="10.22319">
        <ele>71.105064</ele>
        <time>2020-08-08T13:39:39.481Z</time>
      </trkpt>
      <trkpt lat="63.94328" lon="10.22324">
        <ele>70.757582</ele>
        <time>2020-08-08T13:39:41.461Z</time>
      </trkpt>
      <trkpt lat="63.9434" lon="10.22329">
        <ele>70.396281</ele>
        <time>2020-08-08T13:39:43.465Z</time>
      </trkpt>
      <trkpt lat="63.94353" lon="10.22333">
        <ele>70.038915</ele>
        <time>2020-08-08T13:39:45.515Z</time>
      </trkpt>
      <trkpt lat="63.94365" lon="10.22337">
        <ele>69.699255</ele>
        <time>2020-08-08T13:39:47.478Z</time>
      </trkpt>
      <trkpt lat="63.94378" lon="10.22342">
        <ele>69.324316</ele>
        <time>2020-08-08T13:39:49.472Z</time>
      </trkpt>
      <trkpt lat="63.94392" lon="10.22348">
        <ele>68.940776</ele>
        <time>2020-08-08T13:39:51.481Z</time>
      </trkpt>
      <trkpt lat="63.94405" lon="10.22354">
        <ele>68.45428</ele>
        <time>2020-08-08T13:39:53.514Z</time>
      </trkpt>
      <trkpt lat="63.94418" lon="10.2236">
        <ele>67.718452</ele>
        <time>2020-08-08T13:39:55.472Z</time>
      </trkpt>
      <trkpt lat="63.94432" lon="10.22368">
        <ele>66.948194</ele>
        <time>2020-08-08T13:39:57.441Z</time>
      </trkpt>
      <trkpt lat="63.94446" lon="10.22376">
        <ele>66.16577</ele>
        <time>2020-08-08T13:39:59.442Z</time>
      </trkpt>
      <trkpt lat="63.9446" lon="10.22384">
        <ele>65.422088</ele>
        <time>2020-08-08T13:40:01.457Z</time>
      </trkpt>
      <trkpt lat="63.94472" lon="10.22391">
        <ele>64.718053</ele>
        <time>2020-08-08T13:40:03.481Z</time>
      </trkpt>
      <trkpt lat="63.94484" lon="10.22397">
        <ele>64.054761</ele>
        <time>2020-08-08T13:40:05.443Z</time>
      </trkpt>
      <trkpt lat="63.94497" lon="10.22405">
        <ele>63.368681</ele>
        <time>2020-08-08T13:40:07.500Z</time>
      </trkpt>
      <trkpt lat="63.94508" lon="10.22415">
        <ele>62.694384</ele>
        <time>2020-08-08T13:40:09.465Z</time>
      </trkpt>
      <trkpt lat="63.94519" lon="10.22423">
        <ele>62.094888</ele>
        <time>2020-08-08T13:40:11.461Z</time>
      </trkpt>
      <trkpt lat="63.9453" lon="10.2243">
        <ele>61.50304</ele>
        <time>2020-08-08T13:40:13.463Z</time>
      </trkpt>
      <trkpt lat="63.94541" lon="10.22437">
        <ele>60.850739</ele>
        <time>2020-08-08T13:40:15.544Z</time>
      </trkpt>
      <trkpt lat="63.94554" lon="10.22443">
        <ele>60.164453</ele>
        <time>2020-08-08T13:40:17.475Z</time>
      </trkpt>
      <trkpt lat="63.94567" lon="10.22449">
        <ele>59.449427</ele>
        <time>2020-08-08T13:40:19.465Z</time>
      </trkpt>
      <trkpt lat="63.94581" lon="10.22456">
        <ele>58.813103</ele>
        <time>2020-08-08T13:40:21.499Z</time>
      </trkpt>
      <trkpt lat="63.94595" lon="10.22464">
        <ele>58.300343</ele>
        <time>2020-08-08T13:40:23.462Z</time>
      </trkpt>
      <trkpt lat="63.9461" lon="10.2247">
        <ele>57.781121</ele>
        <time>2020-08-08T13:40:25.464Z</time>
      </trkpt>
      <trkpt lat="63.94625" lon="10.22477">
        <ele>57.249622</ele>
        <time>2020-08-08T13:40:27.494Z</time>
      </trkpt>
      <trkpt lat="63.94641" lon="10.22485">
        <ele>56.686769</ele>
        <time>2020-08-08T13:40:29.451Z</time>
      </trkpt>
      <trkpt lat="63.94657" lon="10.22494">
        <ele>56.099211</ele>
        <time>2020-08-08T13:40:31.495Z</time>
      </trkpt>
      <trkpt lat="63.94674" lon="10.22502">
        <ele>55.499412</ele>
        <time>2020-08-08T13:40:33.486Z</time>
      </trkpt>
      <trkpt lat="63.94691" lon="10.22511">
        <ele>54.911513</ele>
        <time>2020-08-08T13:40:35.460Z</time>
      </trkpt>
      <trkpt lat="63.94707" lon="10.22519">
        <ele>54.337482</ele>
        <time>2020-08-08T13:40:37.482Z</time>
      </trkpt>
      <trkpt lat="63.94723" lon="10.22528">
        <ele>53.760071</ele>
        <time>2020-08-08T13:40:39.458Z</time>
      </trkpt>
      <trkpt lat="63.94738" lon="10.22536">
        <ele>53.229713</ele>
        <time>2020-08-08T13:40:41.495Z</time>
      </trkpt>
      <trkpt lat="63.94752" lon="10.22544">
        <ele>52.805482</ele>
        <time>2020-08-08T13:40:43.468Z</time>
      </trkpt>
      <trkpt lat="63.94765" lon="10.2255">
        <ele>52.881411</ele>
        <time>2020-08-08T13:40:45.481Z</time>
      </trkpt>
      <trkpt lat="63.94777" lon="10.22555">
        <ele>52.9521</ele>
        <time>2020-08-08T13:40:47.449Z</time>
      </trkpt>
      <trkpt lat="63.94787" lon="10.2256">
        <ele>53.015284</ele>
        <time>2020-08-08T13:40:49.478Z</time>
      </trkpt>
      <trkpt lat="63.94798" lon="10.22565">
        <ele>53.078418</ele>
        <time>2020-08-08T13:40:51.458Z</time>
      </trkpt>
      <trkpt lat="63.94808" lon="10.22569">
        <ele>53.136578</ele>
        <time>2020-08-08T13:40:53.494Z</time>
      </trkpt>
      <trkpt lat="63.94817" lon="10.22572">
        <ele>53.189872</ele>
        <time>2020-08-08T13:40:55.462Z</time>
      </trkpt>
      <trkpt lat="63.94826" lon="10.22574">
        <ele>53.243135</ele>
        <time>2020-08-08T13:40:57.464Z</time>
      </trkpt>
      <trkpt lat="63.94835" lon="10.22577">
        <ele>53.298158</ele>
        <time>2020-08-08T13:40:59.461Z</time>
      </trkpt>
      <trkpt lat="63.94845" lon="10.22581">
        <ele>53.355611</ele>
        <time>2020-08-08T13:41:01.479Z</time>
      </trkpt>
      <trkpt lat="63.94854" lon="10.22584">
        <ele>53.40864</ele>
        <time>2020-08-08T13:41:03.460Z</time>
      </trkpt>
      <trkpt lat="63.94867" lon="10.22589">
        <ele>53.487745</ele>
        <time>2020-08-08T13:41:06.477Z</time>
      </trkpt>
      <trkpt lat="63.94876" lon="10.22595">
        <ele>53.544843</ele>
        <time>2020-08-08T13:41:08.468Z</time>
      </trkpt>
      <trkpt lat="63.94886" lon="10.22601">
        <ele>53.600343</ele>
        <time>2020-08-08T13:41:10.473Z</time>
      </trkpt>
      <trkpt lat="63.94895" lon="10.22606">
        <ele>53.656408</ele>
        <time>2020-08-08T13:41:12.463Z</time>
      </trkpt>
      <trkpt lat="63.94904" lon="10.22612">
        <ele>53.714068</ele>
        <time>2020-08-08T13:41:14.488Z</time>
      </trkpt>
      <trkpt lat="63.94914" lon="10.22618">
        <ele>53.771523</ele>
        <time>2020-08-08T13:41:16.469Z</time>
      </trkpt>
      <trkpt lat="63.94924" lon="10.22624">
        <ele>53.830738</ele>
        <time>2020-08-08T13:41:18.471Z</time>
      </trkpt>
      <trkpt lat="63.94933" lon="10.2263">
        <ele>53.978457</ele>
        <time>2020-08-08T13:41:20.496Z</time>
      </trkpt>
      <trkpt lat="63.94943" lon="10.22637">
        <ele>54.1567</ele>
        <time>2020-08-08T13:41:22.489Z</time>
      </trkpt>
      <trkpt lat="63.94953" lon="10.22643">
        <ele>54.333531</ele>
        <time>2020-08-08T13:41:24.449Z</time>
      </trkpt>
      <trkpt lat="63.94963" lon="10.22648">
        <ele>54.509096</ele>
        <time>2020-08-08T13:41:26.464Z</time>
      </trkpt>
      <trkpt lat="63.94974" lon="10.22653">
        <ele>54.685522</ele>
        <time>2020-08-08T13:41:28.455Z</time>
      </trkpt>
      <trkpt lat="63.94984" lon="10.22658">
        <ele>54.867123</ele>
        <time>2020-08-08T13:41:30.474Z</time>
      </trkpt>
      <trkpt lat="63.94994" lon="10.22662">
        <ele>55.049288</ele>
        <time>2020-08-08T13:41:32.474Z</time>
      </trkpt>
      <trkpt lat="63.95005" lon="10.22666">
        <ele>55.232893</ele>
        <time>2020-08-08T13:41:34.494Z</time>
      </trkpt>
      <trkpt lat="63.95016" lon="10.22667">
        <ele>55.419766</ele>
        <time>2020-08-08T13:41:36.452Z</time>
      </trkpt>
      <trkpt lat="63.95026" lon="10.22669">
        <ele>55.596161</ele>
        <time>2020-08-08T13:41:38.450Z</time>
      </trkpt>
      <trkpt lat="63.95036" lon="10.22669">
        <ele>55.762087</ele>
        <time>2020-08-08T13:41:40.472Z</time>
      </trkpt>
      <trkpt lat="63.95045" lon="10.22669">
        <ele>55.922885</ele>
        <time>2020-08-08T13:41:42.501Z</time>
      </trkpt>
      <trkpt lat="63.95055" lon="10.22667">
        <ele>56.085579</ele>
        <time>2020-08-08T13:41:44.457Z</time>
      </trkpt>
      <trkpt lat="63.95064" lon="10.22666">
        <ele>56.25012</ele>
        <time>2020-08-08T13:41:46.461Z</time>
      </trkpt>
      <trkpt lat="63.95074" lon="10.22665">
        <ele>56.416271</ele>
        <time>2020-08-08T13:41:48.490Z</time>
      </trkpt>
      <trkpt lat="63.95084" lon="10.22665">
        <ele>56.585563</ele>
        <time>2020-08-08T13:41:50.467Z</time>
      </trkpt>
      <trkpt lat="63.95093" lon="10.22666">
        <ele>56.744674</ele>
        <time>2020-08-08T13:41:52.457Z</time>
      </trkpt>
      <trkpt lat="63.95106" lon="10.22665">
        <ele>56.957183</ele>
        <time>2020-08-08T13:41:55.471Z</time>
      </trkpt>
      <trkpt lat="63.95119" lon="10.22665">
        <ele>57.122313</ele>
        <time>2020-08-08T13:41:58.461Z</time>
      </trkpt>
      <trkpt lat="63.95132" lon="10.22665">
        <ele>57.287399</ele>
        <time>2020-08-08T13:42:01.505Z</time>
      </trkpt>
      <trkpt lat="63.95144" lon="10.22666">
        <ele>57.449925</ele>
        <time>2020-08-08T13:42:04.512Z</time>
      </trkpt>
      <trkpt lat="63.95157" lon="10.22667">
        <ele>57.613894</ele>
        <time>2020-08-08T13:42:07.485Z</time>
      </trkpt>
      <trkpt lat="63.95169" lon="10.22668">
        <ele>57.773818</ele>
        <time>2020-08-08T13:42:10.487Z</time>
      </trkpt>
      <trkpt lat="63.9518" lon="10.22669">
        <ele>57.924541</ele>
        <time>2020-08-08T13:42:13.453Z</time>
      </trkpt>
      <trkpt lat="63.9519" lon="10.22668">
        <ele>58.052984</ele>
        <time>2020-08-08T13:42:16.505Z</time>
      </trkpt>
      <trkpt lat="63.95201" lon="10.22668">
        <ele>58.197107</ele>
        <time>2020-08-08T13:42:20.462Z</time>
      </trkpt>
      <trkpt lat="63.95211" lon="10.22668">
        <ele>58.330755</ele>
        <time>2020-08-08T13:42:24.469Z</time>
      </trkpt>
      <trkpt lat="63.9522" lon="10.22668">
        <ele>58.451313</ele>
        <time>2020-08-08T13:42:28.483Z</time>
      </trkpt>
      <trkpt lat="63.95231" lon="10.22674">
        <ele>58.593575</ele>
        <time>2020-08-08T13:42:32.481Z</time>
      </trkpt>
      <trkpt lat="63.9524" lon="10.22677">
        <ele>58.717856</ele>
        <time>2020-08-08T13:42:36.490Z</time>
      </trkpt>
      <trkpt lat="63.9525" lon="10.22679">
        <ele>58.843968</ele>
        <time>2020-08-08T13:42:40.484Z</time>
      </trkpt>
      <trkpt lat="63.95261" lon="10.22682">
        <ele>58.98811</ele>
        <time>2020-08-08T13:42:45.486Z</time>
      </trkpt>
      <trkpt lat="63.9527" lon="10.22685">
        <ele>59.106899</ele>
        <time>2020-08-08T13:42:49.498Z</time>
      </trkpt>
      <trkpt lat="63.95279" lon="10.22687">
        <ele>59.229591</ele>
        <time>2020-08-08T13:42:53.475Z</time>
      </trkpt>
      <trkpt lat="63.9529" lon="10.22688">
        <ele>59.678796</ele>
        <time>2020-08-08T13:42:58.506Z</time>
      </trkpt>
      <trkpt lat="63.95301" lon="10.22689">
        <ele>60.216355</ele>
        <time>2020-08-08T13:43:03.480Z</time>
      </trkpt>
      <trkpt lat="63.95311" lon="10.2269">
        <ele>60.748145</ele>
        <time>2020-08-08T13:43:08.473Z</time>
      </trkpt>
      <trkpt lat="63.95321" lon="10.22693">
        <ele>61.30249</ele>
        <time>2020-08-08T13:43:13.461Z</time>
      </trkpt>
      <trkpt lat="63.95331" lon="10.22695">
        <ele>61.825199</ele>
        <time>2020-08-08T13:43:18.448Z</time>
      </trkpt>
      <trkpt lat="63.95341" lon="10.22693">
        <ele>62.331119</ele>
        <time>2020-08-08T13:43:24.480Z</time>
      </trkpt>
      <trkpt lat="63.95351" lon="10.22694">
        <ele>62.857291</ele>
        <time>2020-08-08T13:43:30.514Z</time>
      </trkpt>
      <trkpt lat="63.9536" lon="10.22696">
        <ele>63.327205</ele>
        <time>2020-08-08T13:43:36.470Z</time>
      </trkpt>
      <trkpt lat="63.95369" lon="10.22696">
        <ele>63.842631</ele>
        <time>2020-08-08T13:43:42.450Z</time>
      </trkpt>
      <trkpt lat="63.95379" lon="10.22698">
        <ele>64.334371</ele>
        <time>2020-08-08T13:43:48.453Z</time>
      </trkpt>
      <trkpt lat="63.95388" lon="10.227">
        <ele>64.840782</ele>
        <time>2020-08-08T13:43:54.501Z</time>
      </trkpt>
      <trkpt lat="63.95398" lon="10.22701">
        <ele>65.373413</ele>
        <time>2020-08-08T13:44:01.454Z</time>
      </trkpt>
      <trkpt lat="63.95407" lon="10.22701">
        <ele>65.852009</ele>
        <time>2020-08-08T13:44:07.461Z</time>
      </trkpt>
      <trkpt lat="63.95417" lon="10.22703">
        <ele>66.338058</ele>
        <time>2020-08-08T13:44:14.491Z</time>
      </trkpt>
      <trkpt lat="63.95427" lon="10.22702">
        <ele>66.88118</ele>
        <time>2020-08-08T13:44:21.475Z</time>
      </trkpt>
      <trkpt lat="63.95437" lon="10.227">
        <ele>67.43514</ele>
        <time>2020-08-08T13:44:27.482Z</time>
      </trkpt>
      <trkpt lat="63.95447" lon="10.22701">
        <ele>67.956541</ele>
        <time>2020-08-08T13:44:33.494Z</time>
      </trkpt>
      <trkpt lat="63.95457" lon="10.22693">
        <ele>68.491824</ele>
        <time>2020-08-08T13:44:39.475Z</time>
      </trkpt>
      <trkpt lat="63.95466" lon="10.22687">
        <ele>68.827865</ele>
        <time>2020-08-08T13:44:45.474Z</time>
      </trkpt>
      <trkpt lat="63.95476" lon="10.22687">
        <ele>69.004833</ele>
        <time>2020-08-08T13:44:51.482Z</time>
      </trkpt>
      <trkpt lat="63.95485" lon="10.22689">
        <ele>69.18402</ele>
        <time>2020-08-08T13:44:58.472Z</time>
      </trkpt>
      <trkpt lat="63.95495" lon="10.2269">
        <ele>69.357531</ele>
        <time>2020-08-08T13:45:04.455Z</time>
      </trkpt>
      <trkpt lat="63.95505" lon="10.22691">
        <ele>69.536513</ele>
        <time>2020-08-08T13:45:11.473Z</time>
      </trkpt>
      <trkpt lat="63.95515" lon="10.22692">
        <ele>69.728145</ele>
        <time>2020-08-08T13:45:17.499Z</time>
      </trkpt>
      <trkpt lat="63.95524" lon="10.22692">
        <ele>69.895811</ele>
        <time>2020-08-08T13:45:22.466Z</time>
      </trkpt>
      <trkpt lat="63.95533" lon="10.22697">
        <ele>70.073303</ele>
        <time>2020-08-08T13:45:28.479Z</time>
      </trkpt>
      <trkpt lat="63.95543" lon="10.22698">
        <ele>70.246683</ele>
        <time>2020-08-08T13:45:33.473Z</time>
      </trkpt>
      <trkpt lat="63.95553" lon="10.22697">
        <ele>70.436473</ele>
        <time>2020-08-08T13:45:38.471Z</time>
      </trkpt>
      <trkpt lat="63.95564" lon="10.22699">
        <ele>70.633897</ele>
        <time>2020-08-08T13:45:43.524Z</time>
      </trkpt>
      <trkpt lat="63.95574" lon="10.22699">
        <ele>70.814574</ele>
        <time>2020-08-08T13:45:47.474Z</time>
      </trkpt>
      <trkpt lat="63.95585" lon="10.227">
        <ele>71.021089</ele>
        <time>2020-08-08T13:45:51.489Z</time>
      </trkpt>
      <trkpt lat="63.95594" lon="10.22702">
        <ele>71.189192</ele>
        <time>2020-08-08T13:45:54.505Z</time>
      </trkpt>
      <trkpt lat="63.95605" lon="10.22702">
        <ele>71.391863</ele>
        <time>2020-08-08T13:45:57.482Z</time>
      </trkpt>
      <trkpt lat="63.95617" lon="10.22704">
        <ele>71.619007</ele>
        <time>2020-08-08T13:46:00.464Z</time>
      </trkpt>
      <trkpt lat="63.95627" lon="10.22705">
        <ele>71.792388</ele>
        <time>2020-08-08T13:46:02.489Z</time>
      </trkpt>
      <trkpt lat="63.95637" lon="10.22706">
        <ele>71.98241</ele>
        <time>2020-08-08T13:46:04.464Z</time>
      </trkpt>
      <trkpt lat="63.95648" lon="10.22708">
        <ele>71.523405</ele>
        <time>2020-08-08T13:46:06.490Z</time>
      </trkpt>
      <trkpt lat="63.9566" lon="10.22708">
        <ele>70.687849</ele>
        <time>2020-08-08T13:46:08.479Z</time>
      </trkpt>
      <trkpt lat="63.95674" lon="10.2271">
        <ele>69.723932</ele>
        <time>2020-08-08T13:46:10.478Z</time>
      </trkpt>
      <trkpt lat="63.95687" lon="10.22713">
        <ele>68.765652</ele>
        <time>2020-08-08T13:46:12.474Z</time>
      </trkpt>
      <trkpt lat="63.95701" lon="10.22713">
        <ele>67.817752</ele>
        <time>2020-08-08T13:46:14.505Z</time>
      </trkpt>
      <trkpt lat="63.95714" lon="10.22713">
        <ele>66.855409</ele>
        <time>2020-08-08T13:46:16.446Z</time>
      </trkpt>
      <trkpt lat="63.95728" lon="10.22715">
        <ele>65.919717</ele>
        <time>2020-08-08T13:46:18.515Z</time>
      </trkpt>
      <trkpt lat="63.95741" lon="10.22717">
        <ele>64.977203</ele>
        <time>2020-08-08T13:46:20.510Z</time>
      </trkpt>
      <trkpt lat="63.95755" lon="10.22719">
        <ele>63.992959</ele>
        <time>2020-08-08T13:46:22.487Z</time>
      </trkpt>
      <trkpt lat="63.9577" lon="10.22721">
        <ele>62.980344</ele>
        <time>2020-08-08T13:46:24.491Z</time>
      </trkpt>
      <trkpt lat="63.95784" lon="10.22723">
        <ele>61.932143</ele>
        <time>2020-08-08T13:46:26.500Z</time>
      </trkpt>
      <trkpt lat="63.958" lon="10.22724">
        <ele>60.843285</ele>
        <time>2020-08-08T13:46:28.492Z</time>
      </trkpt>
      <trkpt lat="63.95816" lon="10.22725">
        <ele>59.726035</ele>
        <time>2020-08-08T13:46:30.459Z</time>
      </trkpt>
      <trkpt lat="63.95832" lon="10.22727">
        <ele>58.580581</ele>
        <time>2020-08-08T13:46:32.482Z</time>
      </trkpt>
      <trkpt lat="63.95847" lon="10.22727">
        <ele>57.505618</ele>
        <time>2020-08-08T13:46:34.470Z</time>
      </trkpt>
      <trkpt lat="63.95861" lon="10.22725">
        <ele>56.479895</ele>
        <time>2020-08-08T13:46:36.482Z</time>
      </trkpt>
      <trkpt lat="63.95873" lon="10.2272">
        <ele>55.545369</ele>
        <time>2020-08-08T13:46:38.495Z</time>
      </trkpt>
      <trkpt lat="63.95885" lon="10.22713">
        <ele>54.651072</ele>
        <time>2020-08-08T13:46:40.472Z</time>
      </trkpt>
      <trkpt lat="63.95896" lon="10.22704">
        <ele>53.828</ele>
        <time>2020-08-08T13:46:42.461Z</time>
      </trkpt>
      <trkpt lat="63.95904" lon="10.22694">
        <ele>53.176172</ele>
        <time>2020-08-08T13:46:44.476Z</time>
      </trkpt>
      <trkpt lat="63.9591" lon="10.22678">
        <ele>52.507449</ele>
        <time>2020-08-08T13:46:47.484Z</time>
      </trkpt>
      <trkpt lat="63.95905" lon="10.22659">
        <ele>51.80292</ele>
        <time>2020-08-08T13:46:50.470Z</time>
      </trkpt>
      <trkpt lat="63.95898" lon="10.22645">
        <ele>51.153172</ele>
        <time>2020-08-08T13:46:52.482Z</time>
      </trkpt>
      <trkpt lat="63.95892" lon="10.22629">
        <ele>50.445804</ele>
        <time>2020-08-08T13:46:54.526Z</time>
      </trkpt>
      <trkpt lat="63.95884" lon="10.22609">
        <ele>49.602362</ele>
        <time>2020-08-08T13:46:56.464Z</time>
      </trkpt>
      <trkpt lat="63.95876" lon="10.2259">
        <ele>48.794844</ele>
        <time>2020-08-08T13:46:58.490Z</time>
      </trkpt>
      <trkpt lat="63.9587" lon="10.22572">
        <ele>48.028058</ele>
        <time>2020-08-08T13:47:00.477Z</time>
      </trkpt>
      <trkpt lat="63.95863" lon="10.22553">
        <ele>47.29097</ele>
        <time>2020-08-08T13:47:02.472Z</time>
      </trkpt>
      <trkpt lat="63.95856" lon="10.22529">
        <ele>46.354611</ele>
        <time>2020-08-08T13:47:05.488Z</time>
      </trkpt>
      <trkpt lat="63.95849" lon="10.22506">
        <ele>46.261425</ele>
        <time>2020-08-08T13:47:08.511Z</time>
      </trkpt>
      <trkpt lat="63.95842" lon="10.22482">
        <ele>46.167783</ele>
        <time>2020-08-08T13:47:11.474Z</time>
      </trkpt>
      <trkpt lat="63.95837" lon="10.22465">
        <ele>46.098544</ele>
        <time>2020-08-08T13:47:13.463Z</time>
      </trkpt>
      <trkpt lat="63.9583" lon="10.2244">
        <ele>45.999244</ele>
        <time>2020-08-08T13:47:16.460Z</time>
      </trkpt>
      <trkpt lat="63.95824" lon="10.22423">
        <ele>45.929564</ele>
        <time>2020-08-08T13:47:18.461Z</time>
      </trkpt>
      <trkpt lat="63.95818" lon="10.22402">
        <ele>45.844698</ele>
        <time>2020-08-08T13:47:21.461Z</time>
      </trkpt>
      <trkpt lat="63.95812" lon="10.22381">
        <ele>45.763989</ele>
        <time>2020-08-08T13:47:24.490Z</time>
      </trkpt>
      <trkpt lat="63.95805" lon="10.22358">
        <ele>45.671483</ele>
        <time>2020-08-08T13:47:27.463Z</time>
      </trkpt>
      <trkpt lat="63.95799" lon="10.22334">
        <ele>45.578518</ele>
        <time>2020-08-08T13:47:30.480Z</time>
      </trkpt>
      <trkpt lat="63.95794" lon="10.22311">
        <ele>45.490669</ele>
        <time>2020-08-08T13:47:33.469Z</time>
      </trkpt>
      <trkpt lat="63.95788" lon="10.22288">
        <ele>45.405694</ele>
        <time>2020-08-08T13:47:36.450Z</time>
      </trkpt>
      <trkpt lat="63.95785" lon="10.22268">
        <ele>45.331806</ele>
        <time>2020-08-08T13:47:39.474Z</time>
      </trkpt>
      <trkpt lat="63.9578" lon="10.22248">
        <ele>45.258355</ele>
        <time>2020-08-08T13:47:42.486Z</time>
      </trkpt>
      <trkpt lat="63.95774" lon="10.22229">
        <ele>45.181234</ele>
        <time>2020-08-08T13:47:45.490Z</time>
      </trkpt>
      <trkpt lat="63.95767" lon="10.22212">
        <ele>45.10508</ele>
        <time>2020-08-08T13:47:48.473Z</time>
      </trkpt>
      <trkpt lat="63.9576" lon="10.22198">
        <ele>45.032728</ele>
        <time>2020-08-08T13:47:51.474Z</time>
      </trkpt>
      <trkpt lat="63.95752" lon="10.22184">
        <ele>44.995879</ele>
        <time>2020-08-08T13:47:55.500Z</time>
      </trkpt>
      <trkpt lat="63.95742" lon="10.22169">
        <ele>44.995879</ele>
        <time>2020-08-08T13:47:59.510Z</time>
      </trkpt>
      <trkpt lat="63.95734" lon="10.22155">
        <ele>44.995879</ele>
        <time>2020-08-08T13:48:03.500Z</time>
      </trkpt>
      <trkpt lat="63.95726" lon="10.22143">
        <ele>44.995879</ele>
        <time>2020-08-08T13:48:07.442Z</time>
      </trkpt>
      <trkpt lat="63.95718" lon="10.22128">
        <ele>44.995879</ele>
        <time>2020-08-08T13:48:11.451Z</time>
      </trkpt>
      <trkpt lat="63.95711" lon="10.22115">
        <ele>44.995879</ele>
        <time>2020-08-08T13:48:15.476Z</time>
      </trkpt>
      <trkpt lat="63.95702" lon="10.22101">
        <ele>44.995879</ele>
        <time>2020-08-08T13:48:19.459Z</time>
      </trkpt>
      <trkpt lat="63.95692" lon="10.22093">
        <ele>44.995879</ele>
        <time>2020-08-08T13:48:23.507Z</time>
      </trkpt>
      <trkpt lat="63.95682" lon="10.2209">
        <ele>44.995879</ele>
        <time>2020-08-08T13:48:27.439Z</time>
      </trkpt>
      <trkpt lat="63.95679" lon="10.22098">
        <ele>44.995879</ele>
        <time>2020-08-08T14:00:02.338Z</time>
      </trkpt>
    </trkseg>
  </trk>
</gpx>